<?xml version="1.0" encoding="UTF-8" standalone="no" ?>
<gpx xmlns="http://www.topografix.com/GPX/1/1" xmlns:xsi="http://www.w3.org/2001/XMLSchema-instance" xsi:schemaLocation="http://www.topografix.com/GPX/1/1 http://www.topografix.com/GPX/1/1/gpx.xsd" version="1.1" creator="VisuGPX - https://www.visugpx.com">
  <metadata>
    <name>Vallée blanche et diable</name>
  </metadata>
  <trk>
    <name><![CDATA[Vallée blanche et diable_1]]></name>
    <extensions>
      <line xmlns="http://www.topografix.com/GPX/gpx_style/0/2">
        <color>0000FF</color>
        <width>4</width>
      </line>
    </extensions>
    <trkseg>
      <trkpt lat="45.02367" lon="6.12497">
        <ele>1612.4</ele>
        <time>2022-12-29T10:39:24Z</time>
      </trkpt>
      <trkpt lat="45.02367" lon="6.12497">
        <ele>1612.4</ele>
        <time>2022-12-29T10:39:28Z</time>
      </trkpt>
      <trkpt lat="45.02367" lon="6.12498">
        <ele>1612.4</ele>
        <time>2022-12-29T10:39:29Z</time>
      </trkpt>
      <trkpt lat="45.02363" lon="6.1249">
        <ele>1612.4</ele>
        <time>2022-12-29T10:39:38Z</time>
      </trkpt>
      <trkpt lat="45.02363" lon="6.1249">
        <ele>1612.4</ele>
        <time>2022-12-29T10:39:41Z</time>
      </trkpt>
      <trkpt lat="45.02365" lon="6.12484">
        <ele>1612.4</ele>
        <time>2022-12-29T10:39:42Z</time>
      </trkpt>
      <trkpt lat="45.02367" lon="6.12481">
        <ele>1612.4</ele>
        <time>2022-12-29T10:39:44Z</time>
      </trkpt>
      <trkpt lat="45.02369" lon="6.12479">
        <ele>1612.4</ele>
        <time>2022-12-29T10:39:45Z</time>
      </trkpt>
      <trkpt lat="45.02371" lon="6.12476">
        <ele>1612.4</ele>
        <time>2022-12-29T10:39:46Z</time>
      </trkpt>
      <trkpt lat="45.02373" lon="6.12473">
        <ele>1612.4</ele>
        <time>2022-12-29T10:39:47Z</time>
      </trkpt>
      <trkpt lat="45.02375" lon="6.1247">
        <ele>1612.4</ele>
        <time>2022-12-29T10:39:48Z</time>
      </trkpt>
      <trkpt lat="45.02377" lon="6.12468">
        <ele>1612.4</ele>
        <time>2022-12-29T10:39:49Z</time>
      </trkpt>
      <trkpt lat="45.02379" lon="6.12465">
        <ele>1612.4</ele>
        <time>2022-12-29T10:39:50Z</time>
      </trkpt>
      <trkpt lat="45.02381" lon="6.12462">
        <ele>1608.6</ele>
        <time>2022-12-29T10:39:51Z</time>
      </trkpt>
      <trkpt lat="45.02385" lon="6.12454">
        <ele>1608.6</ele>
        <time>2022-12-29T10:39:52Z</time>
      </trkpt>
      <trkpt lat="45.02385" lon="6.12447">
        <ele>1608.6</ele>
        <time>2022-12-29T10:39:53Z</time>
      </trkpt>
      <trkpt lat="45.02385" lon="6.12441">
        <ele>1608.6</ele>
        <time>2022-12-29T10:39:54Z</time>
      </trkpt>
      <trkpt lat="45.02385" lon="6.12434">
        <ele>1608.6</ele>
        <time>2022-12-29T10:39:55Z</time>
      </trkpt>
      <trkpt lat="45.02385" lon="6.12427">
        <ele>1608.6</ele>
        <time>2022-12-29T10:39:56Z</time>
      </trkpt>
      <trkpt lat="45.02385" lon="6.12421">
        <ele>1608.6</ele>
        <time>2022-12-29T10:39:57Z</time>
      </trkpt>
      <trkpt lat="45.02385" lon="6.12414">
        <ele>1608.6</ele>
        <time>2022-12-29T10:39:58Z</time>
      </trkpt>
      <trkpt lat="45.02385" lon="6.12408">
        <ele>1608.6</ele>
        <time>2022-12-29T10:39:59Z</time>
      </trkpt>
      <trkpt lat="45.02385" lon="6.12401">
        <ele>1608.6</ele>
        <time>2022-12-29T10:40:00Z</time>
      </trkpt>
      <trkpt lat="45.02385" lon="6.12394">
        <ele>1598.4</ele>
        <time>2022-12-29T10:40:01Z</time>
      </trkpt>
      <trkpt lat="45.02381" lon="6.12381">
        <ele>1598.4</ele>
        <time>2022-12-29T10:40:02Z</time>
      </trkpt>
      <trkpt lat="45.0238" lon="6.12374">
        <ele>1598.4</ele>
        <time>2022-12-29T10:40:03Z</time>
      </trkpt>
      <trkpt lat="45.02378" lon="6.12367">
        <ele>1598.4</ele>
        <time>2022-12-29T10:40:04Z</time>
      </trkpt>
      <trkpt lat="45.02377" lon="6.1236">
        <ele>1598.4</ele>
        <time>2022-12-29T10:40:05Z</time>
      </trkpt>
      <trkpt lat="45.02375" lon="6.12353">
        <ele>1598.4</ele>
        <time>2022-12-29T10:40:06Z</time>
      </trkpt>
      <trkpt lat="45.02374" lon="6.12346">
        <ele>1598.4</ele>
        <time>2022-12-29T10:40:07Z</time>
      </trkpt>
      <trkpt lat="45.02373" lon="6.12339">
        <ele>1598.4</ele>
        <time>2022-12-29T10:40:08Z</time>
      </trkpt>
      <trkpt lat="45.02371" lon="6.12332">
        <ele>1598.4</ele>
        <time>2022-12-29T10:40:09Z</time>
      </trkpt>
      <trkpt lat="45.0237" lon="6.12325">
        <ele>1598.4</ele>
        <time>2022-12-29T10:40:10Z</time>
      </trkpt>
      <trkpt lat="45.02368" lon="6.12318">
        <ele>1585.6</ele>
        <time>2022-12-29T10:40:11Z</time>
      </trkpt>
      <trkpt lat="45.02366" lon="6.12303">
        <ele>1585.6</ele>
        <time>2022-12-29T10:40:12Z</time>
      </trkpt>
      <trkpt lat="45.02365" lon="6.12298">
        <ele>1585.6</ele>
        <time>2022-12-29T10:40:13Z</time>
      </trkpt>
      <trkpt lat="45.02364" lon="6.12292">
        <ele>1585.6</ele>
        <time>2022-12-29T10:40:14Z</time>
      </trkpt>
      <trkpt lat="45.02362" lon="6.12287">
        <ele>1585.6</ele>
        <time>2022-12-29T10:40:15Z</time>
      </trkpt>
      <trkpt lat="45.02361" lon="6.12282">
        <ele>1585.6</ele>
        <time>2022-12-29T10:40:16Z</time>
      </trkpt>
      <trkpt lat="45.0236" lon="6.12276">
        <ele>1585.6</ele>
        <time>2022-12-29T10:40:17Z</time>
      </trkpt>
      <trkpt lat="45.02359" lon="6.12271">
        <ele>1585.6</ele>
        <time>2022-12-29T10:40:18Z</time>
      </trkpt>
      <trkpt lat="45.02358" lon="6.12265">
        <ele>1585.6</ele>
        <time>2022-12-29T10:40:19Z</time>
      </trkpt>
      <trkpt lat="45.02357" lon="6.1226">
        <ele>1585.6</ele>
        <time>2022-12-29T10:40:20Z</time>
      </trkpt>
      <trkpt lat="45.02355" lon="6.12255">
        <ele>1581.8</ele>
        <time>2022-12-29T10:40:21Z</time>
      </trkpt>
      <trkpt lat="45.02356" lon="6.12253">
        <ele>1581.8</ele>
        <time>2022-12-29T10:40:22Z</time>
      </trkpt>
      <trkpt lat="45.02357" lon="6.1225">
        <ele>1581.8</ele>
        <time>2022-12-29T10:40:23Z</time>
      </trkpt>
      <trkpt lat="45.02357" lon="6.1225">
        <ele>1581.8</ele>
        <time>2022-12-29T10:40:24Z</time>
      </trkpt>
      <trkpt lat="45.02357" lon="6.1225">
        <ele>1581.8</ele>
        <time>2022-12-29T10:40:25Z</time>
      </trkpt>
      <trkpt lat="45.02357" lon="6.1225">
        <ele>1581.8</ele>
        <time>2022-12-29T10:40:26Z</time>
      </trkpt>
      <trkpt lat="45.02357" lon="6.1225">
        <ele>1581.8</ele>
        <time>2022-12-29T10:40:27Z</time>
      </trkpt>
      <trkpt lat="45.02357" lon="6.1225">
        <ele>1581.8</ele>
        <time>2022-12-29T10:40:28Z</time>
      </trkpt>
      <trkpt lat="45.02357" lon="6.1225">
        <ele>1581.8</ele>
        <time>2022-12-29T10:40:29Z</time>
      </trkpt>
      <trkpt lat="45.02357" lon="6.1225">
        <ele>1581.8</ele>
        <time>2022-12-29T10:40:30Z</time>
      </trkpt>
      <trkpt lat="45.02357" lon="6.1225">
        <ele>1581.4</ele>
        <time>2022-12-29T10:40:31Z</time>
      </trkpt>
      <trkpt lat="45.02357" lon="6.1225">
        <ele>1581.4</ele>
        <time>2022-12-29T10:40:32Z</time>
      </trkpt>
      <trkpt lat="45.02357" lon="6.1225">
        <ele>1581.4</ele>
        <time>2022-12-29T10:40:33Z</time>
      </trkpt>
      <trkpt lat="45.02357" lon="6.1225">
        <ele>1581.4</ele>
        <time>2022-12-29T10:40:34Z</time>
      </trkpt>
      <trkpt lat="45.02357" lon="6.1225">
        <ele>1581.4</ele>
        <time>2022-12-29T10:40:35Z</time>
      </trkpt>
      <trkpt lat="45.02357" lon="6.1225">
        <ele>1581.4</ele>
        <time>2022-12-29T10:40:36Z</time>
      </trkpt>
      <trkpt lat="45.02357" lon="6.1225">
        <ele>1581.4</ele>
        <time>2022-12-29T10:40:39Z</time>
      </trkpt>
      <trkpt lat="45.02357" lon="6.12249">
        <ele>1581.6</ele>
        <time>2022-12-29T10:40:41Z</time>
      </trkpt>
      <trkpt lat="45.02357" lon="6.12249">
        <ele>1581.6</ele>
        <time>2022-12-29T10:40:44Z</time>
      </trkpt>
      <trkpt lat="45.02357" lon="6.12249">
        <ele>1581.6</ele>
        <time>2022-12-29T10:40:47Z</time>
      </trkpt>
      <trkpt lat="45.02357" lon="6.12249">
        <ele>1581.6</ele>
        <time>2022-12-29T10:40:50Z</time>
      </trkpt>
      <trkpt lat="45.02357" lon="6.12249">
        <ele>1582.4</ele>
        <time>2022-12-29T10:40:51Z</time>
      </trkpt>
      <trkpt lat="45.02357" lon="6.12249">
        <ele>1582.4</ele>
        <time>2022-12-29T10:40:54Z</time>
      </trkpt>
      <trkpt lat="45.02357" lon="6.12249">
        <ele>1582.4</ele>
        <time>2022-12-29T10:40:55Z</time>
      </trkpt>
      <trkpt lat="45.02357" lon="6.12249">
        <ele>1582.4</ele>
        <time>2022-12-29T10:40:58Z</time>
      </trkpt>
      <trkpt lat="45.02357" lon="6.12249">
        <ele>1582.4</ele>
        <time>2022-12-29T10:40:59Z</time>
      </trkpt>
      <trkpt lat="45.02357" lon="6.12249">
        <ele>1582.4</ele>
        <time>2022-12-29T10:41:00Z</time>
      </trkpt>
      <trkpt lat="45.02357" lon="6.12249">
        <ele>1583</ele>
        <time>2022-12-29T10:41:01Z</time>
      </trkpt>
      <trkpt lat="45.02357" lon="6.12249">
        <ele>1583</ele>
        <time>2022-12-29T10:41:04Z</time>
      </trkpt>
      <trkpt lat="45.02357" lon="6.12249">
        <ele>1583</ele>
        <time>2022-12-29T10:41:05Z</time>
      </trkpt>
      <trkpt lat="45.02357" lon="6.12249">
        <ele>1583</ele>
        <time>2022-12-29T10:41:06Z</time>
      </trkpt>
      <trkpt lat="45.02357" lon="6.12249">
        <ele>1583</ele>
        <time>2022-12-29T10:41:07Z</time>
      </trkpt>
      <trkpt lat="45.02357" lon="6.12249">
        <ele>1583</ele>
        <time>2022-12-29T10:41:08Z</time>
      </trkpt>
      <trkpt lat="45.02357" lon="6.12249">
        <ele>1583</ele>
        <time>2022-12-29T10:41:09Z</time>
      </trkpt>
      <trkpt lat="45.02357" lon="6.12249">
        <ele>1583</ele>
        <time>2022-12-29T10:41:10Z</time>
      </trkpt>
      <trkpt lat="45.02357" lon="6.12248">
        <ele>1583.4</ele>
        <time>2022-12-29T10:41:11Z</time>
      </trkpt>
      <trkpt lat="45.02357" lon="6.12248">
        <ele>1583.4</ele>
        <time>2022-12-29T10:41:12Z</time>
      </trkpt>
      <trkpt lat="45.02357" lon="6.12248">
        <ele>1583.4</ele>
        <time>2022-12-29T10:41:13Z</time>
      </trkpt>
      <trkpt lat="45.02357" lon="6.12248">
        <ele>1583.4</ele>
        <time>2022-12-29T10:41:14Z</time>
      </trkpt>
      <trkpt lat="45.02357" lon="6.12248">
        <ele>1583.4</ele>
        <time>2022-12-29T10:41:15Z</time>
      </trkpt>
      <trkpt lat="45.02357" lon="6.12248">
        <ele>1583.4</ele>
        <time>2022-12-29T10:41:16Z</time>
      </trkpt>
      <trkpt lat="45.02357" lon="6.12248">
        <ele>1583.4</ele>
        <time>2022-12-29T10:41:17Z</time>
      </trkpt>
      <trkpt lat="45.02357" lon="6.12248">
        <ele>1583.4</ele>
        <time>2022-12-29T10:41:18Z</time>
      </trkpt>
      <trkpt lat="45.02357" lon="6.12248">
        <ele>1583.4</ele>
        <time>2022-12-29T10:41:19Z</time>
      </trkpt>
      <trkpt lat="45.02357" lon="6.12248">
        <ele>1583.4</ele>
        <time>2022-12-29T10:41:20Z</time>
      </trkpt>
      <trkpt lat="45.02357" lon="6.12248">
        <ele>1583.4</ele>
        <time>2022-12-29T10:41:21Z</time>
      </trkpt>
      <trkpt lat="45.02357" lon="6.12248">
        <ele>1583.4</ele>
        <time>2022-12-29T10:41:22Z</time>
      </trkpt>
      <trkpt lat="45.02357" lon="6.12248">
        <ele>1583.4</ele>
        <time>2022-12-29T10:41:23Z</time>
      </trkpt>
      <trkpt lat="45.02357" lon="6.12248">
        <ele>1583.4</ele>
        <time>2022-12-29T10:41:24Z</time>
      </trkpt>
      <trkpt lat="45.02357" lon="6.12248">
        <ele>1583.4</ele>
        <time>2022-12-29T10:41:25Z</time>
      </trkpt>
      <trkpt lat="45.02357" lon="6.12248">
        <ele>1583.4</ele>
        <time>2022-12-29T10:41:26Z</time>
      </trkpt>
      <trkpt lat="45.02357" lon="6.12248">
        <ele>1583.4</ele>
        <time>2022-12-29T10:41:27Z</time>
      </trkpt>
      <trkpt lat="45.02357" lon="6.12247">
        <ele>1583.4</ele>
        <time>2022-12-29T10:41:28Z</time>
      </trkpt>
      <trkpt lat="45.02357" lon="6.12247">
        <ele>1583.4</ele>
        <time>2022-12-29T10:41:29Z</time>
      </trkpt>
      <trkpt lat="45.02357" lon="6.12247">
        <ele>1583.4</ele>
        <time>2022-12-29T10:41:30Z</time>
      </trkpt>
      <trkpt lat="45.02357" lon="6.12247">
        <ele>1582</ele>
        <time>2022-12-29T10:41:31Z</time>
      </trkpt>
      <trkpt lat="45.02357" lon="6.12247">
        <ele>1582</ele>
        <time>2022-12-29T10:41:32Z</time>
      </trkpt>
      <trkpt lat="45.02357" lon="6.12247">
        <ele>1582</ele>
        <time>2022-12-29T10:41:33Z</time>
      </trkpt>
      <trkpt lat="45.02357" lon="6.12247">
        <ele>1582</ele>
        <time>2022-12-29T10:41:34Z</time>
      </trkpt>
      <trkpt lat="45.02357" lon="6.12247">
        <ele>1582</ele>
        <time>2022-12-29T10:41:39Z</time>
      </trkpt>
      <trkpt lat="45.02357" lon="6.12247">
        <ele>1582</ele>
        <time>2022-12-29T10:41:41Z</time>
      </trkpt>
      <trkpt lat="45.02357" lon="6.12247">
        <ele>1582</ele>
        <time>2022-12-29T10:41:42Z</time>
      </trkpt>
      <trkpt lat="45.02357" lon="6.12247">
        <ele>1582</ele>
        <time>2022-12-29T10:41:43Z</time>
      </trkpt>
      <trkpt lat="45.02358" lon="6.12247">
        <ele>1582</ele>
        <time>2022-12-29T10:41:44Z</time>
      </trkpt>
      <trkpt lat="45.02358" lon="6.12247">
        <ele>1582</ele>
        <time>2022-12-29T10:41:45Z</time>
      </trkpt>
      <trkpt lat="45.02358" lon="6.12247">
        <ele>1582</ele>
        <time>2022-12-29T10:41:46Z</time>
      </trkpt>
      <trkpt lat="45.02358" lon="6.12247">
        <ele>1582</ele>
        <time>2022-12-29T10:41:47Z</time>
      </trkpt>
      <trkpt lat="45.02358" lon="6.12247">
        <ele>1582</ele>
        <time>2022-12-29T10:41:48Z</time>
      </trkpt>
      <trkpt lat="45.02358" lon="6.12247">
        <ele>1582</ele>
        <time>2022-12-29T10:41:49Z</time>
      </trkpt>
      <trkpt lat="45.02358" lon="6.12246">
        <ele>1582</ele>
        <time>2022-12-29T10:41:50Z</time>
      </trkpt>
      <trkpt lat="45.02358" lon="6.12246">
        <ele>1583.4</ele>
        <time>2022-12-29T10:41:51Z</time>
      </trkpt>
      <trkpt lat="45.02358" lon="6.12246">
        <ele>1583.4</ele>
        <time>2022-12-29T10:41:52Z</time>
      </trkpt>
      <trkpt lat="45.02358" lon="6.12246">
        <ele>1583.4</ele>
        <time>2022-12-29T10:41:53Z</time>
      </trkpt>
      <trkpt lat="45.02358" lon="6.12246">
        <ele>1583.4</ele>
        <time>2022-12-29T10:41:54Z</time>
      </trkpt>
      <trkpt lat="45.02358" lon="6.12246">
        <ele>1583.4</ele>
        <time>2022-12-29T10:41:55Z</time>
      </trkpt>
      <trkpt lat="45.02358" lon="6.12246">
        <ele>1583.4</ele>
        <time>2022-12-29T10:41:56Z</time>
      </trkpt>
      <trkpt lat="45.02358" lon="6.12246">
        <ele>1583.4</ele>
        <time>2022-12-29T10:41:57Z</time>
      </trkpt>
      <trkpt lat="45.02358" lon="6.12246">
        <ele>1583.4</ele>
        <time>2022-12-29T10:41:58Z</time>
      </trkpt>
      <trkpt lat="45.02358" lon="6.12246">
        <ele>1583.4</ele>
        <time>2022-12-29T10:41:59Z</time>
      </trkpt>
      <trkpt lat="45.02358" lon="6.12246">
        <ele>1583.4</ele>
        <time>2022-12-29T10:42:00Z</time>
      </trkpt>
      <trkpt lat="45.02358" lon="6.12246">
        <ele>1583.8</ele>
        <time>2022-12-29T10:42:01Z</time>
      </trkpt>
      <trkpt lat="45.02358" lon="6.12246">
        <ele>1583.8</ele>
        <time>2022-12-29T10:42:02Z</time>
      </trkpt>
      <trkpt lat="45.02358" lon="6.12246">
        <ele>1583.8</ele>
        <time>2022-12-29T10:42:03Z</time>
      </trkpt>
      <trkpt lat="45.02358" lon="6.12246">
        <ele>1583.8</ele>
        <time>2022-12-29T10:42:04Z</time>
      </trkpt>
      <trkpt lat="45.02358" lon="6.12246">
        <ele>1583.8</ele>
        <time>2022-12-29T10:42:05Z</time>
      </trkpt>
      <trkpt lat="45.02358" lon="6.12246">
        <ele>1583.8</ele>
        <time>2022-12-29T10:42:06Z</time>
      </trkpt>
      <trkpt lat="45.02358" lon="6.12245">
        <ele>1583.8</ele>
        <time>2022-12-29T10:42:07Z</time>
      </trkpt>
      <trkpt lat="45.02358" lon="6.12245">
        <ele>1583.8</ele>
        <time>2022-12-29T10:42:08Z</time>
      </trkpt>
      <trkpt lat="45.02358" lon="6.12245">
        <ele>1583.8</ele>
        <time>2022-12-29T10:42:09Z</time>
      </trkpt>
      <trkpt lat="45.02358" lon="6.12245">
        <ele>1583.6</ele>
        <time>2022-12-29T10:42:11Z</time>
      </trkpt>
      <trkpt lat="45.02358" lon="6.12245">
        <ele>1583.6</ele>
        <time>2022-12-29T10:42:14Z</time>
      </trkpt>
      <trkpt lat="45.02358" lon="6.12245">
        <ele>1583.6</ele>
        <time>2022-12-29T10:42:15Z</time>
      </trkpt>
      <trkpt lat="45.02358" lon="6.12245">
        <ele>1583.6</ele>
        <time>2022-12-29T10:42:16Z</time>
      </trkpt>
      <trkpt lat="45.02358" lon="6.12245">
        <ele>1583.6</ele>
        <time>2022-12-29T10:42:17Z</time>
      </trkpt>
      <trkpt lat="45.02358" lon="6.12245">
        <ele>1583.6</ele>
        <time>2022-12-29T10:42:18Z</time>
      </trkpt>
      <trkpt lat="45.02358" lon="6.12245">
        <ele>1583.6</ele>
        <time>2022-12-29T10:42:19Z</time>
      </trkpt>
      <trkpt lat="45.02358" lon="6.12245">
        <ele>1583.6</ele>
        <time>2022-12-29T10:42:20Z</time>
      </trkpt>
      <trkpt lat="45.02358" lon="6.12245">
        <ele>1583.6</ele>
        <time>2022-12-29T10:42:21Z</time>
      </trkpt>
      <trkpt lat="45.02358" lon="6.12245">
        <ele>1583.6</ele>
        <time>2022-12-29T10:42:22Z</time>
      </trkpt>
      <trkpt lat="45.02358" lon="6.12245">
        <ele>1583.6</ele>
        <time>2022-12-29T10:42:23Z</time>
      </trkpt>
      <trkpt lat="45.02358" lon="6.12245">
        <ele>1583.6</ele>
        <time>2022-12-29T10:42:24Z</time>
      </trkpt>
      <trkpt lat="45.02358" lon="6.12245">
        <ele>1583.6</ele>
        <time>2022-12-29T10:42:26Z</time>
      </trkpt>
      <trkpt lat="45.02358" lon="6.12245">
        <ele>1583.6</ele>
        <time>2022-12-29T10:42:27Z</time>
      </trkpt>
      <trkpt lat="45.02358" lon="6.12245">
        <ele>1583.6</ele>
        <time>2022-12-29T10:42:28Z</time>
      </trkpt>
      <trkpt lat="45.02358" lon="6.12244">
        <ele>1583.6</ele>
        <time>2022-12-29T10:42:29Z</time>
      </trkpt>
      <trkpt lat="45.02358" lon="6.12244">
        <ele>1583.6</ele>
        <time>2022-12-29T10:42:30Z</time>
      </trkpt>
      <trkpt lat="45.02358" lon="6.12244">
        <ele>1582.8</ele>
        <time>2022-12-29T10:42:31Z</time>
      </trkpt>
      <trkpt lat="45.02358" lon="6.12244">
        <ele>1582.8</ele>
        <time>2022-12-29T10:42:34Z</time>
      </trkpt>
      <trkpt lat="45.02358" lon="6.12244">
        <ele>1582.8</ele>
        <time>2022-12-29T10:42:35Z</time>
      </trkpt>
      <trkpt lat="45.02358" lon="6.12244">
        <ele>1582.8</ele>
        <time>2022-12-29T10:42:36Z</time>
      </trkpt>
      <trkpt lat="45.02358" lon="6.12244">
        <ele>1582.8</ele>
        <time>2022-12-29T10:42:37Z</time>
      </trkpt>
      <trkpt lat="45.02358" lon="6.12244">
        <ele>1582.8</ele>
        <time>2022-12-29T10:42:38Z</time>
      </trkpt>
      <trkpt lat="45.02358" lon="6.12244">
        <ele>1582.8</ele>
        <time>2022-12-29T10:42:39Z</time>
      </trkpt>
      <trkpt lat="45.02358" lon="6.12244">
        <ele>1582.8</ele>
        <time>2022-12-29T10:42:40Z</time>
      </trkpt>
      <trkpt lat="45.02358" lon="6.12244">
        <ele>1582.8</ele>
        <time>2022-12-29T10:42:41Z</time>
      </trkpt>
      <trkpt lat="45.02358" lon="6.12244">
        <ele>1582.8</ele>
        <time>2022-12-29T10:42:42Z</time>
      </trkpt>
      <trkpt lat="45.02358" lon="6.12244">
        <ele>1582.8</ele>
        <time>2022-12-29T10:42:43Z</time>
      </trkpt>
      <trkpt lat="45.02359" lon="6.12244">
        <ele>1582.8</ele>
        <time>2022-12-29T10:42:44Z</time>
      </trkpt>
      <trkpt lat="45.02359" lon="6.12244">
        <ele>1582.8</ele>
        <time>2022-12-29T10:42:45Z</time>
      </trkpt>
      <trkpt lat="45.02359" lon="6.12244">
        <ele>1582.8</ele>
        <time>2022-12-29T10:42:46Z</time>
      </trkpt>
      <trkpt lat="45.02359" lon="6.12244">
        <ele>1582.8</ele>
        <time>2022-12-29T10:42:47Z</time>
      </trkpt>
      <trkpt lat="45.02359" lon="6.12243">
        <ele>1582.8</ele>
        <time>2022-12-29T10:42:48Z</time>
      </trkpt>
      <trkpt lat="45.02359" lon="6.12243">
        <ele>1582.8</ele>
        <time>2022-12-29T10:42:49Z</time>
      </trkpt>
      <trkpt lat="45.02359" lon="6.12243">
        <ele>1582.8</ele>
        <time>2022-12-29T10:42:50Z</time>
      </trkpt>
      <trkpt lat="45.02359" lon="6.12243">
        <ele>1582.2</ele>
        <time>2022-12-29T10:42:51Z</time>
      </trkpt>
      <trkpt lat="45.02359" lon="6.12243">
        <ele>1582.2</ele>
        <time>2022-12-29T10:42:52Z</time>
      </trkpt>
      <trkpt lat="45.02359" lon="6.12243">
        <ele>1582.2</ele>
        <time>2022-12-29T10:42:53Z</time>
      </trkpt>
      <trkpt lat="45.02359" lon="6.12243">
        <ele>1582.2</ele>
        <time>2022-12-29T10:42:54Z</time>
      </trkpt>
      <trkpt lat="45.02359" lon="6.12243">
        <ele>1582.2</ele>
        <time>2022-12-29T10:42:55Z</time>
      </trkpt>
      <trkpt lat="45.02359" lon="6.12243">
        <ele>1582.2</ele>
        <time>2022-12-29T10:42:56Z</time>
      </trkpt>
      <trkpt lat="45.02359" lon="6.12243">
        <ele>1582.2</ele>
        <time>2022-12-29T10:42:57Z</time>
      </trkpt>
      <trkpt lat="45.02359" lon="6.12243">
        <ele>1582.2</ele>
        <time>2022-12-29T10:42:58Z</time>
      </trkpt>
      <trkpt lat="45.02359" lon="6.12243">
        <ele>1582.2</ele>
        <time>2022-12-29T10:42:59Z</time>
      </trkpt>
      <trkpt lat="45.02359" lon="6.12243">
        <ele>1582.2</ele>
        <time>2022-12-29T10:43:00Z</time>
      </trkpt>
      <trkpt lat="45.02359" lon="6.12243">
        <ele>1581.4</ele>
        <time>2022-12-29T10:43:01Z</time>
      </trkpt>
      <trkpt lat="45.02359" lon="6.12243">
        <ele>1581.4</ele>
        <time>2022-12-29T10:43:02Z</time>
      </trkpt>
      <trkpt lat="45.02359" lon="6.12243">
        <ele>1581.4</ele>
        <time>2022-12-29T10:43:03Z</time>
      </trkpt>
      <trkpt lat="45.02359" lon="6.12243">
        <ele>1581.4</ele>
        <time>2022-12-29T10:43:04Z</time>
      </trkpt>
      <trkpt lat="45.02359" lon="6.12242">
        <ele>1581.4</ele>
        <time>2022-12-29T10:43:05Z</time>
      </trkpt>
      <trkpt lat="45.02359" lon="6.12242">
        <ele>1581.4</ele>
        <time>2022-12-29T10:43:06Z</time>
      </trkpt>
      <trkpt lat="45.02359" lon="6.12242">
        <ele>1581.4</ele>
        <time>2022-12-29T10:43:07Z</time>
      </trkpt>
      <trkpt lat="45.02359" lon="6.12242">
        <ele>1581.4</ele>
        <time>2022-12-29T10:43:08Z</time>
      </trkpt>
      <trkpt lat="45.02359" lon="6.12242">
        <ele>1581.4</ele>
        <time>2022-12-29T10:43:09Z</time>
      </trkpt>
      <trkpt lat="45.02359" lon="6.12242">
        <ele>1581.4</ele>
        <time>2022-12-29T10:43:10Z</time>
      </trkpt>
      <trkpt lat="45.02359" lon="6.12242">
        <ele>1582.4</ele>
        <time>2022-12-29T10:43:11Z</time>
      </trkpt>
      <trkpt lat="45.02359" lon="6.12242">
        <ele>1582.4</ele>
        <time>2022-12-29T10:43:12Z</time>
      </trkpt>
      <trkpt lat="45.02359" lon="6.12242">
        <ele>1582.4</ele>
        <time>2022-12-29T10:43:13Z</time>
      </trkpt>
      <trkpt lat="45.02359" lon="6.12242">
        <ele>1582.4</ele>
        <time>2022-12-29T10:43:14Z</time>
      </trkpt>
      <trkpt lat="45.02359" lon="6.12242">
        <ele>1582.4</ele>
        <time>2022-12-29T10:43:15Z</time>
      </trkpt>
      <trkpt lat="45.02359" lon="6.12242">
        <ele>1582.4</ele>
        <time>2022-12-29T10:43:16Z</time>
      </trkpt>
      <trkpt lat="45.02359" lon="6.12242">
        <ele>1582.4</ele>
        <time>2022-12-29T10:43:17Z</time>
      </trkpt>
      <trkpt lat="45.02359" lon="6.12242">
        <ele>1582.4</ele>
        <time>2022-12-29T10:43:18Z</time>
      </trkpt>
      <trkpt lat="45.02359" lon="6.12242">
        <ele>1582.4</ele>
        <time>2022-12-29T10:43:19Z</time>
      </trkpt>
      <trkpt lat="45.02359" lon="6.12242">
        <ele>1582.4</ele>
        <time>2022-12-29T10:43:20Z</time>
      </trkpt>
      <trkpt lat="45.02359" lon="6.12242">
        <ele>1582.4</ele>
        <time>2022-12-29T10:43:21Z</time>
      </trkpt>
      <trkpt lat="45.02359" lon="6.12242">
        <ele>1582.4</ele>
        <time>2022-12-29T10:43:22Z</time>
      </trkpt>
      <trkpt lat="45.02359" lon="6.12241">
        <ele>1582.4</ele>
        <time>2022-12-29T10:43:23Z</time>
      </trkpt>
      <trkpt lat="45.02359" lon="6.12241">
        <ele>1582.4</ele>
        <time>2022-12-29T10:43:24Z</time>
      </trkpt>
      <trkpt lat="45.02359" lon="6.12241">
        <ele>1582.4</ele>
        <time>2022-12-29T10:43:25Z</time>
      </trkpt>
      <trkpt lat="45.02359" lon="6.12241">
        <ele>1582.4</ele>
        <time>2022-12-29T10:43:26Z</time>
      </trkpt>
      <trkpt lat="45.02359" lon="6.12241">
        <ele>1582.4</ele>
        <time>2022-12-29T10:43:27Z</time>
      </trkpt>
      <trkpt lat="45.02359" lon="6.12241">
        <ele>1582.4</ele>
        <time>2022-12-29T10:43:28Z</time>
      </trkpt>
      <trkpt lat="45.02359" lon="6.12241">
        <ele>1582.4</ele>
        <time>2022-12-29T10:43:29Z</time>
      </trkpt>
      <trkpt lat="45.02359" lon="6.12241">
        <ele>1582.4</ele>
        <time>2022-12-29T10:43:30Z</time>
      </trkpt>
      <trkpt lat="45.02359" lon="6.12241">
        <ele>1582.6</ele>
        <time>2022-12-29T10:43:31Z</time>
      </trkpt>
      <trkpt lat="45.02359" lon="6.12241">
        <ele>1582.6</ele>
        <time>2022-12-29T10:43:32Z</time>
      </trkpt>
      <trkpt lat="45.02359" lon="6.12241">
        <ele>1582.6</ele>
        <time>2022-12-29T10:43:33Z</time>
      </trkpt>
      <trkpt lat="45.02359" lon="6.12241">
        <ele>1582.6</ele>
        <time>2022-12-29T10:43:34Z</time>
      </trkpt>
      <trkpt lat="45.02359" lon="6.12241">
        <ele>1582.6</ele>
        <time>2022-12-29T10:43:35Z</time>
      </trkpt>
      <trkpt lat="45.02359" lon="6.12241">
        <ele>1582.6</ele>
        <time>2022-12-29T10:43:36Z</time>
      </trkpt>
      <trkpt lat="45.02359" lon="6.12241">
        <ele>1582.6</ele>
        <time>2022-12-29T10:43:37Z</time>
      </trkpt>
      <trkpt lat="45.0236" lon="6.12241">
        <ele>1582.6</ele>
        <time>2022-12-29T10:43:38Z</time>
      </trkpt>
      <trkpt lat="45.0236" lon="6.12241">
        <ele>1582.6</ele>
        <time>2022-12-29T10:43:39Z</time>
      </trkpt>
      <trkpt lat="45.0236" lon="6.1224">
        <ele>1582.6</ele>
        <time>2022-12-29T10:43:40Z</time>
      </trkpt>
      <trkpt lat="45.0236" lon="6.1224">
        <ele>1581.8</ele>
        <time>2022-12-29T10:43:41Z</time>
      </trkpt>
      <trkpt lat="45.0236" lon="6.1224">
        <ele>1581.8</ele>
        <time>2022-12-29T10:43:42Z</time>
      </trkpt>
      <trkpt lat="45.0236" lon="6.1224">
        <ele>1581.8</ele>
        <time>2022-12-29T10:43:43Z</time>
      </trkpt>
      <trkpt lat="45.0236" lon="6.1224">
        <ele>1581.8</ele>
        <time>2022-12-29T10:43:44Z</time>
      </trkpt>
      <trkpt lat="45.0236" lon="6.1224">
        <ele>1581.8</ele>
        <time>2022-12-29T10:43:45Z</time>
      </trkpt>
      <trkpt lat="45.0236" lon="6.1224">
        <ele>1581.8</ele>
        <time>2022-12-29T10:43:46Z</time>
      </trkpt>
      <trkpt lat="45.0236" lon="6.1224">
        <ele>1581.8</ele>
        <time>2022-12-29T10:43:47Z</time>
      </trkpt>
      <trkpt lat="45.0236" lon="6.1224">
        <ele>1581.8</ele>
        <time>2022-12-29T10:43:49Z</time>
      </trkpt>
      <trkpt lat="45.0236" lon="6.1224">
        <ele>1581.8</ele>
        <time>2022-12-29T10:43:50Z</time>
      </trkpt>
      <trkpt lat="45.0236" lon="6.1224">
        <ele>1582.8</ele>
        <time>2022-12-29T10:43:51Z</time>
      </trkpt>
      <trkpt lat="45.02362" lon="6.12236">
        <ele>1582.8</ele>
        <time>2022-12-29T10:43:53Z</time>
      </trkpt>
      <trkpt lat="45.02362" lon="6.12235">
        <ele>1582.8</ele>
        <time>2022-12-29T10:43:54Z</time>
      </trkpt>
      <trkpt lat="45.02363" lon="6.12234">
        <ele>1582.8</ele>
        <time>2022-12-29T10:43:55Z</time>
      </trkpt>
      <trkpt lat="45.02364" lon="6.12232">
        <ele>1582.8</ele>
        <time>2022-12-29T10:43:56Z</time>
      </trkpt>
      <trkpt lat="45.02364" lon="6.12231">
        <ele>1582.8</ele>
        <time>2022-12-29T10:43:57Z</time>
      </trkpt>
      <trkpt lat="45.02365" lon="6.1223">
        <ele>1582.8</ele>
        <time>2022-12-29T10:43:58Z</time>
      </trkpt>
      <trkpt lat="45.02365" lon="6.12229">
        <ele>1582.8</ele>
        <time>2022-12-29T10:43:59Z</time>
      </trkpt>
      <trkpt lat="45.02366" lon="6.12228">
        <ele>1582.8</ele>
        <time>2022-12-29T10:44:00Z</time>
      </trkpt>
      <trkpt lat="45.02366" lon="6.12227">
        <ele>1584.4</ele>
        <time>2022-12-29T10:44:01Z</time>
      </trkpt>
      <trkpt lat="45.02368" lon="6.12225">
        <ele>1584.4</ele>
        <time>2022-12-29T10:44:02Z</time>
      </trkpt>
      <trkpt lat="45.02368" lon="6.12224">
        <ele>1584.4</ele>
        <time>2022-12-29T10:44:03Z</time>
      </trkpt>
      <trkpt lat="45.02369" lon="6.12223">
        <ele>1584.4</ele>
        <time>2022-12-29T10:44:04Z</time>
      </trkpt>
      <trkpt lat="45.0237" lon="6.12222">
        <ele>1584.4</ele>
        <time>2022-12-29T10:44:05Z</time>
      </trkpt>
      <trkpt lat="45.0237" lon="6.12221">
        <ele>1584.4</ele>
        <time>2022-12-29T10:44:06Z</time>
      </trkpt>
      <trkpt lat="45.02371" lon="6.12221">
        <ele>1584.4</ele>
        <time>2022-12-29T10:44:07Z</time>
      </trkpt>
      <trkpt lat="45.02372" lon="6.1222">
        <ele>1584.4</ele>
        <time>2022-12-29T10:44:08Z</time>
      </trkpt>
      <trkpt lat="45.02372" lon="6.12219">
        <ele>1584.4</ele>
        <time>2022-12-29T10:44:09Z</time>
      </trkpt>
      <trkpt lat="45.02373" lon="6.12218">
        <ele>1584.4</ele>
        <time>2022-12-29T10:44:10Z</time>
      </trkpt>
      <trkpt lat="45.02373" lon="6.12217">
        <ele>1586.4</ele>
        <time>2022-12-29T10:44:11Z</time>
      </trkpt>
      <trkpt lat="45.02374" lon="6.12216">
        <ele>1586.4</ele>
        <time>2022-12-29T10:44:12Z</time>
      </trkpt>
      <trkpt lat="45.02375" lon="6.12215">
        <ele>1586.4</ele>
        <time>2022-12-29T10:44:13Z</time>
      </trkpt>
      <trkpt lat="45.02375" lon="6.12214">
        <ele>1586.4</ele>
        <time>2022-12-29T10:44:14Z</time>
      </trkpt>
      <trkpt lat="45.02376" lon="6.12213">
        <ele>1586.4</ele>
        <time>2022-12-29T10:44:15Z</time>
      </trkpt>
      <trkpt lat="45.02377" lon="6.12212">
        <ele>1586.4</ele>
        <time>2022-12-29T10:44:16Z</time>
      </trkpt>
      <trkpt lat="45.02377" lon="6.12211">
        <ele>1586.4</ele>
        <time>2022-12-29T10:44:17Z</time>
      </trkpt>
      <trkpt lat="45.02378" lon="6.1221">
        <ele>1586.4</ele>
        <time>2022-12-29T10:44:18Z</time>
      </trkpt>
      <trkpt lat="45.02379" lon="6.12209">
        <ele>1586.4</ele>
        <time>2022-12-29T10:44:19Z</time>
      </trkpt>
      <trkpt lat="45.02379" lon="6.12208">
        <ele>1586.4</ele>
        <time>2022-12-29T10:44:20Z</time>
      </trkpt>
      <trkpt lat="45.0238" lon="6.12207">
        <ele>1588.4</ele>
        <time>2022-12-29T10:44:21Z</time>
      </trkpt>
      <trkpt lat="45.02381" lon="6.12205">
        <ele>1588.4</ele>
        <time>2022-12-29T10:44:22Z</time>
      </trkpt>
      <trkpt lat="45.02382" lon="6.12204">
        <ele>1588.4</ele>
        <time>2022-12-29T10:44:23Z</time>
      </trkpt>
      <trkpt lat="45.02382" lon="6.12203">
        <ele>1588.4</ele>
        <time>2022-12-29T10:44:24Z</time>
      </trkpt>
      <trkpt lat="45.02383" lon="6.12201">
        <ele>1588.4</ele>
        <time>2022-12-29T10:44:25Z</time>
      </trkpt>
      <trkpt lat="45.02384" lon="6.122">
        <ele>1588.4</ele>
        <time>2022-12-29T10:44:26Z</time>
      </trkpt>
      <trkpt lat="45.02384" lon="6.12199">
        <ele>1588.4</ele>
        <time>2022-12-29T10:44:27Z</time>
      </trkpt>
      <trkpt lat="45.02385" lon="6.12198">
        <ele>1588.4</ele>
        <time>2022-12-29T10:44:28Z</time>
      </trkpt>
      <trkpt lat="45.02386" lon="6.12197">
        <ele>1588.4</ele>
        <time>2022-12-29T10:44:29Z</time>
      </trkpt>
      <trkpt lat="45.02386" lon="6.12196">
        <ele>1588.4</ele>
        <time>2022-12-29T10:44:30Z</time>
      </trkpt>
      <trkpt lat="45.02387" lon="6.12195">
        <ele>1590.2</ele>
        <time>2022-12-29T10:44:31Z</time>
      </trkpt>
      <trkpt lat="45.02388" lon="6.12194">
        <ele>1590.2</ele>
        <time>2022-12-29T10:44:32Z</time>
      </trkpt>
      <trkpt lat="45.02388" lon="6.12193">
        <ele>1590.2</ele>
        <time>2022-12-29T10:44:33Z</time>
      </trkpt>
      <trkpt lat="45.02389" lon="6.12192">
        <ele>1590.2</ele>
        <time>2022-12-29T10:44:34Z</time>
      </trkpt>
      <trkpt lat="45.02389" lon="6.12191">
        <ele>1590.2</ele>
        <time>2022-12-29T10:44:35Z</time>
      </trkpt>
      <trkpt lat="45.0239" lon="6.1219">
        <ele>1590.2</ele>
        <time>2022-12-29T10:44:36Z</time>
      </trkpt>
      <trkpt lat="45.02391" lon="6.12189">
        <ele>1590.2</ele>
        <time>2022-12-29T10:44:37Z</time>
      </trkpt>
      <trkpt lat="45.02391" lon="6.12188">
        <ele>1590.2</ele>
        <time>2022-12-29T10:44:38Z</time>
      </trkpt>
      <trkpt lat="45.02392" lon="6.12187">
        <ele>1590.2</ele>
        <time>2022-12-29T10:44:39Z</time>
      </trkpt>
      <trkpt lat="45.02393" lon="6.12186">
        <ele>1590.2</ele>
        <time>2022-12-29T10:44:40Z</time>
      </trkpt>
      <trkpt lat="45.02393" lon="6.12185">
        <ele>1591.4</ele>
        <time>2022-12-29T10:44:41Z</time>
      </trkpt>
      <trkpt lat="45.02395" lon="6.12182">
        <ele>1591.4</ele>
        <time>2022-12-29T10:44:42Z</time>
      </trkpt>
      <trkpt lat="45.02396" lon="6.12181">
        <ele>1591.4</ele>
        <time>2022-12-29T10:44:43Z</time>
      </trkpt>
      <trkpt lat="45.02396" lon="6.1218">
        <ele>1591.4</ele>
        <time>2022-12-29T10:44:44Z</time>
      </trkpt>
      <trkpt lat="45.02397" lon="6.12179">
        <ele>1591.4</ele>
        <time>2022-12-29T10:44:45Z</time>
      </trkpt>
      <trkpt lat="45.02397" lon="6.12178">
        <ele>1591.4</ele>
        <time>2022-12-29T10:44:46Z</time>
      </trkpt>
      <trkpt lat="45.02398" lon="6.12177">
        <ele>1591.4</ele>
        <time>2022-12-29T10:44:47Z</time>
      </trkpt>
      <trkpt lat="45.02399" lon="6.12176">
        <ele>1591.4</ele>
        <time>2022-12-29T10:44:48Z</time>
      </trkpt>
      <trkpt lat="45.02399" lon="6.12176">
        <ele>1591.4</ele>
        <time>2022-12-29T10:44:49Z</time>
      </trkpt>
      <trkpt lat="45.024" lon="6.12175">
        <ele>1591.4</ele>
        <time>2022-12-29T10:44:50Z</time>
      </trkpt>
      <trkpt lat="45.024" lon="6.12174">
        <ele>1593</ele>
        <time>2022-12-29T10:44:51Z</time>
      </trkpt>
      <trkpt lat="45.02402" lon="6.12172">
        <ele>1593</ele>
        <time>2022-12-29T10:44:52Z</time>
      </trkpt>
      <trkpt lat="45.02402" lon="6.12171">
        <ele>1593</ele>
        <time>2022-12-29T10:44:53Z</time>
      </trkpt>
      <trkpt lat="45.02403" lon="6.1217">
        <ele>1593</ele>
        <time>2022-12-29T10:44:54Z</time>
      </trkpt>
      <trkpt lat="45.02404" lon="6.12169">
        <ele>1593</ele>
        <time>2022-12-29T10:44:55Z</time>
      </trkpt>
      <trkpt lat="45.02404" lon="6.12168">
        <ele>1593</ele>
        <time>2022-12-29T10:44:56Z</time>
      </trkpt>
      <trkpt lat="45.02405" lon="6.12167">
        <ele>1593</ele>
        <time>2022-12-29T10:44:57Z</time>
      </trkpt>
      <trkpt lat="45.02406" lon="6.12166">
        <ele>1593</ele>
        <time>2022-12-29T10:44:58Z</time>
      </trkpt>
      <trkpt lat="45.02407" lon="6.12165">
        <ele>1593</ele>
        <time>2022-12-29T10:44:59Z</time>
      </trkpt>
      <trkpt lat="45.02407" lon="6.12164">
        <ele>1593</ele>
        <time>2022-12-29T10:45:00Z</time>
      </trkpt>
      <trkpt lat="45.02408" lon="6.12163">
        <ele>1594.2</ele>
        <time>2022-12-29T10:45:01Z</time>
      </trkpt>
      <trkpt lat="45.02409" lon="6.12161">
        <ele>1594.2</ele>
        <time>2022-12-29T10:45:02Z</time>
      </trkpt>
      <trkpt lat="45.0241" lon="6.1216">
        <ele>1594.2</ele>
        <time>2022-12-29T10:45:03Z</time>
      </trkpt>
      <trkpt lat="45.0241" lon="6.12158">
        <ele>1594.2</ele>
        <time>2022-12-29T10:45:04Z</time>
      </trkpt>
      <trkpt lat="45.02411" lon="6.12157">
        <ele>1594.2</ele>
        <time>2022-12-29T10:45:05Z</time>
      </trkpt>
      <trkpt lat="45.02412" lon="6.12156">
        <ele>1594.2</ele>
        <time>2022-12-29T10:45:06Z</time>
      </trkpt>
      <trkpt lat="45.02412" lon="6.12155">
        <ele>1594.2</ele>
        <time>2022-12-29T10:45:07Z</time>
      </trkpt>
      <trkpt lat="45.02413" lon="6.12154">
        <ele>1594.2</ele>
        <time>2022-12-29T10:45:08Z</time>
      </trkpt>
      <trkpt lat="45.02413" lon="6.12153">
        <ele>1594.2</ele>
        <time>2022-12-29T10:45:09Z</time>
      </trkpt>
      <trkpt lat="45.02414" lon="6.12152">
        <ele>1594.2</ele>
        <time>2022-12-29T10:45:10Z</time>
      </trkpt>
      <trkpt lat="45.02415" lon="6.12151">
        <ele>1595.6</ele>
        <time>2022-12-29T10:45:11Z</time>
      </trkpt>
      <trkpt lat="45.02416" lon="6.12148">
        <ele>1595.6</ele>
        <time>2022-12-29T10:45:12Z</time>
      </trkpt>
      <trkpt lat="45.02416" lon="6.12147">
        <ele>1595.6</ele>
        <time>2022-12-29T10:45:13Z</time>
      </trkpt>
      <trkpt lat="45.02416" lon="6.12146">
        <ele>1595.6</ele>
        <time>2022-12-29T10:45:14Z</time>
      </trkpt>
      <trkpt lat="45.02417" lon="6.12144">
        <ele>1595.6</ele>
        <time>2022-12-29T10:45:15Z</time>
      </trkpt>
      <trkpt lat="45.02417" lon="6.12143">
        <ele>1595.6</ele>
        <time>2022-12-29T10:45:16Z</time>
      </trkpt>
      <trkpt lat="45.02418" lon="6.12142">
        <ele>1595.6</ele>
        <time>2022-12-29T10:45:17Z</time>
      </trkpt>
      <trkpt lat="45.02418" lon="6.12141">
        <ele>1595.6</ele>
        <time>2022-12-29T10:45:18Z</time>
      </trkpt>
      <trkpt lat="45.02418" lon="6.1214">
        <ele>1595.6</ele>
        <time>2022-12-29T10:45:19Z</time>
      </trkpt>
      <trkpt lat="45.02419" lon="6.12139">
        <ele>1595.6</ele>
        <time>2022-12-29T10:45:20Z</time>
      </trkpt>
      <trkpt lat="45.02419" lon="6.12138">
        <ele>1596.8</ele>
        <time>2022-12-29T10:45:21Z</time>
      </trkpt>
      <trkpt lat="45.02421" lon="6.12133">
        <ele>1596.8</ele>
        <time>2022-12-29T10:45:22Z</time>
      </trkpt>
      <trkpt lat="45.02421" lon="6.12132">
        <ele>1596.8</ele>
        <time>2022-12-29T10:45:23Z</time>
      </trkpt>
      <trkpt lat="45.02421" lon="6.1213">
        <ele>1596.8</ele>
        <time>2022-12-29T10:45:24Z</time>
      </trkpt>
      <trkpt lat="45.02421" lon="6.12129">
        <ele>1596.8</ele>
        <time>2022-12-29T10:45:25Z</time>
      </trkpt>
      <trkpt lat="45.02422" lon="6.12128">
        <ele>1596.8</ele>
        <time>2022-12-29T10:45:26Z</time>
      </trkpt>
      <trkpt lat="45.02422" lon="6.12127">
        <ele>1596.8</ele>
        <time>2022-12-29T10:45:27Z</time>
      </trkpt>
      <trkpt lat="45.02422" lon="6.12126">
        <ele>1596.8</ele>
        <time>2022-12-29T10:45:28Z</time>
      </trkpt>
      <trkpt lat="45.02422" lon="6.12125">
        <ele>1596.8</ele>
        <time>2022-12-29T10:45:29Z</time>
      </trkpt>
      <trkpt lat="45.02423" lon="6.12123">
        <ele>1596.8</ele>
        <time>2022-12-29T10:45:30Z</time>
      </trkpt>
      <trkpt lat="45.02423" lon="6.12122">
        <ele>1598</ele>
        <time>2022-12-29T10:45:31Z</time>
      </trkpt>
      <trkpt lat="45.02423" lon="6.12119">
        <ele>1598</ele>
        <time>2022-12-29T10:45:32Z</time>
      </trkpt>
      <trkpt lat="45.02423" lon="6.12117">
        <ele>1598</ele>
        <time>2022-12-29T10:45:33Z</time>
      </trkpt>
      <trkpt lat="45.02423" lon="6.12116">
        <ele>1598</ele>
        <time>2022-12-29T10:45:34Z</time>
      </trkpt>
      <trkpt lat="45.02423" lon="6.12114">
        <ele>1598</ele>
        <time>2022-12-29T10:45:35Z</time>
      </trkpt>
      <trkpt lat="45.02423" lon="6.12113">
        <ele>1598</ele>
        <time>2022-12-29T10:45:36Z</time>
      </trkpt>
      <trkpt lat="45.02423" lon="6.12111">
        <ele>1598</ele>
        <time>2022-12-29T10:45:37Z</time>
      </trkpt>
      <trkpt lat="45.02423" lon="6.1211">
        <ele>1598</ele>
        <time>2022-12-29T10:45:38Z</time>
      </trkpt>
      <trkpt lat="45.02423" lon="6.12108">
        <ele>1598</ele>
        <time>2022-12-29T10:45:39Z</time>
      </trkpt>
      <trkpt lat="45.02422" lon="6.12107">
        <ele>1598</ele>
        <time>2022-12-29T10:45:40Z</time>
      </trkpt>
      <trkpt lat="45.02422" lon="6.12105">
        <ele>1599.2</ele>
        <time>2022-12-29T10:45:41Z</time>
      </trkpt>
      <trkpt lat="45.02422" lon="6.12102">
        <ele>1599.2</ele>
        <time>2022-12-29T10:45:42Z</time>
      </trkpt>
      <trkpt lat="45.02422" lon="6.12101">
        <ele>1599.2</ele>
        <time>2022-12-29T10:45:43Z</time>
      </trkpt>
      <trkpt lat="45.02422" lon="6.121">
        <ele>1599.2</ele>
        <time>2022-12-29T10:45:44Z</time>
      </trkpt>
      <trkpt lat="45.02421" lon="6.12098">
        <ele>1599.2</ele>
        <time>2022-12-29T10:45:45Z</time>
      </trkpt>
      <trkpt lat="45.02421" lon="6.12097">
        <ele>1599.2</ele>
        <time>2022-12-29T10:45:46Z</time>
      </trkpt>
      <trkpt lat="45.02421" lon="6.12095">
        <ele>1599.2</ele>
        <time>2022-12-29T10:45:47Z</time>
      </trkpt>
      <trkpt lat="45.02421" lon="6.12094">
        <ele>1599.2</ele>
        <time>2022-12-29T10:45:48Z</time>
      </trkpt>
      <trkpt lat="45.0242" lon="6.12093">
        <ele>1599.2</ele>
        <time>2022-12-29T10:45:49Z</time>
      </trkpt>
      <trkpt lat="45.0242" lon="6.12091">
        <ele>1599.2</ele>
        <time>2022-12-29T10:45:50Z</time>
      </trkpt>
      <trkpt lat="45.0242" lon="6.1209">
        <ele>1601</ele>
        <time>2022-12-29T10:45:51Z</time>
      </trkpt>
      <trkpt lat="45.02419" lon="6.12087">
        <ele>1601</ele>
        <time>2022-12-29T10:45:52Z</time>
      </trkpt>
      <trkpt lat="45.02419" lon="6.12086">
        <ele>1601</ele>
        <time>2022-12-29T10:45:53Z</time>
      </trkpt>
      <trkpt lat="45.02419" lon="6.12084">
        <ele>1601</ele>
        <time>2022-12-29T10:45:56Z</time>
      </trkpt>
      <trkpt lat="45.02418" lon="6.12083">
        <ele>1601</ele>
        <time>2022-12-29T10:45:57Z</time>
      </trkpt>
      <trkpt lat="45.02418" lon="6.12081">
        <ele>1601</ele>
        <time>2022-12-29T10:45:58Z</time>
      </trkpt>
      <trkpt lat="45.02418" lon="6.1208">
        <ele>1601</ele>
        <time>2022-12-29T10:45:59Z</time>
      </trkpt>
      <trkpt lat="45.02417" lon="6.12079">
        <ele>1601</ele>
        <time>2022-12-29T10:46:00Z</time>
      </trkpt>
      <trkpt lat="45.02417" lon="6.12077">
        <ele>1601</ele>
        <time>2022-12-29T10:46:01Z</time>
      </trkpt>
      <trkpt lat="45.02417" lon="6.12076">
        <ele>1601</ele>
        <time>2022-12-29T10:46:02Z</time>
      </trkpt>
      <trkpt lat="45.02416" lon="6.12074">
        <ele>1601</ele>
        <time>2022-12-29T10:46:03Z</time>
      </trkpt>
      <trkpt lat="45.02416" lon="6.12073">
        <ele>1601</ele>
        <time>2022-12-29T10:46:04Z</time>
      </trkpt>
      <trkpt lat="45.02416" lon="6.12072">
        <ele>1601</ele>
        <time>2022-12-29T10:46:05Z</time>
      </trkpt>
      <trkpt lat="45.02415" lon="6.1207">
        <ele>1602.8</ele>
        <time>2022-12-29T10:46:06Z</time>
      </trkpt>
      <trkpt lat="45.02414" lon="6.12068">
        <ele>1602.8</ele>
        <time>2022-12-29T10:46:07Z</time>
      </trkpt>
      <trkpt lat="45.02414" lon="6.12067">
        <ele>1602.8</ele>
        <time>2022-12-29T10:46:08Z</time>
      </trkpt>
      <trkpt lat="45.02414" lon="6.12066">
        <ele>1602.8</ele>
        <time>2022-12-29T10:46:09Z</time>
      </trkpt>
      <trkpt lat="45.02413" lon="6.12065">
        <ele>1602.8</ele>
        <time>2022-12-29T10:46:10Z</time>
      </trkpt>
      <trkpt lat="45.02413" lon="6.12064">
        <ele>1602.8</ele>
        <time>2022-12-29T10:46:11Z</time>
      </trkpt>
      <trkpt lat="45.02413" lon="6.12063">
        <ele>1602.8</ele>
        <time>2022-12-29T10:46:12Z</time>
      </trkpt>
      <trkpt lat="45.02412" lon="6.12062">
        <ele>1602.8</ele>
        <time>2022-12-29T10:46:13Z</time>
      </trkpt>
      <trkpt lat="45.02412" lon="6.12061">
        <ele>1602.8</ele>
        <time>2022-12-29T10:46:14Z</time>
      </trkpt>
      <trkpt lat="45.02412" lon="6.1206">
        <ele>1602.8</ele>
        <time>2022-12-29T10:46:15Z</time>
      </trkpt>
      <trkpt lat="45.02412" lon="6.1206">
        <ele>1604.4</ele>
        <time>2022-12-29T10:46:16Z</time>
      </trkpt>
      <trkpt lat="45.0241" lon="6.12057">
        <ele>1604.4</ele>
        <time>2022-12-29T10:46:17Z</time>
      </trkpt>
      <trkpt lat="45.02409" lon="6.12056">
        <ele>1604.4</ele>
        <time>2022-12-29T10:46:18Z</time>
      </trkpt>
      <trkpt lat="45.02409" lon="6.12056">
        <ele>1604.4</ele>
        <time>2022-12-29T10:46:19Z</time>
      </trkpt>
      <trkpt lat="45.02408" lon="6.12055">
        <ele>1604.4</ele>
        <time>2022-12-29T10:46:20Z</time>
      </trkpt>
      <trkpt lat="45.02408" lon="6.12055">
        <ele>1604.4</ele>
        <time>2022-12-29T10:46:21Z</time>
      </trkpt>
      <trkpt lat="45.02407" lon="6.12054">
        <ele>1604.4</ele>
        <time>2022-12-29T10:46:22Z</time>
      </trkpt>
      <trkpt lat="45.02407" lon="6.12054">
        <ele>1604.4</ele>
        <time>2022-12-29T10:46:23Z</time>
      </trkpt>
      <trkpt lat="45.02406" lon="6.12053">
        <ele>1604.4</ele>
        <time>2022-12-29T10:46:24Z</time>
      </trkpt>
      <trkpt lat="45.02405" lon="6.12053">
        <ele>1604.4</ele>
        <time>2022-12-29T10:46:25Z</time>
      </trkpt>
      <trkpt lat="45.02405" lon="6.12052">
        <ele>1605.6</ele>
        <time>2022-12-29T10:46:26Z</time>
      </trkpt>
      <trkpt lat="45.02403" lon="6.1205">
        <ele>1605.6</ele>
        <time>2022-12-29T10:46:27Z</time>
      </trkpt>
      <trkpt lat="45.02403" lon="6.12049">
        <ele>1605.6</ele>
        <time>2022-12-29T10:46:28Z</time>
      </trkpt>
      <trkpt lat="45.02403" lon="6.12049">
        <ele>1605.6</ele>
        <time>2022-12-29T10:46:29Z</time>
      </trkpt>
      <trkpt lat="45.02402" lon="6.12048">
        <ele>1605.6</ele>
        <time>2022-12-29T10:46:32Z</time>
      </trkpt>
      <trkpt lat="45.02402" lon="6.12047">
        <ele>1605.6</ele>
        <time>2022-12-29T10:46:33Z</time>
      </trkpt>
      <trkpt lat="45.02402" lon="6.12047">
        <ele>1605.6</ele>
        <time>2022-12-29T10:46:34Z</time>
      </trkpt>
      <trkpt lat="45.02402" lon="6.12046">
        <ele>1605.6</ele>
        <time>2022-12-29T10:46:35Z</time>
      </trkpt>
      <trkpt lat="45.02402" lon="6.12045">
        <ele>1606.4</ele>
        <time>2022-12-29T10:46:36Z</time>
      </trkpt>
      <trkpt lat="45.02401" lon="6.12045">
        <ele>1606.4</ele>
        <time>2022-12-29T10:46:37Z</time>
      </trkpt>
      <trkpt lat="45.024" lon="6.12045">
        <ele>1606.4</ele>
        <time>2022-12-29T10:46:38Z</time>
      </trkpt>
      <trkpt lat="45.02399" lon="6.12044">
        <ele>1606.4</ele>
        <time>2022-12-29T10:46:39Z</time>
      </trkpt>
      <trkpt lat="45.02398" lon="6.12044">
        <ele>1606.4</ele>
        <time>2022-12-29T10:46:40Z</time>
      </trkpt>
      <trkpt lat="45.02398" lon="6.12043">
        <ele>1606.4</ele>
        <time>2022-12-29T10:46:41Z</time>
      </trkpt>
      <trkpt lat="45.02397" lon="6.12043">
        <ele>1606.4</ele>
        <time>2022-12-29T10:46:42Z</time>
      </trkpt>
      <trkpt lat="45.02396" lon="6.12043">
        <ele>1606.4</ele>
        <time>2022-12-29T10:46:43Z</time>
      </trkpt>
      <trkpt lat="45.02395" lon="6.12042">
        <ele>1606.4</ele>
        <time>2022-12-29T10:46:44Z</time>
      </trkpt>
      <trkpt lat="45.02394" lon="6.12042">
        <ele>1606.4</ele>
        <time>2022-12-29T10:46:45Z</time>
      </trkpt>
      <trkpt lat="45.02394" lon="6.12042">
        <ele>1608.8</ele>
        <time>2022-12-29T10:46:46Z</time>
      </trkpt>
      <trkpt lat="45.02391" lon="6.12042">
        <ele>1608.8</ele>
        <time>2022-12-29T10:46:48Z</time>
      </trkpt>
      <trkpt lat="45.0239" lon="6.12042">
        <ele>1608.8</ele>
        <time>2022-12-29T10:46:49Z</time>
      </trkpt>
      <trkpt lat="45.02389" lon="6.12042">
        <ele>1608.8</ele>
        <time>2022-12-29T10:46:50Z</time>
      </trkpt>
      <trkpt lat="45.02388" lon="6.12042">
        <ele>1608.8</ele>
        <time>2022-12-29T10:46:51Z</time>
      </trkpt>
      <trkpt lat="45.02388" lon="6.12043">
        <ele>1608.8</ele>
        <time>2022-12-29T10:46:52Z</time>
      </trkpt>
      <trkpt lat="45.02387" lon="6.12043">
        <ele>1608.8</ele>
        <time>2022-12-29T10:46:53Z</time>
      </trkpt>
      <trkpt lat="45.02386" lon="6.12043">
        <ele>1608.8</ele>
        <time>2022-12-29T10:46:54Z</time>
      </trkpt>
      <trkpt lat="45.02385" lon="6.12044">
        <ele>1608.8</ele>
        <time>2022-12-29T10:46:55Z</time>
      </trkpt>
      <trkpt lat="45.02384" lon="6.12044">
        <ele>1611.2</ele>
        <time>2022-12-29T10:46:56Z</time>
      </trkpt>
      <trkpt lat="45.02382" lon="6.12045">
        <ele>1611.2</ele>
        <time>2022-12-29T10:46:57Z</time>
      </trkpt>
      <trkpt lat="45.02382" lon="6.12045">
        <ele>1611.2</ele>
        <time>2022-12-29T10:46:58Z</time>
      </trkpt>
      <trkpt lat="45.02381" lon="6.12045">
        <ele>1611.2</ele>
        <time>2022-12-29T10:46:59Z</time>
      </trkpt>
      <trkpt lat="45.0238" lon="6.12046">
        <ele>1611.2</ele>
        <time>2022-12-29T10:47:00Z</time>
      </trkpt>
      <trkpt lat="45.02379" lon="6.12046">
        <ele>1611.2</ele>
        <time>2022-12-29T10:47:01Z</time>
      </trkpt>
      <trkpt lat="45.02378" lon="6.12046">
        <ele>1611.2</ele>
        <time>2022-12-29T10:47:02Z</time>
      </trkpt>
      <trkpt lat="45.02378" lon="6.12047">
        <ele>1611.2</ele>
        <time>2022-12-29T10:47:03Z</time>
      </trkpt>
      <trkpt lat="45.02377" lon="6.12047">
        <ele>1611.2</ele>
        <time>2022-12-29T10:47:04Z</time>
      </trkpt>
      <trkpt lat="45.02376" lon="6.12047">
        <ele>1611.2</ele>
        <time>2022-12-29T10:47:05Z</time>
      </trkpt>
      <trkpt lat="45.02375" lon="6.12048">
        <ele>1612.8</ele>
        <time>2022-12-29T10:47:06Z</time>
      </trkpt>
      <trkpt lat="45.02373" lon="6.12049">
        <ele>1612.8</ele>
        <time>2022-12-29T10:47:07Z</time>
      </trkpt>
      <trkpt lat="45.02372" lon="6.12049">
        <ele>1612.8</ele>
        <time>2022-12-29T10:47:08Z</time>
      </trkpt>
      <trkpt lat="45.02371" lon="6.12049">
        <ele>1612.8</ele>
        <time>2022-12-29T10:47:09Z</time>
      </trkpt>
      <trkpt lat="45.0237" lon="6.12049">
        <ele>1612.8</ele>
        <time>2022-12-29T10:47:10Z</time>
      </trkpt>
      <trkpt lat="45.02369" lon="6.12049">
        <ele>1612.8</ele>
        <time>2022-12-29T10:47:12Z</time>
      </trkpt>
      <trkpt lat="45.02368" lon="6.1205">
        <ele>1612.8</ele>
        <time>2022-12-29T10:47:13Z</time>
      </trkpt>
      <trkpt lat="45.02367" lon="6.1205">
        <ele>1612.8</ele>
        <time>2022-12-29T10:47:14Z</time>
      </trkpt>
      <trkpt lat="45.02366" lon="6.1205">
        <ele>1612.8</ele>
        <time>2022-12-29T10:47:15Z</time>
      </trkpt>
      <trkpt lat="45.02365" lon="6.1205">
        <ele>1614.4</ele>
        <time>2022-12-29T10:47:16Z</time>
      </trkpt>
      <trkpt lat="45.02365" lon="6.1205">
        <ele>1614.4</ele>
        <time>2022-12-29T10:47:17Z</time>
      </trkpt>
      <trkpt lat="45.02364" lon="6.12051">
        <ele>1614.4</ele>
        <time>2022-12-29T10:47:18Z</time>
      </trkpt>
      <trkpt lat="45.02364" lon="6.12051">
        <ele>1614.4</ele>
        <time>2022-12-29T10:47:19Z</time>
      </trkpt>
      <trkpt lat="45.02364" lon="6.12051">
        <ele>1614.4</ele>
        <time>2022-12-29T10:47:20Z</time>
      </trkpt>
      <trkpt lat="45.02361" lon="6.1205">
        <ele>1614.4</ele>
        <time>2022-12-29T10:47:21Z</time>
      </trkpt>
      <trkpt lat="45.02361" lon="6.1205">
        <ele>1614.4</ele>
        <time>2022-12-29T10:47:22Z</time>
      </trkpt>
      <trkpt lat="45.02359" lon="6.12051">
        <ele>1614.4</ele>
        <time>2022-12-29T10:47:23Z</time>
      </trkpt>
      <trkpt lat="45.02359" lon="6.12051">
        <ele>1614.4</ele>
        <time>2022-12-29T10:47:24Z</time>
      </trkpt>
      <trkpt lat="45.02357" lon="6.12051">
        <ele>1616.4</ele>
        <time>2022-12-29T10:47:26Z</time>
      </trkpt>
      <trkpt lat="45.02356" lon="6.12051">
        <ele>1616.4</ele>
        <time>2022-12-29T10:47:27Z</time>
      </trkpt>
      <trkpt lat="45.02355" lon="6.12051">
        <ele>1616.4</ele>
        <time>2022-12-29T10:47:28Z</time>
      </trkpt>
      <trkpt lat="45.02355" lon="6.1205">
        <ele>1616.4</ele>
        <time>2022-12-29T10:47:29Z</time>
      </trkpt>
      <trkpt lat="45.02354" lon="6.1205">
        <ele>1616.4</ele>
        <time>2022-12-29T10:47:30Z</time>
      </trkpt>
      <trkpt lat="45.02353" lon="6.1205">
        <ele>1616.4</ele>
        <time>2022-12-29T10:47:31Z</time>
      </trkpt>
      <trkpt lat="45.02352" lon="6.1205">
        <ele>1616.4</ele>
        <time>2022-12-29T10:47:32Z</time>
      </trkpt>
      <trkpt lat="45.02351" lon="6.12049">
        <ele>1616.4</ele>
        <time>2022-12-29T10:47:34Z</time>
      </trkpt>
      <trkpt lat="45.0235" lon="6.12049">
        <ele>1616.4</ele>
        <time>2022-12-29T10:47:35Z</time>
      </trkpt>
      <trkpt lat="45.02349" lon="6.12049">
        <ele>1618</ele>
        <time>2022-12-29T10:47:36Z</time>
      </trkpt>
      <trkpt lat="45.02349" lon="6.12049">
        <ele>1618</ele>
        <time>2022-12-29T10:47:37Z</time>
      </trkpt>
      <trkpt lat="45.02349" lon="6.12049">
        <ele>1618</ele>
        <time>2022-12-29T10:47:38Z</time>
      </trkpt>
      <trkpt lat="45.02348" lon="6.12047">
        <ele>1618</ele>
        <time>2022-12-29T10:47:39Z</time>
      </trkpt>
      <trkpt lat="45.02348" lon="6.12047">
        <ele>1618</ele>
        <time>2022-12-29T10:47:40Z</time>
      </trkpt>
      <trkpt lat="45.02348" lon="6.12047">
        <ele>1618</ele>
        <time>2022-12-29T10:47:41Z</time>
      </trkpt>
      <trkpt lat="45.02348" lon="6.12047">
        <ele>1618</ele>
        <time>2022-12-29T10:47:42Z</time>
      </trkpt>
      <trkpt lat="45.02348" lon="6.12047">
        <ele>1618</ele>
        <time>2022-12-29T10:47:43Z</time>
      </trkpt>
      <trkpt lat="45.02348" lon="6.12047">
        <ele>1618</ele>
        <time>2022-12-29T10:47:44Z</time>
      </trkpt>
      <trkpt lat="45.02349" lon="6.12044">
        <ele>1618</ele>
        <time>2022-12-29T10:47:45Z</time>
      </trkpt>
      <trkpt lat="45.02349" lon="6.12044">
        <ele>1620.4</ele>
        <time>2022-12-29T10:47:46Z</time>
      </trkpt>
      <trkpt lat="45.0235" lon="6.12042">
        <ele>1620.4</ele>
        <time>2022-12-29T10:47:47Z</time>
      </trkpt>
      <trkpt lat="45.02351" lon="6.12042">
        <ele>1620.4</ele>
        <time>2022-12-29T10:47:48Z</time>
      </trkpt>
      <trkpt lat="45.02351" lon="6.12041">
        <ele>1620.4</ele>
        <time>2022-12-29T10:47:49Z</time>
      </trkpt>
      <trkpt lat="45.02351" lon="6.12041">
        <ele>1620.4</ele>
        <time>2022-12-29T10:47:50Z</time>
      </trkpt>
      <trkpt lat="45.02351" lon="6.1204">
        <ele>1620.4</ele>
        <time>2022-12-29T10:47:51Z</time>
      </trkpt>
      <trkpt lat="45.02352" lon="6.1204">
        <ele>1620.4</ele>
        <time>2022-12-29T10:47:52Z</time>
      </trkpt>
      <trkpt lat="45.02352" lon="6.12039">
        <ele>1620.4</ele>
        <time>2022-12-29T10:47:53Z</time>
      </trkpt>
      <trkpt lat="45.02352" lon="6.12039">
        <ele>1620.4</ele>
        <time>2022-12-29T10:47:54Z</time>
      </trkpt>
      <trkpt lat="45.02352" lon="6.12038">
        <ele>1620.4</ele>
        <time>2022-12-29T10:47:55Z</time>
      </trkpt>
      <trkpt lat="45.02353" lon="6.12037">
        <ele>1621.4</ele>
        <time>2022-12-29T10:47:56Z</time>
      </trkpt>
      <trkpt lat="45.02352" lon="6.12038">
        <ele>1621.4</ele>
        <time>2022-12-29T10:47:57Z</time>
      </trkpt>
      <trkpt lat="45.02351" lon="6.12038">
        <ele>1621.4</ele>
        <time>2022-12-29T10:47:58Z</time>
      </trkpt>
      <trkpt lat="45.0235" lon="6.12038">
        <ele>1621.4</ele>
        <time>2022-12-29T10:47:59Z</time>
      </trkpt>
      <trkpt lat="45.02349" lon="6.12039">
        <ele>1621.4</ele>
        <time>2022-12-29T10:48:00Z</time>
      </trkpt>
      <trkpt lat="45.02348" lon="6.12039">
        <ele>1621.4</ele>
        <time>2022-12-29T10:48:01Z</time>
      </trkpt>
      <trkpt lat="45.02347" lon="6.12039">
        <ele>1621.4</ele>
        <time>2022-12-29T10:48:02Z</time>
      </trkpt>
      <trkpt lat="45.02346" lon="6.12039">
        <ele>1621.4</ele>
        <time>2022-12-29T10:48:03Z</time>
      </trkpt>
      <trkpt lat="45.02346" lon="6.1204">
        <ele>1621.4</ele>
        <time>2022-12-29T10:48:04Z</time>
      </trkpt>
      <trkpt lat="45.02345" lon="6.1204">
        <ele>1621.4</ele>
        <time>2022-12-29T10:48:05Z</time>
      </trkpt>
      <trkpt lat="45.02344" lon="6.1204">
        <ele>1623.6</ele>
        <time>2022-12-29T10:48:06Z</time>
      </trkpt>
      <trkpt lat="45.02343" lon="6.12041">
        <ele>1623.6</ele>
        <time>2022-12-29T10:48:07Z</time>
      </trkpt>
      <trkpt lat="45.02342" lon="6.12041">
        <ele>1623.6</ele>
        <time>2022-12-29T10:48:08Z</time>
      </trkpt>
      <trkpt lat="45.02341" lon="6.12042">
        <ele>1623.6</ele>
        <time>2022-12-29T10:48:09Z</time>
      </trkpt>
      <trkpt lat="45.0234" lon="6.12042">
        <ele>1623.6</ele>
        <time>2022-12-29T10:48:10Z</time>
      </trkpt>
      <trkpt lat="45.0234" lon="6.12043">
        <ele>1623.6</ele>
        <time>2022-12-29T10:48:11Z</time>
      </trkpt>
      <trkpt lat="45.02339" lon="6.12043">
        <ele>1623.6</ele>
        <time>2022-12-29T10:48:12Z</time>
      </trkpt>
      <trkpt lat="45.02338" lon="6.12044">
        <ele>1623.6</ele>
        <time>2022-12-29T10:48:13Z</time>
      </trkpt>
      <trkpt lat="45.02337" lon="6.12044">
        <ele>1623.6</ele>
        <time>2022-12-29T10:48:14Z</time>
      </trkpt>
      <trkpt lat="45.02336" lon="6.12044">
        <ele>1623.6</ele>
        <time>2022-12-29T10:48:15Z</time>
      </trkpt>
      <trkpt lat="45.02335" lon="6.12045">
        <ele>1624.6</ele>
        <time>2022-12-29T10:48:16Z</time>
      </trkpt>
      <trkpt lat="45.02335" lon="6.12045">
        <ele>1624.6</ele>
        <time>2022-12-29T10:48:17Z</time>
      </trkpt>
      <trkpt lat="45.02334" lon="6.12046">
        <ele>1624.6</ele>
        <time>2022-12-29T10:48:18Z</time>
      </trkpt>
      <trkpt lat="45.02333" lon="6.12046">
        <ele>1624.6</ele>
        <time>2022-12-29T10:48:20Z</time>
      </trkpt>
      <trkpt lat="45.02332" lon="6.12047">
        <ele>1624.6</ele>
        <time>2022-12-29T10:48:21Z</time>
      </trkpt>
      <trkpt lat="45.02331" lon="6.12047">
        <ele>1624.6</ele>
        <time>2022-12-29T10:48:22Z</time>
      </trkpt>
      <trkpt lat="45.0233" lon="6.12048">
        <ele>1624.6</ele>
        <time>2022-12-29T10:48:23Z</time>
      </trkpt>
      <trkpt lat="45.02329" lon="6.12048">
        <ele>1624.6</ele>
        <time>2022-12-29T10:48:24Z</time>
      </trkpt>
      <trkpt lat="45.02329" lon="6.12049">
        <ele>1624.6</ele>
        <time>2022-12-29T10:48:25Z</time>
      </trkpt>
      <trkpt lat="45.02328" lon="6.12049">
        <ele>1626</ele>
        <time>2022-12-29T10:48:26Z</time>
      </trkpt>
      <trkpt lat="45.02326" lon="6.12051">
        <ele>1626</ele>
        <time>2022-12-29T10:48:27Z</time>
      </trkpt>
      <trkpt lat="45.02325" lon="6.12051">
        <ele>1626</ele>
        <time>2022-12-29T10:48:28Z</time>
      </trkpt>
      <trkpt lat="45.02325" lon="6.12052">
        <ele>1626</ele>
        <time>2022-12-29T10:48:29Z</time>
      </trkpt>
      <trkpt lat="45.02324" lon="6.12052">
        <ele>1626</ele>
        <time>2022-12-29T10:48:30Z</time>
      </trkpt>
      <trkpt lat="45.02324" lon="6.12052">
        <ele>1626</ele>
        <time>2022-12-29T10:48:31Z</time>
      </trkpt>
      <trkpt lat="45.02324" lon="6.12052">
        <ele>1626</ele>
        <time>2022-12-29T10:48:32Z</time>
      </trkpt>
      <trkpt lat="45.02323" lon="6.12053">
        <ele>1626</ele>
        <time>2022-12-29T10:48:33Z</time>
      </trkpt>
      <trkpt lat="45.02323" lon="6.12053">
        <ele>1626</ele>
        <time>2022-12-29T10:48:34Z</time>
      </trkpt>
      <trkpt lat="45.02322" lon="6.12053">
        <ele>1626</ele>
        <time>2022-12-29T10:48:35Z</time>
      </trkpt>
      <trkpt lat="45.02322" lon="6.12053">
        <ele>1626.4</ele>
        <time>2022-12-29T10:48:36Z</time>
      </trkpt>
      <trkpt lat="45.02321" lon="6.12053">
        <ele>1626.4</ele>
        <time>2022-12-29T10:48:37Z</time>
      </trkpt>
      <trkpt lat="45.02321" lon="6.12053">
        <ele>1626.4</ele>
        <time>2022-12-29T10:48:38Z</time>
      </trkpt>
      <trkpt lat="45.0232" lon="6.12053">
        <ele>1626.4</ele>
        <time>2022-12-29T10:48:39Z</time>
      </trkpt>
      <trkpt lat="45.02319" lon="6.12053">
        <ele>1626.4</ele>
        <time>2022-12-29T10:48:40Z</time>
      </trkpt>
      <trkpt lat="45.02319" lon="6.12053">
        <ele>1626.4</ele>
        <time>2022-12-29T10:48:41Z</time>
      </trkpt>
      <trkpt lat="45.02318" lon="6.12053">
        <ele>1626.4</ele>
        <time>2022-12-29T10:48:42Z</time>
      </trkpt>
      <trkpt lat="45.02317" lon="6.12053">
        <ele>1626.4</ele>
        <time>2022-12-29T10:48:43Z</time>
      </trkpt>
      <trkpt lat="45.02317" lon="6.12054">
        <ele>1626.4</ele>
        <time>2022-12-29T10:48:44Z</time>
      </trkpt>
      <trkpt lat="45.02316" lon="6.12054">
        <ele>1626.4</ele>
        <time>2022-12-29T10:48:45Z</time>
      </trkpt>
      <trkpt lat="45.02316" lon="6.12054">
        <ele>1627.6</ele>
        <time>2022-12-29T10:48:46Z</time>
      </trkpt>
      <trkpt lat="45.02312" lon="6.12054">
        <ele>1627.6</ele>
        <time>2022-12-29T10:48:48Z</time>
      </trkpt>
      <trkpt lat="45.02311" lon="6.12054">
        <ele>1627.6</ele>
        <time>2022-12-29T10:48:49Z</time>
      </trkpt>
      <trkpt lat="45.02311" lon="6.12054">
        <ele>1627.6</ele>
        <time>2022-12-29T10:48:50Z</time>
      </trkpt>
      <trkpt lat="45.0231" lon="6.12054">
        <ele>1627.6</ele>
        <time>2022-12-29T10:48:51Z</time>
      </trkpt>
      <trkpt lat="45.02309" lon="6.12054">
        <ele>1627.6</ele>
        <time>2022-12-29T10:48:52Z</time>
      </trkpt>
      <trkpt lat="45.02308" lon="6.12054">
        <ele>1627.6</ele>
        <time>2022-12-29T10:48:54Z</time>
      </trkpt>
      <trkpt lat="45.02308" lon="6.12054">
        <ele>1627.6</ele>
        <time>2022-12-29T10:48:55Z</time>
      </trkpt>
      <trkpt lat="45.02307" lon="6.12054">
        <ele>1629</ele>
        <time>2022-12-29T10:48:56Z</time>
      </trkpt>
      <trkpt lat="45.02304" lon="6.12054">
        <ele>1629</ele>
        <time>2022-12-29T10:48:57Z</time>
      </trkpt>
      <trkpt lat="45.02303" lon="6.12054">
        <ele>1629</ele>
        <time>2022-12-29T10:48:58Z</time>
      </trkpt>
      <trkpt lat="45.02303" lon="6.12054">
        <ele>1629</ele>
        <time>2022-12-29T10:49:00Z</time>
      </trkpt>
      <trkpt lat="45.02302" lon="6.12054">
        <ele>1629</ele>
        <time>2022-12-29T10:49:01Z</time>
      </trkpt>
      <trkpt lat="45.02301" lon="6.12054">
        <ele>1629</ele>
        <time>2022-12-29T10:49:02Z</time>
      </trkpt>
      <trkpt lat="45.023" lon="6.12053">
        <ele>1629</ele>
        <time>2022-12-29T10:49:03Z</time>
      </trkpt>
      <trkpt lat="45.02299" lon="6.12053">
        <ele>1629</ele>
        <time>2022-12-29T10:49:04Z</time>
      </trkpt>
      <trkpt lat="45.02298" lon="6.12053">
        <ele>1629</ele>
        <time>2022-12-29T10:49:05Z</time>
      </trkpt>
      <trkpt lat="45.02298" lon="6.12053">
        <ele>1631</ele>
        <time>2022-12-29T10:49:06Z</time>
      </trkpt>
      <trkpt lat="45.02295" lon="6.12054">
        <ele>1631</ele>
        <time>2022-12-29T10:49:07Z</time>
      </trkpt>
      <trkpt lat="45.02294" lon="6.12054">
        <ele>1631</ele>
        <time>2022-12-29T10:49:08Z</time>
      </trkpt>
      <trkpt lat="45.02293" lon="6.12054">
        <ele>1631</ele>
        <time>2022-12-29T10:49:09Z</time>
      </trkpt>
      <trkpt lat="45.02292" lon="6.12054">
        <ele>1631</ele>
        <time>2022-12-29T10:49:10Z</time>
      </trkpt>
      <trkpt lat="45.02291" lon="6.12054">
        <ele>1631</ele>
        <time>2022-12-29T10:49:13Z</time>
      </trkpt>
      <trkpt lat="45.0229" lon="6.12054">
        <ele>1631</ele>
        <time>2022-12-29T10:49:14Z</time>
      </trkpt>
      <trkpt lat="45.02288" lon="6.12054">
        <ele>1631</ele>
        <time>2022-12-29T10:49:15Z</time>
      </trkpt>
      <trkpt lat="45.02287" lon="6.12054">
        <ele>1632.4</ele>
        <time>2022-12-29T10:49:16Z</time>
      </trkpt>
      <trkpt lat="45.02287" lon="6.12054">
        <ele>1632.4</ele>
        <time>2022-12-29T10:49:17Z</time>
      </trkpt>
      <trkpt lat="45.02286" lon="6.12054">
        <ele>1632.4</ele>
        <time>2022-12-29T10:49:18Z</time>
      </trkpt>
      <trkpt lat="45.02286" lon="6.12053">
        <ele>1632.4</ele>
        <time>2022-12-29T10:49:19Z</time>
      </trkpt>
      <trkpt lat="45.02285" lon="6.12053">
        <ele>1632.4</ele>
        <time>2022-12-29T10:49:20Z</time>
      </trkpt>
      <trkpt lat="45.02285" lon="6.12053">
        <ele>1632.4</ele>
        <time>2022-12-29T10:49:21Z</time>
      </trkpt>
      <trkpt lat="45.02284" lon="6.12053">
        <ele>1632.4</ele>
        <time>2022-12-29T10:49:22Z</time>
      </trkpt>
      <trkpt lat="45.02283" lon="6.12053">
        <ele>1632.4</ele>
        <time>2022-12-29T10:49:23Z</time>
      </trkpt>
      <trkpt lat="45.02283" lon="6.12053">
        <ele>1632.4</ele>
        <time>2022-12-29T10:49:24Z</time>
      </trkpt>
      <trkpt lat="45.02282" lon="6.12052">
        <ele>1632.4</ele>
        <time>2022-12-29T10:49:25Z</time>
      </trkpt>
      <trkpt lat="45.02282" lon="6.12052">
        <ele>1634.8</ele>
        <time>2022-12-29T10:49:26Z</time>
      </trkpt>
      <trkpt lat="45.02281" lon="6.12052">
        <ele>1634.8</ele>
        <time>2022-12-29T10:49:27Z</time>
      </trkpt>
      <trkpt lat="45.0228" lon="6.12052">
        <ele>1634.8</ele>
        <time>2022-12-29T10:49:28Z</time>
      </trkpt>
      <trkpt lat="45.02279" lon="6.12052">
        <ele>1634.8</ele>
        <time>2022-12-29T10:49:29Z</time>
      </trkpt>
      <trkpt lat="45.02278" lon="6.12052">
        <ele>1634.8</ele>
        <time>2022-12-29T10:49:30Z</time>
      </trkpt>
      <trkpt lat="45.02277" lon="6.12052">
        <ele>1634.8</ele>
        <time>2022-12-29T10:49:31Z</time>
      </trkpt>
      <trkpt lat="45.02276" lon="6.12052">
        <ele>1634.8</ele>
        <time>2022-12-29T10:49:32Z</time>
      </trkpt>
      <trkpt lat="45.02275" lon="6.12052">
        <ele>1634.8</ele>
        <time>2022-12-29T10:49:33Z</time>
      </trkpt>
      <trkpt lat="45.02274" lon="6.12052">
        <ele>1634.8</ele>
        <time>2022-12-29T10:49:34Z</time>
      </trkpt>
      <trkpt lat="45.02273" lon="6.12052">
        <ele>1634.8</ele>
        <time>2022-12-29T10:49:35Z</time>
      </trkpt>
      <trkpt lat="45.02272" lon="6.12052">
        <ele>1636.6</ele>
        <time>2022-12-29T10:49:36Z</time>
      </trkpt>
      <trkpt lat="45.02271" lon="6.12052">
        <ele>1636.6</ele>
        <time>2022-12-29T10:49:37Z</time>
      </trkpt>
      <trkpt lat="45.02271" lon="6.12052">
        <ele>1636.6</ele>
        <time>2022-12-29T10:49:38Z</time>
      </trkpt>
      <trkpt lat="45.0227" lon="6.12052">
        <ele>1636.6</ele>
        <time>2022-12-29T10:49:39Z</time>
      </trkpt>
      <trkpt lat="45.0227" lon="6.12052">
        <ele>1636.6</ele>
        <time>2022-12-29T10:49:40Z</time>
      </trkpt>
      <trkpt lat="45.02269" lon="6.12052">
        <ele>1636.6</ele>
        <time>2022-12-29T10:49:41Z</time>
      </trkpt>
      <trkpt lat="45.02269" lon="6.12053">
        <ele>1636.6</ele>
        <time>2022-12-29T10:49:42Z</time>
      </trkpt>
      <trkpt lat="45.02268" lon="6.12053">
        <ele>1636.6</ele>
        <time>2022-12-29T10:49:43Z</time>
      </trkpt>
      <trkpt lat="45.02268" lon="6.12053">
        <ele>1636.6</ele>
        <time>2022-12-29T10:49:45Z</time>
      </trkpt>
      <trkpt lat="45.02268" lon="6.12053">
        <ele>1638.4</ele>
        <time>2022-12-29T10:49:46Z</time>
      </trkpt>
      <trkpt lat="45.02266" lon="6.12052">
        <ele>1638.4</ele>
        <time>2022-12-29T10:49:47Z</time>
      </trkpt>
      <trkpt lat="45.02266" lon="6.12051">
        <ele>1638.4</ele>
        <time>2022-12-29T10:49:48Z</time>
      </trkpt>
      <trkpt lat="45.02267" lon="6.1205">
        <ele>1638.4</ele>
        <time>2022-12-29T10:49:49Z</time>
      </trkpt>
      <trkpt lat="45.02267" lon="6.12049">
        <ele>1638.4</ele>
        <time>2022-12-29T10:49:50Z</time>
      </trkpt>
      <trkpt lat="45.02267" lon="6.12048">
        <ele>1638.4</ele>
        <time>2022-12-29T10:49:51Z</time>
      </trkpt>
      <trkpt lat="45.02268" lon="6.12047">
        <ele>1638.4</ele>
        <time>2022-12-29T10:49:52Z</time>
      </trkpt>
      <trkpt lat="45.02268" lon="6.12047">
        <ele>1638.4</ele>
        <time>2022-12-29T10:49:53Z</time>
      </trkpt>
      <trkpt lat="45.02268" lon="6.12046">
        <ele>1638.4</ele>
        <time>2022-12-29T10:49:54Z</time>
      </trkpt>
      <trkpt lat="45.02269" lon="6.12045">
        <ele>1638.4</ele>
        <time>2022-12-29T10:49:55Z</time>
      </trkpt>
      <trkpt lat="45.02269" lon="6.12044">
        <ele>1640.6</ele>
        <time>2022-12-29T10:49:56Z</time>
      </trkpt>
      <trkpt lat="45.02269" lon="6.12043">
        <ele>1640.6</ele>
        <time>2022-12-29T10:49:57Z</time>
      </trkpt>
      <trkpt lat="45.0227" lon="6.12042">
        <ele>1640.6</ele>
        <time>2022-12-29T10:49:58Z</time>
      </trkpt>
      <trkpt lat="45.0227" lon="6.12041">
        <ele>1640.6</ele>
        <time>2022-12-29T10:49:59Z</time>
      </trkpt>
      <trkpt lat="45.0227" lon="6.1204">
        <ele>1640.6</ele>
        <time>2022-12-29T10:50:00Z</time>
      </trkpt>
      <trkpt lat="45.0227" lon="6.12039">
        <ele>1640.6</ele>
        <time>2022-12-29T10:50:01Z</time>
      </trkpt>
      <trkpt lat="45.02271" lon="6.12038">
        <ele>1640.6</ele>
        <time>2022-12-29T10:50:02Z</time>
      </trkpt>
      <trkpt lat="45.02271" lon="6.12037">
        <ele>1640.6</ele>
        <time>2022-12-29T10:50:03Z</time>
      </trkpt>
      <trkpt lat="45.02271" lon="6.12036">
        <ele>1640.6</ele>
        <time>2022-12-29T10:50:04Z</time>
      </trkpt>
      <trkpt lat="45.02271" lon="6.12035">
        <ele>1640.6</ele>
        <time>2022-12-29T10:50:05Z</time>
      </trkpt>
      <trkpt lat="45.02271" lon="6.12035">
        <ele>1642.2</ele>
        <time>2022-12-29T10:50:06Z</time>
      </trkpt>
      <trkpt lat="45.02272" lon="6.12031">
        <ele>1642.2</ele>
        <time>2022-12-29T10:50:07Z</time>
      </trkpt>
      <trkpt lat="45.02272" lon="6.12031">
        <ele>1642.2</ele>
        <time>2022-12-29T10:50:08Z</time>
      </trkpt>
      <trkpt lat="45.02272" lon="6.12031">
        <ele>1642.2</ele>
        <time>2022-12-29T10:50:09Z</time>
      </trkpt>
      <trkpt lat="45.02272" lon="6.1203">
        <ele>1642.2</ele>
        <time>2022-12-29T10:50:10Z</time>
      </trkpt>
      <trkpt lat="45.02272" lon="6.1203">
        <ele>1642.2</ele>
        <time>2022-12-29T10:50:11Z</time>
      </trkpt>
      <trkpt lat="45.02272" lon="6.1203">
        <ele>1642.2</ele>
        <time>2022-12-29T10:50:12Z</time>
      </trkpt>
      <trkpt lat="45.02273" lon="6.1203">
        <ele>1642.2</ele>
        <time>2022-12-29T10:50:13Z</time>
      </trkpt>
      <trkpt lat="45.02273" lon="6.12029">
        <ele>1642.2</ele>
        <time>2022-12-29T10:50:14Z</time>
      </trkpt>
      <trkpt lat="45.02273" lon="6.12029">
        <ele>1642.2</ele>
        <time>2022-12-29T10:50:15Z</time>
      </trkpt>
      <trkpt lat="45.02273" lon="6.12029">
        <ele>1643.2</ele>
        <time>2022-12-29T10:50:16Z</time>
      </trkpt>
      <trkpt lat="45.02273" lon="6.12029">
        <ele>1643.2</ele>
        <time>2022-12-29T10:50:17Z</time>
      </trkpt>
      <trkpt lat="45.02273" lon="6.12029">
        <ele>1643.2</ele>
        <time>2022-12-29T10:50:18Z</time>
      </trkpt>
      <trkpt lat="45.02273" lon="6.12029">
        <ele>1643.2</ele>
        <time>2022-12-29T10:50:19Z</time>
      </trkpt>
      <trkpt lat="45.02273" lon="6.12029">
        <ele>1643.2</ele>
        <time>2022-12-29T10:50:20Z</time>
      </trkpt>
      <trkpt lat="45.0227" lon="6.12028">
        <ele>1643.2</ele>
        <time>2022-12-29T10:50:21Z</time>
      </trkpt>
      <trkpt lat="45.02268" lon="6.12028">
        <ele>1643.2</ele>
        <time>2022-12-29T10:50:23Z</time>
      </trkpt>
      <trkpt lat="45.02268" lon="6.12028">
        <ele>1643.2</ele>
        <time>2022-12-29T10:50:24Z</time>
      </trkpt>
      <trkpt lat="45.02268" lon="6.12028">
        <ele>1644.4</ele>
        <time>2022-12-29T10:50:26Z</time>
      </trkpt>
      <trkpt lat="45.02265" lon="6.12029">
        <ele>1644.4</ele>
        <time>2022-12-29T10:50:27Z</time>
      </trkpt>
      <trkpt lat="45.02265" lon="6.12029">
        <ele>1644.4</ele>
        <time>2022-12-29T10:50:28Z</time>
      </trkpt>
      <trkpt lat="45.02264" lon="6.12029">
        <ele>1644.4</ele>
        <time>2022-12-29T10:50:29Z</time>
      </trkpt>
      <trkpt lat="45.02264" lon="6.12029">
        <ele>1644.4</ele>
        <time>2022-12-29T10:50:30Z</time>
      </trkpt>
      <trkpt lat="45.02264" lon="6.12029">
        <ele>1644.4</ele>
        <time>2022-12-29T10:50:32Z</time>
      </trkpt>
      <trkpt lat="45.02263" lon="6.1203">
        <ele>1644.4</ele>
        <time>2022-12-29T10:50:33Z</time>
      </trkpt>
      <trkpt lat="45.02263" lon="6.1203">
        <ele>1644.4</ele>
        <time>2022-12-29T10:50:34Z</time>
      </trkpt>
      <trkpt lat="45.02262" lon="6.1203">
        <ele>1644.4</ele>
        <time>2022-12-29T10:50:35Z</time>
      </trkpt>
      <trkpt lat="45.02262" lon="6.1203">
        <ele>1646.8</ele>
        <time>2022-12-29T10:50:36Z</time>
      </trkpt>
      <trkpt lat="45.02262" lon="6.1203">
        <ele>1646.8</ele>
        <time>2022-12-29T10:50:37Z</time>
      </trkpt>
      <trkpt lat="45.02262" lon="6.12029">
        <ele>1646.8</ele>
        <time>2022-12-29T10:50:38Z</time>
      </trkpt>
      <trkpt lat="45.02262" lon="6.12028">
        <ele>1646.8</ele>
        <time>2022-12-29T10:50:39Z</time>
      </trkpt>
      <trkpt lat="45.02262" lon="6.12028">
        <ele>1646.8</ele>
        <time>2022-12-29T10:50:40Z</time>
      </trkpt>
      <trkpt lat="45.02262" lon="6.12027">
        <ele>1646.8</ele>
        <time>2022-12-29T10:50:41Z</time>
      </trkpt>
      <trkpt lat="45.02262" lon="6.12027">
        <ele>1646.8</ele>
        <time>2022-12-29T10:50:42Z</time>
      </trkpt>
      <trkpt lat="45.02262" lon="6.12026">
        <ele>1646.8</ele>
        <time>2022-12-29T10:50:43Z</time>
      </trkpt>
      <trkpt lat="45.02262" lon="6.12025">
        <ele>1646.8</ele>
        <time>2022-12-29T10:50:44Z</time>
      </trkpt>
      <trkpt lat="45.02262" lon="6.12025">
        <ele>1646.8</ele>
        <time>2022-12-29T10:50:45Z</time>
      </trkpt>
      <trkpt lat="45.02262" lon="6.12024">
        <ele>1648.2</ele>
        <time>2022-12-29T10:50:46Z</time>
      </trkpt>
      <trkpt lat="45.02263" lon="6.12023">
        <ele>1648.2</ele>
        <time>2022-12-29T10:50:47Z</time>
      </trkpt>
      <trkpt lat="45.02263" lon="6.12022">
        <ele>1648.2</ele>
        <time>2022-12-29T10:50:48Z</time>
      </trkpt>
      <trkpt lat="45.02264" lon="6.12022">
        <ele>1648.2</ele>
        <time>2022-12-29T10:50:49Z</time>
      </trkpt>
      <trkpt lat="45.02264" lon="6.12021">
        <ele>1648.2</ele>
        <time>2022-12-29T10:50:50Z</time>
      </trkpt>
      <trkpt lat="45.02265" lon="6.1202">
        <ele>1648.2</ele>
        <time>2022-12-29T10:50:51Z</time>
      </trkpt>
      <trkpt lat="45.02265" lon="6.12019">
        <ele>1648.2</ele>
        <time>2022-12-29T10:50:52Z</time>
      </trkpt>
      <trkpt lat="45.02266" lon="6.12018">
        <ele>1648.2</ele>
        <time>2022-12-29T10:50:53Z</time>
      </trkpt>
      <trkpt lat="45.02266" lon="6.12017">
        <ele>1648.2</ele>
        <time>2022-12-29T10:50:54Z</time>
      </trkpt>
      <trkpt lat="45.02267" lon="6.12016">
        <ele>1648.2</ele>
        <time>2022-12-29T10:50:55Z</time>
      </trkpt>
      <trkpt lat="45.02267" lon="6.12015">
        <ele>1649.4</ele>
        <time>2022-12-29T10:50:56Z</time>
      </trkpt>
      <trkpt lat="45.02268" lon="6.12013">
        <ele>1649.4</ele>
        <time>2022-12-29T10:50:57Z</time>
      </trkpt>
      <trkpt lat="45.02269" lon="6.12012">
        <ele>1649.4</ele>
        <time>2022-12-29T10:50:58Z</time>
      </trkpt>
      <trkpt lat="45.02269" lon="6.12012">
        <ele>1649.4</ele>
        <time>2022-12-29T10:50:59Z</time>
      </trkpt>
      <trkpt lat="45.02269" lon="6.12012">
        <ele>1649.4</ele>
        <time>2022-12-29T10:51:00Z</time>
      </trkpt>
      <trkpt lat="45.02269" lon="6.12012">
        <ele>1649.4</ele>
        <time>2022-12-29T10:51:01Z</time>
      </trkpt>
      <trkpt lat="45.02269" lon="6.12011">
        <ele>1649.4</ele>
        <time>2022-12-29T10:51:02Z</time>
      </trkpt>
      <trkpt lat="45.02269" lon="6.12011">
        <ele>1649.4</ele>
        <time>2022-12-29T10:51:03Z</time>
      </trkpt>
      <trkpt lat="45.02269" lon="6.12011">
        <ele>1649.4</ele>
        <time>2022-12-29T10:51:04Z</time>
      </trkpt>
      <trkpt lat="45.0227" lon="6.12011">
        <ele>1649.4</ele>
        <time>2022-12-29T10:51:05Z</time>
      </trkpt>
      <trkpt lat="45.0227" lon="6.12011">
        <ele>1650.4</ele>
        <time>2022-12-29T10:51:06Z</time>
      </trkpt>
      <trkpt lat="45.0227" lon="6.12011">
        <ele>1650.4</ele>
        <time>2022-12-29T10:51:07Z</time>
      </trkpt>
      <trkpt lat="45.0227" lon="6.12011">
        <ele>1650.4</ele>
        <time>2022-12-29T10:51:08Z</time>
      </trkpt>
      <trkpt lat="45.0227" lon="6.12011">
        <ele>1650.4</ele>
        <time>2022-12-29T10:51:09Z</time>
      </trkpt>
      <trkpt lat="45.0227" lon="6.12011">
        <ele>1650.4</ele>
        <time>2022-12-29T10:51:10Z</time>
      </trkpt>
      <trkpt lat="45.0227" lon="6.12011">
        <ele>1650.4</ele>
        <time>2022-12-29T10:51:11Z</time>
      </trkpt>
      <trkpt lat="45.02268" lon="6.12012">
        <ele>1650.4</ele>
        <time>2022-12-29T10:51:12Z</time>
      </trkpt>
      <trkpt lat="45.02268" lon="6.12012">
        <ele>1650.4</ele>
        <time>2022-12-29T10:51:13Z</time>
      </trkpt>
      <trkpt lat="45.02266" lon="6.12013">
        <ele>1650.4</ele>
        <time>2022-12-29T10:51:14Z</time>
      </trkpt>
      <trkpt lat="45.02266" lon="6.12013">
        <ele>1650.4</ele>
        <time>2022-12-29T10:51:15Z</time>
      </trkpt>
      <trkpt lat="45.02266" lon="6.12013">
        <ele>1651</ele>
        <time>2022-12-29T10:51:16Z</time>
      </trkpt>
      <trkpt lat="45.02263" lon="6.12014">
        <ele>1651</ele>
        <time>2022-12-29T10:51:17Z</time>
      </trkpt>
      <trkpt lat="45.02263" lon="6.12014">
        <ele>1651</ele>
        <time>2022-12-29T10:51:18Z</time>
      </trkpt>
      <trkpt lat="45.02262" lon="6.12014">
        <ele>1651</ele>
        <time>2022-12-29T10:51:19Z</time>
      </trkpt>
      <trkpt lat="45.02261" lon="6.12014">
        <ele>1651</ele>
        <time>2022-12-29T10:51:20Z</time>
      </trkpt>
      <trkpt lat="45.02261" lon="6.12014">
        <ele>1651</ele>
        <time>2022-12-29T10:51:21Z</time>
      </trkpt>
      <trkpt lat="45.0226" lon="6.12014">
        <ele>1651</ele>
        <time>2022-12-29T10:51:22Z</time>
      </trkpt>
      <trkpt lat="45.02259" lon="6.12014">
        <ele>1651</ele>
        <time>2022-12-29T10:51:23Z</time>
      </trkpt>
      <trkpt lat="45.02259" lon="6.12014">
        <ele>1651</ele>
        <time>2022-12-29T10:51:24Z</time>
      </trkpt>
      <trkpt lat="45.02258" lon="6.12015">
        <ele>1651</ele>
        <time>2022-12-29T10:51:25Z</time>
      </trkpt>
      <trkpt lat="45.02258" lon="6.12015">
        <ele>1652.6</ele>
        <time>2022-12-29T10:51:26Z</time>
      </trkpt>
      <trkpt lat="45.02257" lon="6.12015">
        <ele>1652.6</ele>
        <time>2022-12-29T10:51:27Z</time>
      </trkpt>
      <trkpt lat="45.02256" lon="6.12016">
        <ele>1652.6</ele>
        <time>2022-12-29T10:51:28Z</time>
      </trkpt>
      <trkpt lat="45.02255" lon="6.12016">
        <ele>1652.6</ele>
        <time>2022-12-29T10:51:29Z</time>
      </trkpt>
      <trkpt lat="45.02255" lon="6.12017">
        <ele>1652.6</ele>
        <time>2022-12-29T10:51:30Z</time>
      </trkpt>
      <trkpt lat="45.02254" lon="6.12017">
        <ele>1652.6</ele>
        <time>2022-12-29T10:51:31Z</time>
      </trkpt>
      <trkpt lat="45.02253" lon="6.12018">
        <ele>1652.6</ele>
        <time>2022-12-29T10:51:32Z</time>
      </trkpt>
      <trkpt lat="45.02252" lon="6.12019">
        <ele>1652.6</ele>
        <time>2022-12-29T10:51:33Z</time>
      </trkpt>
      <trkpt lat="45.02252" lon="6.12019">
        <ele>1652.6</ele>
        <time>2022-12-29T10:51:34Z</time>
      </trkpt>
      <trkpt lat="45.02251" lon="6.1202">
        <ele>1652.6</ele>
        <time>2022-12-29T10:51:35Z</time>
      </trkpt>
      <trkpt lat="45.0225" lon="6.1202">
        <ele>1654</ele>
        <time>2022-12-29T10:51:36Z</time>
      </trkpt>
      <trkpt lat="45.02249" lon="6.1202">
        <ele>1654</ele>
        <time>2022-12-29T10:51:37Z</time>
      </trkpt>
      <trkpt lat="45.02248" lon="6.1202">
        <ele>1654</ele>
        <time>2022-12-29T10:51:38Z</time>
      </trkpt>
      <trkpt lat="45.02247" lon="6.1202">
        <ele>1654</ele>
        <time>2022-12-29T10:51:39Z</time>
      </trkpt>
      <trkpt lat="45.02247" lon="6.12021">
        <ele>1654</ele>
        <time>2022-12-29T10:51:40Z</time>
      </trkpt>
      <trkpt lat="45.02246" lon="6.12021">
        <ele>1654</ele>
        <time>2022-12-29T10:51:41Z</time>
      </trkpt>
      <trkpt lat="45.02245" lon="6.12021">
        <ele>1654</ele>
        <time>2022-12-29T10:51:42Z</time>
      </trkpt>
      <trkpt lat="45.02244" lon="6.12021">
        <ele>1654</ele>
        <time>2022-12-29T10:51:43Z</time>
      </trkpt>
      <trkpt lat="45.02243" lon="6.12021">
        <ele>1654</ele>
        <time>2022-12-29T10:51:44Z</time>
      </trkpt>
      <trkpt lat="45.02242" lon="6.12021">
        <ele>1654</ele>
        <time>2022-12-29T10:51:45Z</time>
      </trkpt>
      <trkpt lat="45.02241" lon="6.12021">
        <ele>1656.8</ele>
        <time>2022-12-29T10:51:46Z</time>
      </trkpt>
      <trkpt lat="45.0224" lon="6.12021">
        <ele>1656.8</ele>
        <time>2022-12-29T10:51:47Z</time>
      </trkpt>
      <trkpt lat="45.02239" lon="6.12021">
        <ele>1656.8</ele>
        <time>2022-12-29T10:51:48Z</time>
      </trkpt>
      <trkpt lat="45.02239" lon="6.12021">
        <ele>1656.8</ele>
        <time>2022-12-29T10:51:49Z</time>
      </trkpt>
      <trkpt lat="45.02238" lon="6.12022">
        <ele>1656.8</ele>
        <time>2022-12-29T10:51:50Z</time>
      </trkpt>
      <trkpt lat="45.02237" lon="6.12022">
        <ele>1656.8</ele>
        <time>2022-12-29T10:51:51Z</time>
      </trkpt>
      <trkpt lat="45.02236" lon="6.12022">
        <ele>1656.8</ele>
        <time>2022-12-29T10:51:52Z</time>
      </trkpt>
      <trkpt lat="45.02235" lon="6.12022">
        <ele>1656.8</ele>
        <time>2022-12-29T10:51:53Z</time>
      </trkpt>
      <trkpt lat="45.02234" lon="6.12022">
        <ele>1656.8</ele>
        <time>2022-12-29T10:51:54Z</time>
      </trkpt>
      <trkpt lat="45.02233" lon="6.12022">
        <ele>1656.8</ele>
        <time>2022-12-29T10:51:55Z</time>
      </trkpt>
      <trkpt lat="45.02232" lon="6.12022">
        <ele>1658</ele>
        <time>2022-12-29T10:51:56Z</time>
      </trkpt>
      <trkpt lat="45.02231" lon="6.12022">
        <ele>1658</ele>
        <time>2022-12-29T10:51:57Z</time>
      </trkpt>
      <trkpt lat="45.02231" lon="6.12022">
        <ele>1658</ele>
        <time>2022-12-29T10:51:58Z</time>
      </trkpt>
      <trkpt lat="45.0223" lon="6.12023">
        <ele>1658</ele>
        <time>2022-12-29T10:51:59Z</time>
      </trkpt>
      <trkpt lat="45.02229" lon="6.12023">
        <ele>1658</ele>
        <time>2022-12-29T10:52:00Z</time>
      </trkpt>
      <trkpt lat="45.02228" lon="6.12023">
        <ele>1658</ele>
        <time>2022-12-29T10:52:01Z</time>
      </trkpt>
      <trkpt lat="45.02227" lon="6.12023">
        <ele>1658</ele>
        <time>2022-12-29T10:52:02Z</time>
      </trkpt>
      <trkpt lat="45.02227" lon="6.12023">
        <ele>1658</ele>
        <time>2022-12-29T10:52:03Z</time>
      </trkpt>
      <trkpt lat="45.02226" lon="6.12023">
        <ele>1658</ele>
        <time>2022-12-29T10:52:04Z</time>
      </trkpt>
      <trkpt lat="45.02225" lon="6.12023">
        <ele>1658</ele>
        <time>2022-12-29T10:52:05Z</time>
      </trkpt>
      <trkpt lat="45.02224" lon="6.12023">
        <ele>1660.6</ele>
        <time>2022-12-29T10:52:06Z</time>
      </trkpt>
      <trkpt lat="45.02224" lon="6.12023">
        <ele>1660.6</ele>
        <time>2022-12-29T10:52:07Z</time>
      </trkpt>
      <trkpt lat="45.02224" lon="6.12023">
        <ele>1660.6</ele>
        <time>2022-12-29T10:52:08Z</time>
      </trkpt>
      <trkpt lat="45.02225" lon="6.12021">
        <ele>1660.6</ele>
        <time>2022-12-29T10:52:09Z</time>
      </trkpt>
      <trkpt lat="45.02225" lon="6.12021">
        <ele>1660.6</ele>
        <time>2022-12-29T10:52:10Z</time>
      </trkpt>
      <trkpt lat="45.02225" lon="6.12021">
        <ele>1660.6</ele>
        <time>2022-12-29T10:52:11Z</time>
      </trkpt>
      <trkpt lat="45.02226" lon="6.12018">
        <ele>1660.6</ele>
        <time>2022-12-29T10:52:12Z</time>
      </trkpt>
      <trkpt lat="45.02226" lon="6.12018">
        <ele>1660.6</ele>
        <time>2022-12-29T10:52:13Z</time>
      </trkpt>
      <trkpt lat="45.02226" lon="6.12018">
        <ele>1660.6</ele>
        <time>2022-12-29T10:52:14Z</time>
      </trkpt>
      <trkpt lat="45.02226" lon="6.12018">
        <ele>1660.6</ele>
        <time>2022-12-29T10:52:15Z</time>
      </trkpt>
      <trkpt lat="45.02226" lon="6.12018">
        <ele>1662</ele>
        <time>2022-12-29T10:52:16Z</time>
      </trkpt>
      <trkpt lat="45.02225" lon="6.12018">
        <ele>1662</ele>
        <time>2022-12-29T10:52:17Z</time>
      </trkpt>
      <trkpt lat="45.02225" lon="6.12018">
        <ele>1662</ele>
        <time>2022-12-29T10:52:18Z</time>
      </trkpt>
      <trkpt lat="45.02224" lon="6.12018">
        <ele>1662</ele>
        <time>2022-12-29T10:52:19Z</time>
      </trkpt>
      <trkpt lat="45.02223" lon="6.12018">
        <ele>1662</ele>
        <time>2022-12-29T10:52:20Z</time>
      </trkpt>
      <trkpt lat="45.02222" lon="6.12019">
        <ele>1662</ele>
        <time>2022-12-29T10:52:21Z</time>
      </trkpt>
      <trkpt lat="45.02222" lon="6.12019">
        <ele>1662</ele>
        <time>2022-12-29T10:52:22Z</time>
      </trkpt>
      <trkpt lat="45.02221" lon="6.12019">
        <ele>1662</ele>
        <time>2022-12-29T10:52:23Z</time>
      </trkpt>
      <trkpt lat="45.0222" lon="6.12019">
        <ele>1662</ele>
        <time>2022-12-29T10:52:24Z</time>
      </trkpt>
      <trkpt lat="45.02219" lon="6.12019">
        <ele>1662</ele>
        <time>2022-12-29T10:52:25Z</time>
      </trkpt>
      <trkpt lat="45.02219" lon="6.12019">
        <ele>1663.4</ele>
        <time>2022-12-29T10:52:26Z</time>
      </trkpt>
      <trkpt lat="45.02215" lon="6.1202">
        <ele>1663.4</ele>
        <time>2022-12-29T10:52:27Z</time>
      </trkpt>
      <trkpt lat="45.02214" lon="6.1202">
        <ele>1663.4</ele>
        <time>2022-12-29T10:52:28Z</time>
      </trkpt>
      <trkpt lat="45.02214" lon="6.1202">
        <ele>1663.4</ele>
        <time>2022-12-29T10:52:29Z</time>
      </trkpt>
      <trkpt lat="45.02213" lon="6.1202">
        <ele>1663.4</ele>
        <time>2022-12-29T10:52:30Z</time>
      </trkpt>
      <trkpt lat="45.02212" lon="6.1202">
        <ele>1663.4</ele>
        <time>2022-12-29T10:52:31Z</time>
      </trkpt>
      <trkpt lat="45.02211" lon="6.12019">
        <ele>1663.4</ele>
        <time>2022-12-29T10:52:32Z</time>
      </trkpt>
      <trkpt lat="45.02211" lon="6.12019">
        <ele>1663.4</ele>
        <time>2022-12-29T10:52:33Z</time>
      </trkpt>
      <trkpt lat="45.0221" lon="6.12019">
        <ele>1663.4</ele>
        <time>2022-12-29T10:52:34Z</time>
      </trkpt>
      <trkpt lat="45.02209" lon="6.12019">
        <ele>1663.4</ele>
        <time>2022-12-29T10:52:35Z</time>
      </trkpt>
      <trkpt lat="45.02208" lon="6.12019">
        <ele>1665.6</ele>
        <time>2022-12-29T10:52:36Z</time>
      </trkpt>
      <trkpt lat="45.02208" lon="6.12017">
        <ele>1665.6</ele>
        <time>2022-12-29T10:52:37Z</time>
      </trkpt>
      <trkpt lat="45.02209" lon="6.12015">
        <ele>1665.6</ele>
        <time>2022-12-29T10:52:38Z</time>
      </trkpt>
      <trkpt lat="45.02209" lon="6.12014">
        <ele>1665.6</ele>
        <time>2022-12-29T10:52:39Z</time>
      </trkpt>
      <trkpt lat="45.0221" lon="6.12012">
        <ele>1665.6</ele>
        <time>2022-12-29T10:52:40Z</time>
      </trkpt>
      <trkpt lat="45.0221" lon="6.12011">
        <ele>1665.6</ele>
        <time>2022-12-29T10:52:41Z</time>
      </trkpt>
      <trkpt lat="45.0221" lon="6.12009">
        <ele>1665.6</ele>
        <time>2022-12-29T10:52:42Z</time>
      </trkpt>
      <trkpt lat="45.02211" lon="6.12008">
        <ele>1665.6</ele>
        <time>2022-12-29T10:52:43Z</time>
      </trkpt>
      <trkpt lat="45.02211" lon="6.12006">
        <ele>1665.6</ele>
        <time>2022-12-29T10:52:44Z</time>
      </trkpt>
      <trkpt lat="45.02212" lon="6.12005">
        <ele>1665.6</ele>
        <time>2022-12-29T10:52:45Z</time>
      </trkpt>
      <trkpt lat="45.02212" lon="6.12003">
        <ele>1667.4</ele>
        <time>2022-12-29T10:52:46Z</time>
      </trkpt>
      <trkpt lat="45.02214" lon="6.12">
        <ele>1667.4</ele>
        <time>2022-12-29T10:52:47Z</time>
      </trkpt>
      <trkpt lat="45.02214" lon="6.11999">
        <ele>1667.4</ele>
        <time>2022-12-29T10:52:48Z</time>
      </trkpt>
      <trkpt lat="45.02215" lon="6.11997">
        <ele>1667.4</ele>
        <time>2022-12-29T10:52:49Z</time>
      </trkpt>
      <trkpt lat="45.02216" lon="6.11996">
        <ele>1667.4</ele>
        <time>2022-12-29T10:52:50Z</time>
      </trkpt>
      <trkpt lat="45.02216" lon="6.11995">
        <ele>1667.4</ele>
        <time>2022-12-29T10:52:51Z</time>
      </trkpt>
      <trkpt lat="45.02217" lon="6.11993">
        <ele>1667.4</ele>
        <time>2022-12-29T10:52:52Z</time>
      </trkpt>
      <trkpt lat="45.02218" lon="6.11992">
        <ele>1667.4</ele>
        <time>2022-12-29T10:52:53Z</time>
      </trkpt>
      <trkpt lat="45.02218" lon="6.1199">
        <ele>1667.4</ele>
        <time>2022-12-29T10:52:54Z</time>
      </trkpt>
      <trkpt lat="45.02219" lon="6.11989">
        <ele>1667.4</ele>
        <time>2022-12-29T10:52:55Z</time>
      </trkpt>
      <trkpt lat="45.0222" lon="6.11988">
        <ele>1669.4</ele>
        <time>2022-12-29T10:52:56Z</time>
      </trkpt>
      <trkpt lat="45.02221" lon="6.11985">
        <ele>1669.4</ele>
        <time>2022-12-29T10:52:57Z</time>
      </trkpt>
      <trkpt lat="45.02222" lon="6.11984">
        <ele>1669.4</ele>
        <time>2022-12-29T10:52:58Z</time>
      </trkpt>
      <trkpt lat="45.02223" lon="6.11983">
        <ele>1669.4</ele>
        <time>2022-12-29T10:52:59Z</time>
      </trkpt>
      <trkpt lat="45.02223" lon="6.11982">
        <ele>1669.4</ele>
        <time>2022-12-29T10:53:00Z</time>
      </trkpt>
      <trkpt lat="45.02224" lon="6.11981">
        <ele>1669.4</ele>
        <time>2022-12-29T10:53:01Z</time>
      </trkpt>
      <trkpt lat="45.02225" lon="6.1198">
        <ele>1669.4</ele>
        <time>2022-12-29T10:53:02Z</time>
      </trkpt>
      <trkpt lat="45.02225" lon="6.11979">
        <ele>1669.4</ele>
        <time>2022-12-29T10:53:03Z</time>
      </trkpt>
      <trkpt lat="45.02226" lon="6.11977">
        <ele>1669.4</ele>
        <time>2022-12-29T10:53:04Z</time>
      </trkpt>
      <trkpt lat="45.02227" lon="6.11976">
        <ele>1669.4</ele>
        <time>2022-12-29T10:53:05Z</time>
      </trkpt>
      <trkpt lat="45.02227" lon="6.11975">
        <ele>1670.8</ele>
        <time>2022-12-29T10:53:06Z</time>
      </trkpt>
      <trkpt lat="45.02229" lon="6.11972">
        <ele>1670.8</ele>
        <time>2022-12-29T10:53:07Z</time>
      </trkpt>
      <trkpt lat="45.0223" lon="6.11971">
        <ele>1670.8</ele>
        <time>2022-12-29T10:53:08Z</time>
      </trkpt>
      <trkpt lat="45.02231" lon="6.1197">
        <ele>1670.8</ele>
        <time>2022-12-29T10:53:09Z</time>
      </trkpt>
      <trkpt lat="45.02232" lon="6.11969">
        <ele>1670.8</ele>
        <time>2022-12-29T10:53:10Z</time>
      </trkpt>
      <trkpt lat="45.02232" lon="6.11968">
        <ele>1670.8</ele>
        <time>2022-12-29T10:53:11Z</time>
      </trkpt>
      <trkpt lat="45.02233" lon="6.11966">
        <ele>1670.8</ele>
        <time>2022-12-29T10:53:12Z</time>
      </trkpt>
      <trkpt lat="45.02234" lon="6.11965">
        <ele>1670.8</ele>
        <time>2022-12-29T10:53:13Z</time>
      </trkpt>
      <trkpt lat="45.02235" lon="6.11964">
        <ele>1670.8</ele>
        <time>2022-12-29T10:53:14Z</time>
      </trkpt>
      <trkpt lat="45.02236" lon="6.11963">
        <ele>1670.8</ele>
        <time>2022-12-29T10:53:15Z</time>
      </trkpt>
      <trkpt lat="45.02237" lon="6.11962">
        <ele>1672.2</ele>
        <time>2022-12-29T10:53:16Z</time>
      </trkpt>
      <trkpt lat="45.02238" lon="6.1196">
        <ele>1672.2</ele>
        <time>2022-12-29T10:53:17Z</time>
      </trkpt>
      <trkpt lat="45.02239" lon="6.11959">
        <ele>1672.2</ele>
        <time>2022-12-29T10:53:18Z</time>
      </trkpt>
      <trkpt lat="45.0224" lon="6.11958">
        <ele>1672.2</ele>
        <time>2022-12-29T10:53:19Z</time>
      </trkpt>
      <trkpt lat="45.0224" lon="6.11958">
        <ele>1672.2</ele>
        <time>2022-12-29T10:53:20Z</time>
      </trkpt>
      <trkpt lat="45.02241" lon="6.11957">
        <ele>1672.2</ele>
        <time>2022-12-29T10:53:21Z</time>
      </trkpt>
      <trkpt lat="45.02242" lon="6.11956">
        <ele>1672.2</ele>
        <time>2022-12-29T10:53:22Z</time>
      </trkpt>
      <trkpt lat="45.02242" lon="6.11956">
        <ele>1672.2</ele>
        <time>2022-12-29T10:53:23Z</time>
      </trkpt>
      <trkpt lat="45.02243" lon="6.11955">
        <ele>1672.2</ele>
        <time>2022-12-29T10:53:24Z</time>
      </trkpt>
      <trkpt lat="45.02244" lon="6.11954">
        <ele>1672.2</ele>
        <time>2022-12-29T10:53:25Z</time>
      </trkpt>
      <trkpt lat="45.02245" lon="6.11953">
        <ele>1673.8</ele>
        <time>2022-12-29T10:53:26Z</time>
      </trkpt>
      <trkpt lat="45.02247" lon="6.11951">
        <ele>1673.8</ele>
        <time>2022-12-29T10:53:27Z</time>
      </trkpt>
      <trkpt lat="45.02248" lon="6.11951">
        <ele>1673.8</ele>
        <time>2022-12-29T10:53:28Z</time>
      </trkpt>
      <trkpt lat="45.02248" lon="6.1195">
        <ele>1673.8</ele>
        <time>2022-12-29T10:53:29Z</time>
      </trkpt>
      <trkpt lat="45.02249" lon="6.11949">
        <ele>1673.8</ele>
        <time>2022-12-29T10:53:30Z</time>
      </trkpt>
      <trkpt lat="45.0225" lon="6.11948">
        <ele>1673.8</ele>
        <time>2022-12-29T10:53:31Z</time>
      </trkpt>
      <trkpt lat="45.02251" lon="6.11947">
        <ele>1673.8</ele>
        <time>2022-12-29T10:53:32Z</time>
      </trkpt>
      <trkpt lat="45.02252" lon="6.11946">
        <ele>1673.8</ele>
        <time>2022-12-29T10:53:33Z</time>
      </trkpt>
      <trkpt lat="45.02253" lon="6.11945">
        <ele>1673.8</ele>
        <time>2022-12-29T10:53:34Z</time>
      </trkpt>
      <trkpt lat="45.02254" lon="6.11944">
        <ele>1673.8</ele>
        <time>2022-12-29T10:53:35Z</time>
      </trkpt>
      <trkpt lat="45.02255" lon="6.11943">
        <ele>1675</ele>
        <time>2022-12-29T10:53:36Z</time>
      </trkpt>
      <trkpt lat="45.02257" lon="6.11941">
        <ele>1675</ele>
        <time>2022-12-29T10:53:37Z</time>
      </trkpt>
      <trkpt lat="45.02257" lon="6.1194">
        <ele>1675</ele>
        <time>2022-12-29T10:53:38Z</time>
      </trkpt>
      <trkpt lat="45.02258" lon="6.1194">
        <ele>1675</ele>
        <time>2022-12-29T10:53:39Z</time>
      </trkpt>
      <trkpt lat="45.02259" lon="6.11939">
        <ele>1675</ele>
        <time>2022-12-29T10:53:40Z</time>
      </trkpt>
      <trkpt lat="45.0226" lon="6.11938">
        <ele>1675</ele>
        <time>2022-12-29T10:53:41Z</time>
      </trkpt>
      <trkpt lat="45.02261" lon="6.11937">
        <ele>1675</ele>
        <time>2022-12-29T10:53:42Z</time>
      </trkpt>
      <trkpt lat="45.02261" lon="6.11937">
        <ele>1675</ele>
        <time>2022-12-29T10:53:43Z</time>
      </trkpt>
      <trkpt lat="45.02262" lon="6.11936">
        <ele>1675</ele>
        <time>2022-12-29T10:53:44Z</time>
      </trkpt>
      <trkpt lat="45.02263" lon="6.11935">
        <ele>1675</ele>
        <time>2022-12-29T10:53:45Z</time>
      </trkpt>
      <trkpt lat="45.02264" lon="6.11935">
        <ele>1676.6</ele>
        <time>2022-12-29T10:53:46Z</time>
      </trkpt>
      <trkpt lat="45.02266" lon="6.11932">
        <ele>1676.6</ele>
        <time>2022-12-29T10:53:47Z</time>
      </trkpt>
      <trkpt lat="45.02267" lon="6.11931">
        <ele>1676.6</ele>
        <time>2022-12-29T10:53:48Z</time>
      </trkpt>
      <trkpt lat="45.02267" lon="6.1193">
        <ele>1676.6</ele>
        <time>2022-12-29T10:53:49Z</time>
      </trkpt>
      <trkpt lat="45.02268" lon="6.11929">
        <ele>1676.6</ele>
        <time>2022-12-29T10:53:50Z</time>
      </trkpt>
      <trkpt lat="45.02269" lon="6.11929">
        <ele>1676.6</ele>
        <time>2022-12-29T10:53:51Z</time>
      </trkpt>
      <trkpt lat="45.0227" lon="6.11928">
        <ele>1676.6</ele>
        <time>2022-12-29T10:53:52Z</time>
      </trkpt>
      <trkpt lat="45.0227" lon="6.11927">
        <ele>1676.6</ele>
        <time>2022-12-29T10:53:53Z</time>
      </trkpt>
      <trkpt lat="45.02271" lon="6.11926">
        <ele>1676.6</ele>
        <time>2022-12-29T10:53:54Z</time>
      </trkpt>
      <trkpt lat="45.02272" lon="6.11925">
        <ele>1676.6</ele>
        <time>2022-12-29T10:53:55Z</time>
      </trkpt>
      <trkpt lat="45.02273" lon="6.11925">
        <ele>1678.2</ele>
        <time>2022-12-29T10:53:56Z</time>
      </trkpt>
      <trkpt lat="45.02274" lon="6.11923">
        <ele>1678.2</ele>
        <time>2022-12-29T10:53:57Z</time>
      </trkpt>
      <trkpt lat="45.02275" lon="6.11922">
        <ele>1678.2</ele>
        <time>2022-12-29T10:53:58Z</time>
      </trkpt>
      <trkpt lat="45.02276" lon="6.11921">
        <ele>1678.2</ele>
        <time>2022-12-29T10:53:59Z</time>
      </trkpt>
      <trkpt lat="45.02277" lon="6.1192">
        <ele>1678.2</ele>
        <time>2022-12-29T10:54:00Z</time>
      </trkpt>
      <trkpt lat="45.02277" lon="6.11919">
        <ele>1678.2</ele>
        <time>2022-12-29T10:54:01Z</time>
      </trkpt>
      <trkpt lat="45.02278" lon="6.11919">
        <ele>1678.2</ele>
        <time>2022-12-29T10:54:02Z</time>
      </trkpt>
      <trkpt lat="45.02279" lon="6.11918">
        <ele>1678.2</ele>
        <time>2022-12-29T10:54:03Z</time>
      </trkpt>
      <trkpt lat="45.0228" lon="6.11917">
        <ele>1678.2</ele>
        <time>2022-12-29T10:54:04Z</time>
      </trkpt>
      <trkpt lat="45.02281" lon="6.11916">
        <ele>1678.2</ele>
        <time>2022-12-29T10:54:05Z</time>
      </trkpt>
      <trkpt lat="45.02281" lon="6.11916">
        <ele>1679.2</ele>
        <time>2022-12-29T10:54:06Z</time>
      </trkpt>
      <trkpt lat="45.02283" lon="6.11914">
        <ele>1679.2</ele>
        <time>2022-12-29T10:54:07Z</time>
      </trkpt>
      <trkpt lat="45.02284" lon="6.11913">
        <ele>1679.2</ele>
        <time>2022-12-29T10:54:08Z</time>
      </trkpt>
      <trkpt lat="45.02285" lon="6.11912">
        <ele>1679.2</ele>
        <time>2022-12-29T10:54:09Z</time>
      </trkpt>
      <trkpt lat="45.02286" lon="6.11912">
        <ele>1679.2</ele>
        <time>2022-12-29T10:54:10Z</time>
      </trkpt>
      <trkpt lat="45.02286" lon="6.11911">
        <ele>1679.2</ele>
        <time>2022-12-29T10:54:11Z</time>
      </trkpt>
      <trkpt lat="45.02287" lon="6.1191">
        <ele>1679.2</ele>
        <time>2022-12-29T10:54:12Z</time>
      </trkpt>
      <trkpt lat="45.02288" lon="6.1191">
        <ele>1679.2</ele>
        <time>2022-12-29T10:54:13Z</time>
      </trkpt>
      <trkpt lat="45.02289" lon="6.11909">
        <ele>1679.2</ele>
        <time>2022-12-29T10:54:14Z</time>
      </trkpt>
      <trkpt lat="45.0229" lon="6.11908">
        <ele>1679.2</ele>
        <time>2022-12-29T10:54:15Z</time>
      </trkpt>
      <trkpt lat="45.02291" lon="6.11907">
        <ele>1680.2</ele>
        <time>2022-12-29T10:54:16Z</time>
      </trkpt>
      <trkpt lat="45.02292" lon="6.11906">
        <ele>1680.2</ele>
        <time>2022-12-29T10:54:17Z</time>
      </trkpt>
      <trkpt lat="45.02292" lon="6.11905">
        <ele>1680.2</ele>
        <time>2022-12-29T10:54:18Z</time>
      </trkpt>
      <trkpt lat="45.02293" lon="6.11904">
        <ele>1680.2</ele>
        <time>2022-12-29T10:54:19Z</time>
      </trkpt>
      <trkpt lat="45.02293" lon="6.11903">
        <ele>1680.2</ele>
        <time>2022-12-29T10:54:20Z</time>
      </trkpt>
      <trkpt lat="45.02294" lon="6.11902">
        <ele>1680.2</ele>
        <time>2022-12-29T10:54:21Z</time>
      </trkpt>
      <trkpt lat="45.02294" lon="6.11901">
        <ele>1680.2</ele>
        <time>2022-12-29T10:54:22Z</time>
      </trkpt>
      <trkpt lat="45.02294" lon="6.119">
        <ele>1680.2</ele>
        <time>2022-12-29T10:54:23Z</time>
      </trkpt>
      <trkpt lat="45.02295" lon="6.11899">
        <ele>1680.2</ele>
        <time>2022-12-29T10:54:24Z</time>
      </trkpt>
      <trkpt lat="45.02295" lon="6.11898">
        <ele>1680.2</ele>
        <time>2022-12-29T10:54:25Z</time>
      </trkpt>
      <trkpt lat="45.02296" lon="6.11897">
        <ele>1682.2</ele>
        <time>2022-12-29T10:54:26Z</time>
      </trkpt>
      <trkpt lat="45.02295" lon="6.11895">
        <ele>1682.2</ele>
        <time>2022-12-29T10:54:27Z</time>
      </trkpt>
      <trkpt lat="45.02294" lon="6.11894">
        <ele>1682.2</ele>
        <time>2022-12-29T10:54:28Z</time>
      </trkpt>
      <trkpt lat="45.02294" lon="6.11893">
        <ele>1682.2</ele>
        <time>2022-12-29T10:54:29Z</time>
      </trkpt>
      <trkpt lat="45.02293" lon="6.11893">
        <ele>1682.2</ele>
        <time>2022-12-29T10:54:30Z</time>
      </trkpt>
      <trkpt lat="45.02292" lon="6.11892">
        <ele>1682.2</ele>
        <time>2022-12-29T10:54:31Z</time>
      </trkpt>
      <trkpt lat="45.02292" lon="6.11891">
        <ele>1682.2</ele>
        <time>2022-12-29T10:54:32Z</time>
      </trkpt>
      <trkpt lat="45.02291" lon="6.11891">
        <ele>1682.2</ele>
        <time>2022-12-29T10:54:33Z</time>
      </trkpt>
      <trkpt lat="45.0229" lon="6.1189">
        <ele>1682.2</ele>
        <time>2022-12-29T10:54:34Z</time>
      </trkpt>
      <trkpt lat="45.0229" lon="6.1189">
        <ele>1682.2</ele>
        <time>2022-12-29T10:54:35Z</time>
      </trkpt>
      <trkpt lat="45.02289" lon="6.11889">
        <ele>1683.8</ele>
        <time>2022-12-29T10:54:36Z</time>
      </trkpt>
      <trkpt lat="45.02287" lon="6.11891">
        <ele>1683.8</ele>
        <time>2022-12-29T10:54:37Z</time>
      </trkpt>
      <trkpt lat="45.02286" lon="6.11892">
        <ele>1683.8</ele>
        <time>2022-12-29T10:54:38Z</time>
      </trkpt>
      <trkpt lat="45.02286" lon="6.11892">
        <ele>1683.8</ele>
        <time>2022-12-29T10:54:39Z</time>
      </trkpt>
      <trkpt lat="45.02285" lon="6.11893">
        <ele>1683.8</ele>
        <time>2022-12-29T10:54:40Z</time>
      </trkpt>
      <trkpt lat="45.02285" lon="6.11894">
        <ele>1683.8</ele>
        <time>2022-12-29T10:54:41Z</time>
      </trkpt>
      <trkpt lat="45.02284" lon="6.11895">
        <ele>1683.8</ele>
        <time>2022-12-29T10:54:42Z</time>
      </trkpt>
      <trkpt lat="45.02284" lon="6.11896">
        <ele>1683.8</ele>
        <time>2022-12-29T10:54:43Z</time>
      </trkpt>
      <trkpt lat="45.02283" lon="6.11896">
        <ele>1683.8</ele>
        <time>2022-12-29T10:54:44Z</time>
      </trkpt>
      <trkpt lat="45.02283" lon="6.11897">
        <ele>1683.8</ele>
        <time>2022-12-29T10:54:45Z</time>
      </trkpt>
      <trkpt lat="45.02282" lon="6.11898">
        <ele>1685</ele>
        <time>2022-12-29T10:54:46Z</time>
      </trkpt>
      <trkpt lat="45.02281" lon="6.11899">
        <ele>1685</ele>
        <time>2022-12-29T10:54:47Z</time>
      </trkpt>
      <trkpt lat="45.0228" lon="6.11899">
        <ele>1685</ele>
        <time>2022-12-29T10:54:48Z</time>
      </trkpt>
      <trkpt lat="45.02279" lon="6.119">
        <ele>1685</ele>
        <time>2022-12-29T10:54:49Z</time>
      </trkpt>
      <trkpt lat="45.02278" lon="6.11901">
        <ele>1685</ele>
        <time>2022-12-29T10:54:50Z</time>
      </trkpt>
      <trkpt lat="45.02277" lon="6.11902">
        <ele>1685</ele>
        <time>2022-12-29T10:54:51Z</time>
      </trkpt>
      <trkpt lat="45.02276" lon="6.11903">
        <ele>1685</ele>
        <time>2022-12-29T10:54:52Z</time>
      </trkpt>
      <trkpt lat="45.02275" lon="6.11903">
        <ele>1685</ele>
        <time>2022-12-29T10:54:53Z</time>
      </trkpt>
      <trkpt lat="45.02274" lon="6.11904">
        <ele>1685</ele>
        <time>2022-12-29T10:54:54Z</time>
      </trkpt>
      <trkpt lat="45.02273" lon="6.11905">
        <ele>1685</ele>
        <time>2022-12-29T10:54:55Z</time>
      </trkpt>
      <trkpt lat="45.02272" lon="6.11906">
        <ele>1685.4</ele>
        <time>2022-12-29T10:54:56Z</time>
      </trkpt>
      <trkpt lat="45.02269" lon="6.11907">
        <ele>1685.4</ele>
        <time>2022-12-29T10:54:57Z</time>
      </trkpt>
      <trkpt lat="45.02268" lon="6.11908">
        <ele>1685.4</ele>
        <time>2022-12-29T10:54:58Z</time>
      </trkpt>
      <trkpt lat="45.02267" lon="6.11908">
        <ele>1685.4</ele>
        <time>2022-12-29T10:54:59Z</time>
      </trkpt>
      <trkpt lat="45.02266" lon="6.11909">
        <ele>1685.4</ele>
        <time>2022-12-29T10:55:00Z</time>
      </trkpt>
      <trkpt lat="45.02265" lon="6.11909">
        <ele>1685.4</ele>
        <time>2022-12-29T10:55:01Z</time>
      </trkpt>
      <trkpt lat="45.02264" lon="6.1191">
        <ele>1685.4</ele>
        <time>2022-12-29T10:55:02Z</time>
      </trkpt>
      <trkpt lat="45.02263" lon="6.1191">
        <ele>1685.4</ele>
        <time>2022-12-29T10:55:03Z</time>
      </trkpt>
      <trkpt lat="45.02262" lon="6.1191">
        <ele>1685.4</ele>
        <time>2022-12-29T10:55:04Z</time>
      </trkpt>
      <trkpt lat="45.02261" lon="6.11911">
        <ele>1685.4</ele>
        <time>2022-12-29T10:55:05Z</time>
      </trkpt>
      <trkpt lat="45.02259" lon="6.11911">
        <ele>1686.6</ele>
        <time>2022-12-29T10:55:06Z</time>
      </trkpt>
      <trkpt lat="45.02257" lon="6.11912">
        <ele>1686.6</ele>
        <time>2022-12-29T10:55:07Z</time>
      </trkpt>
      <trkpt lat="45.02257" lon="6.11912">
        <ele>1686.6</ele>
        <time>2022-12-29T10:55:08Z</time>
      </trkpt>
      <trkpt lat="45.02256" lon="6.11912">
        <ele>1686.6</ele>
        <time>2022-12-29T10:55:09Z</time>
      </trkpt>
      <trkpt lat="45.02255" lon="6.11912">
        <ele>1686.6</ele>
        <time>2022-12-29T10:55:10Z</time>
      </trkpt>
      <trkpt lat="45.02254" lon="6.11912">
        <ele>1686.6</ele>
        <time>2022-12-29T10:55:11Z</time>
      </trkpt>
      <trkpt lat="45.02253" lon="6.11912">
        <ele>1686.6</ele>
        <time>2022-12-29T10:55:12Z</time>
      </trkpt>
      <trkpt lat="45.02252" lon="6.11912">
        <ele>1686.6</ele>
        <time>2022-12-29T10:55:13Z</time>
      </trkpt>
      <trkpt lat="45.02251" lon="6.11912">
        <ele>1686.6</ele>
        <time>2022-12-29T10:55:14Z</time>
      </trkpt>
      <trkpt lat="45.0225" lon="6.11912">
        <ele>1686.6</ele>
        <time>2022-12-29T10:55:15Z</time>
      </trkpt>
      <trkpt lat="45.02249" lon="6.11913">
        <ele>1687.4</ele>
        <time>2022-12-29T10:55:16Z</time>
      </trkpt>
      <trkpt lat="45.02246" lon="6.11913">
        <ele>1687.4</ele>
        <time>2022-12-29T10:55:17Z</time>
      </trkpt>
      <trkpt lat="45.02245" lon="6.11913">
        <ele>1687.4</ele>
        <time>2022-12-29T10:55:18Z</time>
      </trkpt>
      <trkpt lat="45.02244" lon="6.11913">
        <ele>1687.4</ele>
        <time>2022-12-29T10:55:19Z</time>
      </trkpt>
      <trkpt lat="45.02243" lon="6.11913">
        <ele>1687.4</ele>
        <time>2022-12-29T10:55:20Z</time>
      </trkpt>
      <trkpt lat="45.02242" lon="6.11913">
        <ele>1687.4</ele>
        <time>2022-12-29T10:55:21Z</time>
      </trkpt>
      <trkpt lat="45.02241" lon="6.11913">
        <ele>1687.4</ele>
        <time>2022-12-29T10:55:22Z</time>
      </trkpt>
      <trkpt lat="45.0224" lon="6.11913">
        <ele>1687.4</ele>
        <time>2022-12-29T10:55:23Z</time>
      </trkpt>
      <trkpt lat="45.02238" lon="6.11913">
        <ele>1687.4</ele>
        <time>2022-12-29T10:55:24Z</time>
      </trkpt>
      <trkpt lat="45.02237" lon="6.11913">
        <ele>1687.4</ele>
        <time>2022-12-29T10:55:25Z</time>
      </trkpt>
      <trkpt lat="45.02236" lon="6.11913">
        <ele>1688.6</ele>
        <time>2022-12-29T10:55:26Z</time>
      </trkpt>
      <trkpt lat="45.02234" lon="6.11913">
        <ele>1688.6</ele>
        <time>2022-12-29T10:55:27Z</time>
      </trkpt>
      <trkpt lat="45.02233" lon="6.11913">
        <ele>1688.6</ele>
        <time>2022-12-29T10:55:28Z</time>
      </trkpt>
      <trkpt lat="45.02232" lon="6.11913">
        <ele>1688.6</ele>
        <time>2022-12-29T10:55:29Z</time>
      </trkpt>
      <trkpt lat="45.0223" lon="6.11914">
        <ele>1688.6</ele>
        <time>2022-12-29T10:55:30Z</time>
      </trkpt>
      <trkpt lat="45.02229" lon="6.11914">
        <ele>1688.6</ele>
        <time>2022-12-29T10:55:31Z</time>
      </trkpt>
      <trkpt lat="45.02228" lon="6.11914">
        <ele>1688.6</ele>
        <time>2022-12-29T10:55:32Z</time>
      </trkpt>
      <trkpt lat="45.02227" lon="6.11914">
        <ele>1688.6</ele>
        <time>2022-12-29T10:55:33Z</time>
      </trkpt>
      <trkpt lat="45.02226" lon="6.11914">
        <ele>1688.6</ele>
        <time>2022-12-29T10:55:34Z</time>
      </trkpt>
      <trkpt lat="45.02225" lon="6.11914">
        <ele>1688.6</ele>
        <time>2022-12-29T10:55:35Z</time>
      </trkpt>
      <trkpt lat="45.02224" lon="6.11914">
        <ele>1689.4</ele>
        <time>2022-12-29T10:55:36Z</time>
      </trkpt>
      <trkpt lat="45.02221" lon="6.11914">
        <ele>1689.4</ele>
        <time>2022-12-29T10:55:37Z</time>
      </trkpt>
      <trkpt lat="45.02221" lon="6.11915">
        <ele>1689.4</ele>
        <time>2022-12-29T10:55:38Z</time>
      </trkpt>
      <trkpt lat="45.0222" lon="6.11915">
        <ele>1689.4</ele>
        <time>2022-12-29T10:55:39Z</time>
      </trkpt>
      <trkpt lat="45.02219" lon="6.11915">
        <ele>1689.4</ele>
        <time>2022-12-29T10:55:40Z</time>
      </trkpt>
      <trkpt lat="45.02219" lon="6.11915">
        <ele>1689.4</ele>
        <time>2022-12-29T10:55:41Z</time>
      </trkpt>
      <trkpt lat="45.02218" lon="6.11915">
        <ele>1689.4</ele>
        <time>2022-12-29T10:55:42Z</time>
      </trkpt>
      <trkpt lat="45.02217" lon="6.11915">
        <ele>1689.4</ele>
        <time>2022-12-29T10:55:43Z</time>
      </trkpt>
      <trkpt lat="45.02216" lon="6.11915">
        <ele>1689.4</ele>
        <time>2022-12-29T10:55:44Z</time>
      </trkpt>
      <trkpt lat="45.02216" lon="6.11916">
        <ele>1689.4</ele>
        <time>2022-12-29T10:55:45Z</time>
      </trkpt>
      <trkpt lat="45.02215" lon="6.11916">
        <ele>1691</ele>
        <time>2022-12-29T10:55:46Z</time>
      </trkpt>
      <trkpt lat="45.02213" lon="6.11916">
        <ele>1691</ele>
        <time>2022-12-29T10:55:47Z</time>
      </trkpt>
      <trkpt lat="45.02212" lon="6.11916">
        <ele>1691</ele>
        <time>2022-12-29T10:55:48Z</time>
      </trkpt>
      <trkpt lat="45.02212" lon="6.11916">
        <ele>1691</ele>
        <time>2022-12-29T10:55:49Z</time>
      </trkpt>
      <trkpt lat="45.02211" lon="6.11917">
        <ele>1691</ele>
        <time>2022-12-29T10:55:50Z</time>
      </trkpt>
      <trkpt lat="45.0221" lon="6.11917">
        <ele>1691</ele>
        <time>2022-12-29T10:55:51Z</time>
      </trkpt>
      <trkpt lat="45.0221" lon="6.11917">
        <ele>1691</ele>
        <time>2022-12-29T10:55:52Z</time>
      </trkpt>
      <trkpt lat="45.02209" lon="6.11917">
        <ele>1691</ele>
        <time>2022-12-29T10:55:53Z</time>
      </trkpt>
      <trkpt lat="45.02208" lon="6.11917">
        <ele>1691</ele>
        <time>2022-12-29T10:55:54Z</time>
      </trkpt>
      <trkpt lat="45.02208" lon="6.11917">
        <ele>1691</ele>
        <time>2022-12-29T10:55:55Z</time>
      </trkpt>
      <trkpt lat="45.02207" lon="6.11917">
        <ele>1691.8</ele>
        <time>2022-12-29T10:55:56Z</time>
      </trkpt>
      <trkpt lat="45.02203" lon="6.11919">
        <ele>1691.8</ele>
        <time>2022-12-29T10:55:57Z</time>
      </trkpt>
      <trkpt lat="45.02202" lon="6.11919">
        <ele>1691.8</ele>
        <time>2022-12-29T10:55:58Z</time>
      </trkpt>
      <trkpt lat="45.02201" lon="6.1192">
        <ele>1691.8</ele>
        <time>2022-12-29T10:55:59Z</time>
      </trkpt>
      <trkpt lat="45.022" lon="6.1192">
        <ele>1691.8</ele>
        <time>2022-12-29T10:56:00Z</time>
      </trkpt>
      <trkpt lat="45.02198" lon="6.1192">
        <ele>1691.8</ele>
        <time>2022-12-29T10:56:01Z</time>
      </trkpt>
      <trkpt lat="45.02197" lon="6.11921">
        <ele>1691.8</ele>
        <time>2022-12-29T10:56:02Z</time>
      </trkpt>
      <trkpt lat="45.02196" lon="6.11921">
        <ele>1691.8</ele>
        <time>2022-12-29T10:56:03Z</time>
      </trkpt>
      <trkpt lat="45.02195" lon="6.11922">
        <ele>1691.8</ele>
        <time>2022-12-29T10:56:04Z</time>
      </trkpt>
      <trkpt lat="45.02194" lon="6.11922">
        <ele>1691.8</ele>
        <time>2022-12-29T10:56:05Z</time>
      </trkpt>
      <trkpt lat="45.02192" lon="6.11923">
        <ele>1693.6</ele>
        <time>2022-12-29T10:56:06Z</time>
      </trkpt>
      <trkpt lat="45.0219" lon="6.11923">
        <ele>1693.6</ele>
        <time>2022-12-29T10:56:07Z</time>
      </trkpt>
      <trkpt lat="45.0219" lon="6.11923">
        <ele>1693.6</ele>
        <time>2022-12-29T10:56:08Z</time>
      </trkpt>
      <trkpt lat="45.02189" lon="6.11923">
        <ele>1693.6</ele>
        <time>2022-12-29T10:56:09Z</time>
      </trkpt>
      <trkpt lat="45.02188" lon="6.11923">
        <ele>1693.6</ele>
        <time>2022-12-29T10:56:10Z</time>
      </trkpt>
      <trkpt lat="45.02188" lon="6.11924">
        <ele>1693.6</ele>
        <time>2022-12-29T10:56:11Z</time>
      </trkpt>
      <trkpt lat="45.02187" lon="6.11924">
        <ele>1693.6</ele>
        <time>2022-12-29T10:56:12Z</time>
      </trkpt>
      <trkpt lat="45.02186" lon="6.11924">
        <ele>1693.6</ele>
        <time>2022-12-29T10:56:13Z</time>
      </trkpt>
      <trkpt lat="45.02185" lon="6.11924">
        <ele>1693.6</ele>
        <time>2022-12-29T10:56:14Z</time>
      </trkpt>
      <trkpt lat="45.02185" lon="6.11924">
        <ele>1693.6</ele>
        <time>2022-12-29T10:56:15Z</time>
      </trkpt>
      <trkpt lat="45.02184" lon="6.11925">
        <ele>1695</ele>
        <time>2022-12-29T10:56:16Z</time>
      </trkpt>
      <trkpt lat="45.0218" lon="6.11926">
        <ele>1695</ele>
        <time>2022-12-29T10:56:17Z</time>
      </trkpt>
      <trkpt lat="45.0218" lon="6.11926">
        <ele>1695</ele>
        <time>2022-12-29T10:56:18Z</time>
      </trkpt>
      <trkpt lat="45.02179" lon="6.11927">
        <ele>1695</ele>
        <time>2022-12-29T10:56:19Z</time>
      </trkpt>
      <trkpt lat="45.02178" lon="6.11927">
        <ele>1695</ele>
        <time>2022-12-29T10:56:20Z</time>
      </trkpt>
      <trkpt lat="45.02177" lon="6.11927">
        <ele>1695</ele>
        <time>2022-12-29T10:56:21Z</time>
      </trkpt>
      <trkpt lat="45.02176" lon="6.11927">
        <ele>1695</ele>
        <time>2022-12-29T10:56:22Z</time>
      </trkpt>
      <trkpt lat="45.02176" lon="6.11928">
        <ele>1695</ele>
        <time>2022-12-29T10:56:23Z</time>
      </trkpt>
      <trkpt lat="45.02175" lon="6.11928">
        <ele>1695</ele>
        <time>2022-12-29T10:56:24Z</time>
      </trkpt>
      <trkpt lat="45.02174" lon="6.11928">
        <ele>1695</ele>
        <time>2022-12-29T10:56:25Z</time>
      </trkpt>
      <trkpt lat="45.02173" lon="6.11929">
        <ele>1696.6</ele>
        <time>2022-12-29T10:56:26Z</time>
      </trkpt>
      <trkpt lat="45.02171" lon="6.11929">
        <ele>1696.6</ele>
        <time>2022-12-29T10:56:27Z</time>
      </trkpt>
      <trkpt lat="45.0217" lon="6.1193">
        <ele>1696.6</ele>
        <time>2022-12-29T10:56:28Z</time>
      </trkpt>
      <trkpt lat="45.02169" lon="6.1193">
        <ele>1696.6</ele>
        <time>2022-12-29T10:56:29Z</time>
      </trkpt>
      <trkpt lat="45.02168" lon="6.1193">
        <ele>1696.6</ele>
        <time>2022-12-29T10:56:30Z</time>
      </trkpt>
      <trkpt lat="45.02167" lon="6.11931">
        <ele>1696.6</ele>
        <time>2022-12-29T10:56:31Z</time>
      </trkpt>
      <trkpt lat="45.02166" lon="6.11931">
        <ele>1696.6</ele>
        <time>2022-12-29T10:56:32Z</time>
      </trkpt>
      <trkpt lat="45.02165" lon="6.11932">
        <ele>1696.6</ele>
        <time>2022-12-29T10:56:33Z</time>
      </trkpt>
      <trkpt lat="45.02164" lon="6.11932">
        <ele>1696.6</ele>
        <time>2022-12-29T10:56:34Z</time>
      </trkpt>
      <trkpt lat="45.02163" lon="6.11932">
        <ele>1696.6</ele>
        <time>2022-12-29T10:56:35Z</time>
      </trkpt>
      <trkpt lat="45.02162" lon="6.11933">
        <ele>1698.6</ele>
        <time>2022-12-29T10:56:36Z</time>
      </trkpt>
      <trkpt lat="45.02159" lon="6.11933">
        <ele>1698.6</ele>
        <time>2022-12-29T10:56:37Z</time>
      </trkpt>
      <trkpt lat="45.02158" lon="6.11934">
        <ele>1698.6</ele>
        <time>2022-12-29T10:56:38Z</time>
      </trkpt>
      <trkpt lat="45.02157" lon="6.11934">
        <ele>1698.6</ele>
        <time>2022-12-29T10:56:39Z</time>
      </trkpt>
      <trkpt lat="45.02157" lon="6.11935">
        <ele>1698.6</ele>
        <time>2022-12-29T10:56:40Z</time>
      </trkpt>
      <trkpt lat="45.02156" lon="6.11935">
        <ele>1698.6</ele>
        <time>2022-12-29T10:56:41Z</time>
      </trkpt>
      <trkpt lat="45.02155" lon="6.11936">
        <ele>1698.6</ele>
        <time>2022-12-29T10:56:42Z</time>
      </trkpt>
      <trkpt lat="45.02154" lon="6.11936">
        <ele>1698.6</ele>
        <time>2022-12-29T10:56:43Z</time>
      </trkpt>
      <trkpt lat="45.02153" lon="6.11936">
        <ele>1698.6</ele>
        <time>2022-12-29T10:56:44Z</time>
      </trkpt>
      <trkpt lat="45.02152" lon="6.11937">
        <ele>1698.6</ele>
        <time>2022-12-29T10:56:45Z</time>
      </trkpt>
      <trkpt lat="45.02151" lon="6.11937">
        <ele>1699.8</ele>
        <time>2022-12-29T10:56:46Z</time>
      </trkpt>
      <trkpt lat="45.0215" lon="6.11938">
        <ele>1699.8</ele>
        <time>2022-12-29T10:56:47Z</time>
      </trkpt>
      <trkpt lat="45.02149" lon="6.11938">
        <ele>1699.8</ele>
        <time>2022-12-29T10:56:48Z</time>
      </trkpt>
      <trkpt lat="45.02149" lon="6.11938">
        <ele>1699.8</ele>
        <time>2022-12-29T10:56:49Z</time>
      </trkpt>
      <trkpt lat="45.02148" lon="6.11938">
        <ele>1699.8</ele>
        <time>2022-12-29T10:56:50Z</time>
      </trkpt>
      <trkpt lat="45.02148" lon="6.11939">
        <ele>1699.8</ele>
        <time>2022-12-29T10:56:51Z</time>
      </trkpt>
      <trkpt lat="45.02147" lon="6.11939">
        <ele>1699.8</ele>
        <time>2022-12-29T10:56:52Z</time>
      </trkpt>
      <trkpt lat="45.02146" lon="6.11939">
        <ele>1699.8</ele>
        <time>2022-12-29T10:56:53Z</time>
      </trkpt>
      <trkpt lat="45.02146" lon="6.1194">
        <ele>1699.8</ele>
        <time>2022-12-29T10:56:54Z</time>
      </trkpt>
      <trkpt lat="45.02145" lon="6.1194">
        <ele>1699.8</ele>
        <time>2022-12-29T10:56:55Z</time>
      </trkpt>
      <trkpt lat="45.02144" lon="6.1194">
        <ele>1701</ele>
        <time>2022-12-29T10:56:56Z</time>
      </trkpt>
      <trkpt lat="45.02142" lon="6.11942">
        <ele>1701</ele>
        <time>2022-12-29T10:56:57Z</time>
      </trkpt>
      <trkpt lat="45.02141" lon="6.11942">
        <ele>1701</ele>
        <time>2022-12-29T10:56:58Z</time>
      </trkpt>
      <trkpt lat="45.0214" lon="6.11942">
        <ele>1701</ele>
        <time>2022-12-29T10:56:59Z</time>
      </trkpt>
      <trkpt lat="45.02139" lon="6.11942">
        <ele>1701</ele>
        <time>2022-12-29T10:57:00Z</time>
      </trkpt>
      <trkpt lat="45.02138" lon="6.11942">
        <ele>1701</ele>
        <time>2022-12-29T10:57:01Z</time>
      </trkpt>
      <trkpt lat="45.02137" lon="6.11942">
        <ele>1701</ele>
        <time>2022-12-29T10:57:02Z</time>
      </trkpt>
      <trkpt lat="45.02136" lon="6.11942">
        <ele>1701</ele>
        <time>2022-12-29T10:57:03Z</time>
      </trkpt>
      <trkpt lat="45.02136" lon="6.11942">
        <ele>1701</ele>
        <time>2022-12-29T10:57:04Z</time>
      </trkpt>
      <trkpt lat="45.02135" lon="6.11942">
        <ele>1701</ele>
        <time>2022-12-29T10:57:05Z</time>
      </trkpt>
      <trkpt lat="45.02134" lon="6.11942">
        <ele>1702.2</ele>
        <time>2022-12-29T10:57:06Z</time>
      </trkpt>
      <trkpt lat="45.02132" lon="6.11943">
        <ele>1702.2</ele>
        <time>2022-12-29T10:57:07Z</time>
      </trkpt>
      <trkpt lat="45.02131" lon="6.11943">
        <ele>1702.2</ele>
        <time>2022-12-29T10:57:08Z</time>
      </trkpt>
      <trkpt lat="45.0213" lon="6.11943">
        <ele>1702.2</ele>
        <time>2022-12-29T10:57:09Z</time>
      </trkpt>
      <trkpt lat="45.02129" lon="6.11944">
        <ele>1702.2</ele>
        <time>2022-12-29T10:57:10Z</time>
      </trkpt>
      <trkpt lat="45.02127" lon="6.11944">
        <ele>1702.2</ele>
        <time>2022-12-29T10:57:11Z</time>
      </trkpt>
      <trkpt lat="45.02126" lon="6.11944">
        <ele>1702.2</ele>
        <time>2022-12-29T10:57:12Z</time>
      </trkpt>
      <trkpt lat="45.02125" lon="6.11944">
        <ele>1702.2</ele>
        <time>2022-12-29T10:57:13Z</time>
      </trkpt>
      <trkpt lat="45.02124" lon="6.11945">
        <ele>1702.2</ele>
        <time>2022-12-29T10:57:14Z</time>
      </trkpt>
      <trkpt lat="45.02123" lon="6.11945">
        <ele>1702.2</ele>
        <time>2022-12-29T10:57:15Z</time>
      </trkpt>
      <trkpt lat="45.02122" lon="6.11945">
        <ele>1703.8</ele>
        <time>2022-12-29T10:57:16Z</time>
      </trkpt>
      <trkpt lat="45.0212" lon="6.11946">
        <ele>1703.8</ele>
        <time>2022-12-29T10:57:17Z</time>
      </trkpt>
      <trkpt lat="45.02119" lon="6.11946">
        <ele>1703.8</ele>
        <time>2022-12-29T10:57:18Z</time>
      </trkpt>
      <trkpt lat="45.02118" lon="6.11946">
        <ele>1703.8</ele>
        <time>2022-12-29T10:57:19Z</time>
      </trkpt>
      <trkpt lat="45.02117" lon="6.11946">
        <ele>1703.8</ele>
        <time>2022-12-29T10:57:20Z</time>
      </trkpt>
      <trkpt lat="45.02116" lon="6.11946">
        <ele>1703.8</ele>
        <time>2022-12-29T10:57:21Z</time>
      </trkpt>
      <trkpt lat="45.02115" lon="6.11946">
        <ele>1703.8</ele>
        <time>2022-12-29T10:57:22Z</time>
      </trkpt>
      <trkpt lat="45.02114" lon="6.11947">
        <ele>1703.8</ele>
        <time>2022-12-29T10:57:23Z</time>
      </trkpt>
      <trkpt lat="45.02113" lon="6.11947">
        <ele>1703.8</ele>
        <time>2022-12-29T10:57:24Z</time>
      </trkpt>
      <trkpt lat="45.02112" lon="6.11947">
        <ele>1703.8</ele>
        <time>2022-12-29T10:57:25Z</time>
      </trkpt>
      <trkpt lat="45.02111" lon="6.11947">
        <ele>1704.8</ele>
        <time>2022-12-29T10:57:26Z</time>
      </trkpt>
      <trkpt lat="45.02109" lon="6.11947">
        <ele>1704.8</ele>
        <time>2022-12-29T10:57:27Z</time>
      </trkpt>
      <trkpt lat="45.02108" lon="6.11947">
        <ele>1704.8</ele>
        <time>2022-12-29T10:57:28Z</time>
      </trkpt>
      <trkpt lat="45.02108" lon="6.11948">
        <ele>1704.8</ele>
        <time>2022-12-29T10:57:29Z</time>
      </trkpt>
      <trkpt lat="45.02107" lon="6.11948">
        <ele>1704.8</ele>
        <time>2022-12-29T10:57:30Z</time>
      </trkpt>
      <trkpt lat="45.02106" lon="6.11948">
        <ele>1704.8</ele>
        <time>2022-12-29T10:57:31Z</time>
      </trkpt>
      <trkpt lat="45.02105" lon="6.11948">
        <ele>1704.8</ele>
        <time>2022-12-29T10:57:32Z</time>
      </trkpt>
      <trkpt lat="45.02105" lon="6.11948">
        <ele>1704.8</ele>
        <time>2022-12-29T10:57:33Z</time>
      </trkpt>
      <trkpt lat="45.02104" lon="6.11948">
        <ele>1704.8</ele>
        <time>2022-12-29T10:57:34Z</time>
      </trkpt>
      <trkpt lat="45.02103" lon="6.11948">
        <ele>1704.8</ele>
        <time>2022-12-29T10:57:35Z</time>
      </trkpt>
      <trkpt lat="45.02102" lon="6.11948">
        <ele>1706.2</ele>
        <time>2022-12-29T10:57:36Z</time>
      </trkpt>
      <trkpt lat="45.02101" lon="6.11949">
        <ele>1706.2</ele>
        <time>2022-12-29T10:57:37Z</time>
      </trkpt>
      <trkpt lat="45.021" lon="6.11949">
        <ele>1706.2</ele>
        <time>2022-12-29T10:57:38Z</time>
      </trkpt>
      <trkpt lat="45.02099" lon="6.1195">
        <ele>1706.2</ele>
        <time>2022-12-29T10:57:39Z</time>
      </trkpt>
      <trkpt lat="45.02098" lon="6.1195">
        <ele>1706.2</ele>
        <time>2022-12-29T10:57:40Z</time>
      </trkpt>
      <trkpt lat="45.02097" lon="6.1195">
        <ele>1706.2</ele>
        <time>2022-12-29T10:57:41Z</time>
      </trkpt>
      <trkpt lat="45.02095" lon="6.11951">
        <ele>1706.2</ele>
        <time>2022-12-29T10:57:42Z</time>
      </trkpt>
      <trkpt lat="45.02094" lon="6.11951">
        <ele>1706.2</ele>
        <time>2022-12-29T10:57:43Z</time>
      </trkpt>
      <trkpt lat="45.02093" lon="6.11951">
        <ele>1706.2</ele>
        <time>2022-12-29T10:57:44Z</time>
      </trkpt>
      <trkpt lat="45.02092" lon="6.11952">
        <ele>1706.2</ele>
        <time>2022-12-29T10:57:45Z</time>
      </trkpt>
      <trkpt lat="45.02091" lon="6.11952">
        <ele>1707.8</ele>
        <time>2022-12-29T10:57:46Z</time>
      </trkpt>
      <trkpt lat="45.02088" lon="6.11952">
        <ele>1707.8</ele>
        <time>2022-12-29T10:57:47Z</time>
      </trkpt>
      <trkpt lat="45.02087" lon="6.11953">
        <ele>1707.8</ele>
        <time>2022-12-29T10:57:48Z</time>
      </trkpt>
      <trkpt lat="45.02086" lon="6.11953">
        <ele>1707.8</ele>
        <time>2022-12-29T10:57:49Z</time>
      </trkpt>
      <trkpt lat="45.02085" lon="6.11953">
        <ele>1707.8</ele>
        <time>2022-12-29T10:57:50Z</time>
      </trkpt>
      <trkpt lat="45.02085" lon="6.11953">
        <ele>1707.8</ele>
        <time>2022-12-29T10:57:51Z</time>
      </trkpt>
      <trkpt lat="45.02084" lon="6.11953">
        <ele>1707.8</ele>
        <time>2022-12-29T10:57:52Z</time>
      </trkpt>
      <trkpt lat="45.02083" lon="6.11953">
        <ele>1707.8</ele>
        <time>2022-12-29T10:57:53Z</time>
      </trkpt>
      <trkpt lat="45.02082" lon="6.11953">
        <ele>1707.8</ele>
        <time>2022-12-29T10:57:54Z</time>
      </trkpt>
      <trkpt lat="45.02081" lon="6.11953">
        <ele>1707.8</ele>
        <time>2022-12-29T10:57:55Z</time>
      </trkpt>
      <trkpt lat="45.0208" lon="6.11953">
        <ele>1709.4</ele>
        <time>2022-12-29T10:57:56Z</time>
      </trkpt>
      <trkpt lat="45.02078" lon="6.11954">
        <ele>1709.4</ele>
        <time>2022-12-29T10:57:57Z</time>
      </trkpt>
      <trkpt lat="45.02077" lon="6.11954">
        <ele>1709.4</ele>
        <time>2022-12-29T10:57:58Z</time>
      </trkpt>
      <trkpt lat="45.02076" lon="6.11954">
        <ele>1709.4</ele>
        <time>2022-12-29T10:57:59Z</time>
      </trkpt>
      <trkpt lat="45.02075" lon="6.11954">
        <ele>1709.4</ele>
        <time>2022-12-29T10:58:00Z</time>
      </trkpt>
      <trkpt lat="45.02074" lon="6.11955">
        <ele>1709.4</ele>
        <time>2022-12-29T10:58:01Z</time>
      </trkpt>
      <trkpt lat="45.02073" lon="6.11955">
        <ele>1709.4</ele>
        <time>2022-12-29T10:58:02Z</time>
      </trkpt>
      <trkpt lat="45.02072" lon="6.11955">
        <ele>1709.4</ele>
        <time>2022-12-29T10:58:03Z</time>
      </trkpt>
      <trkpt lat="45.02071" lon="6.11956">
        <ele>1709.4</ele>
        <time>2022-12-29T10:58:04Z</time>
      </trkpt>
      <trkpt lat="45.0207" lon="6.11956">
        <ele>1709.4</ele>
        <time>2022-12-29T10:58:05Z</time>
      </trkpt>
      <trkpt lat="45.02069" lon="6.11956">
        <ele>1711</ele>
        <time>2022-12-29T10:58:06Z</time>
      </trkpt>
      <trkpt lat="45.02068" lon="6.11956">
        <ele>1711</ele>
        <time>2022-12-29T10:58:07Z</time>
      </trkpt>
      <trkpt lat="45.02067" lon="6.11956">
        <ele>1711</ele>
        <time>2022-12-29T10:58:08Z</time>
      </trkpt>
      <trkpt lat="45.02066" lon="6.11956">
        <ele>1711</ele>
        <time>2022-12-29T10:58:09Z</time>
      </trkpt>
      <trkpt lat="45.02065" lon="6.11956">
        <ele>1711</ele>
        <time>2022-12-29T10:58:10Z</time>
      </trkpt>
      <trkpt lat="45.02064" lon="6.11956">
        <ele>1711</ele>
        <time>2022-12-29T10:58:11Z</time>
      </trkpt>
      <trkpt lat="45.02064" lon="6.11956">
        <ele>1711</ele>
        <time>2022-12-29T10:58:12Z</time>
      </trkpt>
      <trkpt lat="45.02063" lon="6.11956">
        <ele>1711</ele>
        <time>2022-12-29T10:58:13Z</time>
      </trkpt>
      <trkpt lat="45.02062" lon="6.11956">
        <ele>1711</ele>
        <time>2022-12-29T10:58:14Z</time>
      </trkpt>
      <trkpt lat="45.02061" lon="6.11956">
        <ele>1711</ele>
        <time>2022-12-29T10:58:15Z</time>
      </trkpt>
      <trkpt lat="45.0206" lon="6.11956">
        <ele>1712.2</ele>
        <time>2022-12-29T10:58:16Z</time>
      </trkpt>
      <trkpt lat="45.02057" lon="6.11954">
        <ele>1712.2</ele>
        <time>2022-12-29T10:58:17Z</time>
      </trkpt>
      <trkpt lat="45.02057" lon="6.11954">
        <ele>1712.2</ele>
        <time>2022-12-29T10:58:18Z</time>
      </trkpt>
      <trkpt lat="45.02056" lon="6.11954">
        <ele>1712.2</ele>
        <time>2022-12-29T10:58:19Z</time>
      </trkpt>
      <trkpt lat="45.02056" lon="6.11953">
        <ele>1712.2</ele>
        <time>2022-12-29T10:58:20Z</time>
      </trkpt>
      <trkpt lat="45.02055" lon="6.11953">
        <ele>1712.2</ele>
        <time>2022-12-29T10:58:21Z</time>
      </trkpt>
      <trkpt lat="45.02054" lon="6.11953">
        <ele>1712.2</ele>
        <time>2022-12-29T10:58:22Z</time>
      </trkpt>
      <trkpt lat="45.02054" lon="6.11953">
        <ele>1712.2</ele>
        <time>2022-12-29T10:58:23Z</time>
      </trkpt>
      <trkpt lat="45.02053" lon="6.11952">
        <ele>1712.2</ele>
        <time>2022-12-29T10:58:24Z</time>
      </trkpt>
      <trkpt lat="45.02052" lon="6.11952">
        <ele>1712.2</ele>
        <time>2022-12-29T10:58:25Z</time>
      </trkpt>
      <trkpt lat="45.02052" lon="6.11952">
        <ele>1712.6</ele>
        <time>2022-12-29T10:58:26Z</time>
      </trkpt>
      <trkpt lat="45.02052" lon="6.11951">
        <ele>1712.6</ele>
        <time>2022-12-29T10:58:27Z</time>
      </trkpt>
      <trkpt lat="45.02052" lon="6.1195">
        <ele>1712.6</ele>
        <time>2022-12-29T10:58:28Z</time>
      </trkpt>
      <trkpt lat="45.02051" lon="6.11949">
        <ele>1712.6</ele>
        <time>2022-12-29T10:58:29Z</time>
      </trkpt>
      <trkpt lat="45.02051" lon="6.11948">
        <ele>1712.6</ele>
        <time>2022-12-29T10:58:30Z</time>
      </trkpt>
      <trkpt lat="45.02051" lon="6.11947">
        <ele>1712.6</ele>
        <time>2022-12-29T10:58:31Z</time>
      </trkpt>
      <trkpt lat="45.02051" lon="6.11947">
        <ele>1712.6</ele>
        <time>2022-12-29T10:58:32Z</time>
      </trkpt>
      <trkpt lat="45.02051" lon="6.11946">
        <ele>1712.6</ele>
        <time>2022-12-29T10:58:33Z</time>
      </trkpt>
      <trkpt lat="45.0205" lon="6.11945">
        <ele>1712.6</ele>
        <time>2022-12-29T10:58:34Z</time>
      </trkpt>
      <trkpt lat="45.0205" lon="6.11944">
        <ele>1712.6</ele>
        <time>2022-12-29T10:58:35Z</time>
      </trkpt>
      <trkpt lat="45.0205" lon="6.11943">
        <ele>1714.6</ele>
        <time>2022-12-29T10:58:36Z</time>
      </trkpt>
      <trkpt lat="45.02049" lon="6.11943">
        <ele>1714.6</ele>
        <time>2022-12-29T10:58:37Z</time>
      </trkpt>
      <trkpt lat="45.02049" lon="6.11942">
        <ele>1714.6</ele>
        <time>2022-12-29T10:58:38Z</time>
      </trkpt>
      <trkpt lat="45.02048" lon="6.11942">
        <ele>1714.6</ele>
        <time>2022-12-29T10:58:39Z</time>
      </trkpt>
      <trkpt lat="45.02048" lon="6.11942">
        <ele>1714.6</ele>
        <time>2022-12-29T10:58:40Z</time>
      </trkpt>
      <trkpt lat="45.02047" lon="6.11941">
        <ele>1714.6</ele>
        <time>2022-12-29T10:58:41Z</time>
      </trkpt>
      <trkpt lat="45.02047" lon="6.11941">
        <ele>1714.6</ele>
        <time>2022-12-29T10:58:42Z</time>
      </trkpt>
      <trkpt lat="45.02046" lon="6.1194">
        <ele>1714.6</ele>
        <time>2022-12-29T10:58:43Z</time>
      </trkpt>
      <trkpt lat="45.02046" lon="6.1194">
        <ele>1714.6</ele>
        <time>2022-12-29T10:58:44Z</time>
      </trkpt>
      <trkpt lat="45.02045" lon="6.1194">
        <ele>1714.6</ele>
        <time>2022-12-29T10:58:45Z</time>
      </trkpt>
      <trkpt lat="45.02045" lon="6.11939">
        <ele>1716.2</ele>
        <time>2022-12-29T10:58:46Z</time>
      </trkpt>
      <trkpt lat="45.02044" lon="6.11938">
        <ele>1716.2</ele>
        <time>2022-12-29T10:58:47Z</time>
      </trkpt>
      <trkpt lat="45.02044" lon="6.11938">
        <ele>1716.2</ele>
        <time>2022-12-29T10:58:48Z</time>
      </trkpt>
      <trkpt lat="45.02044" lon="6.11937">
        <ele>1716.2</ele>
        <time>2022-12-29T10:58:49Z</time>
      </trkpt>
      <trkpt lat="45.02043" lon="6.11936">
        <ele>1716.2</ele>
        <time>2022-12-29T10:58:50Z</time>
      </trkpt>
      <trkpt lat="45.02043" lon="6.11935">
        <ele>1716.2</ele>
        <time>2022-12-29T10:58:51Z</time>
      </trkpt>
      <trkpt lat="45.02042" lon="6.11934">
        <ele>1716.2</ele>
        <time>2022-12-29T10:58:52Z</time>
      </trkpt>
      <trkpt lat="45.02042" lon="6.11933">
        <ele>1716.2</ele>
        <time>2022-12-29T10:58:53Z</time>
      </trkpt>
      <trkpt lat="45.02042" lon="6.11932">
        <ele>1716.2</ele>
        <time>2022-12-29T10:58:54Z</time>
      </trkpt>
      <trkpt lat="45.02041" lon="6.11931">
        <ele>1716.2</ele>
        <time>2022-12-29T10:58:55Z</time>
      </trkpt>
      <trkpt lat="45.02041" lon="6.11931">
        <ele>1719.2</ele>
        <time>2022-12-29T10:58:56Z</time>
      </trkpt>
      <trkpt lat="45.02041" lon="6.11931">
        <ele>1719.2</ele>
        <time>2022-12-29T10:58:57Z</time>
      </trkpt>
      <trkpt lat="45.02041" lon="6.11931">
        <ele>1719.2</ele>
        <time>2022-12-29T10:58:58Z</time>
      </trkpt>
      <trkpt lat="45.02038" lon="6.1193">
        <ele>1719.2</ele>
        <time>2022-12-29T10:58:59Z</time>
      </trkpt>
      <trkpt lat="45.02038" lon="6.1193">
        <ele>1719.2</ele>
        <time>2022-12-29T10:59:00Z</time>
      </trkpt>
      <trkpt lat="45.02038" lon="6.1193">
        <ele>1719.2</ele>
        <time>2022-12-29T10:59:01Z</time>
      </trkpt>
      <trkpt lat="45.02038" lon="6.1193">
        <ele>1719.2</ele>
        <time>2022-12-29T10:59:02Z</time>
      </trkpt>
      <trkpt lat="45.02038" lon="6.1193">
        <ele>1719.2</ele>
        <time>2022-12-29T10:59:03Z</time>
      </trkpt>
      <trkpt lat="45.02038" lon="6.1193">
        <ele>1719.2</ele>
        <time>2022-12-29T10:59:04Z</time>
      </trkpt>
      <trkpt lat="45.02038" lon="6.1193">
        <ele>1719.2</ele>
        <time>2022-12-29T10:59:05Z</time>
      </trkpt>
      <trkpt lat="45.02038" lon="6.1193">
        <ele>1720.8</ele>
        <time>2022-12-29T10:59:06Z</time>
      </trkpt>
      <trkpt lat="45.02038" lon="6.11929">
        <ele>1720.8</ele>
        <time>2022-12-29T10:59:07Z</time>
      </trkpt>
      <trkpt lat="45.02038" lon="6.11929">
        <ele>1720.8</ele>
        <time>2022-12-29T10:59:08Z</time>
      </trkpt>
      <trkpt lat="45.02038" lon="6.11929">
        <ele>1720.8</ele>
        <time>2022-12-29T10:59:09Z</time>
      </trkpt>
      <trkpt lat="45.02038" lon="6.11929">
        <ele>1720.8</ele>
        <time>2022-12-29T10:59:10Z</time>
      </trkpt>
      <trkpt lat="45.02037" lon="6.11929">
        <ele>1720.8</ele>
        <time>2022-12-29T10:59:11Z</time>
      </trkpt>
      <trkpt lat="45.02037" lon="6.11928">
        <ele>1720.8</ele>
        <time>2022-12-29T10:59:12Z</time>
      </trkpt>
      <trkpt lat="45.02037" lon="6.11928">
        <ele>1720.8</ele>
        <time>2022-12-29T10:59:13Z</time>
      </trkpt>
      <trkpt lat="45.02037" lon="6.11928">
        <ele>1720.8</ele>
        <time>2022-12-29T10:59:14Z</time>
      </trkpt>
      <trkpt lat="45.02037" lon="6.11928">
        <ele>1720.8</ele>
        <time>2022-12-29T10:59:15Z</time>
      </trkpt>
      <trkpt lat="45.02037" lon="6.11928">
        <ele>1721.6</ele>
        <time>2022-12-29T10:59:16Z</time>
      </trkpt>
      <trkpt lat="45.02037" lon="6.11927">
        <ele>1721.6</ele>
        <time>2022-12-29T10:59:17Z</time>
      </trkpt>
      <trkpt lat="45.02036" lon="6.11927">
        <ele>1721.6</ele>
        <time>2022-12-29T10:59:18Z</time>
      </trkpt>
      <trkpt lat="45.02036" lon="6.11927">
        <ele>1721.6</ele>
        <time>2022-12-29T10:59:19Z</time>
      </trkpt>
      <trkpt lat="45.02036" lon="6.11927">
        <ele>1721.6</ele>
        <time>2022-12-29T10:59:20Z</time>
      </trkpt>
      <trkpt lat="45.02036" lon="6.11927">
        <ele>1721.6</ele>
        <time>2022-12-29T10:59:21Z</time>
      </trkpt>
      <trkpt lat="45.02036" lon="6.11926">
        <ele>1721.6</ele>
        <time>2022-12-29T10:59:22Z</time>
      </trkpt>
      <trkpt lat="45.02036" lon="6.11926">
        <ele>1721.6</ele>
        <time>2022-12-29T10:59:23Z</time>
      </trkpt>
      <trkpt lat="45.02036" lon="6.11926">
        <ele>1721.6</ele>
        <time>2022-12-29T10:59:24Z</time>
      </trkpt>
      <trkpt lat="45.02035" lon="6.11926">
        <ele>1721.6</ele>
        <time>2022-12-29T10:59:25Z</time>
      </trkpt>
      <trkpt lat="45.02035" lon="6.11926">
        <ele>1721</ele>
        <time>2022-12-29T10:59:26Z</time>
      </trkpt>
      <trkpt lat="45.02035" lon="6.11925">
        <ele>1721</ele>
        <time>2022-12-29T10:59:27Z</time>
      </trkpt>
      <trkpt lat="45.02035" lon="6.11925">
        <ele>1721</ele>
        <time>2022-12-29T10:59:28Z</time>
      </trkpt>
      <trkpt lat="45.02035" lon="6.11925">
        <ele>1721</ele>
        <time>2022-12-29T10:59:29Z</time>
      </trkpt>
      <trkpt lat="45.02035" lon="6.11925">
        <ele>1721</ele>
        <time>2022-12-29T10:59:30Z</time>
      </trkpt>
      <trkpt lat="45.02035" lon="6.11925">
        <ele>1721</ele>
        <time>2022-12-29T10:59:31Z</time>
      </trkpt>
      <trkpt lat="45.02034" lon="6.11924">
        <ele>1721</ele>
        <time>2022-12-29T10:59:32Z</time>
      </trkpt>
      <trkpt lat="45.02034" lon="6.11924">
        <ele>1721</ele>
        <time>2022-12-29T10:59:33Z</time>
      </trkpt>
      <trkpt lat="45.02034" lon="6.11924">
        <ele>1721</ele>
        <time>2022-12-29T10:59:34Z</time>
      </trkpt>
      <trkpt lat="45.02034" lon="6.11924">
        <ele>1721</ele>
        <time>2022-12-29T10:59:35Z</time>
      </trkpt>
      <trkpt lat="45.02034" lon="6.11924">
        <ele>1720.8</ele>
        <time>2022-12-29T10:59:36Z</time>
      </trkpt>
      <trkpt lat="45.02034" lon="6.11923">
        <ele>1720.8</ele>
        <time>2022-12-29T10:59:37Z</time>
      </trkpt>
      <trkpt lat="45.02034" lon="6.11923">
        <ele>1720.8</ele>
        <time>2022-12-29T10:59:38Z</time>
      </trkpt>
      <trkpt lat="45.02033" lon="6.11923">
        <ele>1720.8</ele>
        <time>2022-12-29T10:59:39Z</time>
      </trkpt>
      <trkpt lat="45.02033" lon="6.11923">
        <ele>1720.8</ele>
        <time>2022-12-29T10:59:40Z</time>
      </trkpt>
      <trkpt lat="45.02033" lon="6.11923">
        <ele>1720.8</ele>
        <time>2022-12-29T10:59:41Z</time>
      </trkpt>
      <trkpt lat="45.02033" lon="6.11922">
        <ele>1720.8</ele>
        <time>2022-12-29T10:59:42Z</time>
      </trkpt>
      <trkpt lat="45.02033" lon="6.11922">
        <ele>1720.8</ele>
        <time>2022-12-29T10:59:43Z</time>
      </trkpt>
      <trkpt lat="45.02033" lon="6.11922">
        <ele>1720.8</ele>
        <time>2022-12-29T10:59:44Z</time>
      </trkpt>
      <trkpt lat="45.02033" lon="6.11922">
        <ele>1720.8</ele>
        <time>2022-12-29T10:59:45Z</time>
      </trkpt>
      <trkpt lat="45.02032" lon="6.11922">
        <ele>1722.8</ele>
        <time>2022-12-29T10:59:46Z</time>
      </trkpt>
      <trkpt lat="45.02032" lon="6.11921">
        <ele>1722.8</ele>
        <time>2022-12-29T10:59:47Z</time>
      </trkpt>
      <trkpt lat="45.02031" lon="6.1192">
        <ele>1722.8</ele>
        <time>2022-12-29T10:59:48Z</time>
      </trkpt>
      <trkpt lat="45.0203" lon="6.11919">
        <ele>1722.8</ele>
        <time>2022-12-29T10:59:49Z</time>
      </trkpt>
      <trkpt lat="45.0203" lon="6.11919">
        <ele>1722.8</ele>
        <time>2022-12-29T10:59:50Z</time>
      </trkpt>
      <trkpt lat="45.02029" lon="6.11918">
        <ele>1722.8</ele>
        <time>2022-12-29T10:59:51Z</time>
      </trkpt>
      <trkpt lat="45.02028" lon="6.11917">
        <ele>1722.8</ele>
        <time>2022-12-29T10:59:52Z</time>
      </trkpt>
      <trkpt lat="45.02027" lon="6.11916">
        <ele>1722.8</ele>
        <time>2022-12-29T10:59:53Z</time>
      </trkpt>
      <trkpt lat="45.02027" lon="6.11916">
        <ele>1722.8</ele>
        <time>2022-12-29T10:59:54Z</time>
      </trkpt>
      <trkpt lat="45.02026" lon="6.11915">
        <ele>1722.8</ele>
        <time>2022-12-29T10:59:55Z</time>
      </trkpt>
      <trkpt lat="45.02025" lon="6.11914">
        <ele>1725</ele>
        <time>2022-12-29T10:59:56Z</time>
      </trkpt>
      <trkpt lat="45.02024" lon="6.11913">
        <ele>1725</ele>
        <time>2022-12-29T10:59:57Z</time>
      </trkpt>
      <trkpt lat="45.02023" lon="6.11912">
        <ele>1725</ele>
        <time>2022-12-29T10:59:58Z</time>
      </trkpt>
      <trkpt lat="45.02023" lon="6.11912">
        <ele>1725</ele>
        <time>2022-12-29T10:59:59Z</time>
      </trkpt>
      <trkpt lat="45.02022" lon="6.11911">
        <ele>1725</ele>
        <time>2022-12-29T11:00:00Z</time>
      </trkpt>
      <trkpt lat="45.02021" lon="6.11911">
        <ele>1725</ele>
        <time>2022-12-29T11:00:01Z</time>
      </trkpt>
      <trkpt lat="45.02021" lon="6.1191">
        <ele>1725</ele>
        <time>2022-12-29T11:00:02Z</time>
      </trkpt>
      <trkpt lat="45.0202" lon="6.1191">
        <ele>1725</ele>
        <time>2022-12-29T11:00:03Z</time>
      </trkpt>
      <trkpt lat="45.0202" lon="6.11909">
        <ele>1725</ele>
        <time>2022-12-29T11:00:04Z</time>
      </trkpt>
      <trkpt lat="45.02019" lon="6.11908">
        <ele>1725</ele>
        <time>2022-12-29T11:00:05Z</time>
      </trkpt>
      <trkpt lat="45.02018" lon="6.11908">
        <ele>1727.8</ele>
        <time>2022-12-29T11:00:06Z</time>
      </trkpt>
      <trkpt lat="45.02017" lon="6.11907">
        <ele>1727.8</ele>
        <time>2022-12-29T11:00:07Z</time>
      </trkpt>
      <trkpt lat="45.02017" lon="6.11907">
        <ele>1727.8</ele>
        <time>2022-12-29T11:00:08Z</time>
      </trkpt>
      <trkpt lat="45.02016" lon="6.11907">
        <ele>1727.8</ele>
        <time>2022-12-29T11:00:09Z</time>
      </trkpt>
      <trkpt lat="45.02015" lon="6.11906">
        <ele>1727.8</ele>
        <time>2022-12-29T11:00:10Z</time>
      </trkpt>
      <trkpt lat="45.02014" lon="6.11906">
        <ele>1727.8</ele>
        <time>2022-12-29T11:00:11Z</time>
      </trkpt>
      <trkpt lat="45.02013" lon="6.11906">
        <ele>1727.8</ele>
        <time>2022-12-29T11:00:12Z</time>
      </trkpt>
      <trkpt lat="45.02012" lon="6.11905">
        <ele>1727.8</ele>
        <time>2022-12-29T11:00:13Z</time>
      </trkpt>
      <trkpt lat="45.02011" lon="6.11905">
        <ele>1727.8</ele>
        <time>2022-12-29T11:00:14Z</time>
      </trkpt>
      <trkpt lat="45.02011" lon="6.11905">
        <ele>1727.8</ele>
        <time>2022-12-29T11:00:15Z</time>
      </trkpt>
      <trkpt lat="45.0201" lon="6.11904">
        <ele>1730.2</ele>
        <time>2022-12-29T11:00:16Z</time>
      </trkpt>
      <trkpt lat="45.02009" lon="6.11904">
        <ele>1730.2</ele>
        <time>2022-12-29T11:00:17Z</time>
      </trkpt>
      <trkpt lat="45.02008" lon="6.11903">
        <ele>1730.2</ele>
        <time>2022-12-29T11:00:18Z</time>
      </trkpt>
      <trkpt lat="45.02008" lon="6.11903">
        <ele>1730.2</ele>
        <time>2022-12-29T11:00:19Z</time>
      </trkpt>
      <trkpt lat="45.02007" lon="6.11902">
        <ele>1730.2</ele>
        <time>2022-12-29T11:00:20Z</time>
      </trkpt>
      <trkpt lat="45.02007" lon="6.11902">
        <ele>1730.2</ele>
        <time>2022-12-29T11:00:21Z</time>
      </trkpt>
      <trkpt lat="45.02006" lon="6.11901">
        <ele>1730.2</ele>
        <time>2022-12-29T11:00:22Z</time>
      </trkpt>
      <trkpt lat="45.02005" lon="6.11901">
        <ele>1730.2</ele>
        <time>2022-12-29T11:00:23Z</time>
      </trkpt>
      <trkpt lat="45.02005" lon="6.119">
        <ele>1730.2</ele>
        <time>2022-12-29T11:00:24Z</time>
      </trkpt>
      <trkpt lat="45.02004" lon="6.119">
        <ele>1730.2</ele>
        <time>2022-12-29T11:00:25Z</time>
      </trkpt>
      <trkpt lat="45.02004" lon="6.11899">
        <ele>1732.6</ele>
        <time>2022-12-29T11:00:26Z</time>
      </trkpt>
      <trkpt lat="45.02002" lon="6.11897">
        <ele>1732.6</ele>
        <time>2022-12-29T11:00:27Z</time>
      </trkpt>
      <trkpt lat="45.02002" lon="6.11896">
        <ele>1732.6</ele>
        <time>2022-12-29T11:00:28Z</time>
      </trkpt>
      <trkpt lat="45.02001" lon="6.11895">
        <ele>1732.6</ele>
        <time>2022-12-29T11:00:29Z</time>
      </trkpt>
      <trkpt lat="45.02001" lon="6.11894">
        <ele>1732.6</ele>
        <time>2022-12-29T11:00:30Z</time>
      </trkpt>
      <trkpt lat="45.02" lon="6.11894">
        <ele>1732.6</ele>
        <time>2022-12-29T11:00:31Z</time>
      </trkpt>
      <trkpt lat="45.02" lon="6.11893">
        <ele>1732.6</ele>
        <time>2022-12-29T11:00:32Z</time>
      </trkpt>
      <trkpt lat="45.02" lon="6.11892">
        <ele>1732.6</ele>
        <time>2022-12-29T11:00:33Z</time>
      </trkpt>
      <trkpt lat="45.01999" lon="6.11892">
        <ele>1732.6</ele>
        <time>2022-12-29T11:00:34Z</time>
      </trkpt>
      <trkpt lat="45.01999" lon="6.11891">
        <ele>1732.6</ele>
        <time>2022-12-29T11:00:35Z</time>
      </trkpt>
      <trkpt lat="45.01998" lon="6.1189">
        <ele>1734.6</ele>
        <time>2022-12-29T11:00:36Z</time>
      </trkpt>
      <trkpt lat="45.01998" lon="6.11889">
        <ele>1734.6</ele>
        <time>2022-12-29T11:00:37Z</time>
      </trkpt>
      <trkpt lat="45.01997" lon="6.11889">
        <ele>1734.6</ele>
        <time>2022-12-29T11:00:38Z</time>
      </trkpt>
      <trkpt lat="45.01996" lon="6.11888">
        <ele>1734.6</ele>
        <time>2022-12-29T11:00:39Z</time>
      </trkpt>
      <trkpt lat="45.01995" lon="6.11888">
        <ele>1734.6</ele>
        <time>2022-12-29T11:00:40Z</time>
      </trkpt>
      <trkpt lat="45.01994" lon="6.11887">
        <ele>1734.6</ele>
        <time>2022-12-29T11:00:41Z</time>
      </trkpt>
      <trkpt lat="45.01993" lon="6.11886">
        <ele>1734.6</ele>
        <time>2022-12-29T11:00:42Z</time>
      </trkpt>
      <trkpt lat="45.01992" lon="6.11886">
        <ele>1734.6</ele>
        <time>2022-12-29T11:00:43Z</time>
      </trkpt>
      <trkpt lat="45.01992" lon="6.11885">
        <ele>1734.6</ele>
        <time>2022-12-29T11:00:44Z</time>
      </trkpt>
      <trkpt lat="45.01991" lon="6.11885">
        <ele>1734.6</ele>
        <time>2022-12-29T11:00:45Z</time>
      </trkpt>
      <trkpt lat="45.0199" lon="6.11884">
        <ele>1736.6</ele>
        <time>2022-12-29T11:00:46Z</time>
      </trkpt>
      <trkpt lat="45.01989" lon="6.11883">
        <ele>1736.6</ele>
        <time>2022-12-29T11:00:47Z</time>
      </trkpt>
      <trkpt lat="45.01988" lon="6.11883">
        <ele>1736.6</ele>
        <time>2022-12-29T11:00:48Z</time>
      </trkpt>
      <trkpt lat="45.01988" lon="6.11882">
        <ele>1736.6</ele>
        <time>2022-12-29T11:00:49Z</time>
      </trkpt>
      <trkpt lat="45.01987" lon="6.11881">
        <ele>1736.6</ele>
        <time>2022-12-29T11:00:50Z</time>
      </trkpt>
      <trkpt lat="45.01986" lon="6.11881">
        <ele>1736.6</ele>
        <time>2022-12-29T11:00:51Z</time>
      </trkpt>
      <trkpt lat="45.01985" lon="6.1188">
        <ele>1736.6</ele>
        <time>2022-12-29T11:00:52Z</time>
      </trkpt>
      <trkpt lat="45.01985" lon="6.11879">
        <ele>1736.6</ele>
        <time>2022-12-29T11:00:53Z</time>
      </trkpt>
      <trkpt lat="45.01984" lon="6.11879">
        <ele>1736.6</ele>
        <time>2022-12-29T11:00:54Z</time>
      </trkpt>
      <trkpt lat="45.01983" lon="6.11878">
        <ele>1736.6</ele>
        <time>2022-12-29T11:00:55Z</time>
      </trkpt>
      <trkpt lat="45.01982" lon="6.11877">
        <ele>1737.6</ele>
        <time>2022-12-29T11:00:56Z</time>
      </trkpt>
      <trkpt lat="45.01982" lon="6.11876">
        <ele>1737.6</ele>
        <time>2022-12-29T11:00:57Z</time>
      </trkpt>
      <trkpt lat="45.01981" lon="6.11875">
        <ele>1737.6</ele>
        <time>2022-12-29T11:00:58Z</time>
      </trkpt>
      <trkpt lat="45.01981" lon="6.11874">
        <ele>1737.6</ele>
        <time>2022-12-29T11:00:59Z</time>
      </trkpt>
      <trkpt lat="45.0198" lon="6.11873">
        <ele>1737.6</ele>
        <time>2022-12-29T11:01:00Z</time>
      </trkpt>
      <trkpt lat="45.0198" lon="6.11872">
        <ele>1737.6</ele>
        <time>2022-12-29T11:01:01Z</time>
      </trkpt>
      <trkpt lat="45.01979" lon="6.11871">
        <ele>1737.6</ele>
        <time>2022-12-29T11:01:02Z</time>
      </trkpt>
      <trkpt lat="45.01979" lon="6.1187">
        <ele>1737.6</ele>
        <time>2022-12-29T11:01:03Z</time>
      </trkpt>
      <trkpt lat="45.01978" lon="6.1187">
        <ele>1737.6</ele>
        <time>2022-12-29T11:01:04Z</time>
      </trkpt>
      <trkpt lat="45.01978" lon="6.11869">
        <ele>1737.6</ele>
        <time>2022-12-29T11:01:05Z</time>
      </trkpt>
      <trkpt lat="45.01977" lon="6.11868">
        <ele>1738.8</ele>
        <time>2022-12-29T11:01:06Z</time>
      </trkpt>
      <trkpt lat="45.01977" lon="6.11867">
        <ele>1738.8</ele>
        <time>2022-12-29T11:01:07Z</time>
      </trkpt>
      <trkpt lat="45.01976" lon="6.11866">
        <ele>1738.8</ele>
        <time>2022-12-29T11:01:08Z</time>
      </trkpt>
      <trkpt lat="45.01975" lon="6.11866">
        <ele>1738.8</ele>
        <time>2022-12-29T11:01:09Z</time>
      </trkpt>
      <trkpt lat="45.01975" lon="6.11865">
        <ele>1738.8</ele>
        <time>2022-12-29T11:01:10Z</time>
      </trkpt>
      <trkpt lat="45.01974" lon="6.11865">
        <ele>1738.8</ele>
        <time>2022-12-29T11:01:11Z</time>
      </trkpt>
      <trkpt lat="45.01973" lon="6.11864">
        <ele>1738.8</ele>
        <time>2022-12-29T11:01:12Z</time>
      </trkpt>
      <trkpt lat="45.01973" lon="6.11863">
        <ele>1738.8</ele>
        <time>2022-12-29T11:01:13Z</time>
      </trkpt>
      <trkpt lat="45.01972" lon="6.11863">
        <ele>1738.8</ele>
        <time>2022-12-29T11:01:14Z</time>
      </trkpt>
      <trkpt lat="45.01971" lon="6.11862">
        <ele>1738.8</ele>
        <time>2022-12-29T11:01:15Z</time>
      </trkpt>
      <trkpt lat="45.01971" lon="6.11862">
        <ele>1740.6</ele>
        <time>2022-12-29T11:01:16Z</time>
      </trkpt>
      <trkpt lat="45.01968" lon="6.11859">
        <ele>1740.6</ele>
        <time>2022-12-29T11:01:17Z</time>
      </trkpt>
      <trkpt lat="45.01967" lon="6.11859">
        <ele>1740.6</ele>
        <time>2022-12-29T11:01:18Z</time>
      </trkpt>
      <trkpt lat="45.01967" lon="6.11859">
        <ele>1740.6</ele>
        <time>2022-12-29T11:01:19Z</time>
      </trkpt>
      <trkpt lat="45.01966" lon="6.11858">
        <ele>1740.6</ele>
        <time>2022-12-29T11:01:20Z</time>
      </trkpt>
      <trkpt lat="45.01965" lon="6.11858">
        <ele>1740.6</ele>
        <time>2022-12-29T11:01:21Z</time>
      </trkpt>
      <trkpt lat="45.01965" lon="6.11857">
        <ele>1740.6</ele>
        <time>2022-12-29T11:01:22Z</time>
      </trkpt>
      <trkpt lat="45.01964" lon="6.11857">
        <ele>1740.6</ele>
        <time>2022-12-29T11:01:23Z</time>
      </trkpt>
      <trkpt lat="45.01964" lon="6.11857">
        <ele>1740.6</ele>
        <time>2022-12-29T11:01:24Z</time>
      </trkpt>
      <trkpt lat="45.01963" lon="6.11856">
        <ele>1740.6</ele>
        <time>2022-12-29T11:01:25Z</time>
      </trkpt>
      <trkpt lat="45.01963" lon="6.11856">
        <ele>1742.6</ele>
        <time>2022-12-29T11:01:26Z</time>
      </trkpt>
      <trkpt lat="45.01959" lon="6.11854">
        <ele>1742.6</ele>
        <time>2022-12-29T11:01:27Z</time>
      </trkpt>
      <trkpt lat="45.01959" lon="6.11854">
        <ele>1742.6</ele>
        <time>2022-12-29T11:01:28Z</time>
      </trkpt>
      <trkpt lat="45.01958" lon="6.11854">
        <ele>1742.6</ele>
        <time>2022-12-29T11:01:29Z</time>
      </trkpt>
      <trkpt lat="45.01957" lon="6.11853">
        <ele>1742.6</ele>
        <time>2022-12-29T11:01:30Z</time>
      </trkpt>
      <trkpt lat="45.01957" lon="6.11853">
        <ele>1742.6</ele>
        <time>2022-12-29T11:01:31Z</time>
      </trkpt>
      <trkpt lat="45.01956" lon="6.11853">
        <ele>1742.6</ele>
        <time>2022-12-29T11:01:32Z</time>
      </trkpt>
      <trkpt lat="45.01955" lon="6.11852">
        <ele>1742.6</ele>
        <time>2022-12-29T11:01:33Z</time>
      </trkpt>
      <trkpt lat="45.01955" lon="6.11852">
        <ele>1742.6</ele>
        <time>2022-12-29T11:01:34Z</time>
      </trkpt>
      <trkpt lat="45.01954" lon="6.11851">
        <ele>1742.6</ele>
        <time>2022-12-29T11:01:35Z</time>
      </trkpt>
      <trkpt lat="45.01953" lon="6.11851">
        <ele>1743</ele>
        <time>2022-12-29T11:01:36Z</time>
      </trkpt>
      <trkpt lat="45.01952" lon="6.11849">
        <ele>1743</ele>
        <time>2022-12-29T11:01:37Z</time>
      </trkpt>
      <trkpt lat="45.01951" lon="6.11848">
        <ele>1743</ele>
        <time>2022-12-29T11:01:38Z</time>
      </trkpt>
      <trkpt lat="45.01951" lon="6.11847">
        <ele>1743</ele>
        <time>2022-12-29T11:01:39Z</time>
      </trkpt>
      <trkpt lat="45.0195" lon="6.11846">
        <ele>1743</ele>
        <time>2022-12-29T11:01:40Z</time>
      </trkpt>
      <trkpt lat="45.0195" lon="6.11844">
        <ele>1743</ele>
        <time>2022-12-29T11:01:41Z</time>
      </trkpt>
      <trkpt lat="45.01949" lon="6.11843">
        <ele>1743</ele>
        <time>2022-12-29T11:01:42Z</time>
      </trkpt>
      <trkpt lat="45.01949" lon="6.11842">
        <ele>1743</ele>
        <time>2022-12-29T11:01:43Z</time>
      </trkpt>
      <trkpt lat="45.01948" lon="6.11841">
        <ele>1743</ele>
        <time>2022-12-29T11:01:44Z</time>
      </trkpt>
      <trkpt lat="45.01948" lon="6.1184">
        <ele>1743</ele>
        <time>2022-12-29T11:01:45Z</time>
      </trkpt>
      <trkpt lat="45.01947" lon="6.11839">
        <ele>1743</ele>
        <time>2022-12-29T11:01:46Z</time>
      </trkpt>
      <trkpt lat="45.01946" lon="6.11837">
        <ele>1743</ele>
        <time>2022-12-29T11:01:47Z</time>
      </trkpt>
      <trkpt lat="45.01946" lon="6.11835">
        <ele>1743</ele>
        <time>2022-12-29T11:01:48Z</time>
      </trkpt>
      <trkpt lat="45.01945" lon="6.11834">
        <ele>1743</ele>
        <time>2022-12-29T11:01:49Z</time>
      </trkpt>
      <trkpt lat="45.01945" lon="6.11833">
        <ele>1743</ele>
        <time>2022-12-29T11:01:50Z</time>
      </trkpt>
      <trkpt lat="45.01944" lon="6.11832">
        <ele>1743</ele>
        <time>2022-12-29T11:01:51Z</time>
      </trkpt>
      <trkpt lat="45.01944" lon="6.1183">
        <ele>1743</ele>
        <time>2022-12-29T11:01:52Z</time>
      </trkpt>
      <trkpt lat="45.01944" lon="6.11829">
        <ele>1743</ele>
        <time>2022-12-29T11:01:53Z</time>
      </trkpt>
      <trkpt lat="45.01943" lon="6.11828">
        <ele>1743</ele>
        <time>2022-12-29T11:01:54Z</time>
      </trkpt>
      <trkpt lat="45.01943" lon="6.11827">
        <ele>1743</ele>
        <time>2022-12-29T11:01:55Z</time>
      </trkpt>
      <trkpt lat="45.01942" lon="6.11826">
        <ele>1743.6</ele>
        <time>2022-12-29T11:01:56Z</time>
      </trkpt>
      <trkpt lat="45.01941" lon="6.11823">
        <ele>1743.6</ele>
        <time>2022-12-29T11:01:57Z</time>
      </trkpt>
      <trkpt lat="45.01941" lon="6.11822">
        <ele>1743.6</ele>
        <time>2022-12-29T11:01:58Z</time>
      </trkpt>
      <trkpt lat="45.0194" lon="6.11821">
        <ele>1743.6</ele>
        <time>2022-12-29T11:01:59Z</time>
      </trkpt>
      <trkpt lat="45.0194" lon="6.11821">
        <ele>1743.6</ele>
        <time>2022-12-29T11:02:00Z</time>
      </trkpt>
      <trkpt lat="45.01939" lon="6.1182">
        <ele>1743.6</ele>
        <time>2022-12-29T11:02:01Z</time>
      </trkpt>
      <trkpt lat="45.01939" lon="6.11819">
        <ele>1743.6</ele>
        <time>2022-12-29T11:02:02Z</time>
      </trkpt>
      <trkpt lat="45.01938" lon="6.11818">
        <ele>1743.6</ele>
        <time>2022-12-29T11:02:03Z</time>
      </trkpt>
      <trkpt lat="45.01937" lon="6.11817">
        <ele>1743.6</ele>
        <time>2022-12-29T11:02:04Z</time>
      </trkpt>
      <trkpt lat="45.01937" lon="6.11816">
        <ele>1743.6</ele>
        <time>2022-12-29T11:02:05Z</time>
      </trkpt>
      <trkpt lat="45.01936" lon="6.11815">
        <ele>1744.2</ele>
        <time>2022-12-29T11:02:06Z</time>
      </trkpt>
      <trkpt lat="45.01935" lon="6.11811">
        <ele>1744.2</ele>
        <time>2022-12-29T11:02:07Z</time>
      </trkpt>
      <trkpt lat="45.01935" lon="6.1181">
        <ele>1744.2</ele>
        <time>2022-12-29T11:02:08Z</time>
      </trkpt>
      <trkpt lat="45.01935" lon="6.11809">
        <ele>1744.2</ele>
        <time>2022-12-29T11:02:09Z</time>
      </trkpt>
      <trkpt lat="45.01935" lon="6.11807">
        <ele>1744.2</ele>
        <time>2022-12-29T11:02:10Z</time>
      </trkpt>
      <trkpt lat="45.01935" lon="6.11806">
        <ele>1744.2</ele>
        <time>2022-12-29T11:02:11Z</time>
      </trkpt>
      <trkpt lat="45.01935" lon="6.11805">
        <ele>1744.2</ele>
        <time>2022-12-29T11:02:12Z</time>
      </trkpt>
      <trkpt lat="45.01935" lon="6.11804">
        <ele>1744.2</ele>
        <time>2022-12-29T11:02:13Z</time>
      </trkpt>
      <trkpt lat="45.01935" lon="6.11803">
        <ele>1744.2</ele>
        <time>2022-12-29T11:02:14Z</time>
      </trkpt>
      <trkpt lat="45.01935" lon="6.11801">
        <ele>1744.2</ele>
        <time>2022-12-29T11:02:15Z</time>
      </trkpt>
      <trkpt lat="45.01935" lon="6.118">
        <ele>1744.8</ele>
        <time>2022-12-29T11:02:16Z</time>
      </trkpt>
      <trkpt lat="45.01935" lon="6.11798">
        <ele>1744.8</ele>
        <time>2022-12-29T11:02:17Z</time>
      </trkpt>
      <trkpt lat="45.01936" lon="6.11796">
        <ele>1744.8</ele>
        <time>2022-12-29T11:02:18Z</time>
      </trkpt>
      <trkpt lat="45.01936" lon="6.11795">
        <ele>1744.8</ele>
        <time>2022-12-29T11:02:19Z</time>
      </trkpt>
      <trkpt lat="45.01936" lon="6.11794">
        <ele>1744.8</ele>
        <time>2022-12-29T11:02:20Z</time>
      </trkpt>
      <trkpt lat="45.01937" lon="6.11792">
        <ele>1744.8</ele>
        <time>2022-12-29T11:02:21Z</time>
      </trkpt>
      <trkpt lat="45.01937" lon="6.11791">
        <ele>1744.8</ele>
        <time>2022-12-29T11:02:22Z</time>
      </trkpt>
      <trkpt lat="45.01937" lon="6.1179">
        <ele>1744.8</ele>
        <time>2022-12-29T11:02:23Z</time>
      </trkpt>
      <trkpt lat="45.01938" lon="6.11788">
        <ele>1744.8</ele>
        <time>2022-12-29T11:02:24Z</time>
      </trkpt>
      <trkpt lat="45.01938" lon="6.11787">
        <ele>1744.8</ele>
        <time>2022-12-29T11:02:25Z</time>
      </trkpt>
      <trkpt lat="45.01938" lon="6.11786">
        <ele>1744.8</ele>
        <time>2022-12-29T11:02:26Z</time>
      </trkpt>
      <trkpt lat="45.0194" lon="6.11783">
        <ele>1744.8</ele>
        <time>2022-12-29T11:02:27Z</time>
      </trkpt>
      <trkpt lat="45.0194" lon="6.11782">
        <ele>1744.8</ele>
        <time>2022-12-29T11:02:28Z</time>
      </trkpt>
      <trkpt lat="45.01941" lon="6.11781">
        <ele>1744.8</ele>
        <time>2022-12-29T11:02:29Z</time>
      </trkpt>
      <trkpt lat="45.01942" lon="6.1178">
        <ele>1744.8</ele>
        <time>2022-12-29T11:02:30Z</time>
      </trkpt>
      <trkpt lat="45.01942" lon="6.11779">
        <ele>1744.8</ele>
        <time>2022-12-29T11:02:31Z</time>
      </trkpt>
      <trkpt lat="45.01943" lon="6.11777">
        <ele>1744.8</ele>
        <time>2022-12-29T11:02:32Z</time>
      </trkpt>
      <trkpt lat="45.01944" lon="6.11776">
        <ele>1744.8</ele>
        <time>2022-12-29T11:02:33Z</time>
      </trkpt>
      <trkpt lat="45.01944" lon="6.11775">
        <ele>1744.8</ele>
        <time>2022-12-29T11:02:34Z</time>
      </trkpt>
      <trkpt lat="45.01945" lon="6.11774">
        <ele>1744.8</ele>
        <time>2022-12-29T11:02:35Z</time>
      </trkpt>
      <trkpt lat="45.01946" lon="6.11773">
        <ele>1746.4</ele>
        <time>2022-12-29T11:02:36Z</time>
      </trkpt>
      <trkpt lat="45.01946" lon="6.11772">
        <ele>1746.4</ele>
        <time>2022-12-29T11:02:37Z</time>
      </trkpt>
      <trkpt lat="45.01947" lon="6.11771">
        <ele>1746.4</ele>
        <time>2022-12-29T11:02:38Z</time>
      </trkpt>
      <trkpt lat="45.01947" lon="6.1177">
        <ele>1746.4</ele>
        <time>2022-12-29T11:02:39Z</time>
      </trkpt>
      <trkpt lat="45.01947" lon="6.11769">
        <ele>1746.4</ele>
        <time>2022-12-29T11:02:40Z</time>
      </trkpt>
      <trkpt lat="45.01948" lon="6.11768">
        <ele>1746.4</ele>
        <time>2022-12-29T11:02:41Z</time>
      </trkpt>
      <trkpt lat="45.01948" lon="6.11767">
        <ele>1746.4</ele>
        <time>2022-12-29T11:02:42Z</time>
      </trkpt>
      <trkpt lat="45.01949" lon="6.11767">
        <ele>1746.4</ele>
        <time>2022-12-29T11:02:43Z</time>
      </trkpt>
      <trkpt lat="45.01949" lon="6.11766">
        <ele>1746.4</ele>
        <time>2022-12-29T11:02:44Z</time>
      </trkpt>
      <trkpt lat="45.0195" lon="6.11765">
        <ele>1746.4</ele>
        <time>2022-12-29T11:02:45Z</time>
      </trkpt>
      <trkpt lat="45.0195" lon="6.11764">
        <ele>1747.4</ele>
        <time>2022-12-29T11:02:46Z</time>
      </trkpt>
      <trkpt lat="45.01952" lon="6.1176">
        <ele>1747.4</ele>
        <time>2022-12-29T11:02:47Z</time>
      </trkpt>
      <trkpt lat="45.01952" lon="6.11759">
        <ele>1747.4</ele>
        <time>2022-12-29T11:02:48Z</time>
      </trkpt>
      <trkpt lat="45.01953" lon="6.11759">
        <ele>1747.4</ele>
        <time>2022-12-29T11:02:49Z</time>
      </trkpt>
      <trkpt lat="45.01953" lon="6.11758">
        <ele>1747.4</ele>
        <time>2022-12-29T11:02:50Z</time>
      </trkpt>
      <trkpt lat="45.01954" lon="6.11757">
        <ele>1747.4</ele>
        <time>2022-12-29T11:02:51Z</time>
      </trkpt>
      <trkpt lat="45.01954" lon="6.11756">
        <ele>1747.4</ele>
        <time>2022-12-29T11:02:52Z</time>
      </trkpt>
      <trkpt lat="45.01955" lon="6.11756">
        <ele>1747.4</ele>
        <time>2022-12-29T11:02:53Z</time>
      </trkpt>
      <trkpt lat="45.01955" lon="6.11755">
        <ele>1747.4</ele>
        <time>2022-12-29T11:02:54Z</time>
      </trkpt>
      <trkpt lat="45.01955" lon="6.11754">
        <ele>1747.4</ele>
        <time>2022-12-29T11:02:55Z</time>
      </trkpt>
      <trkpt lat="45.01956" lon="6.11753">
        <ele>1749.4</ele>
        <time>2022-12-29T11:02:56Z</time>
      </trkpt>
      <trkpt lat="45.01956" lon="6.11753">
        <ele>1749.4</ele>
        <time>2022-12-29T11:02:57Z</time>
      </trkpt>
      <trkpt lat="45.01955" lon="6.11752">
        <ele>1749.4</ele>
        <time>2022-12-29T11:02:58Z</time>
      </trkpt>
      <trkpt lat="45.01955" lon="6.11752">
        <ele>1749.4</ele>
        <time>2022-12-29T11:02:59Z</time>
      </trkpt>
      <trkpt lat="45.01954" lon="6.11751">
        <ele>1749.4</ele>
        <time>2022-12-29T11:03:00Z</time>
      </trkpt>
      <trkpt lat="45.01954" lon="6.11751">
        <ele>1749.4</ele>
        <time>2022-12-29T11:03:01Z</time>
      </trkpt>
      <trkpt lat="45.01954" lon="6.1175">
        <ele>1749.4</ele>
        <time>2022-12-29T11:03:02Z</time>
      </trkpt>
      <trkpt lat="45.01953" lon="6.1175">
        <ele>1749.4</ele>
        <time>2022-12-29T11:03:03Z</time>
      </trkpt>
      <trkpt lat="45.01953" lon="6.11749">
        <ele>1749.4</ele>
        <time>2022-12-29T11:03:04Z</time>
      </trkpt>
      <trkpt lat="45.01952" lon="6.11749">
        <ele>1749.4</ele>
        <time>2022-12-29T11:03:05Z</time>
      </trkpt>
      <trkpt lat="45.01952" lon="6.11748">
        <ele>1751.2</ele>
        <time>2022-12-29T11:03:06Z</time>
      </trkpt>
      <trkpt lat="45.01951" lon="6.11748">
        <ele>1751.2</ele>
        <time>2022-12-29T11:03:07Z</time>
      </trkpt>
      <trkpt lat="45.01951" lon="6.11748">
        <ele>1751.2</ele>
        <time>2022-12-29T11:03:08Z</time>
      </trkpt>
      <trkpt lat="45.0195" lon="6.11748">
        <ele>1751.2</ele>
        <time>2022-12-29T11:03:09Z</time>
      </trkpt>
      <trkpt lat="45.01949" lon="6.11748">
        <ele>1751.2</ele>
        <time>2022-12-29T11:03:10Z</time>
      </trkpt>
      <trkpt lat="45.01949" lon="6.11747">
        <ele>1751.2</ele>
        <time>2022-12-29T11:03:11Z</time>
      </trkpt>
      <trkpt lat="45.01948" lon="6.11747">
        <ele>1751.2</ele>
        <time>2022-12-29T11:03:12Z</time>
      </trkpt>
      <trkpt lat="45.01947" lon="6.11747">
        <ele>1751.2</ele>
        <time>2022-12-29T11:03:13Z</time>
      </trkpt>
      <trkpt lat="45.01946" lon="6.11747">
        <ele>1751.2</ele>
        <time>2022-12-29T11:03:14Z</time>
      </trkpt>
      <trkpt lat="45.01946" lon="6.11747">
        <ele>1751.2</ele>
        <time>2022-12-29T11:03:15Z</time>
      </trkpt>
      <trkpt lat="45.01945" lon="6.11747">
        <ele>1753</ele>
        <time>2022-12-29T11:03:16Z</time>
      </trkpt>
      <trkpt lat="45.01942" lon="6.11745">
        <ele>1753</ele>
        <time>2022-12-29T11:03:17Z</time>
      </trkpt>
      <trkpt lat="45.01941" lon="6.11745">
        <ele>1753</ele>
        <time>2022-12-29T11:03:18Z</time>
      </trkpt>
      <trkpt lat="45.0194" lon="6.11745">
        <ele>1753</ele>
        <time>2022-12-29T11:03:19Z</time>
      </trkpt>
      <trkpt lat="45.0194" lon="6.11745">
        <ele>1753</ele>
        <time>2022-12-29T11:03:20Z</time>
      </trkpt>
      <trkpt lat="45.01939" lon="6.11745">
        <ele>1753</ele>
        <time>2022-12-29T11:03:21Z</time>
      </trkpt>
      <trkpt lat="45.01938" lon="6.11744">
        <ele>1753</ele>
        <time>2022-12-29T11:03:22Z</time>
      </trkpt>
      <trkpt lat="45.01938" lon="6.11744">
        <ele>1753</ele>
        <time>2022-12-29T11:03:23Z</time>
      </trkpt>
      <trkpt lat="45.01937" lon="6.11744">
        <ele>1753</ele>
        <time>2022-12-29T11:03:24Z</time>
      </trkpt>
      <trkpt lat="45.01936" lon="6.11744">
        <ele>1753</ele>
        <time>2022-12-29T11:03:25Z</time>
      </trkpt>
      <trkpt lat="45.01936" lon="6.11744">
        <ele>1755.4</ele>
        <time>2022-12-29T11:03:26Z</time>
      </trkpt>
      <trkpt lat="45.01934" lon="6.11742">
        <ele>1755.4</ele>
        <time>2022-12-29T11:03:27Z</time>
      </trkpt>
      <trkpt lat="45.01934" lon="6.11741">
        <ele>1755.4</ele>
        <time>2022-12-29T11:03:28Z</time>
      </trkpt>
      <trkpt lat="45.01933" lon="6.1174">
        <ele>1755.4</ele>
        <time>2022-12-29T11:03:29Z</time>
      </trkpt>
      <trkpt lat="45.01933" lon="6.1174">
        <ele>1755.4</ele>
        <time>2022-12-29T11:03:30Z</time>
      </trkpt>
      <trkpt lat="45.01933" lon="6.11739">
        <ele>1755.4</ele>
        <time>2022-12-29T11:03:31Z</time>
      </trkpt>
      <trkpt lat="45.01932" lon="6.11738">
        <ele>1755.4</ele>
        <time>2022-12-29T11:03:32Z</time>
      </trkpt>
      <trkpt lat="45.01932" lon="6.11737">
        <ele>1755.4</ele>
        <time>2022-12-29T11:03:33Z</time>
      </trkpt>
      <trkpt lat="45.01931" lon="6.11737">
        <ele>1755.4</ele>
        <time>2022-12-29T11:03:34Z</time>
      </trkpt>
      <trkpt lat="45.01931" lon="6.11736">
        <ele>1755.4</ele>
        <time>2022-12-29T11:03:35Z</time>
      </trkpt>
      <trkpt lat="45.0193" lon="6.11735">
        <ele>1757.4</ele>
        <time>2022-12-29T11:03:36Z</time>
      </trkpt>
      <trkpt lat="45.0193" lon="6.1173">
        <ele>1757.4</ele>
        <time>2022-12-29T11:03:37Z</time>
      </trkpt>
      <trkpt lat="45.01931" lon="6.11729">
        <ele>1757.4</ele>
        <time>2022-12-29T11:03:38Z</time>
      </trkpt>
      <trkpt lat="45.01931" lon="6.11728">
        <ele>1757.4</ele>
        <time>2022-12-29T11:03:39Z</time>
      </trkpt>
      <trkpt lat="45.01931" lon="6.11727">
        <ele>1757.4</ele>
        <time>2022-12-29T11:03:40Z</time>
      </trkpt>
      <trkpt lat="45.01932" lon="6.11726">
        <ele>1757.4</ele>
        <time>2022-12-29T11:03:41Z</time>
      </trkpt>
      <trkpt lat="45.01932" lon="6.11725">
        <ele>1757.4</ele>
        <time>2022-12-29T11:03:42Z</time>
      </trkpt>
      <trkpt lat="45.01933" lon="6.11724">
        <ele>1757.4</ele>
        <time>2022-12-29T11:03:43Z</time>
      </trkpt>
      <trkpt lat="45.01933" lon="6.11723">
        <ele>1757.4</ele>
        <time>2022-12-29T11:03:44Z</time>
      </trkpt>
      <trkpt lat="45.01934" lon="6.11722">
        <ele>1757.4</ele>
        <time>2022-12-29T11:03:45Z</time>
      </trkpt>
      <trkpt lat="45.01934" lon="6.11721">
        <ele>1759.6</ele>
        <time>2022-12-29T11:03:46Z</time>
      </trkpt>
      <trkpt lat="45.01935" lon="6.11719">
        <ele>1759.6</ele>
        <time>2022-12-29T11:03:47Z</time>
      </trkpt>
      <trkpt lat="45.01935" lon="6.11718">
        <ele>1759.6</ele>
        <time>2022-12-29T11:03:48Z</time>
      </trkpt>
      <trkpt lat="45.01936" lon="6.11718">
        <ele>1759.6</ele>
        <time>2022-12-29T11:03:49Z</time>
      </trkpt>
      <trkpt lat="45.01936" lon="6.11717">
        <ele>1759.6</ele>
        <time>2022-12-29T11:03:50Z</time>
      </trkpt>
      <trkpt lat="45.01937" lon="6.11716">
        <ele>1759.6</ele>
        <time>2022-12-29T11:03:51Z</time>
      </trkpt>
      <trkpt lat="45.01937" lon="6.11715">
        <ele>1759.6</ele>
        <time>2022-12-29T11:03:52Z</time>
      </trkpt>
      <trkpt lat="45.01938" lon="6.11714">
        <ele>1759.6</ele>
        <time>2022-12-29T11:03:53Z</time>
      </trkpt>
      <trkpt lat="45.01938" lon="6.11713">
        <ele>1759.6</ele>
        <time>2022-12-29T11:03:54Z</time>
      </trkpt>
      <trkpt lat="45.01938" lon="6.11712">
        <ele>1759.6</ele>
        <time>2022-12-29T11:03:55Z</time>
      </trkpt>
      <trkpt lat="45.01939" lon="6.11711">
        <ele>1761</ele>
        <time>2022-12-29T11:03:56Z</time>
      </trkpt>
      <trkpt lat="45.01941" lon="6.11709">
        <ele>1761</ele>
        <time>2022-12-29T11:03:57Z</time>
      </trkpt>
      <trkpt lat="45.01941" lon="6.11708">
        <ele>1761</ele>
        <time>2022-12-29T11:03:58Z</time>
      </trkpt>
      <trkpt lat="45.01942" lon="6.11707">
        <ele>1761</ele>
        <time>2022-12-29T11:03:59Z</time>
      </trkpt>
      <trkpt lat="45.01942" lon="6.11706">
        <ele>1761</ele>
        <time>2022-12-29T11:04:00Z</time>
      </trkpt>
      <trkpt lat="45.01942" lon="6.11705">
        <ele>1761</ele>
        <time>2022-12-29T11:04:01Z</time>
      </trkpt>
      <trkpt lat="45.01943" lon="6.11704">
        <ele>1761</ele>
        <time>2022-12-29T11:04:02Z</time>
      </trkpt>
      <trkpt lat="45.01943" lon="6.11703">
        <ele>1761</ele>
        <time>2022-12-29T11:04:03Z</time>
      </trkpt>
      <trkpt lat="45.01944" lon="6.11702">
        <ele>1761</ele>
        <time>2022-12-29T11:04:04Z</time>
      </trkpt>
      <trkpt lat="45.01944" lon="6.11701">
        <ele>1761</ele>
        <time>2022-12-29T11:04:05Z</time>
      </trkpt>
      <trkpt lat="45.01945" lon="6.117">
        <ele>1762.8</ele>
        <time>2022-12-29T11:04:06Z</time>
      </trkpt>
      <trkpt lat="45.01944" lon="6.11699">
        <ele>1762.8</ele>
        <time>2022-12-29T11:04:07Z</time>
      </trkpt>
      <trkpt lat="45.01944" lon="6.11699">
        <ele>1762.8</ele>
        <time>2022-12-29T11:04:08Z</time>
      </trkpt>
      <trkpt lat="45.01944" lon="6.11698">
        <ele>1762.8</ele>
        <time>2022-12-29T11:04:09Z</time>
      </trkpt>
      <trkpt lat="45.01944" lon="6.11697">
        <ele>1762.8</ele>
        <time>2022-12-29T11:04:10Z</time>
      </trkpt>
      <trkpt lat="45.01943" lon="6.11696">
        <ele>1762.8</ele>
        <time>2022-12-29T11:04:11Z</time>
      </trkpt>
      <trkpt lat="45.01943" lon="6.11695">
        <ele>1762.8</ele>
        <time>2022-12-29T11:04:12Z</time>
      </trkpt>
      <trkpt lat="45.01943" lon="6.11694">
        <ele>1762.8</ele>
        <time>2022-12-29T11:04:13Z</time>
      </trkpt>
      <trkpt lat="45.01943" lon="6.11693">
        <ele>1762.8</ele>
        <time>2022-12-29T11:04:14Z</time>
      </trkpt>
      <trkpt lat="45.01942" lon="6.11692">
        <ele>1762.8</ele>
        <time>2022-12-29T11:04:15Z</time>
      </trkpt>
      <trkpt lat="45.01942" lon="6.11691">
        <ele>1764.2</ele>
        <time>2022-12-29T11:04:16Z</time>
      </trkpt>
      <trkpt lat="45.01941" lon="6.11691">
        <ele>1764.2</ele>
        <time>2022-12-29T11:04:17Z</time>
      </trkpt>
      <trkpt lat="45.01941" lon="6.1169">
        <ele>1764.2</ele>
        <time>2022-12-29T11:04:18Z</time>
      </trkpt>
      <trkpt lat="45.0194" lon="6.1169">
        <ele>1764.2</ele>
        <time>2022-12-29T11:04:19Z</time>
      </trkpt>
      <trkpt lat="45.01939" lon="6.1169">
        <ele>1764.2</ele>
        <time>2022-12-29T11:04:20Z</time>
      </trkpt>
      <trkpt lat="45.01939" lon="6.1169">
        <ele>1764.2</ele>
        <time>2022-12-29T11:04:21Z</time>
      </trkpt>
      <trkpt lat="45.01938" lon="6.11689">
        <ele>1764.2</ele>
        <time>2022-12-29T11:04:22Z</time>
      </trkpt>
      <trkpt lat="45.01937" lon="6.11689">
        <ele>1764.2</ele>
        <time>2022-12-29T11:04:23Z</time>
      </trkpt>
      <trkpt lat="45.01936" lon="6.11689">
        <ele>1764.2</ele>
        <time>2022-12-29T11:04:24Z</time>
      </trkpt>
      <trkpt lat="45.01936" lon="6.11688">
        <ele>1764.2</ele>
        <time>2022-12-29T11:04:25Z</time>
      </trkpt>
      <trkpt lat="45.01935" lon="6.11688">
        <ele>1765.6</ele>
        <time>2022-12-29T11:04:26Z</time>
      </trkpt>
      <trkpt lat="45.01932" lon="6.11686">
        <ele>1765.6</ele>
        <time>2022-12-29T11:04:27Z</time>
      </trkpt>
      <trkpt lat="45.01931" lon="6.11686">
        <ele>1765.6</ele>
        <time>2022-12-29T11:04:28Z</time>
      </trkpt>
      <trkpt lat="45.01931" lon="6.11686">
        <ele>1765.6</ele>
        <time>2022-12-29T11:04:29Z</time>
      </trkpt>
      <trkpt lat="45.0193" lon="6.11685">
        <ele>1765.6</ele>
        <time>2022-12-29T11:04:30Z</time>
      </trkpt>
      <trkpt lat="45.01929" lon="6.11685">
        <ele>1765.6</ele>
        <time>2022-12-29T11:04:31Z</time>
      </trkpt>
      <trkpt lat="45.01929" lon="6.11685">
        <ele>1765.6</ele>
        <time>2022-12-29T11:04:32Z</time>
      </trkpt>
      <trkpt lat="45.01928" lon="6.11685">
        <ele>1765.6</ele>
        <time>2022-12-29T11:04:33Z</time>
      </trkpt>
      <trkpt lat="45.01927" lon="6.11684">
        <ele>1765.6</ele>
        <time>2022-12-29T11:04:34Z</time>
      </trkpt>
      <trkpt lat="45.01927" lon="6.11684">
        <ele>1765.6</ele>
        <time>2022-12-29T11:04:35Z</time>
      </trkpt>
      <trkpt lat="45.01926" lon="6.11684">
        <ele>1767</ele>
        <time>2022-12-29T11:04:36Z</time>
      </trkpt>
      <trkpt lat="45.01925" lon="6.11683">
        <ele>1767</ele>
        <time>2022-12-29T11:04:37Z</time>
      </trkpt>
      <trkpt lat="45.01925" lon="6.11683">
        <ele>1767</ele>
        <time>2022-12-29T11:04:38Z</time>
      </trkpt>
      <trkpt lat="45.01924" lon="6.11682">
        <ele>1767</ele>
        <time>2022-12-29T11:04:39Z</time>
      </trkpt>
      <trkpt lat="45.01924" lon="6.11682">
        <ele>1767</ele>
        <time>2022-12-29T11:04:40Z</time>
      </trkpt>
      <trkpt lat="45.01923" lon="6.11682">
        <ele>1767</ele>
        <time>2022-12-29T11:04:41Z</time>
      </trkpt>
      <trkpt lat="45.01922" lon="6.11681">
        <ele>1767</ele>
        <time>2022-12-29T11:04:42Z</time>
      </trkpt>
      <trkpt lat="45.01922" lon="6.11681">
        <ele>1767</ele>
        <time>2022-12-29T11:04:43Z</time>
      </trkpt>
      <trkpt lat="45.01921" lon="6.1168">
        <ele>1767</ele>
        <time>2022-12-29T11:04:44Z</time>
      </trkpt>
      <trkpt lat="45.01921" lon="6.1168">
        <ele>1767</ele>
        <time>2022-12-29T11:04:45Z</time>
      </trkpt>
      <trkpt lat="45.0192" lon="6.1168">
        <ele>1768.8</ele>
        <time>2022-12-29T11:04:46Z</time>
      </trkpt>
      <trkpt lat="45.01917" lon="6.11678">
        <ele>1768.8</ele>
        <time>2022-12-29T11:04:47Z</time>
      </trkpt>
      <trkpt lat="45.01917" lon="6.11677">
        <ele>1768.8</ele>
        <time>2022-12-29T11:04:48Z</time>
      </trkpt>
      <trkpt lat="45.01916" lon="6.11677">
        <ele>1768.8</ele>
        <time>2022-12-29T11:04:49Z</time>
      </trkpt>
      <trkpt lat="45.01916" lon="6.11677">
        <ele>1768.8</ele>
        <time>2022-12-29T11:04:50Z</time>
      </trkpt>
      <trkpt lat="45.01915" lon="6.11676">
        <ele>1768.8</ele>
        <time>2022-12-29T11:04:51Z</time>
      </trkpt>
      <trkpt lat="45.01915" lon="6.11676">
        <ele>1768.8</ele>
        <time>2022-12-29T11:04:52Z</time>
      </trkpt>
      <trkpt lat="45.01914" lon="6.11676">
        <ele>1768.8</ele>
        <time>2022-12-29T11:04:53Z</time>
      </trkpt>
      <trkpt lat="45.01913" lon="6.11675">
        <ele>1768.8</ele>
        <time>2022-12-29T11:04:54Z</time>
      </trkpt>
      <trkpt lat="45.01913" lon="6.11675">
        <ele>1768.8</ele>
        <time>2022-12-29T11:04:55Z</time>
      </trkpt>
      <trkpt lat="45.01912" lon="6.11675">
        <ele>1770.6</ele>
        <time>2022-12-29T11:04:56Z</time>
      </trkpt>
      <trkpt lat="45.0191" lon="6.11674">
        <ele>1770.6</ele>
        <time>2022-12-29T11:04:57Z</time>
      </trkpt>
      <trkpt lat="45.01909" lon="6.11674">
        <ele>1770.6</ele>
        <time>2022-12-29T11:04:58Z</time>
      </trkpt>
      <trkpt lat="45.01909" lon="6.11674">
        <ele>1770.6</ele>
        <time>2022-12-29T11:04:59Z</time>
      </trkpt>
      <trkpt lat="45.01909" lon="6.11674">
        <ele>1770.6</ele>
        <time>2022-12-29T11:05:00Z</time>
      </trkpt>
      <trkpt lat="45.01909" lon="6.11674">
        <ele>1770.6</ele>
        <time>2022-12-29T11:05:01Z</time>
      </trkpt>
      <trkpt lat="45.01908" lon="6.11674">
        <ele>1770.6</ele>
        <time>2022-12-29T11:05:02Z</time>
      </trkpt>
      <trkpt lat="45.01908" lon="6.11674">
        <ele>1770.6</ele>
        <time>2022-12-29T11:05:03Z</time>
      </trkpt>
      <trkpt lat="45.01908" lon="6.11674">
        <ele>1770.6</ele>
        <time>2022-12-29T11:05:04Z</time>
      </trkpt>
      <trkpt lat="45.01908" lon="6.11674">
        <ele>1770.6</ele>
        <time>2022-12-29T11:05:05Z</time>
      </trkpt>
      <trkpt lat="45.01907" lon="6.11674">
        <ele>1772.8</ele>
        <time>2022-12-29T11:05:06Z</time>
      </trkpt>
      <trkpt lat="45.01908" lon="6.1167">
        <ele>1772.8</ele>
        <time>2022-12-29T11:05:07Z</time>
      </trkpt>
      <trkpt lat="45.01909" lon="6.11669">
        <ele>1772.8</ele>
        <time>2022-12-29T11:05:08Z</time>
      </trkpt>
      <trkpt lat="45.01909" lon="6.11669">
        <ele>1772.8</ele>
        <time>2022-12-29T11:05:09Z</time>
      </trkpt>
      <trkpt lat="45.0191" lon="6.11668">
        <ele>1772.8</ele>
        <time>2022-12-29T11:05:10Z</time>
      </trkpt>
      <trkpt lat="45.01911" lon="6.11667">
        <ele>1772.8</ele>
        <time>2022-12-29T11:05:11Z</time>
      </trkpt>
      <trkpt lat="45.01911" lon="6.11667">
        <ele>1772.8</ele>
        <time>2022-12-29T11:05:12Z</time>
      </trkpt>
      <trkpt lat="45.01912" lon="6.11666">
        <ele>1772.8</ele>
        <time>2022-12-29T11:05:13Z</time>
      </trkpt>
      <trkpt lat="45.01912" lon="6.11666">
        <ele>1772.8</ele>
        <time>2022-12-29T11:05:14Z</time>
      </trkpt>
      <trkpt lat="45.01913" lon="6.11665">
        <ele>1772.8</ele>
        <time>2022-12-29T11:05:15Z</time>
      </trkpt>
      <trkpt lat="45.01913" lon="6.11664">
        <ele>1775.2</ele>
        <time>2022-12-29T11:05:16Z</time>
      </trkpt>
      <trkpt lat="45.01915" lon="6.11663">
        <ele>1775.2</ele>
        <time>2022-12-29T11:05:17Z</time>
      </trkpt>
      <trkpt lat="45.01916" lon="6.11662">
        <ele>1775.2</ele>
        <time>2022-12-29T11:05:18Z</time>
      </trkpt>
      <trkpt lat="45.01917" lon="6.11662">
        <ele>1775.2</ele>
        <time>2022-12-29T11:05:19Z</time>
      </trkpt>
      <trkpt lat="45.01917" lon="6.11661">
        <ele>1775.2</ele>
        <time>2022-12-29T11:05:20Z</time>
      </trkpt>
      <trkpt lat="45.01918" lon="6.11661">
        <ele>1775.2</ele>
        <time>2022-12-29T11:05:21Z</time>
      </trkpt>
      <trkpt lat="45.01919" lon="6.1166">
        <ele>1775.2</ele>
        <time>2022-12-29T11:05:22Z</time>
      </trkpt>
      <trkpt lat="45.0192" lon="6.1166">
        <ele>1775.2</ele>
        <time>2022-12-29T11:05:23Z</time>
      </trkpt>
      <trkpt lat="45.0192" lon="6.11659">
        <ele>1775.2</ele>
        <time>2022-12-29T11:05:24Z</time>
      </trkpt>
      <trkpt lat="45.01921" lon="6.11659">
        <ele>1775.2</ele>
        <time>2022-12-29T11:05:25Z</time>
      </trkpt>
      <trkpt lat="45.01922" lon="6.11658">
        <ele>1776.8</ele>
        <time>2022-12-29T11:05:26Z</time>
      </trkpt>
      <trkpt lat="45.01925" lon="6.11656">
        <ele>1776.8</ele>
        <time>2022-12-29T11:05:27Z</time>
      </trkpt>
      <trkpt lat="45.01925" lon="6.11656">
        <ele>1776.8</ele>
        <time>2022-12-29T11:05:28Z</time>
      </trkpt>
      <trkpt lat="45.01926" lon="6.11655">
        <ele>1776.8</ele>
        <time>2022-12-29T11:05:29Z</time>
      </trkpt>
      <trkpt lat="45.01926" lon="6.11655">
        <ele>1776.8</ele>
        <time>2022-12-29T11:05:30Z</time>
      </trkpt>
      <trkpt lat="45.01927" lon="6.11654">
        <ele>1776.8</ele>
        <time>2022-12-29T11:05:31Z</time>
      </trkpt>
      <trkpt lat="45.01927" lon="6.11654">
        <ele>1776.8</ele>
        <time>2022-12-29T11:05:32Z</time>
      </trkpt>
      <trkpt lat="45.01928" lon="6.11653">
        <ele>1776.8</ele>
        <time>2022-12-29T11:05:33Z</time>
      </trkpt>
      <trkpt lat="45.01929" lon="6.11653">
        <ele>1776.8</ele>
        <time>2022-12-29T11:05:34Z</time>
      </trkpt>
      <trkpt lat="45.01929" lon="6.11652">
        <ele>1776.8</ele>
        <time>2022-12-29T11:05:35Z</time>
      </trkpt>
      <trkpt lat="45.0193" lon="6.11652">
        <ele>1778.2</ele>
        <time>2022-12-29T11:05:36Z</time>
      </trkpt>
      <trkpt lat="45.01932" lon="6.1165">
        <ele>1778.2</ele>
        <time>2022-12-29T11:05:37Z</time>
      </trkpt>
      <trkpt lat="45.01933" lon="6.11649">
        <ele>1778.2</ele>
        <time>2022-12-29T11:05:38Z</time>
      </trkpt>
      <trkpt lat="45.01934" lon="6.11649">
        <ele>1778.2</ele>
        <time>2022-12-29T11:05:39Z</time>
      </trkpt>
      <trkpt lat="45.01934" lon="6.11649">
        <ele>1778.2</ele>
        <time>2022-12-29T11:05:40Z</time>
      </trkpt>
      <trkpt lat="45.01935" lon="6.11648">
        <ele>1778.2</ele>
        <time>2022-12-29T11:05:41Z</time>
      </trkpt>
      <trkpt lat="45.01935" lon="6.11648">
        <ele>1778.2</ele>
        <time>2022-12-29T11:05:42Z</time>
      </trkpt>
      <trkpt lat="45.01936" lon="6.11647">
        <ele>1778.2</ele>
        <time>2022-12-29T11:05:43Z</time>
      </trkpt>
      <trkpt lat="45.01936" lon="6.11647">
        <ele>1778.2</ele>
        <time>2022-12-29T11:05:44Z</time>
      </trkpt>
      <trkpt lat="45.01937" lon="6.11647">
        <ele>1778.2</ele>
        <time>2022-12-29T11:05:45Z</time>
      </trkpt>
      <trkpt lat="45.01938" lon="6.11646">
        <ele>1780.2</ele>
        <time>2022-12-29T11:05:46Z</time>
      </trkpt>
      <trkpt lat="45.01939" lon="6.11646">
        <ele>1780.2</ele>
        <time>2022-12-29T11:05:47Z</time>
      </trkpt>
      <trkpt lat="45.01939" lon="6.11646">
        <ele>1780.2</ele>
        <time>2022-12-29T11:05:48Z</time>
      </trkpt>
      <trkpt lat="45.01941" lon="6.11644">
        <ele>1780.2</ele>
        <time>2022-12-29T11:05:49Z</time>
      </trkpt>
      <trkpt lat="45.01941" lon="6.11644">
        <ele>1780.2</ele>
        <time>2022-12-29T11:05:50Z</time>
      </trkpt>
      <trkpt lat="45.01941" lon="6.11644">
        <ele>1780.2</ele>
        <time>2022-12-29T11:05:51Z</time>
      </trkpt>
      <trkpt lat="45.01941" lon="6.11644">
        <ele>1780.2</ele>
        <time>2022-12-29T11:05:52Z</time>
      </trkpt>
      <trkpt lat="45.01941" lon="6.11644">
        <ele>1780.2</ele>
        <time>2022-12-29T11:05:53Z</time>
      </trkpt>
      <trkpt lat="45.01941" lon="6.11644">
        <ele>1780.2</ele>
        <time>2022-12-29T11:05:54Z</time>
      </trkpt>
      <trkpt lat="45.01941" lon="6.11644">
        <ele>1780.2</ele>
        <time>2022-12-29T11:05:55Z</time>
      </trkpt>
      <trkpt lat="45.01941" lon="6.11644">
        <ele>1781.4</ele>
        <time>2022-12-29T11:05:56Z</time>
      </trkpt>
      <trkpt lat="45.0194" lon="6.11644">
        <ele>1781.4</ele>
        <time>2022-12-29T11:05:58Z</time>
      </trkpt>
      <trkpt lat="45.01939" lon="6.11644">
        <ele>1781.4</ele>
        <time>2022-12-29T11:05:59Z</time>
      </trkpt>
      <trkpt lat="45.01939" lon="6.11644">
        <ele>1781.4</ele>
        <time>2022-12-29T11:06:00Z</time>
      </trkpt>
      <trkpt lat="45.01938" lon="6.11644">
        <ele>1781.4</ele>
        <time>2022-12-29T11:06:01Z</time>
      </trkpt>
      <trkpt lat="45.01937" lon="6.11644">
        <ele>1781.4</ele>
        <time>2022-12-29T11:06:02Z</time>
      </trkpt>
      <trkpt lat="45.01936" lon="6.11644">
        <ele>1781.4</ele>
        <time>2022-12-29T11:06:03Z</time>
      </trkpt>
      <trkpt lat="45.01935" lon="6.11644">
        <ele>1781.4</ele>
        <time>2022-12-29T11:06:04Z</time>
      </trkpt>
      <trkpt lat="45.01935" lon="6.11644">
        <ele>1781.4</ele>
        <time>2022-12-29T11:06:05Z</time>
      </trkpt>
      <trkpt lat="45.01934" lon="6.11644">
        <ele>1781.6</ele>
        <time>2022-12-29T11:06:06Z</time>
      </trkpt>
      <trkpt lat="45.01933" lon="6.11644">
        <ele>1781.6</ele>
        <time>2022-12-29T11:06:07Z</time>
      </trkpt>
      <trkpt lat="45.01932" lon="6.11643">
        <ele>1781.6</ele>
        <time>2022-12-29T11:06:08Z</time>
      </trkpt>
      <trkpt lat="45.01931" lon="6.11643">
        <ele>1781.6</ele>
        <time>2022-12-29T11:06:09Z</time>
      </trkpt>
      <trkpt lat="45.0193" lon="6.11643">
        <ele>1781.6</ele>
        <time>2022-12-29T11:06:10Z</time>
      </trkpt>
      <trkpt lat="45.01929" lon="6.11642">
        <ele>1781.6</ele>
        <time>2022-12-29T11:06:11Z</time>
      </trkpt>
      <trkpt lat="45.01928" lon="6.11642">
        <ele>1781.6</ele>
        <time>2022-12-29T11:06:12Z</time>
      </trkpt>
      <trkpt lat="45.01928" lon="6.11642">
        <ele>1781.6</ele>
        <time>2022-12-29T11:06:13Z</time>
      </trkpt>
      <trkpt lat="45.01927" lon="6.11642">
        <ele>1781.6</ele>
        <time>2022-12-29T11:06:14Z</time>
      </trkpt>
      <trkpt lat="45.01926" lon="6.11641">
        <ele>1781.6</ele>
        <time>2022-12-29T11:06:15Z</time>
      </trkpt>
      <trkpt lat="45.01925" lon="6.11641">
        <ele>1783.8</ele>
        <time>2022-12-29T11:06:16Z</time>
      </trkpt>
      <trkpt lat="45.01924" lon="6.1164">
        <ele>1783.8</ele>
        <time>2022-12-29T11:06:17Z</time>
      </trkpt>
      <trkpt lat="45.01924" lon="6.1164">
        <ele>1783.8</ele>
        <time>2022-12-29T11:06:18Z</time>
      </trkpt>
      <trkpt lat="45.01923" lon="6.11639">
        <ele>1783.8</ele>
        <time>2022-12-29T11:06:19Z</time>
      </trkpt>
      <trkpt lat="45.01922" lon="6.11639">
        <ele>1783.8</ele>
        <time>2022-12-29T11:06:20Z</time>
      </trkpt>
      <trkpt lat="45.01922" lon="6.11638">
        <ele>1783.8</ele>
        <time>2022-12-29T11:06:21Z</time>
      </trkpt>
      <trkpt lat="45.01921" lon="6.11638">
        <ele>1783.8</ele>
        <time>2022-12-29T11:06:22Z</time>
      </trkpt>
      <trkpt lat="45.0192" lon="6.11637">
        <ele>1783.8</ele>
        <time>2022-12-29T11:06:23Z</time>
      </trkpt>
      <trkpt lat="45.0192" lon="6.11637">
        <ele>1783.8</ele>
        <time>2022-12-29T11:06:24Z</time>
      </trkpt>
      <trkpt lat="45.01919" lon="6.11636">
        <ele>1783.8</ele>
        <time>2022-12-29T11:06:25Z</time>
      </trkpt>
      <trkpt lat="45.01918" lon="6.11636">
        <ele>1786</ele>
        <time>2022-12-29T11:06:26Z</time>
      </trkpt>
      <trkpt lat="45.01916" lon="6.11634">
        <ele>1786</ele>
        <time>2022-12-29T11:06:27Z</time>
      </trkpt>
      <trkpt lat="45.01915" lon="6.11633">
        <ele>1786</ele>
        <time>2022-12-29T11:06:28Z</time>
      </trkpt>
      <trkpt lat="45.01915" lon="6.11633">
        <ele>1786</ele>
        <time>2022-12-29T11:06:29Z</time>
      </trkpt>
      <trkpt lat="45.01914" lon="6.11633">
        <ele>1786</ele>
        <time>2022-12-29T11:06:30Z</time>
      </trkpt>
      <trkpt lat="45.01913" lon="6.11632">
        <ele>1786</ele>
        <time>2022-12-29T11:06:31Z</time>
      </trkpt>
      <trkpt lat="45.01913" lon="6.11632">
        <ele>1786</ele>
        <time>2022-12-29T11:06:32Z</time>
      </trkpt>
      <trkpt lat="45.01912" lon="6.11631">
        <ele>1786</ele>
        <time>2022-12-29T11:06:33Z</time>
      </trkpt>
      <trkpt lat="45.01911" lon="6.11631">
        <ele>1786</ele>
        <time>2022-12-29T11:06:34Z</time>
      </trkpt>
      <trkpt lat="45.01911" lon="6.11631">
        <ele>1786</ele>
        <time>2022-12-29T11:06:35Z</time>
      </trkpt>
      <trkpt lat="45.0191" lon="6.1163">
        <ele>1788.2</ele>
        <time>2022-12-29T11:06:36Z</time>
      </trkpt>
      <trkpt lat="45.01909" lon="6.11627">
        <ele>1788.2</ele>
        <time>2022-12-29T11:06:37Z</time>
      </trkpt>
      <trkpt lat="45.01908" lon="6.11627">
        <ele>1788.2</ele>
        <time>2022-12-29T11:06:38Z</time>
      </trkpt>
      <trkpt lat="45.01908" lon="6.11626">
        <ele>1788.2</ele>
        <time>2022-12-29T11:06:39Z</time>
      </trkpt>
      <trkpt lat="45.01907" lon="6.11625">
        <ele>1788.2</ele>
        <time>2022-12-29T11:06:40Z</time>
      </trkpt>
      <trkpt lat="45.01907" lon="6.11625">
        <ele>1788.2</ele>
        <time>2022-12-29T11:06:41Z</time>
      </trkpt>
      <trkpt lat="45.01906" lon="6.11624">
        <ele>1788.2</ele>
        <time>2022-12-29T11:06:42Z</time>
      </trkpt>
      <trkpt lat="45.01906" lon="6.11623">
        <ele>1788.2</ele>
        <time>2022-12-29T11:06:43Z</time>
      </trkpt>
      <trkpt lat="45.01906" lon="6.11622">
        <ele>1788.2</ele>
        <time>2022-12-29T11:06:44Z</time>
      </trkpt>
      <trkpt lat="45.01905" lon="6.11622">
        <ele>1788.2</ele>
        <time>2022-12-29T11:06:45Z</time>
      </trkpt>
      <trkpt lat="45.01905" lon="6.11621">
        <ele>1790</ele>
        <time>2022-12-29T11:06:46Z</time>
      </trkpt>
      <trkpt lat="45.01904" lon="6.11621">
        <ele>1790</ele>
        <time>2022-12-29T11:06:47Z</time>
      </trkpt>
      <trkpt lat="45.01904" lon="6.1162">
        <ele>1790</ele>
        <time>2022-12-29T11:06:48Z</time>
      </trkpt>
      <trkpt lat="45.01903" lon="6.1162">
        <ele>1790</ele>
        <time>2022-12-29T11:06:49Z</time>
      </trkpt>
      <trkpt lat="45.01903" lon="6.11619">
        <ele>1790</ele>
        <time>2022-12-29T11:06:50Z</time>
      </trkpt>
      <trkpt lat="45.01902" lon="6.11619">
        <ele>1790</ele>
        <time>2022-12-29T11:06:51Z</time>
      </trkpt>
      <trkpt lat="45.01901" lon="6.11618">
        <ele>1790</ele>
        <time>2022-12-29T11:06:52Z</time>
      </trkpt>
      <trkpt lat="45.01901" lon="6.11618">
        <ele>1790</ele>
        <time>2022-12-29T11:06:53Z</time>
      </trkpt>
      <trkpt lat="45.019" lon="6.11617">
        <ele>1790</ele>
        <time>2022-12-29T11:06:54Z</time>
      </trkpt>
      <trkpt lat="45.019" lon="6.11617">
        <ele>1790</ele>
        <time>2022-12-29T11:06:55Z</time>
      </trkpt>
      <trkpt lat="45.01899" lon="6.11616">
        <ele>1792</ele>
        <time>2022-12-29T11:06:56Z</time>
      </trkpt>
      <trkpt lat="45.01897" lon="6.11614">
        <ele>1792</ele>
        <time>2022-12-29T11:06:57Z</time>
      </trkpt>
      <trkpt lat="45.01896" lon="6.11613">
        <ele>1792</ele>
        <time>2022-12-29T11:06:58Z</time>
      </trkpt>
      <trkpt lat="45.01896" lon="6.11613">
        <ele>1792</ele>
        <time>2022-12-29T11:06:59Z</time>
      </trkpt>
      <trkpt lat="45.01896" lon="6.11612">
        <ele>1792</ele>
        <time>2022-12-29T11:07:00Z</time>
      </trkpt>
      <trkpt lat="45.01895" lon="6.11611">
        <ele>1792</ele>
        <time>2022-12-29T11:07:01Z</time>
      </trkpt>
      <trkpt lat="45.01895" lon="6.11611">
        <ele>1792</ele>
        <time>2022-12-29T11:07:02Z</time>
      </trkpt>
      <trkpt lat="45.01894" lon="6.1161">
        <ele>1792</ele>
        <time>2022-12-29T11:07:03Z</time>
      </trkpt>
      <trkpt lat="45.01894" lon="6.11609">
        <ele>1792</ele>
        <time>2022-12-29T11:07:04Z</time>
      </trkpt>
      <trkpt lat="45.01893" lon="6.11608">
        <ele>1792</ele>
        <time>2022-12-29T11:07:05Z</time>
      </trkpt>
      <trkpt lat="45.01893" lon="6.11608">
        <ele>1794</ele>
        <time>2022-12-29T11:07:06Z</time>
      </trkpt>
      <trkpt lat="45.01892" lon="6.11607">
        <ele>1794</ele>
        <time>2022-12-29T11:07:07Z</time>
      </trkpt>
      <trkpt lat="45.01892" lon="6.11607">
        <ele>1794</ele>
        <time>2022-12-29T11:07:08Z</time>
      </trkpt>
      <trkpt lat="45.01891" lon="6.11606">
        <ele>1794</ele>
        <time>2022-12-29T11:07:09Z</time>
      </trkpt>
      <trkpt lat="45.01891" lon="6.11606">
        <ele>1794</ele>
        <time>2022-12-29T11:07:10Z</time>
      </trkpt>
      <trkpt lat="45.0189" lon="6.11605">
        <ele>1794</ele>
        <time>2022-12-29T11:07:11Z</time>
      </trkpt>
      <trkpt lat="45.0189" lon="6.11605">
        <ele>1794</ele>
        <time>2022-12-29T11:07:12Z</time>
      </trkpt>
      <trkpt lat="45.01889" lon="6.11604">
        <ele>1794</ele>
        <time>2022-12-29T11:07:13Z</time>
      </trkpt>
      <trkpt lat="45.01889" lon="6.11604">
        <ele>1794</ele>
        <time>2022-12-29T11:07:14Z</time>
      </trkpt>
      <trkpt lat="45.01889" lon="6.11603">
        <ele>1794</ele>
        <time>2022-12-29T11:07:15Z</time>
      </trkpt>
      <trkpt lat="45.01888" lon="6.11603">
        <ele>1796</ele>
        <time>2022-12-29T11:07:16Z</time>
      </trkpt>
      <trkpt lat="45.01886" lon="6.11601">
        <ele>1796</ele>
        <time>2022-12-29T11:07:17Z</time>
      </trkpt>
      <trkpt lat="45.01885" lon="6.116">
        <ele>1796</ele>
        <time>2022-12-29T11:07:18Z</time>
      </trkpt>
      <trkpt lat="45.01885" lon="6.11599">
        <ele>1796</ele>
        <time>2022-12-29T11:07:19Z</time>
      </trkpt>
      <trkpt lat="45.01885" lon="6.11598">
        <ele>1796</ele>
        <time>2022-12-29T11:07:20Z</time>
      </trkpt>
      <trkpt lat="45.01884" lon="6.11598">
        <ele>1796</ele>
        <time>2022-12-29T11:07:21Z</time>
      </trkpt>
      <trkpt lat="45.01884" lon="6.11597">
        <ele>1796</ele>
        <time>2022-12-29T11:07:22Z</time>
      </trkpt>
      <trkpt lat="45.01884" lon="6.11596">
        <ele>1796</ele>
        <time>2022-12-29T11:07:23Z</time>
      </trkpt>
      <trkpt lat="45.01883" lon="6.11596">
        <ele>1796</ele>
        <time>2022-12-29T11:07:24Z</time>
      </trkpt>
      <trkpt lat="45.01883" lon="6.11595">
        <ele>1796</ele>
        <time>2022-12-29T11:07:25Z</time>
      </trkpt>
      <trkpt lat="45.01883" lon="6.11594">
        <ele>1797.8</ele>
        <time>2022-12-29T11:07:26Z</time>
      </trkpt>
      <trkpt lat="45.01882" lon="6.11594">
        <ele>1797.8</ele>
        <time>2022-12-29T11:07:27Z</time>
      </trkpt>
      <trkpt lat="45.01881" lon="6.11594">
        <ele>1797.8</ele>
        <time>2022-12-29T11:07:28Z</time>
      </trkpt>
      <trkpt lat="45.01881" lon="6.11593">
        <ele>1797.8</ele>
        <time>2022-12-29T11:07:29Z</time>
      </trkpt>
      <trkpt lat="45.0188" lon="6.11593">
        <ele>1797.8</ele>
        <time>2022-12-29T11:07:30Z</time>
      </trkpt>
      <trkpt lat="45.0188" lon="6.11593">
        <ele>1797.8</ele>
        <time>2022-12-29T11:07:31Z</time>
      </trkpt>
      <trkpt lat="45.01879" lon="6.11592">
        <ele>1797.8</ele>
        <time>2022-12-29T11:07:32Z</time>
      </trkpt>
      <trkpt lat="45.01879" lon="6.11592">
        <ele>1797.8</ele>
        <time>2022-12-29T11:07:33Z</time>
      </trkpt>
      <trkpt lat="45.01878" lon="6.11592">
        <ele>1797.8</ele>
        <time>2022-12-29T11:07:34Z</time>
      </trkpt>
      <trkpt lat="45.01877" lon="6.11592">
        <ele>1797.8</ele>
        <time>2022-12-29T11:07:35Z</time>
      </trkpt>
      <trkpt lat="45.01877" lon="6.11591">
        <ele>1799.8</ele>
        <time>2022-12-29T11:07:36Z</time>
      </trkpt>
      <trkpt lat="45.01875" lon="6.11591">
        <ele>1799.8</ele>
        <time>2022-12-29T11:07:37Z</time>
      </trkpt>
      <trkpt lat="45.01874" lon="6.11591">
        <ele>1799.8</ele>
        <time>2022-12-29T11:07:38Z</time>
      </trkpt>
      <trkpt lat="45.01874" lon="6.11591">
        <ele>1799.8</ele>
        <time>2022-12-29T11:07:39Z</time>
      </trkpt>
      <trkpt lat="45.01873" lon="6.1159">
        <ele>1799.8</ele>
        <time>2022-12-29T11:07:40Z</time>
      </trkpt>
      <trkpt lat="45.01873" lon="6.1159">
        <ele>1799.8</ele>
        <time>2022-12-29T11:07:41Z</time>
      </trkpt>
      <trkpt lat="45.01873" lon="6.1159">
        <ele>1799.8</ele>
        <time>2022-12-29T11:07:42Z</time>
      </trkpt>
      <trkpt lat="45.01872" lon="6.1159">
        <ele>1799.8</ele>
        <time>2022-12-29T11:07:43Z</time>
      </trkpt>
      <trkpt lat="45.01872" lon="6.11589">
        <ele>1799.8</ele>
        <time>2022-12-29T11:07:44Z</time>
      </trkpt>
      <trkpt lat="45.01871" lon="6.11589">
        <ele>1799.8</ele>
        <time>2022-12-29T11:07:45Z</time>
      </trkpt>
      <trkpt lat="45.01871" lon="6.11589">
        <ele>1801.6</ele>
        <time>2022-12-29T11:07:46Z</time>
      </trkpt>
      <trkpt lat="45.01871" lon="6.11589">
        <ele>1801.6</ele>
        <time>2022-12-29T11:07:47Z</time>
      </trkpt>
      <trkpt lat="45.0187" lon="6.11588">
        <ele>1801.6</ele>
        <time>2022-12-29T11:07:48Z</time>
      </trkpt>
      <trkpt lat="45.0187" lon="6.11588">
        <ele>1801.6</ele>
        <time>2022-12-29T11:07:49Z</time>
      </trkpt>
      <trkpt lat="45.0187" lon="6.11588">
        <ele>1801.6</ele>
        <time>2022-12-29T11:07:50Z</time>
      </trkpt>
      <trkpt lat="45.01869" lon="6.11587">
        <ele>1801.6</ele>
        <time>2022-12-29T11:07:51Z</time>
      </trkpt>
      <trkpt lat="45.01869" lon="6.11587">
        <ele>1801.6</ele>
        <time>2022-12-29T11:07:52Z</time>
      </trkpt>
      <trkpt lat="45.01869" lon="6.11587">
        <ele>1801.6</ele>
        <time>2022-12-29T11:07:53Z</time>
      </trkpt>
      <trkpt lat="45.01868" lon="6.11586">
        <ele>1801.6</ele>
        <time>2022-12-29T11:07:54Z</time>
      </trkpt>
      <trkpt lat="45.01868" lon="6.11586">
        <ele>1801.6</ele>
        <time>2022-12-29T11:07:55Z</time>
      </trkpt>
      <trkpt lat="45.01868" lon="6.11586">
        <ele>1803.2</ele>
        <time>2022-12-29T11:07:56Z</time>
      </trkpt>
      <trkpt lat="45.01868" lon="6.11585">
        <ele>1803.2</ele>
        <time>2022-12-29T11:07:57Z</time>
      </trkpt>
      <trkpt lat="45.01868" lon="6.11585">
        <ele>1803.2</ele>
        <time>2022-12-29T11:07:58Z</time>
      </trkpt>
      <trkpt lat="45.01869" lon="6.11584">
        <ele>1803.2</ele>
        <time>2022-12-29T11:07:59Z</time>
      </trkpt>
      <trkpt lat="45.01869" lon="6.11584">
        <ele>1803.2</ele>
        <time>2022-12-29T11:08:00Z</time>
      </trkpt>
      <trkpt lat="45.0187" lon="6.11583">
        <ele>1803.2</ele>
        <time>2022-12-29T11:08:01Z</time>
      </trkpt>
      <trkpt lat="45.0187" lon="6.11583">
        <ele>1803.2</ele>
        <time>2022-12-29T11:08:02Z</time>
      </trkpt>
      <trkpt lat="45.01871" lon="6.11582">
        <ele>1803.2</ele>
        <time>2022-12-29T11:08:03Z</time>
      </trkpt>
      <trkpt lat="45.01871" lon="6.11582">
        <ele>1803.2</ele>
        <time>2022-12-29T11:08:04Z</time>
      </trkpt>
      <trkpt lat="45.01872" lon="6.11581">
        <ele>1803.2</ele>
        <time>2022-12-29T11:08:05Z</time>
      </trkpt>
      <trkpt lat="45.01872" lon="6.11581">
        <ele>1805</ele>
        <time>2022-12-29T11:08:06Z</time>
      </trkpt>
      <trkpt lat="45.01872" lon="6.1158">
        <ele>1805</ele>
        <time>2022-12-29T11:08:07Z</time>
      </trkpt>
      <trkpt lat="45.01873" lon="6.11579">
        <ele>1805</ele>
        <time>2022-12-29T11:08:08Z</time>
      </trkpt>
      <trkpt lat="45.01873" lon="6.11579">
        <ele>1805</ele>
        <time>2022-12-29T11:08:09Z</time>
      </trkpt>
      <trkpt lat="45.01873" lon="6.11578">
        <ele>1805</ele>
        <time>2022-12-29T11:08:10Z</time>
      </trkpt>
      <trkpt lat="45.01874" lon="6.11577">
        <ele>1805</ele>
        <time>2022-12-29T11:08:11Z</time>
      </trkpt>
      <trkpt lat="45.01874" lon="6.11576">
        <ele>1805</ele>
        <time>2022-12-29T11:08:12Z</time>
      </trkpt>
      <trkpt lat="45.01874" lon="6.11576">
        <ele>1805</ele>
        <time>2022-12-29T11:08:13Z</time>
      </trkpt>
      <trkpt lat="45.01875" lon="6.11575">
        <ele>1805</ele>
        <time>2022-12-29T11:08:14Z</time>
      </trkpt>
      <trkpt lat="45.01875" lon="6.11574">
        <ele>1805</ele>
        <time>2022-12-29T11:08:15Z</time>
      </trkpt>
      <trkpt lat="45.01875" lon="6.11573">
        <ele>1806.8</ele>
        <time>2022-12-29T11:08:16Z</time>
      </trkpt>
      <trkpt lat="45.01875" lon="6.11573">
        <ele>1806.8</ele>
        <time>2022-12-29T11:08:17Z</time>
      </trkpt>
      <trkpt lat="45.01874" lon="6.11572">
        <ele>1806.8</ele>
        <time>2022-12-29T11:08:18Z</time>
      </trkpt>
      <trkpt lat="45.01874" lon="6.11572">
        <ele>1806.8</ele>
        <time>2022-12-29T11:08:19Z</time>
      </trkpt>
      <trkpt lat="45.01873" lon="6.11571">
        <ele>1806.8</ele>
        <time>2022-12-29T11:08:20Z</time>
      </trkpt>
      <trkpt lat="45.01873" lon="6.11571">
        <ele>1806.8</ele>
        <time>2022-12-29T11:08:21Z</time>
      </trkpt>
      <trkpt lat="45.01872" lon="6.1157">
        <ele>1806.8</ele>
        <time>2022-12-29T11:08:22Z</time>
      </trkpt>
      <trkpt lat="45.01872" lon="6.1157">
        <ele>1806.8</ele>
        <time>2022-12-29T11:08:23Z</time>
      </trkpt>
      <trkpt lat="45.01871" lon="6.11569">
        <ele>1806.8</ele>
        <time>2022-12-29T11:08:24Z</time>
      </trkpt>
      <trkpt lat="45.01871" lon="6.11569">
        <ele>1806.8</ele>
        <time>2022-12-29T11:08:25Z</time>
      </trkpt>
      <trkpt lat="45.0187" lon="6.11568">
        <ele>1808.4</ele>
        <time>2022-12-29T11:08:26Z</time>
      </trkpt>
      <trkpt lat="45.01871" lon="6.11567">
        <ele>1808.4</ele>
        <time>2022-12-29T11:08:27Z</time>
      </trkpt>
      <trkpt lat="45.01871" lon="6.11567">
        <ele>1808.4</ele>
        <time>2022-12-29T11:08:28Z</time>
      </trkpt>
      <trkpt lat="45.01872" lon="6.11566">
        <ele>1808.4</ele>
        <time>2022-12-29T11:08:29Z</time>
      </trkpt>
      <trkpt lat="45.01872" lon="6.11565">
        <ele>1808.4</ele>
        <time>2022-12-29T11:08:30Z</time>
      </trkpt>
      <trkpt lat="45.01873" lon="6.11564">
        <ele>1808.4</ele>
        <time>2022-12-29T11:08:31Z</time>
      </trkpt>
      <trkpt lat="45.01873" lon="6.11564">
        <ele>1808.4</ele>
        <time>2022-12-29T11:08:32Z</time>
      </trkpt>
      <trkpt lat="45.01873" lon="6.11563">
        <ele>1808.4</ele>
        <time>2022-12-29T11:08:33Z</time>
      </trkpt>
      <trkpt lat="45.01874" lon="6.11562">
        <ele>1808.4</ele>
        <time>2022-12-29T11:08:34Z</time>
      </trkpt>
      <trkpt lat="45.01874" lon="6.11561">
        <ele>1808.4</ele>
        <time>2022-12-29T11:08:35Z</time>
      </trkpt>
      <trkpt lat="45.01875" lon="6.11561">
        <ele>1811.6</ele>
        <time>2022-12-29T11:08:36Z</time>
      </trkpt>
      <trkpt lat="45.01877" lon="6.11558">
        <ele>1811.6</ele>
        <time>2022-12-29T11:08:37Z</time>
      </trkpt>
      <trkpt lat="45.01877" lon="6.11558">
        <ele>1811.6</ele>
        <time>2022-12-29T11:08:38Z</time>
      </trkpt>
      <trkpt lat="45.01877" lon="6.11558">
        <ele>1811.6</ele>
        <time>2022-12-29T11:08:39Z</time>
      </trkpt>
      <trkpt lat="45.01877" lon="6.11557">
        <ele>1811.6</ele>
        <time>2022-12-29T11:08:40Z</time>
      </trkpt>
      <trkpt lat="45.01878" lon="6.11557">
        <ele>1811.6</ele>
        <time>2022-12-29T11:08:41Z</time>
      </trkpt>
      <trkpt lat="45.01878" lon="6.11556">
        <ele>1811.6</ele>
        <time>2022-12-29T11:08:42Z</time>
      </trkpt>
      <trkpt lat="45.01878" lon="6.11556">
        <ele>1811.6</ele>
        <time>2022-12-29T11:08:43Z</time>
      </trkpt>
      <trkpt lat="45.01879" lon="6.11556">
        <ele>1811.6</ele>
        <time>2022-12-29T11:08:44Z</time>
      </trkpt>
      <trkpt lat="45.01879" lon="6.11555">
        <ele>1811.6</ele>
        <time>2022-12-29T11:08:45Z</time>
      </trkpt>
      <trkpt lat="45.01879" lon="6.11555">
        <ele>1812.8</ele>
        <time>2022-12-29T11:08:46Z</time>
      </trkpt>
      <trkpt lat="45.01879" lon="6.11554">
        <ele>1812.8</ele>
        <time>2022-12-29T11:08:47Z</time>
      </trkpt>
      <trkpt lat="45.01879" lon="6.11554">
        <ele>1812.8</ele>
        <time>2022-12-29T11:08:48Z</time>
      </trkpt>
      <trkpt lat="45.01879" lon="6.11553">
        <ele>1812.8</ele>
        <time>2022-12-29T11:08:49Z</time>
      </trkpt>
      <trkpt lat="45.01879" lon="6.11553">
        <ele>1812.8</ele>
        <time>2022-12-29T11:08:50Z</time>
      </trkpt>
      <trkpt lat="45.01879" lon="6.11552">
        <ele>1812.8</ele>
        <time>2022-12-29T11:08:51Z</time>
      </trkpt>
      <trkpt lat="45.01879" lon="6.11551">
        <ele>1812.8</ele>
        <time>2022-12-29T11:08:52Z</time>
      </trkpt>
      <trkpt lat="45.01879" lon="6.11551">
        <ele>1812.8</ele>
        <time>2022-12-29T11:08:53Z</time>
      </trkpt>
      <trkpt lat="45.01879" lon="6.1155">
        <ele>1812.8</ele>
        <time>2022-12-29T11:08:54Z</time>
      </trkpt>
      <trkpt lat="45.01879" lon="6.1155">
        <ele>1812.8</ele>
        <time>2022-12-29T11:08:55Z</time>
      </trkpt>
      <trkpt lat="45.01879" lon="6.11549">
        <ele>1812.8</ele>
        <time>2022-12-29T11:08:56Z</time>
      </trkpt>
      <trkpt lat="45.01878" lon="6.11549">
        <ele>1812.8</ele>
        <time>2022-12-29T11:08:57Z</time>
      </trkpt>
      <trkpt lat="45.01877" lon="6.11549">
        <ele>1812.8</ele>
        <time>2022-12-29T11:08:58Z</time>
      </trkpt>
      <trkpt lat="45.01876" lon="6.11549">
        <ele>1812.8</ele>
        <time>2022-12-29T11:08:59Z</time>
      </trkpt>
      <trkpt lat="45.01875" lon="6.11549">
        <ele>1812.8</ele>
        <time>2022-12-29T11:09:00Z</time>
      </trkpt>
      <trkpt lat="45.01874" lon="6.11549">
        <ele>1812.8</ele>
        <time>2022-12-29T11:09:01Z</time>
      </trkpt>
      <trkpt lat="45.01873" lon="6.1155">
        <ele>1812.8</ele>
        <time>2022-12-29T11:09:02Z</time>
      </trkpt>
      <trkpt lat="45.01872" lon="6.1155">
        <ele>1812.8</ele>
        <time>2022-12-29T11:09:03Z</time>
      </trkpt>
      <trkpt lat="45.01871" lon="6.1155">
        <ele>1812.8</ele>
        <time>2022-12-29T11:09:04Z</time>
      </trkpt>
      <trkpt lat="45.0187" lon="6.1155">
        <ele>1812.8</ele>
        <time>2022-12-29T11:09:05Z</time>
      </trkpt>
      <trkpt lat="45.01869" lon="6.1155">
        <ele>1814</ele>
        <time>2022-12-29T11:09:06Z</time>
      </trkpt>
      <trkpt lat="45.01869" lon="6.11549">
        <ele>1814</ele>
        <time>2022-12-29T11:09:07Z</time>
      </trkpt>
      <trkpt lat="45.01868" lon="6.11549">
        <ele>1814</ele>
        <time>2022-12-29T11:09:08Z</time>
      </trkpt>
      <trkpt lat="45.01868" lon="6.11549">
        <ele>1814</ele>
        <time>2022-12-29T11:09:09Z</time>
      </trkpt>
      <trkpt lat="45.01868" lon="6.11549">
        <ele>1814</ele>
        <time>2022-12-29T11:09:10Z</time>
      </trkpt>
      <trkpt lat="45.01867" lon="6.11548">
        <ele>1814</ele>
        <time>2022-12-29T11:09:11Z</time>
      </trkpt>
      <trkpt lat="45.01867" lon="6.11548">
        <ele>1814</ele>
        <time>2022-12-29T11:09:12Z</time>
      </trkpt>
      <trkpt lat="45.01866" lon="6.11548">
        <ele>1814</ele>
        <time>2022-12-29T11:09:13Z</time>
      </trkpt>
      <trkpt lat="45.01866" lon="6.11547">
        <ele>1814</ele>
        <time>2022-12-29T11:09:14Z</time>
      </trkpt>
      <trkpt lat="45.01865" lon="6.11547">
        <ele>1814</ele>
        <time>2022-12-29T11:09:15Z</time>
      </trkpt>
      <trkpt lat="45.01865" lon="6.11547">
        <ele>1815.4</ele>
        <time>2022-12-29T11:09:16Z</time>
      </trkpt>
      <trkpt lat="45.01864" lon="6.11544">
        <ele>1815.4</ele>
        <time>2022-12-29T11:09:17Z</time>
      </trkpt>
      <trkpt lat="45.01864" lon="6.11544">
        <ele>1815.4</ele>
        <time>2022-12-29T11:09:18Z</time>
      </trkpt>
      <trkpt lat="45.01865" lon="6.11543">
        <ele>1815.4</ele>
        <time>2022-12-29T11:09:19Z</time>
      </trkpt>
      <trkpt lat="45.01865" lon="6.11543">
        <ele>1815.4</ele>
        <time>2022-12-29T11:09:22Z</time>
      </trkpt>
      <trkpt lat="45.01866" lon="6.11542">
        <ele>1815.4</ele>
        <time>2022-12-29T11:09:23Z</time>
      </trkpt>
      <trkpt lat="45.01866" lon="6.11541">
        <ele>1815.4</ele>
        <time>2022-12-29T11:09:24Z</time>
      </trkpt>
      <trkpt lat="45.01867" lon="6.11541">
        <ele>1815.4</ele>
        <time>2022-12-29T11:09:25Z</time>
      </trkpt>
      <trkpt lat="45.01868" lon="6.1154">
        <ele>1818.2</ele>
        <time>2022-12-29T11:09:26Z</time>
      </trkpt>
      <trkpt lat="45.01868" lon="6.1154">
        <ele>1818.2</ele>
        <time>2022-12-29T11:09:27Z</time>
      </trkpt>
      <trkpt lat="45.01869" lon="6.11539">
        <ele>1818.2</ele>
        <time>2022-12-29T11:09:28Z</time>
      </trkpt>
      <trkpt lat="45.01869" lon="6.11539">
        <ele>1818.2</ele>
        <time>2022-12-29T11:09:29Z</time>
      </trkpt>
      <trkpt lat="45.0187" lon="6.11538">
        <ele>1818.2</ele>
        <time>2022-12-29T11:09:30Z</time>
      </trkpt>
      <trkpt lat="45.01871" lon="6.11537">
        <ele>1818.2</ele>
        <time>2022-12-29T11:09:31Z</time>
      </trkpt>
      <trkpt lat="45.01871" lon="6.11537">
        <ele>1818.2</ele>
        <time>2022-12-29T11:09:32Z</time>
      </trkpt>
      <trkpt lat="45.01872" lon="6.11536">
        <ele>1818.2</ele>
        <time>2022-12-29T11:09:33Z</time>
      </trkpt>
      <trkpt lat="45.01873" lon="6.11536">
        <ele>1818.2</ele>
        <time>2022-12-29T11:09:34Z</time>
      </trkpt>
      <trkpt lat="45.01873" lon="6.11535">
        <ele>1818.2</ele>
        <time>2022-12-29T11:09:35Z</time>
      </trkpt>
      <trkpt lat="45.01874" lon="6.11535">
        <ele>1819.4</ele>
        <time>2022-12-29T11:09:36Z</time>
      </trkpt>
      <trkpt lat="45.01875" lon="6.11534">
        <ele>1819.4</ele>
        <time>2022-12-29T11:09:37Z</time>
      </trkpt>
      <trkpt lat="45.01875" lon="6.11533">
        <ele>1819.4</ele>
        <time>2022-12-29T11:09:38Z</time>
      </trkpt>
      <trkpt lat="45.01876" lon="6.11533">
        <ele>1819.4</ele>
        <time>2022-12-29T11:09:39Z</time>
      </trkpt>
      <trkpt lat="45.01876" lon="6.11532">
        <ele>1819.4</ele>
        <time>2022-12-29T11:09:40Z</time>
      </trkpt>
      <trkpt lat="45.01877" lon="6.11531">
        <ele>1819.4</ele>
        <time>2022-12-29T11:09:41Z</time>
      </trkpt>
      <trkpt lat="45.01877" lon="6.11531">
        <ele>1819.4</ele>
        <time>2022-12-29T11:09:42Z</time>
      </trkpt>
      <trkpt lat="45.01878" lon="6.1153">
        <ele>1819.4</ele>
        <time>2022-12-29T11:09:43Z</time>
      </trkpt>
      <trkpt lat="45.01878" lon="6.11529">
        <ele>1819.4</ele>
        <time>2022-12-29T11:09:44Z</time>
      </trkpt>
      <trkpt lat="45.01879" lon="6.11529">
        <ele>1819.4</ele>
        <time>2022-12-29T11:09:45Z</time>
      </trkpt>
      <trkpt lat="45.01879" lon="6.11528">
        <ele>1821.6</ele>
        <time>2022-12-29T11:09:46Z</time>
      </trkpt>
      <trkpt lat="45.0188" lon="6.11527">
        <ele>1821.6</ele>
        <time>2022-12-29T11:09:47Z</time>
      </trkpt>
      <trkpt lat="45.01881" lon="6.11527">
        <ele>1821.6</ele>
        <time>2022-12-29T11:09:48Z</time>
      </trkpt>
      <trkpt lat="45.01882" lon="6.11526">
        <ele>1821.6</ele>
        <time>2022-12-29T11:09:49Z</time>
      </trkpt>
      <trkpt lat="45.01882" lon="6.11525">
        <ele>1821.6</ele>
        <time>2022-12-29T11:09:50Z</time>
      </trkpt>
      <trkpt lat="45.01883" lon="6.11524">
        <ele>1821.6</ele>
        <time>2022-12-29T11:09:51Z</time>
      </trkpt>
      <trkpt lat="45.01884" lon="6.11524">
        <ele>1821.6</ele>
        <time>2022-12-29T11:09:52Z</time>
      </trkpt>
      <trkpt lat="45.01885" lon="6.11523">
        <ele>1821.6</ele>
        <time>2022-12-29T11:09:53Z</time>
      </trkpt>
      <trkpt lat="45.01886" lon="6.11522">
        <ele>1821.6</ele>
        <time>2022-12-29T11:09:54Z</time>
      </trkpt>
      <trkpt lat="45.01886" lon="6.11521">
        <ele>1821.6</ele>
        <time>2022-12-29T11:09:55Z</time>
      </trkpt>
      <trkpt lat="45.01887" lon="6.11521">
        <ele>1823.2</ele>
        <time>2022-12-29T11:09:56Z</time>
      </trkpt>
      <trkpt lat="45.01887" lon="6.1152">
        <ele>1823.2</ele>
        <time>2022-12-29T11:09:57Z</time>
      </trkpt>
      <trkpt lat="45.01888" lon="6.1152">
        <ele>1823.2</ele>
        <time>2022-12-29T11:09:58Z</time>
      </trkpt>
      <trkpt lat="45.01888" lon="6.1152">
        <ele>1823.2</ele>
        <time>2022-12-29T11:09:59Z</time>
      </trkpt>
      <trkpt lat="45.01889" lon="6.11519">
        <ele>1823.2</ele>
        <time>2022-12-29T11:10:00Z</time>
      </trkpt>
      <trkpt lat="45.01889" lon="6.11519">
        <ele>1823.2</ele>
        <time>2022-12-29T11:10:01Z</time>
      </trkpt>
      <trkpt lat="45.01889" lon="6.11519">
        <ele>1823.2</ele>
        <time>2022-12-29T11:10:02Z</time>
      </trkpt>
      <trkpt lat="45.0189" lon="6.11518">
        <ele>1823.2</ele>
        <time>2022-12-29T11:10:03Z</time>
      </trkpt>
      <trkpt lat="45.0189" lon="6.11518">
        <ele>1823.2</ele>
        <time>2022-12-29T11:10:04Z</time>
      </trkpt>
      <trkpt lat="45.0189" lon="6.11518">
        <ele>1823.2</ele>
        <time>2022-12-29T11:10:05Z</time>
      </trkpt>
      <trkpt lat="45.01891" lon="6.11518">
        <ele>1824</ele>
        <time>2022-12-29T11:10:06Z</time>
      </trkpt>
      <trkpt lat="45.01891" lon="6.11518">
        <ele>1824</ele>
        <time>2022-12-29T11:10:07Z</time>
      </trkpt>
      <trkpt lat="45.01891" lon="6.11518">
        <ele>1824</ele>
        <time>2022-12-29T11:10:08Z</time>
      </trkpt>
      <trkpt lat="45.01891" lon="6.11518">
        <ele>1824</ele>
        <time>2022-12-29T11:10:09Z</time>
      </trkpt>
      <trkpt lat="45.01891" lon="6.11518">
        <ele>1824</ele>
        <time>2022-12-29T11:10:10Z</time>
      </trkpt>
      <trkpt lat="45.01891" lon="6.11518">
        <ele>1824</ele>
        <time>2022-12-29T11:10:11Z</time>
      </trkpt>
      <trkpt lat="45.01889" lon="6.11518">
        <ele>1824</ele>
        <time>2022-12-29T11:10:12Z</time>
      </trkpt>
      <trkpt lat="45.01889" lon="6.11518">
        <ele>1824</ele>
        <time>2022-12-29T11:10:13Z</time>
      </trkpt>
      <trkpt lat="45.01889" lon="6.11518">
        <ele>1824</ele>
        <time>2022-12-29T11:10:14Z</time>
      </trkpt>
      <trkpt lat="45.01889" lon="6.11518">
        <ele>1824</ele>
        <time>2022-12-29T11:10:15Z</time>
      </trkpt>
      <trkpt lat="45.01887" lon="6.11517">
        <ele>1824.2</ele>
        <time>2022-12-29T11:10:16Z</time>
      </trkpt>
      <trkpt lat="45.01886" lon="6.11517">
        <ele>1824.2</ele>
        <time>2022-12-29T11:10:17Z</time>
      </trkpt>
      <trkpt lat="45.01886" lon="6.11516">
        <ele>1824.2</ele>
        <time>2022-12-29T11:10:18Z</time>
      </trkpt>
      <trkpt lat="45.01885" lon="6.11516">
        <ele>1824.2</ele>
        <time>2022-12-29T11:10:19Z</time>
      </trkpt>
      <trkpt lat="45.01884" lon="6.11515">
        <ele>1824.2</ele>
        <time>2022-12-29T11:10:20Z</time>
      </trkpt>
      <trkpt lat="45.01884" lon="6.11515">
        <ele>1824.2</ele>
        <time>2022-12-29T11:10:21Z</time>
      </trkpt>
      <trkpt lat="45.01883" lon="6.11515">
        <ele>1824.2</ele>
        <time>2022-12-29T11:10:22Z</time>
      </trkpt>
      <trkpt lat="45.01883" lon="6.11514">
        <ele>1824.2</ele>
        <time>2022-12-29T11:10:23Z</time>
      </trkpt>
      <trkpt lat="45.01882" lon="6.11514">
        <ele>1824.2</ele>
        <time>2022-12-29T11:10:24Z</time>
      </trkpt>
      <trkpt lat="45.01881" lon="6.11513">
        <ele>1824.2</ele>
        <time>2022-12-29T11:10:25Z</time>
      </trkpt>
      <trkpt lat="45.01881" lon="6.11513">
        <ele>1826</ele>
        <time>2022-12-29T11:10:26Z</time>
      </trkpt>
      <trkpt lat="45.0188" lon="6.11513">
        <ele>1826</ele>
        <time>2022-12-29T11:10:27Z</time>
      </trkpt>
      <trkpt lat="45.01879" lon="6.11512">
        <ele>1826</ele>
        <time>2022-12-29T11:10:28Z</time>
      </trkpt>
      <trkpt lat="45.01878" lon="6.11512">
        <ele>1826</ele>
        <time>2022-12-29T11:10:29Z</time>
      </trkpt>
      <trkpt lat="45.01878" lon="6.11512">
        <ele>1826</ele>
        <time>2022-12-29T11:10:30Z</time>
      </trkpt>
      <trkpt lat="45.01877" lon="6.11511">
        <ele>1826</ele>
        <time>2022-12-29T11:10:31Z</time>
      </trkpt>
      <trkpt lat="45.01876" lon="6.11511">
        <ele>1826</ele>
        <time>2022-12-29T11:10:32Z</time>
      </trkpt>
      <trkpt lat="45.01875" lon="6.11511">
        <ele>1826</ele>
        <time>2022-12-29T11:10:33Z</time>
      </trkpt>
      <trkpt lat="45.01875" lon="6.11511">
        <ele>1826</ele>
        <time>2022-12-29T11:10:34Z</time>
      </trkpt>
      <trkpt lat="45.01874" lon="6.1151">
        <ele>1826</ele>
        <time>2022-12-29T11:10:35Z</time>
      </trkpt>
      <trkpt lat="45.01873" lon="6.1151">
        <ele>1828</ele>
        <time>2022-12-29T11:10:36Z</time>
      </trkpt>
      <trkpt lat="45.01873" lon="6.1151">
        <ele>1828</ele>
        <time>2022-12-29T11:10:37Z</time>
      </trkpt>
      <trkpt lat="45.01872" lon="6.1151">
        <ele>1828</ele>
        <time>2022-12-29T11:10:38Z</time>
      </trkpt>
      <trkpt lat="45.01872" lon="6.1151">
        <ele>1828</ele>
        <time>2022-12-29T11:10:39Z</time>
      </trkpt>
      <trkpt lat="45.01871" lon="6.1151">
        <ele>1828</ele>
        <time>2022-12-29T11:10:40Z</time>
      </trkpt>
      <trkpt lat="45.01871" lon="6.1151">
        <ele>1828</ele>
        <time>2022-12-29T11:10:41Z</time>
      </trkpt>
      <trkpt lat="45.0187" lon="6.1151">
        <ele>1828</ele>
        <time>2022-12-29T11:10:42Z</time>
      </trkpt>
      <trkpt lat="45.0187" lon="6.1151">
        <ele>1828</ele>
        <time>2022-12-29T11:10:43Z</time>
      </trkpt>
      <trkpt lat="45.01869" lon="6.1151">
        <ele>1828</ele>
        <time>2022-12-29T11:10:44Z</time>
      </trkpt>
      <trkpt lat="45.01869" lon="6.1151">
        <ele>1828</ele>
        <time>2022-12-29T11:10:45Z</time>
      </trkpt>
      <trkpt lat="45.01868" lon="6.1151">
        <ele>1830.2</ele>
        <time>2022-12-29T11:10:46Z</time>
      </trkpt>
      <trkpt lat="45.01869" lon="6.11507">
        <ele>1830.2</ele>
        <time>2022-12-29T11:10:47Z</time>
      </trkpt>
      <trkpt lat="45.0187" lon="6.11506">
        <ele>1830.2</ele>
        <time>2022-12-29T11:10:48Z</time>
      </trkpt>
      <trkpt lat="45.0187" lon="6.11505">
        <ele>1830.2</ele>
        <time>2022-12-29T11:10:49Z</time>
      </trkpt>
      <trkpt lat="45.01871" lon="6.11505">
        <ele>1830.2</ele>
        <time>2022-12-29T11:10:50Z</time>
      </trkpt>
      <trkpt lat="45.01872" lon="6.11504">
        <ele>1830.2</ele>
        <time>2022-12-29T11:10:51Z</time>
      </trkpt>
      <trkpt lat="45.01872" lon="6.11504">
        <ele>1830.2</ele>
        <time>2022-12-29T11:10:52Z</time>
      </trkpt>
      <trkpt lat="45.01873" lon="6.11503">
        <ele>1830.2</ele>
        <time>2022-12-29T11:10:53Z</time>
      </trkpt>
      <trkpt lat="45.01873" lon="6.11503">
        <ele>1830.2</ele>
        <time>2022-12-29T11:10:54Z</time>
      </trkpt>
      <trkpt lat="45.01874" lon="6.11502">
        <ele>1830.2</ele>
        <time>2022-12-29T11:10:55Z</time>
      </trkpt>
      <trkpt lat="45.01875" lon="6.11502">
        <ele>1832.4</ele>
        <time>2022-12-29T11:10:56Z</time>
      </trkpt>
      <trkpt lat="45.01875" lon="6.11502">
        <ele>1832.4</ele>
        <time>2022-12-29T11:10:57Z</time>
      </trkpt>
      <trkpt lat="45.01875" lon="6.11502">
        <ele>1832.4</ele>
        <time>2022-12-29T11:10:58Z</time>
      </trkpt>
      <trkpt lat="45.01876" lon="6.11499">
        <ele>1832.4</ele>
        <time>2022-12-29T11:10:59Z</time>
      </trkpt>
      <trkpt lat="45.01876" lon="6.11499">
        <ele>1832.4</ele>
        <time>2022-12-29T11:11:00Z</time>
      </trkpt>
      <trkpt lat="45.01876" lon="6.11499">
        <ele>1832.4</ele>
        <time>2022-12-29T11:11:01Z</time>
      </trkpt>
      <trkpt lat="45.01876" lon="6.11499">
        <ele>1832.4</ele>
        <time>2022-12-29T11:11:02Z</time>
      </trkpt>
      <trkpt lat="45.01878" lon="6.11498">
        <ele>1832.4</ele>
        <time>2022-12-29T11:11:03Z</time>
      </trkpt>
      <trkpt lat="45.01878" lon="6.11498">
        <ele>1832.4</ele>
        <time>2022-12-29T11:11:04Z</time>
      </trkpt>
      <trkpt lat="45.01878" lon="6.11498">
        <ele>1832.4</ele>
        <time>2022-12-29T11:11:05Z</time>
      </trkpt>
      <trkpt lat="45.01878" lon="6.11498">
        <ele>1833.6</ele>
        <time>2022-12-29T11:11:06Z</time>
      </trkpt>
      <trkpt lat="45.01881" lon="6.11496">
        <ele>1833.6</ele>
        <time>2022-12-29T11:11:07Z</time>
      </trkpt>
      <trkpt lat="45.01881" lon="6.11496">
        <ele>1833.6</ele>
        <time>2022-12-29T11:11:08Z</time>
      </trkpt>
      <trkpt lat="45.01881" lon="6.11495">
        <ele>1833.6</ele>
        <time>2022-12-29T11:11:09Z</time>
      </trkpt>
      <trkpt lat="45.01882" lon="6.11495">
        <ele>1833.6</ele>
        <time>2022-12-29T11:11:10Z</time>
      </trkpt>
      <trkpt lat="45.01882" lon="6.11494">
        <ele>1833.6</ele>
        <time>2022-12-29T11:11:11Z</time>
      </trkpt>
      <trkpt lat="45.01883" lon="6.11494">
        <ele>1833.6</ele>
        <time>2022-12-29T11:11:12Z</time>
      </trkpt>
      <trkpt lat="45.01883" lon="6.11493">
        <ele>1833.6</ele>
        <time>2022-12-29T11:11:13Z</time>
      </trkpt>
      <trkpt lat="45.01884" lon="6.11493">
        <ele>1833.6</ele>
        <time>2022-12-29T11:11:14Z</time>
      </trkpt>
      <trkpt lat="45.01884" lon="6.11492">
        <ele>1833.6</ele>
        <time>2022-12-29T11:11:15Z</time>
      </trkpt>
      <trkpt lat="45.01885" lon="6.11492">
        <ele>1835.4</ele>
        <time>2022-12-29T11:11:16Z</time>
      </trkpt>
      <trkpt lat="45.01885" lon="6.11491">
        <ele>1835.4</ele>
        <time>2022-12-29T11:11:17Z</time>
      </trkpt>
      <trkpt lat="45.01886" lon="6.11491">
        <ele>1835.4</ele>
        <time>2022-12-29T11:11:18Z</time>
      </trkpt>
      <trkpt lat="45.01886" lon="6.1149">
        <ele>1835.4</ele>
        <time>2022-12-29T11:11:19Z</time>
      </trkpt>
      <trkpt lat="45.01887" lon="6.1149">
        <ele>1835.4</ele>
        <time>2022-12-29T11:11:20Z</time>
      </trkpt>
      <trkpt lat="45.01887" lon="6.11489">
        <ele>1835.4</ele>
        <time>2022-12-29T11:11:21Z</time>
      </trkpt>
      <trkpt lat="45.01888" lon="6.11488">
        <ele>1835.4</ele>
        <time>2022-12-29T11:11:22Z</time>
      </trkpt>
      <trkpt lat="45.01888" lon="6.11488">
        <ele>1835.4</ele>
        <time>2022-12-29T11:11:23Z</time>
      </trkpt>
      <trkpt lat="45.01889" lon="6.11487">
        <ele>1835.4</ele>
        <time>2022-12-29T11:11:24Z</time>
      </trkpt>
      <trkpt lat="45.01889" lon="6.11487">
        <ele>1835.4</ele>
        <time>2022-12-29T11:11:25Z</time>
      </trkpt>
      <trkpt lat="45.0189" lon="6.11486">
        <ele>1837</ele>
        <time>2022-12-29T11:11:26Z</time>
      </trkpt>
      <trkpt lat="45.0189" lon="6.11485">
        <ele>1837</ele>
        <time>2022-12-29T11:11:27Z</time>
      </trkpt>
      <trkpt lat="45.01891" lon="6.11485">
        <ele>1837</ele>
        <time>2022-12-29T11:11:28Z</time>
      </trkpt>
      <trkpt lat="45.01891" lon="6.11484">
        <ele>1837</ele>
        <time>2022-12-29T11:11:29Z</time>
      </trkpt>
      <trkpt lat="45.01892" lon="6.11484">
        <ele>1837</ele>
        <time>2022-12-29T11:11:30Z</time>
      </trkpt>
      <trkpt lat="45.01892" lon="6.11483">
        <ele>1837</ele>
        <time>2022-12-29T11:11:31Z</time>
      </trkpt>
      <trkpt lat="45.01893" lon="6.11483">
        <ele>1837</ele>
        <time>2022-12-29T11:11:32Z</time>
      </trkpt>
      <trkpt lat="45.01893" lon="6.11482">
        <ele>1837</ele>
        <time>2022-12-29T11:11:33Z</time>
      </trkpt>
      <trkpt lat="45.01894" lon="6.11482">
        <ele>1837</ele>
        <time>2022-12-29T11:11:34Z</time>
      </trkpt>
      <trkpt lat="45.01894" lon="6.11481">
        <ele>1837</ele>
        <time>2022-12-29T11:11:35Z</time>
      </trkpt>
      <trkpt lat="45.01895" lon="6.11481">
        <ele>1839.2</ele>
        <time>2022-12-29T11:11:36Z</time>
      </trkpt>
      <trkpt lat="45.01896" lon="6.1148">
        <ele>1839.2</ele>
        <time>2022-12-29T11:11:37Z</time>
      </trkpt>
      <trkpt lat="45.01896" lon="6.11479">
        <ele>1839.2</ele>
        <time>2022-12-29T11:11:38Z</time>
      </trkpt>
      <trkpt lat="45.01897" lon="6.11478">
        <ele>1839.2</ele>
        <time>2022-12-29T11:11:39Z</time>
      </trkpt>
      <trkpt lat="45.01898" lon="6.11477">
        <ele>1839.2</ele>
        <time>2022-12-29T11:11:40Z</time>
      </trkpt>
      <trkpt lat="45.01898" lon="6.11476">
        <ele>1839.2</ele>
        <time>2022-12-29T11:11:41Z</time>
      </trkpt>
      <trkpt lat="45.01899" lon="6.11475">
        <ele>1839.2</ele>
        <time>2022-12-29T11:11:42Z</time>
      </trkpt>
      <trkpt lat="45.019" lon="6.11474">
        <ele>1839.2</ele>
        <time>2022-12-29T11:11:43Z</time>
      </trkpt>
      <trkpt lat="45.01901" lon="6.11474">
        <ele>1839.2</ele>
        <time>2022-12-29T11:11:44Z</time>
      </trkpt>
      <trkpt lat="45.01901" lon="6.11473">
        <ele>1839.2</ele>
        <time>2022-12-29T11:11:45Z</time>
      </trkpt>
      <trkpt lat="45.01902" lon="6.11472">
        <ele>1840.4</ele>
        <time>2022-12-29T11:11:46Z</time>
      </trkpt>
      <trkpt lat="45.01903" lon="6.11471">
        <ele>1840.4</ele>
        <time>2022-12-29T11:11:47Z</time>
      </trkpt>
      <trkpt lat="45.01903" lon="6.11471">
        <ele>1840.4</ele>
        <time>2022-12-29T11:11:48Z</time>
      </trkpt>
      <trkpt lat="45.01904" lon="6.1147">
        <ele>1840.4</ele>
        <time>2022-12-29T11:11:49Z</time>
      </trkpt>
      <trkpt lat="45.01904" lon="6.1147">
        <ele>1840.4</ele>
        <time>2022-12-29T11:11:50Z</time>
      </trkpt>
      <trkpt lat="45.01905" lon="6.11469">
        <ele>1840.4</ele>
        <time>2022-12-29T11:11:51Z</time>
      </trkpt>
      <trkpt lat="45.01905" lon="6.11468">
        <ele>1840.4</ele>
        <time>2022-12-29T11:11:52Z</time>
      </trkpt>
      <trkpt lat="45.01906" lon="6.11468">
        <ele>1840.4</ele>
        <time>2022-12-29T11:11:53Z</time>
      </trkpt>
      <trkpt lat="45.01906" lon="6.11467">
        <ele>1840.4</ele>
        <time>2022-12-29T11:11:54Z</time>
      </trkpt>
      <trkpt lat="45.01907" lon="6.11467">
        <ele>1840.4</ele>
        <time>2022-12-29T11:11:55Z</time>
      </trkpt>
      <trkpt lat="45.01907" lon="6.11466">
        <ele>1842.4</ele>
        <time>2022-12-29T11:11:56Z</time>
      </trkpt>
      <trkpt lat="45.01908" lon="6.11466">
        <ele>1842.4</ele>
        <time>2022-12-29T11:11:57Z</time>
      </trkpt>
      <trkpt lat="45.01908" lon="6.11465">
        <ele>1842.4</ele>
        <time>2022-12-29T11:11:58Z</time>
      </trkpt>
      <trkpt lat="45.01909" lon="6.11465">
        <ele>1842.4</ele>
        <time>2022-12-29T11:11:59Z</time>
      </trkpt>
      <trkpt lat="45.01909" lon="6.11464">
        <ele>1842.4</ele>
        <time>2022-12-29T11:12:00Z</time>
      </trkpt>
      <trkpt lat="45.0191" lon="6.11464">
        <ele>1842.4</ele>
        <time>2022-12-29T11:12:01Z</time>
      </trkpt>
      <trkpt lat="45.0191" lon="6.11463">
        <ele>1842.4</ele>
        <time>2022-12-29T11:12:02Z</time>
      </trkpt>
      <trkpt lat="45.01911" lon="6.11463">
        <ele>1842.4</ele>
        <time>2022-12-29T11:12:03Z</time>
      </trkpt>
      <trkpt lat="45.01911" lon="6.11462">
        <ele>1842.4</ele>
        <time>2022-12-29T11:12:04Z</time>
      </trkpt>
      <trkpt lat="45.01912" lon="6.11462">
        <ele>1842.4</ele>
        <time>2022-12-29T11:12:05Z</time>
      </trkpt>
      <trkpt lat="45.01912" lon="6.11462">
        <ele>1844</ele>
        <time>2022-12-29T11:12:06Z</time>
      </trkpt>
      <trkpt lat="45.01915" lon="6.1146">
        <ele>1844</ele>
        <time>2022-12-29T11:12:07Z</time>
      </trkpt>
      <trkpt lat="45.01915" lon="6.11459">
        <ele>1844</ele>
        <time>2022-12-29T11:12:08Z</time>
      </trkpt>
      <trkpt lat="45.01916" lon="6.11459">
        <ele>1844</ele>
        <time>2022-12-29T11:12:09Z</time>
      </trkpt>
      <trkpt lat="45.01916" lon="6.11458">
        <ele>1844</ele>
        <time>2022-12-29T11:12:10Z</time>
      </trkpt>
      <trkpt lat="45.01917" lon="6.11458">
        <ele>1844</ele>
        <time>2022-12-29T11:12:11Z</time>
      </trkpt>
      <trkpt lat="45.01918" lon="6.11458">
        <ele>1844</ele>
        <time>2022-12-29T11:12:12Z</time>
      </trkpt>
      <trkpt lat="45.01918" lon="6.11457">
        <ele>1844</ele>
        <time>2022-12-29T11:12:13Z</time>
      </trkpt>
      <trkpt lat="45.01919" lon="6.11457">
        <ele>1844</ele>
        <time>2022-12-29T11:12:14Z</time>
      </trkpt>
      <trkpt lat="45.01919" lon="6.11456">
        <ele>1844</ele>
        <time>2022-12-29T11:12:15Z</time>
      </trkpt>
      <trkpt lat="45.0192" lon="6.11456">
        <ele>1846</ele>
        <time>2022-12-29T11:12:16Z</time>
      </trkpt>
      <trkpt lat="45.01921" lon="6.11456">
        <ele>1846</ele>
        <time>2022-12-29T11:12:17Z</time>
      </trkpt>
      <trkpt lat="45.01921" lon="6.11456">
        <ele>1846</ele>
        <time>2022-12-29T11:12:18Z</time>
      </trkpt>
      <trkpt lat="45.01922" lon="6.11455">
        <ele>1846</ele>
        <time>2022-12-29T11:12:19Z</time>
      </trkpt>
      <trkpt lat="45.01922" lon="6.11455">
        <ele>1846</ele>
        <time>2022-12-29T11:12:20Z</time>
      </trkpt>
      <trkpt lat="45.01923" lon="6.11455">
        <ele>1846</ele>
        <time>2022-12-29T11:12:21Z</time>
      </trkpt>
      <trkpt lat="45.01924" lon="6.11455">
        <ele>1846</ele>
        <time>2022-12-29T11:12:22Z</time>
      </trkpt>
      <trkpt lat="45.01924" lon="6.11454">
        <ele>1846</ele>
        <time>2022-12-29T11:12:23Z</time>
      </trkpt>
      <trkpt lat="45.01925" lon="6.11454">
        <ele>1846</ele>
        <time>2022-12-29T11:12:24Z</time>
      </trkpt>
      <trkpt lat="45.01925" lon="6.11454">
        <ele>1846</ele>
        <time>2022-12-29T11:12:25Z</time>
      </trkpt>
      <trkpt lat="45.01926" lon="6.11454">
        <ele>1847.6</ele>
        <time>2022-12-29T11:12:26Z</time>
      </trkpt>
      <trkpt lat="45.01929" lon="6.1145">
        <ele>1847.6</ele>
        <time>2022-12-29T11:12:27Z</time>
      </trkpt>
      <trkpt lat="45.01929" lon="6.1145">
        <ele>1847.6</ele>
        <time>2022-12-29T11:12:28Z</time>
      </trkpt>
      <trkpt lat="45.0193" lon="6.1145">
        <ele>1847.6</ele>
        <time>2022-12-29T11:12:29Z</time>
      </trkpt>
      <trkpt lat="45.0193" lon="6.11449">
        <ele>1847.6</ele>
        <time>2022-12-29T11:12:30Z</time>
      </trkpt>
      <trkpt lat="45.01931" lon="6.11449">
        <ele>1847.6</ele>
        <time>2022-12-29T11:12:31Z</time>
      </trkpt>
      <trkpt lat="45.01931" lon="6.11449">
        <ele>1847.6</ele>
        <time>2022-12-29T11:12:32Z</time>
      </trkpt>
      <trkpt lat="45.01931" lon="6.11448">
        <ele>1847.6</ele>
        <time>2022-12-29T11:12:33Z</time>
      </trkpt>
      <trkpt lat="45.01932" lon="6.11448">
        <ele>1847.6</ele>
        <time>2022-12-29T11:12:34Z</time>
      </trkpt>
      <trkpt lat="45.01932" lon="6.11448">
        <ele>1847.6</ele>
        <time>2022-12-29T11:12:35Z</time>
      </trkpt>
      <trkpt lat="45.01933" lon="6.11447">
        <ele>1849.6</ele>
        <time>2022-12-29T11:12:36Z</time>
      </trkpt>
      <trkpt lat="45.01933" lon="6.11447">
        <ele>1849.6</ele>
        <time>2022-12-29T11:12:37Z</time>
      </trkpt>
      <trkpt lat="45.01934" lon="6.11447">
        <ele>1849.6</ele>
        <time>2022-12-29T11:12:38Z</time>
      </trkpt>
      <trkpt lat="45.01934" lon="6.11446">
        <ele>1849.6</ele>
        <time>2022-12-29T11:12:39Z</time>
      </trkpt>
      <trkpt lat="45.01935" lon="6.11446">
        <ele>1849.6</ele>
        <time>2022-12-29T11:12:40Z</time>
      </trkpt>
      <trkpt lat="45.01935" lon="6.11446">
        <ele>1849.6</ele>
        <time>2022-12-29T11:12:41Z</time>
      </trkpt>
      <trkpt lat="45.01936" lon="6.11446">
        <ele>1849.6</ele>
        <time>2022-12-29T11:12:42Z</time>
      </trkpt>
      <trkpt lat="45.01937" lon="6.11445">
        <ele>1849.6</ele>
        <time>2022-12-29T11:12:43Z</time>
      </trkpt>
      <trkpt lat="45.01937" lon="6.11445">
        <ele>1849.6</ele>
        <time>2022-12-29T11:12:44Z</time>
      </trkpt>
      <trkpt lat="45.01938" lon="6.11445">
        <ele>1849.6</ele>
        <time>2022-12-29T11:12:45Z</time>
      </trkpt>
      <trkpt lat="45.01938" lon="6.11444">
        <ele>1851</ele>
        <time>2022-12-29T11:12:46Z</time>
      </trkpt>
      <trkpt lat="45.01941" lon="6.11442">
        <ele>1851</ele>
        <time>2022-12-29T11:12:47Z</time>
      </trkpt>
      <trkpt lat="45.01941" lon="6.11442">
        <ele>1851</ele>
        <time>2022-12-29T11:12:48Z</time>
      </trkpt>
      <trkpt lat="45.01941" lon="6.11442">
        <ele>1851</ele>
        <time>2022-12-29T11:12:49Z</time>
      </trkpt>
      <trkpt lat="45.01941" lon="6.11441">
        <ele>1851</ele>
        <time>2022-12-29T11:12:50Z</time>
      </trkpt>
      <trkpt lat="45.01941" lon="6.11441">
        <ele>1851</ele>
        <time>2022-12-29T11:12:51Z</time>
      </trkpt>
      <trkpt lat="45.01941" lon="6.11441">
        <ele>1851</ele>
        <time>2022-12-29T11:12:52Z</time>
      </trkpt>
      <trkpt lat="45.01941" lon="6.11441">
        <ele>1851</ele>
        <time>2022-12-29T11:12:53Z</time>
      </trkpt>
      <trkpt lat="45.01942" lon="6.1144">
        <ele>1851</ele>
        <time>2022-12-29T11:12:54Z</time>
      </trkpt>
      <trkpt lat="45.01942" lon="6.1144">
        <ele>1851</ele>
        <time>2022-12-29T11:12:55Z</time>
      </trkpt>
      <trkpt lat="45.01942" lon="6.1144">
        <ele>1851.6</ele>
        <time>2022-12-29T11:12:56Z</time>
      </trkpt>
      <trkpt lat="45.01939" lon="6.11438">
        <ele>1851.6</ele>
        <time>2022-12-29T11:12:57Z</time>
      </trkpt>
      <trkpt lat="45.01939" lon="6.11438">
        <ele>1851.6</ele>
        <time>2022-12-29T11:12:58Z</time>
      </trkpt>
      <trkpt lat="45.01938" lon="6.11437">
        <ele>1851.6</ele>
        <time>2022-12-29T11:12:59Z</time>
      </trkpt>
      <trkpt lat="45.01938" lon="6.11437">
        <ele>1851.6</ele>
        <time>2022-12-29T11:13:00Z</time>
      </trkpt>
      <trkpt lat="45.01937" lon="6.11437">
        <ele>1851.6</ele>
        <time>2022-12-29T11:13:01Z</time>
      </trkpt>
      <trkpt lat="45.01936" lon="6.11436">
        <ele>1851.6</ele>
        <time>2022-12-29T11:13:02Z</time>
      </trkpt>
      <trkpt lat="45.01936" lon="6.11436">
        <ele>1851.6</ele>
        <time>2022-12-29T11:13:03Z</time>
      </trkpt>
      <trkpt lat="45.01935" lon="6.11436">
        <ele>1851.6</ele>
        <time>2022-12-29T11:13:04Z</time>
      </trkpt>
      <trkpt lat="45.01935" lon="6.11436">
        <ele>1851.6</ele>
        <time>2022-12-29T11:13:05Z</time>
      </trkpt>
      <trkpt lat="45.01934" lon="6.11435">
        <ele>1853.6</ele>
        <time>2022-12-29T11:13:06Z</time>
      </trkpt>
      <trkpt lat="45.01931" lon="6.11435">
        <ele>1853.6</ele>
        <time>2022-12-29T11:13:07Z</time>
      </trkpt>
      <trkpt lat="45.01931" lon="6.11435">
        <ele>1853.6</ele>
        <time>2022-12-29T11:13:08Z</time>
      </trkpt>
      <trkpt lat="45.0193" lon="6.11434">
        <ele>1853.6</ele>
        <time>2022-12-29T11:13:09Z</time>
      </trkpt>
      <trkpt lat="45.01929" lon="6.11434">
        <ele>1853.6</ele>
        <time>2022-12-29T11:13:10Z</time>
      </trkpt>
      <trkpt lat="45.01928" lon="6.11434">
        <ele>1853.6</ele>
        <time>2022-12-29T11:13:11Z</time>
      </trkpt>
      <trkpt lat="45.01927" lon="6.11434">
        <ele>1853.6</ele>
        <time>2022-12-29T11:13:12Z</time>
      </trkpt>
      <trkpt lat="45.01927" lon="6.11433">
        <ele>1853.6</ele>
        <time>2022-12-29T11:13:13Z</time>
      </trkpt>
      <trkpt lat="45.01926" lon="6.11433">
        <ele>1853.6</ele>
        <time>2022-12-29T11:13:14Z</time>
      </trkpt>
      <trkpt lat="45.01925" lon="6.11433">
        <ele>1853.6</ele>
        <time>2022-12-29T11:13:15Z</time>
      </trkpt>
      <trkpt lat="45.01924" lon="6.11433">
        <ele>1855</ele>
        <time>2022-12-29T11:13:16Z</time>
      </trkpt>
      <trkpt lat="45.01924" lon="6.11432">
        <ele>1855</ele>
        <time>2022-12-29T11:13:17Z</time>
      </trkpt>
      <trkpt lat="45.01923" lon="6.11432">
        <ele>1855</ele>
        <time>2022-12-29T11:13:18Z</time>
      </trkpt>
      <trkpt lat="45.01922" lon="6.11432">
        <ele>1855</ele>
        <time>2022-12-29T11:13:19Z</time>
      </trkpt>
      <trkpt lat="45.01922" lon="6.11431">
        <ele>1855</ele>
        <time>2022-12-29T11:13:20Z</time>
      </trkpt>
      <trkpt lat="45.01921" lon="6.11431">
        <ele>1855</ele>
        <time>2022-12-29T11:13:21Z</time>
      </trkpt>
      <trkpt lat="45.01921" lon="6.1143">
        <ele>1855</ele>
        <time>2022-12-29T11:13:22Z</time>
      </trkpt>
      <trkpt lat="45.0192" lon="6.1143">
        <ele>1855</ele>
        <time>2022-12-29T11:13:23Z</time>
      </trkpt>
      <trkpt lat="45.0192" lon="6.1143">
        <ele>1855</ele>
        <time>2022-12-29T11:13:24Z</time>
      </trkpt>
      <trkpt lat="45.01919" lon="6.11429">
        <ele>1855</ele>
        <time>2022-12-29T11:13:25Z</time>
      </trkpt>
      <trkpt lat="45.01918" lon="6.11429">
        <ele>1857</ele>
        <time>2022-12-29T11:13:26Z</time>
      </trkpt>
      <trkpt lat="45.01916" lon="6.11427">
        <ele>1857</ele>
        <time>2022-12-29T11:13:27Z</time>
      </trkpt>
      <trkpt lat="45.01915" lon="6.11427">
        <ele>1857</ele>
        <time>2022-12-29T11:13:28Z</time>
      </trkpt>
      <trkpt lat="45.01915" lon="6.11427">
        <ele>1857</ele>
        <time>2022-12-29T11:13:29Z</time>
      </trkpt>
      <trkpt lat="45.01914" lon="6.11427">
        <ele>1857</ele>
        <time>2022-12-29T11:13:30Z</time>
      </trkpt>
      <trkpt lat="45.01913" lon="6.11426">
        <ele>1857</ele>
        <time>2022-12-29T11:13:31Z</time>
      </trkpt>
      <trkpt lat="45.01913" lon="6.11426">
        <ele>1857</ele>
        <time>2022-12-29T11:13:32Z</time>
      </trkpt>
      <trkpt lat="45.01912" lon="6.11426">
        <ele>1857</ele>
        <time>2022-12-29T11:13:33Z</time>
      </trkpt>
      <trkpt lat="45.01911" lon="6.11426">
        <ele>1857</ele>
        <time>2022-12-29T11:13:34Z</time>
      </trkpt>
      <trkpt lat="45.01911" lon="6.11426">
        <ele>1857</ele>
        <time>2022-12-29T11:13:35Z</time>
      </trkpt>
      <trkpt lat="45.0191" lon="6.11426">
        <ele>1858.4</ele>
        <time>2022-12-29T11:13:36Z</time>
      </trkpt>
      <trkpt lat="45.01909" lon="6.11426">
        <ele>1858.4</ele>
        <time>2022-12-29T11:13:37Z</time>
      </trkpt>
      <trkpt lat="45.01909" lon="6.11426">
        <ele>1858.4</ele>
        <time>2022-12-29T11:13:38Z</time>
      </trkpt>
      <trkpt lat="45.01908" lon="6.11426">
        <ele>1858.4</ele>
        <time>2022-12-29T11:13:39Z</time>
      </trkpt>
      <trkpt lat="45.01907" lon="6.11426">
        <ele>1858.4</ele>
        <time>2022-12-29T11:13:40Z</time>
      </trkpt>
      <trkpt lat="45.01906" lon="6.11426">
        <ele>1858.4</ele>
        <time>2022-12-29T11:13:41Z</time>
      </trkpt>
      <trkpt lat="45.01906" lon="6.11426">
        <ele>1858.4</ele>
        <time>2022-12-29T11:13:42Z</time>
      </trkpt>
      <trkpt lat="45.01905" lon="6.11426">
        <ele>1858.4</ele>
        <time>2022-12-29T11:13:43Z</time>
      </trkpt>
      <trkpt lat="45.01904" lon="6.11426">
        <ele>1858.4</ele>
        <time>2022-12-29T11:13:44Z</time>
      </trkpt>
      <trkpt lat="45.01904" lon="6.11426">
        <ele>1858.4</ele>
        <time>2022-12-29T11:13:45Z</time>
      </trkpt>
      <trkpt lat="45.01903" lon="6.11426">
        <ele>1860.2</ele>
        <time>2022-12-29T11:13:46Z</time>
      </trkpt>
      <trkpt lat="45.01902" lon="6.11426">
        <ele>1860.2</ele>
        <time>2022-12-29T11:13:47Z</time>
      </trkpt>
      <trkpt lat="45.01901" lon="6.11426">
        <ele>1860.2</ele>
        <time>2022-12-29T11:13:48Z</time>
      </trkpt>
      <trkpt lat="45.01901" lon="6.11426">
        <ele>1860.2</ele>
        <time>2022-12-29T11:13:49Z</time>
      </trkpt>
      <trkpt lat="45.019" lon="6.11426">
        <ele>1860.2</ele>
        <time>2022-12-29T11:13:50Z</time>
      </trkpt>
      <trkpt lat="45.01899" lon="6.11426">
        <ele>1860.2</ele>
        <time>2022-12-29T11:13:51Z</time>
      </trkpt>
      <trkpt lat="45.01899" lon="6.11426">
        <ele>1860.2</ele>
        <time>2022-12-29T11:13:52Z</time>
      </trkpt>
      <trkpt lat="45.01898" lon="6.11426">
        <ele>1860.2</ele>
        <time>2022-12-29T11:13:53Z</time>
      </trkpt>
      <trkpt lat="45.01897" lon="6.11426">
        <ele>1860.2</ele>
        <time>2022-12-29T11:13:54Z</time>
      </trkpt>
      <trkpt lat="45.01897" lon="6.11426">
        <ele>1860.2</ele>
        <time>2022-12-29T11:13:55Z</time>
      </trkpt>
      <trkpt lat="45.01896" lon="6.11426">
        <ele>1861.8</ele>
        <time>2022-12-29T11:13:56Z</time>
      </trkpt>
      <trkpt lat="45.01895" lon="6.11426">
        <ele>1861.8</ele>
        <time>2022-12-29T11:13:57Z</time>
      </trkpt>
      <trkpt lat="45.01895" lon="6.11426">
        <ele>1861.8</ele>
        <time>2022-12-29T11:13:58Z</time>
      </trkpt>
      <trkpt lat="45.01894" lon="6.11426">
        <ele>1861.8</ele>
        <time>2022-12-29T11:13:59Z</time>
      </trkpt>
      <trkpt lat="45.01893" lon="6.11426">
        <ele>1861.8</ele>
        <time>2022-12-29T11:14:00Z</time>
      </trkpt>
      <trkpt lat="45.01893" lon="6.11426">
        <ele>1861.8</ele>
        <time>2022-12-29T11:14:01Z</time>
      </trkpt>
      <trkpt lat="45.01892" lon="6.11426">
        <ele>1861.8</ele>
        <time>2022-12-29T11:14:02Z</time>
      </trkpt>
      <trkpt lat="45.01891" lon="6.11426">
        <ele>1861.8</ele>
        <time>2022-12-29T11:14:03Z</time>
      </trkpt>
      <trkpt lat="45.01891" lon="6.11426">
        <ele>1861.8</ele>
        <time>2022-12-29T11:14:04Z</time>
      </trkpt>
      <trkpt lat="45.0189" lon="6.11426">
        <ele>1861.8</ele>
        <time>2022-12-29T11:14:05Z</time>
      </trkpt>
      <trkpt lat="45.01889" lon="6.11427">
        <ele>1864</ele>
        <time>2022-12-29T11:14:06Z</time>
      </trkpt>
      <trkpt lat="45.01889" lon="6.11427">
        <ele>1864</ele>
        <time>2022-12-29T11:14:07Z</time>
      </trkpt>
      <trkpt lat="45.01889" lon="6.11427">
        <ele>1864</ele>
        <time>2022-12-29T11:14:08Z</time>
      </trkpt>
      <trkpt lat="45.01889" lon="6.11427">
        <ele>1864</ele>
        <time>2022-12-29T11:14:09Z</time>
      </trkpt>
      <trkpt lat="45.01889" lon="6.11427">
        <ele>1864</ele>
        <time>2022-12-29T11:14:10Z</time>
      </trkpt>
      <trkpt lat="45.01889" lon="6.11427">
        <ele>1864</ele>
        <time>2022-12-29T11:14:11Z</time>
      </trkpt>
      <trkpt lat="45.01889" lon="6.11427">
        <ele>1864</ele>
        <time>2022-12-29T11:14:12Z</time>
      </trkpt>
      <trkpt lat="45.01889" lon="6.11427">
        <ele>1864</ele>
        <time>2022-12-29T11:14:13Z</time>
      </trkpt>
      <trkpt lat="45.01887" lon="6.11427">
        <ele>1864</ele>
        <time>2022-12-29T11:14:14Z</time>
      </trkpt>
      <trkpt lat="45.01887" lon="6.11427">
        <ele>1864</ele>
        <time>2022-12-29T11:14:15Z</time>
      </trkpt>
      <trkpt lat="45.01887" lon="6.11427">
        <ele>1864.4</ele>
        <time>2022-12-29T11:14:16Z</time>
      </trkpt>
      <trkpt lat="45.01887" lon="6.11427">
        <ele>1864.4</ele>
        <time>2022-12-29T11:14:17Z</time>
      </trkpt>
      <trkpt lat="45.01886" lon="6.11427">
        <ele>1864.4</ele>
        <time>2022-12-29T11:14:18Z</time>
      </trkpt>
      <trkpt lat="45.01886" lon="6.11427">
        <ele>1864.4</ele>
        <time>2022-12-29T11:14:19Z</time>
      </trkpt>
      <trkpt lat="45.01885" lon="6.11427">
        <ele>1864.4</ele>
        <time>2022-12-29T11:14:20Z</time>
      </trkpt>
      <trkpt lat="45.01884" lon="6.11427">
        <ele>1864.4</ele>
        <time>2022-12-29T11:14:21Z</time>
      </trkpt>
      <trkpt lat="45.01884" lon="6.11427">
        <ele>1864.4</ele>
        <time>2022-12-29T11:14:22Z</time>
      </trkpt>
      <trkpt lat="45.01883" lon="6.11427">
        <ele>1864.4</ele>
        <time>2022-12-29T11:14:23Z</time>
      </trkpt>
      <trkpt lat="45.01883" lon="6.11427">
        <ele>1864.4</ele>
        <time>2022-12-29T11:14:24Z</time>
      </trkpt>
      <trkpt lat="45.01882" lon="6.11427">
        <ele>1864.4</ele>
        <time>2022-12-29T11:14:25Z</time>
      </trkpt>
      <trkpt lat="45.01881" lon="6.11427">
        <ele>1865.6</ele>
        <time>2022-12-29T11:14:26Z</time>
      </trkpt>
      <trkpt lat="45.01881" lon="6.11427">
        <ele>1865.6</ele>
        <time>2022-12-29T11:14:27Z</time>
      </trkpt>
      <trkpt lat="45.0188" lon="6.11427">
        <ele>1865.6</ele>
        <time>2022-12-29T11:14:28Z</time>
      </trkpt>
      <trkpt lat="45.01879" lon="6.11427">
        <ele>1865.6</ele>
        <time>2022-12-29T11:14:29Z</time>
      </trkpt>
      <trkpt lat="45.01879" lon="6.11427">
        <ele>1865.6</ele>
        <time>2022-12-29T11:14:30Z</time>
      </trkpt>
      <trkpt lat="45.01878" lon="6.11427">
        <ele>1865.6</ele>
        <time>2022-12-29T11:14:31Z</time>
      </trkpt>
      <trkpt lat="45.01877" lon="6.11427">
        <ele>1865.6</ele>
        <time>2022-12-29T11:14:32Z</time>
      </trkpt>
      <trkpt lat="45.01877" lon="6.11427">
        <ele>1865.6</ele>
        <time>2022-12-29T11:14:33Z</time>
      </trkpt>
      <trkpt lat="45.01876" lon="6.11427">
        <ele>1865.6</ele>
        <time>2022-12-29T11:14:34Z</time>
      </trkpt>
      <trkpt lat="45.01875" lon="6.11427">
        <ele>1865.6</ele>
        <time>2022-12-29T11:14:35Z</time>
      </trkpt>
      <trkpt lat="45.01875" lon="6.11428">
        <ele>1867.2</ele>
        <time>2022-12-29T11:14:36Z</time>
      </trkpt>
      <trkpt lat="45.01872" lon="6.11426">
        <ele>1867.2</ele>
        <time>2022-12-29T11:14:37Z</time>
      </trkpt>
      <trkpt lat="45.01872" lon="6.11426">
        <ele>1867.2</ele>
        <time>2022-12-29T11:14:38Z</time>
      </trkpt>
      <trkpt lat="45.01871" lon="6.11425">
        <ele>1867.2</ele>
        <time>2022-12-29T11:14:39Z</time>
      </trkpt>
      <trkpt lat="45.01871" lon="6.11425">
        <ele>1867.2</ele>
        <time>2022-12-29T11:14:40Z</time>
      </trkpt>
      <trkpt lat="45.0187" lon="6.11425">
        <ele>1867.2</ele>
        <time>2022-12-29T11:14:41Z</time>
      </trkpt>
      <trkpt lat="45.01869" lon="6.11424">
        <ele>1867.2</ele>
        <time>2022-12-29T11:14:42Z</time>
      </trkpt>
      <trkpt lat="45.01869" lon="6.11424">
        <ele>1867.2</ele>
        <time>2022-12-29T11:14:43Z</time>
      </trkpt>
      <trkpt lat="45.01868" lon="6.11424">
        <ele>1867.2</ele>
        <time>2022-12-29T11:14:44Z</time>
      </trkpt>
      <trkpt lat="45.01868" lon="6.11423">
        <ele>1867.2</ele>
        <time>2022-12-29T11:14:45Z</time>
      </trkpt>
      <trkpt lat="45.01867" lon="6.11423">
        <ele>1868.8</ele>
        <time>2022-12-29T11:14:46Z</time>
      </trkpt>
      <trkpt lat="45.01867" lon="6.11423">
        <ele>1868.8</ele>
        <time>2022-12-29T11:14:47Z</time>
      </trkpt>
      <trkpt lat="45.01867" lon="6.11423">
        <ele>1868.8</ele>
        <time>2022-12-29T11:14:48Z</time>
      </trkpt>
      <trkpt lat="45.01867" lon="6.11423">
        <ele>1868.8</ele>
        <time>2022-12-29T11:14:49Z</time>
      </trkpt>
      <trkpt lat="45.01867" lon="6.11423">
        <ele>1868.8</ele>
        <time>2022-12-29T11:14:50Z</time>
      </trkpt>
      <trkpt lat="45.01867" lon="6.11423">
        <ele>1868.8</ele>
        <time>2022-12-29T11:14:51Z</time>
      </trkpt>
      <trkpt lat="45.01867" lon="6.11423">
        <ele>1868.8</ele>
        <time>2022-12-29T11:14:52Z</time>
      </trkpt>
      <trkpt lat="45.01867" lon="6.11423">
        <ele>1868.8</ele>
        <time>2022-12-29T11:14:53Z</time>
      </trkpt>
      <trkpt lat="45.01867" lon="6.11423">
        <ele>1868.8</ele>
        <time>2022-12-29T11:14:54Z</time>
      </trkpt>
      <trkpt lat="45.01865" lon="6.11421">
        <ele>1868.8</ele>
        <time>2022-12-29T11:14:55Z</time>
      </trkpt>
      <trkpt lat="45.01865" lon="6.11421">
        <ele>1870.4</ele>
        <time>2022-12-29T11:14:56Z</time>
      </trkpt>
      <trkpt lat="45.01865" lon="6.11421">
        <ele>1870.4</ele>
        <time>2022-12-29T11:14:57Z</time>
      </trkpt>
      <trkpt lat="45.01864" lon="6.1142">
        <ele>1870.4</ele>
        <time>2022-12-29T11:14:58Z</time>
      </trkpt>
      <trkpt lat="45.01864" lon="6.1142">
        <ele>1870.4</ele>
        <time>2022-12-29T11:14:59Z</time>
      </trkpt>
      <trkpt lat="45.01863" lon="6.1142">
        <ele>1870.4</ele>
        <time>2022-12-29T11:15:00Z</time>
      </trkpt>
      <trkpt lat="45.01862" lon="6.11419">
        <ele>1870.4</ele>
        <time>2022-12-29T11:15:01Z</time>
      </trkpt>
      <trkpt lat="45.01862" lon="6.11419">
        <ele>1870.4</ele>
        <time>2022-12-29T11:15:02Z</time>
      </trkpt>
      <trkpt lat="45.01861" lon="6.11419">
        <ele>1870.4</ele>
        <time>2022-12-29T11:15:03Z</time>
      </trkpt>
      <trkpt lat="45.01861" lon="6.11418">
        <ele>1870.4</ele>
        <time>2022-12-29T11:15:04Z</time>
      </trkpt>
      <trkpt lat="45.0186" lon="6.11418">
        <ele>1870.4</ele>
        <time>2022-12-29T11:15:05Z</time>
      </trkpt>
      <trkpt lat="45.0186" lon="6.11418">
        <ele>1871.2</ele>
        <time>2022-12-29T11:15:06Z</time>
      </trkpt>
      <trkpt lat="45.01857" lon="6.11416">
        <ele>1871.2</ele>
        <time>2022-12-29T11:15:07Z</time>
      </trkpt>
      <trkpt lat="45.01857" lon="6.11416">
        <ele>1871.2</ele>
        <time>2022-12-29T11:15:08Z</time>
      </trkpt>
      <trkpt lat="45.01856" lon="6.11416">
        <ele>1871.2</ele>
        <time>2022-12-29T11:15:09Z</time>
      </trkpt>
      <trkpt lat="45.01856" lon="6.11415">
        <ele>1871.2</ele>
        <time>2022-12-29T11:15:10Z</time>
      </trkpt>
      <trkpt lat="45.01855" lon="6.11415">
        <ele>1871.2</ele>
        <time>2022-12-29T11:15:11Z</time>
      </trkpt>
      <trkpt lat="45.01855" lon="6.11415">
        <ele>1871.2</ele>
        <time>2022-12-29T11:15:12Z</time>
      </trkpt>
      <trkpt lat="45.01855" lon="6.11414">
        <ele>1871.2</ele>
        <time>2022-12-29T11:15:13Z</time>
      </trkpt>
      <trkpt lat="45.01854" lon="6.11414">
        <ele>1871.2</ele>
        <time>2022-12-29T11:15:14Z</time>
      </trkpt>
      <trkpt lat="45.01854" lon="6.11414">
        <ele>1871.2</ele>
        <time>2022-12-29T11:15:15Z</time>
      </trkpt>
      <trkpt lat="45.01853" lon="6.11413">
        <ele>1873.2</ele>
        <time>2022-12-29T11:15:16Z</time>
      </trkpt>
      <trkpt lat="45.01851" lon="6.11412">
        <ele>1873.2</ele>
        <time>2022-12-29T11:15:17Z</time>
      </trkpt>
      <trkpt lat="45.01851" lon="6.11411">
        <ele>1873.2</ele>
        <time>2022-12-29T11:15:18Z</time>
      </trkpt>
      <trkpt lat="45.01851" lon="6.11411">
        <ele>1873.2</ele>
        <time>2022-12-29T11:15:19Z</time>
      </trkpt>
      <trkpt lat="45.01851" lon="6.11411">
        <ele>1873.2</ele>
        <time>2022-12-29T11:15:20Z</time>
      </trkpt>
      <trkpt lat="45.0185" lon="6.1141">
        <ele>1873.2</ele>
        <time>2022-12-29T11:15:21Z</time>
      </trkpt>
      <trkpt lat="45.0185" lon="6.1141">
        <ele>1873.2</ele>
        <time>2022-12-29T11:15:22Z</time>
      </trkpt>
      <trkpt lat="45.0185" lon="6.11409">
        <ele>1873.2</ele>
        <time>2022-12-29T11:15:23Z</time>
      </trkpt>
      <trkpt lat="45.0185" lon="6.11409">
        <ele>1873.2</ele>
        <time>2022-12-29T11:15:24Z</time>
      </trkpt>
      <trkpt lat="45.01849" lon="6.11409">
        <ele>1873.2</ele>
        <time>2022-12-29T11:15:25Z</time>
      </trkpt>
      <trkpt lat="45.01849" lon="6.11408">
        <ele>1875</ele>
        <time>2022-12-29T11:15:26Z</time>
      </trkpt>
      <trkpt lat="45.01849" lon="6.11408">
        <ele>1875</ele>
        <time>2022-12-29T11:15:27Z</time>
      </trkpt>
      <trkpt lat="45.0185" lon="6.11408">
        <ele>1875</ele>
        <time>2022-12-29T11:15:28Z</time>
      </trkpt>
      <trkpt lat="45.0185" lon="6.11407">
        <ele>1875</ele>
        <time>2022-12-29T11:15:29Z</time>
      </trkpt>
      <trkpt lat="45.0185" lon="6.11407">
        <ele>1875</ele>
        <time>2022-12-29T11:15:30Z</time>
      </trkpt>
      <trkpt lat="45.01851" lon="6.11407">
        <ele>1875</ele>
        <time>2022-12-29T11:15:31Z</time>
      </trkpt>
      <trkpt lat="45.01851" lon="6.11407">
        <ele>1875</ele>
        <time>2022-12-29T11:15:32Z</time>
      </trkpt>
      <trkpt lat="45.01851" lon="6.11406">
        <ele>1875</ele>
        <time>2022-12-29T11:15:33Z</time>
      </trkpt>
      <trkpt lat="45.01852" lon="6.11406">
        <ele>1875</ele>
        <time>2022-12-29T11:15:34Z</time>
      </trkpt>
      <trkpt lat="45.01852" lon="6.11406">
        <ele>1875</ele>
        <time>2022-12-29T11:15:35Z</time>
      </trkpt>
      <trkpt lat="45.01853" lon="6.11405">
        <ele>1876.8</ele>
        <time>2022-12-29T11:15:36Z</time>
      </trkpt>
      <trkpt lat="45.01853" lon="6.11405">
        <ele>1876.8</ele>
        <time>2022-12-29T11:15:37Z</time>
      </trkpt>
      <trkpt lat="45.01854" lon="6.11404">
        <ele>1876.8</ele>
        <time>2022-12-29T11:15:38Z</time>
      </trkpt>
      <trkpt lat="45.01855" lon="6.11403">
        <ele>1876.8</ele>
        <time>2022-12-29T11:15:39Z</time>
      </trkpt>
      <trkpt lat="45.01856" lon="6.11403">
        <ele>1876.8</ele>
        <time>2022-12-29T11:15:40Z</time>
      </trkpt>
      <trkpt lat="45.01856" lon="6.11402">
        <ele>1876.8</ele>
        <time>2022-12-29T11:15:41Z</time>
      </trkpt>
      <trkpt lat="45.01857" lon="6.11401">
        <ele>1876.8</ele>
        <time>2022-12-29T11:15:42Z</time>
      </trkpt>
      <trkpt lat="45.01858" lon="6.114">
        <ele>1876.8</ele>
        <time>2022-12-29T11:15:43Z</time>
      </trkpt>
      <trkpt lat="45.01859" lon="6.114">
        <ele>1876.8</ele>
        <time>2022-12-29T11:15:44Z</time>
      </trkpt>
      <trkpt lat="45.01859" lon="6.11399">
        <ele>1876.8</ele>
        <time>2022-12-29T11:15:45Z</time>
      </trkpt>
      <trkpt lat="45.0186" lon="6.11398">
        <ele>1878</ele>
        <time>2022-12-29T11:15:46Z</time>
      </trkpt>
      <trkpt lat="45.01861" lon="6.11398">
        <ele>1878</ele>
        <time>2022-12-29T11:15:47Z</time>
      </trkpt>
      <trkpt lat="45.01861" lon="6.11398">
        <ele>1878</ele>
        <time>2022-12-29T11:15:48Z</time>
      </trkpt>
      <trkpt lat="45.01861" lon="6.11398">
        <ele>1878</ele>
        <time>2022-12-29T11:15:49Z</time>
      </trkpt>
      <trkpt lat="45.01862" lon="6.11397">
        <ele>1878</ele>
        <time>2022-12-29T11:15:50Z</time>
      </trkpt>
      <trkpt lat="45.01862" lon="6.11397">
        <ele>1878</ele>
        <time>2022-12-29T11:15:51Z</time>
      </trkpt>
      <trkpt lat="45.01863" lon="6.11397">
        <ele>1878</ele>
        <time>2022-12-29T11:15:52Z</time>
      </trkpt>
      <trkpt lat="45.01863" lon="6.11396">
        <ele>1878</ele>
        <time>2022-12-29T11:15:53Z</time>
      </trkpt>
      <trkpt lat="45.01864" lon="6.11396">
        <ele>1878</ele>
        <time>2022-12-29T11:15:54Z</time>
      </trkpt>
      <trkpt lat="45.01864" lon="6.11396">
        <ele>1878</ele>
        <time>2022-12-29T11:15:55Z</time>
      </trkpt>
      <trkpt lat="45.01864" lon="6.11396">
        <ele>1879.8</ele>
        <time>2022-12-29T11:15:56Z</time>
      </trkpt>
      <trkpt lat="45.01864" lon="6.11396">
        <ele>1879.8</ele>
        <time>2022-12-29T11:15:57Z</time>
      </trkpt>
      <trkpt lat="45.01866" lon="6.11394">
        <ele>1879.8</ele>
        <time>2022-12-29T11:15:58Z</time>
      </trkpt>
      <trkpt lat="45.01866" lon="6.11394">
        <ele>1879.8</ele>
        <time>2022-12-29T11:15:59Z</time>
      </trkpt>
      <trkpt lat="45.01866" lon="6.11394">
        <ele>1879.8</ele>
        <time>2022-12-29T11:16:00Z</time>
      </trkpt>
      <trkpt lat="45.01868" lon="6.11393">
        <ele>1879.8</ele>
        <time>2022-12-29T11:16:01Z</time>
      </trkpt>
      <trkpt lat="45.01868" lon="6.11393">
        <ele>1879.8</ele>
        <time>2022-12-29T11:16:02Z</time>
      </trkpt>
      <trkpt lat="45.01868" lon="6.11393">
        <ele>1879.8</ele>
        <time>2022-12-29T11:16:03Z</time>
      </trkpt>
      <trkpt lat="45.01868" lon="6.11393">
        <ele>1879.8</ele>
        <time>2022-12-29T11:16:04Z</time>
      </trkpt>
      <trkpt lat="45.01868" lon="6.11393">
        <ele>1879.8</ele>
        <time>2022-12-29T11:16:05Z</time>
      </trkpt>
      <trkpt lat="45.01868" lon="6.11393">
        <ele>1881.6</ele>
        <time>2022-12-29T11:16:06Z</time>
      </trkpt>
      <trkpt lat="45.01867" lon="6.11393">
        <ele>1881.6</ele>
        <time>2022-12-29T11:16:07Z</time>
      </trkpt>
      <trkpt lat="45.01866" lon="6.11392">
        <ele>1881.6</ele>
        <time>2022-12-29T11:16:08Z</time>
      </trkpt>
      <trkpt lat="45.01866" lon="6.11392">
        <ele>1881.6</ele>
        <time>2022-12-29T11:16:09Z</time>
      </trkpt>
      <trkpt lat="45.01865" lon="6.11392">
        <ele>1881.6</ele>
        <time>2022-12-29T11:16:10Z</time>
      </trkpt>
      <trkpt lat="45.01864" lon="6.11392">
        <ele>1881.6</ele>
        <time>2022-12-29T11:16:11Z</time>
      </trkpt>
      <trkpt lat="45.01864" lon="6.11392">
        <ele>1881.6</ele>
        <time>2022-12-29T11:16:12Z</time>
      </trkpt>
      <trkpt lat="45.01863" lon="6.11392">
        <ele>1881.6</ele>
        <time>2022-12-29T11:16:13Z</time>
      </trkpt>
      <trkpt lat="45.01862" lon="6.11392">
        <ele>1881.6</ele>
        <time>2022-12-29T11:16:14Z</time>
      </trkpt>
      <trkpt lat="45.01862" lon="6.11392">
        <ele>1881.6</ele>
        <time>2022-12-29T11:16:15Z</time>
      </trkpt>
      <trkpt lat="45.01861" lon="6.11391">
        <ele>1882.4</ele>
        <time>2022-12-29T11:16:16Z</time>
      </trkpt>
      <trkpt lat="45.0186" lon="6.11391">
        <ele>1882.4</ele>
        <time>2022-12-29T11:16:17Z</time>
      </trkpt>
      <trkpt lat="45.01859" lon="6.11391">
        <ele>1882.4</ele>
        <time>2022-12-29T11:16:18Z</time>
      </trkpt>
      <trkpt lat="45.01859" lon="6.11391">
        <ele>1882.4</ele>
        <time>2022-12-29T11:16:19Z</time>
      </trkpt>
      <trkpt lat="45.01858" lon="6.11391">
        <ele>1882.4</ele>
        <time>2022-12-29T11:16:20Z</time>
      </trkpt>
      <trkpt lat="45.01857" lon="6.11391">
        <ele>1882.4</ele>
        <time>2022-12-29T11:16:21Z</time>
      </trkpt>
      <trkpt lat="45.01856" lon="6.11391">
        <ele>1882.4</ele>
        <time>2022-12-29T11:16:22Z</time>
      </trkpt>
      <trkpt lat="45.01855" lon="6.11391">
        <ele>1882.4</ele>
        <time>2022-12-29T11:16:23Z</time>
      </trkpt>
      <trkpt lat="45.01855" lon="6.11391">
        <ele>1882.4</ele>
        <time>2022-12-29T11:16:24Z</time>
      </trkpt>
      <trkpt lat="45.01854" lon="6.11391">
        <ele>1882.4</ele>
        <time>2022-12-29T11:16:25Z</time>
      </trkpt>
      <trkpt lat="45.01853" lon="6.11391">
        <ele>1883.6</ele>
        <time>2022-12-29T11:16:26Z</time>
      </trkpt>
      <trkpt lat="45.01853" lon="6.11391">
        <ele>1883.6</ele>
        <time>2022-12-29T11:16:27Z</time>
      </trkpt>
      <trkpt lat="45.01852" lon="6.11391">
        <ele>1883.6</ele>
        <time>2022-12-29T11:16:28Z</time>
      </trkpt>
      <trkpt lat="45.01851" lon="6.11391">
        <ele>1883.6</ele>
        <time>2022-12-29T11:16:29Z</time>
      </trkpt>
      <trkpt lat="45.01851" lon="6.11391">
        <ele>1883.6</ele>
        <time>2022-12-29T11:16:30Z</time>
      </trkpt>
      <trkpt lat="45.0185" lon="6.11391">
        <ele>1883.6</ele>
        <time>2022-12-29T11:16:31Z</time>
      </trkpt>
      <trkpt lat="45.0185" lon="6.11391">
        <ele>1883.6</ele>
        <time>2022-12-29T11:16:32Z</time>
      </trkpt>
      <trkpt lat="45.01849" lon="6.11391">
        <ele>1883.6</ele>
        <time>2022-12-29T11:16:33Z</time>
      </trkpt>
      <trkpt lat="45.01849" lon="6.11391">
        <ele>1883.6</ele>
        <time>2022-12-29T11:16:34Z</time>
      </trkpt>
      <trkpt lat="45.01848" lon="6.11391">
        <ele>1883.6</ele>
        <time>2022-12-29T11:16:35Z</time>
      </trkpt>
      <trkpt lat="45.01847" lon="6.11391">
        <ele>1885</ele>
        <time>2022-12-29T11:16:36Z</time>
      </trkpt>
      <trkpt lat="45.01847" lon="6.11391">
        <ele>1885</ele>
        <time>2022-12-29T11:16:37Z</time>
      </trkpt>
      <trkpt lat="45.01846" lon="6.11391">
        <ele>1885</ele>
        <time>2022-12-29T11:16:38Z</time>
      </trkpt>
      <trkpt lat="45.01846" lon="6.11391">
        <ele>1885</ele>
        <time>2022-12-29T11:16:39Z</time>
      </trkpt>
      <trkpt lat="45.01845" lon="6.1139">
        <ele>1885</ele>
        <time>2022-12-29T11:16:40Z</time>
      </trkpt>
      <trkpt lat="45.01845" lon="6.1139">
        <ele>1885</ele>
        <time>2022-12-29T11:16:41Z</time>
      </trkpt>
      <trkpt lat="45.01845" lon="6.1139">
        <ele>1885</ele>
        <time>2022-12-29T11:16:42Z</time>
      </trkpt>
      <trkpt lat="45.01844" lon="6.1139">
        <ele>1885</ele>
        <time>2022-12-29T11:16:43Z</time>
      </trkpt>
      <trkpt lat="45.01844" lon="6.1139">
        <ele>1885</ele>
        <time>2022-12-29T11:16:44Z</time>
      </trkpt>
      <trkpt lat="45.01843" lon="6.1139">
        <ele>1885</ele>
        <time>2022-12-29T11:16:45Z</time>
      </trkpt>
      <trkpt lat="45.01843" lon="6.11389">
        <ele>1886.8</ele>
        <time>2022-12-29T11:16:46Z</time>
      </trkpt>
      <trkpt lat="45.01843" lon="6.11389">
        <ele>1886.8</ele>
        <time>2022-12-29T11:16:47Z</time>
      </trkpt>
      <trkpt lat="45.01843" lon="6.11389">
        <ele>1886.8</ele>
        <time>2022-12-29T11:16:48Z</time>
      </trkpt>
      <trkpt lat="45.01843" lon="6.11389">
        <ele>1886.8</ele>
        <time>2022-12-29T11:16:49Z</time>
      </trkpt>
      <trkpt lat="45.01843" lon="6.11389">
        <ele>1886.8</ele>
        <time>2022-12-29T11:16:50Z</time>
      </trkpt>
      <trkpt lat="45.01843" lon="6.11389">
        <ele>1886.8</ele>
        <time>2022-12-29T11:16:51Z</time>
      </trkpt>
      <trkpt lat="45.01843" lon="6.11389">
        <ele>1886.8</ele>
        <time>2022-12-29T11:16:52Z</time>
      </trkpt>
      <trkpt lat="45.01843" lon="6.11389">
        <ele>1886.8</ele>
        <time>2022-12-29T11:16:53Z</time>
      </trkpt>
      <trkpt lat="45.01843" lon="6.11387">
        <ele>1886.8</ele>
        <time>2022-12-29T11:16:54Z</time>
      </trkpt>
      <trkpt lat="45.01843" lon="6.11387">
        <ele>1886.8</ele>
        <time>2022-12-29T11:16:55Z</time>
      </trkpt>
      <trkpt lat="45.01843" lon="6.11387">
        <ele>1887.2</ele>
        <time>2022-12-29T11:16:56Z</time>
      </trkpt>
      <trkpt lat="45.01846" lon="6.11384">
        <ele>1887.2</ele>
        <time>2022-12-29T11:16:57Z</time>
      </trkpt>
      <trkpt lat="45.01847" lon="6.11384">
        <ele>1887.2</ele>
        <time>2022-12-29T11:16:58Z</time>
      </trkpt>
      <trkpt lat="45.01848" lon="6.11383">
        <ele>1887.2</ele>
        <time>2022-12-29T11:16:59Z</time>
      </trkpt>
      <trkpt lat="45.01849" lon="6.11382">
        <ele>1887.2</ele>
        <time>2022-12-29T11:17:00Z</time>
      </trkpt>
      <trkpt lat="45.0185" lon="6.11382">
        <ele>1887.2</ele>
        <time>2022-12-29T11:17:01Z</time>
      </trkpt>
      <trkpt lat="45.01851" lon="6.11381">
        <ele>1887.2</ele>
        <time>2022-12-29T11:17:02Z</time>
      </trkpt>
      <trkpt lat="45.01852" lon="6.11381">
        <ele>1887.2</ele>
        <time>2022-12-29T11:17:03Z</time>
      </trkpt>
      <trkpt lat="45.01853" lon="6.1138">
        <ele>1887.2</ele>
        <time>2022-12-29T11:17:04Z</time>
      </trkpt>
      <trkpt lat="45.01854" lon="6.11379">
        <ele>1887.2</ele>
        <time>2022-12-29T11:17:05Z</time>
      </trkpt>
      <trkpt lat="45.01855" lon="6.11379">
        <ele>1888.4</ele>
        <time>2022-12-29T11:17:06Z</time>
      </trkpt>
      <trkpt lat="45.01857" lon="6.11377">
        <ele>1888.4</ele>
        <time>2022-12-29T11:17:07Z</time>
      </trkpt>
      <trkpt lat="45.01858" lon="6.11377">
        <ele>1888.4</ele>
        <time>2022-12-29T11:17:08Z</time>
      </trkpt>
      <trkpt lat="45.01858" lon="6.11376">
        <ele>1888.4</ele>
        <time>2022-12-29T11:17:09Z</time>
      </trkpt>
      <trkpt lat="45.01859" lon="6.11376">
        <ele>1888.4</ele>
        <time>2022-12-29T11:17:10Z</time>
      </trkpt>
      <trkpt lat="45.0186" lon="6.11375">
        <ele>1888.4</ele>
        <time>2022-12-29T11:17:11Z</time>
      </trkpt>
      <trkpt lat="45.01861" lon="6.11375">
        <ele>1888.4</ele>
        <time>2022-12-29T11:17:12Z</time>
      </trkpt>
      <trkpt lat="45.01862" lon="6.11374">
        <ele>1888.4</ele>
        <time>2022-12-29T11:17:13Z</time>
      </trkpt>
      <trkpt lat="45.01862" lon="6.11374">
        <ele>1888.4</ele>
        <time>2022-12-29T11:17:14Z</time>
      </trkpt>
      <trkpt lat="45.01863" lon="6.11373">
        <ele>1888.4</ele>
        <time>2022-12-29T11:17:15Z</time>
      </trkpt>
      <trkpt lat="45.01864" lon="6.11373">
        <ele>1889</ele>
        <time>2022-12-29T11:17:16Z</time>
      </trkpt>
      <trkpt lat="45.01866" lon="6.11371">
        <ele>1889</ele>
        <time>2022-12-29T11:17:17Z</time>
      </trkpt>
      <trkpt lat="45.01866" lon="6.11371">
        <ele>1889</ele>
        <time>2022-12-29T11:17:18Z</time>
      </trkpt>
      <trkpt lat="45.01867" lon="6.1137">
        <ele>1889</ele>
        <time>2022-12-29T11:17:19Z</time>
      </trkpt>
      <trkpt lat="45.01868" lon="6.1137">
        <ele>1889</ele>
        <time>2022-12-29T11:17:20Z</time>
      </trkpt>
      <trkpt lat="45.01869" lon="6.11369">
        <ele>1889</ele>
        <time>2022-12-29T11:17:21Z</time>
      </trkpt>
      <trkpt lat="45.01869" lon="6.11369">
        <ele>1889</ele>
        <time>2022-12-29T11:17:22Z</time>
      </trkpt>
      <trkpt lat="45.0187" lon="6.11368">
        <ele>1889</ele>
        <time>2022-12-29T11:17:23Z</time>
      </trkpt>
      <trkpt lat="45.01871" lon="6.11368">
        <ele>1889</ele>
        <time>2022-12-29T11:17:24Z</time>
      </trkpt>
      <trkpt lat="45.01871" lon="6.11367">
        <ele>1889</ele>
        <time>2022-12-29T11:17:25Z</time>
      </trkpt>
      <trkpt lat="45.01872" lon="6.11367">
        <ele>1889</ele>
        <time>2022-12-29T11:17:26Z</time>
      </trkpt>
      <trkpt lat="45.01875" lon="6.11365">
        <ele>1889</ele>
        <time>2022-12-29T11:17:27Z</time>
      </trkpt>
      <trkpt lat="45.01876" lon="6.11365">
        <ele>1889</ele>
        <time>2022-12-29T11:17:28Z</time>
      </trkpt>
      <trkpt lat="45.01876" lon="6.11364">
        <ele>1889</ele>
        <time>2022-12-29T11:17:29Z</time>
      </trkpt>
      <trkpt lat="45.01877" lon="6.11364">
        <ele>1889</ele>
        <time>2022-12-29T11:17:31Z</time>
      </trkpt>
      <trkpt lat="45.01878" lon="6.11363">
        <ele>1889</ele>
        <time>2022-12-29T11:17:32Z</time>
      </trkpt>
      <trkpt lat="45.01879" lon="6.11363">
        <ele>1889</ele>
        <time>2022-12-29T11:17:33Z</time>
      </trkpt>
      <trkpt lat="45.0188" lon="6.11362">
        <ele>1889</ele>
        <time>2022-12-29T11:17:34Z</time>
      </trkpt>
      <trkpt lat="45.01881" lon="6.11362">
        <ele>1889</ele>
        <time>2022-12-29T11:17:35Z</time>
      </trkpt>
      <trkpt lat="45.01881" lon="6.11361">
        <ele>1890</ele>
        <time>2022-12-29T11:17:36Z</time>
      </trkpt>
      <trkpt lat="45.01883" lon="6.1136">
        <ele>1890</ele>
        <time>2022-12-29T11:17:37Z</time>
      </trkpt>
      <trkpt lat="45.01884" lon="6.11359">
        <ele>1890</ele>
        <time>2022-12-29T11:17:38Z</time>
      </trkpt>
      <trkpt lat="45.01885" lon="6.11359">
        <ele>1890</ele>
        <time>2022-12-29T11:17:39Z</time>
      </trkpt>
      <trkpt lat="45.01885" lon="6.11358">
        <ele>1890</ele>
        <time>2022-12-29T11:17:40Z</time>
      </trkpt>
      <trkpt lat="45.01886" lon="6.11358">
        <ele>1890</ele>
        <time>2022-12-29T11:17:41Z</time>
      </trkpt>
      <trkpt lat="45.01887" lon="6.11357">
        <ele>1890</ele>
        <time>2022-12-29T11:17:42Z</time>
      </trkpt>
      <trkpt lat="45.01888" lon="6.11356">
        <ele>1890</ele>
        <time>2022-12-29T11:17:43Z</time>
      </trkpt>
      <trkpt lat="45.01888" lon="6.11356">
        <ele>1890</ele>
        <time>2022-12-29T11:17:44Z</time>
      </trkpt>
      <trkpt lat="45.01889" lon="6.11355">
        <ele>1890</ele>
        <time>2022-12-29T11:17:45Z</time>
      </trkpt>
      <trkpt lat="45.0189" lon="6.11355">
        <ele>1890.6</ele>
        <time>2022-12-29T11:17:46Z</time>
      </trkpt>
      <trkpt lat="45.01893" lon="6.11354">
        <ele>1890.6</ele>
        <time>2022-12-29T11:17:47Z</time>
      </trkpt>
      <trkpt lat="45.01893" lon="6.11354">
        <ele>1890.6</ele>
        <time>2022-12-29T11:17:48Z</time>
      </trkpt>
      <trkpt lat="45.01893" lon="6.11354">
        <ele>1890.6</ele>
        <time>2022-12-29T11:17:49Z</time>
      </trkpt>
      <trkpt lat="45.01894" lon="6.11354">
        <ele>1890.6</ele>
        <time>2022-12-29T11:17:50Z</time>
      </trkpt>
      <trkpt lat="45.01894" lon="6.11353">
        <ele>1890.6</ele>
        <time>2022-12-29T11:17:51Z</time>
      </trkpt>
      <trkpt lat="45.01895" lon="6.11353">
        <ele>1890.6</ele>
        <time>2022-12-29T11:17:52Z</time>
      </trkpt>
      <trkpt lat="45.01895" lon="6.11353">
        <ele>1890.6</ele>
        <time>2022-12-29T11:17:53Z</time>
      </trkpt>
      <trkpt lat="45.01895" lon="6.11353">
        <ele>1890.6</ele>
        <time>2022-12-29T11:17:54Z</time>
      </trkpt>
      <trkpt lat="45.01896" lon="6.11353">
        <ele>1890.6</ele>
        <time>2022-12-29T11:17:55Z</time>
      </trkpt>
      <trkpt lat="45.01896" lon="6.11353">
        <ele>1891.2</ele>
        <time>2022-12-29T11:17:56Z</time>
      </trkpt>
      <trkpt lat="45.01896" lon="6.11353">
        <ele>1891.2</ele>
        <time>2022-12-29T11:17:57Z</time>
      </trkpt>
      <trkpt lat="45.01896" lon="6.11353">
        <ele>1891.2</ele>
        <time>2022-12-29T11:17:58Z</time>
      </trkpt>
      <trkpt lat="45.01897" lon="6.11353">
        <ele>1891.2</ele>
        <time>2022-12-29T11:17:59Z</time>
      </trkpt>
      <trkpt lat="45.01897" lon="6.11352">
        <ele>1891.2</ele>
        <time>2022-12-29T11:18:00Z</time>
      </trkpt>
      <trkpt lat="45.01897" lon="6.11352">
        <ele>1891.2</ele>
        <time>2022-12-29T11:18:01Z</time>
      </trkpt>
      <trkpt lat="45.01897" lon="6.11352">
        <ele>1891.2</ele>
        <time>2022-12-29T11:18:02Z</time>
      </trkpt>
      <trkpt lat="45.01897" lon="6.11352">
        <ele>1891.2</ele>
        <time>2022-12-29T11:18:03Z</time>
      </trkpt>
      <trkpt lat="45.01897" lon="6.11352">
        <ele>1891.2</ele>
        <time>2022-12-29T11:18:04Z</time>
      </trkpt>
      <trkpt lat="45.01897" lon="6.11352">
        <ele>1891.2</ele>
        <time>2022-12-29T11:18:05Z</time>
      </trkpt>
      <trkpt lat="45.01898" lon="6.11352">
        <ele>1891.2</ele>
        <time>2022-12-29T11:18:06Z</time>
      </trkpt>
      <trkpt lat="45.01898" lon="6.11352">
        <ele>1891.2</ele>
        <time>2022-12-29T11:18:07Z</time>
      </trkpt>
      <trkpt lat="45.01898" lon="6.11352">
        <ele>1891.2</ele>
        <time>2022-12-29T11:18:08Z</time>
      </trkpt>
      <trkpt lat="45.01898" lon="6.11352">
        <ele>1891.2</ele>
        <time>2022-12-29T11:18:09Z</time>
      </trkpt>
      <trkpt lat="45.01898" lon="6.11352">
        <ele>1891.2</ele>
        <time>2022-12-29T11:18:10Z</time>
      </trkpt>
      <trkpt lat="45.01898" lon="6.11352">
        <ele>1891.2</ele>
        <time>2022-12-29T11:18:11Z</time>
      </trkpt>
      <trkpt lat="45.01899" lon="6.11352">
        <ele>1891.2</ele>
        <time>2022-12-29T11:18:12Z</time>
      </trkpt>
      <trkpt lat="45.01899" lon="6.11352">
        <ele>1891.2</ele>
        <time>2022-12-29T11:18:13Z</time>
      </trkpt>
      <trkpt lat="45.01899" lon="6.11351">
        <ele>1891.2</ele>
        <time>2022-12-29T11:18:14Z</time>
      </trkpt>
      <trkpt lat="45.01899" lon="6.11351">
        <ele>1891.2</ele>
        <time>2022-12-29T11:18:15Z</time>
      </trkpt>
      <trkpt lat="45.01899" lon="6.11351">
        <ele>1891</ele>
        <time>2022-12-29T11:18:16Z</time>
      </trkpt>
      <trkpt lat="45.01899" lon="6.11351">
        <ele>1891</ele>
        <time>2022-12-29T11:18:17Z</time>
      </trkpt>
      <trkpt lat="45.019" lon="6.11351">
        <ele>1891</ele>
        <time>2022-12-29T11:18:18Z</time>
      </trkpt>
      <trkpt lat="45.019" lon="6.11351">
        <ele>1891</ele>
        <time>2022-12-29T11:18:19Z</time>
      </trkpt>
      <trkpt lat="45.019" lon="6.11351">
        <ele>1891</ele>
        <time>2022-12-29T11:18:20Z</time>
      </trkpt>
      <trkpt lat="45.019" lon="6.11351">
        <ele>1891</ele>
        <time>2022-12-29T11:18:21Z</time>
      </trkpt>
      <trkpt lat="45.019" lon="6.11351">
        <ele>1891</ele>
        <time>2022-12-29T11:18:22Z</time>
      </trkpt>
      <trkpt lat="45.019" lon="6.11351">
        <ele>1891</ele>
        <time>2022-12-29T11:18:23Z</time>
      </trkpt>
      <trkpt lat="45.019" lon="6.11351">
        <ele>1891</ele>
        <time>2022-12-29T11:18:24Z</time>
      </trkpt>
      <trkpt lat="45.01901" lon="6.11351">
        <ele>1891</ele>
        <time>2022-12-29T11:18:25Z</time>
      </trkpt>
      <trkpt lat="45.01901" lon="6.11351">
        <ele>1890.8</ele>
        <time>2022-12-29T11:18:26Z</time>
      </trkpt>
      <trkpt lat="45.01901" lon="6.11351">
        <ele>1890.8</ele>
        <time>2022-12-29T11:18:27Z</time>
      </trkpt>
      <trkpt lat="45.01901" lon="6.1135">
        <ele>1890.8</ele>
        <time>2022-12-29T11:18:28Z</time>
      </trkpt>
      <trkpt lat="45.01901" lon="6.1135">
        <ele>1890.8</ele>
        <time>2022-12-29T11:18:29Z</time>
      </trkpt>
      <trkpt lat="45.01901" lon="6.1135">
        <ele>1890.8</ele>
        <time>2022-12-29T11:18:30Z</time>
      </trkpt>
      <trkpt lat="45.01902" lon="6.1135">
        <ele>1890.8</ele>
        <time>2022-12-29T11:18:31Z</time>
      </trkpt>
      <trkpt lat="45.01902" lon="6.1135">
        <ele>1890.8</ele>
        <time>2022-12-29T11:18:32Z</time>
      </trkpt>
      <trkpt lat="45.01902" lon="6.1135">
        <ele>1890.8</ele>
        <time>2022-12-29T11:18:33Z</time>
      </trkpt>
      <trkpt lat="45.01902" lon="6.1135">
        <ele>1890.8</ele>
        <time>2022-12-29T11:18:34Z</time>
      </trkpt>
      <trkpt lat="45.01902" lon="6.1135">
        <ele>1890.8</ele>
        <time>2022-12-29T11:18:35Z</time>
      </trkpt>
      <trkpt lat="45.01902" lon="6.1135">
        <ele>1891.4</ele>
        <time>2022-12-29T11:18:36Z</time>
      </trkpt>
      <trkpt lat="45.01903" lon="6.1135">
        <ele>1891.4</ele>
        <time>2022-12-29T11:18:37Z</time>
      </trkpt>
      <trkpt lat="45.01903" lon="6.1135">
        <ele>1891.4</ele>
        <time>2022-12-29T11:18:38Z</time>
      </trkpt>
      <trkpt lat="45.01903" lon="6.1135">
        <ele>1891.4</ele>
        <time>2022-12-29T11:18:39Z</time>
      </trkpt>
      <trkpt lat="45.01903" lon="6.1135">
        <ele>1891.4</ele>
        <time>2022-12-29T11:18:40Z</time>
      </trkpt>
      <trkpt lat="45.01903" lon="6.1135">
        <ele>1891.4</ele>
        <time>2022-12-29T11:18:41Z</time>
      </trkpt>
      <trkpt lat="45.01903" lon="6.11349">
        <ele>1891.4</ele>
        <time>2022-12-29T11:18:42Z</time>
      </trkpt>
      <trkpt lat="45.01903" lon="6.11349">
        <ele>1891.4</ele>
        <time>2022-12-29T11:18:43Z</time>
      </trkpt>
      <trkpt lat="45.01904" lon="6.11349">
        <ele>1891.4</ele>
        <time>2022-12-29T11:18:44Z</time>
      </trkpt>
      <trkpt lat="45.01904" lon="6.11349">
        <ele>1891.4</ele>
        <time>2022-12-29T11:18:45Z</time>
      </trkpt>
      <trkpt lat="45.01904" lon="6.11349">
        <ele>1891</ele>
        <time>2022-12-29T11:18:46Z</time>
      </trkpt>
      <trkpt lat="45.01904" lon="6.11349">
        <ele>1891</ele>
        <time>2022-12-29T11:18:47Z</time>
      </trkpt>
      <trkpt lat="45.01904" lon="6.11349">
        <ele>1891</ele>
        <time>2022-12-29T11:18:48Z</time>
      </trkpt>
      <trkpt lat="45.01904" lon="6.11349">
        <ele>1891</ele>
        <time>2022-12-29T11:18:49Z</time>
      </trkpt>
      <trkpt lat="45.01905" lon="6.11349">
        <ele>1891</ele>
        <time>2022-12-29T11:18:50Z</time>
      </trkpt>
      <trkpt lat="45.01905" lon="6.11349">
        <ele>1891</ele>
        <time>2022-12-29T11:18:51Z</time>
      </trkpt>
      <trkpt lat="45.01905" lon="6.11349">
        <ele>1891</ele>
        <time>2022-12-29T11:18:52Z</time>
      </trkpt>
      <trkpt lat="45.01905" lon="6.11349">
        <ele>1891</ele>
        <time>2022-12-29T11:18:53Z</time>
      </trkpt>
      <trkpt lat="45.01905" lon="6.11349">
        <ele>1891</ele>
        <time>2022-12-29T11:18:54Z</time>
      </trkpt>
      <trkpt lat="45.01905" lon="6.11349">
        <ele>1891</ele>
        <time>2022-12-29T11:18:55Z</time>
      </trkpt>
      <trkpt lat="45.01906" lon="6.11348">
        <ele>1891</ele>
        <time>2022-12-29T11:18:56Z</time>
      </trkpt>
      <trkpt lat="45.01906" lon="6.11348">
        <ele>1891</ele>
        <time>2022-12-29T11:18:57Z</time>
      </trkpt>
      <trkpt lat="45.01906" lon="6.11348">
        <ele>1891</ele>
        <time>2022-12-29T11:18:58Z</time>
      </trkpt>
      <trkpt lat="45.01906" lon="6.11348">
        <ele>1891</ele>
        <time>2022-12-29T11:18:59Z</time>
      </trkpt>
      <trkpt lat="45.01906" lon="6.11348">
        <ele>1891</ele>
        <time>2022-12-29T11:19:00Z</time>
      </trkpt>
      <trkpt lat="45.01906" lon="6.11348">
        <ele>1891</ele>
        <time>2022-12-29T11:19:01Z</time>
      </trkpt>
      <trkpt lat="45.01906" lon="6.11348">
        <ele>1891</ele>
        <time>2022-12-29T11:19:02Z</time>
      </trkpt>
      <trkpt lat="45.01907" lon="6.11348">
        <ele>1891</ele>
        <time>2022-12-29T11:19:03Z</time>
      </trkpt>
      <trkpt lat="45.01907" lon="6.11348">
        <ele>1891</ele>
        <time>2022-12-29T11:19:04Z</time>
      </trkpt>
      <trkpt lat="45.01907" lon="6.11348">
        <ele>1891</ele>
        <time>2022-12-29T11:19:05Z</time>
      </trkpt>
      <trkpt lat="45.01907" lon="6.11348">
        <ele>1891.2</ele>
        <time>2022-12-29T11:19:06Z</time>
      </trkpt>
      <trkpt lat="45.01907" lon="6.11348">
        <ele>1891.2</ele>
        <time>2022-12-29T11:19:07Z</time>
      </trkpt>
      <trkpt lat="45.01907" lon="6.11348">
        <ele>1891.2</ele>
        <time>2022-12-29T11:19:08Z</time>
      </trkpt>
      <trkpt lat="45.01908" lon="6.11348">
        <ele>1891.2</ele>
        <time>2022-12-29T11:19:09Z</time>
      </trkpt>
      <trkpt lat="45.01908" lon="6.11347">
        <ele>1891.2</ele>
        <time>2022-12-29T11:19:10Z</time>
      </trkpt>
      <trkpt lat="45.01908" lon="6.11347">
        <ele>1891.2</ele>
        <time>2022-12-29T11:19:11Z</time>
      </trkpt>
      <trkpt lat="45.01908" lon="6.11347">
        <ele>1891.2</ele>
        <time>2022-12-29T11:19:12Z</time>
      </trkpt>
      <trkpt lat="45.01908" lon="6.11347">
        <ele>1891.2</ele>
        <time>2022-12-29T11:19:13Z</time>
      </trkpt>
      <trkpt lat="45.01908" lon="6.11347">
        <ele>1891.2</ele>
        <time>2022-12-29T11:19:14Z</time>
      </trkpt>
      <trkpt lat="45.01909" lon="6.11347">
        <ele>1891.2</ele>
        <time>2022-12-29T11:19:15Z</time>
      </trkpt>
      <trkpt lat="45.01909" lon="6.11347">
        <ele>1891.2</ele>
        <time>2022-12-29T11:19:16Z</time>
      </trkpt>
      <trkpt lat="45.01909" lon="6.11347">
        <ele>1891.2</ele>
        <time>2022-12-29T11:19:17Z</time>
      </trkpt>
      <trkpt lat="45.01909" lon="6.11347">
        <ele>1891.2</ele>
        <time>2022-12-29T11:19:18Z</time>
      </trkpt>
      <trkpt lat="45.01909" lon="6.11347">
        <ele>1891.2</ele>
        <time>2022-12-29T11:19:19Z</time>
      </trkpt>
      <trkpt lat="45.01909" lon="6.11347">
        <ele>1891.2</ele>
        <time>2022-12-29T11:19:20Z</time>
      </trkpt>
      <trkpt lat="45.01909" lon="6.11347">
        <ele>1891.2</ele>
        <time>2022-12-29T11:19:21Z</time>
      </trkpt>
      <trkpt lat="45.0191" lon="6.11347">
        <ele>1891.2</ele>
        <time>2022-12-29T11:19:22Z</time>
      </trkpt>
      <trkpt lat="45.0191" lon="6.11347">
        <ele>1891.2</ele>
        <time>2022-12-29T11:19:23Z</time>
      </trkpt>
      <trkpt lat="45.0191" lon="6.11346">
        <ele>1891.2</ele>
        <time>2022-12-29T11:19:24Z</time>
      </trkpt>
      <trkpt lat="45.0191" lon="6.11346">
        <ele>1891.2</ele>
        <time>2022-12-29T11:19:25Z</time>
      </trkpt>
      <trkpt lat="45.0191" lon="6.11346">
        <ele>1892.2</ele>
        <time>2022-12-29T11:19:26Z</time>
      </trkpt>
      <trkpt lat="45.01913" lon="6.11345">
        <ele>1892.2</ele>
        <time>2022-12-29T11:19:27Z</time>
      </trkpt>
      <trkpt lat="45.01913" lon="6.11344">
        <ele>1892.2</ele>
        <time>2022-12-29T11:19:28Z</time>
      </trkpt>
      <trkpt lat="45.01913" lon="6.11344">
        <ele>1892.2</ele>
        <time>2022-12-29T11:19:29Z</time>
      </trkpt>
      <trkpt lat="45.01914" lon="6.11344">
        <ele>1892.2</ele>
        <time>2022-12-29T11:19:30Z</time>
      </trkpt>
      <trkpt lat="45.01914" lon="6.11344">
        <ele>1892.2</ele>
        <time>2022-12-29T11:19:31Z</time>
      </trkpt>
      <trkpt lat="45.01915" lon="6.11343">
        <ele>1892.2</ele>
        <time>2022-12-29T11:19:32Z</time>
      </trkpt>
      <trkpt lat="45.01915" lon="6.11343">
        <ele>1892.2</ele>
        <time>2022-12-29T11:19:35Z</time>
      </trkpt>
      <trkpt lat="45.01916" lon="6.11343">
        <ele>1893.6</ele>
        <time>2022-12-29T11:19:36Z</time>
      </trkpt>
      <trkpt lat="45.01916" lon="6.11343">
        <ele>1893.6</ele>
        <time>2022-12-29T11:19:37Z</time>
      </trkpt>
      <trkpt lat="45.01916" lon="6.11343">
        <ele>1893.6</ele>
        <time>2022-12-29T11:19:38Z</time>
      </trkpt>
      <trkpt lat="45.01916" lon="6.11343">
        <ele>1893.6</ele>
        <time>2022-12-29T11:19:39Z</time>
      </trkpt>
      <trkpt lat="45.01916" lon="6.11343">
        <ele>1893.6</ele>
        <time>2022-12-29T11:19:40Z</time>
      </trkpt>
      <trkpt lat="45.01916" lon="6.11343">
        <ele>1893.6</ele>
        <time>2022-12-29T11:19:41Z</time>
      </trkpt>
      <trkpt lat="45.01916" lon="6.11343">
        <ele>1893.6</ele>
        <time>2022-12-29T11:19:42Z</time>
      </trkpt>
      <trkpt lat="45.01916" lon="6.11343">
        <ele>1893.6</ele>
        <time>2022-12-29T11:19:43Z</time>
      </trkpt>
      <trkpt lat="45.01916" lon="6.11343">
        <ele>1893.6</ele>
        <time>2022-12-29T11:19:44Z</time>
      </trkpt>
      <trkpt lat="45.01916" lon="6.11343">
        <ele>1893.6</ele>
        <time>2022-12-29T11:19:45Z</time>
      </trkpt>
      <trkpt lat="45.01916" lon="6.11343">
        <ele>1893.4</ele>
        <time>2022-12-29T11:19:46Z</time>
      </trkpt>
      <trkpt lat="45.01916" lon="6.11343">
        <ele>1893.4</ele>
        <time>2022-12-29T11:19:47Z</time>
      </trkpt>
      <trkpt lat="45.01915" lon="6.11343">
        <ele>1893.4</ele>
        <time>2022-12-29T11:19:50Z</time>
      </trkpt>
      <trkpt lat="45.01915" lon="6.11343">
        <ele>1893.4</ele>
        <time>2022-12-29T11:19:51Z</time>
      </trkpt>
      <trkpt lat="45.01915" lon="6.11343">
        <ele>1893.4</ele>
        <time>2022-12-29T11:19:52Z</time>
      </trkpt>
      <trkpt lat="45.01915" lon="6.11343">
        <ele>1893.4</ele>
        <time>2022-12-29T11:19:53Z</time>
      </trkpt>
      <trkpt lat="45.01915" lon="6.11343">
        <ele>1893.4</ele>
        <time>2022-12-29T11:19:54Z</time>
      </trkpt>
      <trkpt lat="45.01915" lon="6.11343">
        <ele>1893.4</ele>
        <time>2022-12-29T11:19:55Z</time>
      </trkpt>
      <trkpt lat="45.01915" lon="6.11343">
        <ele>1893.4</ele>
        <time>2022-12-29T11:19:56Z</time>
      </trkpt>
      <trkpt lat="45.01915" lon="6.11343">
        <ele>1893.4</ele>
        <time>2022-12-29T11:19:57Z</time>
      </trkpt>
      <trkpt lat="45.01915" lon="6.11343">
        <ele>1893.4</ele>
        <time>2022-12-29T11:19:58Z</time>
      </trkpt>
      <trkpt lat="45.01915" lon="6.11343">
        <ele>1893.4</ele>
        <time>2022-12-29T11:19:59Z</time>
      </trkpt>
      <trkpt lat="45.01915" lon="6.11343">
        <ele>1893.4</ele>
        <time>2022-12-29T11:20:00Z</time>
      </trkpt>
      <trkpt lat="45.01915" lon="6.11343">
        <ele>1893.4</ele>
        <time>2022-12-29T11:20:01Z</time>
      </trkpt>
      <trkpt lat="45.01915" lon="6.11344">
        <ele>1893.4</ele>
        <time>2022-12-29T11:20:02Z</time>
      </trkpt>
      <trkpt lat="45.01915" lon="6.11344">
        <ele>1893.4</ele>
        <time>2022-12-29T11:20:03Z</time>
      </trkpt>
      <trkpt lat="45.01915" lon="6.11344">
        <ele>1893.4</ele>
        <time>2022-12-29T11:20:04Z</time>
      </trkpt>
      <trkpt lat="45.01915" lon="6.11344">
        <ele>1893.4</ele>
        <time>2022-12-29T11:20:05Z</time>
      </trkpt>
      <trkpt lat="45.01915" lon="6.11344">
        <ele>1894</ele>
        <time>2022-12-29T11:20:06Z</time>
      </trkpt>
      <trkpt lat="45.01915" lon="6.11344">
        <ele>1894</ele>
        <time>2022-12-29T11:20:07Z</time>
      </trkpt>
      <trkpt lat="45.01915" lon="6.11344">
        <ele>1894</ele>
        <time>2022-12-29T11:20:08Z</time>
      </trkpt>
      <trkpt lat="45.01915" lon="6.11344">
        <ele>1894</ele>
        <time>2022-12-29T11:20:09Z</time>
      </trkpt>
      <trkpt lat="45.01915" lon="6.11344">
        <ele>1894</ele>
        <time>2022-12-29T11:20:10Z</time>
      </trkpt>
      <trkpt lat="45.01915" lon="6.11344">
        <ele>1894</ele>
        <time>2022-12-29T11:20:11Z</time>
      </trkpt>
      <trkpt lat="45.01915" lon="6.11344">
        <ele>1894</ele>
        <time>2022-12-29T11:20:12Z</time>
      </trkpt>
      <trkpt lat="45.01915" lon="6.11344">
        <ele>1894</ele>
        <time>2022-12-29T11:20:13Z</time>
      </trkpt>
      <trkpt lat="45.01915" lon="6.11344">
        <ele>1894</ele>
        <time>2022-12-29T11:20:14Z</time>
      </trkpt>
      <trkpt lat="45.01915" lon="6.11344">
        <ele>1894</ele>
        <time>2022-12-29T11:20:15Z</time>
      </trkpt>
      <trkpt lat="45.01915" lon="6.11344">
        <ele>1893.4</ele>
        <time>2022-12-29T11:20:16Z</time>
      </trkpt>
      <trkpt lat="45.01914" lon="6.11344">
        <ele>1893.4</ele>
        <time>2022-12-29T11:20:17Z</time>
      </trkpt>
      <trkpt lat="45.01914" lon="6.11344">
        <ele>1893.4</ele>
        <time>2022-12-29T11:20:18Z</time>
      </trkpt>
      <trkpt lat="45.01914" lon="6.11344">
        <ele>1893.4</ele>
        <time>2022-12-29T11:20:19Z</time>
      </trkpt>
      <trkpt lat="45.01914" lon="6.11344">
        <ele>1893.4</ele>
        <time>2022-12-29T11:20:20Z</time>
      </trkpt>
      <trkpt lat="45.01914" lon="6.11344">
        <ele>1893.4</ele>
        <time>2022-12-29T11:20:21Z</time>
      </trkpt>
      <trkpt lat="45.01914" lon="6.11344">
        <ele>1893.4</ele>
        <time>2022-12-29T11:20:22Z</time>
      </trkpt>
      <trkpt lat="45.01914" lon="6.11344">
        <ele>1893.4</ele>
        <time>2022-12-29T11:20:23Z</time>
      </trkpt>
      <trkpt lat="45.01914" lon="6.11344">
        <ele>1893.4</ele>
        <time>2022-12-29T11:20:24Z</time>
      </trkpt>
      <trkpt lat="45.01914" lon="6.11344">
        <ele>1893.4</ele>
        <time>2022-12-29T11:20:25Z</time>
      </trkpt>
      <trkpt lat="45.01914" lon="6.11344">
        <ele>1893.4</ele>
        <time>2022-12-29T11:20:26Z</time>
      </trkpt>
      <trkpt lat="45.01914" lon="6.11344">
        <ele>1893.4</ele>
        <time>2022-12-29T11:20:27Z</time>
      </trkpt>
      <trkpt lat="45.01914" lon="6.11344">
        <ele>1893.4</ele>
        <time>2022-12-29T11:20:28Z</time>
      </trkpt>
      <trkpt lat="45.01914" lon="6.11344">
        <ele>1893.4</ele>
        <time>2022-12-29T11:20:29Z</time>
      </trkpt>
      <trkpt lat="45.01914" lon="6.11344">
        <ele>1893.4</ele>
        <time>2022-12-29T11:20:30Z</time>
      </trkpt>
      <trkpt lat="45.01914" lon="6.11344">
        <ele>1893.4</ele>
        <time>2022-12-29T11:20:31Z</time>
      </trkpt>
      <trkpt lat="45.01914" lon="6.11344">
        <ele>1893.4</ele>
        <time>2022-12-29T11:20:32Z</time>
      </trkpt>
      <trkpt lat="45.01914" lon="6.11345">
        <ele>1893.4</ele>
        <time>2022-12-29T11:20:33Z</time>
      </trkpt>
      <trkpt lat="45.01914" lon="6.11345">
        <ele>1893.4</ele>
        <time>2022-12-29T11:20:34Z</time>
      </trkpt>
      <trkpt lat="45.01914" lon="6.11345">
        <ele>1893.4</ele>
        <time>2022-12-29T11:20:35Z</time>
      </trkpt>
      <trkpt lat="45.01914" lon="6.11345">
        <ele>1893.6</ele>
        <time>2022-12-29T11:20:36Z</time>
      </trkpt>
      <trkpt lat="45.01914" lon="6.11345">
        <ele>1893.6</ele>
        <time>2022-12-29T11:20:37Z</time>
      </trkpt>
      <trkpt lat="45.01914" lon="6.11345">
        <ele>1893.6</ele>
        <time>2022-12-29T11:20:38Z</time>
      </trkpt>
      <trkpt lat="45.01914" lon="6.11345">
        <ele>1893.6</ele>
        <time>2022-12-29T11:20:39Z</time>
      </trkpt>
      <trkpt lat="45.01914" lon="6.11345">
        <ele>1893.6</ele>
        <time>2022-12-29T11:20:40Z</time>
      </trkpt>
      <trkpt lat="45.01914" lon="6.11345">
        <ele>1893.6</ele>
        <time>2022-12-29T11:20:41Z</time>
      </trkpt>
      <trkpt lat="45.01914" lon="6.11345">
        <ele>1893.6</ele>
        <time>2022-12-29T11:20:42Z</time>
      </trkpt>
      <trkpt lat="45.01914" lon="6.11345">
        <ele>1893.6</ele>
        <time>2022-12-29T11:20:43Z</time>
      </trkpt>
      <trkpt lat="45.01914" lon="6.11345">
        <ele>1893.6</ele>
        <time>2022-12-29T11:20:44Z</time>
      </trkpt>
      <trkpt lat="45.01913" lon="6.11345">
        <ele>1893.6</ele>
        <time>2022-12-29T11:20:45Z</time>
      </trkpt>
      <trkpt lat="45.01913" lon="6.11345">
        <ele>1893.4</ele>
        <time>2022-12-29T11:20:46Z</time>
      </trkpt>
      <trkpt lat="45.01913" lon="6.11345">
        <ele>1893.4</ele>
        <time>2022-12-29T11:20:47Z</time>
      </trkpt>
      <trkpt lat="45.01913" lon="6.11345">
        <ele>1893.4</ele>
        <time>2022-12-29T11:20:48Z</time>
      </trkpt>
      <trkpt lat="45.01913" lon="6.11345">
        <ele>1893.4</ele>
        <time>2022-12-29T11:20:49Z</time>
      </trkpt>
      <trkpt lat="45.01913" lon="6.11345">
        <ele>1893.4</ele>
        <time>2022-12-29T11:20:50Z</time>
      </trkpt>
      <trkpt lat="45.01913" lon="6.11345">
        <ele>1893.4</ele>
        <time>2022-12-29T11:20:51Z</time>
      </trkpt>
      <trkpt lat="45.01913" lon="6.11345">
        <ele>1893.4</ele>
        <time>2022-12-29T11:20:52Z</time>
      </trkpt>
      <trkpt lat="45.01913" lon="6.11345">
        <ele>1893.4</ele>
        <time>2022-12-29T11:20:53Z</time>
      </trkpt>
      <trkpt lat="45.01913" lon="6.11345">
        <ele>1893.4</ele>
        <time>2022-12-29T11:20:54Z</time>
      </trkpt>
      <trkpt lat="45.01913" lon="6.11345">
        <ele>1893.4</ele>
        <time>2022-12-29T11:20:55Z</time>
      </trkpt>
      <trkpt lat="45.01913" lon="6.11345">
        <ele>1893.4</ele>
        <time>2022-12-29T11:20:56Z</time>
      </trkpt>
      <trkpt lat="45.01913" lon="6.11345">
        <ele>1893.4</ele>
        <time>2022-12-29T11:20:57Z</time>
      </trkpt>
      <trkpt lat="45.01913" lon="6.11345">
        <ele>1893.4</ele>
        <time>2022-12-29T11:20:58Z</time>
      </trkpt>
      <trkpt lat="45.01913" lon="6.11345">
        <ele>1893.4</ele>
        <time>2022-12-29T11:20:59Z</time>
      </trkpt>
      <trkpt lat="45.01913" lon="6.11345">
        <ele>1893.4</ele>
        <time>2022-12-29T11:21:00Z</time>
      </trkpt>
      <trkpt lat="45.01913" lon="6.11345">
        <ele>1893.4</ele>
        <time>2022-12-29T11:21:01Z</time>
      </trkpt>
      <trkpt lat="45.01913" lon="6.11345">
        <ele>1893.4</ele>
        <time>2022-12-29T11:21:02Z</time>
      </trkpt>
      <trkpt lat="45.01913" lon="6.11345">
        <ele>1893.4</ele>
        <time>2022-12-29T11:21:03Z</time>
      </trkpt>
      <trkpt lat="45.01913" lon="6.11346">
        <ele>1893.4</ele>
        <time>2022-12-29T11:21:04Z</time>
      </trkpt>
      <trkpt lat="45.01913" lon="6.11346">
        <ele>1893.4</ele>
        <time>2022-12-29T11:21:05Z</time>
      </trkpt>
      <trkpt lat="45.01913" lon="6.11346">
        <ele>1892.2</ele>
        <time>2022-12-29T11:21:06Z</time>
      </trkpt>
      <trkpt lat="45.01913" lon="6.11346">
        <ele>1892.2</ele>
        <time>2022-12-29T11:21:07Z</time>
      </trkpt>
      <trkpt lat="45.01913" lon="6.11346">
        <ele>1892.2</ele>
        <time>2022-12-29T11:21:08Z</time>
      </trkpt>
      <trkpt lat="45.01913" lon="6.11346">
        <ele>1892.2</ele>
        <time>2022-12-29T11:21:09Z</time>
      </trkpt>
      <trkpt lat="45.01913" lon="6.11346">
        <ele>1892.2</ele>
        <time>2022-12-29T11:21:10Z</time>
      </trkpt>
      <trkpt lat="45.01913" lon="6.11346">
        <ele>1892.2</ele>
        <time>2022-12-29T11:21:11Z</time>
      </trkpt>
      <trkpt lat="45.01913" lon="6.11346">
        <ele>1892.2</ele>
        <time>2022-12-29T11:21:12Z</time>
      </trkpt>
      <trkpt lat="45.01912" lon="6.11346">
        <ele>1892.2</ele>
        <time>2022-12-29T11:21:13Z</time>
      </trkpt>
      <trkpt lat="45.01912" lon="6.11346">
        <ele>1892.2</ele>
        <time>2022-12-29T11:21:14Z</time>
      </trkpt>
      <trkpt lat="45.01912" lon="6.11346">
        <ele>1892.2</ele>
        <time>2022-12-29T11:21:15Z</time>
      </trkpt>
      <trkpt lat="45.01912" lon="6.11346">
        <ele>1892.2</ele>
        <time>2022-12-29T11:21:16Z</time>
      </trkpt>
      <trkpt lat="45.01912" lon="6.11346">
        <ele>1892.2</ele>
        <time>2022-12-29T11:21:17Z</time>
      </trkpt>
      <trkpt lat="45.01912" lon="6.11346">
        <ele>1892.2</ele>
        <time>2022-12-29T11:21:18Z</time>
      </trkpt>
      <trkpt lat="45.01912" lon="6.11346">
        <ele>1892.2</ele>
        <time>2022-12-29T11:21:19Z</time>
      </trkpt>
      <trkpt lat="45.01912" lon="6.11346">
        <ele>1892.2</ele>
        <time>2022-12-29T11:21:20Z</time>
      </trkpt>
      <trkpt lat="45.01912" lon="6.11346">
        <ele>1892.2</ele>
        <time>2022-12-29T11:21:21Z</time>
      </trkpt>
      <trkpt lat="45.01912" lon="6.11346">
        <ele>1892.2</ele>
        <time>2022-12-29T11:21:22Z</time>
      </trkpt>
      <trkpt lat="45.01912" lon="6.11346">
        <ele>1892.2</ele>
        <time>2022-12-29T11:21:23Z</time>
      </trkpt>
      <trkpt lat="45.01912" lon="6.11346">
        <ele>1892.2</ele>
        <time>2022-12-29T11:21:24Z</time>
      </trkpt>
      <trkpt lat="45.01912" lon="6.11346">
        <ele>1892.2</ele>
        <time>2022-12-29T11:21:25Z</time>
      </trkpt>
      <trkpt lat="45.01912" lon="6.11346">
        <ele>1893</ele>
        <time>2022-12-29T11:21:26Z</time>
      </trkpt>
      <trkpt lat="45.01912" lon="6.11346">
        <ele>1893</ele>
        <time>2022-12-29T11:21:27Z</time>
      </trkpt>
      <trkpt lat="45.01912" lon="6.11346">
        <ele>1893</ele>
        <time>2022-12-29T11:21:28Z</time>
      </trkpt>
      <trkpt lat="45.01912" lon="6.11346">
        <ele>1893</ele>
        <time>2022-12-29T11:21:29Z</time>
      </trkpt>
      <trkpt lat="45.01912" lon="6.11346">
        <ele>1893</ele>
        <time>2022-12-29T11:21:30Z</time>
      </trkpt>
      <trkpt lat="45.01912" lon="6.11346">
        <ele>1893</ele>
        <time>2022-12-29T11:21:31Z</time>
      </trkpt>
      <trkpt lat="45.01912" lon="6.11346">
        <ele>1893</ele>
        <time>2022-12-29T11:21:32Z</time>
      </trkpt>
      <trkpt lat="45.01912" lon="6.11346">
        <ele>1893</ele>
        <time>2022-12-29T11:21:33Z</time>
      </trkpt>
      <trkpt lat="45.01912" lon="6.11346">
        <ele>1893</ele>
        <time>2022-12-29T11:21:34Z</time>
      </trkpt>
      <trkpt lat="45.01912" lon="6.11347">
        <ele>1893</ele>
        <time>2022-12-29T11:21:35Z</time>
      </trkpt>
      <trkpt lat="45.01912" lon="6.11347">
        <ele>1893.4</ele>
        <time>2022-12-29T11:21:36Z</time>
      </trkpt>
      <trkpt lat="45.01912" lon="6.11347">
        <ele>1893.4</ele>
        <time>2022-12-29T11:21:38Z</time>
      </trkpt>
      <trkpt lat="45.01912" lon="6.11347">
        <ele>1893.4</ele>
        <time>2022-12-29T11:21:39Z</time>
      </trkpt>
      <trkpt lat="45.01912" lon="6.11347">
        <ele>1893.4</ele>
        <time>2022-12-29T11:21:40Z</time>
      </trkpt>
      <trkpt lat="45.01912" lon="6.11347">
        <ele>1893.4</ele>
        <time>2022-12-29T11:21:41Z</time>
      </trkpt>
      <trkpt lat="45.01911" lon="6.11347">
        <ele>1893.4</ele>
        <time>2022-12-29T11:21:42Z</time>
      </trkpt>
      <trkpt lat="45.01911" lon="6.11347">
        <ele>1893.4</ele>
        <time>2022-12-29T11:21:43Z</time>
      </trkpt>
      <trkpt lat="45.01911" lon="6.11347">
        <ele>1893.4</ele>
        <time>2022-12-29T11:21:44Z</time>
      </trkpt>
      <trkpt lat="45.01911" lon="6.11347">
        <ele>1893.4</ele>
        <time>2022-12-29T11:21:45Z</time>
      </trkpt>
      <trkpt lat="45.01911" lon="6.11347">
        <ele>1893.2</ele>
        <time>2022-12-29T11:21:46Z</time>
      </trkpt>
      <trkpt lat="45.01911" lon="6.11347">
        <ele>1893.2</ele>
        <time>2022-12-29T11:21:47Z</time>
      </trkpt>
      <trkpt lat="45.01911" lon="6.11347">
        <ele>1893.2</ele>
        <time>2022-12-29T11:21:48Z</time>
      </trkpt>
      <trkpt lat="45.01911" lon="6.11347">
        <ele>1893.2</ele>
        <time>2022-12-29T11:21:49Z</time>
      </trkpt>
      <trkpt lat="45.01911" lon="6.11347">
        <ele>1893.2</ele>
        <time>2022-12-29T11:21:50Z</time>
      </trkpt>
      <trkpt lat="45.01911" lon="6.11347">
        <ele>1893.2</ele>
        <time>2022-12-29T11:21:51Z</time>
      </trkpt>
      <trkpt lat="45.01911" lon="6.11347">
        <ele>1893.2</ele>
        <time>2022-12-29T11:21:52Z</time>
      </trkpt>
      <trkpt lat="45.01911" lon="6.11347">
        <ele>1893.2</ele>
        <time>2022-12-29T11:21:53Z</time>
      </trkpt>
      <trkpt lat="45.01911" lon="6.11347">
        <ele>1893.2</ele>
        <time>2022-12-29T11:21:54Z</time>
      </trkpt>
      <trkpt lat="45.01911" lon="6.11347">
        <ele>1893.2</ele>
        <time>2022-12-29T11:21:56Z</time>
      </trkpt>
      <trkpt lat="45.01911" lon="6.11347">
        <ele>1893.2</ele>
        <time>2022-12-29T11:21:57Z</time>
      </trkpt>
      <trkpt lat="45.01911" lon="6.11347">
        <ele>1893.2</ele>
        <time>2022-12-29T11:21:58Z</time>
      </trkpt>
      <trkpt lat="45.01911" lon="6.11347">
        <ele>1893.2</ele>
        <time>2022-12-29T11:21:59Z</time>
      </trkpt>
      <trkpt lat="45.01911" lon="6.11347">
        <ele>1893.2</ele>
        <time>2022-12-29T11:22:00Z</time>
      </trkpt>
      <trkpt lat="45.01911" lon="6.11347">
        <ele>1893.2</ele>
        <time>2022-12-29T11:22:01Z</time>
      </trkpt>
      <trkpt lat="45.01911" lon="6.11347">
        <ele>1893.2</ele>
        <time>2022-12-29T11:22:02Z</time>
      </trkpt>
      <trkpt lat="45.01911" lon="6.11347">
        <ele>1893.2</ele>
        <time>2022-12-29T11:22:03Z</time>
      </trkpt>
      <trkpt lat="45.01911" lon="6.11347">
        <ele>1893.2</ele>
        <time>2022-12-29T11:22:04Z</time>
      </trkpt>
      <trkpt lat="45.01911" lon="6.11347">
        <ele>1893.2</ele>
        <time>2022-12-29T11:22:05Z</time>
      </trkpt>
      <trkpt lat="45.01911" lon="6.11347">
        <ele>1893.4</ele>
        <time>2022-12-29T11:22:06Z</time>
      </trkpt>
      <trkpt lat="45.01911" lon="6.11347">
        <ele>1893.4</ele>
        <time>2022-12-29T11:22:07Z</time>
      </trkpt>
      <trkpt lat="45.01911" lon="6.11348">
        <ele>1893.4</ele>
        <time>2022-12-29T11:22:08Z</time>
      </trkpt>
      <trkpt lat="45.01911" lon="6.11348">
        <ele>1893.4</ele>
        <time>2022-12-29T11:22:09Z</time>
      </trkpt>
      <trkpt lat="45.01911" lon="6.11348">
        <ele>1893.4</ele>
        <time>2022-12-29T11:22:10Z</time>
      </trkpt>
      <trkpt lat="45.0191" lon="6.11348">
        <ele>1893.4</ele>
        <time>2022-12-29T11:22:11Z</time>
      </trkpt>
      <trkpt lat="45.0191" lon="6.11348">
        <ele>1893.4</ele>
        <time>2022-12-29T11:22:12Z</time>
      </trkpt>
      <trkpt lat="45.0191" lon="6.11348">
        <ele>1893.4</ele>
        <time>2022-12-29T11:22:13Z</time>
      </trkpt>
      <trkpt lat="45.0191" lon="6.11348">
        <ele>1893.4</ele>
        <time>2022-12-29T11:22:14Z</time>
      </trkpt>
      <trkpt lat="45.0191" lon="6.11348">
        <ele>1893.4</ele>
        <time>2022-12-29T11:22:15Z</time>
      </trkpt>
      <trkpt lat="45.0191" lon="6.11348">
        <ele>1891.8</ele>
        <time>2022-12-29T11:22:16Z</time>
      </trkpt>
      <trkpt lat="45.0191" lon="6.11348">
        <ele>1891.8</ele>
        <time>2022-12-29T11:22:17Z</time>
      </trkpt>
      <trkpt lat="45.0191" lon="6.11348">
        <ele>1891.8</ele>
        <time>2022-12-29T11:22:18Z</time>
      </trkpt>
      <trkpt lat="45.0191" lon="6.11348">
        <ele>1891.8</ele>
        <time>2022-12-29T11:22:19Z</time>
      </trkpt>
      <trkpt lat="45.0191" lon="6.11348">
        <ele>1891.8</ele>
        <time>2022-12-29T11:22:20Z</time>
      </trkpt>
      <trkpt lat="45.0191" lon="6.11348">
        <ele>1891.8</ele>
        <time>2022-12-29T11:22:21Z</time>
      </trkpt>
      <trkpt lat="45.0191" lon="6.11348">
        <ele>1891.8</ele>
        <time>2022-12-29T11:22:22Z</time>
      </trkpt>
      <trkpt lat="45.0191" lon="6.11348">
        <ele>1891.8</ele>
        <time>2022-12-29T11:22:23Z</time>
      </trkpt>
      <trkpt lat="45.0191" lon="6.11348">
        <ele>1891.8</ele>
        <time>2022-12-29T11:22:24Z</time>
      </trkpt>
      <trkpt lat="45.0191" lon="6.11348">
        <ele>1891.8</ele>
        <time>2022-12-29T11:22:25Z</time>
      </trkpt>
      <trkpt lat="45.0191" lon="6.11348">
        <ele>1892.2</ele>
        <time>2022-12-29T11:22:26Z</time>
      </trkpt>
      <trkpt lat="45.0191" lon="6.11348">
        <ele>1892.2</ele>
        <time>2022-12-29T11:22:27Z</time>
      </trkpt>
      <trkpt lat="45.0191" lon="6.11348">
        <ele>1892.2</ele>
        <time>2022-12-29T11:22:28Z</time>
      </trkpt>
      <trkpt lat="45.0191" lon="6.11348">
        <ele>1892.2</ele>
        <time>2022-12-29T11:22:29Z</time>
      </trkpt>
      <trkpt lat="45.0191" lon="6.11348">
        <ele>1892.2</ele>
        <time>2022-12-29T11:22:30Z</time>
      </trkpt>
      <trkpt lat="45.0191" lon="6.11348">
        <ele>1892.2</ele>
        <time>2022-12-29T11:22:33Z</time>
      </trkpt>
      <trkpt lat="45.0191" lon="6.11348">
        <ele>1892.2</ele>
        <time>2022-12-29T11:22:34Z</time>
      </trkpt>
      <trkpt lat="45.0191" lon="6.11348">
        <ele>1892.2</ele>
        <time>2022-12-29T11:22:35Z</time>
      </trkpt>
      <trkpt lat="45.0191" lon="6.11348">
        <ele>1892.2</ele>
        <time>2022-12-29T11:22:36Z</time>
      </trkpt>
      <trkpt lat="45.0191" lon="6.11348">
        <ele>1892.2</ele>
        <time>2022-12-29T11:22:37Z</time>
      </trkpt>
      <trkpt lat="45.0191" lon="6.11348">
        <ele>1892.2</ele>
        <time>2022-12-29T11:22:38Z</time>
      </trkpt>
      <trkpt lat="45.0191" lon="6.11348">
        <ele>1892.2</ele>
        <time>2022-12-29T11:22:39Z</time>
      </trkpt>
      <trkpt lat="45.0191" lon="6.11348">
        <ele>1892.2</ele>
        <time>2022-12-29T11:22:40Z</time>
      </trkpt>
      <trkpt lat="45.01909" lon="6.11349">
        <ele>1892.2</ele>
        <time>2022-12-29T11:22:41Z</time>
      </trkpt>
      <trkpt lat="45.01909" lon="6.11349">
        <ele>1892.2</ele>
        <time>2022-12-29T11:22:42Z</time>
      </trkpt>
      <trkpt lat="45.01909" lon="6.11349">
        <ele>1892.2</ele>
        <time>2022-12-29T11:22:43Z</time>
      </trkpt>
      <trkpt lat="45.01909" lon="6.11349">
        <ele>1892.2</ele>
        <time>2022-12-29T11:22:44Z</time>
      </trkpt>
      <trkpt lat="45.01909" lon="6.11349">
        <ele>1892.2</ele>
        <time>2022-12-29T11:22:45Z</time>
      </trkpt>
      <trkpt lat="45.01909" lon="6.11349">
        <ele>1893</ele>
        <time>2022-12-29T11:22:46Z</time>
      </trkpt>
      <trkpt lat="45.01909" lon="6.11349">
        <ele>1893</ele>
        <time>2022-12-29T11:22:47Z</time>
      </trkpt>
      <trkpt lat="45.01909" lon="6.11349">
        <ele>1893</ele>
        <time>2022-12-29T11:22:48Z</time>
      </trkpt>
      <trkpt lat="45.01909" lon="6.11349">
        <ele>1893</ele>
        <time>2022-12-29T11:22:49Z</time>
      </trkpt>
      <trkpt lat="45.01909" lon="6.11349">
        <ele>1893</ele>
        <time>2022-12-29T11:22:50Z</time>
      </trkpt>
      <trkpt lat="45.01909" lon="6.11349">
        <ele>1893</ele>
        <time>2022-12-29T11:22:51Z</time>
      </trkpt>
      <trkpt lat="45.01909" lon="6.11349">
        <ele>1893</ele>
        <time>2022-12-29T11:22:52Z</time>
      </trkpt>
      <trkpt lat="45.01909" lon="6.11349">
        <ele>1893</ele>
        <time>2022-12-29T11:22:53Z</time>
      </trkpt>
      <trkpt lat="45.01909" lon="6.11349">
        <ele>1893</ele>
        <time>2022-12-29T11:22:54Z</time>
      </trkpt>
      <trkpt lat="45.01909" lon="6.11349">
        <ele>1893</ele>
        <time>2022-12-29T11:22:55Z</time>
      </trkpt>
      <trkpt lat="45.01909" lon="6.11349">
        <ele>1893.4</ele>
        <time>2022-12-29T11:22:56Z</time>
      </trkpt>
      <trkpt lat="45.01909" lon="6.11349">
        <ele>1893.4</ele>
        <time>2022-12-29T11:22:57Z</time>
      </trkpt>
      <trkpt lat="45.01909" lon="6.11349">
        <ele>1893.4</ele>
        <time>2022-12-29T11:22:58Z</time>
      </trkpt>
      <trkpt lat="45.01909" lon="6.11349">
        <ele>1893.4</ele>
        <time>2022-12-29T11:22:59Z</time>
      </trkpt>
      <trkpt lat="45.01909" lon="6.11349">
        <ele>1893.4</ele>
        <time>2022-12-29T11:23:00Z</time>
      </trkpt>
      <trkpt lat="45.01909" lon="6.11349">
        <ele>1893.4</ele>
        <time>2022-12-29T11:23:01Z</time>
      </trkpt>
      <trkpt lat="45.01909" lon="6.11349">
        <ele>1893.4</ele>
        <time>2022-12-29T11:23:02Z</time>
      </trkpt>
      <trkpt lat="45.01909" lon="6.11349">
        <ele>1893.4</ele>
        <time>2022-12-29T11:23:03Z</time>
      </trkpt>
      <trkpt lat="45.01909" lon="6.11349">
        <ele>1893.4</ele>
        <time>2022-12-29T11:23:04Z</time>
      </trkpt>
      <trkpt lat="45.01909" lon="6.11349">
        <ele>1893.4</ele>
        <time>2022-12-29T11:23:05Z</time>
      </trkpt>
      <trkpt lat="45.01909" lon="6.11349">
        <ele>1893.2</ele>
        <time>2022-12-29T11:23:06Z</time>
      </trkpt>
      <trkpt lat="45.01909" lon="6.11349">
        <ele>1893.2</ele>
        <time>2022-12-29T11:23:07Z</time>
      </trkpt>
      <trkpt lat="45.01909" lon="6.11349">
        <ele>1893.2</ele>
        <time>2022-12-29T11:23:08Z</time>
      </trkpt>
      <trkpt lat="45.01908" lon="6.11349">
        <ele>1893.2</ele>
        <time>2022-12-29T11:23:09Z</time>
      </trkpt>
      <trkpt lat="45.01908" lon="6.11349">
        <ele>1893.2</ele>
        <time>2022-12-29T11:23:10Z</time>
      </trkpt>
      <trkpt lat="45.01908" lon="6.11349">
        <ele>1893.2</ele>
        <time>2022-12-29T11:23:11Z</time>
      </trkpt>
      <trkpt lat="45.01908" lon="6.1135">
        <ele>1893.2</ele>
        <time>2022-12-29T11:23:12Z</time>
      </trkpt>
      <trkpt lat="45.01908" lon="6.1135">
        <ele>1893.2</ele>
        <time>2022-12-29T11:23:13Z</time>
      </trkpt>
      <trkpt lat="45.01908" lon="6.1135">
        <ele>1893.2</ele>
        <time>2022-12-29T11:23:14Z</time>
      </trkpt>
      <trkpt lat="45.01908" lon="6.1135">
        <ele>1893.2</ele>
        <time>2022-12-29T11:23:15Z</time>
      </trkpt>
      <trkpt lat="45.01908" lon="6.1135">
        <ele>1893</ele>
        <time>2022-12-29T11:23:16Z</time>
      </trkpt>
      <trkpt lat="45.01908" lon="6.1135">
        <ele>1893</ele>
        <time>2022-12-29T11:23:17Z</time>
      </trkpt>
      <trkpt lat="45.01908" lon="6.1135">
        <ele>1893</ele>
        <time>2022-12-29T11:23:18Z</time>
      </trkpt>
      <trkpt lat="45.01908" lon="6.1135">
        <ele>1893</ele>
        <time>2022-12-29T11:23:19Z</time>
      </trkpt>
      <trkpt lat="45.01908" lon="6.1135">
        <ele>1893</ele>
        <time>2022-12-29T11:23:20Z</time>
      </trkpt>
      <trkpt lat="45.01908" lon="6.1135">
        <ele>1893</ele>
        <time>2022-12-29T11:23:21Z</time>
      </trkpt>
      <trkpt lat="45.01908" lon="6.1135">
        <ele>1893</ele>
        <time>2022-12-29T11:23:22Z</time>
      </trkpt>
      <trkpt lat="45.01908" lon="6.1135">
        <ele>1893</ele>
        <time>2022-12-29T11:23:23Z</time>
      </trkpt>
      <trkpt lat="45.01908" lon="6.1135">
        <ele>1893</ele>
        <time>2022-12-29T11:23:24Z</time>
      </trkpt>
      <trkpt lat="45.01908" lon="6.1135">
        <ele>1893</ele>
        <time>2022-12-29T11:23:25Z</time>
      </trkpt>
      <trkpt lat="45.01908" lon="6.1135">
        <ele>1892.2</ele>
        <time>2022-12-29T11:23:26Z</time>
      </trkpt>
      <trkpt lat="45.01906" lon="6.11351">
        <ele>1892.2</ele>
        <time>2022-12-29T11:23:27Z</time>
      </trkpt>
      <trkpt lat="45.01905" lon="6.11352">
        <ele>1892.2</ele>
        <time>2022-12-29T11:23:28Z</time>
      </trkpt>
      <trkpt lat="45.01904" lon="6.11352">
        <ele>1892.2</ele>
        <time>2022-12-29T11:23:29Z</time>
      </trkpt>
      <trkpt lat="45.01903" lon="6.11353">
        <ele>1892.2</ele>
        <time>2022-12-29T11:23:30Z</time>
      </trkpt>
      <trkpt lat="45.01902" lon="6.11353">
        <ele>1892.2</ele>
        <time>2022-12-29T11:23:31Z</time>
      </trkpt>
      <trkpt lat="45.01901" lon="6.11354">
        <ele>1892.2</ele>
        <time>2022-12-29T11:23:32Z</time>
      </trkpt>
      <trkpt lat="45.01901" lon="6.11354">
        <ele>1892.2</ele>
        <time>2022-12-29T11:23:33Z</time>
      </trkpt>
      <trkpt lat="45.019" lon="6.11355">
        <ele>1892.2</ele>
        <time>2022-12-29T11:23:34Z</time>
      </trkpt>
      <trkpt lat="45.01899" lon="6.11355">
        <ele>1892.2</ele>
        <time>2022-12-29T11:23:35Z</time>
      </trkpt>
      <trkpt lat="45.01898" lon="6.11356">
        <ele>1891</ele>
        <time>2022-12-29T11:23:36Z</time>
      </trkpt>
      <trkpt lat="45.01896" lon="6.11356">
        <ele>1891</ele>
        <time>2022-12-29T11:23:37Z</time>
      </trkpt>
      <trkpt lat="45.01896" lon="6.11356">
        <ele>1891</ele>
        <time>2022-12-29T11:23:38Z</time>
      </trkpt>
      <trkpt lat="45.01896" lon="6.11356">
        <ele>1891</ele>
        <time>2022-12-29T11:23:39Z</time>
      </trkpt>
      <trkpt lat="45.01896" lon="6.11356">
        <ele>1891</ele>
        <time>2022-12-29T11:23:40Z</time>
      </trkpt>
      <trkpt lat="45.01896" lon="6.11356">
        <ele>1891</ele>
        <time>2022-12-29T11:23:41Z</time>
      </trkpt>
      <trkpt lat="45.01896" lon="6.11356">
        <ele>1891</ele>
        <time>2022-12-29T11:23:42Z</time>
      </trkpt>
      <trkpt lat="45.01894" lon="6.11356">
        <ele>1891</ele>
        <time>2022-12-29T11:23:43Z</time>
      </trkpt>
      <trkpt lat="45.01894" lon="6.11356">
        <ele>1891</ele>
        <time>2022-12-29T11:23:44Z</time>
      </trkpt>
      <trkpt lat="45.01894" lon="6.11356">
        <ele>1891</ele>
        <time>2022-12-29T11:23:45Z</time>
      </trkpt>
      <trkpt lat="45.01894" lon="6.11356">
        <ele>1891</ele>
        <time>2022-12-29T11:23:46Z</time>
      </trkpt>
      <trkpt lat="45.01893" lon="6.11356">
        <ele>1891</ele>
        <time>2022-12-29T11:23:47Z</time>
      </trkpt>
      <trkpt lat="45.01893" lon="6.11356">
        <ele>1891</ele>
        <time>2022-12-29T11:23:48Z</time>
      </trkpt>
      <trkpt lat="45.01893" lon="6.11356">
        <ele>1891</ele>
        <time>2022-12-29T11:23:49Z</time>
      </trkpt>
      <trkpt lat="45.01892" lon="6.11356">
        <ele>1891</ele>
        <time>2022-12-29T11:23:50Z</time>
      </trkpt>
      <trkpt lat="45.01892" lon="6.11356">
        <ele>1891</ele>
        <time>2022-12-29T11:23:51Z</time>
      </trkpt>
      <trkpt lat="45.01892" lon="6.11356">
        <ele>1891</ele>
        <time>2022-12-29T11:23:52Z</time>
      </trkpt>
      <trkpt lat="45.01891" lon="6.11356">
        <ele>1891</ele>
        <time>2022-12-29T11:23:53Z</time>
      </trkpt>
      <trkpt lat="45.01891" lon="6.11357">
        <ele>1891</ele>
        <time>2022-12-29T11:23:54Z</time>
      </trkpt>
      <trkpt lat="45.0189" lon="6.11357">
        <ele>1891</ele>
        <time>2022-12-29T11:23:55Z</time>
      </trkpt>
      <trkpt lat="45.0189" lon="6.11357">
        <ele>1892</ele>
        <time>2022-12-29T11:23:56Z</time>
      </trkpt>
      <trkpt lat="45.0189" lon="6.11357">
        <ele>1892</ele>
        <time>2022-12-29T11:23:57Z</time>
      </trkpt>
      <trkpt lat="45.01888" lon="6.11357">
        <ele>1892</ele>
        <time>2022-12-29T11:23:58Z</time>
      </trkpt>
      <trkpt lat="45.01888" lon="6.11357">
        <ele>1892</ele>
        <time>2022-12-29T11:23:59Z</time>
      </trkpt>
      <trkpt lat="45.01888" lon="6.11357">
        <ele>1892</ele>
        <time>2022-12-29T11:24:00Z</time>
      </trkpt>
      <trkpt lat="45.01888" lon="6.11357">
        <ele>1892</ele>
        <time>2022-12-29T11:24:01Z</time>
      </trkpt>
      <trkpt lat="45.01886" lon="6.11357">
        <ele>1892</ele>
        <time>2022-12-29T11:24:02Z</time>
      </trkpt>
      <trkpt lat="45.01886" lon="6.11357">
        <ele>1892</ele>
        <time>2022-12-29T11:24:03Z</time>
      </trkpt>
      <trkpt lat="45.01886" lon="6.11357">
        <ele>1892</ele>
        <time>2022-12-29T11:24:04Z</time>
      </trkpt>
      <trkpt lat="45.01886" lon="6.11357">
        <ele>1892</ele>
        <time>2022-12-29T11:24:05Z</time>
      </trkpt>
      <trkpt lat="45.01886" lon="6.11357">
        <ele>1893</ele>
        <time>2022-12-29T11:24:06Z</time>
      </trkpt>
      <trkpt lat="45.01886" lon="6.11357">
        <ele>1893</ele>
        <time>2022-12-29T11:24:07Z</time>
      </trkpt>
      <trkpt lat="45.01884" lon="6.11357">
        <ele>1893</ele>
        <time>2022-12-29T11:24:08Z</time>
      </trkpt>
      <trkpt lat="45.01884" lon="6.11357">
        <ele>1893</ele>
        <time>2022-12-29T11:24:09Z</time>
      </trkpt>
      <trkpt lat="45.01884" lon="6.11357">
        <ele>1893</ele>
        <time>2022-12-29T11:24:10Z</time>
      </trkpt>
      <trkpt lat="45.01884" lon="6.11357">
        <ele>1893</ele>
        <time>2022-12-29T11:24:11Z</time>
      </trkpt>
      <trkpt lat="45.01884" lon="6.11357">
        <ele>1893</ele>
        <time>2022-12-29T11:24:12Z</time>
      </trkpt>
      <trkpt lat="45.01884" lon="6.11357">
        <ele>1893</ele>
        <time>2022-12-29T11:24:13Z</time>
      </trkpt>
      <trkpt lat="45.01882" lon="6.11358">
        <ele>1893</ele>
        <time>2022-12-29T11:24:14Z</time>
      </trkpt>
      <trkpt lat="45.01882" lon="6.11358">
        <ele>1893</ele>
        <time>2022-12-29T11:24:15Z</time>
      </trkpt>
      <trkpt lat="45.01882" lon="6.11358">
        <ele>1893.8</ele>
        <time>2022-12-29T11:24:16Z</time>
      </trkpt>
      <trkpt lat="45.01882" lon="6.11358">
        <ele>1893.8</ele>
        <time>2022-12-29T11:24:17Z</time>
      </trkpt>
      <trkpt lat="45.01882" lon="6.11358">
        <ele>1893.8</ele>
        <time>2022-12-29T11:24:18Z</time>
      </trkpt>
      <trkpt lat="45.01881" lon="6.11358">
        <ele>1893.8</ele>
        <time>2022-12-29T11:24:19Z</time>
      </trkpt>
      <trkpt lat="45.01881" lon="6.11358">
        <ele>1893.8</ele>
        <time>2022-12-29T11:24:20Z</time>
      </trkpt>
      <trkpt lat="45.0188" lon="6.11358">
        <ele>1893.8</ele>
        <time>2022-12-29T11:24:21Z</time>
      </trkpt>
      <trkpt lat="45.0188" lon="6.11358">
        <ele>1893.8</ele>
        <time>2022-12-29T11:24:22Z</time>
      </trkpt>
      <trkpt lat="45.0188" lon="6.11358">
        <ele>1893.8</ele>
        <time>2022-12-29T11:24:23Z</time>
      </trkpt>
      <trkpt lat="45.01879" lon="6.11359">
        <ele>1893.8</ele>
        <time>2022-12-29T11:24:24Z</time>
      </trkpt>
      <trkpt lat="45.01879" lon="6.11359">
        <ele>1893.8</ele>
        <time>2022-12-29T11:24:25Z</time>
      </trkpt>
      <trkpt lat="45.01879" lon="6.11359">
        <ele>1894</ele>
        <time>2022-12-29T11:24:26Z</time>
      </trkpt>
      <trkpt lat="45.01878" lon="6.11359">
        <ele>1894</ele>
        <time>2022-12-29T11:24:27Z</time>
      </trkpt>
      <trkpt lat="45.01878" lon="6.11359">
        <ele>1894</ele>
        <time>2022-12-29T11:24:28Z</time>
      </trkpt>
      <trkpt lat="45.01878" lon="6.11359">
        <ele>1894</ele>
        <time>2022-12-29T11:24:29Z</time>
      </trkpt>
      <trkpt lat="45.01877" lon="6.11359">
        <ele>1894</ele>
        <time>2022-12-29T11:24:30Z</time>
      </trkpt>
      <trkpt lat="45.01877" lon="6.11359">
        <ele>1894</ele>
        <time>2022-12-29T11:24:31Z</time>
      </trkpt>
      <trkpt lat="45.01876" lon="6.11359">
        <ele>1894</ele>
        <time>2022-12-29T11:24:32Z</time>
      </trkpt>
      <trkpt lat="45.01876" lon="6.11359">
        <ele>1894</ele>
        <time>2022-12-29T11:24:33Z</time>
      </trkpt>
      <trkpt lat="45.01876" lon="6.11359">
        <ele>1894</ele>
        <time>2022-12-29T11:24:34Z</time>
      </trkpt>
      <trkpt lat="45.01875" lon="6.11359">
        <ele>1894</ele>
        <time>2022-12-29T11:24:35Z</time>
      </trkpt>
      <trkpt lat="45.01875" lon="6.11359">
        <ele>1895.6</ele>
        <time>2022-12-29T11:24:36Z</time>
      </trkpt>
      <trkpt lat="45.01872" lon="6.11359">
        <ele>1895.6</ele>
        <time>2022-12-29T11:24:37Z</time>
      </trkpt>
      <trkpt lat="45.01871" lon="6.1136">
        <ele>1895.6</ele>
        <time>2022-12-29T11:24:38Z</time>
      </trkpt>
      <trkpt lat="45.0187" lon="6.1136">
        <ele>1895.6</ele>
        <time>2022-12-29T11:24:39Z</time>
      </trkpt>
      <trkpt lat="45.01869" lon="6.1136">
        <ele>1895.6</ele>
        <time>2022-12-29T11:24:40Z</time>
      </trkpt>
      <trkpt lat="45.01869" lon="6.1136">
        <ele>1895.6</ele>
        <time>2022-12-29T11:24:41Z</time>
      </trkpt>
      <trkpt lat="45.01868" lon="6.1136">
        <ele>1895.6</ele>
        <time>2022-12-29T11:24:42Z</time>
      </trkpt>
      <trkpt lat="45.01867" lon="6.1136">
        <ele>1895.6</ele>
        <time>2022-12-29T11:24:43Z</time>
      </trkpt>
      <trkpt lat="45.01866" lon="6.1136">
        <ele>1895.6</ele>
        <time>2022-12-29T11:24:44Z</time>
      </trkpt>
      <trkpt lat="45.01866" lon="6.1136">
        <ele>1895.6</ele>
        <time>2022-12-29T11:24:45Z</time>
      </trkpt>
      <trkpt lat="45.01865" lon="6.1136">
        <ele>1897.4</ele>
        <time>2022-12-29T11:24:46Z</time>
      </trkpt>
      <trkpt lat="45.01865" lon="6.1136">
        <ele>1897.4</ele>
        <time>2022-12-29T11:24:47Z</time>
      </trkpt>
      <trkpt lat="45.01863" lon="6.11359">
        <ele>1897.4</ele>
        <time>2022-12-29T11:24:48Z</time>
      </trkpt>
      <trkpt lat="45.01863" lon="6.11359">
        <ele>1897.4</ele>
        <time>2022-12-29T11:24:49Z</time>
      </trkpt>
      <trkpt lat="45.01863" lon="6.11359">
        <ele>1897.4</ele>
        <time>2022-12-29T11:24:50Z</time>
      </trkpt>
      <trkpt lat="45.01863" lon="6.11359">
        <ele>1897.4</ele>
        <time>2022-12-29T11:24:51Z</time>
      </trkpt>
      <trkpt lat="45.01861" lon="6.11359">
        <ele>1897.4</ele>
        <time>2022-12-29T11:24:52Z</time>
      </trkpt>
      <trkpt lat="45.01861" lon="6.11359">
        <ele>1897.4</ele>
        <time>2022-12-29T11:24:53Z</time>
      </trkpt>
      <trkpt lat="45.01861" lon="6.11359">
        <ele>1897.4</ele>
        <time>2022-12-29T11:24:54Z</time>
      </trkpt>
      <trkpt lat="45.01861" lon="6.11359">
        <ele>1897.4</ele>
        <time>2022-12-29T11:24:55Z</time>
      </trkpt>
      <trkpt lat="45.01861" lon="6.11359">
        <ele>1898.8</ele>
        <time>2022-12-29T11:24:56Z</time>
      </trkpt>
      <trkpt lat="45.01859" lon="6.11357">
        <ele>1898.8</ele>
        <time>2022-12-29T11:24:57Z</time>
      </trkpt>
      <trkpt lat="45.01858" lon="6.11357">
        <ele>1898.8</ele>
        <time>2022-12-29T11:24:58Z</time>
      </trkpt>
      <trkpt lat="45.01858" lon="6.11357">
        <ele>1898.8</ele>
        <time>2022-12-29T11:24:59Z</time>
      </trkpt>
      <trkpt lat="45.01857" lon="6.11357">
        <ele>1898.8</ele>
        <time>2022-12-29T11:25:00Z</time>
      </trkpt>
      <trkpt lat="45.01857" lon="6.11357">
        <ele>1898.8</ele>
        <time>2022-12-29T11:25:01Z</time>
      </trkpt>
      <trkpt lat="45.01856" lon="6.11357">
        <ele>1898.8</ele>
        <time>2022-12-29T11:25:02Z</time>
      </trkpt>
      <trkpt lat="45.01855" lon="6.11357">
        <ele>1898.8</ele>
        <time>2022-12-29T11:25:03Z</time>
      </trkpt>
      <trkpt lat="45.01855" lon="6.11357">
        <ele>1898.8</ele>
        <time>2022-12-29T11:25:04Z</time>
      </trkpt>
      <trkpt lat="45.01854" lon="6.11356">
        <ele>1898.8</ele>
        <time>2022-12-29T11:25:05Z</time>
      </trkpt>
      <trkpt lat="45.01853" lon="6.11356">
        <ele>1900</ele>
        <time>2022-12-29T11:25:06Z</time>
      </trkpt>
      <trkpt lat="45.01853" lon="6.11356">
        <ele>1900</ele>
        <time>2022-12-29T11:25:07Z</time>
      </trkpt>
      <trkpt lat="45.01852" lon="6.11356">
        <ele>1900</ele>
        <time>2022-12-29T11:25:08Z</time>
      </trkpt>
      <trkpt lat="45.01852" lon="6.11356">
        <ele>1900</ele>
        <time>2022-12-29T11:25:09Z</time>
      </trkpt>
      <trkpt lat="45.01851" lon="6.11356">
        <ele>1900</ele>
        <time>2022-12-29T11:25:10Z</time>
      </trkpt>
      <trkpt lat="45.0185" lon="6.11356">
        <ele>1900</ele>
        <time>2022-12-29T11:25:11Z</time>
      </trkpt>
      <trkpt lat="45.0185" lon="6.11356">
        <ele>1900</ele>
        <time>2022-12-29T11:25:12Z</time>
      </trkpt>
      <trkpt lat="45.01849" lon="6.11356">
        <ele>1900</ele>
        <time>2022-12-29T11:25:13Z</time>
      </trkpt>
      <trkpt lat="45.01849" lon="6.11357">
        <ele>1900</ele>
        <time>2022-12-29T11:25:14Z</time>
      </trkpt>
      <trkpt lat="45.01848" lon="6.11357">
        <ele>1900</ele>
        <time>2022-12-29T11:25:15Z</time>
      </trkpt>
      <trkpt lat="45.01847" lon="6.11357">
        <ele>1901.8</ele>
        <time>2022-12-29T11:25:16Z</time>
      </trkpt>
      <trkpt lat="45.01847" lon="6.11356">
        <ele>1901.8</ele>
        <time>2022-12-29T11:25:17Z</time>
      </trkpt>
      <trkpt lat="45.01846" lon="6.11356">
        <ele>1901.8</ele>
        <time>2022-12-29T11:25:18Z</time>
      </trkpt>
      <trkpt lat="45.01845" lon="6.11356">
        <ele>1901.8</ele>
        <time>2022-12-29T11:25:19Z</time>
      </trkpt>
      <trkpt lat="45.01844" lon="6.11356">
        <ele>1901.8</ele>
        <time>2022-12-29T11:25:20Z</time>
      </trkpt>
      <trkpt lat="45.01843" lon="6.11356">
        <ele>1901.8</ele>
        <time>2022-12-29T11:25:21Z</time>
      </trkpt>
      <trkpt lat="45.01842" lon="6.11355">
        <ele>1901.8</ele>
        <time>2022-12-29T11:25:22Z</time>
      </trkpt>
      <trkpt lat="45.01842" lon="6.11355">
        <ele>1901.8</ele>
        <time>2022-12-29T11:25:23Z</time>
      </trkpt>
      <trkpt lat="45.01841" lon="6.11355">
        <ele>1901.8</ele>
        <time>2022-12-29T11:25:24Z</time>
      </trkpt>
      <trkpt lat="45.0184" lon="6.11355">
        <ele>1901.8</ele>
        <time>2022-12-29T11:25:25Z</time>
      </trkpt>
      <trkpt lat="45.01839" lon="6.11355">
        <ele>1904</ele>
        <time>2022-12-29T11:25:26Z</time>
      </trkpt>
      <trkpt lat="45.01838" lon="6.11354">
        <ele>1904</ele>
        <time>2022-12-29T11:25:27Z</time>
      </trkpt>
      <trkpt lat="45.01838" lon="6.11354">
        <ele>1904</ele>
        <time>2022-12-29T11:25:28Z</time>
      </trkpt>
      <trkpt lat="45.01837" lon="6.11354">
        <ele>1904</ele>
        <time>2022-12-29T11:25:29Z</time>
      </trkpt>
      <trkpt lat="45.01837" lon="6.11354">
        <ele>1904</ele>
        <time>2022-12-29T11:25:30Z</time>
      </trkpt>
      <trkpt lat="45.01836" lon="6.11354">
        <ele>1904</ele>
        <time>2022-12-29T11:25:31Z</time>
      </trkpt>
      <trkpt lat="45.01835" lon="6.11353">
        <ele>1904</ele>
        <time>2022-12-29T11:25:32Z</time>
      </trkpt>
      <trkpt lat="45.01835" lon="6.11353">
        <ele>1904</ele>
        <time>2022-12-29T11:25:33Z</time>
      </trkpt>
      <trkpt lat="45.01834" lon="6.11353">
        <ele>1904</ele>
        <time>2022-12-29T11:25:34Z</time>
      </trkpt>
      <trkpt lat="45.01834" lon="6.11353">
        <ele>1904</ele>
        <time>2022-12-29T11:25:35Z</time>
      </trkpt>
      <trkpt lat="45.01833" lon="6.11353">
        <ele>1906</ele>
        <time>2022-12-29T11:25:36Z</time>
      </trkpt>
      <trkpt lat="45.01833" lon="6.11352">
        <ele>1906</ele>
        <time>2022-12-29T11:25:37Z</time>
      </trkpt>
      <trkpt lat="45.01832" lon="6.11352">
        <ele>1906</ele>
        <time>2022-12-29T11:25:38Z</time>
      </trkpt>
      <trkpt lat="45.01832" lon="6.11351">
        <ele>1906</ele>
        <time>2022-12-29T11:25:39Z</time>
      </trkpt>
      <trkpt lat="45.01831" lon="6.11351">
        <ele>1906</ele>
        <time>2022-12-29T11:25:40Z</time>
      </trkpt>
      <trkpt lat="45.01831" lon="6.1135">
        <ele>1906</ele>
        <time>2022-12-29T11:25:41Z</time>
      </trkpt>
      <trkpt lat="45.01831" lon="6.1135">
        <ele>1906</ele>
        <time>2022-12-29T11:25:42Z</time>
      </trkpt>
      <trkpt lat="45.0183" lon="6.1135">
        <ele>1906</ele>
        <time>2022-12-29T11:25:43Z</time>
      </trkpt>
      <trkpt lat="45.0183" lon="6.11349">
        <ele>1906</ele>
        <time>2022-12-29T11:25:44Z</time>
      </trkpt>
      <trkpt lat="45.0183" lon="6.11349">
        <ele>1906</ele>
        <time>2022-12-29T11:25:45Z</time>
      </trkpt>
      <trkpt lat="45.01829" lon="6.11348">
        <ele>1908</ele>
        <time>2022-12-29T11:25:46Z</time>
      </trkpt>
      <trkpt lat="45.01827" lon="6.11345">
        <ele>1908</ele>
        <time>2022-12-29T11:25:47Z</time>
      </trkpt>
      <trkpt lat="45.01826" lon="6.11345">
        <ele>1908</ele>
        <time>2022-12-29T11:25:48Z</time>
      </trkpt>
      <trkpt lat="45.01826" lon="6.11344">
        <ele>1908</ele>
        <time>2022-12-29T11:25:49Z</time>
      </trkpt>
      <trkpt lat="45.01825" lon="6.11344">
        <ele>1908</ele>
        <time>2022-12-29T11:25:50Z</time>
      </trkpt>
      <trkpt lat="45.01825" lon="6.11343">
        <ele>1908</ele>
        <time>2022-12-29T11:25:51Z</time>
      </trkpt>
      <trkpt lat="45.01824" lon="6.11343">
        <ele>1908</ele>
        <time>2022-12-29T11:25:52Z</time>
      </trkpt>
      <trkpt lat="45.01824" lon="6.11343">
        <ele>1908</ele>
        <time>2022-12-29T11:25:53Z</time>
      </trkpt>
      <trkpt lat="45.01823" lon="6.11342">
        <ele>1908</ele>
        <time>2022-12-29T11:25:54Z</time>
      </trkpt>
      <trkpt lat="45.01822" lon="6.11342">
        <ele>1908</ele>
        <time>2022-12-29T11:25:55Z</time>
      </trkpt>
      <trkpt lat="45.01822" lon="6.11341">
        <ele>1910.2</ele>
        <time>2022-12-29T11:25:56Z</time>
      </trkpt>
      <trkpt lat="45.01821" lon="6.11341">
        <ele>1910.2</ele>
        <time>2022-12-29T11:25:57Z</time>
      </trkpt>
      <trkpt lat="45.01821" lon="6.11341">
        <ele>1910.2</ele>
        <time>2022-12-29T11:25:58Z</time>
      </trkpt>
      <trkpt lat="45.0182" lon="6.11341">
        <ele>1910.2</ele>
        <time>2022-12-29T11:25:59Z</time>
      </trkpt>
      <trkpt lat="45.01819" lon="6.11341">
        <ele>1910.2</ele>
        <time>2022-12-29T11:26:00Z</time>
      </trkpt>
      <trkpt lat="45.01819" lon="6.1134">
        <ele>1910.2</ele>
        <time>2022-12-29T11:26:01Z</time>
      </trkpt>
      <trkpt lat="45.01818" lon="6.1134">
        <ele>1910.2</ele>
        <time>2022-12-29T11:26:02Z</time>
      </trkpt>
      <trkpt lat="45.01817" lon="6.1134">
        <ele>1910.2</ele>
        <time>2022-12-29T11:26:03Z</time>
      </trkpt>
      <trkpt lat="45.01817" lon="6.1134">
        <ele>1910.2</ele>
        <time>2022-12-29T11:26:04Z</time>
      </trkpt>
      <trkpt lat="45.01816" lon="6.1134">
        <ele>1910.2</ele>
        <time>2022-12-29T11:26:05Z</time>
      </trkpt>
      <trkpt lat="45.01815" lon="6.1134">
        <ele>1912</ele>
        <time>2022-12-29T11:26:06Z</time>
      </trkpt>
      <trkpt lat="45.01813" lon="6.11339">
        <ele>1912</ele>
        <time>2022-12-29T11:26:07Z</time>
      </trkpt>
      <trkpt lat="45.01813" lon="6.11339">
        <ele>1912</ele>
        <time>2022-12-29T11:26:08Z</time>
      </trkpt>
      <trkpt lat="45.01812" lon="6.11338">
        <ele>1912</ele>
        <time>2022-12-29T11:26:09Z</time>
      </trkpt>
      <trkpt lat="45.01812" lon="6.11338">
        <ele>1912</ele>
        <time>2022-12-29T11:26:10Z</time>
      </trkpt>
      <trkpt lat="45.01811" lon="6.11338">
        <ele>1912</ele>
        <time>2022-12-29T11:26:11Z</time>
      </trkpt>
      <trkpt lat="45.01811" lon="6.11337">
        <ele>1912</ele>
        <time>2022-12-29T11:26:12Z</time>
      </trkpt>
      <trkpt lat="45.01811" lon="6.11337">
        <ele>1912</ele>
        <time>2022-12-29T11:26:13Z</time>
      </trkpt>
      <trkpt lat="45.0181" lon="6.11337">
        <ele>1912</ele>
        <time>2022-12-29T11:26:14Z</time>
      </trkpt>
      <trkpt lat="45.0181" lon="6.11337">
        <ele>1912</ele>
        <time>2022-12-29T11:26:15Z</time>
      </trkpt>
      <trkpt lat="45.01809" lon="6.11336">
        <ele>1913.6</ele>
        <time>2022-12-29T11:26:16Z</time>
      </trkpt>
      <trkpt lat="45.01807" lon="6.11334">
        <ele>1913.6</ele>
        <time>2022-12-29T11:26:17Z</time>
      </trkpt>
      <trkpt lat="45.01806" lon="6.11334">
        <ele>1913.6</ele>
        <time>2022-12-29T11:26:18Z</time>
      </trkpt>
      <trkpt lat="45.01805" lon="6.11334">
        <ele>1913.6</ele>
        <time>2022-12-29T11:26:19Z</time>
      </trkpt>
      <trkpt lat="45.01804" lon="6.11334">
        <ele>1913.6</ele>
        <time>2022-12-29T11:26:20Z</time>
      </trkpt>
      <trkpt lat="45.01804" lon="6.11334">
        <ele>1913.6</ele>
        <time>2022-12-29T11:26:21Z</time>
      </trkpt>
      <trkpt lat="45.01803" lon="6.11334">
        <ele>1913.6</ele>
        <time>2022-12-29T11:26:22Z</time>
      </trkpt>
      <trkpt lat="45.01802" lon="6.11335">
        <ele>1913.6</ele>
        <time>2022-12-29T11:26:23Z</time>
      </trkpt>
      <trkpt lat="45.01802" lon="6.11335">
        <ele>1913.6</ele>
        <time>2022-12-29T11:26:24Z</time>
      </trkpt>
      <trkpt lat="45.01801" lon="6.11335">
        <ele>1913.6</ele>
        <time>2022-12-29T11:26:25Z</time>
      </trkpt>
      <trkpt lat="45.018" lon="6.11335">
        <ele>1915.6</ele>
        <time>2022-12-29T11:26:26Z</time>
      </trkpt>
      <trkpt lat="45.018" lon="6.11334">
        <ele>1915.6</ele>
        <time>2022-12-29T11:26:27Z</time>
      </trkpt>
      <trkpt lat="45.01799" lon="6.11333">
        <ele>1915.6</ele>
        <time>2022-12-29T11:26:28Z</time>
      </trkpt>
      <trkpt lat="45.01799" lon="6.11332">
        <ele>1915.6</ele>
        <time>2022-12-29T11:26:29Z</time>
      </trkpt>
      <trkpt lat="45.01799" lon="6.11331">
        <ele>1915.6</ele>
        <time>2022-12-29T11:26:30Z</time>
      </trkpt>
      <trkpt lat="45.01798" lon="6.1133">
        <ele>1915.6</ele>
        <time>2022-12-29T11:26:31Z</time>
      </trkpt>
      <trkpt lat="45.01798" lon="6.11329">
        <ele>1915.6</ele>
        <time>2022-12-29T11:26:32Z</time>
      </trkpt>
      <trkpt lat="45.01798" lon="6.11328">
        <ele>1915.6</ele>
        <time>2022-12-29T11:26:33Z</time>
      </trkpt>
      <trkpt lat="45.01797" lon="6.11327">
        <ele>1915.6</ele>
        <time>2022-12-29T11:26:34Z</time>
      </trkpt>
      <trkpt lat="45.01797" lon="6.11326">
        <ele>1915.6</ele>
        <time>2022-12-29T11:26:35Z</time>
      </trkpt>
      <trkpt lat="45.01797" lon="6.11325">
        <ele>1916.8</ele>
        <time>2022-12-29T11:26:36Z</time>
      </trkpt>
      <trkpt lat="45.01796" lon="6.11324">
        <ele>1916.8</ele>
        <time>2022-12-29T11:26:37Z</time>
      </trkpt>
      <trkpt lat="45.01795" lon="6.11324">
        <ele>1916.8</ele>
        <time>2022-12-29T11:26:38Z</time>
      </trkpt>
      <trkpt lat="45.01795" lon="6.11323">
        <ele>1916.8</ele>
        <time>2022-12-29T11:26:39Z</time>
      </trkpt>
      <trkpt lat="45.01794" lon="6.11323">
        <ele>1916.8</ele>
        <time>2022-12-29T11:26:40Z</time>
      </trkpt>
      <trkpt lat="45.01793" lon="6.11322">
        <ele>1916.8</ele>
        <time>2022-12-29T11:26:41Z</time>
      </trkpt>
      <trkpt lat="45.01792" lon="6.11322">
        <ele>1916.8</ele>
        <time>2022-12-29T11:26:42Z</time>
      </trkpt>
      <trkpt lat="45.01792" lon="6.11321">
        <ele>1916.8</ele>
        <time>2022-12-29T11:26:43Z</time>
      </trkpt>
      <trkpt lat="45.01791" lon="6.1132">
        <ele>1916.8</ele>
        <time>2022-12-29T11:26:44Z</time>
      </trkpt>
      <trkpt lat="45.0179" lon="6.1132">
        <ele>1916.8</ele>
        <time>2022-12-29T11:26:45Z</time>
      </trkpt>
      <trkpt lat="45.0179" lon="6.11319">
        <ele>1918.4</ele>
        <time>2022-12-29T11:26:46Z</time>
      </trkpt>
      <trkpt lat="45.01789" lon="6.11319">
        <ele>1918.4</ele>
        <time>2022-12-29T11:26:47Z</time>
      </trkpt>
      <trkpt lat="45.01788" lon="6.11318">
        <ele>1918.4</ele>
        <time>2022-12-29T11:26:48Z</time>
      </trkpt>
      <trkpt lat="45.01788" lon="6.11318">
        <ele>1918.4</ele>
        <time>2022-12-29T11:26:49Z</time>
      </trkpt>
      <trkpt lat="45.01787" lon="6.11317">
        <ele>1918.4</ele>
        <time>2022-12-29T11:26:50Z</time>
      </trkpt>
      <trkpt lat="45.01786" lon="6.11317">
        <ele>1918.4</ele>
        <time>2022-12-29T11:26:51Z</time>
      </trkpt>
      <trkpt lat="45.01786" lon="6.11316">
        <ele>1918.4</ele>
        <time>2022-12-29T11:26:52Z</time>
      </trkpt>
      <trkpt lat="45.01785" lon="6.11316">
        <ele>1918.4</ele>
        <time>2022-12-29T11:26:53Z</time>
      </trkpt>
      <trkpt lat="45.01784" lon="6.11315">
        <ele>1918.4</ele>
        <time>2022-12-29T11:26:54Z</time>
      </trkpt>
      <trkpt lat="45.01784" lon="6.11314">
        <ele>1918.4</ele>
        <time>2022-12-29T11:26:55Z</time>
      </trkpt>
      <trkpt lat="45.01783" lon="6.11314">
        <ele>1920</ele>
        <time>2022-12-29T11:26:56Z</time>
      </trkpt>
      <trkpt lat="45.01783" lon="6.11314">
        <ele>1920</ele>
        <time>2022-12-29T11:26:57Z</time>
      </trkpt>
      <trkpt lat="45.01783" lon="6.11314">
        <ele>1920</ele>
        <time>2022-12-29T11:26:58Z</time>
      </trkpt>
      <trkpt lat="45.01781" lon="6.11313">
        <ele>1920</ele>
        <time>2022-12-29T11:26:59Z</time>
      </trkpt>
      <trkpt lat="45.01781" lon="6.11313">
        <ele>1920</ele>
        <time>2022-12-29T11:27:00Z</time>
      </trkpt>
      <trkpt lat="45.01781" lon="6.11313">
        <ele>1920</ele>
        <time>2022-12-29T11:27:01Z</time>
      </trkpt>
      <trkpt lat="45.0178" lon="6.11311">
        <ele>1920</ele>
        <time>2022-12-29T11:27:02Z</time>
      </trkpt>
      <trkpt lat="45.0178" lon="6.11311">
        <ele>1920</ele>
        <time>2022-12-29T11:27:03Z</time>
      </trkpt>
      <trkpt lat="45.0178" lon="6.11311">
        <ele>1920</ele>
        <time>2022-12-29T11:27:04Z</time>
      </trkpt>
      <trkpt lat="45.0178" lon="6.11311">
        <ele>1920</ele>
        <time>2022-12-29T11:27:05Z</time>
      </trkpt>
      <trkpt lat="45.0178" lon="6.11311">
        <ele>1922.4</ele>
        <time>2022-12-29T11:27:06Z</time>
      </trkpt>
      <trkpt lat="45.0178" lon="6.11311">
        <ele>1922.4</ele>
        <time>2022-12-29T11:27:07Z</time>
      </trkpt>
      <trkpt lat="45.01781" lon="6.11311">
        <ele>1922.4</ele>
        <time>2022-12-29T11:27:08Z</time>
      </trkpt>
      <trkpt lat="45.01782" lon="6.11311">
        <ele>1922.4</ele>
        <time>2022-12-29T11:27:09Z</time>
      </trkpt>
      <trkpt lat="45.01782" lon="6.1131">
        <ele>1922.4</ele>
        <time>2022-12-29T11:27:10Z</time>
      </trkpt>
      <trkpt lat="45.01783" lon="6.1131">
        <ele>1922.4</ele>
        <time>2022-12-29T11:27:11Z</time>
      </trkpt>
      <trkpt lat="45.01784" lon="6.1131">
        <ele>1922.4</ele>
        <time>2022-12-29T11:27:12Z</time>
      </trkpt>
      <trkpt lat="45.01784" lon="6.1131">
        <ele>1922.4</ele>
        <time>2022-12-29T11:27:13Z</time>
      </trkpt>
      <trkpt lat="45.01785" lon="6.11309">
        <ele>1922.4</ele>
        <time>2022-12-29T11:27:14Z</time>
      </trkpt>
      <trkpt lat="45.01786" lon="6.11309">
        <ele>1922.4</ele>
        <time>2022-12-29T11:27:15Z</time>
      </trkpt>
      <trkpt lat="45.01787" lon="6.11309">
        <ele>1924.6</ele>
        <time>2022-12-29T11:27:16Z</time>
      </trkpt>
      <trkpt lat="45.01787" lon="6.11309">
        <ele>1924.6</ele>
        <time>2022-12-29T11:27:17Z</time>
      </trkpt>
      <trkpt lat="45.01788" lon="6.11308">
        <ele>1924.6</ele>
        <time>2022-12-29T11:27:18Z</time>
      </trkpt>
      <trkpt lat="45.01789" lon="6.11308">
        <ele>1924.6</ele>
        <time>2022-12-29T11:27:19Z</time>
      </trkpt>
      <trkpt lat="45.0179" lon="6.11307">
        <ele>1924.6</ele>
        <time>2022-12-29T11:27:20Z</time>
      </trkpt>
      <trkpt lat="45.01791" lon="6.11307">
        <ele>1924.6</ele>
        <time>2022-12-29T11:27:21Z</time>
      </trkpt>
      <trkpt lat="45.01791" lon="6.11307">
        <ele>1924.6</ele>
        <time>2022-12-29T11:27:22Z</time>
      </trkpt>
      <trkpt lat="45.01792" lon="6.11306">
        <ele>1924.6</ele>
        <time>2022-12-29T11:27:23Z</time>
      </trkpt>
      <trkpt lat="45.01793" lon="6.11306">
        <ele>1924.6</ele>
        <time>2022-12-29T11:27:24Z</time>
      </trkpt>
      <trkpt lat="45.01794" lon="6.11306">
        <ele>1924.6</ele>
        <time>2022-12-29T11:27:25Z</time>
      </trkpt>
      <trkpt lat="45.01795" lon="6.11305">
        <ele>1926.2</ele>
        <time>2022-12-29T11:27:26Z</time>
      </trkpt>
      <trkpt lat="45.01798" lon="6.11305">
        <ele>1926.2</ele>
        <time>2022-12-29T11:27:27Z</time>
      </trkpt>
      <trkpt lat="45.01798" lon="6.11304">
        <ele>1926.2</ele>
        <time>2022-12-29T11:27:28Z</time>
      </trkpt>
      <trkpt lat="45.01799" lon="6.11304">
        <ele>1926.2</ele>
        <time>2022-12-29T11:27:29Z</time>
      </trkpt>
      <trkpt lat="45.018" lon="6.11304">
        <ele>1926.2</ele>
        <time>2022-12-29T11:27:30Z</time>
      </trkpt>
      <trkpt lat="45.018" lon="6.11304">
        <ele>1926.2</ele>
        <time>2022-12-29T11:27:31Z</time>
      </trkpt>
      <trkpt lat="45.01801" lon="6.11304">
        <ele>1926.2</ele>
        <time>2022-12-29T11:27:32Z</time>
      </trkpt>
      <trkpt lat="45.01802" lon="6.11304">
        <ele>1926.2</ele>
        <time>2022-12-29T11:27:33Z</time>
      </trkpt>
      <trkpt lat="45.01802" lon="6.11304">
        <ele>1926.2</ele>
        <time>2022-12-29T11:27:34Z</time>
      </trkpt>
      <trkpt lat="45.01803" lon="6.11304">
        <ele>1926.2</ele>
        <time>2022-12-29T11:27:35Z</time>
      </trkpt>
      <trkpt lat="45.01804" lon="6.11304">
        <ele>1927.8</ele>
        <time>2022-12-29T11:27:36Z</time>
      </trkpt>
      <trkpt lat="45.01804" lon="6.11303">
        <ele>1927.8</ele>
        <time>2022-12-29T11:27:37Z</time>
      </trkpt>
      <trkpt lat="45.01805" lon="6.11303">
        <ele>1927.8</ele>
        <time>2022-12-29T11:27:38Z</time>
      </trkpt>
      <trkpt lat="45.01806" lon="6.11303">
        <ele>1927.8</ele>
        <time>2022-12-29T11:27:39Z</time>
      </trkpt>
      <trkpt lat="45.01806" lon="6.11302">
        <ele>1927.8</ele>
        <time>2022-12-29T11:27:40Z</time>
      </trkpt>
      <trkpt lat="45.01807" lon="6.11302">
        <ele>1927.8</ele>
        <time>2022-12-29T11:27:41Z</time>
      </trkpt>
      <trkpt lat="45.01808" lon="6.11302">
        <ele>1927.8</ele>
        <time>2022-12-29T11:27:42Z</time>
      </trkpt>
      <trkpt lat="45.01808" lon="6.11301">
        <ele>1927.8</ele>
        <time>2022-12-29T11:27:43Z</time>
      </trkpt>
      <trkpt lat="45.01809" lon="6.11301">
        <ele>1927.8</ele>
        <time>2022-12-29T11:27:44Z</time>
      </trkpt>
      <trkpt lat="45.0181" lon="6.11301">
        <ele>1927.8</ele>
        <time>2022-12-29T11:27:45Z</time>
      </trkpt>
      <trkpt lat="45.01811" lon="6.11301">
        <ele>1929</ele>
        <time>2022-12-29T11:27:46Z</time>
      </trkpt>
      <trkpt lat="45.01813" lon="6.11299">
        <ele>1929</ele>
        <time>2022-12-29T11:27:47Z</time>
      </trkpt>
      <trkpt lat="45.01814" lon="6.11299">
        <ele>1929</ele>
        <time>2022-12-29T11:27:48Z</time>
      </trkpt>
      <trkpt lat="45.01815" lon="6.11299">
        <ele>1929</ele>
        <time>2022-12-29T11:27:49Z</time>
      </trkpt>
      <trkpt lat="45.01815" lon="6.11299">
        <ele>1929</ele>
        <time>2022-12-29T11:27:50Z</time>
      </trkpt>
      <trkpt lat="45.01816" lon="6.11299">
        <ele>1929</ele>
        <time>2022-12-29T11:27:51Z</time>
      </trkpt>
      <trkpt lat="45.01816" lon="6.11298">
        <ele>1929</ele>
        <time>2022-12-29T11:27:52Z</time>
      </trkpt>
      <trkpt lat="45.01817" lon="6.11298">
        <ele>1929</ele>
        <time>2022-12-29T11:27:53Z</time>
      </trkpt>
      <trkpt lat="45.01817" lon="6.11298">
        <ele>1929</ele>
        <time>2022-12-29T11:27:54Z</time>
      </trkpt>
      <trkpt lat="45.01818" lon="6.11298">
        <ele>1929</ele>
        <time>2022-12-29T11:27:55Z</time>
      </trkpt>
      <trkpt lat="45.01819" lon="6.11298">
        <ele>1930.8</ele>
        <time>2022-12-29T11:27:56Z</time>
      </trkpt>
      <trkpt lat="45.01819" lon="6.11297">
        <ele>1930.8</ele>
        <time>2022-12-29T11:27:57Z</time>
      </trkpt>
      <trkpt lat="45.0182" lon="6.11297">
        <ele>1930.8</ele>
        <time>2022-12-29T11:27:58Z</time>
      </trkpt>
      <trkpt lat="45.01821" lon="6.11297">
        <ele>1930.8</ele>
        <time>2022-12-29T11:27:59Z</time>
      </trkpt>
      <trkpt lat="45.01821" lon="6.11296">
        <ele>1930.8</ele>
        <time>2022-12-29T11:28:00Z</time>
      </trkpt>
      <trkpt lat="45.01822" lon="6.11296">
        <ele>1930.8</ele>
        <time>2022-12-29T11:28:01Z</time>
      </trkpt>
      <trkpt lat="45.01822" lon="6.11296">
        <ele>1930.8</ele>
        <time>2022-12-29T11:28:02Z</time>
      </trkpt>
      <trkpt lat="45.01823" lon="6.11296">
        <ele>1930.8</ele>
        <time>2022-12-29T11:28:03Z</time>
      </trkpt>
      <trkpt lat="45.01824" lon="6.11295">
        <ele>1930.8</ele>
        <time>2022-12-29T11:28:04Z</time>
      </trkpt>
      <trkpt lat="45.01824" lon="6.11295">
        <ele>1930.8</ele>
        <time>2022-12-29T11:28:05Z</time>
      </trkpt>
      <trkpt lat="45.01825" lon="6.11295">
        <ele>1932.6</ele>
        <time>2022-12-29T11:28:06Z</time>
      </trkpt>
      <trkpt lat="45.01826" lon="6.11294">
        <ele>1932.6</ele>
        <time>2022-12-29T11:28:07Z</time>
      </trkpt>
      <trkpt lat="45.01826" lon="6.11294">
        <ele>1932.6</ele>
        <time>2022-12-29T11:28:08Z</time>
      </trkpt>
      <trkpt lat="45.01827" lon="6.11293">
        <ele>1932.6</ele>
        <time>2022-12-29T11:28:09Z</time>
      </trkpt>
      <trkpt lat="45.01827" lon="6.11293">
        <ele>1932.6</ele>
        <time>2022-12-29T11:28:10Z</time>
      </trkpt>
      <trkpt lat="45.01828" lon="6.11293">
        <ele>1932.6</ele>
        <time>2022-12-29T11:28:11Z</time>
      </trkpt>
      <trkpt lat="45.01828" lon="6.11292">
        <ele>1932.6</ele>
        <time>2022-12-29T11:28:12Z</time>
      </trkpt>
      <trkpt lat="45.01829" lon="6.11292">
        <ele>1932.6</ele>
        <time>2022-12-29T11:28:13Z</time>
      </trkpt>
      <trkpt lat="45.0183" lon="6.11291">
        <ele>1932.6</ele>
        <time>2022-12-29T11:28:14Z</time>
      </trkpt>
      <trkpt lat="45.0183" lon="6.11291">
        <ele>1932.6</ele>
        <time>2022-12-29T11:28:15Z</time>
      </trkpt>
      <trkpt lat="45.01831" lon="6.11291">
        <ele>1934.2</ele>
        <time>2022-12-29T11:28:16Z</time>
      </trkpt>
      <trkpt lat="45.01831" lon="6.1129">
        <ele>1934.2</ele>
        <time>2022-12-29T11:28:17Z</time>
      </trkpt>
      <trkpt lat="45.01832" lon="6.1129">
        <ele>1934.2</ele>
        <time>2022-12-29T11:28:18Z</time>
      </trkpt>
      <trkpt lat="45.01832" lon="6.1129">
        <ele>1934.2</ele>
        <time>2022-12-29T11:28:19Z</time>
      </trkpt>
      <trkpt lat="45.01833" lon="6.11289">
        <ele>1934.2</ele>
        <time>2022-12-29T11:28:20Z</time>
      </trkpt>
      <trkpt lat="45.01834" lon="6.11289">
        <ele>1934.2</ele>
        <time>2022-12-29T11:28:21Z</time>
      </trkpt>
      <trkpt lat="45.01834" lon="6.11288">
        <ele>1934.2</ele>
        <time>2022-12-29T11:28:22Z</time>
      </trkpt>
      <trkpt lat="45.01835" lon="6.11288">
        <ele>1934.2</ele>
        <time>2022-12-29T11:28:23Z</time>
      </trkpt>
      <trkpt lat="45.01835" lon="6.11288">
        <ele>1934.2</ele>
        <time>2022-12-29T11:28:24Z</time>
      </trkpt>
      <trkpt lat="45.01836" lon="6.11287">
        <ele>1934.2</ele>
        <time>2022-12-29T11:28:25Z</time>
      </trkpt>
      <trkpt lat="45.01837" lon="6.11287">
        <ele>1935.8</ele>
        <time>2022-12-29T11:28:26Z</time>
      </trkpt>
      <trkpt lat="45.01837" lon="6.11286">
        <ele>1935.8</ele>
        <time>2022-12-29T11:28:27Z</time>
      </trkpt>
      <trkpt lat="45.01837" lon="6.11286">
        <ele>1935.8</ele>
        <time>2022-12-29T11:28:28Z</time>
      </trkpt>
      <trkpt lat="45.01838" lon="6.11286">
        <ele>1935.8</ele>
        <time>2022-12-29T11:28:29Z</time>
      </trkpt>
      <trkpt lat="45.01838" lon="6.11285">
        <ele>1935.8</ele>
        <time>2022-12-29T11:28:30Z</time>
      </trkpt>
      <trkpt lat="45.01839" lon="6.11285">
        <ele>1935.8</ele>
        <time>2022-12-29T11:28:31Z</time>
      </trkpt>
      <trkpt lat="45.01839" lon="6.11284">
        <ele>1935.8</ele>
        <time>2022-12-29T11:28:32Z</time>
      </trkpt>
      <trkpt lat="45.0184" lon="6.11284">
        <ele>1935.8</ele>
        <time>2022-12-29T11:28:34Z</time>
      </trkpt>
      <trkpt lat="45.0184" lon="6.11284">
        <ele>1935.8</ele>
        <time>2022-12-29T11:28:35Z</time>
      </trkpt>
      <trkpt lat="45.0184" lon="6.11283">
        <ele>1937.4</ele>
        <time>2022-12-29T11:28:36Z</time>
      </trkpt>
      <trkpt lat="45.0184" lon="6.11283">
        <ele>1937.4</ele>
        <time>2022-12-29T11:28:37Z</time>
      </trkpt>
      <trkpt lat="45.0184" lon="6.11283">
        <ele>1937.4</ele>
        <time>2022-12-29T11:28:38Z</time>
      </trkpt>
      <trkpt lat="45.0184" lon="6.11283">
        <ele>1937.4</ele>
        <time>2022-12-29T11:28:39Z</time>
      </trkpt>
      <trkpt lat="45.01839" lon="6.11282">
        <ele>1937.4</ele>
        <time>2022-12-29T11:28:40Z</time>
      </trkpt>
      <trkpt lat="45.01839" lon="6.11282">
        <ele>1937.4</ele>
        <time>2022-12-29T11:28:41Z</time>
      </trkpt>
      <trkpt lat="45.01839" lon="6.11282">
        <ele>1937.4</ele>
        <time>2022-12-29T11:28:42Z</time>
      </trkpt>
      <trkpt lat="45.01838" lon="6.11282">
        <ele>1937.4</ele>
        <time>2022-12-29T11:28:43Z</time>
      </trkpt>
      <trkpt lat="45.01838" lon="6.11281">
        <ele>1937.4</ele>
        <time>2022-12-29T11:28:44Z</time>
      </trkpt>
      <trkpt lat="45.01838" lon="6.11281">
        <ele>1937.4</ele>
        <time>2022-12-29T11:28:45Z</time>
      </trkpt>
      <trkpt lat="45.01837" lon="6.11281">
        <ele>1938.6</ele>
        <time>2022-12-29T11:28:46Z</time>
      </trkpt>
      <trkpt lat="45.01837" lon="6.11281">
        <ele>1938.6</ele>
        <time>2022-12-29T11:28:47Z</time>
      </trkpt>
      <trkpt lat="45.01837" lon="6.11281">
        <ele>1938.6</ele>
        <time>2022-12-29T11:28:48Z</time>
      </trkpt>
      <trkpt lat="45.01837" lon="6.1128">
        <ele>1938.6</ele>
        <time>2022-12-29T11:28:49Z</time>
      </trkpt>
      <trkpt lat="45.01836" lon="6.1128">
        <ele>1938.6</ele>
        <time>2022-12-29T11:28:50Z</time>
      </trkpt>
      <trkpt lat="45.01836" lon="6.1128">
        <ele>1938.6</ele>
        <time>2022-12-29T11:28:51Z</time>
      </trkpt>
      <trkpt lat="45.01836" lon="6.1128">
        <ele>1938.6</ele>
        <time>2022-12-29T11:28:52Z</time>
      </trkpt>
      <trkpt lat="45.01835" lon="6.11279">
        <ele>1938.6</ele>
        <time>2022-12-29T11:28:53Z</time>
      </trkpt>
      <trkpt lat="45.01835" lon="6.11279">
        <ele>1938.6</ele>
        <time>2022-12-29T11:28:54Z</time>
      </trkpt>
      <trkpt lat="45.01835" lon="6.11279">
        <ele>1938.6</ele>
        <time>2022-12-29T11:28:55Z</time>
      </trkpt>
      <trkpt lat="45.01835" lon="6.11279">
        <ele>1939.4</ele>
        <time>2022-12-29T11:28:56Z</time>
      </trkpt>
      <trkpt lat="45.01834" lon="6.11278">
        <ele>1939.4</ele>
        <time>2022-12-29T11:28:57Z</time>
      </trkpt>
      <trkpt lat="45.01834" lon="6.11278">
        <ele>1939.4</ele>
        <time>2022-12-29T11:28:58Z</time>
      </trkpt>
      <trkpt lat="45.01833" lon="6.11277">
        <ele>1939.4</ele>
        <time>2022-12-29T11:28:59Z</time>
      </trkpt>
      <trkpt lat="45.01832" lon="6.11277">
        <ele>1939.4</ele>
        <time>2022-12-29T11:29:00Z</time>
      </trkpt>
      <trkpt lat="45.01832" lon="6.11277">
        <ele>1939.4</ele>
        <time>2022-12-29T11:29:01Z</time>
      </trkpt>
      <trkpt lat="45.01831" lon="6.11276">
        <ele>1939.4</ele>
        <time>2022-12-29T11:29:02Z</time>
      </trkpt>
      <trkpt lat="45.01831" lon="6.11276">
        <ele>1939.4</ele>
        <time>2022-12-29T11:29:03Z</time>
      </trkpt>
      <trkpt lat="45.0183" lon="6.11275">
        <ele>1939.4</ele>
        <time>2022-12-29T11:29:04Z</time>
      </trkpt>
      <trkpt lat="45.0183" lon="6.11275">
        <ele>1939.4</ele>
        <time>2022-12-29T11:29:05Z</time>
      </trkpt>
      <trkpt lat="45.01829" lon="6.11274">
        <ele>1941.6</ele>
        <time>2022-12-29T11:29:06Z</time>
      </trkpt>
      <trkpt lat="45.01826" lon="6.11273">
        <ele>1941.6</ele>
        <time>2022-12-29T11:29:07Z</time>
      </trkpt>
      <trkpt lat="45.01826" lon="6.11273">
        <ele>1941.6</ele>
        <time>2022-12-29T11:29:08Z</time>
      </trkpt>
      <trkpt lat="45.01825" lon="6.11272">
        <ele>1941.6</ele>
        <time>2022-12-29T11:29:09Z</time>
      </trkpt>
      <trkpt lat="45.01825" lon="6.11271">
        <ele>1941.6</ele>
        <time>2022-12-29T11:29:10Z</time>
      </trkpt>
      <trkpt lat="45.01824" lon="6.11271">
        <ele>1941.6</ele>
        <time>2022-12-29T11:29:11Z</time>
      </trkpt>
      <trkpt lat="45.01824" lon="6.1127">
        <ele>1941.6</ele>
        <time>2022-12-29T11:29:12Z</time>
      </trkpt>
      <trkpt lat="45.01823" lon="6.1127">
        <ele>1941.6</ele>
        <time>2022-12-29T11:29:13Z</time>
      </trkpt>
      <trkpt lat="45.01823" lon="6.11269">
        <ele>1941.6</ele>
        <time>2022-12-29T11:29:14Z</time>
      </trkpt>
      <trkpt lat="45.01822" lon="6.11269">
        <ele>1941.6</ele>
        <time>2022-12-29T11:29:15Z</time>
      </trkpt>
      <trkpt lat="45.01821" lon="6.11268">
        <ele>1943.6</ele>
        <time>2022-12-29T11:29:16Z</time>
      </trkpt>
      <trkpt lat="45.01821" lon="6.11268">
        <ele>1943.6</ele>
        <time>2022-12-29T11:29:17Z</time>
      </trkpt>
      <trkpt lat="45.0182" lon="6.11267">
        <ele>1943.6</ele>
        <time>2022-12-29T11:29:18Z</time>
      </trkpt>
      <trkpt lat="45.0182" lon="6.11267">
        <ele>1943.6</ele>
        <time>2022-12-29T11:29:19Z</time>
      </trkpt>
      <trkpt lat="45.01819" lon="6.11266">
        <ele>1943.6</ele>
        <time>2022-12-29T11:29:20Z</time>
      </trkpt>
      <trkpt lat="45.01819" lon="6.11265">
        <ele>1943.6</ele>
        <time>2022-12-29T11:29:21Z</time>
      </trkpt>
      <trkpt lat="45.01818" lon="6.11265">
        <ele>1943.6</ele>
        <time>2022-12-29T11:29:22Z</time>
      </trkpt>
      <trkpt lat="45.01818" lon="6.11264">
        <ele>1943.6</ele>
        <time>2022-12-29T11:29:23Z</time>
      </trkpt>
      <trkpt lat="45.01817" lon="6.11264">
        <ele>1943.6</ele>
        <time>2022-12-29T11:29:24Z</time>
      </trkpt>
      <trkpt lat="45.01817" lon="6.11263">
        <ele>1943.6</ele>
        <time>2022-12-29T11:29:25Z</time>
      </trkpt>
      <trkpt lat="45.01816" lon="6.11263">
        <ele>1945.8</ele>
        <time>2022-12-29T11:29:26Z</time>
      </trkpt>
      <trkpt lat="45.01814" lon="6.11261">
        <ele>1945.8</ele>
        <time>2022-12-29T11:29:27Z</time>
      </trkpt>
      <trkpt lat="45.01814" lon="6.1126">
        <ele>1945.8</ele>
        <time>2022-12-29T11:29:28Z</time>
      </trkpt>
      <trkpt lat="45.01814" lon="6.1126">
        <ele>1945.8</ele>
        <time>2022-12-29T11:29:29Z</time>
      </trkpt>
      <trkpt lat="45.01813" lon="6.11259">
        <ele>1945.8</ele>
        <time>2022-12-29T11:29:30Z</time>
      </trkpt>
      <trkpt lat="45.01813" lon="6.11258">
        <ele>1945.8</ele>
        <time>2022-12-29T11:29:31Z</time>
      </trkpt>
      <trkpt lat="45.01812" lon="6.11257">
        <ele>1945.8</ele>
        <time>2022-12-29T11:29:32Z</time>
      </trkpt>
      <trkpt lat="45.01812" lon="6.11257">
        <ele>1945.8</ele>
        <time>2022-12-29T11:29:33Z</time>
      </trkpt>
      <trkpt lat="45.01811" lon="6.11256">
        <ele>1945.8</ele>
        <time>2022-12-29T11:29:34Z</time>
      </trkpt>
      <trkpt lat="45.01811" lon="6.11255">
        <ele>1945.8</ele>
        <time>2022-12-29T11:29:35Z</time>
      </trkpt>
      <trkpt lat="45.01811" lon="6.11255">
        <ele>1947.4</ele>
        <time>2022-12-29T11:29:36Z</time>
      </trkpt>
      <trkpt lat="45.0181" lon="6.11254">
        <ele>1947.4</ele>
        <time>2022-12-29T11:29:37Z</time>
      </trkpt>
      <trkpt lat="45.0181" lon="6.11253">
        <ele>1947.4</ele>
        <time>2022-12-29T11:29:38Z</time>
      </trkpt>
      <trkpt lat="45.0181" lon="6.11252">
        <ele>1947.4</ele>
        <time>2022-12-29T11:29:39Z</time>
      </trkpt>
      <trkpt lat="45.01809" lon="6.11252">
        <ele>1947.4</ele>
        <time>2022-12-29T11:29:40Z</time>
      </trkpt>
      <trkpt lat="45.01809" lon="6.11251">
        <ele>1947.4</ele>
        <time>2022-12-29T11:29:41Z</time>
      </trkpt>
      <trkpt lat="45.01809" lon="6.1125">
        <ele>1947.4</ele>
        <time>2022-12-29T11:29:42Z</time>
      </trkpt>
      <trkpt lat="45.01808" lon="6.11249">
        <ele>1947.4</ele>
        <time>2022-12-29T11:29:43Z</time>
      </trkpt>
      <trkpt lat="45.01808" lon="6.11248">
        <ele>1947.4</ele>
        <time>2022-12-29T11:29:44Z</time>
      </trkpt>
      <trkpt lat="45.01808" lon="6.11248">
        <ele>1947.4</ele>
        <time>2022-12-29T11:29:45Z</time>
      </trkpt>
      <trkpt lat="45.01807" lon="6.11247">
        <ele>1948.8</ele>
        <time>2022-12-29T11:29:46Z</time>
      </trkpt>
      <trkpt lat="45.01807" lon="6.11246">
        <ele>1948.8</ele>
        <time>2022-12-29T11:29:47Z</time>
      </trkpt>
      <trkpt lat="45.01807" lon="6.11245">
        <ele>1948.8</ele>
        <time>2022-12-29T11:29:48Z</time>
      </trkpt>
      <trkpt lat="45.01806" lon="6.11245">
        <ele>1948.8</ele>
        <time>2022-12-29T11:29:49Z</time>
      </trkpt>
      <trkpt lat="45.01806" lon="6.11244">
        <ele>1948.8</ele>
        <time>2022-12-29T11:29:50Z</time>
      </trkpt>
      <trkpt lat="45.01806" lon="6.11243">
        <ele>1948.8</ele>
        <time>2022-12-29T11:29:51Z</time>
      </trkpt>
      <trkpt lat="45.01805" lon="6.11242">
        <ele>1948.8</ele>
        <time>2022-12-29T11:29:52Z</time>
      </trkpt>
      <trkpt lat="45.01805" lon="6.11242">
        <ele>1948.8</ele>
        <time>2022-12-29T11:29:53Z</time>
      </trkpt>
      <trkpt lat="45.01805" lon="6.11241">
        <ele>1948.8</ele>
        <time>2022-12-29T11:29:54Z</time>
      </trkpt>
      <trkpt lat="45.01804" lon="6.1124">
        <ele>1948.8</ele>
        <time>2022-12-29T11:29:55Z</time>
      </trkpt>
      <trkpt lat="45.01804" lon="6.11239">
        <ele>1950</ele>
        <time>2022-12-29T11:29:56Z</time>
      </trkpt>
      <trkpt lat="45.01803" lon="6.11235">
        <ele>1950</ele>
        <time>2022-12-29T11:29:57Z</time>
      </trkpt>
      <trkpt lat="45.01802" lon="6.11235">
        <ele>1950</ele>
        <time>2022-12-29T11:29:58Z</time>
      </trkpt>
      <trkpt lat="45.01802" lon="6.11234">
        <ele>1950</ele>
        <time>2022-12-29T11:29:59Z</time>
      </trkpt>
      <trkpt lat="45.01801" lon="6.11233">
        <ele>1950</ele>
        <time>2022-12-29T11:30:00Z</time>
      </trkpt>
      <trkpt lat="45.01801" lon="6.11232">
        <ele>1950</ele>
        <time>2022-12-29T11:30:01Z</time>
      </trkpt>
      <trkpt lat="45.01801" lon="6.11232">
        <ele>1950</ele>
        <time>2022-12-29T11:30:02Z</time>
      </trkpt>
      <trkpt lat="45.018" lon="6.11231">
        <ele>1950</ele>
        <time>2022-12-29T11:30:03Z</time>
      </trkpt>
      <trkpt lat="45.018" lon="6.1123">
        <ele>1950</ele>
        <time>2022-12-29T11:30:04Z</time>
      </trkpt>
      <trkpt lat="45.01799" lon="6.11229">
        <ele>1950</ele>
        <time>2022-12-29T11:30:05Z</time>
      </trkpt>
      <trkpt lat="45.01799" lon="6.11228">
        <ele>1951</ele>
        <time>2022-12-29T11:30:06Z</time>
      </trkpt>
      <trkpt lat="45.01799" lon="6.11228">
        <ele>1951</ele>
        <time>2022-12-29T11:30:07Z</time>
      </trkpt>
      <trkpt lat="45.01798" lon="6.11227">
        <ele>1951</ele>
        <time>2022-12-29T11:30:08Z</time>
      </trkpt>
      <trkpt lat="45.01797" lon="6.11226">
        <ele>1951</ele>
        <time>2022-12-29T11:30:09Z</time>
      </trkpt>
      <trkpt lat="45.01797" lon="6.11225">
        <ele>1951</ele>
        <time>2022-12-29T11:30:10Z</time>
      </trkpt>
      <trkpt lat="45.01796" lon="6.11224">
        <ele>1951</ele>
        <time>2022-12-29T11:30:11Z</time>
      </trkpt>
      <trkpt lat="45.01796" lon="6.11223">
        <ele>1951</ele>
        <time>2022-12-29T11:30:12Z</time>
      </trkpt>
      <trkpt lat="45.01795" lon="6.11222">
        <ele>1951</ele>
        <time>2022-12-29T11:30:13Z</time>
      </trkpt>
      <trkpt lat="45.01794" lon="6.11222">
        <ele>1951</ele>
        <time>2022-12-29T11:30:14Z</time>
      </trkpt>
      <trkpt lat="45.01794" lon="6.11221">
        <ele>1951</ele>
        <time>2022-12-29T11:30:15Z</time>
      </trkpt>
      <trkpt lat="45.01793" lon="6.1122">
        <ele>1952.4</ele>
        <time>2022-12-29T11:30:16Z</time>
      </trkpt>
      <trkpt lat="45.01793" lon="6.11219">
        <ele>1952.4</ele>
        <time>2022-12-29T11:30:17Z</time>
      </trkpt>
      <trkpt lat="45.01792" lon="6.11219">
        <ele>1952.4</ele>
        <time>2022-12-29T11:30:18Z</time>
      </trkpt>
      <trkpt lat="45.01792" lon="6.11218">
        <ele>1952.4</ele>
        <time>2022-12-29T11:30:19Z</time>
      </trkpt>
      <trkpt lat="45.01791" lon="6.11218">
        <ele>1952.4</ele>
        <time>2022-12-29T11:30:20Z</time>
      </trkpt>
      <trkpt lat="45.01791" lon="6.11217">
        <ele>1952.4</ele>
        <time>2022-12-29T11:30:21Z</time>
      </trkpt>
      <trkpt lat="45.0179" lon="6.11216">
        <ele>1952.4</ele>
        <time>2022-12-29T11:30:22Z</time>
      </trkpt>
      <trkpt lat="45.0179" lon="6.11216">
        <ele>1952.4</ele>
        <time>2022-12-29T11:30:23Z</time>
      </trkpt>
      <trkpt lat="45.01789" lon="6.11215">
        <ele>1952.4</ele>
        <time>2022-12-29T11:30:24Z</time>
      </trkpt>
      <trkpt lat="45.01788" lon="6.11215">
        <ele>1952.4</ele>
        <time>2022-12-29T11:30:25Z</time>
      </trkpt>
      <trkpt lat="45.01788" lon="6.11214">
        <ele>1954.4</ele>
        <time>2022-12-29T11:30:26Z</time>
      </trkpt>
      <trkpt lat="45.01787" lon="6.11214">
        <ele>1954.4</ele>
        <time>2022-12-29T11:30:27Z</time>
      </trkpt>
      <trkpt lat="45.01787" lon="6.11214">
        <ele>1954.4</ele>
        <time>2022-12-29T11:30:28Z</time>
      </trkpt>
      <trkpt lat="45.01786" lon="6.11213">
        <ele>1954.4</ele>
        <time>2022-12-29T11:30:29Z</time>
      </trkpt>
      <trkpt lat="45.01785" lon="6.11213">
        <ele>1954.4</ele>
        <time>2022-12-29T11:30:30Z</time>
      </trkpt>
      <trkpt lat="45.01785" lon="6.11212">
        <ele>1954.4</ele>
        <time>2022-12-29T11:30:31Z</time>
      </trkpt>
      <trkpt lat="45.01784" lon="6.11212">
        <ele>1954.4</ele>
        <time>2022-12-29T11:30:32Z</time>
      </trkpt>
      <trkpt lat="45.01784" lon="6.11212">
        <ele>1954.4</ele>
        <time>2022-12-29T11:30:33Z</time>
      </trkpt>
      <trkpt lat="45.01783" lon="6.11211">
        <ele>1954.4</ele>
        <time>2022-12-29T11:30:34Z</time>
      </trkpt>
      <trkpt lat="45.01782" lon="6.11211">
        <ele>1954.4</ele>
        <time>2022-12-29T11:30:35Z</time>
      </trkpt>
      <trkpt lat="45.01782" lon="6.11211">
        <ele>1955.8</ele>
        <time>2022-12-29T11:30:36Z</time>
      </trkpt>
      <trkpt lat="45.01781" lon="6.1121">
        <ele>1955.8</ele>
        <time>2022-12-29T11:30:37Z</time>
      </trkpt>
      <trkpt lat="45.01781" lon="6.1121">
        <ele>1955.8</ele>
        <time>2022-12-29T11:30:38Z</time>
      </trkpt>
      <trkpt lat="45.0178" lon="6.11209">
        <ele>1955.8</ele>
        <time>2022-12-29T11:30:39Z</time>
      </trkpt>
      <trkpt lat="45.0178" lon="6.11209">
        <ele>1955.8</ele>
        <time>2022-12-29T11:30:40Z</time>
      </trkpt>
      <trkpt lat="45.01779" lon="6.11208">
        <ele>1955.8</ele>
        <time>2022-12-29T11:30:41Z</time>
      </trkpt>
      <trkpt lat="45.01779" lon="6.11208">
        <ele>1955.8</ele>
        <time>2022-12-29T11:30:42Z</time>
      </trkpt>
      <trkpt lat="45.01778" lon="6.11207">
        <ele>1955.8</ele>
        <time>2022-12-29T11:30:43Z</time>
      </trkpt>
      <trkpt lat="45.01778" lon="6.11207">
        <ele>1955.8</ele>
        <time>2022-12-29T11:30:44Z</time>
      </trkpt>
      <trkpt lat="45.01777" lon="6.11206">
        <ele>1955.8</ele>
        <time>2022-12-29T11:30:45Z</time>
      </trkpt>
      <trkpt lat="45.01777" lon="6.11206">
        <ele>1957.6</ele>
        <time>2022-12-29T11:30:46Z</time>
      </trkpt>
      <trkpt lat="45.01775" lon="6.11203">
        <ele>1957.6</ele>
        <time>2022-12-29T11:30:47Z</time>
      </trkpt>
      <trkpt lat="45.01774" lon="6.11203">
        <ele>1957.6</ele>
        <time>2022-12-29T11:30:48Z</time>
      </trkpt>
      <trkpt lat="45.01774" lon="6.11202">
        <ele>1957.6</ele>
        <time>2022-12-29T11:30:49Z</time>
      </trkpt>
      <trkpt lat="45.01773" lon="6.11202">
        <ele>1957.6</ele>
        <time>2022-12-29T11:30:50Z</time>
      </trkpt>
      <trkpt lat="45.01773" lon="6.11202">
        <ele>1957.6</ele>
        <time>2022-12-29T11:30:51Z</time>
      </trkpt>
      <trkpt lat="45.01772" lon="6.11201">
        <ele>1957.6</ele>
        <time>2022-12-29T11:30:52Z</time>
      </trkpt>
      <trkpt lat="45.01771" lon="6.11201">
        <ele>1957.6</ele>
        <time>2022-12-29T11:30:53Z</time>
      </trkpt>
      <trkpt lat="45.01771" lon="6.11201">
        <ele>1957.6</ele>
        <time>2022-12-29T11:30:54Z</time>
      </trkpt>
      <trkpt lat="45.0177" lon="6.112">
        <ele>1957.6</ele>
        <time>2022-12-29T11:30:55Z</time>
      </trkpt>
      <trkpt lat="45.0177" lon="6.112">
        <ele>1959.2</ele>
        <time>2022-12-29T11:30:56Z</time>
      </trkpt>
      <trkpt lat="45.01769" lon="6.11199">
        <ele>1959.2</ele>
        <time>2022-12-29T11:30:57Z</time>
      </trkpt>
      <trkpt lat="45.01768" lon="6.11199">
        <ele>1959.2</ele>
        <time>2022-12-29T11:30:58Z</time>
      </trkpt>
      <trkpt lat="45.01768" lon="6.11199">
        <ele>1959.2</ele>
        <time>2022-12-29T11:30:59Z</time>
      </trkpt>
      <trkpt lat="45.01767" lon="6.11198">
        <ele>1959.2</ele>
        <time>2022-12-29T11:31:00Z</time>
      </trkpt>
      <trkpt lat="45.01767" lon="6.11198">
        <ele>1959.2</ele>
        <time>2022-12-29T11:31:01Z</time>
      </trkpt>
      <trkpt lat="45.01766" lon="6.11197">
        <ele>1959.2</ele>
        <time>2022-12-29T11:31:02Z</time>
      </trkpt>
      <trkpt lat="45.01765" lon="6.11197">
        <ele>1959.2</ele>
        <time>2022-12-29T11:31:03Z</time>
      </trkpt>
      <trkpt lat="45.01765" lon="6.11197">
        <ele>1959.2</ele>
        <time>2022-12-29T11:31:04Z</time>
      </trkpt>
      <trkpt lat="45.01764" lon="6.11196">
        <ele>1959.2</ele>
        <time>2022-12-29T11:31:05Z</time>
      </trkpt>
      <trkpt lat="45.01764" lon="6.11196">
        <ele>1960.8</ele>
        <time>2022-12-29T11:31:06Z</time>
      </trkpt>
      <trkpt lat="45.01763" lon="6.11196">
        <ele>1960.8</ele>
        <time>2022-12-29T11:31:07Z</time>
      </trkpt>
      <trkpt lat="45.01762" lon="6.11196">
        <ele>1960.8</ele>
        <time>2022-12-29T11:31:08Z</time>
      </trkpt>
      <trkpt lat="45.01762" lon="6.11195">
        <ele>1960.8</ele>
        <time>2022-12-29T11:31:09Z</time>
      </trkpt>
      <trkpt lat="45.01761" lon="6.11195">
        <ele>1960.8</ele>
        <time>2022-12-29T11:31:10Z</time>
      </trkpt>
      <trkpt lat="45.0176" lon="6.11195">
        <ele>1960.8</ele>
        <time>2022-12-29T11:31:11Z</time>
      </trkpt>
      <trkpt lat="45.0176" lon="6.11195">
        <ele>1960.8</ele>
        <time>2022-12-29T11:31:12Z</time>
      </trkpt>
      <trkpt lat="45.01759" lon="6.11195">
        <ele>1960.8</ele>
        <time>2022-12-29T11:31:13Z</time>
      </trkpt>
      <trkpt lat="45.01758" lon="6.11194">
        <ele>1960.8</ele>
        <time>2022-12-29T11:31:14Z</time>
      </trkpt>
      <trkpt lat="45.01758" lon="6.11194">
        <ele>1960.8</ele>
        <time>2022-12-29T11:31:15Z</time>
      </trkpt>
      <trkpt lat="45.01757" lon="6.11194">
        <ele>1962.4</ele>
        <time>2022-12-29T11:31:16Z</time>
      </trkpt>
      <trkpt lat="45.01756" lon="6.11194">
        <ele>1962.4</ele>
        <time>2022-12-29T11:31:17Z</time>
      </trkpt>
      <trkpt lat="45.01755" lon="6.11194">
        <ele>1962.4</ele>
        <time>2022-12-29T11:31:18Z</time>
      </trkpt>
      <trkpt lat="45.01755" lon="6.11193">
        <ele>1962.4</ele>
        <time>2022-12-29T11:31:19Z</time>
      </trkpt>
      <trkpt lat="45.01754" lon="6.11193">
        <ele>1962.4</ele>
        <time>2022-12-29T11:31:20Z</time>
      </trkpt>
      <trkpt lat="45.01753" lon="6.11193">
        <ele>1962.4</ele>
        <time>2022-12-29T11:31:21Z</time>
      </trkpt>
      <trkpt lat="45.01753" lon="6.11193">
        <ele>1962.4</ele>
        <time>2022-12-29T11:31:22Z</time>
      </trkpt>
      <trkpt lat="45.01752" lon="6.11193">
        <ele>1962.4</ele>
        <time>2022-12-29T11:31:23Z</time>
      </trkpt>
      <trkpt lat="45.01751" lon="6.11192">
        <ele>1962.4</ele>
        <time>2022-12-29T11:31:24Z</time>
      </trkpt>
      <trkpt lat="45.01751" lon="6.11192">
        <ele>1962.4</ele>
        <time>2022-12-29T11:31:25Z</time>
      </trkpt>
      <trkpt lat="45.0175" lon="6.11192">
        <ele>1964.2</ele>
        <time>2022-12-29T11:31:26Z</time>
      </trkpt>
      <trkpt lat="45.0175" lon="6.11192">
        <ele>1964.2</ele>
        <time>2022-12-29T11:31:27Z</time>
      </trkpt>
      <trkpt lat="45.0175" lon="6.11192">
        <ele>1964.2</ele>
        <time>2022-12-29T11:31:28Z</time>
      </trkpt>
      <trkpt lat="45.0175" lon="6.11192">
        <ele>1964.2</ele>
        <time>2022-12-29T11:31:29Z</time>
      </trkpt>
      <trkpt lat="45.0175" lon="6.11192">
        <ele>1964.2</ele>
        <time>2022-12-29T11:31:30Z</time>
      </trkpt>
      <trkpt lat="45.0175" lon="6.11192">
        <ele>1964.2</ele>
        <time>2022-12-29T11:31:31Z</time>
      </trkpt>
      <trkpt lat="45.0175" lon="6.11192">
        <ele>1964.2</ele>
        <time>2022-12-29T11:31:32Z</time>
      </trkpt>
      <trkpt lat="45.01751" lon="6.1119">
        <ele>1964.2</ele>
        <time>2022-12-29T11:31:33Z</time>
      </trkpt>
      <trkpt lat="45.01751" lon="6.1119">
        <ele>1964.2</ele>
        <time>2022-12-29T11:31:34Z</time>
      </trkpt>
      <trkpt lat="45.01751" lon="6.1119">
        <ele>1964.2</ele>
        <time>2022-12-29T11:31:35Z</time>
      </trkpt>
      <trkpt lat="45.01752" lon="6.11188">
        <ele>1966.4</ele>
        <time>2022-12-29T11:31:36Z</time>
      </trkpt>
      <trkpt lat="45.01753" lon="6.11188">
        <ele>1966.4</ele>
        <time>2022-12-29T11:31:37Z</time>
      </trkpt>
      <trkpt lat="45.01753" lon="6.11187">
        <ele>1966.4</ele>
        <time>2022-12-29T11:31:38Z</time>
      </trkpt>
      <trkpt lat="45.01754" lon="6.11187">
        <ele>1966.4</ele>
        <time>2022-12-29T11:31:39Z</time>
      </trkpt>
      <trkpt lat="45.01754" lon="6.11186">
        <ele>1966.4</ele>
        <time>2022-12-29T11:31:40Z</time>
      </trkpt>
      <trkpt lat="45.01755" lon="6.11186">
        <ele>1966.4</ele>
        <time>2022-12-29T11:31:41Z</time>
      </trkpt>
      <trkpt lat="45.01756" lon="6.11186">
        <ele>1966.4</ele>
        <time>2022-12-29T11:31:42Z</time>
      </trkpt>
      <trkpt lat="45.01756" lon="6.11185">
        <ele>1966.4</ele>
        <time>2022-12-29T11:31:43Z</time>
      </trkpt>
      <trkpt lat="45.01757" lon="6.11185">
        <ele>1966.4</ele>
        <time>2022-12-29T11:31:44Z</time>
      </trkpt>
      <trkpt lat="45.01758" lon="6.11184">
        <ele>1966.4</ele>
        <time>2022-12-29T11:31:45Z</time>
      </trkpt>
      <trkpt lat="45.01758" lon="6.11184">
        <ele>1968.4</ele>
        <time>2022-12-29T11:31:46Z</time>
      </trkpt>
      <trkpt lat="45.01759" lon="6.11184">
        <ele>1968.4</ele>
        <time>2022-12-29T11:31:47Z</time>
      </trkpt>
      <trkpt lat="45.01759" lon="6.11183">
        <ele>1968.4</ele>
        <time>2022-12-29T11:31:48Z</time>
      </trkpt>
      <trkpt lat="45.0176" lon="6.11183">
        <ele>1968.4</ele>
        <time>2022-12-29T11:31:49Z</time>
      </trkpt>
      <trkpt lat="45.0176" lon="6.11182">
        <ele>1968.4</ele>
        <time>2022-12-29T11:31:50Z</time>
      </trkpt>
      <trkpt lat="45.01761" lon="6.11182">
        <ele>1968.4</ele>
        <time>2022-12-29T11:31:51Z</time>
      </trkpt>
      <trkpt lat="45.01762" lon="6.11181">
        <ele>1968.4</ele>
        <time>2022-12-29T11:31:52Z</time>
      </trkpt>
      <trkpt lat="45.01762" lon="6.11181">
        <ele>1968.4</ele>
        <time>2022-12-29T11:31:53Z</time>
      </trkpt>
      <trkpt lat="45.01763" lon="6.1118">
        <ele>1968.4</ele>
        <time>2022-12-29T11:31:54Z</time>
      </trkpt>
      <trkpt lat="45.01763" lon="6.1118">
        <ele>1968.4</ele>
        <time>2022-12-29T11:31:55Z</time>
      </trkpt>
      <trkpt lat="45.01764" lon="6.11179">
        <ele>1970</ele>
        <time>2022-12-29T11:31:56Z</time>
      </trkpt>
      <trkpt lat="45.01766" lon="6.11177">
        <ele>1970</ele>
        <time>2022-12-29T11:31:57Z</time>
      </trkpt>
      <trkpt lat="45.01767" lon="6.11176">
        <ele>1970</ele>
        <time>2022-12-29T11:31:58Z</time>
      </trkpt>
      <trkpt lat="45.01767" lon="6.11176">
        <ele>1970</ele>
        <time>2022-12-29T11:31:59Z</time>
      </trkpt>
      <trkpt lat="45.01768" lon="6.11176">
        <ele>1970</ele>
        <time>2022-12-29T11:32:00Z</time>
      </trkpt>
      <trkpt lat="45.01769" lon="6.11175">
        <ele>1970</ele>
        <time>2022-12-29T11:32:01Z</time>
      </trkpt>
      <trkpt lat="45.01769" lon="6.11175">
        <ele>1970</ele>
        <time>2022-12-29T11:32:02Z</time>
      </trkpt>
      <trkpt lat="45.0177" lon="6.11174">
        <ele>1970</ele>
        <time>2022-12-29T11:32:03Z</time>
      </trkpt>
      <trkpt lat="45.0177" lon="6.11174">
        <ele>1970</ele>
        <time>2022-12-29T11:32:04Z</time>
      </trkpt>
      <trkpt lat="45.01771" lon="6.11173">
        <ele>1970</ele>
        <time>2022-12-29T11:32:05Z</time>
      </trkpt>
      <trkpt lat="45.01771" lon="6.11173">
        <ele>1971.8</ele>
        <time>2022-12-29T11:32:06Z</time>
      </trkpt>
      <trkpt lat="45.01772" lon="6.11173">
        <ele>1971.8</ele>
        <time>2022-12-29T11:32:07Z</time>
      </trkpt>
      <trkpt lat="45.01772" lon="6.11172">
        <ele>1971.8</ele>
        <time>2022-12-29T11:32:08Z</time>
      </trkpt>
      <trkpt lat="45.01773" lon="6.11172">
        <ele>1971.8</ele>
        <time>2022-12-29T11:32:09Z</time>
      </trkpt>
      <trkpt lat="45.01774" lon="6.11172">
        <ele>1971.8</ele>
        <time>2022-12-29T11:32:10Z</time>
      </trkpt>
      <trkpt lat="45.01774" lon="6.11171">
        <ele>1971.8</ele>
        <time>2022-12-29T11:32:11Z</time>
      </trkpt>
      <trkpt lat="45.01775" lon="6.11171">
        <ele>1971.8</ele>
        <time>2022-12-29T11:32:12Z</time>
      </trkpt>
      <trkpt lat="45.01776" lon="6.1117">
        <ele>1971.8</ele>
        <time>2022-12-29T11:32:13Z</time>
      </trkpt>
      <trkpt lat="45.01776" lon="6.1117">
        <ele>1971.8</ele>
        <time>2022-12-29T11:32:14Z</time>
      </trkpt>
      <trkpt lat="45.01777" lon="6.1117">
        <ele>1971.8</ele>
        <time>2022-12-29T11:32:15Z</time>
      </trkpt>
      <trkpt lat="45.01777" lon="6.11169">
        <ele>1973.8</ele>
        <time>2022-12-29T11:32:16Z</time>
      </trkpt>
      <trkpt lat="45.01778" lon="6.11169">
        <ele>1973.8</ele>
        <time>2022-12-29T11:32:17Z</time>
      </trkpt>
      <trkpt lat="45.01778" lon="6.11169">
        <ele>1973.8</ele>
        <time>2022-12-29T11:32:18Z</time>
      </trkpt>
      <trkpt lat="45.01779" lon="6.11168">
        <ele>1973.8</ele>
        <time>2022-12-29T11:32:19Z</time>
      </trkpt>
      <trkpt lat="45.0178" lon="6.11168">
        <ele>1973.8</ele>
        <time>2022-12-29T11:32:20Z</time>
      </trkpt>
      <trkpt lat="45.0178" lon="6.11167">
        <ele>1973.8</ele>
        <time>2022-12-29T11:32:21Z</time>
      </trkpt>
      <trkpt lat="45.01781" lon="6.11167">
        <ele>1973.8</ele>
        <time>2022-12-29T11:32:22Z</time>
      </trkpt>
      <trkpt lat="45.01781" lon="6.11166">
        <ele>1973.8</ele>
        <time>2022-12-29T11:32:23Z</time>
      </trkpt>
      <trkpt lat="45.01782" lon="6.11166">
        <ele>1973.8</ele>
        <time>2022-12-29T11:32:24Z</time>
      </trkpt>
      <trkpt lat="45.01783" lon="6.11166">
        <ele>1973.8</ele>
        <time>2022-12-29T11:32:25Z</time>
      </trkpt>
      <trkpt lat="45.01783" lon="6.11165">
        <ele>1975.6</ele>
        <time>2022-12-29T11:32:26Z</time>
      </trkpt>
      <trkpt lat="45.01783" lon="6.11165">
        <ele>1975.6</ele>
        <time>2022-12-29T11:32:27Z</time>
      </trkpt>
      <trkpt lat="45.01783" lon="6.11165">
        <ele>1975.6</ele>
        <time>2022-12-29T11:32:28Z</time>
      </trkpt>
      <trkpt lat="45.01782" lon="6.11165">
        <ele>1975.6</ele>
        <time>2022-12-29T11:32:29Z</time>
      </trkpt>
      <trkpt lat="45.01782" lon="6.11164">
        <ele>1975.6</ele>
        <time>2022-12-29T11:32:30Z</time>
      </trkpt>
      <trkpt lat="45.01782" lon="6.11164">
        <ele>1975.6</ele>
        <time>2022-12-29T11:32:31Z</time>
      </trkpt>
      <trkpt lat="45.01781" lon="6.11164">
        <ele>1975.6</ele>
        <time>2022-12-29T11:32:32Z</time>
      </trkpt>
      <trkpt lat="45.01781" lon="6.11164">
        <ele>1975.6</ele>
        <time>2022-12-29T11:32:33Z</time>
      </trkpt>
      <trkpt lat="45.01781" lon="6.11163">
        <ele>1975.6</ele>
        <time>2022-12-29T11:32:34Z</time>
      </trkpt>
      <trkpt lat="45.01781" lon="6.11163">
        <ele>1975.6</ele>
        <time>2022-12-29T11:32:35Z</time>
      </trkpt>
      <trkpt lat="45.0178" lon="6.11163">
        <ele>1975.8</ele>
        <time>2022-12-29T11:32:36Z</time>
      </trkpt>
      <trkpt lat="45.0178" lon="6.11163">
        <ele>1975.8</ele>
        <time>2022-12-29T11:32:37Z</time>
      </trkpt>
      <trkpt lat="45.0178" lon="6.11162">
        <ele>1975.8</ele>
        <time>2022-12-29T11:32:38Z</time>
      </trkpt>
      <trkpt lat="45.0178" lon="6.11162">
        <ele>1975.8</ele>
        <time>2022-12-29T11:32:39Z</time>
      </trkpt>
      <trkpt lat="45.01779" lon="6.11162">
        <ele>1975.8</ele>
        <time>2022-12-29T11:32:40Z</time>
      </trkpt>
      <trkpt lat="45.01779" lon="6.11162">
        <ele>1975.8</ele>
        <time>2022-12-29T11:32:41Z</time>
      </trkpt>
      <trkpt lat="45.01779" lon="6.11161">
        <ele>1975.8</ele>
        <time>2022-12-29T11:32:42Z</time>
      </trkpt>
      <trkpt lat="45.01778" lon="6.11161">
        <ele>1975.8</ele>
        <time>2022-12-29T11:32:43Z</time>
      </trkpt>
      <trkpt lat="45.01778" lon="6.11161">
        <ele>1975.8</ele>
        <time>2022-12-29T11:32:44Z</time>
      </trkpt>
      <trkpt lat="45.01778" lon="6.11161">
        <ele>1975.8</ele>
        <time>2022-12-29T11:32:45Z</time>
      </trkpt>
      <trkpt lat="45.01778" lon="6.1116">
        <ele>1977.8</ele>
        <time>2022-12-29T11:32:46Z</time>
      </trkpt>
      <trkpt lat="45.01777" lon="6.1116">
        <ele>1977.8</ele>
        <time>2022-12-29T11:32:47Z</time>
      </trkpt>
      <trkpt lat="45.01776" lon="6.1116">
        <ele>1977.8</ele>
        <time>2022-12-29T11:32:48Z</time>
      </trkpt>
      <trkpt lat="45.01776" lon="6.11159">
        <ele>1977.8</ele>
        <time>2022-12-29T11:32:49Z</time>
      </trkpt>
      <trkpt lat="45.01775" lon="6.11159">
        <ele>1977.8</ele>
        <time>2022-12-29T11:32:50Z</time>
      </trkpt>
      <trkpt lat="45.01774" lon="6.11159">
        <ele>1977.8</ele>
        <time>2022-12-29T11:32:51Z</time>
      </trkpt>
      <trkpt lat="45.01774" lon="6.11158">
        <ele>1977.8</ele>
        <time>2022-12-29T11:32:52Z</time>
      </trkpt>
      <trkpt lat="45.01773" lon="6.11158">
        <ele>1977.8</ele>
        <time>2022-12-29T11:32:53Z</time>
      </trkpt>
      <trkpt lat="45.01773" lon="6.11158">
        <ele>1977.8</ele>
        <time>2022-12-29T11:32:54Z</time>
      </trkpt>
      <trkpt lat="45.01772" lon="6.11157">
        <ele>1977.8</ele>
        <time>2022-12-29T11:32:55Z</time>
      </trkpt>
      <trkpt lat="45.01771" lon="6.11157">
        <ele>1980</ele>
        <time>2022-12-29T11:32:56Z</time>
      </trkpt>
      <trkpt lat="45.01769" lon="6.11156">
        <ele>1980</ele>
        <time>2022-12-29T11:32:57Z</time>
      </trkpt>
      <trkpt lat="45.01769" lon="6.11155">
        <ele>1980</ele>
        <time>2022-12-29T11:32:58Z</time>
      </trkpt>
      <trkpt lat="45.01768" lon="6.11155">
        <ele>1980</ele>
        <time>2022-12-29T11:32:59Z</time>
      </trkpt>
      <trkpt lat="45.01768" lon="6.11155">
        <ele>1980</ele>
        <time>2022-12-29T11:33:00Z</time>
      </trkpt>
      <trkpt lat="45.01767" lon="6.11155">
        <ele>1980</ele>
        <time>2022-12-29T11:33:01Z</time>
      </trkpt>
      <trkpt lat="45.01767" lon="6.11154">
        <ele>1980</ele>
        <time>2022-12-29T11:33:02Z</time>
      </trkpt>
      <trkpt lat="45.01767" lon="6.11154">
        <ele>1980</ele>
        <time>2022-12-29T11:33:03Z</time>
      </trkpt>
      <trkpt lat="45.01766" lon="6.11154">
        <ele>1980</ele>
        <time>2022-12-29T11:33:04Z</time>
      </trkpt>
      <trkpt lat="45.01766" lon="6.11153">
        <ele>1980</ele>
        <time>2022-12-29T11:33:05Z</time>
      </trkpt>
      <trkpt lat="45.01765" lon="6.11153">
        <ele>1981.8</ele>
        <time>2022-12-29T11:33:06Z</time>
      </trkpt>
      <trkpt lat="45.01763" lon="6.11152">
        <ele>1981.8</ele>
        <time>2022-12-29T11:33:07Z</time>
      </trkpt>
      <trkpt lat="45.01763" lon="6.11152">
        <ele>1981.8</ele>
        <time>2022-12-29T11:33:08Z</time>
      </trkpt>
      <trkpt lat="45.01762" lon="6.11151">
        <ele>1981.8</ele>
        <time>2022-12-29T11:33:09Z</time>
      </trkpt>
      <trkpt lat="45.01762" lon="6.11151">
        <ele>1981.8</ele>
        <time>2022-12-29T11:33:10Z</time>
      </trkpt>
      <trkpt lat="45.01762" lon="6.11151">
        <ele>1981.8</ele>
        <time>2022-12-29T11:33:11Z</time>
      </trkpt>
      <trkpt lat="45.01761" lon="6.11151">
        <ele>1981.8</ele>
        <time>2022-12-29T11:33:12Z</time>
      </trkpt>
      <trkpt lat="45.01761" lon="6.1115">
        <ele>1981.8</ele>
        <time>2022-12-29T11:33:13Z</time>
      </trkpt>
      <trkpt lat="45.0176" lon="6.1115">
        <ele>1981.8</ele>
        <time>2022-12-29T11:33:14Z</time>
      </trkpt>
      <trkpt lat="45.0176" lon="6.1115">
        <ele>1981.8</ele>
        <time>2022-12-29T11:33:15Z</time>
      </trkpt>
      <trkpt lat="45.0176" lon="6.11149">
        <ele>1983.6</ele>
        <time>2022-12-29T11:33:16Z</time>
      </trkpt>
      <trkpt lat="45.01757" lon="6.11148">
        <ele>1983.6</ele>
        <time>2022-12-29T11:33:17Z</time>
      </trkpt>
      <trkpt lat="45.01757" lon="6.11148">
        <ele>1983.6</ele>
        <time>2022-12-29T11:33:18Z</time>
      </trkpt>
      <trkpt lat="45.01756" lon="6.11148">
        <ele>1983.6</ele>
        <time>2022-12-29T11:33:19Z</time>
      </trkpt>
      <trkpt lat="45.01756" lon="6.11148">
        <ele>1983.6</ele>
        <time>2022-12-29T11:33:20Z</time>
      </trkpt>
      <trkpt lat="45.01756" lon="6.11148">
        <ele>1983.6</ele>
        <time>2022-12-29T11:33:21Z</time>
      </trkpt>
      <trkpt lat="45.01755" lon="6.11148">
        <ele>1983.6</ele>
        <time>2022-12-29T11:33:22Z</time>
      </trkpt>
      <trkpt lat="45.01755" lon="6.11148">
        <ele>1983.6</ele>
        <time>2022-12-29T11:33:23Z</time>
      </trkpt>
      <trkpt lat="45.01754" lon="6.11148">
        <ele>1983.6</ele>
        <time>2022-12-29T11:33:24Z</time>
      </trkpt>
      <trkpt lat="45.01754" lon="6.11148">
        <ele>1983.6</ele>
        <time>2022-12-29T11:33:25Z</time>
      </trkpt>
      <trkpt lat="45.01753" lon="6.11147">
        <ele>1986</ele>
        <time>2022-12-29T11:33:26Z</time>
      </trkpt>
      <trkpt lat="45.01754" lon="6.11147">
        <ele>1986</ele>
        <time>2022-12-29T11:33:27Z</time>
      </trkpt>
      <trkpt lat="45.01754" lon="6.11146">
        <ele>1986</ele>
        <time>2022-12-29T11:33:28Z</time>
      </trkpt>
      <trkpt lat="45.01754" lon="6.11146">
        <ele>1986</ele>
        <time>2022-12-29T11:33:29Z</time>
      </trkpt>
      <trkpt lat="45.01755" lon="6.11145">
        <ele>1986</ele>
        <time>2022-12-29T11:33:30Z</time>
      </trkpt>
      <trkpt lat="45.01755" lon="6.11144">
        <ele>1986</ele>
        <time>2022-12-29T11:33:31Z</time>
      </trkpt>
      <trkpt lat="45.01755" lon="6.11144">
        <ele>1986</ele>
        <time>2022-12-29T11:33:32Z</time>
      </trkpt>
      <trkpt lat="45.01756" lon="6.11143">
        <ele>1986</ele>
        <time>2022-12-29T11:33:33Z</time>
      </trkpt>
      <trkpt lat="45.01756" lon="6.11142">
        <ele>1986</ele>
        <time>2022-12-29T11:33:34Z</time>
      </trkpt>
      <trkpt lat="45.01756" lon="6.11142">
        <ele>1986</ele>
        <time>2022-12-29T11:33:35Z</time>
      </trkpt>
      <trkpt lat="45.01757" lon="6.11141">
        <ele>1988</ele>
        <time>2022-12-29T11:33:36Z</time>
      </trkpt>
      <trkpt lat="45.01757" lon="6.1114">
        <ele>1988</ele>
        <time>2022-12-29T11:33:37Z</time>
      </trkpt>
      <trkpt lat="45.01758" lon="6.11139">
        <ele>1988</ele>
        <time>2022-12-29T11:33:38Z</time>
      </trkpt>
      <trkpt lat="45.01759" lon="6.11139">
        <ele>1988</ele>
        <time>2022-12-29T11:33:39Z</time>
      </trkpt>
      <trkpt lat="45.01759" lon="6.11138">
        <ele>1988</ele>
        <time>2022-12-29T11:33:40Z</time>
      </trkpt>
      <trkpt lat="45.0176" lon="6.11137">
        <ele>1988</ele>
        <time>2022-12-29T11:33:41Z</time>
      </trkpt>
      <trkpt lat="45.01761" lon="6.11136">
        <ele>1988</ele>
        <time>2022-12-29T11:33:42Z</time>
      </trkpt>
      <trkpt lat="45.01761" lon="6.11136">
        <ele>1988</ele>
        <time>2022-12-29T11:33:43Z</time>
      </trkpt>
      <trkpt lat="45.01762" lon="6.11135">
        <ele>1988</ele>
        <time>2022-12-29T11:33:44Z</time>
      </trkpt>
      <trkpt lat="45.01763" lon="6.11134">
        <ele>1988</ele>
        <time>2022-12-29T11:33:45Z</time>
      </trkpt>
      <trkpt lat="45.01763" lon="6.11133">
        <ele>1990</ele>
        <time>2022-12-29T11:33:46Z</time>
      </trkpt>
      <trkpt lat="45.01764" lon="6.11132">
        <ele>1990</ele>
        <time>2022-12-29T11:33:47Z</time>
      </trkpt>
      <trkpt lat="45.01764" lon="6.11132">
        <ele>1990</ele>
        <time>2022-12-29T11:33:48Z</time>
      </trkpt>
      <trkpt lat="45.01764" lon="6.11131">
        <ele>1990</ele>
        <time>2022-12-29T11:33:49Z</time>
      </trkpt>
      <trkpt lat="45.01765" lon="6.1113">
        <ele>1990</ele>
        <time>2022-12-29T11:33:50Z</time>
      </trkpt>
      <trkpt lat="45.01765" lon="6.11129">
        <ele>1990</ele>
        <time>2022-12-29T11:33:51Z</time>
      </trkpt>
      <trkpt lat="45.01765" lon="6.11129">
        <ele>1990</ele>
        <time>2022-12-29T11:33:52Z</time>
      </trkpt>
      <trkpt lat="45.01766" lon="6.11128">
        <ele>1990</ele>
        <time>2022-12-29T11:33:53Z</time>
      </trkpt>
      <trkpt lat="45.01766" lon="6.11127">
        <ele>1990</ele>
        <time>2022-12-29T11:33:54Z</time>
      </trkpt>
      <trkpt lat="45.01766" lon="6.11126">
        <ele>1990</ele>
        <time>2022-12-29T11:33:55Z</time>
      </trkpt>
      <trkpt lat="45.01767" lon="6.11126">
        <ele>1991.8</ele>
        <time>2022-12-29T11:33:56Z</time>
      </trkpt>
      <trkpt lat="45.01767" lon="6.11125">
        <ele>1991.8</ele>
        <time>2022-12-29T11:33:57Z</time>
      </trkpt>
      <trkpt lat="45.01768" lon="6.11124">
        <ele>1991.8</ele>
        <time>2022-12-29T11:33:58Z</time>
      </trkpt>
      <trkpt lat="45.01768" lon="6.11123">
        <ele>1991.8</ele>
        <time>2022-12-29T11:33:59Z</time>
      </trkpt>
      <trkpt lat="45.01769" lon="6.11123">
        <ele>1991.8</ele>
        <time>2022-12-29T11:34:00Z</time>
      </trkpt>
      <trkpt lat="45.01769" lon="6.11122">
        <ele>1991.8</ele>
        <time>2022-12-29T11:34:01Z</time>
      </trkpt>
      <trkpt lat="45.01769" lon="6.11121">
        <ele>1991.8</ele>
        <time>2022-12-29T11:34:02Z</time>
      </trkpt>
      <trkpt lat="45.0177" lon="6.1112">
        <ele>1991.8</ele>
        <time>2022-12-29T11:34:03Z</time>
      </trkpt>
      <trkpt lat="45.0177" lon="6.1112">
        <ele>1991.8</ele>
        <time>2022-12-29T11:34:04Z</time>
      </trkpt>
      <trkpt lat="45.01771" lon="6.11119">
        <ele>1991.8</ele>
        <time>2022-12-29T11:34:05Z</time>
      </trkpt>
      <trkpt lat="45.01771" lon="6.11118">
        <ele>1993.8</ele>
        <time>2022-12-29T11:34:06Z</time>
      </trkpt>
      <trkpt lat="45.01771" lon="6.11118">
        <ele>1993.8</ele>
        <time>2022-12-29T11:34:07Z</time>
      </trkpt>
      <trkpt lat="45.01771" lon="6.11118">
        <ele>1993.8</ele>
        <time>2022-12-29T11:34:08Z</time>
      </trkpt>
      <trkpt lat="45.01771" lon="6.11118">
        <ele>1993.8</ele>
        <time>2022-12-29T11:34:09Z</time>
      </trkpt>
      <trkpt lat="45.01771" lon="6.11118">
        <ele>1993.8</ele>
        <time>2022-12-29T11:34:10Z</time>
      </trkpt>
      <trkpt lat="45.01772" lon="6.11115">
        <ele>1993.8</ele>
        <time>2022-12-29T11:34:11Z</time>
      </trkpt>
      <trkpt lat="45.01772" lon="6.11115">
        <ele>1993.8</ele>
        <time>2022-12-29T11:34:12Z</time>
      </trkpt>
      <trkpt lat="45.01772" lon="6.11115">
        <ele>1993.8</ele>
        <time>2022-12-29T11:34:13Z</time>
      </trkpt>
      <trkpt lat="45.01772" lon="6.11115">
        <ele>1993.8</ele>
        <time>2022-12-29T11:34:14Z</time>
      </trkpt>
      <trkpt lat="45.0177" lon="6.11114">
        <ele>1993.8</ele>
        <time>2022-12-29T11:34:15Z</time>
      </trkpt>
      <trkpt lat="45.0177" lon="6.11114">
        <ele>1995.6</ele>
        <time>2022-12-29T11:34:16Z</time>
      </trkpt>
      <trkpt lat="45.01769" lon="6.11114">
        <ele>1995.6</ele>
        <time>2022-12-29T11:34:17Z</time>
      </trkpt>
      <trkpt lat="45.01769" lon="6.11113">
        <ele>1995.6</ele>
        <time>2022-12-29T11:34:18Z</time>
      </trkpt>
      <trkpt lat="45.01768" lon="6.11113">
        <ele>1995.6</ele>
        <time>2022-12-29T11:34:19Z</time>
      </trkpt>
      <trkpt lat="45.01767" lon="6.11113">
        <ele>1995.6</ele>
        <time>2022-12-29T11:34:20Z</time>
      </trkpt>
      <trkpt lat="45.01767" lon="6.11113">
        <ele>1995.6</ele>
        <time>2022-12-29T11:34:21Z</time>
      </trkpt>
      <trkpt lat="45.01766" lon="6.11113">
        <ele>1995.6</ele>
        <time>2022-12-29T11:34:22Z</time>
      </trkpt>
      <trkpt lat="45.01765" lon="6.11112">
        <ele>1995.6</ele>
        <time>2022-12-29T11:34:23Z</time>
      </trkpt>
      <trkpt lat="45.01765" lon="6.11112">
        <ele>1995.6</ele>
        <time>2022-12-29T11:34:24Z</time>
      </trkpt>
      <trkpt lat="45.01764" lon="6.11112">
        <ele>1995.6</ele>
        <time>2022-12-29T11:34:25Z</time>
      </trkpt>
      <trkpt lat="45.01763" lon="6.11112">
        <ele>1997.4</ele>
        <time>2022-12-29T11:34:26Z</time>
      </trkpt>
      <trkpt lat="45.01763" lon="6.11112">
        <ele>1997.4</ele>
        <time>2022-12-29T11:34:27Z</time>
      </trkpt>
      <trkpt lat="45.01762" lon="6.11111">
        <ele>1997.4</ele>
        <time>2022-12-29T11:34:28Z</time>
      </trkpt>
      <trkpt lat="45.01762" lon="6.11111">
        <ele>1997.4</ele>
        <time>2022-12-29T11:34:29Z</time>
      </trkpt>
      <trkpt lat="45.01762" lon="6.11111">
        <ele>1997.4</ele>
        <time>2022-12-29T11:34:30Z</time>
      </trkpt>
      <trkpt lat="45.01761" lon="6.11111">
        <ele>1997.4</ele>
        <time>2022-12-29T11:34:31Z</time>
      </trkpt>
      <trkpt lat="45.01761" lon="6.1111">
        <ele>1997.4</ele>
        <time>2022-12-29T11:34:32Z</time>
      </trkpt>
      <trkpt lat="45.01761" lon="6.1111">
        <ele>1997.4</ele>
        <time>2022-12-29T11:34:33Z</time>
      </trkpt>
      <trkpt lat="45.0176" lon="6.1111">
        <ele>1997.4</ele>
        <time>2022-12-29T11:34:34Z</time>
      </trkpt>
      <trkpt lat="45.0176" lon="6.11109">
        <ele>1997.4</ele>
        <time>2022-12-29T11:34:35Z</time>
      </trkpt>
      <trkpt lat="45.01759" lon="6.11109">
        <ele>2000.2</ele>
        <time>2022-12-29T11:34:36Z</time>
      </trkpt>
      <trkpt lat="45.0176" lon="6.11108">
        <ele>2000.2</ele>
        <time>2022-12-29T11:34:37Z</time>
      </trkpt>
      <trkpt lat="45.0176" lon="6.11108">
        <ele>2000.2</ele>
        <time>2022-12-29T11:34:38Z</time>
      </trkpt>
      <trkpt lat="45.01761" lon="6.11107">
        <ele>2000.2</ele>
        <time>2022-12-29T11:34:39Z</time>
      </trkpt>
      <trkpt lat="45.01762" lon="6.11106">
        <ele>2000.2</ele>
        <time>2022-12-29T11:34:40Z</time>
      </trkpt>
      <trkpt lat="45.01762" lon="6.11105">
        <ele>2000.2</ele>
        <time>2022-12-29T11:34:41Z</time>
      </trkpt>
      <trkpt lat="45.01763" lon="6.11105">
        <ele>2000.2</ele>
        <time>2022-12-29T11:34:42Z</time>
      </trkpt>
      <trkpt lat="45.01763" lon="6.11104">
        <ele>2000.2</ele>
        <time>2022-12-29T11:34:43Z</time>
      </trkpt>
      <trkpt lat="45.01764" lon="6.11103">
        <ele>2000.2</ele>
        <time>2022-12-29T11:34:44Z</time>
      </trkpt>
      <trkpt lat="45.01764" lon="6.11102">
        <ele>2000.2</ele>
        <time>2022-12-29T11:34:45Z</time>
      </trkpt>
      <trkpt lat="45.01765" lon="6.11102">
        <ele>2002.2</ele>
        <time>2022-12-29T11:34:46Z</time>
      </trkpt>
      <trkpt lat="45.01765" lon="6.11101">
        <ele>2002.2</ele>
        <time>2022-12-29T11:34:47Z</time>
      </trkpt>
      <trkpt lat="45.01766" lon="6.111">
        <ele>2002.2</ele>
        <time>2022-12-29T11:34:48Z</time>
      </trkpt>
      <trkpt lat="45.01766" lon="6.11099">
        <ele>2002.2</ele>
        <time>2022-12-29T11:34:49Z</time>
      </trkpt>
      <trkpt lat="45.01767" lon="6.11099">
        <ele>2002.2</ele>
        <time>2022-12-29T11:34:50Z</time>
      </trkpt>
      <trkpt lat="45.01767" lon="6.11098">
        <ele>2002.2</ele>
        <time>2022-12-29T11:34:51Z</time>
      </trkpt>
      <trkpt lat="45.01767" lon="6.11097">
        <ele>2002.2</ele>
        <time>2022-12-29T11:34:52Z</time>
      </trkpt>
      <trkpt lat="45.01768" lon="6.11097">
        <ele>2002.2</ele>
        <time>2022-12-29T11:34:53Z</time>
      </trkpt>
      <trkpt lat="45.01768" lon="6.11096">
        <ele>2002.2</ele>
        <time>2022-12-29T11:34:54Z</time>
      </trkpt>
      <trkpt lat="45.01769" lon="6.11095">
        <ele>2002.2</ele>
        <time>2022-12-29T11:34:55Z</time>
      </trkpt>
      <trkpt lat="45.01769" lon="6.11095">
        <ele>2004</ele>
        <time>2022-12-29T11:34:56Z</time>
      </trkpt>
      <trkpt lat="45.01771" lon="6.11092">
        <ele>2004</ele>
        <time>2022-12-29T11:34:57Z</time>
      </trkpt>
      <trkpt lat="45.01771" lon="6.11091">
        <ele>2004</ele>
        <time>2022-12-29T11:34:58Z</time>
      </trkpt>
      <trkpt lat="45.01771" lon="6.11091">
        <ele>2004</ele>
        <time>2022-12-29T11:34:59Z</time>
      </trkpt>
      <trkpt lat="45.01772" lon="6.1109">
        <ele>2004</ele>
        <time>2022-12-29T11:35:00Z</time>
      </trkpt>
      <trkpt lat="45.01772" lon="6.1109">
        <ele>2004</ele>
        <time>2022-12-29T11:35:01Z</time>
      </trkpt>
      <trkpt lat="45.01772" lon="6.11089">
        <ele>2004</ele>
        <time>2022-12-29T11:35:02Z</time>
      </trkpt>
      <trkpt lat="45.01772" lon="6.11089">
        <ele>2004</ele>
        <time>2022-12-29T11:35:03Z</time>
      </trkpt>
      <trkpt lat="45.01772" lon="6.11088">
        <ele>2004</ele>
        <time>2022-12-29T11:35:04Z</time>
      </trkpt>
      <trkpt lat="45.01773" lon="6.11088">
        <ele>2004</ele>
        <time>2022-12-29T11:35:05Z</time>
      </trkpt>
      <trkpt lat="45.01773" lon="6.11087">
        <ele>2005.2</ele>
        <time>2022-12-29T11:35:06Z</time>
      </trkpt>
      <trkpt lat="45.01772" lon="6.11087">
        <ele>2005.2</ele>
        <time>2022-12-29T11:35:07Z</time>
      </trkpt>
      <trkpt lat="45.01772" lon="6.11087">
        <ele>2005.2</ele>
        <time>2022-12-29T11:35:08Z</time>
      </trkpt>
      <trkpt lat="45.01771" lon="6.11088">
        <ele>2005.2</ele>
        <time>2022-12-29T11:35:09Z</time>
      </trkpt>
      <trkpt lat="45.0177" lon="6.11088">
        <ele>2005.2</ele>
        <time>2022-12-29T11:35:10Z</time>
      </trkpt>
      <trkpt lat="45.01769" lon="6.11088">
        <ele>2005.2</ele>
        <time>2022-12-29T11:35:11Z</time>
      </trkpt>
      <trkpt lat="45.01769" lon="6.11088">
        <ele>2005.2</ele>
        <time>2022-12-29T11:35:12Z</time>
      </trkpt>
      <trkpt lat="45.01768" lon="6.11088">
        <ele>2005.2</ele>
        <time>2022-12-29T11:35:13Z</time>
      </trkpt>
      <trkpt lat="45.01767" lon="6.11088">
        <ele>2005.2</ele>
        <time>2022-12-29T11:35:14Z</time>
      </trkpt>
      <trkpt lat="45.01767" lon="6.11088">
        <ele>2005.2</ele>
        <time>2022-12-29T11:35:15Z</time>
      </trkpt>
      <trkpt lat="45.01766" lon="6.11089">
        <ele>2005.4</ele>
        <time>2022-12-29T11:35:16Z</time>
      </trkpt>
      <trkpt lat="45.01765" lon="6.11089">
        <ele>2005.4</ele>
        <time>2022-12-29T11:35:17Z</time>
      </trkpt>
      <trkpt lat="45.01765" lon="6.11089">
        <ele>2005.4</ele>
        <time>2022-12-29T11:35:18Z</time>
      </trkpt>
      <trkpt lat="45.01764" lon="6.11089">
        <ele>2005.4</ele>
        <time>2022-12-29T11:35:19Z</time>
      </trkpt>
      <trkpt lat="45.01763" lon="6.11089">
        <ele>2005.4</ele>
        <time>2022-12-29T11:35:20Z</time>
      </trkpt>
      <trkpt lat="45.01763" lon="6.11089">
        <ele>2005.4</ele>
        <time>2022-12-29T11:35:21Z</time>
      </trkpt>
      <trkpt lat="45.01762" lon="6.11089">
        <ele>2005.4</ele>
        <time>2022-12-29T11:35:22Z</time>
      </trkpt>
      <trkpt lat="45.01761" lon="6.11089">
        <ele>2005.4</ele>
        <time>2022-12-29T11:35:23Z</time>
      </trkpt>
      <trkpt lat="45.01761" lon="6.11089">
        <ele>2005.4</ele>
        <time>2022-12-29T11:35:24Z</time>
      </trkpt>
      <trkpt lat="45.0176" lon="6.11089">
        <ele>2005.4</ele>
        <time>2022-12-29T11:35:25Z</time>
      </trkpt>
      <trkpt lat="45.01759" lon="6.11089">
        <ele>2008.2</ele>
        <time>2022-12-29T11:35:26Z</time>
      </trkpt>
      <trkpt lat="45.01759" lon="6.11089">
        <ele>2008.2</ele>
        <time>2022-12-29T11:35:27Z</time>
      </trkpt>
      <trkpt lat="45.01758" lon="6.11089">
        <ele>2008.2</ele>
        <time>2022-12-29T11:35:28Z</time>
      </trkpt>
      <trkpt lat="45.01757" lon="6.11089">
        <ele>2008.2</ele>
        <time>2022-12-29T11:35:29Z</time>
      </trkpt>
      <trkpt lat="45.01756" lon="6.11088">
        <ele>2008.2</ele>
        <time>2022-12-29T11:35:30Z</time>
      </trkpt>
      <trkpt lat="45.01755" lon="6.11088">
        <ele>2008.2</ele>
        <time>2022-12-29T11:35:31Z</time>
      </trkpt>
      <trkpt lat="45.01754" lon="6.11088">
        <ele>2008.2</ele>
        <time>2022-12-29T11:35:32Z</time>
      </trkpt>
      <trkpt lat="45.01754" lon="6.11088">
        <ele>2008.2</ele>
        <time>2022-12-29T11:35:33Z</time>
      </trkpt>
      <trkpt lat="45.01753" lon="6.11088">
        <ele>2008.2</ele>
        <time>2022-12-29T11:35:34Z</time>
      </trkpt>
      <trkpt lat="45.01752" lon="6.11088">
        <ele>2008.2</ele>
        <time>2022-12-29T11:35:35Z</time>
      </trkpt>
      <trkpt lat="45.01751" lon="6.11088">
        <ele>2009.8</ele>
        <time>2022-12-29T11:35:36Z</time>
      </trkpt>
      <trkpt lat="45.0175" lon="6.11088">
        <ele>2009.8</ele>
        <time>2022-12-29T11:35:37Z</time>
      </trkpt>
      <trkpt lat="45.0175" lon="6.11089">
        <ele>2009.8</ele>
        <time>2022-12-29T11:35:38Z</time>
      </trkpt>
      <trkpt lat="45.01749" lon="6.11089">
        <ele>2009.8</ele>
        <time>2022-12-29T11:35:39Z</time>
      </trkpt>
      <trkpt lat="45.01749" lon="6.11089">
        <ele>2009.8</ele>
        <time>2022-12-29T11:35:40Z</time>
      </trkpt>
      <trkpt lat="45.01748" lon="6.11089">
        <ele>2009.8</ele>
        <time>2022-12-29T11:35:41Z</time>
      </trkpt>
      <trkpt lat="45.01747" lon="6.11089">
        <ele>2009.8</ele>
        <time>2022-12-29T11:35:42Z</time>
      </trkpt>
      <trkpt lat="45.01747" lon="6.11089">
        <ele>2009.8</ele>
        <time>2022-12-29T11:35:43Z</time>
      </trkpt>
      <trkpt lat="45.01746" lon="6.11089">
        <ele>2009.8</ele>
        <time>2022-12-29T11:35:44Z</time>
      </trkpt>
      <trkpt lat="45.01746" lon="6.11089">
        <ele>2009.8</ele>
        <time>2022-12-29T11:35:45Z</time>
      </trkpt>
      <trkpt lat="45.01745" lon="6.11089">
        <ele>2012.2</ele>
        <time>2022-12-29T11:35:46Z</time>
      </trkpt>
      <trkpt lat="45.01744" lon="6.11089">
        <ele>2012.2</ele>
        <time>2022-12-29T11:35:47Z</time>
      </trkpt>
      <trkpt lat="45.01744" lon="6.11089">
        <ele>2012.2</ele>
        <time>2022-12-29T11:35:48Z</time>
      </trkpt>
      <trkpt lat="45.01743" lon="6.1109">
        <ele>2012.2</ele>
        <time>2022-12-29T11:35:49Z</time>
      </trkpt>
      <trkpt lat="45.01742" lon="6.1109">
        <ele>2012.2</ele>
        <time>2022-12-29T11:35:50Z</time>
      </trkpt>
      <trkpt lat="45.01742" lon="6.1109">
        <ele>2012.2</ele>
        <time>2022-12-29T11:35:51Z</time>
      </trkpt>
      <trkpt lat="45.01741" lon="6.1109">
        <ele>2012.2</ele>
        <time>2022-12-29T11:35:52Z</time>
      </trkpt>
      <trkpt lat="45.0174" lon="6.11091">
        <ele>2012.2</ele>
        <time>2022-12-29T11:35:53Z</time>
      </trkpt>
      <trkpt lat="45.0174" lon="6.11091">
        <ele>2012.2</ele>
        <time>2022-12-29T11:35:54Z</time>
      </trkpt>
      <trkpt lat="45.01739" lon="6.11091">
        <ele>2012.2</ele>
        <time>2022-12-29T11:35:55Z</time>
      </trkpt>
      <trkpt lat="45.01738" lon="6.11091">
        <ele>2013.6</ele>
        <time>2022-12-29T11:35:56Z</time>
      </trkpt>
      <trkpt lat="45.01738" lon="6.11091">
        <ele>2013.6</ele>
        <time>2022-12-29T11:35:57Z</time>
      </trkpt>
      <trkpt lat="45.01737" lon="6.11091">
        <ele>2013.6</ele>
        <time>2022-12-29T11:35:58Z</time>
      </trkpt>
      <trkpt lat="45.01736" lon="6.11091">
        <ele>2013.6</ele>
        <time>2022-12-29T11:35:59Z</time>
      </trkpt>
      <trkpt lat="45.01736" lon="6.11092">
        <ele>2013.6</ele>
        <time>2022-12-29T11:36:00Z</time>
      </trkpt>
      <trkpt lat="45.01735" lon="6.11092">
        <ele>2013.6</ele>
        <time>2022-12-29T11:36:01Z</time>
      </trkpt>
      <trkpt lat="45.01734" lon="6.11092">
        <ele>2013.6</ele>
        <time>2022-12-29T11:36:02Z</time>
      </trkpt>
      <trkpt lat="45.01734" lon="6.11092">
        <ele>2013.6</ele>
        <time>2022-12-29T11:36:03Z</time>
      </trkpt>
      <trkpt lat="45.01733" lon="6.11092">
        <ele>2013.6</ele>
        <time>2022-12-29T11:36:04Z</time>
      </trkpt>
      <trkpt lat="45.01732" lon="6.11092">
        <ele>2013.6</ele>
        <time>2022-12-29T11:36:05Z</time>
      </trkpt>
      <trkpt lat="45.01732" lon="6.11092">
        <ele>2015</ele>
        <time>2022-12-29T11:36:06Z</time>
      </trkpt>
      <trkpt lat="45.01731" lon="6.11092">
        <ele>2015</ele>
        <time>2022-12-29T11:36:07Z</time>
      </trkpt>
      <trkpt lat="45.0173" lon="6.11092">
        <ele>2015</ele>
        <time>2022-12-29T11:36:08Z</time>
      </trkpt>
      <trkpt lat="45.0173" lon="6.11092">
        <ele>2015</ele>
        <time>2022-12-29T11:36:09Z</time>
      </trkpt>
      <trkpt lat="45.01729" lon="6.11092">
        <ele>2015</ele>
        <time>2022-12-29T11:36:10Z</time>
      </trkpt>
      <trkpt lat="45.01729" lon="6.11092">
        <ele>2015</ele>
        <time>2022-12-29T11:36:11Z</time>
      </trkpt>
      <trkpt lat="45.01728" lon="6.11092">
        <ele>2015</ele>
        <time>2022-12-29T11:36:12Z</time>
      </trkpt>
      <trkpt lat="45.01727" lon="6.11092">
        <ele>2015</ele>
        <time>2022-12-29T11:36:13Z</time>
      </trkpt>
      <trkpt lat="45.01727" lon="6.11092">
        <ele>2015</ele>
        <time>2022-12-29T11:36:14Z</time>
      </trkpt>
      <trkpt lat="45.01726" lon="6.11092">
        <ele>2015</ele>
        <time>2022-12-29T11:36:15Z</time>
      </trkpt>
      <trkpt lat="45.01725" lon="6.11092">
        <ele>2017</ele>
        <time>2022-12-29T11:36:16Z</time>
      </trkpt>
      <trkpt lat="45.01723" lon="6.11092">
        <ele>2017</ele>
        <time>2022-12-29T11:36:17Z</time>
      </trkpt>
      <trkpt lat="45.01722" lon="6.11092">
        <ele>2017</ele>
        <time>2022-12-29T11:36:18Z</time>
      </trkpt>
      <trkpt lat="45.01722" lon="6.11092">
        <ele>2017</ele>
        <time>2022-12-29T11:36:19Z</time>
      </trkpt>
      <trkpt lat="45.01721" lon="6.11091">
        <ele>2017</ele>
        <time>2022-12-29T11:36:20Z</time>
      </trkpt>
      <trkpt lat="45.01721" lon="6.11091">
        <ele>2017</ele>
        <time>2022-12-29T11:36:21Z</time>
      </trkpt>
      <trkpt lat="45.0172" lon="6.11091">
        <ele>2017</ele>
        <time>2022-12-29T11:36:22Z</time>
      </trkpt>
      <trkpt lat="45.0172" lon="6.11091">
        <ele>2017</ele>
        <time>2022-12-29T11:36:23Z</time>
      </trkpt>
      <trkpt lat="45.01719" lon="6.11091">
        <ele>2017</ele>
        <time>2022-12-29T11:36:24Z</time>
      </trkpt>
      <trkpt lat="45.01719" lon="6.11091">
        <ele>2017</ele>
        <time>2022-12-29T11:36:25Z</time>
      </trkpt>
      <trkpt lat="45.01718" lon="6.11091">
        <ele>2019</ele>
        <time>2022-12-29T11:36:26Z</time>
      </trkpt>
      <trkpt lat="45.01716" lon="6.11091">
        <ele>2019</ele>
        <time>2022-12-29T11:36:27Z</time>
      </trkpt>
      <trkpt lat="45.01716" lon="6.1109">
        <ele>2019</ele>
        <time>2022-12-29T11:36:28Z</time>
      </trkpt>
      <trkpt lat="45.01715" lon="6.1109">
        <ele>2019</ele>
        <time>2022-12-29T11:36:29Z</time>
      </trkpt>
      <trkpt lat="45.01715" lon="6.1109">
        <ele>2019</ele>
        <time>2022-12-29T11:36:30Z</time>
      </trkpt>
      <trkpt lat="45.01715" lon="6.1109">
        <ele>2019</ele>
        <time>2022-12-29T11:36:31Z</time>
      </trkpt>
      <trkpt lat="45.01714" lon="6.11089">
        <ele>2019</ele>
        <time>2022-12-29T11:36:32Z</time>
      </trkpt>
      <trkpt lat="45.01714" lon="6.11089">
        <ele>2019</ele>
        <time>2022-12-29T11:36:33Z</time>
      </trkpt>
      <trkpt lat="45.01713" lon="6.11089">
        <ele>2019</ele>
        <time>2022-12-29T11:36:34Z</time>
      </trkpt>
      <trkpt lat="45.01713" lon="6.11089">
        <ele>2019</ele>
        <time>2022-12-29T11:36:35Z</time>
      </trkpt>
      <trkpt lat="45.01713" lon="6.11089">
        <ele>2020.6</ele>
        <time>2022-12-29T11:36:36Z</time>
      </trkpt>
      <trkpt lat="45.01713" lon="6.11089">
        <ele>2020.6</ele>
        <time>2022-12-29T11:36:37Z</time>
      </trkpt>
      <trkpt lat="45.01713" lon="6.11089">
        <ele>2020.6</ele>
        <time>2022-12-29T11:36:38Z</time>
      </trkpt>
      <trkpt lat="45.01713" lon="6.11089">
        <ele>2020.6</ele>
        <time>2022-12-29T11:36:39Z</time>
      </trkpt>
      <trkpt lat="45.01713" lon="6.11089">
        <ele>2020.6</ele>
        <time>2022-12-29T11:36:40Z</time>
      </trkpt>
      <trkpt lat="45.01713" lon="6.11089">
        <ele>2020.6</ele>
        <time>2022-12-29T11:36:41Z</time>
      </trkpt>
      <trkpt lat="45.01713" lon="6.11089">
        <ele>2020.6</ele>
        <time>2022-12-29T11:36:42Z</time>
      </trkpt>
      <trkpt lat="45.01713" lon="6.11089">
        <ele>2020.6</ele>
        <time>2022-12-29T11:36:43Z</time>
      </trkpt>
      <trkpt lat="45.01713" lon="6.11089">
        <ele>2020.6</ele>
        <time>2022-12-29T11:36:44Z</time>
      </trkpt>
      <trkpt lat="45.0171" lon="6.11087">
        <ele>2020.6</ele>
        <time>2022-12-29T11:36:45Z</time>
      </trkpt>
      <trkpt lat="45.0171" lon="6.11087">
        <ele>2021.2</ele>
        <time>2022-12-29T11:36:46Z</time>
      </trkpt>
      <trkpt lat="45.0171" lon="6.11087">
        <ele>2021.2</ele>
        <time>2022-12-29T11:36:47Z</time>
      </trkpt>
      <trkpt lat="45.01709" lon="6.11087">
        <ele>2021.2</ele>
        <time>2022-12-29T11:36:48Z</time>
      </trkpt>
      <trkpt lat="45.01708" lon="6.11086">
        <ele>2021.2</ele>
        <time>2022-12-29T11:36:49Z</time>
      </trkpt>
      <trkpt lat="45.01707" lon="6.11086">
        <ele>2021.2</ele>
        <time>2022-12-29T11:36:50Z</time>
      </trkpt>
      <trkpt lat="45.01706" lon="6.11086">
        <ele>2021.2</ele>
        <time>2022-12-29T11:36:51Z</time>
      </trkpt>
      <trkpt lat="45.01706" lon="6.11086">
        <ele>2021.2</ele>
        <time>2022-12-29T11:36:52Z</time>
      </trkpt>
      <trkpt lat="45.01705" lon="6.11085">
        <ele>2021.2</ele>
        <time>2022-12-29T11:36:53Z</time>
      </trkpt>
      <trkpt lat="45.01704" lon="6.11085">
        <ele>2021.2</ele>
        <time>2022-12-29T11:36:54Z</time>
      </trkpt>
      <trkpt lat="45.01703" lon="6.11085">
        <ele>2021.2</ele>
        <time>2022-12-29T11:36:55Z</time>
      </trkpt>
      <trkpt lat="45.01702" lon="6.11084">
        <ele>2022.4</ele>
        <time>2022-12-29T11:36:56Z</time>
      </trkpt>
      <trkpt lat="45.01702" lon="6.11084">
        <ele>2022.4</ele>
        <time>2022-12-29T11:36:57Z</time>
      </trkpt>
      <trkpt lat="45.01701" lon="6.11084">
        <ele>2022.4</ele>
        <time>2022-12-29T11:36:58Z</time>
      </trkpt>
      <trkpt lat="45.01701" lon="6.11084">
        <ele>2022.4</ele>
        <time>2022-12-29T11:36:59Z</time>
      </trkpt>
      <trkpt lat="45.017" lon="6.11083">
        <ele>2022.4</ele>
        <time>2022-12-29T11:37:00Z</time>
      </trkpt>
      <trkpt lat="45.01699" lon="6.11083">
        <ele>2022.4</ele>
        <time>2022-12-29T11:37:01Z</time>
      </trkpt>
      <trkpt lat="45.01699" lon="6.11083">
        <ele>2022.4</ele>
        <time>2022-12-29T11:37:02Z</time>
      </trkpt>
      <trkpt lat="45.01698" lon="6.11083">
        <ele>2022.4</ele>
        <time>2022-12-29T11:37:03Z</time>
      </trkpt>
      <trkpt lat="45.01698" lon="6.11082">
        <ele>2022.4</ele>
        <time>2022-12-29T11:37:04Z</time>
      </trkpt>
      <trkpt lat="45.01697" lon="6.11082">
        <ele>2022.4</ele>
        <time>2022-12-29T11:37:05Z</time>
      </trkpt>
      <trkpt lat="45.01696" lon="6.11082">
        <ele>2023.4</ele>
        <time>2022-12-29T11:37:06Z</time>
      </trkpt>
      <trkpt lat="45.01696" lon="6.11082">
        <ele>2023.4</ele>
        <time>2022-12-29T11:37:07Z</time>
      </trkpt>
      <trkpt lat="45.01695" lon="6.11082">
        <ele>2023.4</ele>
        <time>2022-12-29T11:37:08Z</time>
      </trkpt>
      <trkpt lat="45.01694" lon="6.11082">
        <ele>2023.4</ele>
        <time>2022-12-29T11:37:09Z</time>
      </trkpt>
      <trkpt lat="45.01694" lon="6.11081">
        <ele>2023.4</ele>
        <time>2022-12-29T11:37:10Z</time>
      </trkpt>
      <trkpt lat="45.01693" lon="6.11081">
        <ele>2023.4</ele>
        <time>2022-12-29T11:37:11Z</time>
      </trkpt>
      <trkpt lat="45.01693" lon="6.11081">
        <ele>2023.4</ele>
        <time>2022-12-29T11:37:12Z</time>
      </trkpt>
      <trkpt lat="45.01692" lon="6.11081">
        <ele>2023.4</ele>
        <time>2022-12-29T11:37:13Z</time>
      </trkpt>
      <trkpt lat="45.01691" lon="6.11081">
        <ele>2023.4</ele>
        <time>2022-12-29T11:37:14Z</time>
      </trkpt>
      <trkpt lat="45.01691" lon="6.11081">
        <ele>2023.4</ele>
        <time>2022-12-29T11:37:15Z</time>
      </trkpt>
      <trkpt lat="45.0169" lon="6.11081">
        <ele>2025.6</ele>
        <time>2022-12-29T11:37:16Z</time>
      </trkpt>
      <trkpt lat="45.0169" lon="6.11081">
        <ele>2025.6</ele>
        <time>2022-12-29T11:37:17Z</time>
      </trkpt>
      <trkpt lat="45.0169" lon="6.11081">
        <ele>2025.6</ele>
        <time>2022-12-29T11:37:18Z</time>
      </trkpt>
      <trkpt lat="45.0169" lon="6.11081">
        <ele>2025.6</ele>
        <time>2022-12-29T11:37:19Z</time>
      </trkpt>
      <trkpt lat="45.0169" lon="6.11081">
        <ele>2025.6</ele>
        <time>2022-12-29T11:37:20Z</time>
      </trkpt>
      <trkpt lat="45.0169" lon="6.11081">
        <ele>2025.6</ele>
        <time>2022-12-29T11:37:21Z</time>
      </trkpt>
      <trkpt lat="45.0169" lon="6.11081">
        <ele>2025.6</ele>
        <time>2022-12-29T11:37:22Z</time>
      </trkpt>
      <trkpt lat="45.0169" lon="6.11081">
        <ele>2025.6</ele>
        <time>2022-12-29T11:37:23Z</time>
      </trkpt>
      <trkpt lat="45.0169" lon="6.11081">
        <ele>2025.6</ele>
        <time>2022-12-29T11:37:24Z</time>
      </trkpt>
      <trkpt lat="45.01688" lon="6.11081">
        <ele>2025.6</ele>
        <time>2022-12-29T11:37:25Z</time>
      </trkpt>
      <trkpt lat="45.01688" lon="6.11081">
        <ele>2026</ele>
        <time>2022-12-29T11:37:26Z</time>
      </trkpt>
      <trkpt lat="45.01688" lon="6.11081">
        <ele>2026</ele>
        <time>2022-12-29T11:37:27Z</time>
      </trkpt>
      <trkpt lat="45.01687" lon="6.1108">
        <ele>2026</ele>
        <time>2022-12-29T11:37:28Z</time>
      </trkpt>
      <trkpt lat="45.01687" lon="6.1108">
        <ele>2026</ele>
        <time>2022-12-29T11:37:29Z</time>
      </trkpt>
      <trkpt lat="45.01686" lon="6.1108">
        <ele>2026</ele>
        <time>2022-12-29T11:37:30Z</time>
      </trkpt>
      <trkpt lat="45.01686" lon="6.1108">
        <ele>2026</ele>
        <time>2022-12-29T11:37:31Z</time>
      </trkpt>
      <trkpt lat="45.01685" lon="6.1108">
        <ele>2026</ele>
        <time>2022-12-29T11:37:32Z</time>
      </trkpt>
      <trkpt lat="45.01685" lon="6.1108">
        <ele>2026</ele>
        <time>2022-12-29T11:37:33Z</time>
      </trkpt>
      <trkpt lat="45.01684" lon="6.1108">
        <ele>2026</ele>
        <time>2022-12-29T11:37:34Z</time>
      </trkpt>
      <trkpt lat="45.01684" lon="6.1108">
        <ele>2026</ele>
        <time>2022-12-29T11:37:35Z</time>
      </trkpt>
      <trkpt lat="45.01684" lon="6.1108">
        <ele>2026.8</ele>
        <time>2022-12-29T11:37:36Z</time>
      </trkpt>
      <trkpt lat="45.01683" lon="6.1108">
        <ele>2026.8</ele>
        <time>2022-12-29T11:37:37Z</time>
      </trkpt>
      <trkpt lat="45.01683" lon="6.1108">
        <ele>2026.8</ele>
        <time>2022-12-29T11:37:38Z</time>
      </trkpt>
      <trkpt lat="45.01682" lon="6.1108">
        <ele>2026.8</ele>
        <time>2022-12-29T11:37:39Z</time>
      </trkpt>
      <trkpt lat="45.01682" lon="6.1108">
        <ele>2026.8</ele>
        <time>2022-12-29T11:37:40Z</time>
      </trkpt>
      <trkpt lat="45.01681" lon="6.11079">
        <ele>2026.8</ele>
        <time>2022-12-29T11:37:41Z</time>
      </trkpt>
      <trkpt lat="45.01681" lon="6.11079">
        <ele>2026.8</ele>
        <time>2022-12-29T11:37:42Z</time>
      </trkpt>
      <trkpt lat="45.0168" lon="6.11079">
        <ele>2026.8</ele>
        <time>2022-12-29T11:37:43Z</time>
      </trkpt>
      <trkpt lat="45.0168" lon="6.11079">
        <ele>2026.8</ele>
        <time>2022-12-29T11:37:44Z</time>
      </trkpt>
      <trkpt lat="45.01679" lon="6.11079">
        <ele>2026.8</ele>
        <time>2022-12-29T11:37:45Z</time>
      </trkpt>
      <trkpt lat="45.01679" lon="6.11079">
        <ele>2029</ele>
        <time>2022-12-29T11:37:46Z</time>
      </trkpt>
      <trkpt lat="45.01677" lon="6.11077">
        <ele>2029</ele>
        <time>2022-12-29T11:37:47Z</time>
      </trkpt>
      <trkpt lat="45.01676" lon="6.11077">
        <ele>2029</ele>
        <time>2022-12-29T11:37:48Z</time>
      </trkpt>
      <trkpt lat="45.01676" lon="6.11077">
        <ele>2029</ele>
        <time>2022-12-29T11:37:49Z</time>
      </trkpt>
      <trkpt lat="45.01675" lon="6.11077">
        <ele>2029</ele>
        <time>2022-12-29T11:37:50Z</time>
      </trkpt>
      <trkpt lat="45.01675" lon="6.11076">
        <ele>2029</ele>
        <time>2022-12-29T11:37:51Z</time>
      </trkpt>
      <trkpt lat="45.01674" lon="6.11076">
        <ele>2029</ele>
        <time>2022-12-29T11:37:52Z</time>
      </trkpt>
      <trkpt lat="45.01674" lon="6.11076">
        <ele>2029</ele>
        <time>2022-12-29T11:37:53Z</time>
      </trkpt>
      <trkpt lat="45.01673" lon="6.11076">
        <ele>2029</ele>
        <time>2022-12-29T11:37:54Z</time>
      </trkpt>
      <trkpt lat="45.01673" lon="6.11076">
        <ele>2029</ele>
        <time>2022-12-29T11:37:55Z</time>
      </trkpt>
      <trkpt lat="45.01672" lon="6.11076">
        <ele>2031.2</ele>
        <time>2022-12-29T11:37:56Z</time>
      </trkpt>
      <trkpt lat="45.01671" lon="6.11075">
        <ele>2031.2</ele>
        <time>2022-12-29T11:37:57Z</time>
      </trkpt>
      <trkpt lat="45.01671" lon="6.11075">
        <ele>2031.2</ele>
        <time>2022-12-29T11:37:58Z</time>
      </trkpt>
      <trkpt lat="45.0167" lon="6.11074">
        <ele>2031.2</ele>
        <time>2022-12-29T11:37:59Z</time>
      </trkpt>
      <trkpt lat="45.0167" lon="6.11074">
        <ele>2031.2</ele>
        <time>2022-12-29T11:38:00Z</time>
      </trkpt>
      <trkpt lat="45.01669" lon="6.11073">
        <ele>2031.2</ele>
        <time>2022-12-29T11:38:01Z</time>
      </trkpt>
      <trkpt lat="45.01669" lon="6.11073">
        <ele>2031.2</ele>
        <time>2022-12-29T11:38:02Z</time>
      </trkpt>
      <trkpt lat="45.01668" lon="6.11072">
        <ele>2031.2</ele>
        <time>2022-12-29T11:38:03Z</time>
      </trkpt>
      <trkpt lat="45.01667" lon="6.11072">
        <ele>2031.2</ele>
        <time>2022-12-29T11:38:04Z</time>
      </trkpt>
      <trkpt lat="45.01667" lon="6.11071">
        <ele>2031.2</ele>
        <time>2022-12-29T11:38:05Z</time>
      </trkpt>
      <trkpt lat="45.01666" lon="6.11071">
        <ele>2031.8</ele>
        <time>2022-12-29T11:38:06Z</time>
      </trkpt>
      <trkpt lat="45.01666" lon="6.11067">
        <ele>2031.8</ele>
        <time>2022-12-29T11:38:07Z</time>
      </trkpt>
      <trkpt lat="45.01666" lon="6.11066">
        <ele>2031.8</ele>
        <time>2022-12-29T11:38:08Z</time>
      </trkpt>
      <trkpt lat="45.01667" lon="6.11065">
        <ele>2031.8</ele>
        <time>2022-12-29T11:38:09Z</time>
      </trkpt>
      <trkpt lat="45.01667" lon="6.11065">
        <ele>2031.8</ele>
        <time>2022-12-29T11:38:10Z</time>
      </trkpt>
      <trkpt lat="45.01668" lon="6.11064">
        <ele>2031.8</ele>
        <time>2022-12-29T11:38:11Z</time>
      </trkpt>
      <trkpt lat="45.01668" lon="6.11063">
        <ele>2031.8</ele>
        <time>2022-12-29T11:38:12Z</time>
      </trkpt>
      <trkpt lat="45.01668" lon="6.11063">
        <ele>2031.8</ele>
        <time>2022-12-29T11:38:13Z</time>
      </trkpt>
      <trkpt lat="45.01669" lon="6.11062">
        <ele>2031.8</ele>
        <time>2022-12-29T11:38:14Z</time>
      </trkpt>
      <trkpt lat="45.01669" lon="6.11061">
        <ele>2031.8</ele>
        <time>2022-12-29T11:38:15Z</time>
      </trkpt>
      <trkpt lat="45.01669" lon="6.11061">
        <ele>2035.6</ele>
        <time>2022-12-29T11:38:16Z</time>
      </trkpt>
      <trkpt lat="45.0167" lon="6.1106">
        <ele>2035.6</ele>
        <time>2022-12-29T11:38:17Z</time>
      </trkpt>
      <trkpt lat="45.01671" lon="6.1106">
        <ele>2035.6</ele>
        <time>2022-12-29T11:38:18Z</time>
      </trkpt>
      <trkpt lat="45.01671" lon="6.11059">
        <ele>2035.6</ele>
        <time>2022-12-29T11:38:19Z</time>
      </trkpt>
      <trkpt lat="45.01672" lon="6.11059">
        <ele>2035.6</ele>
        <time>2022-12-29T11:38:20Z</time>
      </trkpt>
      <trkpt lat="45.01672" lon="6.11058">
        <ele>2035.6</ele>
        <time>2022-12-29T11:38:21Z</time>
      </trkpt>
      <trkpt lat="45.01673" lon="6.11058">
        <ele>2035.6</ele>
        <time>2022-12-29T11:38:22Z</time>
      </trkpt>
      <trkpt lat="45.01673" lon="6.11057">
        <ele>2035.6</ele>
        <time>2022-12-29T11:38:23Z</time>
      </trkpt>
      <trkpt lat="45.01674" lon="6.11056">
        <ele>2035.6</ele>
        <time>2022-12-29T11:38:24Z</time>
      </trkpt>
      <trkpt lat="45.01674" lon="6.11056">
        <ele>2035.6</ele>
        <time>2022-12-29T11:38:25Z</time>
      </trkpt>
      <trkpt lat="45.01675" lon="6.11055">
        <ele>2038.6</ele>
        <time>2022-12-29T11:38:26Z</time>
      </trkpt>
      <trkpt lat="45.01675" lon="6.11055">
        <ele>2038.6</ele>
        <time>2022-12-29T11:38:27Z</time>
      </trkpt>
      <trkpt lat="45.01675" lon="6.11055">
        <ele>2038.6</ele>
        <time>2022-12-29T11:38:28Z</time>
      </trkpt>
      <trkpt lat="45.01677" lon="6.11053">
        <ele>2038.6</ele>
        <time>2022-12-29T11:38:29Z</time>
      </trkpt>
      <trkpt lat="45.01677" lon="6.11053">
        <ele>2038.6</ele>
        <time>2022-12-29T11:38:30Z</time>
      </trkpt>
      <trkpt lat="45.01677" lon="6.11053">
        <ele>2038.6</ele>
        <time>2022-12-29T11:38:31Z</time>
      </trkpt>
      <trkpt lat="45.01678" lon="6.11051">
        <ele>2038.6</ele>
        <time>2022-12-29T11:38:32Z</time>
      </trkpt>
      <trkpt lat="45.01678" lon="6.11051">
        <ele>2038.6</ele>
        <time>2022-12-29T11:38:33Z</time>
      </trkpt>
      <trkpt lat="45.01678" lon="6.11051">
        <ele>2038.6</ele>
        <time>2022-12-29T11:38:34Z</time>
      </trkpt>
      <trkpt lat="45.01678" lon="6.11051">
        <ele>2038.6</ele>
        <time>2022-12-29T11:38:35Z</time>
      </trkpt>
      <trkpt lat="45.01678" lon="6.11051">
        <ele>2039.8</ele>
        <time>2022-12-29T11:38:36Z</time>
      </trkpt>
      <trkpt lat="45.01678" lon="6.11051">
        <ele>2039.8</ele>
        <time>2022-12-29T11:38:37Z</time>
      </trkpt>
      <trkpt lat="45.01678" lon="6.11051">
        <ele>2039.8</ele>
        <time>2022-12-29T11:38:38Z</time>
      </trkpt>
      <trkpt lat="45.01678" lon="6.11051">
        <ele>2039.8</ele>
        <time>2022-12-29T11:38:39Z</time>
      </trkpt>
      <trkpt lat="45.01678" lon="6.11051">
        <ele>2039.8</ele>
        <time>2022-12-29T11:38:40Z</time>
      </trkpt>
      <trkpt lat="45.01678" lon="6.11051">
        <ele>2039.8</ele>
        <time>2022-12-29T11:38:41Z</time>
      </trkpt>
      <trkpt lat="45.01678" lon="6.11051">
        <ele>2039.8</ele>
        <time>2022-12-29T11:38:42Z</time>
      </trkpt>
      <trkpt lat="45.01678" lon="6.11049">
        <ele>2039.8</ele>
        <time>2022-12-29T11:38:43Z</time>
      </trkpt>
      <trkpt lat="45.01678" lon="6.11049">
        <ele>2039.8</ele>
        <time>2022-12-29T11:38:44Z</time>
      </trkpt>
      <trkpt lat="45.01678" lon="6.11049">
        <ele>2039.8</ele>
        <time>2022-12-29T11:38:45Z</time>
      </trkpt>
      <trkpt lat="45.01678" lon="6.11049">
        <ele>2040.2</ele>
        <time>2022-12-29T11:38:46Z</time>
      </trkpt>
      <trkpt lat="45.01678" lon="6.11049">
        <ele>2040.2</ele>
        <time>2022-12-29T11:38:47Z</time>
      </trkpt>
      <trkpt lat="45.01679" lon="6.11048">
        <ele>2040.2</ele>
        <time>2022-12-29T11:38:48Z</time>
      </trkpt>
      <trkpt lat="45.01679" lon="6.11048">
        <ele>2040.2</ele>
        <time>2022-12-29T11:38:49Z</time>
      </trkpt>
      <trkpt lat="45.01679" lon="6.11048">
        <ele>2040.2</ele>
        <time>2022-12-29T11:38:50Z</time>
      </trkpt>
      <trkpt lat="45.01679" lon="6.11048">
        <ele>2040.2</ele>
        <time>2022-12-29T11:38:51Z</time>
      </trkpt>
      <trkpt lat="45.01679" lon="6.11048">
        <ele>2040.2</ele>
        <time>2022-12-29T11:38:52Z</time>
      </trkpt>
      <trkpt lat="45.01679" lon="6.11048">
        <ele>2040.2</ele>
        <time>2022-12-29T11:38:53Z</time>
      </trkpt>
      <trkpt lat="45.01679" lon="6.11048">
        <ele>2040.2</ele>
        <time>2022-12-29T11:38:54Z</time>
      </trkpt>
      <trkpt lat="45.01679" lon="6.11048">
        <ele>2040.2</ele>
        <time>2022-12-29T11:38:55Z</time>
      </trkpt>
      <trkpt lat="45.01679" lon="6.11048">
        <ele>2040.6</ele>
        <time>2022-12-29T11:38:56Z</time>
      </trkpt>
      <trkpt lat="45.01679" lon="6.11048">
        <ele>2040.6</ele>
        <time>2022-12-29T11:38:57Z</time>
      </trkpt>
      <trkpt lat="45.01679" lon="6.11048">
        <ele>2040.6</ele>
        <time>2022-12-29T11:38:58Z</time>
      </trkpt>
      <trkpt lat="45.01679" lon="6.11048">
        <ele>2040.6</ele>
        <time>2022-12-29T11:38:59Z</time>
      </trkpt>
      <trkpt lat="45.01679" lon="6.11048">
        <ele>2040.6</ele>
        <time>2022-12-29T11:39:00Z</time>
      </trkpt>
      <trkpt lat="45.01679" lon="6.11048">
        <ele>2040.6</ele>
        <time>2022-12-29T11:39:01Z</time>
      </trkpt>
      <trkpt lat="45.01679" lon="6.11048">
        <ele>2040.6</ele>
        <time>2022-12-29T11:39:02Z</time>
      </trkpt>
      <trkpt lat="45.01679" lon="6.11048">
        <ele>2040.6</ele>
        <time>2022-12-29T11:39:03Z</time>
      </trkpt>
      <trkpt lat="45.01679" lon="6.11048">
        <ele>2040.6</ele>
        <time>2022-12-29T11:39:04Z</time>
      </trkpt>
      <trkpt lat="45.01679" lon="6.11047">
        <ele>2040.6</ele>
        <time>2022-12-29T11:39:05Z</time>
      </trkpt>
      <trkpt lat="45.01679" lon="6.11047">
        <ele>2041</ele>
        <time>2022-12-29T11:39:06Z</time>
      </trkpt>
      <trkpt lat="45.01679" lon="6.11047">
        <ele>2041</ele>
        <time>2022-12-29T11:39:07Z</time>
      </trkpt>
      <trkpt lat="45.01679" lon="6.11047">
        <ele>2041</ele>
        <time>2022-12-29T11:39:08Z</time>
      </trkpt>
      <trkpt lat="45.0168" lon="6.11047">
        <ele>2041</ele>
        <time>2022-12-29T11:39:09Z</time>
      </trkpt>
      <trkpt lat="45.0168" lon="6.11047">
        <ele>2041</ele>
        <time>2022-12-29T11:39:10Z</time>
      </trkpt>
      <trkpt lat="45.0168" lon="6.11047">
        <ele>2041</ele>
        <time>2022-12-29T11:39:11Z</time>
      </trkpt>
      <trkpt lat="45.0168" lon="6.11047">
        <ele>2041</ele>
        <time>2022-12-29T11:39:12Z</time>
      </trkpt>
      <trkpt lat="45.0168" lon="6.11047">
        <ele>2041</ele>
        <time>2022-12-29T11:39:13Z</time>
      </trkpt>
      <trkpt lat="45.0168" lon="6.11047">
        <ele>2041</ele>
        <time>2022-12-29T11:39:14Z</time>
      </trkpt>
      <trkpt lat="45.0168" lon="6.11047">
        <ele>2041</ele>
        <time>2022-12-29T11:39:15Z</time>
      </trkpt>
      <trkpt lat="45.0168" lon="6.11047">
        <ele>2041</ele>
        <time>2022-12-29T11:39:16Z</time>
      </trkpt>
      <trkpt lat="45.0168" lon="6.11047">
        <ele>2041</ele>
        <time>2022-12-29T11:39:17Z</time>
      </trkpt>
      <trkpt lat="45.0168" lon="6.11047">
        <ele>2041</ele>
        <time>2022-12-29T11:39:18Z</time>
      </trkpt>
      <trkpt lat="45.0168" lon="6.11047">
        <ele>2041</ele>
        <time>2022-12-29T11:39:19Z</time>
      </trkpt>
      <trkpt lat="45.0168" lon="6.11047">
        <ele>2041</ele>
        <time>2022-12-29T11:39:20Z</time>
      </trkpt>
      <trkpt lat="45.0168" lon="6.11047">
        <ele>2041</ele>
        <time>2022-12-29T11:39:21Z</time>
      </trkpt>
      <trkpt lat="45.0168" lon="6.11046">
        <ele>2041</ele>
        <time>2022-12-29T11:39:22Z</time>
      </trkpt>
      <trkpt lat="45.0168" lon="6.11046">
        <ele>2041</ele>
        <time>2022-12-29T11:39:23Z</time>
      </trkpt>
      <trkpt lat="45.0168" lon="6.11046">
        <ele>2041</ele>
        <time>2022-12-29T11:39:24Z</time>
      </trkpt>
      <trkpt lat="45.0168" lon="6.11046">
        <ele>2041</ele>
        <time>2022-12-29T11:39:25Z</time>
      </trkpt>
      <trkpt lat="45.0168" lon="6.11046">
        <ele>2041</ele>
        <time>2022-12-29T11:39:26Z</time>
      </trkpt>
      <trkpt lat="45.0168" lon="6.11046">
        <ele>2041</ele>
        <time>2022-12-29T11:39:27Z</time>
      </trkpt>
      <trkpt lat="45.0168" lon="6.11046">
        <ele>2041</ele>
        <time>2022-12-29T11:39:28Z</time>
      </trkpt>
      <trkpt lat="45.0168" lon="6.11046">
        <ele>2041</ele>
        <time>2022-12-29T11:39:29Z</time>
      </trkpt>
      <trkpt lat="45.0168" lon="6.11046">
        <ele>2041</ele>
        <time>2022-12-29T11:39:30Z</time>
      </trkpt>
      <trkpt lat="45.01681" lon="6.11046">
        <ele>2041</ele>
        <time>2022-12-29T11:39:31Z</time>
      </trkpt>
      <trkpt lat="45.01681" lon="6.11046">
        <ele>2041</ele>
        <time>2022-12-29T11:39:32Z</time>
      </trkpt>
      <trkpt lat="45.01681" lon="6.11046">
        <ele>2041</ele>
        <time>2022-12-29T11:39:33Z</time>
      </trkpt>
      <trkpt lat="45.01681" lon="6.11046">
        <ele>2041</ele>
        <time>2022-12-29T11:39:34Z</time>
      </trkpt>
      <trkpt lat="45.01681" lon="6.11046">
        <ele>2041</ele>
        <time>2022-12-29T11:39:35Z</time>
      </trkpt>
      <trkpt lat="45.01681" lon="6.11046">
        <ele>2040.6</ele>
        <time>2022-12-29T11:39:36Z</time>
      </trkpt>
      <trkpt lat="45.01681" lon="6.11046">
        <ele>2040.6</ele>
        <time>2022-12-29T11:39:37Z</time>
      </trkpt>
      <trkpt lat="45.01681" lon="6.11046">
        <ele>2040.6</ele>
        <time>2022-12-29T11:39:38Z</time>
      </trkpt>
      <trkpt lat="45.01681" lon="6.11046">
        <ele>2040.6</ele>
        <time>2022-12-29T11:39:39Z</time>
      </trkpt>
      <trkpt lat="45.01681" lon="6.11045">
        <ele>2040.6</ele>
        <time>2022-12-29T11:39:40Z</time>
      </trkpt>
      <trkpt lat="45.01681" lon="6.11045">
        <ele>2040.6</ele>
        <time>2022-12-29T11:39:41Z</time>
      </trkpt>
      <trkpt lat="45.01681" lon="6.11045">
        <ele>2040.6</ele>
        <time>2022-12-29T11:39:42Z</time>
      </trkpt>
      <trkpt lat="45.01681" lon="6.11045">
        <ele>2040.6</ele>
        <time>2022-12-29T11:39:43Z</time>
      </trkpt>
      <trkpt lat="45.01681" lon="6.11045">
        <ele>2040.6</ele>
        <time>2022-12-29T11:39:44Z</time>
      </trkpt>
      <trkpt lat="45.01681" lon="6.11045">
        <ele>2040.6</ele>
        <time>2022-12-29T11:39:45Z</time>
      </trkpt>
      <trkpt lat="45.01681" lon="6.11045">
        <ele>2040</ele>
        <time>2022-12-29T11:39:46Z</time>
      </trkpt>
      <trkpt lat="45.01681" lon="6.11045">
        <ele>2040</ele>
        <time>2022-12-29T11:39:47Z</time>
      </trkpt>
      <trkpt lat="45.01681" lon="6.11045">
        <ele>2040</ele>
        <time>2022-12-29T11:39:48Z</time>
      </trkpt>
      <trkpt lat="45.01681" lon="6.11045">
        <ele>2040</ele>
        <time>2022-12-29T11:39:49Z</time>
      </trkpt>
      <trkpt lat="45.01681" lon="6.11045">
        <ele>2040</ele>
        <time>2022-12-29T11:39:50Z</time>
      </trkpt>
      <trkpt lat="45.01681" lon="6.11045">
        <ele>2040</ele>
        <time>2022-12-29T11:39:51Z</time>
      </trkpt>
      <trkpt lat="45.01681" lon="6.11045">
        <ele>2040</ele>
        <time>2022-12-29T11:39:52Z</time>
      </trkpt>
      <trkpt lat="45.01682" lon="6.11045">
        <ele>2040</ele>
        <time>2022-12-29T11:39:53Z</time>
      </trkpt>
      <trkpt lat="45.01682" lon="6.11045">
        <ele>2040</ele>
        <time>2022-12-29T11:39:54Z</time>
      </trkpt>
      <trkpt lat="45.01682" lon="6.11045">
        <ele>2040</ele>
        <time>2022-12-29T11:39:55Z</time>
      </trkpt>
      <trkpt lat="45.01682" lon="6.11045">
        <ele>2040.6</ele>
        <time>2022-12-29T11:39:56Z</time>
      </trkpt>
      <trkpt lat="45.01682" lon="6.11044">
        <ele>2040.6</ele>
        <time>2022-12-29T11:39:57Z</time>
      </trkpt>
      <trkpt lat="45.01682" lon="6.11044">
        <ele>2040.6</ele>
        <time>2022-12-29T11:39:58Z</time>
      </trkpt>
      <trkpt lat="45.01682" lon="6.11044">
        <ele>2040.6</ele>
        <time>2022-12-29T11:39:59Z</time>
      </trkpt>
      <trkpt lat="45.01682" lon="6.11044">
        <ele>2040.6</ele>
        <time>2022-12-29T11:40:00Z</time>
      </trkpt>
      <trkpt lat="45.01682" lon="6.11044">
        <ele>2040.6</ele>
        <time>2022-12-29T11:40:01Z</time>
      </trkpt>
      <trkpt lat="45.01682" lon="6.11044">
        <ele>2040.6</ele>
        <time>2022-12-29T11:40:02Z</time>
      </trkpt>
      <trkpt lat="45.01682" lon="6.11044">
        <ele>2040.6</ele>
        <time>2022-12-29T11:40:03Z</time>
      </trkpt>
      <trkpt lat="45.01682" lon="6.11044">
        <ele>2040.6</ele>
        <time>2022-12-29T11:40:04Z</time>
      </trkpt>
      <trkpt lat="45.01682" lon="6.11044">
        <ele>2040.6</ele>
        <time>2022-12-29T11:40:05Z</time>
      </trkpt>
      <trkpt lat="45.01682" lon="6.11044">
        <ele>2040</ele>
        <time>2022-12-29T11:40:06Z</time>
      </trkpt>
      <trkpt lat="45.01682" lon="6.11044">
        <ele>2040</ele>
        <time>2022-12-29T11:40:07Z</time>
      </trkpt>
      <trkpt lat="45.01682" lon="6.11044">
        <ele>2040</ele>
        <time>2022-12-29T11:40:08Z</time>
      </trkpt>
      <trkpt lat="45.01682" lon="6.11044">
        <ele>2040</ele>
        <time>2022-12-29T11:40:09Z</time>
      </trkpt>
      <trkpt lat="45.01682" lon="6.11044">
        <ele>2040</ele>
        <time>2022-12-29T11:40:10Z</time>
      </trkpt>
      <trkpt lat="45.01682" lon="6.11044">
        <ele>2040</ele>
        <time>2022-12-29T11:40:11Z</time>
      </trkpt>
      <trkpt lat="45.01682" lon="6.11044">
        <ele>2040</ele>
        <time>2022-12-29T11:40:12Z</time>
      </trkpt>
      <trkpt lat="45.01682" lon="6.11044">
        <ele>2040</ele>
        <time>2022-12-29T11:40:13Z</time>
      </trkpt>
      <trkpt lat="45.01683" lon="6.11043">
        <ele>2040</ele>
        <time>2022-12-29T11:40:14Z</time>
      </trkpt>
      <trkpt lat="45.01683" lon="6.11043">
        <ele>2040</ele>
        <time>2022-12-29T11:40:15Z</time>
      </trkpt>
      <trkpt lat="45.01683" lon="6.11043">
        <ele>2040.8</ele>
        <time>2022-12-29T11:40:16Z</time>
      </trkpt>
      <trkpt lat="45.01685" lon="6.1104">
        <ele>2040.8</ele>
        <time>2022-12-29T11:40:17Z</time>
      </trkpt>
      <trkpt lat="45.01685" lon="6.11039">
        <ele>2040.8</ele>
        <time>2022-12-29T11:40:18Z</time>
      </trkpt>
      <trkpt lat="45.01685" lon="6.11038">
        <ele>2040.8</ele>
        <time>2022-12-29T11:40:19Z</time>
      </trkpt>
      <trkpt lat="45.01686" lon="6.11037">
        <ele>2040.8</ele>
        <time>2022-12-29T11:40:20Z</time>
      </trkpt>
      <trkpt lat="45.01686" lon="6.11036">
        <ele>2040.8</ele>
        <time>2022-12-29T11:40:21Z</time>
      </trkpt>
      <trkpt lat="45.01687" lon="6.11035">
        <ele>2040.8</ele>
        <time>2022-12-29T11:40:22Z</time>
      </trkpt>
      <trkpt lat="45.01687" lon="6.11034">
        <ele>2040.8</ele>
        <time>2022-12-29T11:40:23Z</time>
      </trkpt>
      <trkpt lat="45.01688" lon="6.11033">
        <ele>2040.8</ele>
        <time>2022-12-29T11:40:24Z</time>
      </trkpt>
      <trkpt lat="45.01688" lon="6.11032">
        <ele>2040.8</ele>
        <time>2022-12-29T11:40:25Z</time>
      </trkpt>
      <trkpt lat="45.01688" lon="6.11031">
        <ele>2041.8</ele>
        <time>2022-12-29T11:40:26Z</time>
      </trkpt>
      <trkpt lat="45.01689" lon="6.11028">
        <ele>2041.8</ele>
        <time>2022-12-29T11:40:27Z</time>
      </trkpt>
      <trkpt lat="45.01689" lon="6.11026">
        <ele>2041.8</ele>
        <time>2022-12-29T11:40:28Z</time>
      </trkpt>
      <trkpt lat="45.01689" lon="6.11025">
        <ele>2041.8</ele>
        <time>2022-12-29T11:40:29Z</time>
      </trkpt>
      <trkpt lat="45.01689" lon="6.11024">
        <ele>2041.8</ele>
        <time>2022-12-29T11:40:30Z</time>
      </trkpt>
      <trkpt lat="45.01689" lon="6.11023">
        <ele>2041.8</ele>
        <time>2022-12-29T11:40:31Z</time>
      </trkpt>
      <trkpt lat="45.0169" lon="6.11022">
        <ele>2041.8</ele>
        <time>2022-12-29T11:40:32Z</time>
      </trkpt>
      <trkpt lat="45.0169" lon="6.1102">
        <ele>2041.8</ele>
        <time>2022-12-29T11:40:33Z</time>
      </trkpt>
      <trkpt lat="45.0169" lon="6.11019">
        <ele>2041.8</ele>
        <time>2022-12-29T11:40:34Z</time>
      </trkpt>
      <trkpt lat="45.0169" lon="6.11018">
        <ele>2041.8</ele>
        <time>2022-12-29T11:40:35Z</time>
      </trkpt>
      <trkpt lat="45.0169" lon="6.11017">
        <ele>2043.2</ele>
        <time>2022-12-29T11:40:36Z</time>
      </trkpt>
      <trkpt lat="45.0169" lon="6.11016">
        <ele>2043.2</ele>
        <time>2022-12-29T11:40:38Z</time>
      </trkpt>
      <trkpt lat="45.01689" lon="6.11015">
        <ele>2043.2</ele>
        <time>2022-12-29T11:40:39Z</time>
      </trkpt>
      <trkpt lat="45.01689" lon="6.11013">
        <ele>2043.2</ele>
        <time>2022-12-29T11:40:40Z</time>
      </trkpt>
      <trkpt lat="45.01688" lon="6.11012">
        <ele>2043.2</ele>
        <time>2022-12-29T11:40:41Z</time>
      </trkpt>
      <trkpt lat="45.01688" lon="6.11011">
        <ele>2043.2</ele>
        <time>2022-12-29T11:40:42Z</time>
      </trkpt>
      <trkpt lat="45.01688" lon="6.1101">
        <ele>2043.2</ele>
        <time>2022-12-29T11:40:43Z</time>
      </trkpt>
      <trkpt lat="45.01687" lon="6.11009">
        <ele>2043.2</ele>
        <time>2022-12-29T11:40:44Z</time>
      </trkpt>
      <trkpt lat="45.01687" lon="6.11008">
        <ele>2043.2</ele>
        <time>2022-12-29T11:40:45Z</time>
      </trkpt>
      <trkpt lat="45.01686" lon="6.11007">
        <ele>2043.6</ele>
        <time>2022-12-29T11:40:46Z</time>
      </trkpt>
      <trkpt lat="45.01686" lon="6.11006">
        <ele>2043.6</ele>
        <time>2022-12-29T11:40:47Z</time>
      </trkpt>
      <trkpt lat="45.01686" lon="6.11004">
        <ele>2043.6</ele>
        <time>2022-12-29T11:40:48Z</time>
      </trkpt>
      <trkpt lat="45.01686" lon="6.11003">
        <ele>2043.6</ele>
        <time>2022-12-29T11:40:49Z</time>
      </trkpt>
      <trkpt lat="45.01686" lon="6.11002">
        <ele>2043.6</ele>
        <time>2022-12-29T11:40:50Z</time>
      </trkpt>
      <trkpt lat="45.01686" lon="6.11001">
        <ele>2043.6</ele>
        <time>2022-12-29T11:40:51Z</time>
      </trkpt>
      <trkpt lat="45.01686" lon="6.11">
        <ele>2043.6</ele>
        <time>2022-12-29T11:40:52Z</time>
      </trkpt>
      <trkpt lat="45.01686" lon="6.10999">
        <ele>2043.6</ele>
        <time>2022-12-29T11:40:53Z</time>
      </trkpt>
      <trkpt lat="45.01686" lon="6.10998">
        <ele>2043.6</ele>
        <time>2022-12-29T11:40:54Z</time>
      </trkpt>
      <trkpt lat="45.01686" lon="6.10997">
        <ele>2043.6</ele>
        <time>2022-12-29T11:40:55Z</time>
      </trkpt>
      <trkpt lat="45.01686" lon="6.10996">
        <ele>2045.2</ele>
        <time>2022-12-29T11:40:56Z</time>
      </trkpt>
      <trkpt lat="45.01686" lon="6.10995">
        <ele>2045.2</ele>
        <time>2022-12-29T11:40:57Z</time>
      </trkpt>
      <trkpt lat="45.01686" lon="6.10994">
        <ele>2045.2</ele>
        <time>2022-12-29T11:40:58Z</time>
      </trkpt>
      <trkpt lat="45.01686" lon="6.10993">
        <ele>2045.2</ele>
        <time>2022-12-29T11:40:59Z</time>
      </trkpt>
      <trkpt lat="45.01686" lon="6.10992">
        <ele>2045.2</ele>
        <time>2022-12-29T11:41:00Z</time>
      </trkpt>
      <trkpt lat="45.01686" lon="6.10991">
        <ele>2045.2</ele>
        <time>2022-12-29T11:41:01Z</time>
      </trkpt>
      <trkpt lat="45.01686" lon="6.1099">
        <ele>2045.2</ele>
        <time>2022-12-29T11:41:02Z</time>
      </trkpt>
      <trkpt lat="45.01686" lon="6.10989">
        <ele>2045.2</ele>
        <time>2022-12-29T11:41:03Z</time>
      </trkpt>
      <trkpt lat="45.01686" lon="6.10988">
        <ele>2045.2</ele>
        <time>2022-12-29T11:41:04Z</time>
      </trkpt>
      <trkpt lat="45.01686" lon="6.10987">
        <ele>2045.2</ele>
        <time>2022-12-29T11:41:05Z</time>
      </trkpt>
      <trkpt lat="45.01685" lon="6.10987">
        <ele>2046.2</ele>
        <time>2022-12-29T11:41:06Z</time>
      </trkpt>
      <trkpt lat="45.01685" lon="6.10987">
        <ele>2046.2</ele>
        <time>2022-12-29T11:41:07Z</time>
      </trkpt>
      <trkpt lat="45.01685" lon="6.10988">
        <ele>2046.2</ele>
        <time>2022-12-29T11:41:08Z</time>
      </trkpt>
      <trkpt lat="45.01685" lon="6.10988">
        <ele>2046.2</ele>
        <time>2022-12-29T11:41:09Z</time>
      </trkpt>
      <trkpt lat="45.01685" lon="6.10989">
        <ele>2046.2</ele>
        <time>2022-12-29T11:41:10Z</time>
      </trkpt>
      <trkpt lat="45.01685" lon="6.10989">
        <ele>2046.2</ele>
        <time>2022-12-29T11:41:11Z</time>
      </trkpt>
      <trkpt lat="45.01685" lon="6.1099">
        <ele>2046.2</ele>
        <time>2022-12-29T11:41:12Z</time>
      </trkpt>
      <trkpt lat="45.01685" lon="6.10991">
        <ele>2046.2</ele>
        <time>2022-12-29T11:41:13Z</time>
      </trkpt>
      <trkpt lat="45.01685" lon="6.10991">
        <ele>2046.2</ele>
        <time>2022-12-29T11:41:14Z</time>
      </trkpt>
      <trkpt lat="45.01685" lon="6.10992">
        <ele>2046.2</ele>
        <time>2022-12-29T11:41:15Z</time>
      </trkpt>
      <trkpt lat="45.01685" lon="6.10992">
        <ele>2046.6</ele>
        <time>2022-12-29T11:41:16Z</time>
      </trkpt>
      <trkpt lat="45.01684" lon="6.10993">
        <ele>2046.6</ele>
        <time>2022-12-29T11:41:17Z</time>
      </trkpt>
      <trkpt lat="45.01684" lon="6.10995">
        <ele>2046.6</ele>
        <time>2022-12-29T11:41:18Z</time>
      </trkpt>
      <trkpt lat="45.01684" lon="6.10996">
        <ele>2046.6</ele>
        <time>2022-12-29T11:41:19Z</time>
      </trkpt>
      <trkpt lat="45.01683" lon="6.10997">
        <ele>2046.6</ele>
        <time>2022-12-29T11:41:20Z</time>
      </trkpt>
      <trkpt lat="45.01683" lon="6.10998">
        <ele>2046.6</ele>
        <time>2022-12-29T11:41:21Z</time>
      </trkpt>
      <trkpt lat="45.01682" lon="6.10999">
        <ele>2046.6</ele>
        <time>2022-12-29T11:41:22Z</time>
      </trkpt>
      <trkpt lat="45.01682" lon="6.11">
        <ele>2046.6</ele>
        <time>2022-12-29T11:41:23Z</time>
      </trkpt>
      <trkpt lat="45.01681" lon="6.11001">
        <ele>2046.6</ele>
        <time>2022-12-29T11:41:24Z</time>
      </trkpt>
      <trkpt lat="45.01681" lon="6.11002">
        <ele>2046.6</ele>
        <time>2022-12-29T11:41:25Z</time>
      </trkpt>
      <trkpt lat="45.0168" lon="6.11003">
        <ele>2045.8</ele>
        <time>2022-12-29T11:41:26Z</time>
      </trkpt>
      <trkpt lat="45.01679" lon="6.11004">
        <ele>2045.8</ele>
        <time>2022-12-29T11:41:27Z</time>
      </trkpt>
      <trkpt lat="45.01678" lon="6.11005">
        <ele>2045.8</ele>
        <time>2022-12-29T11:41:28Z</time>
      </trkpt>
      <trkpt lat="45.01677" lon="6.11005">
        <ele>2045.8</ele>
        <time>2022-12-29T11:41:29Z</time>
      </trkpt>
      <trkpt lat="45.01677" lon="6.11006">
        <ele>2045.8</ele>
        <time>2022-12-29T11:41:30Z</time>
      </trkpt>
      <trkpt lat="45.01676" lon="6.11007">
        <ele>2045.8</ele>
        <time>2022-12-29T11:41:31Z</time>
      </trkpt>
      <trkpt lat="45.01675" lon="6.11007">
        <ele>2045.8</ele>
        <time>2022-12-29T11:41:32Z</time>
      </trkpt>
      <trkpt lat="45.01674" lon="6.11008">
        <ele>2045.8</ele>
        <time>2022-12-29T11:41:33Z</time>
      </trkpt>
      <trkpt lat="45.01673" lon="6.11009">
        <ele>2045.8</ele>
        <time>2022-12-29T11:41:34Z</time>
      </trkpt>
      <trkpt lat="45.01672" lon="6.11009">
        <ele>2045.8</ele>
        <time>2022-12-29T11:41:35Z</time>
      </trkpt>
      <trkpt lat="45.01671" lon="6.1101">
        <ele>2045.6</ele>
        <time>2022-12-29T11:41:36Z</time>
      </trkpt>
      <trkpt lat="45.01669" lon="6.11011">
        <ele>2045.6</ele>
        <time>2022-12-29T11:41:37Z</time>
      </trkpt>
      <trkpt lat="45.01668" lon="6.11011">
        <ele>2045.6</ele>
        <time>2022-12-29T11:41:38Z</time>
      </trkpt>
      <trkpt lat="45.01667" lon="6.11011">
        <ele>2045.6</ele>
        <time>2022-12-29T11:41:39Z</time>
      </trkpt>
      <trkpt lat="45.01666" lon="6.11012">
        <ele>2045.6</ele>
        <time>2022-12-29T11:41:40Z</time>
      </trkpt>
      <trkpt lat="45.01665" lon="6.11012">
        <ele>2045.6</ele>
        <time>2022-12-29T11:41:41Z</time>
      </trkpt>
      <trkpt lat="45.01664" lon="6.11012">
        <ele>2045.6</ele>
        <time>2022-12-29T11:41:42Z</time>
      </trkpt>
      <trkpt lat="45.01663" lon="6.11013">
        <ele>2045.6</ele>
        <time>2022-12-29T11:41:43Z</time>
      </trkpt>
      <trkpt lat="45.01662" lon="6.11013">
        <ele>2045.6</ele>
        <time>2022-12-29T11:41:44Z</time>
      </trkpt>
      <trkpt lat="45.01661" lon="6.11013">
        <ele>2045.6</ele>
        <time>2022-12-29T11:41:45Z</time>
      </trkpt>
      <trkpt lat="45.0166" lon="6.11014">
        <ele>2044.8</ele>
        <time>2022-12-29T11:41:46Z</time>
      </trkpt>
      <trkpt lat="45.01658" lon="6.11015">
        <ele>2044.8</ele>
        <time>2022-12-29T11:41:47Z</time>
      </trkpt>
      <trkpt lat="45.01657" lon="6.11015">
        <ele>2044.8</ele>
        <time>2022-12-29T11:41:48Z</time>
      </trkpt>
      <trkpt lat="45.01656" lon="6.11016">
        <ele>2044.8</ele>
        <time>2022-12-29T11:41:49Z</time>
      </trkpt>
      <trkpt lat="45.01655" lon="6.11016">
        <ele>2044.8</ele>
        <time>2022-12-29T11:41:50Z</time>
      </trkpt>
      <trkpt lat="45.01654" lon="6.11017">
        <ele>2044.8</ele>
        <time>2022-12-29T11:41:51Z</time>
      </trkpt>
      <trkpt lat="45.01653" lon="6.11017">
        <ele>2044.8</ele>
        <time>2022-12-29T11:41:52Z</time>
      </trkpt>
      <trkpt lat="45.01652" lon="6.11018">
        <ele>2044.8</ele>
        <time>2022-12-29T11:41:53Z</time>
      </trkpt>
      <trkpt lat="45.01652" lon="6.11018">
        <ele>2044.8</ele>
        <time>2022-12-29T11:41:54Z</time>
      </trkpt>
      <trkpt lat="45.01651" lon="6.11019">
        <ele>2044.8</ele>
        <time>2022-12-29T11:41:55Z</time>
      </trkpt>
      <trkpt lat="45.0165" lon="6.11019">
        <ele>2045.4</ele>
        <time>2022-12-29T11:41:56Z</time>
      </trkpt>
      <trkpt lat="45.01648" lon="6.1102">
        <ele>2045.4</ele>
        <time>2022-12-29T11:41:57Z</time>
      </trkpt>
      <trkpt lat="45.01647" lon="6.1102">
        <ele>2045.4</ele>
        <time>2022-12-29T11:41:58Z</time>
      </trkpt>
      <trkpt lat="45.01646" lon="6.1102">
        <ele>2045.4</ele>
        <time>2022-12-29T11:41:59Z</time>
      </trkpt>
      <trkpt lat="45.01646" lon="6.1102">
        <ele>2045.4</ele>
        <time>2022-12-29T11:42:00Z</time>
      </trkpt>
      <trkpt lat="45.01645" lon="6.1102">
        <ele>2045.4</ele>
        <time>2022-12-29T11:42:01Z</time>
      </trkpt>
      <trkpt lat="45.01644" lon="6.1102">
        <ele>2045.4</ele>
        <time>2022-12-29T11:42:02Z</time>
      </trkpt>
      <trkpt lat="45.01643" lon="6.1102">
        <ele>2045.4</ele>
        <time>2022-12-29T11:42:03Z</time>
      </trkpt>
      <trkpt lat="45.01643" lon="6.1102">
        <ele>2045.4</ele>
        <time>2022-12-29T11:42:04Z</time>
      </trkpt>
      <trkpt lat="45.01642" lon="6.11021">
        <ele>2045.4</ele>
        <time>2022-12-29T11:42:05Z</time>
      </trkpt>
      <trkpt lat="45.01641" lon="6.11021">
        <ele>2045.8</ele>
        <time>2022-12-29T11:42:06Z</time>
      </trkpt>
      <trkpt lat="45.01639" lon="6.11021">
        <ele>2045.8</ele>
        <time>2022-12-29T11:42:07Z</time>
      </trkpt>
      <trkpt lat="45.01638" lon="6.11021">
        <ele>2045.8</ele>
        <time>2022-12-29T11:42:08Z</time>
      </trkpt>
      <trkpt lat="45.01638" lon="6.11021">
        <ele>2045.8</ele>
        <time>2022-12-29T11:42:09Z</time>
      </trkpt>
      <trkpt lat="45.01638" lon="6.11021">
        <ele>2045.8</ele>
        <time>2022-12-29T11:42:10Z</time>
      </trkpt>
      <trkpt lat="45.01638" lon="6.11021">
        <ele>2045.8</ele>
        <time>2022-12-29T11:42:11Z</time>
      </trkpt>
      <trkpt lat="45.01638" lon="6.11021">
        <ele>2045.8</ele>
        <time>2022-12-29T11:42:12Z</time>
      </trkpt>
      <trkpt lat="45.01637" lon="6.11021">
        <ele>2045.8</ele>
        <time>2022-12-29T11:42:13Z</time>
      </trkpt>
      <trkpt lat="45.01637" lon="6.11021">
        <ele>2045.8</ele>
        <time>2022-12-29T11:42:14Z</time>
      </trkpt>
      <trkpt lat="45.01637" lon="6.11021">
        <ele>2045.8</ele>
        <time>2022-12-29T11:42:15Z</time>
      </trkpt>
      <trkpt lat="45.01637" lon="6.11021">
        <ele>2047.4</ele>
        <time>2022-12-29T11:42:16Z</time>
      </trkpt>
      <trkpt lat="45.01636" lon="6.11021">
        <ele>2047.4</ele>
        <time>2022-12-29T11:42:17Z</time>
      </trkpt>
      <trkpt lat="45.01636" lon="6.11022">
        <ele>2047.4</ele>
        <time>2022-12-29T11:42:18Z</time>
      </trkpt>
      <trkpt lat="45.01636" lon="6.11022">
        <ele>2047.4</ele>
        <time>2022-12-29T11:42:19Z</time>
      </trkpt>
      <trkpt lat="45.01635" lon="6.11022">
        <ele>2047.4</ele>
        <time>2022-12-29T11:42:20Z</time>
      </trkpt>
      <trkpt lat="45.01635" lon="6.11022">
        <ele>2047.4</ele>
        <time>2022-12-29T11:42:21Z</time>
      </trkpt>
      <trkpt lat="45.01634" lon="6.11022">
        <ele>2047.4</ele>
        <time>2022-12-29T11:42:22Z</time>
      </trkpt>
      <trkpt lat="45.01634" lon="6.11023">
        <ele>2047.4</ele>
        <time>2022-12-29T11:42:23Z</time>
      </trkpt>
      <trkpt lat="45.01634" lon="6.11023">
        <ele>2047.4</ele>
        <time>2022-12-29T11:42:24Z</time>
      </trkpt>
      <trkpt lat="45.01633" lon="6.11023">
        <ele>2047.4</ele>
        <time>2022-12-29T11:42:25Z</time>
      </trkpt>
      <trkpt lat="45.01633" lon="6.11023">
        <ele>2047.8</ele>
        <time>2022-12-29T11:42:26Z</time>
      </trkpt>
      <trkpt lat="45.01632" lon="6.11023">
        <ele>2047.8</ele>
        <time>2022-12-29T11:42:27Z</time>
      </trkpt>
      <trkpt lat="45.01632" lon="6.11024">
        <ele>2047.8</ele>
        <time>2022-12-29T11:42:28Z</time>
      </trkpt>
      <trkpt lat="45.01632" lon="6.11024">
        <ele>2047.8</ele>
        <time>2022-12-29T11:42:29Z</time>
      </trkpt>
      <trkpt lat="45.01631" lon="6.11024">
        <ele>2047.8</ele>
        <time>2022-12-29T11:42:30Z</time>
      </trkpt>
      <trkpt lat="45.01631" lon="6.11024">
        <ele>2047.8</ele>
        <time>2022-12-29T11:42:31Z</time>
      </trkpt>
      <trkpt lat="45.0163" lon="6.11024">
        <ele>2047.8</ele>
        <time>2022-12-29T11:42:32Z</time>
      </trkpt>
      <trkpt lat="45.0163" lon="6.11024">
        <ele>2047.8</ele>
        <time>2022-12-29T11:42:33Z</time>
      </trkpt>
      <trkpt lat="45.0163" lon="6.11025">
        <ele>2047.8</ele>
        <time>2022-12-29T11:42:34Z</time>
      </trkpt>
      <trkpt lat="45.01629" lon="6.11025">
        <ele>2047.8</ele>
        <time>2022-12-29T11:42:35Z</time>
      </trkpt>
      <trkpt lat="45.01629" lon="6.11025">
        <ele>2048.2</ele>
        <time>2022-12-29T11:42:36Z</time>
      </trkpt>
      <trkpt lat="45.01625" lon="6.11026">
        <ele>2048.2</ele>
        <time>2022-12-29T11:42:37Z</time>
      </trkpt>
      <trkpt lat="45.01624" lon="6.11026">
        <ele>2048.2</ele>
        <time>2022-12-29T11:42:38Z</time>
      </trkpt>
      <trkpt lat="45.01623" lon="6.11027">
        <ele>2048.2</ele>
        <time>2022-12-29T11:42:39Z</time>
      </trkpt>
      <trkpt lat="45.01623" lon="6.11027">
        <ele>2048.2</ele>
        <time>2022-12-29T11:42:40Z</time>
      </trkpt>
      <trkpt lat="45.01622" lon="6.11027">
        <ele>2048.2</ele>
        <time>2022-12-29T11:42:41Z</time>
      </trkpt>
      <trkpt lat="45.01621" lon="6.11027">
        <ele>2048.2</ele>
        <time>2022-12-29T11:42:42Z</time>
      </trkpt>
      <trkpt lat="45.0162" lon="6.11028">
        <ele>2048.2</ele>
        <time>2022-12-29T11:42:43Z</time>
      </trkpt>
      <trkpt lat="45.01619" lon="6.11028">
        <ele>2048.2</ele>
        <time>2022-12-29T11:42:44Z</time>
      </trkpt>
      <trkpt lat="45.01618" lon="6.11028">
        <ele>2048.2</ele>
        <time>2022-12-29T11:42:45Z</time>
      </trkpt>
      <trkpt lat="45.01617" lon="6.11028">
        <ele>2049</ele>
        <time>2022-12-29T11:42:46Z</time>
      </trkpt>
      <trkpt lat="45.01615" lon="6.11029">
        <ele>2049</ele>
        <time>2022-12-29T11:42:47Z</time>
      </trkpt>
      <trkpt lat="45.01614" lon="6.11029">
        <ele>2049</ele>
        <time>2022-12-29T11:42:48Z</time>
      </trkpt>
      <trkpt lat="45.01613" lon="6.1103">
        <ele>2049</ele>
        <time>2022-12-29T11:42:49Z</time>
      </trkpt>
      <trkpt lat="45.01612" lon="6.1103">
        <ele>2049</ele>
        <time>2022-12-29T11:42:50Z</time>
      </trkpt>
      <trkpt lat="45.01611" lon="6.11031">
        <ele>2049</ele>
        <time>2022-12-29T11:42:51Z</time>
      </trkpt>
      <trkpt lat="45.0161" lon="6.11031">
        <ele>2049</ele>
        <time>2022-12-29T11:42:52Z</time>
      </trkpt>
      <trkpt lat="45.01609" lon="6.11031">
        <ele>2049</ele>
        <time>2022-12-29T11:42:53Z</time>
      </trkpt>
      <trkpt lat="45.01608" lon="6.11032">
        <ele>2049</ele>
        <time>2022-12-29T11:42:54Z</time>
      </trkpt>
      <trkpt lat="45.01607" lon="6.11032">
        <ele>2049</ele>
        <time>2022-12-29T11:42:55Z</time>
      </trkpt>
      <trkpt lat="45.01606" lon="6.11033">
        <ele>2049.8</ele>
        <time>2022-12-29T11:42:56Z</time>
      </trkpt>
      <trkpt lat="45.01604" lon="6.11034">
        <ele>2049.8</ele>
        <time>2022-12-29T11:42:57Z</time>
      </trkpt>
      <trkpt lat="45.01602" lon="6.11034">
        <ele>2049.8</ele>
        <time>2022-12-29T11:42:58Z</time>
      </trkpt>
      <trkpt lat="45.01601" lon="6.11034">
        <ele>2049.8</ele>
        <time>2022-12-29T11:42:59Z</time>
      </trkpt>
      <trkpt lat="45.016" lon="6.11035">
        <ele>2049.8</ele>
        <time>2022-12-29T11:43:00Z</time>
      </trkpt>
      <trkpt lat="45.01599" lon="6.11035">
        <ele>2049.8</ele>
        <time>2022-12-29T11:43:01Z</time>
      </trkpt>
      <trkpt lat="45.01598" lon="6.11035">
        <ele>2049.8</ele>
        <time>2022-12-29T11:43:02Z</time>
      </trkpt>
      <trkpt lat="45.01597" lon="6.11036">
        <ele>2049.8</ele>
        <time>2022-12-29T11:43:03Z</time>
      </trkpt>
      <trkpt lat="45.01596" lon="6.11036">
        <ele>2049.8</ele>
        <time>2022-12-29T11:43:04Z</time>
      </trkpt>
      <trkpt lat="45.01595" lon="6.11036">
        <ele>2049.8</ele>
        <time>2022-12-29T11:43:05Z</time>
      </trkpt>
      <trkpt lat="45.01594" lon="6.11037">
        <ele>2050.4</ele>
        <time>2022-12-29T11:43:06Z</time>
      </trkpt>
      <trkpt lat="45.01592" lon="6.11037">
        <ele>2050.4</ele>
        <time>2022-12-29T11:43:07Z</time>
      </trkpt>
      <trkpt lat="45.01591" lon="6.11037">
        <ele>2050.4</ele>
        <time>2022-12-29T11:43:08Z</time>
      </trkpt>
      <trkpt lat="45.0159" lon="6.11038">
        <ele>2050.4</ele>
        <time>2022-12-29T11:43:09Z</time>
      </trkpt>
      <trkpt lat="45.01589" lon="6.11038">
        <ele>2050.4</ele>
        <time>2022-12-29T11:43:10Z</time>
      </trkpt>
      <trkpt lat="45.01588" lon="6.11039">
        <ele>2050.4</ele>
        <time>2022-12-29T11:43:11Z</time>
      </trkpt>
      <trkpt lat="45.01587" lon="6.11039">
        <ele>2050.4</ele>
        <time>2022-12-29T11:43:12Z</time>
      </trkpt>
      <trkpt lat="45.01586" lon="6.11039">
        <ele>2050.4</ele>
        <time>2022-12-29T11:43:13Z</time>
      </trkpt>
      <trkpt lat="45.01586" lon="6.1104">
        <ele>2050.4</ele>
        <time>2022-12-29T11:43:14Z</time>
      </trkpt>
      <trkpt lat="45.01585" lon="6.1104">
        <ele>2050.4</ele>
        <time>2022-12-29T11:43:15Z</time>
      </trkpt>
      <trkpt lat="45.01584" lon="6.11041">
        <ele>2051</ele>
        <time>2022-12-29T11:43:16Z</time>
      </trkpt>
      <trkpt lat="45.01581" lon="6.11041">
        <ele>2051</ele>
        <time>2022-12-29T11:43:17Z</time>
      </trkpt>
      <trkpt lat="45.0158" lon="6.11041">
        <ele>2051</ele>
        <time>2022-12-29T11:43:18Z</time>
      </trkpt>
      <trkpt lat="45.01579" lon="6.11042">
        <ele>2051</ele>
        <time>2022-12-29T11:43:19Z</time>
      </trkpt>
      <trkpt lat="45.01578" lon="6.11042">
        <ele>2051</ele>
        <time>2022-12-29T11:43:20Z</time>
      </trkpt>
      <trkpt lat="45.01577" lon="6.11042">
        <ele>2051</ele>
        <time>2022-12-29T11:43:21Z</time>
      </trkpt>
      <trkpt lat="45.01576" lon="6.11042">
        <ele>2051</ele>
        <time>2022-12-29T11:43:22Z</time>
      </trkpt>
      <trkpt lat="45.01575" lon="6.11043">
        <ele>2051</ele>
        <time>2022-12-29T11:43:23Z</time>
      </trkpt>
      <trkpt lat="45.01573" lon="6.11043">
        <ele>2051</ele>
        <time>2022-12-29T11:43:24Z</time>
      </trkpt>
      <trkpt lat="45.01572" lon="6.11043">
        <ele>2051</ele>
        <time>2022-12-29T11:43:25Z</time>
      </trkpt>
      <trkpt lat="45.01571" lon="6.11043">
        <ele>2051.8</ele>
        <time>2022-12-29T11:43:26Z</time>
      </trkpt>
      <trkpt lat="45.01569" lon="6.11044">
        <ele>2051.8</ele>
        <time>2022-12-29T11:43:27Z</time>
      </trkpt>
      <trkpt lat="45.01568" lon="6.11044">
        <ele>2051.8</ele>
        <time>2022-12-29T11:43:28Z</time>
      </trkpt>
      <trkpt lat="45.01567" lon="6.11045">
        <ele>2051.8</ele>
        <time>2022-12-29T11:43:29Z</time>
      </trkpt>
      <trkpt lat="45.01566" lon="6.11045">
        <ele>2051.8</ele>
        <time>2022-12-29T11:43:30Z</time>
      </trkpt>
      <trkpt lat="45.01565" lon="6.11045">
        <ele>2051.8</ele>
        <time>2022-12-29T11:43:31Z</time>
      </trkpt>
      <trkpt lat="45.01564" lon="6.11046">
        <ele>2051.8</ele>
        <time>2022-12-29T11:43:32Z</time>
      </trkpt>
      <trkpt lat="45.01563" lon="6.11046">
        <ele>2051.8</ele>
        <time>2022-12-29T11:43:33Z</time>
      </trkpt>
      <trkpt lat="45.01562" lon="6.11046">
        <ele>2051.8</ele>
        <time>2022-12-29T11:43:34Z</time>
      </trkpt>
      <trkpt lat="45.01561" lon="6.11047">
        <ele>2051.8</ele>
        <time>2022-12-29T11:43:35Z</time>
      </trkpt>
      <trkpt lat="45.0156" lon="6.11047">
        <ele>2052.6</ele>
        <time>2022-12-29T11:43:36Z</time>
      </trkpt>
      <trkpt lat="45.01558" lon="6.11048">
        <ele>2052.6</ele>
        <time>2022-12-29T11:43:37Z</time>
      </trkpt>
      <trkpt lat="45.01557" lon="6.11048">
        <ele>2052.6</ele>
        <time>2022-12-29T11:43:38Z</time>
      </trkpt>
      <trkpt lat="45.01556" lon="6.11048">
        <ele>2052.6</ele>
        <time>2022-12-29T11:43:39Z</time>
      </trkpt>
      <trkpt lat="45.01555" lon="6.11048">
        <ele>2052.6</ele>
        <time>2022-12-29T11:43:40Z</time>
      </trkpt>
      <trkpt lat="45.01554" lon="6.11048">
        <ele>2052.6</ele>
        <time>2022-12-29T11:43:41Z</time>
      </trkpt>
      <trkpt lat="45.01553" lon="6.11048">
        <ele>2052.6</ele>
        <time>2022-12-29T11:43:42Z</time>
      </trkpt>
      <trkpt lat="45.01552" lon="6.11049">
        <ele>2052.6</ele>
        <time>2022-12-29T11:43:43Z</time>
      </trkpt>
      <trkpt lat="45.01551" lon="6.11049">
        <ele>2052.6</ele>
        <time>2022-12-29T11:43:44Z</time>
      </trkpt>
      <trkpt lat="45.0155" lon="6.11049">
        <ele>2052.6</ele>
        <time>2022-12-29T11:43:45Z</time>
      </trkpt>
      <trkpt lat="45.01549" lon="6.11049">
        <ele>2053.2</ele>
        <time>2022-12-29T11:43:46Z</time>
      </trkpt>
      <trkpt lat="45.01547" lon="6.11049">
        <ele>2053.2</ele>
        <time>2022-12-29T11:43:47Z</time>
      </trkpt>
      <trkpt lat="45.01546" lon="6.11049">
        <ele>2053.2</ele>
        <time>2022-12-29T11:43:48Z</time>
      </trkpt>
      <trkpt lat="45.01545" lon="6.1105">
        <ele>2053.2</ele>
        <time>2022-12-29T11:43:49Z</time>
      </trkpt>
      <trkpt lat="45.01544" lon="6.1105">
        <ele>2053.2</ele>
        <time>2022-12-29T11:43:50Z</time>
      </trkpt>
      <trkpt lat="45.01543" lon="6.1105">
        <ele>2053.2</ele>
        <time>2022-12-29T11:43:51Z</time>
      </trkpt>
      <trkpt lat="45.01542" lon="6.1105">
        <ele>2053.2</ele>
        <time>2022-12-29T11:43:52Z</time>
      </trkpt>
      <trkpt lat="45.01541" lon="6.1105">
        <ele>2053.2</ele>
        <time>2022-12-29T11:43:53Z</time>
      </trkpt>
      <trkpt lat="45.0154" lon="6.1105">
        <ele>2053.2</ele>
        <time>2022-12-29T11:43:54Z</time>
      </trkpt>
      <trkpt lat="45.01539" lon="6.11051">
        <ele>2053.2</ele>
        <time>2022-12-29T11:43:55Z</time>
      </trkpt>
      <trkpt lat="45.01538" lon="6.11051">
        <ele>2053</ele>
        <time>2022-12-29T11:43:56Z</time>
      </trkpt>
      <trkpt lat="45.01536" lon="6.11051">
        <ele>2053</ele>
        <time>2022-12-29T11:43:57Z</time>
      </trkpt>
      <trkpt lat="45.01535" lon="6.11051">
        <ele>2053</ele>
        <time>2022-12-29T11:43:58Z</time>
      </trkpt>
      <trkpt lat="45.01534" lon="6.11051">
        <ele>2053</ele>
        <time>2022-12-29T11:43:59Z</time>
      </trkpt>
      <trkpt lat="45.01533" lon="6.11052">
        <ele>2053</ele>
        <time>2022-12-29T11:44:00Z</time>
      </trkpt>
      <trkpt lat="45.01533" lon="6.11052">
        <ele>2053</ele>
        <time>2022-12-29T11:44:01Z</time>
      </trkpt>
      <trkpt lat="45.01532" lon="6.11052">
        <ele>2053</ele>
        <time>2022-12-29T11:44:02Z</time>
      </trkpt>
      <trkpt lat="45.01531" lon="6.11052">
        <ele>2053</ele>
        <time>2022-12-29T11:44:03Z</time>
      </trkpt>
      <trkpt lat="45.0153" lon="6.11052">
        <ele>2053</ele>
        <time>2022-12-29T11:44:04Z</time>
      </trkpt>
      <trkpt lat="45.01529" lon="6.11052">
        <ele>2053</ele>
        <time>2022-12-29T11:44:05Z</time>
      </trkpt>
      <trkpt lat="45.01528" lon="6.11052">
        <ele>2053.8</ele>
        <time>2022-12-29T11:44:06Z</time>
      </trkpt>
      <trkpt lat="45.01526" lon="6.11052">
        <ele>2053.8</ele>
        <time>2022-12-29T11:44:07Z</time>
      </trkpt>
      <trkpt lat="45.01525" lon="6.11053">
        <ele>2053.8</ele>
        <time>2022-12-29T11:44:08Z</time>
      </trkpt>
      <trkpt lat="45.01525" lon="6.11053">
        <ele>2053.8</ele>
        <time>2022-12-29T11:44:09Z</time>
      </trkpt>
      <trkpt lat="45.01524" lon="6.11053">
        <ele>2053.8</ele>
        <time>2022-12-29T11:44:10Z</time>
      </trkpt>
      <trkpt lat="45.01523" lon="6.11053">
        <ele>2053.8</ele>
        <time>2022-12-29T11:44:11Z</time>
      </trkpt>
      <trkpt lat="45.01522" lon="6.11053">
        <ele>2053.8</ele>
        <time>2022-12-29T11:44:12Z</time>
      </trkpt>
      <trkpt lat="45.01521" lon="6.11054">
        <ele>2053.8</ele>
        <time>2022-12-29T11:44:13Z</time>
      </trkpt>
      <trkpt lat="45.0152" lon="6.11054">
        <ele>2053.8</ele>
        <time>2022-12-29T11:44:14Z</time>
      </trkpt>
      <trkpt lat="45.01519" lon="6.11054">
        <ele>2053.8</ele>
        <time>2022-12-29T11:44:15Z</time>
      </trkpt>
      <trkpt lat="45.01518" lon="6.11054">
        <ele>2054.6</ele>
        <time>2022-12-29T11:44:16Z</time>
      </trkpt>
      <trkpt lat="45.01516" lon="6.11055">
        <ele>2054.6</ele>
        <time>2022-12-29T11:44:17Z</time>
      </trkpt>
      <trkpt lat="45.01515" lon="6.11055">
        <ele>2054.6</ele>
        <time>2022-12-29T11:44:18Z</time>
      </trkpt>
      <trkpt lat="45.01514" lon="6.11055">
        <ele>2054.6</ele>
        <time>2022-12-29T11:44:19Z</time>
      </trkpt>
      <trkpt lat="45.01513" lon="6.11055">
        <ele>2054.6</ele>
        <time>2022-12-29T11:44:20Z</time>
      </trkpt>
      <trkpt lat="45.01512" lon="6.11055">
        <ele>2054.6</ele>
        <time>2022-12-29T11:44:21Z</time>
      </trkpt>
      <trkpt lat="45.01511" lon="6.11055">
        <ele>2054.6</ele>
        <time>2022-12-29T11:44:22Z</time>
      </trkpt>
      <trkpt lat="45.0151" lon="6.11055">
        <ele>2054.6</ele>
        <time>2022-12-29T11:44:23Z</time>
      </trkpt>
      <trkpt lat="45.01509" lon="6.11055">
        <ele>2054.6</ele>
        <time>2022-12-29T11:44:24Z</time>
      </trkpt>
      <trkpt lat="45.01508" lon="6.11055">
        <ele>2054.6</ele>
        <time>2022-12-29T11:44:25Z</time>
      </trkpt>
      <trkpt lat="45.01507" lon="6.11055">
        <ele>2054.8</ele>
        <time>2022-12-29T11:44:26Z</time>
      </trkpt>
      <trkpt lat="45.01506" lon="6.11055">
        <ele>2054.8</ele>
        <time>2022-12-29T11:44:27Z</time>
      </trkpt>
      <trkpt lat="45.01505" lon="6.11055">
        <ele>2054.8</ele>
        <time>2022-12-29T11:44:28Z</time>
      </trkpt>
      <trkpt lat="45.01504" lon="6.11055">
        <ele>2054.8</ele>
        <time>2022-12-29T11:44:29Z</time>
      </trkpt>
      <trkpt lat="45.01503" lon="6.11055">
        <ele>2054.8</ele>
        <time>2022-12-29T11:44:30Z</time>
      </trkpt>
      <trkpt lat="45.01502" lon="6.11055">
        <ele>2054.8</ele>
        <time>2022-12-29T11:44:31Z</time>
      </trkpt>
      <trkpt lat="45.01501" lon="6.11055">
        <ele>2054.8</ele>
        <time>2022-12-29T11:44:32Z</time>
      </trkpt>
      <trkpt lat="45.015" lon="6.11054">
        <ele>2054.8</ele>
        <time>2022-12-29T11:44:33Z</time>
      </trkpt>
      <trkpt lat="45.01498" lon="6.11054">
        <ele>2054.8</ele>
        <time>2022-12-29T11:44:34Z</time>
      </trkpt>
      <trkpt lat="45.01497" lon="6.11054">
        <ele>2054.8</ele>
        <time>2022-12-29T11:44:35Z</time>
      </trkpt>
      <trkpt lat="45.01496" lon="6.11054">
        <ele>2055</ele>
        <time>2022-12-29T11:44:36Z</time>
      </trkpt>
      <trkpt lat="45.01494" lon="6.11054">
        <ele>2055</ele>
        <time>2022-12-29T11:44:37Z</time>
      </trkpt>
      <trkpt lat="45.01493" lon="6.11053">
        <ele>2055</ele>
        <time>2022-12-29T11:44:38Z</time>
      </trkpt>
      <trkpt lat="45.01492" lon="6.11053">
        <ele>2055</ele>
        <time>2022-12-29T11:44:39Z</time>
      </trkpt>
      <trkpt lat="45.01491" lon="6.11053">
        <ele>2055</ele>
        <time>2022-12-29T11:44:40Z</time>
      </trkpt>
      <trkpt lat="45.0149" lon="6.11052">
        <ele>2055</ele>
        <time>2022-12-29T11:44:41Z</time>
      </trkpt>
      <trkpt lat="45.01489" lon="6.11052">
        <ele>2055</ele>
        <time>2022-12-29T11:44:42Z</time>
      </trkpt>
      <trkpt lat="45.01488" lon="6.11052">
        <ele>2055</ele>
        <time>2022-12-29T11:44:43Z</time>
      </trkpt>
      <trkpt lat="45.01488" lon="6.11051">
        <ele>2055</ele>
        <time>2022-12-29T11:44:44Z</time>
      </trkpt>
      <trkpt lat="45.01487" lon="6.11051">
        <ele>2055</ele>
        <time>2022-12-29T11:44:45Z</time>
      </trkpt>
      <trkpt lat="45.01486" lon="6.11051">
        <ele>2055.2</ele>
        <time>2022-12-29T11:44:46Z</time>
      </trkpt>
      <trkpt lat="45.01483" lon="6.1105">
        <ele>2055.2</ele>
        <time>2022-12-29T11:44:47Z</time>
      </trkpt>
      <trkpt lat="45.01482" lon="6.1105">
        <ele>2055.2</ele>
        <time>2022-12-29T11:44:48Z</time>
      </trkpt>
      <trkpt lat="45.01481" lon="6.1105">
        <ele>2055.2</ele>
        <time>2022-12-29T11:44:49Z</time>
      </trkpt>
      <trkpt lat="45.0148" lon="6.1105">
        <ele>2055.2</ele>
        <time>2022-12-29T11:44:50Z</time>
      </trkpt>
      <trkpt lat="45.01479" lon="6.1105">
        <ele>2055.2</ele>
        <time>2022-12-29T11:44:51Z</time>
      </trkpt>
      <trkpt lat="45.01478" lon="6.11049">
        <ele>2055.2</ele>
        <time>2022-12-29T11:44:52Z</time>
      </trkpt>
      <trkpt lat="45.01477" lon="6.11049">
        <ele>2055.2</ele>
        <time>2022-12-29T11:44:53Z</time>
      </trkpt>
      <trkpt lat="45.01476" lon="6.11049">
        <ele>2055.2</ele>
        <time>2022-12-29T11:44:54Z</time>
      </trkpt>
      <trkpt lat="45.01475" lon="6.11049">
        <ele>2055.2</ele>
        <time>2022-12-29T11:44:55Z</time>
      </trkpt>
      <trkpt lat="45.01474" lon="6.11049">
        <ele>2055.6</ele>
        <time>2022-12-29T11:44:56Z</time>
      </trkpt>
      <trkpt lat="45.01473" lon="6.11048">
        <ele>2055.6</ele>
        <time>2022-12-29T11:44:57Z</time>
      </trkpt>
      <trkpt lat="45.01472" lon="6.11048">
        <ele>2055.6</ele>
        <time>2022-12-29T11:44:58Z</time>
      </trkpt>
      <trkpt lat="45.01471" lon="6.11048">
        <ele>2055.6</ele>
        <time>2022-12-29T11:44:59Z</time>
      </trkpt>
      <trkpt lat="45.0147" lon="6.11048">
        <ele>2055.6</ele>
        <time>2022-12-29T11:45:00Z</time>
      </trkpt>
      <trkpt lat="45.01469" lon="6.11048">
        <ele>2055.6</ele>
        <time>2022-12-29T11:45:01Z</time>
      </trkpt>
      <trkpt lat="45.01469" lon="6.11048">
        <ele>2055.6</ele>
        <time>2022-12-29T11:45:02Z</time>
      </trkpt>
      <trkpt lat="45.01468" lon="6.11048">
        <ele>2055.6</ele>
        <time>2022-12-29T11:45:03Z</time>
      </trkpt>
      <trkpt lat="45.01467" lon="6.11047">
        <ele>2055.6</ele>
        <time>2022-12-29T11:45:04Z</time>
      </trkpt>
      <trkpt lat="45.01466" lon="6.11047">
        <ele>2055.6</ele>
        <time>2022-12-29T11:45:05Z</time>
      </trkpt>
      <trkpt lat="45.01465" lon="6.11047">
        <ele>2056.4</ele>
        <time>2022-12-29T11:45:06Z</time>
      </trkpt>
      <trkpt lat="45.01461" lon="6.11046">
        <ele>2056.4</ele>
        <time>2022-12-29T11:45:07Z</time>
      </trkpt>
      <trkpt lat="45.0146" lon="6.11045">
        <ele>2056.4</ele>
        <time>2022-12-29T11:45:08Z</time>
      </trkpt>
      <trkpt lat="45.01459" lon="6.11045">
        <ele>2056.4</ele>
        <time>2022-12-29T11:45:09Z</time>
      </trkpt>
      <trkpt lat="45.01458" lon="6.11044">
        <ele>2056.4</ele>
        <time>2022-12-29T11:45:10Z</time>
      </trkpt>
      <trkpt lat="45.01457" lon="6.11044">
        <ele>2056.4</ele>
        <time>2022-12-29T11:45:11Z</time>
      </trkpt>
      <trkpt lat="45.01456" lon="6.11044">
        <ele>2056.4</ele>
        <time>2022-12-29T11:45:12Z</time>
      </trkpt>
      <trkpt lat="45.01455" lon="6.11043">
        <ele>2056.4</ele>
        <time>2022-12-29T11:45:13Z</time>
      </trkpt>
      <trkpt lat="45.01454" lon="6.11043">
        <ele>2056.4</ele>
        <time>2022-12-29T11:45:14Z</time>
      </trkpt>
      <trkpt lat="45.01453" lon="6.11043">
        <ele>2056.4</ele>
        <time>2022-12-29T11:45:15Z</time>
      </trkpt>
      <trkpt lat="45.01452" lon="6.11042">
        <ele>2056.8</ele>
        <time>2022-12-29T11:45:16Z</time>
      </trkpt>
      <trkpt lat="45.0145" lon="6.11042">
        <ele>2056.8</ele>
        <time>2022-12-29T11:45:17Z</time>
      </trkpt>
      <trkpt lat="45.01449" lon="6.11041">
        <ele>2056.8</ele>
        <time>2022-12-29T11:45:18Z</time>
      </trkpt>
      <trkpt lat="45.01448" lon="6.11041">
        <ele>2056.8</ele>
        <time>2022-12-29T11:45:19Z</time>
      </trkpt>
      <trkpt lat="45.01447" lon="6.11041">
        <ele>2056.8</ele>
        <time>2022-12-29T11:45:20Z</time>
      </trkpt>
      <trkpt lat="45.01446" lon="6.1104">
        <ele>2056.8</ele>
        <time>2022-12-29T11:45:21Z</time>
      </trkpt>
      <trkpt lat="45.01445" lon="6.1104">
        <ele>2056.8</ele>
        <time>2022-12-29T11:45:22Z</time>
      </trkpt>
      <trkpt lat="45.01444" lon="6.11039">
        <ele>2056.8</ele>
        <time>2022-12-29T11:45:23Z</time>
      </trkpt>
      <trkpt lat="45.01443" lon="6.11039">
        <ele>2056.8</ele>
        <time>2022-12-29T11:45:24Z</time>
      </trkpt>
      <trkpt lat="45.01442" lon="6.11039">
        <ele>2056.8</ele>
        <time>2022-12-29T11:45:25Z</time>
      </trkpt>
      <trkpt lat="45.01441" lon="6.11038">
        <ele>2057.2</ele>
        <time>2022-12-29T11:45:26Z</time>
      </trkpt>
      <trkpt lat="45.01439" lon="6.11038">
        <ele>2057.2</ele>
        <time>2022-12-29T11:45:27Z</time>
      </trkpt>
      <trkpt lat="45.01438" lon="6.11037">
        <ele>2057.2</ele>
        <time>2022-12-29T11:45:28Z</time>
      </trkpt>
      <trkpt lat="45.01438" lon="6.11037">
        <ele>2057.2</ele>
        <time>2022-12-29T11:45:29Z</time>
      </trkpt>
      <trkpt lat="45.01437" lon="6.11036">
        <ele>2057.2</ele>
        <time>2022-12-29T11:45:30Z</time>
      </trkpt>
      <trkpt lat="45.01436" lon="6.11036">
        <ele>2057.2</ele>
        <time>2022-12-29T11:45:31Z</time>
      </trkpt>
      <trkpt lat="45.01435" lon="6.11036">
        <ele>2057.2</ele>
        <time>2022-12-29T11:45:32Z</time>
      </trkpt>
      <trkpt lat="45.01434" lon="6.11035">
        <ele>2057.2</ele>
        <time>2022-12-29T11:45:33Z</time>
      </trkpt>
      <trkpt lat="45.01434" lon="6.11035">
        <ele>2057.2</ele>
        <time>2022-12-29T11:45:34Z</time>
      </trkpt>
      <trkpt lat="45.01433" lon="6.11035">
        <ele>2057.2</ele>
        <time>2022-12-29T11:45:35Z</time>
      </trkpt>
      <trkpt lat="45.01432" lon="6.11034">
        <ele>2057</ele>
        <time>2022-12-29T11:45:36Z</time>
      </trkpt>
      <trkpt lat="45.01429" lon="6.11033">
        <ele>2057</ele>
        <time>2022-12-29T11:45:37Z</time>
      </trkpt>
      <trkpt lat="45.01428" lon="6.11033">
        <ele>2057</ele>
        <time>2022-12-29T11:45:38Z</time>
      </trkpt>
      <trkpt lat="45.01427" lon="6.11033">
        <ele>2057</ele>
        <time>2022-12-29T11:45:39Z</time>
      </trkpt>
      <trkpt lat="45.01426" lon="6.11033">
        <ele>2057</ele>
        <time>2022-12-29T11:45:40Z</time>
      </trkpt>
      <trkpt lat="45.01425" lon="6.11032">
        <ele>2057</ele>
        <time>2022-12-29T11:45:41Z</time>
      </trkpt>
      <trkpt lat="45.01425" lon="6.11032">
        <ele>2057</ele>
        <time>2022-12-29T11:45:42Z</time>
      </trkpt>
      <trkpt lat="45.01424" lon="6.11032">
        <ele>2057</ele>
        <time>2022-12-29T11:45:43Z</time>
      </trkpt>
      <trkpt lat="45.01423" lon="6.11031">
        <ele>2057</ele>
        <time>2022-12-29T11:45:44Z</time>
      </trkpt>
      <trkpt lat="45.01422" lon="6.11031">
        <ele>2057</ele>
        <time>2022-12-29T11:45:45Z</time>
      </trkpt>
      <trkpt lat="45.01421" lon="6.11031">
        <ele>2058.2</ele>
        <time>2022-12-29T11:45:46Z</time>
      </trkpt>
      <trkpt lat="45.01419" lon="6.1103">
        <ele>2058.2</ele>
        <time>2022-12-29T11:45:47Z</time>
      </trkpt>
      <trkpt lat="45.01418" lon="6.11029">
        <ele>2058.2</ele>
        <time>2022-12-29T11:45:48Z</time>
      </trkpt>
      <trkpt lat="45.01417" lon="6.11029">
        <ele>2058.2</ele>
        <time>2022-12-29T11:45:49Z</time>
      </trkpt>
      <trkpt lat="45.01416" lon="6.11028">
        <ele>2058.2</ele>
        <time>2022-12-29T11:45:50Z</time>
      </trkpt>
      <trkpt lat="45.01415" lon="6.11028">
        <ele>2058.2</ele>
        <time>2022-12-29T11:45:51Z</time>
      </trkpt>
      <trkpt lat="45.01415" lon="6.11027">
        <ele>2058.2</ele>
        <time>2022-12-29T11:45:52Z</time>
      </trkpt>
      <trkpt lat="45.01414" lon="6.11027">
        <ele>2058.2</ele>
        <time>2022-12-29T11:45:53Z</time>
      </trkpt>
      <trkpt lat="45.01413" lon="6.11026">
        <ele>2058.2</ele>
        <time>2022-12-29T11:45:54Z</time>
      </trkpt>
      <trkpt lat="45.01412" lon="6.11026">
        <ele>2058.2</ele>
        <time>2022-12-29T11:45:55Z</time>
      </trkpt>
      <trkpt lat="45.01411" lon="6.11025">
        <ele>2058</ele>
        <time>2022-12-29T11:45:56Z</time>
      </trkpt>
      <trkpt lat="45.01409" lon="6.11024">
        <ele>2058</ele>
        <time>2022-12-29T11:45:57Z</time>
      </trkpt>
      <trkpt lat="45.01408" lon="6.11024">
        <ele>2058</ele>
        <time>2022-12-29T11:45:58Z</time>
      </trkpt>
      <trkpt lat="45.01407" lon="6.11023">
        <ele>2058</ele>
        <time>2022-12-29T11:45:59Z</time>
      </trkpt>
      <trkpt lat="45.01406" lon="6.11023">
        <ele>2058</ele>
        <time>2022-12-29T11:46:00Z</time>
      </trkpt>
      <trkpt lat="45.01405" lon="6.11023">
        <ele>2058</ele>
        <time>2022-12-29T11:46:01Z</time>
      </trkpt>
      <trkpt lat="45.01404" lon="6.11022">
        <ele>2058</ele>
        <time>2022-12-29T11:46:02Z</time>
      </trkpt>
      <trkpt lat="45.01403" lon="6.11022">
        <ele>2058</ele>
        <time>2022-12-29T11:46:03Z</time>
      </trkpt>
      <trkpt lat="45.01402" lon="6.11021">
        <ele>2058</ele>
        <time>2022-12-29T11:46:04Z</time>
      </trkpt>
      <trkpt lat="45.01401" lon="6.11021">
        <ele>2058</ele>
        <time>2022-12-29T11:46:05Z</time>
      </trkpt>
      <trkpt lat="45.014" lon="6.1102">
        <ele>2058.2</ele>
        <time>2022-12-29T11:46:06Z</time>
      </trkpt>
      <trkpt lat="45.01398" lon="6.11019">
        <ele>2058.2</ele>
        <time>2022-12-29T11:46:07Z</time>
      </trkpt>
      <trkpt lat="45.01397" lon="6.11019">
        <ele>2058.2</ele>
        <time>2022-12-29T11:46:08Z</time>
      </trkpt>
      <trkpt lat="45.01396" lon="6.11019">
        <ele>2058.2</ele>
        <time>2022-12-29T11:46:09Z</time>
      </trkpt>
      <trkpt lat="45.01395" lon="6.11018">
        <ele>2058.2</ele>
        <time>2022-12-29T11:46:10Z</time>
      </trkpt>
      <trkpt lat="45.01394" lon="6.11018">
        <ele>2058.2</ele>
        <time>2022-12-29T11:46:11Z</time>
      </trkpt>
      <trkpt lat="45.01393" lon="6.11017">
        <ele>2058.2</ele>
        <time>2022-12-29T11:46:12Z</time>
      </trkpt>
      <trkpt lat="45.01393" lon="6.11017">
        <ele>2058.2</ele>
        <time>2022-12-29T11:46:13Z</time>
      </trkpt>
      <trkpt lat="45.01392" lon="6.11017">
        <ele>2058.2</ele>
        <time>2022-12-29T11:46:14Z</time>
      </trkpt>
      <trkpt lat="45.01391" lon="6.11016">
        <ele>2058.2</ele>
        <time>2022-12-29T11:46:15Z</time>
      </trkpt>
      <trkpt lat="45.0139" lon="6.11016">
        <ele>2059.4</ele>
        <time>2022-12-29T11:46:16Z</time>
      </trkpt>
      <trkpt lat="45.01389" lon="6.11015">
        <ele>2059.4</ele>
        <time>2022-12-29T11:46:17Z</time>
      </trkpt>
      <trkpt lat="45.01388" lon="6.11015">
        <ele>2059.4</ele>
        <time>2022-12-29T11:46:18Z</time>
      </trkpt>
      <trkpt lat="45.01387" lon="6.11015">
        <ele>2059.4</ele>
        <time>2022-12-29T11:46:19Z</time>
      </trkpt>
      <trkpt lat="45.01386" lon="6.11015">
        <ele>2059.4</ele>
        <time>2022-12-29T11:46:20Z</time>
      </trkpt>
      <trkpt lat="45.01385" lon="6.11014">
        <ele>2059.4</ele>
        <time>2022-12-29T11:46:21Z</time>
      </trkpt>
      <trkpt lat="45.01384" lon="6.11014">
        <ele>2059.4</ele>
        <time>2022-12-29T11:46:22Z</time>
      </trkpt>
      <trkpt lat="45.01383" lon="6.11014">
        <ele>2059.4</ele>
        <time>2022-12-29T11:46:23Z</time>
      </trkpt>
      <trkpt lat="45.01382" lon="6.11013">
        <ele>2059.4</ele>
        <time>2022-12-29T11:46:24Z</time>
      </trkpt>
      <trkpt lat="45.01381" lon="6.11013">
        <ele>2059.4</ele>
        <time>2022-12-29T11:46:25Z</time>
      </trkpt>
      <trkpt lat="45.01381" lon="6.11013">
        <ele>2059.6</ele>
        <time>2022-12-29T11:46:26Z</time>
      </trkpt>
      <trkpt lat="45.01378" lon="6.11012">
        <ele>2059.6</ele>
        <time>2022-12-29T11:46:27Z</time>
      </trkpt>
      <trkpt lat="45.01377" lon="6.11012">
        <ele>2059.6</ele>
        <time>2022-12-29T11:46:28Z</time>
      </trkpt>
      <trkpt lat="45.01376" lon="6.11011">
        <ele>2059.6</ele>
        <time>2022-12-29T11:46:29Z</time>
      </trkpt>
      <trkpt lat="45.01375" lon="6.11011">
        <ele>2059.6</ele>
        <time>2022-12-29T11:46:30Z</time>
      </trkpt>
      <trkpt lat="45.01374" lon="6.11011">
        <ele>2059.6</ele>
        <time>2022-12-29T11:46:31Z</time>
      </trkpt>
      <trkpt lat="45.01374" lon="6.1101">
        <ele>2059.6</ele>
        <time>2022-12-29T11:46:32Z</time>
      </trkpt>
      <trkpt lat="45.01373" lon="6.1101">
        <ele>2059.6</ele>
        <time>2022-12-29T11:46:33Z</time>
      </trkpt>
      <trkpt lat="45.01372" lon="6.1101">
        <ele>2059.6</ele>
        <time>2022-12-29T11:46:34Z</time>
      </trkpt>
      <trkpt lat="45.01371" lon="6.1101">
        <ele>2059.6</ele>
        <time>2022-12-29T11:46:35Z</time>
      </trkpt>
      <trkpt lat="45.01371" lon="6.11009">
        <ele>2060</ele>
        <time>2022-12-29T11:46:36Z</time>
      </trkpt>
      <trkpt lat="45.01368" lon="6.11008">
        <ele>2060</ele>
        <time>2022-12-29T11:46:37Z</time>
      </trkpt>
      <trkpt lat="45.01367" lon="6.11007">
        <ele>2060</ele>
        <time>2022-12-29T11:46:38Z</time>
      </trkpt>
      <trkpt lat="45.01366" lon="6.11007">
        <ele>2060</ele>
        <time>2022-12-29T11:46:39Z</time>
      </trkpt>
      <trkpt lat="45.01365" lon="6.11006">
        <ele>2060</ele>
        <time>2022-12-29T11:46:40Z</time>
      </trkpt>
      <trkpt lat="45.01364" lon="6.11006">
        <ele>2060</ele>
        <time>2022-12-29T11:46:41Z</time>
      </trkpt>
      <trkpt lat="45.01363" lon="6.11005">
        <ele>2060</ele>
        <time>2022-12-29T11:46:42Z</time>
      </trkpt>
      <trkpt lat="45.01362" lon="6.11005">
        <ele>2060</ele>
        <time>2022-12-29T11:46:43Z</time>
      </trkpt>
      <trkpt lat="45.01361" lon="6.11004">
        <ele>2060</ele>
        <time>2022-12-29T11:46:44Z</time>
      </trkpt>
      <trkpt lat="45.0136" lon="6.11004">
        <ele>2060</ele>
        <time>2022-12-29T11:46:45Z</time>
      </trkpt>
      <trkpt lat="45.01359" lon="6.11003">
        <ele>2061.4</ele>
        <time>2022-12-29T11:46:46Z</time>
      </trkpt>
      <trkpt lat="45.01358" lon="6.11002">
        <ele>2061.4</ele>
        <time>2022-12-29T11:46:47Z</time>
      </trkpt>
      <trkpt lat="45.01357" lon="6.11001">
        <ele>2061.4</ele>
        <time>2022-12-29T11:46:48Z</time>
      </trkpt>
      <trkpt lat="45.01356" lon="6.11">
        <ele>2061.4</ele>
        <time>2022-12-29T11:46:49Z</time>
      </trkpt>
      <trkpt lat="45.01355" lon="6.11">
        <ele>2061.4</ele>
        <time>2022-12-29T11:46:50Z</time>
      </trkpt>
      <trkpt lat="45.01354" lon="6.10999">
        <ele>2061.4</ele>
        <time>2022-12-29T11:46:51Z</time>
      </trkpt>
      <trkpt lat="45.01353" lon="6.10998">
        <ele>2061.4</ele>
        <time>2022-12-29T11:46:52Z</time>
      </trkpt>
      <trkpt lat="45.01352" lon="6.10998">
        <ele>2061.4</ele>
        <time>2022-12-29T11:46:53Z</time>
      </trkpt>
      <trkpt lat="45.01351" lon="6.10997">
        <ele>2061.4</ele>
        <time>2022-12-29T11:46:54Z</time>
      </trkpt>
      <trkpt lat="45.0135" lon="6.10996">
        <ele>2061.4</ele>
        <time>2022-12-29T11:46:55Z</time>
      </trkpt>
      <trkpt lat="45.01349" lon="6.10995">
        <ele>2062</ele>
        <time>2022-12-29T11:46:56Z</time>
      </trkpt>
      <trkpt lat="45.01348" lon="6.10994">
        <ele>2062</ele>
        <time>2022-12-29T11:46:57Z</time>
      </trkpt>
      <trkpt lat="45.01347" lon="6.10993">
        <ele>2062</ele>
        <time>2022-12-29T11:46:58Z</time>
      </trkpt>
      <trkpt lat="45.01346" lon="6.10992">
        <ele>2062</ele>
        <time>2022-12-29T11:46:59Z</time>
      </trkpt>
      <trkpt lat="45.01345" lon="6.10992">
        <ele>2062</ele>
        <time>2022-12-29T11:47:00Z</time>
      </trkpt>
      <trkpt lat="45.01344" lon="6.10991">
        <ele>2062</ele>
        <time>2022-12-29T11:47:01Z</time>
      </trkpt>
      <trkpt lat="45.01343" lon="6.1099">
        <ele>2062</ele>
        <time>2022-12-29T11:47:02Z</time>
      </trkpt>
      <trkpt lat="45.01342" lon="6.10989">
        <ele>2062</ele>
        <time>2022-12-29T11:47:03Z</time>
      </trkpt>
      <trkpt lat="45.01342" lon="6.10989">
        <ele>2062</ele>
        <time>2022-12-29T11:47:04Z</time>
      </trkpt>
      <trkpt lat="45.01341" lon="6.10988">
        <ele>2062</ele>
        <time>2022-12-29T11:47:05Z</time>
      </trkpt>
      <trkpt lat="45.0134" lon="6.10987">
        <ele>2062.6</ele>
        <time>2022-12-29T11:47:06Z</time>
      </trkpt>
      <trkpt lat="45.01338" lon="6.10985">
        <ele>2062.6</ele>
        <time>2022-12-29T11:47:07Z</time>
      </trkpt>
      <trkpt lat="45.01337" lon="6.10985">
        <ele>2062.6</ele>
        <time>2022-12-29T11:47:08Z</time>
      </trkpt>
      <trkpt lat="45.01336" lon="6.10984">
        <ele>2062.6</ele>
        <time>2022-12-29T11:47:09Z</time>
      </trkpt>
      <trkpt lat="45.01335" lon="6.10983">
        <ele>2062.6</ele>
        <time>2022-12-29T11:47:10Z</time>
      </trkpt>
      <trkpt lat="45.01335" lon="6.10982">
        <ele>2062.6</ele>
        <time>2022-12-29T11:47:11Z</time>
      </trkpt>
      <trkpt lat="45.01334" lon="6.10982">
        <ele>2062.6</ele>
        <time>2022-12-29T11:47:12Z</time>
      </trkpt>
      <trkpt lat="45.01333" lon="6.10981">
        <ele>2062.6</ele>
        <time>2022-12-29T11:47:13Z</time>
      </trkpt>
      <trkpt lat="45.01332" lon="6.1098">
        <ele>2062.6</ele>
        <time>2022-12-29T11:47:14Z</time>
      </trkpt>
      <trkpt lat="45.01331" lon="6.10979">
        <ele>2062.6</ele>
        <time>2022-12-29T11:47:15Z</time>
      </trkpt>
      <trkpt lat="45.0133" lon="6.10979">
        <ele>2063.4</ele>
        <time>2022-12-29T11:47:16Z</time>
      </trkpt>
      <trkpt lat="45.01329" lon="6.10977">
        <ele>2063.4</ele>
        <time>2022-12-29T11:47:17Z</time>
      </trkpt>
      <trkpt lat="45.01328" lon="6.10976">
        <ele>2063.4</ele>
        <time>2022-12-29T11:47:18Z</time>
      </trkpt>
      <trkpt lat="45.01327" lon="6.10976">
        <ele>2063.4</ele>
        <time>2022-12-29T11:47:19Z</time>
      </trkpt>
      <trkpt lat="45.01327" lon="6.10975">
        <ele>2063.4</ele>
        <time>2022-12-29T11:47:20Z</time>
      </trkpt>
      <trkpt lat="45.01326" lon="6.10974">
        <ele>2063.4</ele>
        <time>2022-12-29T11:47:21Z</time>
      </trkpt>
      <trkpt lat="45.01325" lon="6.10973">
        <ele>2063.4</ele>
        <time>2022-12-29T11:47:22Z</time>
      </trkpt>
      <trkpt lat="45.01325" lon="6.10973">
        <ele>2063.4</ele>
        <time>2022-12-29T11:47:23Z</time>
      </trkpt>
      <trkpt lat="45.01324" lon="6.10972">
        <ele>2063.4</ele>
        <time>2022-12-29T11:47:24Z</time>
      </trkpt>
      <trkpt lat="45.01323" lon="6.10971">
        <ele>2063.4</ele>
        <time>2022-12-29T11:47:25Z</time>
      </trkpt>
      <trkpt lat="45.01323" lon="6.1097">
        <ele>2064</ele>
        <time>2022-12-29T11:47:26Z</time>
      </trkpt>
      <trkpt lat="45.01321" lon="6.10968">
        <ele>2064</ele>
        <time>2022-12-29T11:47:27Z</time>
      </trkpt>
      <trkpt lat="45.01321" lon="6.10967">
        <ele>2064</ele>
        <time>2022-12-29T11:47:28Z</time>
      </trkpt>
      <trkpt lat="45.0132" lon="6.10967">
        <ele>2064</ele>
        <time>2022-12-29T11:47:29Z</time>
      </trkpt>
      <trkpt lat="45.01319" lon="6.10966">
        <ele>2064</ele>
        <time>2022-12-29T11:47:30Z</time>
      </trkpt>
      <trkpt lat="45.01318" lon="6.10965">
        <ele>2064</ele>
        <time>2022-12-29T11:47:31Z</time>
      </trkpt>
      <trkpt lat="45.01317" lon="6.10964">
        <ele>2064</ele>
        <time>2022-12-29T11:47:32Z</time>
      </trkpt>
      <trkpt lat="45.01316" lon="6.10963">
        <ele>2064</ele>
        <time>2022-12-29T11:47:33Z</time>
      </trkpt>
      <trkpt lat="45.01316" lon="6.10962">
        <ele>2064</ele>
        <time>2022-12-29T11:47:34Z</time>
      </trkpt>
      <trkpt lat="45.01315" lon="6.10961">
        <ele>2064</ele>
        <time>2022-12-29T11:47:35Z</time>
      </trkpt>
      <trkpt lat="45.01314" lon="6.1096">
        <ele>2064.6</ele>
        <time>2022-12-29T11:47:36Z</time>
      </trkpt>
      <trkpt lat="45.01312" lon="6.10958">
        <ele>2064.6</ele>
        <time>2022-12-29T11:47:37Z</time>
      </trkpt>
      <trkpt lat="45.01312" lon="6.10957">
        <ele>2064.6</ele>
        <time>2022-12-29T11:47:38Z</time>
      </trkpt>
      <trkpt lat="45.01311" lon="6.10956">
        <ele>2064.6</ele>
        <time>2022-12-29T11:47:39Z</time>
      </trkpt>
      <trkpt lat="45.01311" lon="6.10955">
        <ele>2064.6</ele>
        <time>2022-12-29T11:47:40Z</time>
      </trkpt>
      <trkpt lat="45.0131" lon="6.10954">
        <ele>2064.6</ele>
        <time>2022-12-29T11:47:41Z</time>
      </trkpt>
      <trkpt lat="45.0131" lon="6.10953">
        <ele>2064.6</ele>
        <time>2022-12-29T11:47:42Z</time>
      </trkpt>
      <trkpt lat="45.01309" lon="6.10951">
        <ele>2064.6</ele>
        <time>2022-12-29T11:47:43Z</time>
      </trkpt>
      <trkpt lat="45.01309" lon="6.1095">
        <ele>2064.6</ele>
        <time>2022-12-29T11:47:44Z</time>
      </trkpt>
      <trkpt lat="45.01308" lon="6.10949">
        <ele>2064.6</ele>
        <time>2022-12-29T11:47:45Z</time>
      </trkpt>
      <trkpt lat="45.01308" lon="6.10948">
        <ele>2066</ele>
        <time>2022-12-29T11:47:46Z</time>
      </trkpt>
      <trkpt lat="45.01307" lon="6.10947">
        <ele>2066</ele>
        <time>2022-12-29T11:47:47Z</time>
      </trkpt>
      <trkpt lat="45.01306" lon="6.10946">
        <ele>2066</ele>
        <time>2022-12-29T11:47:48Z</time>
      </trkpt>
      <trkpt lat="45.01306" lon="6.10945">
        <ele>2066</ele>
        <time>2022-12-29T11:47:49Z</time>
      </trkpt>
      <trkpt lat="45.01305" lon="6.10944">
        <ele>2066</ele>
        <time>2022-12-29T11:47:50Z</time>
      </trkpt>
      <trkpt lat="45.01305" lon="6.10942">
        <ele>2066</ele>
        <time>2022-12-29T11:47:51Z</time>
      </trkpt>
      <trkpt lat="45.01304" lon="6.10941">
        <ele>2066</ele>
        <time>2022-12-29T11:47:52Z</time>
      </trkpt>
      <trkpt lat="45.01304" lon="6.1094">
        <ele>2066</ele>
        <time>2022-12-29T11:47:53Z</time>
      </trkpt>
      <trkpt lat="45.01303" lon="6.10939">
        <ele>2066</ele>
        <time>2022-12-29T11:47:54Z</time>
      </trkpt>
      <trkpt lat="45.01303" lon="6.10938">
        <ele>2066</ele>
        <time>2022-12-29T11:47:55Z</time>
      </trkpt>
      <trkpt lat="45.01302" lon="6.10937">
        <ele>2068</ele>
        <time>2022-12-29T11:47:56Z</time>
      </trkpt>
      <trkpt lat="45.01302" lon="6.10936">
        <ele>2068</ele>
        <time>2022-12-29T11:47:57Z</time>
      </trkpt>
      <trkpt lat="45.01301" lon="6.10935">
        <ele>2068</ele>
        <time>2022-12-29T11:47:58Z</time>
      </trkpt>
      <trkpt lat="45.013" lon="6.10934">
        <ele>2068</ele>
        <time>2022-12-29T11:47:59Z</time>
      </trkpt>
      <trkpt lat="45.013" lon="6.10933">
        <ele>2068</ele>
        <time>2022-12-29T11:48:00Z</time>
      </trkpt>
      <trkpt lat="45.01299" lon="6.10932">
        <ele>2068</ele>
        <time>2022-12-29T11:48:01Z</time>
      </trkpt>
      <trkpt lat="45.01299" lon="6.10931">
        <ele>2068</ele>
        <time>2022-12-29T11:48:02Z</time>
      </trkpt>
      <trkpt lat="45.01298" lon="6.1093">
        <ele>2068</ele>
        <time>2022-12-29T11:48:03Z</time>
      </trkpt>
      <trkpt lat="45.01298" lon="6.10929">
        <ele>2068</ele>
        <time>2022-12-29T11:48:04Z</time>
      </trkpt>
      <trkpt lat="45.01297" lon="6.10928">
        <ele>2068</ele>
        <time>2022-12-29T11:48:05Z</time>
      </trkpt>
      <trkpt lat="45.01296" lon="6.10927">
        <ele>2070</ele>
        <time>2022-12-29T11:48:06Z</time>
      </trkpt>
      <trkpt lat="45.01295" lon="6.10927">
        <ele>2070</ele>
        <time>2022-12-29T11:48:07Z</time>
      </trkpt>
      <trkpt lat="45.01294" lon="6.10926">
        <ele>2070</ele>
        <time>2022-12-29T11:48:08Z</time>
      </trkpt>
      <trkpt lat="45.01293" lon="6.10926">
        <ele>2070</ele>
        <time>2022-12-29T11:48:09Z</time>
      </trkpt>
      <trkpt lat="45.01293" lon="6.10926">
        <ele>2070</ele>
        <time>2022-12-29T11:48:10Z</time>
      </trkpt>
      <trkpt lat="45.01292" lon="6.10925">
        <ele>2070</ele>
        <time>2022-12-29T11:48:11Z</time>
      </trkpt>
      <trkpt lat="45.01291" lon="6.10925">
        <ele>2070</ele>
        <time>2022-12-29T11:48:12Z</time>
      </trkpt>
      <trkpt lat="45.0129" lon="6.10925">
        <ele>2070</ele>
        <time>2022-12-29T11:48:13Z</time>
      </trkpt>
      <trkpt lat="45.01289" lon="6.10924">
        <ele>2070</ele>
        <time>2022-12-29T11:48:14Z</time>
      </trkpt>
      <trkpt lat="45.01288" lon="6.10924">
        <ele>2070</ele>
        <time>2022-12-29T11:48:15Z</time>
      </trkpt>
      <trkpt lat="45.01287" lon="6.10924">
        <ele>2072</ele>
        <time>2022-12-29T11:48:16Z</time>
      </trkpt>
      <trkpt lat="45.01286" lon="6.10923">
        <ele>2072</ele>
        <time>2022-12-29T11:48:17Z</time>
      </trkpt>
      <trkpt lat="45.01285" lon="6.10922">
        <ele>2072</ele>
        <time>2022-12-29T11:48:18Z</time>
      </trkpt>
      <trkpt lat="45.01285" lon="6.10922">
        <ele>2072</ele>
        <time>2022-12-29T11:48:19Z</time>
      </trkpt>
      <trkpt lat="45.01284" lon="6.10921">
        <ele>2072</ele>
        <time>2022-12-29T11:48:20Z</time>
      </trkpt>
      <trkpt lat="45.01284" lon="6.10921">
        <ele>2072</ele>
        <time>2022-12-29T11:48:21Z</time>
      </trkpt>
      <trkpt lat="45.01283" lon="6.1092">
        <ele>2072</ele>
        <time>2022-12-29T11:48:22Z</time>
      </trkpt>
      <trkpt lat="45.01282" lon="6.1092">
        <ele>2072</ele>
        <time>2022-12-29T11:48:23Z</time>
      </trkpt>
      <trkpt lat="45.01282" lon="6.10919">
        <ele>2072</ele>
        <time>2022-12-29T11:48:24Z</time>
      </trkpt>
      <trkpt lat="45.01281" lon="6.10918">
        <ele>2072</ele>
        <time>2022-12-29T11:48:25Z</time>
      </trkpt>
      <trkpt lat="45.0128" lon="6.10918">
        <ele>2072.4</ele>
        <time>2022-12-29T11:48:26Z</time>
      </trkpt>
      <trkpt lat="45.01278" lon="6.10915">
        <ele>2072.4</ele>
        <time>2022-12-29T11:48:27Z</time>
      </trkpt>
      <trkpt lat="45.01277" lon="6.10914">
        <ele>2072.4</ele>
        <time>2022-12-29T11:48:28Z</time>
      </trkpt>
      <trkpt lat="45.01277" lon="6.10913">
        <ele>2072.4</ele>
        <time>2022-12-29T11:48:29Z</time>
      </trkpt>
      <trkpt lat="45.01276" lon="6.10912">
        <ele>2072.4</ele>
        <time>2022-12-29T11:48:30Z</time>
      </trkpt>
      <trkpt lat="45.01275" lon="6.10912">
        <ele>2072.4</ele>
        <time>2022-12-29T11:48:31Z</time>
      </trkpt>
      <trkpt lat="45.01275" lon="6.10911">
        <ele>2072.4</ele>
        <time>2022-12-29T11:48:32Z</time>
      </trkpt>
      <trkpt lat="45.01274" lon="6.1091">
        <ele>2072.4</ele>
        <time>2022-12-29T11:48:33Z</time>
      </trkpt>
      <trkpt lat="45.01274" lon="6.1091">
        <ele>2072.4</ele>
        <time>2022-12-29T11:48:34Z</time>
      </trkpt>
      <trkpt lat="45.01273" lon="6.10909">
        <ele>2072.4</ele>
        <time>2022-12-29T11:48:35Z</time>
      </trkpt>
      <trkpt lat="45.01272" lon="6.10908">
        <ele>2073.2</ele>
        <time>2022-12-29T11:48:36Z</time>
      </trkpt>
      <trkpt lat="45.01272" lon="6.10907">
        <ele>2073.2</ele>
        <time>2022-12-29T11:48:37Z</time>
      </trkpt>
      <trkpt lat="45.01271" lon="6.10906">
        <ele>2073.2</ele>
        <time>2022-12-29T11:48:38Z</time>
      </trkpt>
      <trkpt lat="45.01271" lon="6.10905">
        <ele>2073.2</ele>
        <time>2022-12-29T11:48:39Z</time>
      </trkpt>
      <trkpt lat="45.0127" lon="6.10904">
        <ele>2073.2</ele>
        <time>2022-12-29T11:48:40Z</time>
      </trkpt>
      <trkpt lat="45.01269" lon="6.10903">
        <ele>2073.2</ele>
        <time>2022-12-29T11:48:41Z</time>
      </trkpt>
      <trkpt lat="45.01269" lon="6.10902">
        <ele>2073.2</ele>
        <time>2022-12-29T11:48:42Z</time>
      </trkpt>
      <trkpt lat="45.01268" lon="6.109">
        <ele>2073.2</ele>
        <time>2022-12-29T11:48:43Z</time>
      </trkpt>
      <trkpt lat="45.01268" lon="6.10899">
        <ele>2073.2</ele>
        <time>2022-12-29T11:48:44Z</time>
      </trkpt>
      <trkpt lat="45.01267" lon="6.10898">
        <ele>2073.2</ele>
        <time>2022-12-29T11:48:45Z</time>
      </trkpt>
      <trkpt lat="45.01266" lon="6.10897">
        <ele>2075.6</ele>
        <time>2022-12-29T11:48:46Z</time>
      </trkpt>
      <trkpt lat="45.01266" lon="6.10896">
        <ele>2075.6</ele>
        <time>2022-12-29T11:48:47Z</time>
      </trkpt>
      <trkpt lat="45.01265" lon="6.10896">
        <ele>2075.6</ele>
        <time>2022-12-29T11:48:48Z</time>
      </trkpt>
      <trkpt lat="45.01264" lon="6.10895">
        <ele>2075.6</ele>
        <time>2022-12-29T11:48:49Z</time>
      </trkpt>
      <trkpt lat="45.01264" lon="6.10894">
        <ele>2075.6</ele>
        <time>2022-12-29T11:48:50Z</time>
      </trkpt>
      <trkpt lat="45.01263" lon="6.10894">
        <ele>2075.6</ele>
        <time>2022-12-29T11:48:51Z</time>
      </trkpt>
      <trkpt lat="45.01262" lon="6.10893">
        <ele>2075.6</ele>
        <time>2022-12-29T11:48:52Z</time>
      </trkpt>
      <trkpt lat="45.01262" lon="6.10892">
        <ele>2075.6</ele>
        <time>2022-12-29T11:48:53Z</time>
      </trkpt>
      <trkpt lat="45.01261" lon="6.10891">
        <ele>2075.6</ele>
        <time>2022-12-29T11:48:54Z</time>
      </trkpt>
      <trkpt lat="45.01261" lon="6.10891">
        <ele>2075.6</ele>
        <time>2022-12-29T11:48:55Z</time>
      </trkpt>
      <trkpt lat="45.0126" lon="6.1089">
        <ele>2078.2</ele>
        <time>2022-12-29T11:48:56Z</time>
      </trkpt>
      <trkpt lat="45.01259" lon="6.1089">
        <ele>2078.2</ele>
        <time>2022-12-29T11:48:57Z</time>
      </trkpt>
      <trkpt lat="45.01259" lon="6.10889">
        <ele>2078.2</ele>
        <time>2022-12-29T11:48:58Z</time>
      </trkpt>
      <trkpt lat="45.01258" lon="6.10889">
        <ele>2078.2</ele>
        <time>2022-12-29T11:48:59Z</time>
      </trkpt>
      <trkpt lat="45.01257" lon="6.10888">
        <ele>2078.2</ele>
        <time>2022-12-29T11:49:00Z</time>
      </trkpt>
      <trkpt lat="45.01257" lon="6.10888">
        <ele>2078.2</ele>
        <time>2022-12-29T11:49:01Z</time>
      </trkpt>
      <trkpt lat="45.01256" lon="6.10887">
        <ele>2078.2</ele>
        <time>2022-12-29T11:49:02Z</time>
      </trkpt>
      <trkpt lat="45.01255" lon="6.10887">
        <ele>2078.2</ele>
        <time>2022-12-29T11:49:03Z</time>
      </trkpt>
      <trkpt lat="45.01255" lon="6.10887">
        <ele>2078.2</ele>
        <time>2022-12-29T11:49:04Z</time>
      </trkpt>
      <trkpt lat="45.01254" lon="6.10886">
        <ele>2078.2</ele>
        <time>2022-12-29T11:49:05Z</time>
      </trkpt>
      <trkpt lat="45.01253" lon="6.10886">
        <ele>2080.6</ele>
        <time>2022-12-29T11:49:06Z</time>
      </trkpt>
      <trkpt lat="45.01253" lon="6.10886">
        <ele>2080.6</ele>
        <time>2022-12-29T11:49:07Z</time>
      </trkpt>
      <trkpt lat="45.01253" lon="6.10886">
        <ele>2080.6</ele>
        <time>2022-12-29T11:49:08Z</time>
      </trkpt>
      <trkpt lat="45.01253" lon="6.10886">
        <ele>2080.6</ele>
        <time>2022-12-29T11:49:09Z</time>
      </trkpt>
      <trkpt lat="45.01252" lon="6.10885">
        <ele>2080.6</ele>
        <time>2022-12-29T11:49:10Z</time>
      </trkpt>
      <trkpt lat="45.01252" lon="6.10885">
        <ele>2080.6</ele>
        <time>2022-12-29T11:49:11Z</time>
      </trkpt>
      <trkpt lat="45.01252" lon="6.10885">
        <ele>2080.6</ele>
        <time>2022-12-29T11:49:12Z</time>
      </trkpt>
      <trkpt lat="45.01252" lon="6.10885">
        <ele>2080.6</ele>
        <time>2022-12-29T11:49:13Z</time>
      </trkpt>
      <trkpt lat="45.01252" lon="6.10885">
        <ele>2080.6</ele>
        <time>2022-12-29T11:49:14Z</time>
      </trkpt>
      <trkpt lat="45.01252" lon="6.10885">
        <ele>2080.6</ele>
        <time>2022-12-29T11:49:15Z</time>
      </trkpt>
      <trkpt lat="45.01252" lon="6.10885">
        <ele>2080.8</ele>
        <time>2022-12-29T11:49:16Z</time>
      </trkpt>
      <trkpt lat="45.01252" lon="6.10885">
        <ele>2080.8</ele>
        <time>2022-12-29T11:49:17Z</time>
      </trkpt>
      <trkpt lat="45.01251" lon="6.10885">
        <ele>2080.8</ele>
        <time>2022-12-29T11:49:18Z</time>
      </trkpt>
      <trkpt lat="45.01251" lon="6.10885">
        <ele>2080.8</ele>
        <time>2022-12-29T11:49:19Z</time>
      </trkpt>
      <trkpt lat="45.01251" lon="6.10885">
        <ele>2080.8</ele>
        <time>2022-12-29T11:49:20Z</time>
      </trkpt>
      <trkpt lat="45.01251" lon="6.10885">
        <ele>2080.8</ele>
        <time>2022-12-29T11:49:21Z</time>
      </trkpt>
      <trkpt lat="45.01251" lon="6.10885">
        <ele>2080.8</ele>
        <time>2022-12-29T11:49:22Z</time>
      </trkpt>
      <trkpt lat="45.01251" lon="6.10885">
        <ele>2080.8</ele>
        <time>2022-12-29T11:49:23Z</time>
      </trkpt>
      <trkpt lat="45.01251" lon="6.10885">
        <ele>2080.8</ele>
        <time>2022-12-29T11:49:24Z</time>
      </trkpt>
      <trkpt lat="45.01251" lon="6.10885">
        <ele>2080.8</ele>
        <time>2022-12-29T11:49:25Z</time>
      </trkpt>
      <trkpt lat="45.01251" lon="6.10885">
        <ele>2080.6</ele>
        <time>2022-12-29T11:49:26Z</time>
      </trkpt>
      <trkpt lat="45.01251" lon="6.10885">
        <ele>2080.6</ele>
        <time>2022-12-29T11:49:27Z</time>
      </trkpt>
      <trkpt lat="45.01251" lon="6.10885">
        <ele>2080.6</ele>
        <time>2022-12-29T11:49:28Z</time>
      </trkpt>
      <trkpt lat="45.01251" lon="6.10885">
        <ele>2080.6</ele>
        <time>2022-12-29T11:49:29Z</time>
      </trkpt>
      <trkpt lat="45.01251" lon="6.10885">
        <ele>2080.6</ele>
        <time>2022-12-29T11:49:30Z</time>
      </trkpt>
      <trkpt lat="45.01251" lon="6.10885">
        <ele>2080.6</ele>
        <time>2022-12-29T11:49:31Z</time>
      </trkpt>
      <trkpt lat="45.01251" lon="6.10885">
        <ele>2080.6</ele>
        <time>2022-12-29T11:49:32Z</time>
      </trkpt>
      <trkpt lat="45.01251" lon="6.10885">
        <ele>2080.6</ele>
        <time>2022-12-29T11:49:33Z</time>
      </trkpt>
      <trkpt lat="45.01251" lon="6.10885">
        <ele>2080.6</ele>
        <time>2022-12-29T11:49:34Z</time>
      </trkpt>
      <trkpt lat="45.01251" lon="6.10885">
        <ele>2080.6</ele>
        <time>2022-12-29T11:49:35Z</time>
      </trkpt>
      <trkpt lat="45.01251" lon="6.10885">
        <ele>2080.8</ele>
        <time>2022-12-29T11:49:36Z</time>
      </trkpt>
      <trkpt lat="45.01251" lon="6.10885">
        <ele>2080.8</ele>
        <time>2022-12-29T11:49:37Z</time>
      </trkpt>
      <trkpt lat="45.01251" lon="6.10885">
        <ele>2080.8</ele>
        <time>2022-12-29T11:49:38Z</time>
      </trkpt>
      <trkpt lat="45.01251" lon="6.10885">
        <ele>2080.8</ele>
        <time>2022-12-29T11:49:39Z</time>
      </trkpt>
      <trkpt lat="45.01251" lon="6.10885">
        <ele>2080.8</ele>
        <time>2022-12-29T11:49:40Z</time>
      </trkpt>
      <trkpt lat="45.01251" lon="6.10885">
        <ele>2080.8</ele>
        <time>2022-12-29T11:49:41Z</time>
      </trkpt>
      <trkpt lat="45.0125" lon="6.10885">
        <ele>2080.8</ele>
        <time>2022-12-29T11:49:42Z</time>
      </trkpt>
      <trkpt lat="45.0125" lon="6.10885">
        <ele>2080.8</ele>
        <time>2022-12-29T11:49:43Z</time>
      </trkpt>
      <trkpt lat="45.0125" lon="6.10884">
        <ele>2080.8</ele>
        <time>2022-12-29T11:49:44Z</time>
      </trkpt>
      <trkpt lat="45.0125" lon="6.10884">
        <ele>2080.8</ele>
        <time>2022-12-29T11:49:45Z</time>
      </trkpt>
      <trkpt lat="45.0125" lon="6.10884">
        <ele>2081</ele>
        <time>2022-12-29T11:49:46Z</time>
      </trkpt>
      <trkpt lat="45.0125" lon="6.10884">
        <ele>2081</ele>
        <time>2022-12-29T11:49:47Z</time>
      </trkpt>
      <trkpt lat="45.0125" lon="6.10884">
        <ele>2081</ele>
        <time>2022-12-29T11:49:48Z</time>
      </trkpt>
      <trkpt lat="45.0125" lon="6.10884">
        <ele>2081</ele>
        <time>2022-12-29T11:49:49Z</time>
      </trkpt>
      <trkpt lat="45.0125" lon="6.10884">
        <ele>2081</ele>
        <time>2022-12-29T11:49:50Z</time>
      </trkpt>
      <trkpt lat="45.0125" lon="6.10884">
        <ele>2081</ele>
        <time>2022-12-29T11:49:51Z</time>
      </trkpt>
      <trkpt lat="45.0125" lon="6.10884">
        <ele>2081</ele>
        <time>2022-12-29T11:49:52Z</time>
      </trkpt>
      <trkpt lat="45.0125" lon="6.10884">
        <ele>2081</ele>
        <time>2022-12-29T11:49:53Z</time>
      </trkpt>
      <trkpt lat="45.0125" lon="6.10884">
        <ele>2081</ele>
        <time>2022-12-29T11:49:54Z</time>
      </trkpt>
      <trkpt lat="45.0125" lon="6.10884">
        <ele>2081</ele>
        <time>2022-12-29T11:49:55Z</time>
      </trkpt>
      <trkpt lat="45.0125" lon="6.10884">
        <ele>2081</ele>
        <time>2022-12-29T11:49:56Z</time>
      </trkpt>
      <trkpt lat="45.0125" lon="6.10884">
        <ele>2081</ele>
        <time>2022-12-29T11:49:57Z</time>
      </trkpt>
      <trkpt lat="45.0125" lon="6.10884">
        <ele>2081</ele>
        <time>2022-12-29T11:49:58Z</time>
      </trkpt>
      <trkpt lat="45.0125" lon="6.10884">
        <ele>2081</ele>
        <time>2022-12-29T11:49:59Z</time>
      </trkpt>
      <trkpt lat="45.0125" lon="6.10884">
        <ele>2081</ele>
        <time>2022-12-29T11:50:00Z</time>
      </trkpt>
      <trkpt lat="45.0125" lon="6.10884">
        <ele>2081</ele>
        <time>2022-12-29T11:50:01Z</time>
      </trkpt>
      <trkpt lat="45.0125" lon="6.10884">
        <ele>2081</ele>
        <time>2022-12-29T11:50:02Z</time>
      </trkpt>
      <trkpt lat="45.0125" lon="6.10884">
        <ele>2081</ele>
        <time>2022-12-29T11:50:03Z</time>
      </trkpt>
      <trkpt lat="45.0125" lon="6.10884">
        <ele>2081</ele>
        <time>2022-12-29T11:50:04Z</time>
      </trkpt>
      <trkpt lat="45.0125" lon="6.10884">
        <ele>2081</ele>
        <time>2022-12-29T11:50:05Z</time>
      </trkpt>
      <trkpt lat="45.01249" lon="6.10884">
        <ele>2080.8</ele>
        <time>2022-12-29T11:50:06Z</time>
      </trkpt>
      <trkpt lat="45.01249" lon="6.10884">
        <ele>2080.8</ele>
        <time>2022-12-29T11:50:07Z</time>
      </trkpt>
      <trkpt lat="45.01249" lon="6.10884">
        <ele>2080.8</ele>
        <time>2022-12-29T11:50:08Z</time>
      </trkpt>
      <trkpt lat="45.01249" lon="6.10884">
        <ele>2080.8</ele>
        <time>2022-12-29T11:50:09Z</time>
      </trkpt>
      <trkpt lat="45.01249" lon="6.10884">
        <ele>2080.8</ele>
        <time>2022-12-29T11:50:10Z</time>
      </trkpt>
      <trkpt lat="45.01249" lon="6.10884">
        <ele>2080.8</ele>
        <time>2022-12-29T11:50:11Z</time>
      </trkpt>
      <trkpt lat="45.01249" lon="6.10884">
        <ele>2080.8</ele>
        <time>2022-12-29T11:50:12Z</time>
      </trkpt>
      <trkpt lat="45.01249" lon="6.10884">
        <ele>2080.8</ele>
        <time>2022-12-29T11:50:13Z</time>
      </trkpt>
      <trkpt lat="45.01249" lon="6.10884">
        <ele>2081.2</ele>
        <time>2022-12-29T11:50:16Z</time>
      </trkpt>
      <trkpt lat="45.01249" lon="6.10884">
        <ele>2081.2</ele>
        <time>2022-12-29T11:50:17Z</time>
      </trkpt>
      <trkpt lat="45.01249" lon="6.10884">
        <ele>2081.2</ele>
        <time>2022-12-29T11:50:18Z</time>
      </trkpt>
      <trkpt lat="45.01249" lon="6.10884">
        <ele>2081.2</ele>
        <time>2022-12-29T11:50:19Z</time>
      </trkpt>
      <trkpt lat="45.01249" lon="6.10884">
        <ele>2081.2</ele>
        <time>2022-12-29T11:50:20Z</time>
      </trkpt>
      <trkpt lat="45.01249" lon="6.10884">
        <ele>2081.2</ele>
        <time>2022-12-29T11:50:21Z</time>
      </trkpt>
      <trkpt lat="45.01249" lon="6.10884">
        <ele>2081.2</ele>
        <time>2022-12-29T11:50:22Z</time>
      </trkpt>
      <trkpt lat="45.01249" lon="6.10884">
        <ele>2081.2</ele>
        <time>2022-12-29T11:50:23Z</time>
      </trkpt>
      <trkpt lat="45.01249" lon="6.10884">
        <ele>2081.2</ele>
        <time>2022-12-29T11:50:24Z</time>
      </trkpt>
      <trkpt lat="45.01249" lon="6.10884">
        <ele>2081.2</ele>
        <time>2022-12-29T11:50:25Z</time>
      </trkpt>
      <trkpt lat="45.01249" lon="6.10884">
        <ele>2081.6</ele>
        <time>2022-12-29T11:50:26Z</time>
      </trkpt>
      <trkpt lat="45.01249" lon="6.10884">
        <ele>2081.6</ele>
        <time>2022-12-29T11:50:27Z</time>
      </trkpt>
      <trkpt lat="45.01249" lon="6.10884">
        <ele>2081.6</ele>
        <time>2022-12-29T11:50:28Z</time>
      </trkpt>
      <trkpt lat="45.01249" lon="6.10884">
        <ele>2081.6</ele>
        <time>2022-12-29T11:50:29Z</time>
      </trkpt>
      <trkpt lat="45.01249" lon="6.10884">
        <ele>2081.6</ele>
        <time>2022-12-29T11:50:30Z</time>
      </trkpt>
      <trkpt lat="45.01249" lon="6.10884">
        <ele>2081.6</ele>
        <time>2022-12-29T11:50:31Z</time>
      </trkpt>
      <trkpt lat="45.01248" lon="6.10884">
        <ele>2081.6</ele>
        <time>2022-12-29T11:50:32Z</time>
      </trkpt>
      <trkpt lat="45.01248" lon="6.10884">
        <ele>2081.6</ele>
        <time>2022-12-29T11:50:33Z</time>
      </trkpt>
      <trkpt lat="45.01248" lon="6.10884">
        <ele>2081.6</ele>
        <time>2022-12-29T11:50:34Z</time>
      </trkpt>
      <trkpt lat="45.01248" lon="6.10884">
        <ele>2081.6</ele>
        <time>2022-12-29T11:50:35Z</time>
      </trkpt>
      <trkpt lat="45.01248" lon="6.10883">
        <ele>2081.4</ele>
        <time>2022-12-29T11:50:36Z</time>
      </trkpt>
      <trkpt lat="45.01248" lon="6.10883">
        <ele>2081.4</ele>
        <time>2022-12-29T11:50:37Z</time>
      </trkpt>
      <trkpt lat="45.01248" lon="6.10883">
        <ele>2081.4</ele>
        <time>2022-12-29T11:50:38Z</time>
      </trkpt>
      <trkpt lat="45.01248" lon="6.10883">
        <ele>2081.4</ele>
        <time>2022-12-29T11:50:39Z</time>
      </trkpt>
      <trkpt lat="45.01248" lon="6.10883">
        <ele>2081.4</ele>
        <time>2022-12-29T11:50:40Z</time>
      </trkpt>
      <trkpt lat="45.01248" lon="6.10883">
        <ele>2081.4</ele>
        <time>2022-12-29T11:50:44Z</time>
      </trkpt>
      <trkpt lat="45.01248" lon="6.10883">
        <ele>2081.4</ele>
        <time>2022-12-29T11:50:45Z</time>
      </trkpt>
      <trkpt lat="45.01248" lon="6.10883">
        <ele>2081.2</ele>
        <time>2022-12-29T11:50:46Z</time>
      </trkpt>
      <trkpt lat="45.01248" lon="6.10883">
        <ele>2081.2</ele>
        <time>2022-12-29T11:50:47Z</time>
      </trkpt>
      <trkpt lat="45.01248" lon="6.10883">
        <ele>2081.2</ele>
        <time>2022-12-29T11:50:48Z</time>
      </trkpt>
      <trkpt lat="45.01248" lon="6.10883">
        <ele>2081.2</ele>
        <time>2022-12-29T11:50:49Z</time>
      </trkpt>
      <trkpt lat="45.01248" lon="6.10883">
        <ele>2081.2</ele>
        <time>2022-12-29T11:50:50Z</time>
      </trkpt>
      <trkpt lat="45.01248" lon="6.10883">
        <ele>2081.2</ele>
        <time>2022-12-29T11:50:51Z</time>
      </trkpt>
      <trkpt lat="45.01248" lon="6.10883">
        <ele>2081.2</ele>
        <time>2022-12-29T11:50:52Z</time>
      </trkpt>
      <trkpt lat="45.01248" lon="6.10883">
        <ele>2081.2</ele>
        <time>2022-12-29T11:50:53Z</time>
      </trkpt>
      <trkpt lat="45.01248" lon="6.10883">
        <ele>2081.2</ele>
        <time>2022-12-29T11:50:54Z</time>
      </trkpt>
      <trkpt lat="45.01248" lon="6.10883">
        <ele>2081.2</ele>
        <time>2022-12-29T11:50:55Z</time>
      </trkpt>
      <trkpt lat="45.01248" lon="6.10883">
        <ele>2082.2</ele>
        <time>2022-12-29T11:50:56Z</time>
      </trkpt>
      <trkpt lat="45.01248" lon="6.10883">
        <ele>2082.2</ele>
        <time>2022-12-29T11:50:57Z</time>
      </trkpt>
      <trkpt lat="45.01248" lon="6.10883">
        <ele>2082.2</ele>
        <time>2022-12-29T11:50:58Z</time>
      </trkpt>
      <trkpt lat="45.01247" lon="6.10883">
        <ele>2082.2</ele>
        <time>2022-12-29T11:50:59Z</time>
      </trkpt>
      <trkpt lat="45.01247" lon="6.10883">
        <ele>2082.2</ele>
        <time>2022-12-29T11:51:00Z</time>
      </trkpt>
      <trkpt lat="45.01247" lon="6.10883">
        <ele>2082.2</ele>
        <time>2022-12-29T11:51:01Z</time>
      </trkpt>
      <trkpt lat="45.01247" lon="6.10883">
        <ele>2082.2</ele>
        <time>2022-12-29T11:51:02Z</time>
      </trkpt>
      <trkpt lat="45.01247" lon="6.10883">
        <ele>2082.2</ele>
        <time>2022-12-29T11:51:03Z</time>
      </trkpt>
      <trkpt lat="45.01247" lon="6.10883">
        <ele>2082.2</ele>
        <time>2022-12-29T11:51:04Z</time>
      </trkpt>
      <trkpt lat="45.01247" lon="6.10883">
        <ele>2082.2</ele>
        <time>2022-12-29T11:51:05Z</time>
      </trkpt>
      <trkpt lat="45.01247" lon="6.10883">
        <ele>2081.8</ele>
        <time>2022-12-29T11:51:06Z</time>
      </trkpt>
      <trkpt lat="45.01247" lon="6.10883">
        <ele>2081.8</ele>
        <time>2022-12-29T11:51:07Z</time>
      </trkpt>
      <trkpt lat="45.01247" lon="6.10883">
        <ele>2081.8</ele>
        <time>2022-12-29T11:51:08Z</time>
      </trkpt>
      <trkpt lat="45.01247" lon="6.10883">
        <ele>2081.8</ele>
        <time>2022-12-29T11:51:09Z</time>
      </trkpt>
      <trkpt lat="45.01247" lon="6.10883">
        <ele>2081.8</ele>
        <time>2022-12-29T11:51:10Z</time>
      </trkpt>
      <trkpt lat="45.01247" lon="6.10883">
        <ele>2081.8</ele>
        <time>2022-12-29T11:51:11Z</time>
      </trkpt>
      <trkpt lat="45.01247" lon="6.10883">
        <ele>2081.8</ele>
        <time>2022-12-29T11:51:12Z</time>
      </trkpt>
      <trkpt lat="45.01247" lon="6.10883">
        <ele>2081.8</ele>
        <time>2022-12-29T11:51:13Z</time>
      </trkpt>
      <trkpt lat="45.01247" lon="6.10883">
        <ele>2081.8</ele>
        <time>2022-12-29T11:51:14Z</time>
      </trkpt>
      <trkpt lat="45.01247" lon="6.10883">
        <ele>2081.8</ele>
        <time>2022-12-29T11:51:15Z</time>
      </trkpt>
      <trkpt lat="45.01247" lon="6.10883">
        <ele>2081.2</ele>
        <time>2022-12-29T11:51:16Z</time>
      </trkpt>
      <trkpt lat="45.01247" lon="6.10883">
        <ele>2081.2</ele>
        <time>2022-12-29T11:51:17Z</time>
      </trkpt>
      <trkpt lat="45.01247" lon="6.10883">
        <ele>2081.2</ele>
        <time>2022-12-29T11:51:18Z</time>
      </trkpt>
      <trkpt lat="45.01247" lon="6.10883">
        <ele>2081.2</ele>
        <time>2022-12-29T11:51:19Z</time>
      </trkpt>
      <trkpt lat="45.01247" lon="6.10883">
        <ele>2081.2</ele>
        <time>2022-12-29T11:51:20Z</time>
      </trkpt>
      <trkpt lat="45.01247" lon="6.10883">
        <ele>2081.2</ele>
        <time>2022-12-29T11:51:21Z</time>
      </trkpt>
      <trkpt lat="45.01247" lon="6.10883">
        <ele>2081.2</ele>
        <time>2022-12-29T11:51:22Z</time>
      </trkpt>
      <trkpt lat="45.01246" lon="6.10883">
        <ele>2081.2</ele>
        <time>2022-12-29T11:51:23Z</time>
      </trkpt>
      <trkpt lat="45.01246" lon="6.10883">
        <ele>2081.2</ele>
        <time>2022-12-29T11:51:24Z</time>
      </trkpt>
      <trkpt lat="45.01246" lon="6.10883">
        <ele>2081.2</ele>
        <time>2022-12-29T11:51:25Z</time>
      </trkpt>
      <trkpt lat="45.01246" lon="6.10883">
        <ele>2081.4</ele>
        <time>2022-12-29T11:51:26Z</time>
      </trkpt>
      <trkpt lat="45.01246" lon="6.10883">
        <ele>2081.4</ele>
        <time>2022-12-29T11:51:30Z</time>
      </trkpt>
      <trkpt lat="45.01246" lon="6.10883">
        <ele>2081.4</ele>
        <time>2022-12-29T11:51:31Z</time>
      </trkpt>
      <trkpt lat="45.01246" lon="6.10882">
        <ele>2081.4</ele>
        <time>2022-12-29T11:51:32Z</time>
      </trkpt>
      <trkpt lat="45.01246" lon="6.10882">
        <ele>2081.4</ele>
        <time>2022-12-29T11:51:33Z</time>
      </trkpt>
      <trkpt lat="45.01246" lon="6.10882">
        <ele>2081.4</ele>
        <time>2022-12-29T11:51:34Z</time>
      </trkpt>
      <trkpt lat="45.01246" lon="6.10882">
        <ele>2081.4</ele>
        <time>2022-12-29T11:51:35Z</time>
      </trkpt>
      <trkpt lat="45.01246" lon="6.10882">
        <ele>2081.2</ele>
        <time>2022-12-29T11:51:36Z</time>
      </trkpt>
      <trkpt lat="45.01246" lon="6.10882">
        <ele>2081.2</ele>
        <time>2022-12-29T11:51:37Z</time>
      </trkpt>
      <trkpt lat="45.01246" lon="6.10882">
        <ele>2081.2</ele>
        <time>2022-12-29T11:51:38Z</time>
      </trkpt>
      <trkpt lat="45.01246" lon="6.10882">
        <ele>2081.2</ele>
        <time>2022-12-29T11:51:39Z</time>
      </trkpt>
      <trkpt lat="45.01246" lon="6.10882">
        <ele>2081.2</ele>
        <time>2022-12-29T11:51:40Z</time>
      </trkpt>
      <trkpt lat="45.01246" lon="6.10882">
        <ele>2081.2</ele>
        <time>2022-12-29T11:51:41Z</time>
      </trkpt>
      <trkpt lat="45.01246" lon="6.10882">
        <ele>2081.2</ele>
        <time>2022-12-29T11:51:42Z</time>
      </trkpt>
      <trkpt lat="45.01246" lon="6.10882">
        <ele>2081.2</ele>
        <time>2022-12-29T11:51:43Z</time>
      </trkpt>
      <trkpt lat="45.01246" lon="6.10882">
        <ele>2081.2</ele>
        <time>2022-12-29T11:51:44Z</time>
      </trkpt>
      <trkpt lat="45.01246" lon="6.10882">
        <ele>2081.2</ele>
        <time>2022-12-29T11:51:45Z</time>
      </trkpt>
      <trkpt lat="45.01246" lon="6.10882">
        <ele>2080.4</ele>
        <time>2022-12-29T11:51:46Z</time>
      </trkpt>
      <trkpt lat="45.01246" lon="6.10882">
        <ele>2080.4</ele>
        <time>2022-12-29T11:51:47Z</time>
      </trkpt>
      <trkpt lat="45.01246" lon="6.10882">
        <ele>2080.4</ele>
        <time>2022-12-29T11:51:48Z</time>
      </trkpt>
      <trkpt lat="45.01246" lon="6.10882">
        <ele>2080.4</ele>
        <time>2022-12-29T11:51:51Z</time>
      </trkpt>
      <trkpt lat="45.01246" lon="6.10882">
        <ele>2080.4</ele>
        <time>2022-12-29T11:51:52Z</time>
      </trkpt>
      <trkpt lat="45.01245" lon="6.10882">
        <ele>2080.4</ele>
        <time>2022-12-29T11:51:53Z</time>
      </trkpt>
      <trkpt lat="45.01245" lon="6.10882">
        <ele>2080.4</ele>
        <time>2022-12-29T11:51:54Z</time>
      </trkpt>
      <trkpt lat="45.01245" lon="6.10882">
        <ele>2080.4</ele>
        <time>2022-12-29T11:51:55Z</time>
      </trkpt>
      <trkpt lat="45.01245" lon="6.10882">
        <ele>2080.6</ele>
        <time>2022-12-29T11:51:56Z</time>
      </trkpt>
      <trkpt lat="45.01245" lon="6.10882">
        <ele>2080.6</ele>
        <time>2022-12-29T11:51:57Z</time>
      </trkpt>
      <trkpt lat="45.01245" lon="6.10882">
        <ele>2080.6</ele>
        <time>2022-12-29T11:51:58Z</time>
      </trkpt>
      <trkpt lat="45.01245" lon="6.10882">
        <ele>2080.6</ele>
        <time>2022-12-29T11:51:59Z</time>
      </trkpt>
      <trkpt lat="45.01245" lon="6.10882">
        <ele>2080.6</ele>
        <time>2022-12-29T11:52:00Z</time>
      </trkpt>
      <trkpt lat="45.01245" lon="6.10882">
        <ele>2080.6</ele>
        <time>2022-12-29T11:52:01Z</time>
      </trkpt>
      <trkpt lat="45.01245" lon="6.10882">
        <ele>2080.6</ele>
        <time>2022-12-29T11:52:02Z</time>
      </trkpt>
      <trkpt lat="45.01245" lon="6.10882">
        <ele>2080.6</ele>
        <time>2022-12-29T11:52:03Z</time>
      </trkpt>
      <trkpt lat="45.01245" lon="6.10882">
        <ele>2080.6</ele>
        <time>2022-12-29T11:52:04Z</time>
      </trkpt>
      <trkpt lat="45.01245" lon="6.10882">
        <ele>2080.6</ele>
        <time>2022-12-29T11:52:05Z</time>
      </trkpt>
      <trkpt lat="45.01245" lon="6.10882">
        <ele>2080.6</ele>
        <time>2022-12-29T11:52:06Z</time>
      </trkpt>
      <trkpt lat="45.01245" lon="6.10882">
        <ele>2080.6</ele>
        <time>2022-12-29T11:52:07Z</time>
      </trkpt>
      <trkpt lat="45.01245" lon="6.10882">
        <ele>2080.6</ele>
        <time>2022-12-29T11:52:08Z</time>
      </trkpt>
      <trkpt lat="45.01245" lon="6.10882">
        <ele>2080.6</ele>
        <time>2022-12-29T11:52:09Z</time>
      </trkpt>
      <trkpt lat="45.01245" lon="6.10882">
        <ele>2080.6</ele>
        <time>2022-12-29T11:52:10Z</time>
      </trkpt>
      <trkpt lat="45.01245" lon="6.10882">
        <ele>2080.6</ele>
        <time>2022-12-29T11:52:11Z</time>
      </trkpt>
      <trkpt lat="45.01245" lon="6.10882">
        <ele>2080.6</ele>
        <time>2022-12-29T11:52:12Z</time>
      </trkpt>
      <trkpt lat="45.01245" lon="6.10882">
        <ele>2080.6</ele>
        <time>2022-12-29T11:52:13Z</time>
      </trkpt>
      <trkpt lat="45.01245" lon="6.10882">
        <ele>2080.6</ele>
        <time>2022-12-29T11:52:14Z</time>
      </trkpt>
      <trkpt lat="45.01245" lon="6.10882">
        <ele>2080.6</ele>
        <time>2022-12-29T11:52:15Z</time>
      </trkpt>
      <trkpt lat="45.01245" lon="6.10882">
        <ele>2082</ele>
        <time>2022-12-29T11:52:16Z</time>
      </trkpt>
      <trkpt lat="45.01244" lon="6.10882">
        <ele>2082</ele>
        <time>2022-12-29T11:52:17Z</time>
      </trkpt>
      <trkpt lat="45.01244" lon="6.10882">
        <ele>2082</ele>
        <time>2022-12-29T11:52:18Z</time>
      </trkpt>
      <trkpt lat="45.01244" lon="6.10882">
        <ele>2082</ele>
        <time>2022-12-29T11:52:19Z</time>
      </trkpt>
      <trkpt lat="45.01244" lon="6.10882">
        <ele>2082</ele>
        <time>2022-12-29T11:52:20Z</time>
      </trkpt>
      <trkpt lat="45.01244" lon="6.10882">
        <ele>2082</ele>
        <time>2022-12-29T11:52:21Z</time>
      </trkpt>
      <trkpt lat="45.01244" lon="6.10882">
        <ele>2082</ele>
        <time>2022-12-29T11:52:22Z</time>
      </trkpt>
      <trkpt lat="45.01244" lon="6.10882">
        <ele>2082</ele>
        <time>2022-12-29T11:52:23Z</time>
      </trkpt>
      <trkpt lat="45.01244" lon="6.10881">
        <ele>2082</ele>
        <time>2022-12-29T11:52:24Z</time>
      </trkpt>
      <trkpt lat="45.01244" lon="6.10881">
        <ele>2082</ele>
        <time>2022-12-29T11:52:25Z</time>
      </trkpt>
      <trkpt lat="45.01244" lon="6.10881">
        <ele>2081.6</ele>
        <time>2022-12-29T11:52:26Z</time>
      </trkpt>
      <trkpt lat="45.01244" lon="6.10881">
        <ele>2081.6</ele>
        <time>2022-12-29T11:52:27Z</time>
      </trkpt>
      <trkpt lat="45.01244" lon="6.10881">
        <ele>2081.6</ele>
        <time>2022-12-29T11:52:28Z</time>
      </trkpt>
      <trkpt lat="45.01244" lon="6.10881">
        <ele>2081.6</ele>
        <time>2022-12-29T11:52:29Z</time>
      </trkpt>
      <trkpt lat="45.01244" lon="6.10881">
        <ele>2081.6</ele>
        <time>2022-12-29T11:52:30Z</time>
      </trkpt>
      <trkpt lat="45.01244" lon="6.10881">
        <ele>2081.6</ele>
        <time>2022-12-29T11:52:31Z</time>
      </trkpt>
      <trkpt lat="45.01244" lon="6.10881">
        <ele>2081.6</ele>
        <time>2022-12-29T11:52:32Z</time>
      </trkpt>
      <trkpt lat="45.01244" lon="6.10881">
        <ele>2081.6</ele>
        <time>2022-12-29T11:52:33Z</time>
      </trkpt>
      <trkpt lat="45.01244" lon="6.10881">
        <ele>2081.6</ele>
        <time>2022-12-29T11:52:34Z</time>
      </trkpt>
      <trkpt lat="45.01244" lon="6.10881">
        <ele>2081.6</ele>
        <time>2022-12-29T11:52:35Z</time>
      </trkpt>
      <trkpt lat="45.01244" lon="6.10881">
        <ele>2080.2</ele>
        <time>2022-12-29T11:52:36Z</time>
      </trkpt>
      <trkpt lat="45.01244" lon="6.10881">
        <ele>2080.2</ele>
        <time>2022-12-29T11:52:37Z</time>
      </trkpt>
      <trkpt lat="45.01244" lon="6.10881">
        <ele>2080.2</ele>
        <time>2022-12-29T11:52:38Z</time>
      </trkpt>
      <trkpt lat="45.01244" lon="6.10881">
        <ele>2080.2</ele>
        <time>2022-12-29T11:52:39Z</time>
      </trkpt>
      <trkpt lat="45.01244" lon="6.10881">
        <ele>2080.2</ele>
        <time>2022-12-29T11:52:40Z</time>
      </trkpt>
      <trkpt lat="45.01243" lon="6.10881">
        <ele>2080.2</ele>
        <time>2022-12-29T11:52:41Z</time>
      </trkpt>
      <trkpt lat="45.01243" lon="6.10881">
        <ele>2080.2</ele>
        <time>2022-12-29T11:52:42Z</time>
      </trkpt>
      <trkpt lat="45.01243" lon="6.10881">
        <ele>2080.2</ele>
        <time>2022-12-29T11:52:43Z</time>
      </trkpt>
      <trkpt lat="45.01243" lon="6.10881">
        <ele>2080.2</ele>
        <time>2022-12-29T11:52:44Z</time>
      </trkpt>
      <trkpt lat="45.01243" lon="6.10881">
        <ele>2080.2</ele>
        <time>2022-12-29T11:52:45Z</time>
      </trkpt>
      <trkpt lat="45.01243" lon="6.10881">
        <ele>2079.8</ele>
        <time>2022-12-29T11:52:46Z</time>
      </trkpt>
      <trkpt lat="45.01243" lon="6.10881">
        <ele>2079.8</ele>
        <time>2022-12-29T11:52:47Z</time>
      </trkpt>
      <trkpt lat="45.01243" lon="6.10881">
        <ele>2079.8</ele>
        <time>2022-12-29T11:52:48Z</time>
      </trkpt>
      <trkpt lat="45.01243" lon="6.10881">
        <ele>2079.8</ele>
        <time>2022-12-29T11:52:49Z</time>
      </trkpt>
      <trkpt lat="45.01243" lon="6.10881">
        <ele>2079.8</ele>
        <time>2022-12-29T11:52:50Z</time>
      </trkpt>
      <trkpt lat="45.01243" lon="6.10881">
        <ele>2079.8</ele>
        <time>2022-12-29T11:52:51Z</time>
      </trkpt>
      <trkpt lat="45.01243" lon="6.10881">
        <ele>2079.8</ele>
        <time>2022-12-29T11:52:52Z</time>
      </trkpt>
      <trkpt lat="45.01243" lon="6.10881">
        <ele>2079.8</ele>
        <time>2022-12-29T11:52:53Z</time>
      </trkpt>
      <trkpt lat="45.01243" lon="6.10881">
        <ele>2079.8</ele>
        <time>2022-12-29T11:52:54Z</time>
      </trkpt>
      <trkpt lat="45.01243" lon="6.10881">
        <ele>2079.8</ele>
        <time>2022-12-29T11:52:55Z</time>
      </trkpt>
      <trkpt lat="45.01243" lon="6.10881">
        <ele>2081</ele>
        <time>2022-12-29T11:52:56Z</time>
      </trkpt>
      <trkpt lat="45.01243" lon="6.10881">
        <ele>2081</ele>
        <time>2022-12-29T11:52:57Z</time>
      </trkpt>
      <trkpt lat="45.01243" lon="6.10881">
        <ele>2081</ele>
        <time>2022-12-29T11:52:58Z</time>
      </trkpt>
      <trkpt lat="45.01243" lon="6.10881">
        <ele>2081</ele>
        <time>2022-12-29T11:52:59Z</time>
      </trkpt>
      <trkpt lat="45.01243" lon="6.10881">
        <ele>2081</ele>
        <time>2022-12-29T11:53:00Z</time>
      </trkpt>
      <trkpt lat="45.01243" lon="6.10881">
        <ele>2081</ele>
        <time>2022-12-29T11:53:01Z</time>
      </trkpt>
      <trkpt lat="45.01243" lon="6.10881">
        <ele>2081</ele>
        <time>2022-12-29T11:53:02Z</time>
      </trkpt>
      <trkpt lat="45.01243" lon="6.10881">
        <ele>2081</ele>
        <time>2022-12-29T11:53:03Z</time>
      </trkpt>
      <trkpt lat="45.01243" lon="6.10881">
        <ele>2081</ele>
        <time>2022-12-29T11:53:04Z</time>
      </trkpt>
      <trkpt lat="45.01242" lon="6.10881">
        <ele>2081</ele>
        <time>2022-12-29T11:53:05Z</time>
      </trkpt>
      <trkpt lat="45.01242" lon="6.10881">
        <ele>2080.8</ele>
        <time>2022-12-29T11:53:06Z</time>
      </trkpt>
      <trkpt lat="45.01242" lon="6.10881">
        <ele>2080.8</ele>
        <time>2022-12-29T11:53:07Z</time>
      </trkpt>
      <trkpt lat="45.01242" lon="6.10881">
        <ele>2080.8</ele>
        <time>2022-12-29T11:53:08Z</time>
      </trkpt>
      <trkpt lat="45.01242" lon="6.10881">
        <ele>2080.8</ele>
        <time>2022-12-29T11:53:09Z</time>
      </trkpt>
      <trkpt lat="45.01242" lon="6.10881">
        <ele>2080.8</ele>
        <time>2022-12-29T11:53:10Z</time>
      </trkpt>
      <trkpt lat="45.01242" lon="6.10881">
        <ele>2080.8</ele>
        <time>2022-12-29T11:53:11Z</time>
      </trkpt>
      <trkpt lat="45.01242" lon="6.10881">
        <ele>2080.8</ele>
        <time>2022-12-29T11:53:12Z</time>
      </trkpt>
      <trkpt lat="45.01242" lon="6.10881">
        <ele>2080.8</ele>
        <time>2022-12-29T11:53:13Z</time>
      </trkpt>
      <trkpt lat="45.01242" lon="6.10881">
        <ele>2080.8</ele>
        <time>2022-12-29T11:53:14Z</time>
      </trkpt>
      <trkpt lat="45.01242" lon="6.1088">
        <ele>2080.8</ele>
        <time>2022-12-29T11:53:15Z</time>
      </trkpt>
      <trkpt lat="45.01242" lon="6.1088">
        <ele>2080.2</ele>
        <time>2022-12-29T11:53:16Z</time>
      </trkpt>
      <trkpt lat="45.01242" lon="6.1088">
        <ele>2080.2</ele>
        <time>2022-12-29T11:53:17Z</time>
      </trkpt>
      <trkpt lat="45.01242" lon="6.1088">
        <ele>2080.2</ele>
        <time>2022-12-29T11:53:18Z</time>
      </trkpt>
      <trkpt lat="45.01242" lon="6.1088">
        <ele>2080.2</ele>
        <time>2022-12-29T11:53:19Z</time>
      </trkpt>
      <trkpt lat="45.01242" lon="6.1088">
        <ele>2080.2</ele>
        <time>2022-12-29T11:53:20Z</time>
      </trkpt>
      <trkpt lat="45.01242" lon="6.1088">
        <ele>2080.2</ele>
        <time>2022-12-29T11:53:21Z</time>
      </trkpt>
      <trkpt lat="45.01242" lon="6.1088">
        <ele>2080.2</ele>
        <time>2022-12-29T11:53:22Z</time>
      </trkpt>
      <trkpt lat="45.01242" lon="6.1088">
        <ele>2080.2</ele>
        <time>2022-12-29T11:53:23Z</time>
      </trkpt>
      <trkpt lat="45.01242" lon="6.1088">
        <ele>2080.2</ele>
        <time>2022-12-29T11:53:24Z</time>
      </trkpt>
      <trkpt lat="45.01242" lon="6.1088">
        <ele>2080.2</ele>
        <time>2022-12-29T11:53:25Z</time>
      </trkpt>
      <trkpt lat="45.01242" lon="6.1088">
        <ele>2079.4</ele>
        <time>2022-12-29T11:53:26Z</time>
      </trkpt>
      <trkpt lat="45.01242" lon="6.1088">
        <ele>2079.4</ele>
        <time>2022-12-29T11:53:27Z</time>
      </trkpt>
      <trkpt lat="45.01242" lon="6.1088">
        <ele>2079.4</ele>
        <time>2022-12-29T11:53:28Z</time>
      </trkpt>
      <trkpt lat="45.01241" lon="6.1088">
        <ele>2079.4</ele>
        <time>2022-12-29T11:53:29Z</time>
      </trkpt>
      <trkpt lat="45.01241" lon="6.1088">
        <ele>2079.4</ele>
        <time>2022-12-29T11:53:30Z</time>
      </trkpt>
      <trkpt lat="45.01241" lon="6.1088">
        <ele>2079.4</ele>
        <time>2022-12-29T11:53:31Z</time>
      </trkpt>
      <trkpt lat="45.01241" lon="6.1088">
        <ele>2079.4</ele>
        <time>2022-12-29T11:53:32Z</time>
      </trkpt>
      <trkpt lat="45.01241" lon="6.1088">
        <ele>2079.4</ele>
        <time>2022-12-29T11:53:33Z</time>
      </trkpt>
      <trkpt lat="45.01241" lon="6.1088">
        <ele>2079.4</ele>
        <time>2022-12-29T11:53:34Z</time>
      </trkpt>
      <trkpt lat="45.01241" lon="6.1088">
        <ele>2080.2</ele>
        <time>2022-12-29T11:53:36Z</time>
      </trkpt>
      <trkpt lat="45.01241" lon="6.1088">
        <ele>2080.2</ele>
        <time>2022-12-29T11:53:37Z</time>
      </trkpt>
      <trkpt lat="45.01241" lon="6.1088">
        <ele>2080.2</ele>
        <time>2022-12-29T11:53:38Z</time>
      </trkpt>
      <trkpt lat="45.01241" lon="6.1088">
        <ele>2080.2</ele>
        <time>2022-12-29T11:53:39Z</time>
      </trkpt>
      <trkpt lat="45.01241" lon="6.1088">
        <ele>2080.2</ele>
        <time>2022-12-29T11:53:40Z</time>
      </trkpt>
      <trkpt lat="45.01241" lon="6.1088">
        <ele>2080.2</ele>
        <time>2022-12-29T11:53:41Z</time>
      </trkpt>
      <trkpt lat="45.01241" lon="6.1088">
        <ele>2080.2</ele>
        <time>2022-12-29T11:53:42Z</time>
      </trkpt>
      <trkpt lat="45.01241" lon="6.1088">
        <ele>2080.2</ele>
        <time>2022-12-29T11:53:43Z</time>
      </trkpt>
      <trkpt lat="45.01241" lon="6.1088">
        <ele>2080.2</ele>
        <time>2022-12-29T11:53:44Z</time>
      </trkpt>
      <trkpt lat="45.01241" lon="6.1088">
        <ele>2080.8</ele>
        <time>2022-12-29T11:53:46Z</time>
      </trkpt>
      <trkpt lat="45.01241" lon="6.1088">
        <ele>2080.8</ele>
        <time>2022-12-29T11:53:48Z</time>
      </trkpt>
      <trkpt lat="45.01241" lon="6.1088">
        <ele>2080.8</ele>
        <time>2022-12-29T11:53:49Z</time>
      </trkpt>
      <trkpt lat="45.01241" lon="6.1088">
        <ele>2080.8</ele>
        <time>2022-12-29T11:53:50Z</time>
      </trkpt>
      <trkpt lat="45.01241" lon="6.1088">
        <ele>2080.8</ele>
        <time>2022-12-29T11:53:51Z</time>
      </trkpt>
      <trkpt lat="45.01241" lon="6.1088">
        <ele>2080.8</ele>
        <time>2022-12-29T11:53:52Z</time>
      </trkpt>
      <trkpt lat="45.01241" lon="6.1088">
        <ele>2080.8</ele>
        <time>2022-12-29T11:53:53Z</time>
      </trkpt>
      <trkpt lat="45.01241" lon="6.1088">
        <ele>2080.8</ele>
        <time>2022-12-29T11:53:55Z</time>
      </trkpt>
      <trkpt lat="45.01241" lon="6.1088">
        <ele>2081.4</ele>
        <time>2022-12-29T11:53:56Z</time>
      </trkpt>
      <trkpt lat="45.0124" lon="6.1088">
        <ele>2081.4</ele>
        <time>2022-12-29T11:53:57Z</time>
      </trkpt>
      <trkpt lat="45.0124" lon="6.1088">
        <ele>2081.4</ele>
        <time>2022-12-29T11:53:58Z</time>
      </trkpt>
      <trkpt lat="45.0124" lon="6.1088">
        <ele>2081.4</ele>
        <time>2022-12-29T11:53:59Z</time>
      </trkpt>
      <trkpt lat="45.0124" lon="6.1088">
        <ele>2081.4</ele>
        <time>2022-12-29T11:54:00Z</time>
      </trkpt>
      <trkpt lat="45.0124" lon="6.1088">
        <ele>2081.4</ele>
        <time>2022-12-29T11:54:01Z</time>
      </trkpt>
      <trkpt lat="45.0124" lon="6.1088">
        <ele>2081.4</ele>
        <time>2022-12-29T11:54:02Z</time>
      </trkpt>
      <trkpt lat="45.0124" lon="6.1088">
        <ele>2081.4</ele>
        <time>2022-12-29T11:54:03Z</time>
      </trkpt>
      <trkpt lat="45.0124" lon="6.1088">
        <ele>2081.4</ele>
        <time>2022-12-29T11:54:04Z</time>
      </trkpt>
      <trkpt lat="45.0124" lon="6.1088">
        <ele>2081.4</ele>
        <time>2022-12-29T11:54:05Z</time>
      </trkpt>
      <trkpt lat="45.0124" lon="6.1088">
        <ele>2081.4</ele>
        <time>2022-12-29T11:54:06Z</time>
      </trkpt>
      <trkpt lat="45.0124" lon="6.1088">
        <ele>2081.4</ele>
        <time>2022-12-29T11:54:07Z</time>
      </trkpt>
      <trkpt lat="45.0124" lon="6.1088">
        <ele>2081.4</ele>
        <time>2022-12-29T11:54:08Z</time>
      </trkpt>
      <trkpt lat="45.0124" lon="6.10879">
        <ele>2081.4</ele>
        <time>2022-12-29T11:54:09Z</time>
      </trkpt>
      <trkpt lat="45.0124" lon="6.10879">
        <ele>2081.4</ele>
        <time>2022-12-29T11:54:10Z</time>
      </trkpt>
      <trkpt lat="45.0124" lon="6.10879">
        <ele>2081.4</ele>
        <time>2022-12-29T11:54:11Z</time>
      </trkpt>
      <trkpt lat="45.0124" lon="6.10879">
        <ele>2081.4</ele>
        <time>2022-12-29T11:54:14Z</time>
      </trkpt>
      <trkpt lat="45.0124" lon="6.10879">
        <ele>2081.4</ele>
        <time>2022-12-29T11:54:15Z</time>
      </trkpt>
      <trkpt lat="45.0124" lon="6.10879">
        <ele>2079.4</ele>
        <time>2022-12-29T11:54:16Z</time>
      </trkpt>
      <trkpt lat="45.0124" lon="6.10879">
        <ele>2079.4</ele>
        <time>2022-12-29T11:54:17Z</time>
      </trkpt>
      <trkpt lat="45.0124" lon="6.10879">
        <ele>2079.4</ele>
        <time>2022-12-29T11:54:18Z</time>
      </trkpt>
      <trkpt lat="45.0124" lon="6.10879">
        <ele>2079.4</ele>
        <time>2022-12-29T11:54:19Z</time>
      </trkpt>
      <trkpt lat="45.0124" lon="6.10879">
        <ele>2079.4</ele>
        <time>2022-12-29T11:54:20Z</time>
      </trkpt>
      <trkpt lat="45.0124" lon="6.10879">
        <ele>2079.4</ele>
        <time>2022-12-29T11:54:21Z</time>
      </trkpt>
      <trkpt lat="45.0124" lon="6.10879">
        <ele>2079.4</ele>
        <time>2022-12-29T11:54:22Z</time>
      </trkpt>
      <trkpt lat="45.01239" lon="6.10879">
        <ele>2079.4</ele>
        <time>2022-12-29T11:54:23Z</time>
      </trkpt>
      <trkpt lat="45.01239" lon="6.10879">
        <ele>2079</ele>
        <time>2022-12-29T11:54:26Z</time>
      </trkpt>
      <trkpt lat="45.01239" lon="6.10879">
        <ele>2079</ele>
        <time>2022-12-29T11:54:27Z</time>
      </trkpt>
      <trkpt lat="45.01239" lon="6.10879">
        <ele>2079</ele>
        <time>2022-12-29T11:54:28Z</time>
      </trkpt>
      <trkpt lat="45.01239" lon="6.10879">
        <ele>2079</ele>
        <time>2022-12-29T11:54:29Z</time>
      </trkpt>
      <trkpt lat="45.01239" lon="6.10879">
        <ele>2079</ele>
        <time>2022-12-29T11:54:30Z</time>
      </trkpt>
      <trkpt lat="45.01239" lon="6.10879">
        <ele>2079</ele>
        <time>2022-12-29T11:54:31Z</time>
      </trkpt>
      <trkpt lat="45.01239" lon="6.10879">
        <ele>2079</ele>
        <time>2022-12-29T11:54:32Z</time>
      </trkpt>
      <trkpt lat="45.01239" lon="6.10879">
        <ele>2079</ele>
        <time>2022-12-29T11:54:33Z</time>
      </trkpt>
      <trkpt lat="45.01239" lon="6.10879">
        <ele>2079</ele>
        <time>2022-12-29T11:54:34Z</time>
      </trkpt>
      <trkpt lat="45.01239" lon="6.10879">
        <ele>2079</ele>
        <time>2022-12-29T11:54:35Z</time>
      </trkpt>
      <trkpt lat="45.01239" lon="6.10879">
        <ele>2079</ele>
        <time>2022-12-29T11:54:36Z</time>
      </trkpt>
      <trkpt lat="45.01239" lon="6.10879">
        <ele>2079</ele>
        <time>2022-12-29T11:54:37Z</time>
      </trkpt>
      <trkpt lat="45.01239" lon="6.10879">
        <ele>2079</ele>
        <time>2022-12-29T11:54:38Z</time>
      </trkpt>
      <trkpt lat="45.01239" lon="6.10879">
        <ele>2079</ele>
        <time>2022-12-29T11:54:39Z</time>
      </trkpt>
      <trkpt lat="45.01239" lon="6.10879">
        <ele>2079</ele>
        <time>2022-12-29T11:54:40Z</time>
      </trkpt>
      <trkpt lat="45.01239" lon="6.10879">
        <ele>2079</ele>
        <time>2022-12-29T11:54:41Z</time>
      </trkpt>
      <trkpt lat="45.01239" lon="6.10879">
        <ele>2079</ele>
        <time>2022-12-29T11:54:42Z</time>
      </trkpt>
      <trkpt lat="45.01239" lon="6.10879">
        <ele>2079</ele>
        <time>2022-12-29T11:54:43Z</time>
      </trkpt>
      <trkpt lat="45.01239" lon="6.10879">
        <ele>2079</ele>
        <time>2022-12-29T11:54:44Z</time>
      </trkpt>
      <trkpt lat="45.01239" lon="6.10879">
        <ele>2079</ele>
        <time>2022-12-29T11:54:45Z</time>
      </trkpt>
      <trkpt lat="45.01239" lon="6.10879">
        <ele>2078.8</ele>
        <time>2022-12-29T11:54:46Z</time>
      </trkpt>
      <trkpt lat="45.01239" lon="6.10879">
        <ele>2078.8</ele>
        <time>2022-12-29T11:54:47Z</time>
      </trkpt>
      <trkpt lat="45.01239" lon="6.10879">
        <ele>2078.8</ele>
        <time>2022-12-29T11:54:48Z</time>
      </trkpt>
      <trkpt lat="45.01238" lon="6.10879">
        <ele>2078.8</ele>
        <time>2022-12-29T11:54:49Z</time>
      </trkpt>
      <trkpt lat="45.01238" lon="6.10879">
        <ele>2078.8</ele>
        <time>2022-12-29T11:54:50Z</time>
      </trkpt>
      <trkpt lat="45.01238" lon="6.10879">
        <ele>2078.8</ele>
        <time>2022-12-29T11:54:51Z</time>
      </trkpt>
      <trkpt lat="45.01238" lon="6.10879">
        <ele>2078.8</ele>
        <time>2022-12-29T11:54:52Z</time>
      </trkpt>
      <trkpt lat="45.01238" lon="6.10879">
        <ele>2078.8</ele>
        <time>2022-12-29T11:54:53Z</time>
      </trkpt>
      <trkpt lat="45.01238" lon="6.10879">
        <ele>2078.8</ele>
        <time>2022-12-29T11:54:54Z</time>
      </trkpt>
      <trkpt lat="45.01238" lon="6.10879">
        <ele>2078.8</ele>
        <time>2022-12-29T11:54:55Z</time>
      </trkpt>
      <trkpt lat="45.01238" lon="6.10879">
        <ele>2079.4</ele>
        <time>2022-12-29T11:54:56Z</time>
      </trkpt>
      <trkpt lat="45.01238" lon="6.10879">
        <ele>2079.4</ele>
        <time>2022-12-29T11:54:57Z</time>
      </trkpt>
      <trkpt lat="45.01238" lon="6.10879">
        <ele>2079.4</ele>
        <time>2022-12-29T11:54:58Z</time>
      </trkpt>
      <trkpt lat="45.01238" lon="6.10879">
        <ele>2079.4</ele>
        <time>2022-12-29T11:54:59Z</time>
      </trkpt>
      <trkpt lat="45.01238" lon="6.10879">
        <ele>2079.4</ele>
        <time>2022-12-29T11:55:00Z</time>
      </trkpt>
      <trkpt lat="45.01238" lon="6.10879">
        <ele>2079.4</ele>
        <time>2022-12-29T11:55:01Z</time>
      </trkpt>
      <trkpt lat="45.01238" lon="6.10879">
        <ele>2079.4</ele>
        <time>2022-12-29T11:55:02Z</time>
      </trkpt>
      <trkpt lat="45.01238" lon="6.10878">
        <ele>2079.4</ele>
        <time>2022-12-29T11:55:03Z</time>
      </trkpt>
      <trkpt lat="45.01238" lon="6.10878">
        <ele>2079.4</ele>
        <time>2022-12-29T11:55:04Z</time>
      </trkpt>
      <trkpt lat="45.01238" lon="6.10878">
        <ele>2079.4</ele>
        <time>2022-12-29T11:55:05Z</time>
      </trkpt>
      <trkpt lat="45.01238" lon="6.10878">
        <ele>2079.8</ele>
        <time>2022-12-29T11:55:06Z</time>
      </trkpt>
      <trkpt lat="45.01238" lon="6.10878">
        <ele>2079.8</ele>
        <time>2022-12-29T11:55:07Z</time>
      </trkpt>
      <trkpt lat="45.01238" lon="6.10878">
        <ele>2079.8</ele>
        <time>2022-12-29T11:55:08Z</time>
      </trkpt>
      <trkpt lat="45.01238" lon="6.10878">
        <ele>2079.8</ele>
        <time>2022-12-29T11:55:09Z</time>
      </trkpt>
      <trkpt lat="45.01238" lon="6.10878">
        <ele>2079.8</ele>
        <time>2022-12-29T11:55:10Z</time>
      </trkpt>
      <trkpt lat="45.01238" lon="6.10878">
        <ele>2079.8</ele>
        <time>2022-12-29T11:55:13Z</time>
      </trkpt>
      <trkpt lat="45.01238" lon="6.10878">
        <ele>2079.8</ele>
        <time>2022-12-29T11:55:14Z</time>
      </trkpt>
      <trkpt lat="45.01237" lon="6.10878">
        <ele>2079.8</ele>
        <time>2022-12-29T11:55:15Z</time>
      </trkpt>
      <trkpt lat="45.01237" lon="6.10878">
        <ele>2080.6</ele>
        <time>2022-12-29T11:55:16Z</time>
      </trkpt>
      <trkpt lat="45.01237" lon="6.10878">
        <ele>2080.6</ele>
        <time>2022-12-29T11:55:17Z</time>
      </trkpt>
      <trkpt lat="45.01237" lon="6.10878">
        <ele>2080.6</ele>
        <time>2022-12-29T11:55:20Z</time>
      </trkpt>
      <trkpt lat="45.01237" lon="6.10878">
        <ele>2080.6</ele>
        <time>2022-12-29T11:55:21Z</time>
      </trkpt>
      <trkpt lat="45.01237" lon="6.10878">
        <ele>2080.6</ele>
        <time>2022-12-29T11:55:22Z</time>
      </trkpt>
      <trkpt lat="45.01237" lon="6.10878">
        <ele>2080.6</ele>
        <time>2022-12-29T11:55:23Z</time>
      </trkpt>
      <trkpt lat="45.01237" lon="6.10878">
        <ele>2080.6</ele>
        <time>2022-12-29T11:55:24Z</time>
      </trkpt>
      <trkpt lat="45.01237" lon="6.10878">
        <ele>2080.6</ele>
        <time>2022-12-29T11:55:25Z</time>
      </trkpt>
      <trkpt lat="45.01237" lon="6.10878">
        <ele>2079.8</ele>
        <time>2022-12-29T11:55:26Z</time>
      </trkpt>
      <trkpt lat="45.01237" lon="6.10878">
        <ele>2079.8</ele>
        <time>2022-12-29T11:55:27Z</time>
      </trkpt>
      <trkpt lat="45.01237" lon="6.10878">
        <ele>2079.8</ele>
        <time>2022-12-29T11:55:28Z</time>
      </trkpt>
      <trkpt lat="45.01237" lon="6.10878">
        <ele>2079.8</ele>
        <time>2022-12-29T11:55:29Z</time>
      </trkpt>
      <trkpt lat="45.01237" lon="6.10878">
        <ele>2079.8</ele>
        <time>2022-12-29T11:55:30Z</time>
      </trkpt>
      <trkpt lat="45.01237" lon="6.10878">
        <ele>2079.8</ele>
        <time>2022-12-29T11:55:31Z</time>
      </trkpt>
      <trkpt lat="45.01237" lon="6.10878">
        <ele>2079.8</ele>
        <time>2022-12-29T11:55:32Z</time>
      </trkpt>
      <trkpt lat="45.01237" lon="6.10878">
        <ele>2079.8</ele>
        <time>2022-12-29T11:55:33Z</time>
      </trkpt>
      <trkpt lat="45.01237" lon="6.10878">
        <ele>2079.8</ele>
        <time>2022-12-29T11:55:34Z</time>
      </trkpt>
      <trkpt lat="45.01237" lon="6.10878">
        <ele>2079.8</ele>
        <time>2022-12-29T11:55:35Z</time>
      </trkpt>
      <trkpt lat="45.01237" lon="6.10878">
        <ele>2076.8</ele>
        <time>2022-12-29T11:55:36Z</time>
      </trkpt>
      <trkpt lat="45.0123" lon="6.10877">
        <ele>2076.8</ele>
        <time>2022-12-29T11:55:37Z</time>
      </trkpt>
      <trkpt lat="45.01227" lon="6.10877">
        <ele>2076.8</ele>
        <time>2022-12-29T11:55:38Z</time>
      </trkpt>
      <trkpt lat="45.01224" lon="6.10877">
        <ele>2076.8</ele>
        <time>2022-12-29T11:55:39Z</time>
      </trkpt>
      <trkpt lat="45.01221" lon="6.10877">
        <ele>2076.8</ele>
        <time>2022-12-29T11:55:40Z</time>
      </trkpt>
      <trkpt lat="45.01218" lon="6.10876">
        <ele>2076.8</ele>
        <time>2022-12-29T11:55:41Z</time>
      </trkpt>
      <trkpt lat="45.01215" lon="6.10876">
        <ele>2076.8</ele>
        <time>2022-12-29T11:55:42Z</time>
      </trkpt>
      <trkpt lat="45.01212" lon="6.10876">
        <ele>2076.8</ele>
        <time>2022-12-29T11:55:43Z</time>
      </trkpt>
      <trkpt lat="45.01208" lon="6.10876">
        <ele>2076.8</ele>
        <time>2022-12-29T11:55:44Z</time>
      </trkpt>
      <trkpt lat="45.01205" lon="6.10876">
        <ele>2076.8</ele>
        <time>2022-12-29T11:55:45Z</time>
      </trkpt>
      <trkpt lat="45.01202" lon="6.10875">
        <ele>2072.4</ele>
        <time>2022-12-29T11:55:46Z</time>
      </trkpt>
      <trkpt lat="45.01195" lon="6.10873">
        <ele>2072.4</ele>
        <time>2022-12-29T11:55:47Z</time>
      </trkpt>
      <trkpt lat="45.0119" lon="6.10873">
        <ele>2072.4</ele>
        <time>2022-12-29T11:55:48Z</time>
      </trkpt>
      <trkpt lat="45.01186" lon="6.10872">
        <ele>2072.4</ele>
        <time>2022-12-29T11:55:49Z</time>
      </trkpt>
      <trkpt lat="45.01181" lon="6.10872">
        <ele>2072.4</ele>
        <time>2022-12-29T11:55:50Z</time>
      </trkpt>
      <trkpt lat="45.01177" lon="6.10871">
        <ele>2072.4</ele>
        <time>2022-12-29T11:55:51Z</time>
      </trkpt>
      <trkpt lat="45.01172" lon="6.10871">
        <ele>2072.4</ele>
        <time>2022-12-29T11:55:52Z</time>
      </trkpt>
      <trkpt lat="45.01168" lon="6.1087">
        <ele>2072.4</ele>
        <time>2022-12-29T11:55:53Z</time>
      </trkpt>
      <trkpt lat="45.01164" lon="6.10869">
        <ele>2072.4</ele>
        <time>2022-12-29T11:55:54Z</time>
      </trkpt>
      <trkpt lat="45.01159" lon="6.10869">
        <ele>2072.4</ele>
        <time>2022-12-29T11:55:55Z</time>
      </trkpt>
      <trkpt lat="45.01155" lon="6.10868">
        <ele>2068</ele>
        <time>2022-12-29T11:55:56Z</time>
      </trkpt>
      <trkpt lat="45.01146" lon="6.10864">
        <ele>2068</ele>
        <time>2022-12-29T11:55:57Z</time>
      </trkpt>
      <trkpt lat="45.01143" lon="6.10862">
        <ele>2068</ele>
        <time>2022-12-29T11:55:58Z</time>
      </trkpt>
      <trkpt lat="45.0114" lon="6.1086">
        <ele>2068</ele>
        <time>2022-12-29T11:55:59Z</time>
      </trkpt>
      <trkpt lat="45.01137" lon="6.10859">
        <ele>2068</ele>
        <time>2022-12-29T11:56:00Z</time>
      </trkpt>
      <trkpt lat="45.01134" lon="6.10857">
        <ele>2068</ele>
        <time>2022-12-29T11:56:01Z</time>
      </trkpt>
      <trkpt lat="45.01131" lon="6.10855">
        <ele>2068</ele>
        <time>2022-12-29T11:56:02Z</time>
      </trkpt>
      <trkpt lat="45.01128" lon="6.10853">
        <ele>2068</ele>
        <time>2022-12-29T11:56:03Z</time>
      </trkpt>
      <trkpt lat="45.01125" lon="6.10852">
        <ele>2068</ele>
        <time>2022-12-29T11:56:04Z</time>
      </trkpt>
      <trkpt lat="45.01123" lon="6.1085">
        <ele>2068</ele>
        <time>2022-12-29T11:56:05Z</time>
      </trkpt>
      <trkpt lat="45.0112" lon="6.10848">
        <ele>2064</ele>
        <time>2022-12-29T11:56:06Z</time>
      </trkpt>
      <trkpt lat="45.01119" lon="6.10847">
        <ele>2064</ele>
        <time>2022-12-29T11:56:07Z</time>
      </trkpt>
      <trkpt lat="45.01119" lon="6.10847">
        <ele>2064</ele>
        <time>2022-12-29T11:56:08Z</time>
      </trkpt>
      <trkpt lat="45.01119" lon="6.10847">
        <ele>2064</ele>
        <time>2022-12-29T11:56:09Z</time>
      </trkpt>
      <trkpt lat="45.01119" lon="6.10847">
        <ele>2064</ele>
        <time>2022-12-29T11:56:10Z</time>
      </trkpt>
      <trkpt lat="45.01119" lon="6.10847">
        <ele>2064</ele>
        <time>2022-12-29T11:56:11Z</time>
      </trkpt>
      <trkpt lat="45.01119" lon="6.10847">
        <ele>2064</ele>
        <time>2022-12-29T11:56:12Z</time>
      </trkpt>
      <trkpt lat="45.01119" lon="6.10847">
        <ele>2064</ele>
        <time>2022-12-29T11:56:13Z</time>
      </trkpt>
      <trkpt lat="45.01119" lon="6.10847">
        <ele>2064</ele>
        <time>2022-12-29T11:56:14Z</time>
      </trkpt>
      <trkpt lat="45.01119" lon="6.10847">
        <ele>2064</ele>
        <time>2022-12-29T11:56:15Z</time>
      </trkpt>
      <trkpt lat="45.01119" lon="6.10847">
        <ele>2063.8</ele>
        <time>2022-12-29T11:56:16Z</time>
      </trkpt>
      <trkpt lat="45.01119" lon="6.10847">
        <ele>2063.8</ele>
        <time>2022-12-29T11:56:17Z</time>
      </trkpt>
      <trkpt lat="45.01119" lon="6.10847">
        <ele>2063.8</ele>
        <time>2022-12-29T11:56:18Z</time>
      </trkpt>
      <trkpt lat="45.01119" lon="6.10847">
        <ele>2063.8</ele>
        <time>2022-12-29T11:56:19Z</time>
      </trkpt>
      <trkpt lat="45.01119" lon="6.10847">
        <ele>2063.8</ele>
        <time>2022-12-29T11:56:20Z</time>
      </trkpt>
      <trkpt lat="45.01119" lon="6.10847">
        <ele>2063.8</ele>
        <time>2022-12-29T11:56:21Z</time>
      </trkpt>
      <trkpt lat="45.01119" lon="6.10847">
        <ele>2063.8</ele>
        <time>2022-12-29T11:56:22Z</time>
      </trkpt>
      <trkpt lat="45.01119" lon="6.10847">
        <ele>2063.8</ele>
        <time>2022-12-29T11:56:23Z</time>
      </trkpt>
      <trkpt lat="45.01119" lon="6.10847">
        <ele>2063.8</ele>
        <time>2022-12-29T11:56:24Z</time>
      </trkpt>
      <trkpt lat="45.01119" lon="6.10847">
        <ele>2063.8</ele>
        <time>2022-12-29T11:56:25Z</time>
      </trkpt>
      <trkpt lat="45.01119" lon="6.10847">
        <ele>2064.8</ele>
        <time>2022-12-29T11:56:26Z</time>
      </trkpt>
      <trkpt lat="45.01119" lon="6.10847">
        <ele>2064.8</ele>
        <time>2022-12-29T11:56:27Z</time>
      </trkpt>
      <trkpt lat="45.01119" lon="6.10847">
        <ele>2064.8</ele>
        <time>2022-12-29T11:56:28Z</time>
      </trkpt>
      <trkpt lat="45.01119" lon="6.10847">
        <ele>2064.8</ele>
        <time>2022-12-29T11:56:29Z</time>
      </trkpt>
      <trkpt lat="45.01119" lon="6.10847">
        <ele>2064.8</ele>
        <time>2022-12-29T11:56:30Z</time>
      </trkpt>
      <trkpt lat="45.01119" lon="6.10847">
        <ele>2064.8</ele>
        <time>2022-12-29T11:56:31Z</time>
      </trkpt>
      <trkpt lat="45.01119" lon="6.10847">
        <ele>2064.8</ele>
        <time>2022-12-29T11:56:32Z</time>
      </trkpt>
      <trkpt lat="45.01119" lon="6.10847">
        <ele>2064.8</ele>
        <time>2022-12-29T11:56:33Z</time>
      </trkpt>
      <trkpt lat="45.01119" lon="6.10847">
        <ele>2064.8</ele>
        <time>2022-12-29T11:56:34Z</time>
      </trkpt>
      <trkpt lat="45.01119" lon="6.10847">
        <ele>2064.8</ele>
        <time>2022-12-29T11:56:35Z</time>
      </trkpt>
      <trkpt lat="45.01119" lon="6.10847">
        <ele>2064</ele>
        <time>2022-12-29T11:56:36Z</time>
      </trkpt>
      <trkpt lat="45.01119" lon="6.10847">
        <ele>2064</ele>
        <time>2022-12-29T11:56:37Z</time>
      </trkpt>
      <trkpt lat="45.01119" lon="6.10847">
        <ele>2064</ele>
        <time>2022-12-29T11:56:38Z</time>
      </trkpt>
      <trkpt lat="45.01119" lon="6.10847">
        <ele>2064</ele>
        <time>2022-12-29T11:56:39Z</time>
      </trkpt>
      <trkpt lat="45.01119" lon="6.10847">
        <ele>2064</ele>
        <time>2022-12-29T11:56:40Z</time>
      </trkpt>
      <trkpt lat="45.01119" lon="6.10847">
        <ele>2064</ele>
        <time>2022-12-29T11:56:41Z</time>
      </trkpt>
      <trkpt lat="45.01119" lon="6.10847">
        <ele>2064</ele>
        <time>2022-12-29T11:56:42Z</time>
      </trkpt>
      <trkpt lat="45.01119" lon="6.10847">
        <ele>2064</ele>
        <time>2022-12-29T11:56:43Z</time>
      </trkpt>
      <trkpt lat="45.01119" lon="6.10847">
        <ele>2064</ele>
        <time>2022-12-29T11:56:44Z</time>
      </trkpt>
      <trkpt lat="45.01119" lon="6.10847">
        <ele>2064</ele>
        <time>2022-12-29T11:56:45Z</time>
      </trkpt>
      <trkpt lat="45.01119" lon="6.10847">
        <ele>2064</ele>
        <time>2022-12-29T11:56:46Z</time>
      </trkpt>
      <trkpt lat="45.01119" lon="6.10847">
        <ele>2064</ele>
        <time>2022-12-29T11:56:47Z</time>
      </trkpt>
      <trkpt lat="45.01119" lon="6.10847">
        <ele>2064</ele>
        <time>2022-12-29T11:56:48Z</time>
      </trkpt>
      <trkpt lat="45.01119" lon="6.10847">
        <ele>2064</ele>
        <time>2022-12-29T11:56:49Z</time>
      </trkpt>
      <trkpt lat="45.01119" lon="6.10847">
        <ele>2064</ele>
        <time>2022-12-29T11:56:50Z</time>
      </trkpt>
      <trkpt lat="45.01119" lon="6.10847">
        <ele>2064</ele>
        <time>2022-12-29T11:56:51Z</time>
      </trkpt>
      <trkpt lat="45.01119" lon="6.10847">
        <ele>2064</ele>
        <time>2022-12-29T11:56:52Z</time>
      </trkpt>
      <trkpt lat="45.01119" lon="6.10847">
        <ele>2064</ele>
        <time>2022-12-29T11:56:53Z</time>
      </trkpt>
      <trkpt lat="45.01119" lon="6.10847">
        <ele>2064</ele>
        <time>2022-12-29T11:56:54Z</time>
      </trkpt>
      <trkpt lat="45.01119" lon="6.10847">
        <ele>2064</ele>
        <time>2022-12-29T11:56:55Z</time>
      </trkpt>
      <trkpt lat="45.01119" lon="6.10847">
        <ele>2064</ele>
        <time>2022-12-29T11:56:56Z</time>
      </trkpt>
      <trkpt lat="45.01119" lon="6.10847">
        <ele>2064</ele>
        <time>2022-12-29T11:56:57Z</time>
      </trkpt>
      <trkpt lat="45.01119" lon="6.10847">
        <ele>2064</ele>
        <time>2022-12-29T11:56:58Z</time>
      </trkpt>
      <trkpt lat="45.01119" lon="6.10847">
        <ele>2064</ele>
        <time>2022-12-29T11:56:59Z</time>
      </trkpt>
      <trkpt lat="45.01119" lon="6.10847">
        <ele>2064</ele>
        <time>2022-12-29T11:57:00Z</time>
      </trkpt>
      <trkpt lat="45.01119" lon="6.10847">
        <ele>2064</ele>
        <time>2022-12-29T11:57:01Z</time>
      </trkpt>
      <trkpt lat="45.01119" lon="6.10847">
        <ele>2064</ele>
        <time>2022-12-29T11:57:02Z</time>
      </trkpt>
      <trkpt lat="45.01119" lon="6.10847">
        <ele>2064</ele>
        <time>2022-12-29T11:57:03Z</time>
      </trkpt>
      <trkpt lat="45.01119" lon="6.10847">
        <ele>2064</ele>
        <time>2022-12-29T11:57:04Z</time>
      </trkpt>
      <trkpt lat="45.01119" lon="6.10847">
        <ele>2064</ele>
        <time>2022-12-29T11:57:05Z</time>
      </trkpt>
      <trkpt lat="45.01119" lon="6.10847">
        <ele>2063.8</ele>
        <time>2022-12-29T11:57:06Z</time>
      </trkpt>
      <trkpt lat="45.01119" lon="6.10847">
        <ele>2063.8</ele>
        <time>2022-12-29T11:57:07Z</time>
      </trkpt>
      <trkpt lat="45.01119" lon="6.10847">
        <ele>2063.8</ele>
        <time>2022-12-29T11:57:08Z</time>
      </trkpt>
      <trkpt lat="45.01119" lon="6.10847">
        <ele>2063.8</ele>
        <time>2022-12-29T11:57:09Z</time>
      </trkpt>
      <trkpt lat="45.01119" lon="6.10847">
        <ele>2063.8</ele>
        <time>2022-12-29T11:57:10Z</time>
      </trkpt>
      <trkpt lat="45.01119" lon="6.10847">
        <ele>2063.8</ele>
        <time>2022-12-29T11:57:11Z</time>
      </trkpt>
      <trkpt lat="45.01119" lon="6.10847">
        <ele>2063.8</ele>
        <time>2022-12-29T11:57:12Z</time>
      </trkpt>
      <trkpt lat="45.01119" lon="6.10847">
        <ele>2063.8</ele>
        <time>2022-12-29T11:57:13Z</time>
      </trkpt>
      <trkpt lat="45.01119" lon="6.10847">
        <ele>2063.8</ele>
        <time>2022-12-29T11:57:14Z</time>
      </trkpt>
      <trkpt lat="45.01119" lon="6.10847">
        <ele>2063.8</ele>
        <time>2022-12-29T11:57:15Z</time>
      </trkpt>
      <trkpt lat="45.01119" lon="6.10847">
        <ele>2064.8</ele>
        <time>2022-12-29T11:57:16Z</time>
      </trkpt>
      <trkpt lat="45.01119" lon="6.10847">
        <ele>2064.8</ele>
        <time>2022-12-29T11:57:17Z</time>
      </trkpt>
      <trkpt lat="45.01119" lon="6.10847">
        <ele>2064.8</ele>
        <time>2022-12-29T11:57:18Z</time>
      </trkpt>
      <trkpt lat="45.01119" lon="6.10847">
        <ele>2064.8</ele>
        <time>2022-12-29T11:57:19Z</time>
      </trkpt>
      <trkpt lat="45.01119" lon="6.10847">
        <ele>2064.8</ele>
        <time>2022-12-29T11:57:20Z</time>
      </trkpt>
      <trkpt lat="45.01119" lon="6.10847">
        <ele>2064.8</ele>
        <time>2022-12-29T11:57:21Z</time>
      </trkpt>
      <trkpt lat="45.01119" lon="6.10847">
        <ele>2064.8</ele>
        <time>2022-12-29T11:57:22Z</time>
      </trkpt>
      <trkpt lat="45.01119" lon="6.10847">
        <ele>2064.8</ele>
        <time>2022-12-29T11:57:23Z</time>
      </trkpt>
      <trkpt lat="45.01119" lon="6.10847">
        <ele>2064.8</ele>
        <time>2022-12-29T11:57:24Z</time>
      </trkpt>
      <trkpt lat="45.01119" lon="6.10847">
        <ele>2064.8</ele>
        <time>2022-12-29T11:57:25Z</time>
      </trkpt>
      <trkpt lat="45.01119" lon="6.10847">
        <ele>2064.4</ele>
        <time>2022-12-29T11:57:26Z</time>
      </trkpt>
      <trkpt lat="45.01119" lon="6.10847">
        <ele>2064.4</ele>
        <time>2022-12-29T11:57:27Z</time>
      </trkpt>
      <trkpt lat="45.01119" lon="6.10847">
        <ele>2064.4</ele>
        <time>2022-12-29T11:57:28Z</time>
      </trkpt>
      <trkpt lat="45.01119" lon="6.10847">
        <ele>2064.4</ele>
        <time>2022-12-29T11:57:29Z</time>
      </trkpt>
      <trkpt lat="45.01119" lon="6.10847">
        <ele>2064.4</ele>
        <time>2022-12-29T11:57:30Z</time>
      </trkpt>
      <trkpt lat="45.01119" lon="6.10847">
        <ele>2064.4</ele>
        <time>2022-12-29T11:57:31Z</time>
      </trkpt>
      <trkpt lat="45.01119" lon="6.10847">
        <ele>2064.4</ele>
        <time>2022-12-29T11:57:32Z</time>
      </trkpt>
      <trkpt lat="45.01119" lon="6.10847">
        <ele>2064.4</ele>
        <time>2022-12-29T11:57:33Z</time>
      </trkpt>
      <trkpt lat="45.01119" lon="6.10847">
        <ele>2064.4</ele>
        <time>2022-12-29T11:57:34Z</time>
      </trkpt>
      <trkpt lat="45.01119" lon="6.10847">
        <ele>2064.4</ele>
        <time>2022-12-29T11:57:35Z</time>
      </trkpt>
      <trkpt lat="45.01119" lon="6.10847">
        <ele>2065.2</ele>
        <time>2022-12-29T11:57:36Z</time>
      </trkpt>
      <trkpt lat="45.01119" lon="6.10847">
        <ele>2065.2</ele>
        <time>2022-12-29T11:57:37Z</time>
      </trkpt>
      <trkpt lat="45.01119" lon="6.10847">
        <ele>2065.2</ele>
        <time>2022-12-29T11:57:38Z</time>
      </trkpt>
      <trkpt lat="45.01119" lon="6.10847">
        <ele>2065.2</ele>
        <time>2022-12-29T11:57:39Z</time>
      </trkpt>
      <trkpt lat="45.01119" lon="6.10847">
        <ele>2065.2</ele>
        <time>2022-12-29T11:57:40Z</time>
      </trkpt>
      <trkpt lat="45.01119" lon="6.10847">
        <ele>2065.2</ele>
        <time>2022-12-29T11:57:41Z</time>
      </trkpt>
      <trkpt lat="45.01119" lon="6.10847">
        <ele>2065.2</ele>
        <time>2022-12-29T11:57:42Z</time>
      </trkpt>
      <trkpt lat="45.01119" lon="6.10847">
        <ele>2065.2</ele>
        <time>2022-12-29T11:57:43Z</time>
      </trkpt>
      <trkpt lat="45.01119" lon="6.10847">
        <ele>2065.2</ele>
        <time>2022-12-29T11:57:44Z</time>
      </trkpt>
      <trkpt lat="45.01119" lon="6.10847">
        <ele>2065.2</ele>
        <time>2022-12-29T11:57:45Z</time>
      </trkpt>
      <trkpt lat="45.01119" lon="6.10847">
        <ele>2065.2</ele>
        <time>2022-12-29T11:57:46Z</time>
      </trkpt>
      <trkpt lat="45.01119" lon="6.10847">
        <ele>2065.2</ele>
        <time>2022-12-29T11:57:47Z</time>
      </trkpt>
      <trkpt lat="45.01119" lon="6.10847">
        <ele>2065.2</ele>
        <time>2022-12-29T11:57:48Z</time>
      </trkpt>
      <trkpt lat="45.01119" lon="6.10847">
        <ele>2065.2</ele>
        <time>2022-12-29T11:57:49Z</time>
      </trkpt>
      <trkpt lat="45.01119" lon="6.10847">
        <ele>2065.2</ele>
        <time>2022-12-29T11:57:50Z</time>
      </trkpt>
      <trkpt lat="45.01119" lon="6.10847">
        <ele>2065.2</ele>
        <time>2022-12-29T11:57:51Z</time>
      </trkpt>
      <trkpt lat="45.01119" lon="6.10847">
        <ele>2065.2</ele>
        <time>2022-12-29T11:57:52Z</time>
      </trkpt>
      <trkpt lat="45.01119" lon="6.10847">
        <ele>2065.2</ele>
        <time>2022-12-29T11:57:53Z</time>
      </trkpt>
      <trkpt lat="45.01119" lon="6.10847">
        <ele>2065.2</ele>
        <time>2022-12-29T11:57:54Z</time>
      </trkpt>
      <trkpt lat="45.01119" lon="6.10847">
        <ele>2065.2</ele>
        <time>2022-12-29T11:57:55Z</time>
      </trkpt>
      <trkpt lat="45.01119" lon="6.10847">
        <ele>2065.4</ele>
        <time>2022-12-29T11:57:56Z</time>
      </trkpt>
      <trkpt lat="45.01119" lon="6.10847">
        <ele>2065.4</ele>
        <time>2022-12-29T11:57:57Z</time>
      </trkpt>
      <trkpt lat="45.01119" lon="6.10847">
        <ele>2065.4</ele>
        <time>2022-12-29T11:57:58Z</time>
      </trkpt>
      <trkpt lat="45.01119" lon="6.10847">
        <ele>2065.4</ele>
        <time>2022-12-29T11:57:59Z</time>
      </trkpt>
      <trkpt lat="45.01119" lon="6.10847">
        <ele>2065.4</ele>
        <time>2022-12-29T11:58:00Z</time>
      </trkpt>
      <trkpt lat="45.01119" lon="6.10847">
        <ele>2065.4</ele>
        <time>2022-12-29T11:58:01Z</time>
      </trkpt>
      <trkpt lat="45.01119" lon="6.10847">
        <ele>2065.4</ele>
        <time>2022-12-29T11:58:02Z</time>
      </trkpt>
      <trkpt lat="45.01119" lon="6.10847">
        <ele>2065.4</ele>
        <time>2022-12-29T11:58:03Z</time>
      </trkpt>
      <trkpt lat="45.01119" lon="6.10847">
        <ele>2065.4</ele>
        <time>2022-12-29T11:58:04Z</time>
      </trkpt>
      <trkpt lat="45.01119" lon="6.10847">
        <ele>2065.4</ele>
        <time>2022-12-29T11:58:05Z</time>
      </trkpt>
      <trkpt lat="45.01119" lon="6.10847">
        <ele>2064.2</ele>
        <time>2022-12-29T11:58:06Z</time>
      </trkpt>
      <trkpt lat="45.01119" lon="6.10847">
        <ele>2064.2</ele>
        <time>2022-12-29T11:58:07Z</time>
      </trkpt>
      <trkpt lat="45.01119" lon="6.10847">
        <ele>2064.2</ele>
        <time>2022-12-29T11:58:08Z</time>
      </trkpt>
      <trkpt lat="45.01119" lon="6.10847">
        <ele>2064.2</ele>
        <time>2022-12-29T11:58:09Z</time>
      </trkpt>
      <trkpt lat="45.01119" lon="6.10847">
        <ele>2064.2</ele>
        <time>2022-12-29T11:58:10Z</time>
      </trkpt>
      <trkpt lat="45.01119" lon="6.10847">
        <ele>2064.2</ele>
        <time>2022-12-29T11:58:11Z</time>
      </trkpt>
      <trkpt lat="45.01119" lon="6.10847">
        <ele>2064.2</ele>
        <time>2022-12-29T11:58:12Z</time>
      </trkpt>
      <trkpt lat="45.01119" lon="6.10847">
        <ele>2064.2</ele>
        <time>2022-12-29T11:58:13Z</time>
      </trkpt>
      <trkpt lat="45.01119" lon="6.10847">
        <ele>2064.2</ele>
        <time>2022-12-29T11:58:14Z</time>
      </trkpt>
      <trkpt lat="45.01119" lon="6.10847">
        <ele>2064.2</ele>
        <time>2022-12-29T11:58:15Z</time>
      </trkpt>
      <trkpt lat="45.01119" lon="6.10847">
        <ele>2064.2</ele>
        <time>2022-12-29T11:58:16Z</time>
      </trkpt>
      <trkpt lat="45.01119" lon="6.10847">
        <ele>2064.2</ele>
        <time>2022-12-29T11:58:17Z</time>
      </trkpt>
      <trkpt lat="45.01119" lon="6.10847">
        <ele>2064.2</ele>
        <time>2022-12-29T11:58:20Z</time>
      </trkpt>
      <trkpt lat="45.01119" lon="6.10847">
        <ele>2064.2</ele>
        <time>2022-12-29T11:58:21Z</time>
      </trkpt>
      <trkpt lat="45.01119" lon="6.10847">
        <ele>2064.2</ele>
        <time>2022-12-29T11:58:22Z</time>
      </trkpt>
      <trkpt lat="45.01119" lon="6.10847">
        <ele>2064.2</ele>
        <time>2022-12-29T11:58:23Z</time>
      </trkpt>
      <trkpt lat="45.01119" lon="6.10847">
        <ele>2064.2</ele>
        <time>2022-12-29T11:58:24Z</time>
      </trkpt>
      <trkpt lat="45.01119" lon="6.10847">
        <ele>2064.2</ele>
        <time>2022-12-29T11:58:25Z</time>
      </trkpt>
      <trkpt lat="45.01118" lon="6.10851">
        <ele>2064</ele>
        <time>2022-12-29T11:58:26Z</time>
      </trkpt>
      <trkpt lat="45.01119" lon="6.10864">
        <ele>2064</ele>
        <time>2022-12-29T11:58:27Z</time>
      </trkpt>
      <trkpt lat="45.01121" lon="6.10871">
        <ele>2064</ele>
        <time>2022-12-29T11:58:28Z</time>
      </trkpt>
      <trkpt lat="45.01122" lon="6.10877">
        <ele>2064</ele>
        <time>2022-12-29T11:58:29Z</time>
      </trkpt>
      <trkpt lat="45.01124" lon="6.10884">
        <ele>2064</ele>
        <time>2022-12-29T11:58:30Z</time>
      </trkpt>
      <trkpt lat="45.01125" lon="6.1089">
        <ele>2064</ele>
        <time>2022-12-29T11:58:31Z</time>
      </trkpt>
      <trkpt lat="45.01127" lon="6.10897">
        <ele>2064</ele>
        <time>2022-12-29T11:58:32Z</time>
      </trkpt>
      <trkpt lat="45.01128" lon="6.10904">
        <ele>2064</ele>
        <time>2022-12-29T11:58:33Z</time>
      </trkpt>
      <trkpt lat="45.0113" lon="6.1091">
        <ele>2064</ele>
        <time>2022-12-29T11:58:34Z</time>
      </trkpt>
      <trkpt lat="45.01131" lon="6.10917">
        <ele>2064</ele>
        <time>2022-12-29T11:58:35Z</time>
      </trkpt>
      <trkpt lat="45.01133" lon="6.10923">
        <ele>2059.4</ele>
        <time>2022-12-29T11:58:36Z</time>
      </trkpt>
      <trkpt lat="45.01137" lon="6.10932">
        <ele>2059.4</ele>
        <time>2022-12-29T11:58:37Z</time>
      </trkpt>
      <trkpt lat="45.01139" lon="6.10937">
        <ele>2059.4</ele>
        <time>2022-12-29T11:58:38Z</time>
      </trkpt>
      <trkpt lat="45.01141" lon="6.10941">
        <ele>2059.4</ele>
        <time>2022-12-29T11:58:39Z</time>
      </trkpt>
      <trkpt lat="45.01142" lon="6.10945">
        <ele>2059.4</ele>
        <time>2022-12-29T11:58:40Z</time>
      </trkpt>
      <trkpt lat="45.01144" lon="6.1095">
        <ele>2059.4</ele>
        <time>2022-12-29T11:58:41Z</time>
      </trkpt>
      <trkpt lat="45.01146" lon="6.10954">
        <ele>2059.4</ele>
        <time>2022-12-29T11:58:42Z</time>
      </trkpt>
      <trkpt lat="45.01147" lon="6.10959">
        <ele>2059.4</ele>
        <time>2022-12-29T11:58:43Z</time>
      </trkpt>
      <trkpt lat="45.01149" lon="6.10963">
        <ele>2059.4</ele>
        <time>2022-12-29T11:58:44Z</time>
      </trkpt>
      <trkpt lat="45.01151" lon="6.10967">
        <ele>2059.4</ele>
        <time>2022-12-29T11:58:45Z</time>
      </trkpt>
      <trkpt lat="45.01153" lon="6.10972">
        <ele>2055.8</ele>
        <time>2022-12-29T11:58:46Z</time>
      </trkpt>
      <trkpt lat="45.01155" lon="6.10983">
        <ele>2055.8</ele>
        <time>2022-12-29T11:58:47Z</time>
      </trkpt>
      <trkpt lat="45.01158" lon="6.10988">
        <ele>2055.8</ele>
        <time>2022-12-29T11:58:48Z</time>
      </trkpt>
      <trkpt lat="45.01161" lon="6.10994">
        <ele>2055.8</ele>
        <time>2022-12-29T11:58:49Z</time>
      </trkpt>
      <trkpt lat="45.01164" lon="6.10999">
        <ele>2055.8</ele>
        <time>2022-12-29T11:58:50Z</time>
      </trkpt>
      <trkpt lat="45.01167" lon="6.11005">
        <ele>2055.8</ele>
        <time>2022-12-29T11:58:51Z</time>
      </trkpt>
      <trkpt lat="45.0117" lon="6.1101">
        <ele>2055.8</ele>
        <time>2022-12-29T11:58:52Z</time>
      </trkpt>
      <trkpt lat="45.01173" lon="6.11015">
        <ele>2055.8</ele>
        <time>2022-12-29T11:58:53Z</time>
      </trkpt>
      <trkpt lat="45.01175" lon="6.11021">
        <ele>2055.8</ele>
        <time>2022-12-29T11:58:54Z</time>
      </trkpt>
      <trkpt lat="45.01178" lon="6.11026">
        <ele>2055.8</ele>
        <time>2022-12-29T11:58:55Z</time>
      </trkpt>
      <trkpt lat="45.01181" lon="6.11032">
        <ele>2047.4</ele>
        <time>2022-12-29T11:58:56Z</time>
      </trkpt>
      <trkpt lat="45.01188" lon="6.11044">
        <ele>2047.4</ele>
        <time>2022-12-29T11:58:57Z</time>
      </trkpt>
      <trkpt lat="45.0119" lon="6.1105">
        <ele>2047.4</ele>
        <time>2022-12-29T11:58:58Z</time>
      </trkpt>
      <trkpt lat="45.01193" lon="6.11056">
        <ele>2047.4</ele>
        <time>2022-12-29T11:58:59Z</time>
      </trkpt>
      <trkpt lat="45.01196" lon="6.11063">
        <ele>2047.4</ele>
        <time>2022-12-29T11:59:00Z</time>
      </trkpt>
      <trkpt lat="45.01198" lon="6.11069">
        <ele>2047.4</ele>
        <time>2022-12-29T11:59:01Z</time>
      </trkpt>
      <trkpt lat="45.01201" lon="6.11075">
        <ele>2047.4</ele>
        <time>2022-12-29T11:59:02Z</time>
      </trkpt>
      <trkpt lat="45.01204" lon="6.11081">
        <ele>2047.4</ele>
        <time>2022-12-29T11:59:03Z</time>
      </trkpt>
      <trkpt lat="45.01206" lon="6.11087">
        <ele>2047.4</ele>
        <time>2022-12-29T11:59:04Z</time>
      </trkpt>
      <trkpt lat="45.01209" lon="6.11093">
        <ele>2047.4</ele>
        <time>2022-12-29T11:59:05Z</time>
      </trkpt>
      <trkpt lat="45.01212" lon="6.11099">
        <ele>2033.4</ele>
        <time>2022-12-29T11:59:06Z</time>
      </trkpt>
      <trkpt lat="45.01212" lon="6.11109">
        <ele>2033.4</ele>
        <time>2022-12-29T11:59:07Z</time>
      </trkpt>
      <trkpt lat="45.01212" lon="6.11113">
        <ele>2033.4</ele>
        <time>2022-12-29T11:59:08Z</time>
      </trkpt>
      <trkpt lat="45.01212" lon="6.11116">
        <ele>2033.4</ele>
        <time>2022-12-29T11:59:09Z</time>
      </trkpt>
      <trkpt lat="45.01212" lon="6.11119">
        <ele>2033.4</ele>
        <time>2022-12-29T11:59:10Z</time>
      </trkpt>
      <trkpt lat="45.01212" lon="6.11123">
        <ele>2033.4</ele>
        <time>2022-12-29T11:59:11Z</time>
      </trkpt>
      <trkpt lat="45.01212" lon="6.11126">
        <ele>2033.4</ele>
        <time>2022-12-29T11:59:12Z</time>
      </trkpt>
      <trkpt lat="45.01212" lon="6.11129">
        <ele>2033.4</ele>
        <time>2022-12-29T11:59:13Z</time>
      </trkpt>
      <trkpt lat="45.01212" lon="6.11133">
        <ele>2033.4</ele>
        <time>2022-12-29T11:59:14Z</time>
      </trkpt>
      <trkpt lat="45.01212" lon="6.11136">
        <ele>2033.4</ele>
        <time>2022-12-29T11:59:15Z</time>
      </trkpt>
      <trkpt lat="45.01212" lon="6.11139">
        <ele>2020.8</ele>
        <time>2022-12-29T11:59:16Z</time>
      </trkpt>
      <trkpt lat="45.01209" lon="6.11145">
        <ele>2020.8</ele>
        <time>2022-12-29T11:59:17Z</time>
      </trkpt>
      <trkpt lat="45.01209" lon="6.11148">
        <ele>2020.8</ele>
        <time>2022-12-29T11:59:18Z</time>
      </trkpt>
      <trkpt lat="45.01208" lon="6.11151">
        <ele>2020.8</ele>
        <time>2022-12-29T11:59:19Z</time>
      </trkpt>
      <trkpt lat="45.01207" lon="6.11154">
        <ele>2020.8</ele>
        <time>2022-12-29T11:59:20Z</time>
      </trkpt>
      <trkpt lat="45.01207" lon="6.11157">
        <ele>2020.8</ele>
        <time>2022-12-29T11:59:21Z</time>
      </trkpt>
      <trkpt lat="45.01206" lon="6.1116">
        <ele>2020.8</ele>
        <time>2022-12-29T11:59:22Z</time>
      </trkpt>
      <trkpt lat="45.01206" lon="6.11163">
        <ele>2020.8</ele>
        <time>2022-12-29T11:59:23Z</time>
      </trkpt>
      <trkpt lat="45.01205" lon="6.11166">
        <ele>2020.8</ele>
        <time>2022-12-29T11:59:24Z</time>
      </trkpt>
      <trkpt lat="45.01204" lon="6.11169">
        <ele>2020.8</ele>
        <time>2022-12-29T11:59:25Z</time>
      </trkpt>
      <trkpt lat="45.01204" lon="6.11172">
        <ele>2008.2</ele>
        <time>2022-12-29T11:59:26Z</time>
      </trkpt>
      <trkpt lat="45.01207" lon="6.11183">
        <ele>2008.2</ele>
        <time>2022-12-29T11:59:27Z</time>
      </trkpt>
      <trkpt lat="45.01208" lon="6.1119">
        <ele>2008.2</ele>
        <time>2022-12-29T11:59:28Z</time>
      </trkpt>
      <trkpt lat="45.01209" lon="6.11197">
        <ele>2008.2</ele>
        <time>2022-12-29T11:59:29Z</time>
      </trkpt>
      <trkpt lat="45.01209" lon="6.11204">
        <ele>2008.2</ele>
        <time>2022-12-29T11:59:30Z</time>
      </trkpt>
      <trkpt lat="45.0121" lon="6.11211">
        <ele>2008.2</ele>
        <time>2022-12-29T11:59:31Z</time>
      </trkpt>
      <trkpt lat="45.01211" lon="6.11218">
        <ele>2008.2</ele>
        <time>2022-12-29T11:59:32Z</time>
      </trkpt>
      <trkpt lat="45.01211" lon="6.11225">
        <ele>2008.2</ele>
        <time>2022-12-29T11:59:33Z</time>
      </trkpt>
      <trkpt lat="45.01212" lon="6.11232">
        <ele>2008.2</ele>
        <time>2022-12-29T11:59:34Z</time>
      </trkpt>
      <trkpt lat="45.01213" lon="6.11238">
        <ele>2008.2</ele>
        <time>2022-12-29T11:59:35Z</time>
      </trkpt>
      <trkpt lat="45.01213" lon="6.11245">
        <ele>1989.2</ele>
        <time>2022-12-29T11:59:36Z</time>
      </trkpt>
      <trkpt lat="45.01207" lon="6.11259">
        <ele>1989.2</ele>
        <time>2022-12-29T11:59:37Z</time>
      </trkpt>
      <trkpt lat="45.01205" lon="6.11263">
        <ele>1989.2</ele>
        <time>2022-12-29T11:59:38Z</time>
      </trkpt>
      <trkpt lat="45.01203" lon="6.11267">
        <ele>1989.2</ele>
        <time>2022-12-29T11:59:39Z</time>
      </trkpt>
      <trkpt lat="45.01201" lon="6.11272">
        <ele>1989.2</ele>
        <time>2022-12-29T11:59:40Z</time>
      </trkpt>
      <trkpt lat="45.01199" lon="6.11276">
        <ele>1989.2</ele>
        <time>2022-12-29T11:59:41Z</time>
      </trkpt>
      <trkpt lat="45.01196" lon="6.1128">
        <ele>1989.2</ele>
        <time>2022-12-29T11:59:42Z</time>
      </trkpt>
      <trkpt lat="45.01194" lon="6.11284">
        <ele>1989.2</ele>
        <time>2022-12-29T11:59:43Z</time>
      </trkpt>
      <trkpt lat="45.01192" lon="6.11289">
        <ele>1989.2</ele>
        <time>2022-12-29T11:59:44Z</time>
      </trkpt>
      <trkpt lat="45.0119" lon="6.11293">
        <ele>1989.2</ele>
        <time>2022-12-29T11:59:45Z</time>
      </trkpt>
      <trkpt lat="45.01188" lon="6.11297">
        <ele>1965.6</ele>
        <time>2022-12-29T11:59:46Z</time>
      </trkpt>
      <trkpt lat="45.0118" lon="6.11303">
        <ele>1965.6</ele>
        <time>2022-12-29T11:59:47Z</time>
      </trkpt>
      <trkpt lat="45.01175" lon="6.11309">
        <ele>1965.6</ele>
        <time>2022-12-29T11:59:48Z</time>
      </trkpt>
      <trkpt lat="45.01171" lon="6.11314">
        <ele>1965.6</ele>
        <time>2022-12-29T11:59:49Z</time>
      </trkpt>
      <trkpt lat="45.01167" lon="6.1132">
        <ele>1965.6</ele>
        <time>2022-12-29T11:59:50Z</time>
      </trkpt>
      <trkpt lat="45.01162" lon="6.11325">
        <ele>1965.6</ele>
        <time>2022-12-29T11:59:51Z</time>
      </trkpt>
      <trkpt lat="45.01158" lon="6.11331">
        <ele>1965.6</ele>
        <time>2022-12-29T11:59:52Z</time>
      </trkpt>
      <trkpt lat="45.01153" lon="6.11336">
        <ele>1965.6</ele>
        <time>2022-12-29T11:59:53Z</time>
      </trkpt>
      <trkpt lat="45.01149" lon="6.11342">
        <ele>1965.6</ele>
        <time>2022-12-29T11:59:54Z</time>
      </trkpt>
      <trkpt lat="45.01145" lon="6.11347">
        <ele>1965.6</ele>
        <time>2022-12-29T11:59:55Z</time>
      </trkpt>
      <trkpt lat="45.0114" lon="6.11353">
        <ele>1942.8</ele>
        <time>2022-12-29T11:59:56Z</time>
      </trkpt>
      <trkpt lat="45.0113" lon="6.11364">
        <ele>1942.8</ele>
        <time>2022-12-29T11:59:57Z</time>
      </trkpt>
      <trkpt lat="45.01125" lon="6.11369">
        <ele>1942.8</ele>
        <time>2022-12-29T11:59:58Z</time>
      </trkpt>
      <trkpt lat="45.0112" lon="6.11373">
        <ele>1942.8</ele>
        <time>2022-12-29T11:59:59Z</time>
      </trkpt>
      <trkpt lat="45.01116" lon="6.11378">
        <ele>1942.8</ele>
        <time>2022-12-29T12:00:00Z</time>
      </trkpt>
      <trkpt lat="45.01111" lon="6.11382">
        <ele>1942.8</ele>
        <time>2022-12-29T12:00:01Z</time>
      </trkpt>
      <trkpt lat="45.01106" lon="6.11387">
        <ele>1942.8</ele>
        <time>2022-12-29T12:00:02Z</time>
      </trkpt>
      <trkpt lat="45.01101" lon="6.11391">
        <ele>1942.8</ele>
        <time>2022-12-29T12:00:03Z</time>
      </trkpt>
      <trkpt lat="45.01097" lon="6.11396">
        <ele>1942.8</ele>
        <time>2022-12-29T12:00:04Z</time>
      </trkpt>
      <trkpt lat="45.01092" lon="6.114">
        <ele>1942.8</ele>
        <time>2022-12-29T12:00:05Z</time>
      </trkpt>
      <trkpt lat="45.01087" lon="6.11405">
        <ele>1924.2</ele>
        <time>2022-12-29T12:00:06Z</time>
      </trkpt>
      <trkpt lat="45.01075" lon="6.11411">
        <ele>1924.2</ele>
        <time>2022-12-29T12:00:07Z</time>
      </trkpt>
      <trkpt lat="45.0107" lon="6.11415">
        <ele>1924.2</ele>
        <time>2022-12-29T12:00:08Z</time>
      </trkpt>
      <trkpt lat="45.01065" lon="6.11419">
        <ele>1924.2</ele>
        <time>2022-12-29T12:00:09Z</time>
      </trkpt>
      <trkpt lat="45.0106" lon="6.11423">
        <ele>1924.2</ele>
        <time>2022-12-29T12:00:10Z</time>
      </trkpt>
      <trkpt lat="45.01055" lon="6.11427">
        <ele>1924.2</ele>
        <time>2022-12-29T12:00:11Z</time>
      </trkpt>
      <trkpt lat="45.0105" lon="6.11431">
        <ele>1924.2</ele>
        <time>2022-12-29T12:00:12Z</time>
      </trkpt>
      <trkpt lat="45.01044" lon="6.11435">
        <ele>1924.2</ele>
        <time>2022-12-29T12:00:13Z</time>
      </trkpt>
      <trkpt lat="45.01039" lon="6.11439">
        <ele>1924.2</ele>
        <time>2022-12-29T12:00:14Z</time>
      </trkpt>
      <trkpt lat="45.01034" lon="6.11443">
        <ele>1924.2</ele>
        <time>2022-12-29T12:00:15Z</time>
      </trkpt>
      <trkpt lat="45.01029" lon="6.11447">
        <ele>1911.4</ele>
        <time>2022-12-29T12:00:16Z</time>
      </trkpt>
      <trkpt lat="45.01019" lon="6.11454">
        <ele>1911.4</ele>
        <time>2022-12-29T12:00:17Z</time>
      </trkpt>
      <trkpt lat="45.01014" lon="6.11457">
        <ele>1911.4</ele>
        <time>2022-12-29T12:00:18Z</time>
      </trkpt>
      <trkpt lat="45.0101" lon="6.1146">
        <ele>1911.4</ele>
        <time>2022-12-29T12:00:19Z</time>
      </trkpt>
      <trkpt lat="45.01005" lon="6.11463">
        <ele>1911.4</ele>
        <time>2022-12-29T12:00:20Z</time>
      </trkpt>
      <trkpt lat="45.01" lon="6.11467">
        <ele>1911.4</ele>
        <time>2022-12-29T12:00:21Z</time>
      </trkpt>
      <trkpt lat="45.00995" lon="6.1147">
        <ele>1911.4</ele>
        <time>2022-12-29T12:00:22Z</time>
      </trkpt>
      <trkpt lat="45.0099" lon="6.11473">
        <ele>1911.4</ele>
        <time>2022-12-29T12:00:23Z</time>
      </trkpt>
      <trkpt lat="45.00985" lon="6.11476">
        <ele>1911.4</ele>
        <time>2022-12-29T12:00:24Z</time>
      </trkpt>
      <trkpt lat="45.00981" lon="6.11479">
        <ele>1911.4</ele>
        <time>2022-12-29T12:00:25Z</time>
      </trkpt>
      <trkpt lat="45.00976" lon="6.11483">
        <ele>1901.8</ele>
        <time>2022-12-29T12:00:26Z</time>
      </trkpt>
      <trkpt lat="45.00969" lon="6.11493">
        <ele>1901.8</ele>
        <time>2022-12-29T12:00:27Z</time>
      </trkpt>
      <trkpt lat="45.00966" lon="6.11498">
        <ele>1901.8</ele>
        <time>2022-12-29T12:00:28Z</time>
      </trkpt>
      <trkpt lat="45.00964" lon="6.11502">
        <ele>1901.8</ele>
        <time>2022-12-29T12:00:29Z</time>
      </trkpt>
      <trkpt lat="45.00962" lon="6.11506">
        <ele>1901.8</ele>
        <time>2022-12-29T12:00:30Z</time>
      </trkpt>
      <trkpt lat="45.00959" lon="6.11511">
        <ele>1901.8</ele>
        <time>2022-12-29T12:00:31Z</time>
      </trkpt>
      <trkpt lat="45.00957" lon="6.11515">
        <ele>1901.8</ele>
        <time>2022-12-29T12:00:32Z</time>
      </trkpt>
      <trkpt lat="45.00954" lon="6.11519">
        <ele>1901.8</ele>
        <time>2022-12-29T12:00:33Z</time>
      </trkpt>
      <trkpt lat="45.00952" lon="6.11524">
        <ele>1901.8</ele>
        <time>2022-12-29T12:00:34Z</time>
      </trkpt>
      <trkpt lat="45.0095" lon="6.11528">
        <ele>1901.8</ele>
        <time>2022-12-29T12:00:35Z</time>
      </trkpt>
      <trkpt lat="45.00947" lon="6.11532">
        <ele>1892</ele>
        <time>2022-12-29T12:00:36Z</time>
      </trkpt>
      <trkpt lat="45.00952" lon="6.11546">
        <ele>1892</ele>
        <time>2022-12-29T12:00:37Z</time>
      </trkpt>
      <trkpt lat="45.00954" lon="6.11553">
        <ele>1892</ele>
        <time>2022-12-29T12:00:38Z</time>
      </trkpt>
      <trkpt lat="45.00956" lon="6.1156">
        <ele>1892</ele>
        <time>2022-12-29T12:00:39Z</time>
      </trkpt>
      <trkpt lat="45.00959" lon="6.11568">
        <ele>1892</ele>
        <time>2022-12-29T12:00:40Z</time>
      </trkpt>
      <trkpt lat="45.00961" lon="6.11575">
        <ele>1892</ele>
        <time>2022-12-29T12:00:41Z</time>
      </trkpt>
      <trkpt lat="45.00964" lon="6.11583">
        <ele>1892</ele>
        <time>2022-12-29T12:00:42Z</time>
      </trkpt>
      <trkpt lat="45.00966" lon="6.1159">
        <ele>1892</ele>
        <time>2022-12-29T12:00:43Z</time>
      </trkpt>
      <trkpt lat="45.00968" lon="6.11597">
        <ele>1892</ele>
        <time>2022-12-29T12:00:44Z</time>
      </trkpt>
      <trkpt lat="45.00971" lon="6.11605">
        <ele>1892</ele>
        <time>2022-12-29T12:00:45Z</time>
      </trkpt>
      <trkpt lat="45.00973" lon="6.11612">
        <ele>1872</ele>
        <time>2022-12-29T12:00:46Z</time>
      </trkpt>
      <trkpt lat="45.0097" lon="6.11629">
        <ele>1872</ele>
        <time>2022-12-29T12:00:47Z</time>
      </trkpt>
      <trkpt lat="45.00968" lon="6.11636">
        <ele>1872</ele>
        <time>2022-12-29T12:00:48Z</time>
      </trkpt>
      <trkpt lat="45.00965" lon="6.11643">
        <ele>1872</ele>
        <time>2022-12-29T12:00:49Z</time>
      </trkpt>
      <trkpt lat="45.00963" lon="6.11649">
        <ele>1872</ele>
        <time>2022-12-29T12:00:50Z</time>
      </trkpt>
      <trkpt lat="45.00961" lon="6.11656">
        <ele>1872</ele>
        <time>2022-12-29T12:00:51Z</time>
      </trkpt>
      <trkpt lat="45.00958" lon="6.11662">
        <ele>1872</ele>
        <time>2022-12-29T12:00:52Z</time>
      </trkpt>
      <trkpt lat="45.00956" lon="6.11669">
        <ele>1872</ele>
        <time>2022-12-29T12:00:53Z</time>
      </trkpt>
      <trkpt lat="45.00954" lon="6.11676">
        <ele>1872</ele>
        <time>2022-12-29T12:00:54Z</time>
      </trkpt>
      <trkpt lat="45.00951" lon="6.11682">
        <ele>1872</ele>
        <time>2022-12-29T12:00:55Z</time>
      </trkpt>
      <trkpt lat="45.00949" lon="6.11689">
        <ele>1849.8</ele>
        <time>2022-12-29T12:00:56Z</time>
      </trkpt>
      <trkpt lat="45.00941" lon="6.11696">
        <ele>1849.8</ele>
        <time>2022-12-29T12:00:57Z</time>
      </trkpt>
      <trkpt lat="45.00937" lon="6.11699">
        <ele>1849.8</ele>
        <time>2022-12-29T12:00:58Z</time>
      </trkpt>
      <trkpt lat="45.00933" lon="6.11703">
        <ele>1849.8</ele>
        <time>2022-12-29T12:00:59Z</time>
      </trkpt>
      <trkpt lat="45.00929" lon="6.11706">
        <ele>1849.8</ele>
        <time>2022-12-29T12:01:00Z</time>
      </trkpt>
      <trkpt lat="45.00925" lon="6.11709">
        <ele>1849.8</ele>
        <time>2022-12-29T12:01:01Z</time>
      </trkpt>
      <trkpt lat="45.00921" lon="6.11712">
        <ele>1849.8</ele>
        <time>2022-12-29T12:01:02Z</time>
      </trkpt>
      <trkpt lat="45.00917" lon="6.11715">
        <ele>1849.8</ele>
        <time>2022-12-29T12:01:03Z</time>
      </trkpt>
      <trkpt lat="45.00913" lon="6.11719">
        <ele>1849.8</ele>
        <time>2022-12-29T12:01:04Z</time>
      </trkpt>
      <trkpt lat="45.00909" lon="6.11722">
        <ele>1849.8</ele>
        <time>2022-12-29T12:01:05Z</time>
      </trkpt>
      <trkpt lat="45.00905" lon="6.11725">
        <ele>1826.8</ele>
        <time>2022-12-29T12:01:06Z</time>
      </trkpt>
      <trkpt lat="45.00894" lon="6.11733">
        <ele>1826.8</ele>
        <time>2022-12-29T12:01:07Z</time>
      </trkpt>
      <trkpt lat="45.00889" lon="6.11736">
        <ele>1826.8</ele>
        <time>2022-12-29T12:01:08Z</time>
      </trkpt>
      <trkpt lat="45.00885" lon="6.1174">
        <ele>1826.8</ele>
        <time>2022-12-29T12:01:09Z</time>
      </trkpt>
      <trkpt lat="45.0088" lon="6.11743">
        <ele>1826.8</ele>
        <time>2022-12-29T12:01:10Z</time>
      </trkpt>
      <trkpt lat="45.00875" lon="6.11747">
        <ele>1826.8</ele>
        <time>2022-12-29T12:01:11Z</time>
      </trkpt>
      <trkpt lat="45.0087" lon="6.1175">
        <ele>1826.8</ele>
        <time>2022-12-29T12:01:12Z</time>
      </trkpt>
      <trkpt lat="45.00865" lon="6.11754">
        <ele>1826.8</ele>
        <time>2022-12-29T12:01:13Z</time>
      </trkpt>
      <trkpt lat="45.0086" lon="6.11757">
        <ele>1826.8</ele>
        <time>2022-12-29T12:01:14Z</time>
      </trkpt>
      <trkpt lat="45.00855" lon="6.11761">
        <ele>1826.8</ele>
        <time>2022-12-29T12:01:15Z</time>
      </trkpt>
      <trkpt lat="45.0085" lon="6.11764">
        <ele>1795.8</ele>
        <time>2022-12-29T12:01:16Z</time>
      </trkpt>
      <trkpt lat="45.00838" lon="6.11769">
        <ele>1795.8</ele>
        <time>2022-12-29T12:01:17Z</time>
      </trkpt>
      <trkpt lat="45.00832" lon="6.11771">
        <ele>1795.8</ele>
        <time>2022-12-29T12:01:18Z</time>
      </trkpt>
      <trkpt lat="45.00825" lon="6.11773">
        <ele>1795.8</ele>
        <time>2022-12-29T12:01:19Z</time>
      </trkpt>
      <trkpt lat="45.00819" lon="6.11774">
        <ele>1795.8</ele>
        <time>2022-12-29T12:01:20Z</time>
      </trkpt>
      <trkpt lat="45.00813" lon="6.11776">
        <ele>1795.8</ele>
        <time>2022-12-29T12:01:21Z</time>
      </trkpt>
      <trkpt lat="45.00806" lon="6.11778">
        <ele>1795.8</ele>
        <time>2022-12-29T12:01:22Z</time>
      </trkpt>
      <trkpt lat="45.008" lon="6.1178">
        <ele>1795.8</ele>
        <time>2022-12-29T12:01:23Z</time>
      </trkpt>
      <trkpt lat="45.00794" lon="6.11781">
        <ele>1795.8</ele>
        <time>2022-12-29T12:01:24Z</time>
      </trkpt>
      <trkpt lat="45.00787" lon="6.11783">
        <ele>1795.8</ele>
        <time>2022-12-29T12:01:25Z</time>
      </trkpt>
      <trkpt lat="45.00781" lon="6.11785">
        <ele>1766.8</ele>
        <time>2022-12-29T12:01:26Z</time>
      </trkpt>
      <trkpt lat="45.00768" lon="6.11784">
        <ele>1766.8</ele>
        <time>2022-12-29T12:01:27Z</time>
      </trkpt>
      <trkpt lat="45.00763" lon="6.11784">
        <ele>1766.8</ele>
        <time>2022-12-29T12:01:28Z</time>
      </trkpt>
      <trkpt lat="45.00757" lon="6.11784">
        <ele>1766.8</ele>
        <time>2022-12-29T12:01:29Z</time>
      </trkpt>
      <trkpt lat="45.00752" lon="6.11785">
        <ele>1766.8</ele>
        <time>2022-12-29T12:01:30Z</time>
      </trkpt>
      <trkpt lat="45.00747" lon="6.11785">
        <ele>1766.8</ele>
        <time>2022-12-29T12:01:31Z</time>
      </trkpt>
      <trkpt lat="45.00742" lon="6.11785">
        <ele>1766.8</ele>
        <time>2022-12-29T12:01:32Z</time>
      </trkpt>
      <trkpt lat="45.00737" lon="6.11785">
        <ele>1766.8</ele>
        <time>2022-12-29T12:01:33Z</time>
      </trkpt>
      <trkpt lat="45.00732" lon="6.11786">
        <ele>1766.8</ele>
        <time>2022-12-29T12:01:34Z</time>
      </trkpt>
      <trkpt lat="45.00726" lon="6.11786">
        <ele>1766.8</ele>
        <time>2022-12-29T12:01:35Z</time>
      </trkpt>
      <trkpt lat="45.00721" lon="6.11786">
        <ele>1750.2</ele>
        <time>2022-12-29T12:01:36Z</time>
      </trkpt>
      <trkpt lat="45.00714" lon="6.11792">
        <ele>1750.2</ele>
        <time>2022-12-29T12:01:37Z</time>
      </trkpt>
      <trkpt lat="45.00711" lon="6.11795">
        <ele>1750.2</ele>
        <time>2022-12-29T12:01:38Z</time>
      </trkpt>
      <trkpt lat="45.00708" lon="6.11798">
        <ele>1750.2</ele>
        <time>2022-12-29T12:01:39Z</time>
      </trkpt>
      <trkpt lat="45.00705" lon="6.11801">
        <ele>1750.2</ele>
        <time>2022-12-29T12:01:40Z</time>
      </trkpt>
      <trkpt lat="45.00702" lon="6.11804">
        <ele>1750.2</ele>
        <time>2022-12-29T12:01:41Z</time>
      </trkpt>
      <trkpt lat="45.00699" lon="6.11807">
        <ele>1750.2</ele>
        <time>2022-12-29T12:01:42Z</time>
      </trkpt>
      <trkpt lat="45.00695" lon="6.11809">
        <ele>1750.2</ele>
        <time>2022-12-29T12:01:43Z</time>
      </trkpt>
      <trkpt lat="45.00692" lon="6.11812">
        <ele>1750.2</ele>
        <time>2022-12-29T12:01:44Z</time>
      </trkpt>
      <trkpt lat="45.00689" lon="6.11815">
        <ele>1750.2</ele>
        <time>2022-12-29T12:01:45Z</time>
      </trkpt>
      <trkpt lat="45.00686" lon="6.11818">
        <ele>1738.8</ele>
        <time>2022-12-29T12:01:46Z</time>
      </trkpt>
      <trkpt lat="45.00682" lon="6.11827">
        <ele>1738.8</ele>
        <time>2022-12-29T12:01:47Z</time>
      </trkpt>
      <trkpt lat="45.00681" lon="6.11832">
        <ele>1738.8</ele>
        <time>2022-12-29T12:01:48Z</time>
      </trkpt>
      <trkpt lat="45.00681" lon="6.11838">
        <ele>1738.8</ele>
        <time>2022-12-29T12:01:49Z</time>
      </trkpt>
      <trkpt lat="45.0068" lon="6.11843">
        <ele>1738.8</ele>
        <time>2022-12-29T12:01:50Z</time>
      </trkpt>
      <trkpt lat="45.00679" lon="6.11849">
        <ele>1738.8</ele>
        <time>2022-12-29T12:01:51Z</time>
      </trkpt>
      <trkpt lat="45.00678" lon="6.11855">
        <ele>1738.8</ele>
        <time>2022-12-29T12:01:52Z</time>
      </trkpt>
      <trkpt lat="45.00677" lon="6.1186">
        <ele>1738.8</ele>
        <time>2022-12-29T12:01:53Z</time>
      </trkpt>
      <trkpt lat="45.00677" lon="6.11866">
        <ele>1738.8</ele>
        <time>2022-12-29T12:01:54Z</time>
      </trkpt>
      <trkpt lat="45.00676" lon="6.11871">
        <ele>1738.8</ele>
        <time>2022-12-29T12:01:55Z</time>
      </trkpt>
      <trkpt lat="45.00675" lon="6.11877">
        <ele>1721.6</ele>
        <time>2022-12-29T12:01:56Z</time>
      </trkpt>
      <trkpt lat="45.00677" lon="6.11888">
        <ele>1721.6</ele>
        <time>2022-12-29T12:01:57Z</time>
      </trkpt>
      <trkpt lat="45.00679" lon="6.11892">
        <ele>1721.6</ele>
        <time>2022-12-29T12:01:58Z</time>
      </trkpt>
      <trkpt lat="45.00681" lon="6.11897">
        <ele>1721.6</ele>
        <time>2022-12-29T12:01:59Z</time>
      </trkpt>
      <trkpt lat="45.00682" lon="6.11901">
        <ele>1721.6</ele>
        <time>2022-12-29T12:02:00Z</time>
      </trkpt>
      <trkpt lat="45.00684" lon="6.11906">
        <ele>1721.6</ele>
        <time>2022-12-29T12:02:01Z</time>
      </trkpt>
      <trkpt lat="45.00685" lon="6.1191">
        <ele>1721.6</ele>
        <time>2022-12-29T12:02:02Z</time>
      </trkpt>
      <trkpt lat="45.00687" lon="6.11914">
        <ele>1721.6</ele>
        <time>2022-12-29T12:02:03Z</time>
      </trkpt>
      <trkpt lat="45.00689" lon="6.11919">
        <ele>1721.6</ele>
        <time>2022-12-29T12:02:04Z</time>
      </trkpt>
      <trkpt lat="45.0069" lon="6.11923">
        <ele>1721.6</ele>
        <time>2022-12-29T12:02:05Z</time>
      </trkpt>
      <trkpt lat="45.00692" lon="6.11928">
        <ele>1709.4</ele>
        <time>2022-12-29T12:02:06Z</time>
      </trkpt>
      <trkpt lat="45.00687" lon="6.11934">
        <ele>1709.4</ele>
        <time>2022-12-29T12:02:07Z</time>
      </trkpt>
      <trkpt lat="45.00684" lon="6.11935">
        <ele>1709.4</ele>
        <time>2022-12-29T12:02:08Z</time>
      </trkpt>
      <trkpt lat="45.00682" lon="6.11936">
        <ele>1709.4</ele>
        <time>2022-12-29T12:02:09Z</time>
      </trkpt>
      <trkpt lat="45.00679" lon="6.11938">
        <ele>1709.4</ele>
        <time>2022-12-29T12:02:10Z</time>
      </trkpt>
      <trkpt lat="45.00676" lon="6.11939">
        <ele>1709.4</ele>
        <time>2022-12-29T12:02:11Z</time>
      </trkpt>
      <trkpt lat="45.00673" lon="6.1194">
        <ele>1709.4</ele>
        <time>2022-12-29T12:02:12Z</time>
      </trkpt>
      <trkpt lat="45.00671" lon="6.11941">
        <ele>1709.4</ele>
        <time>2022-12-29T12:02:13Z</time>
      </trkpt>
      <trkpt lat="45.00668" lon="6.11943">
        <ele>1709.4</ele>
        <time>2022-12-29T12:02:14Z</time>
      </trkpt>
      <trkpt lat="45.00665" lon="6.11944">
        <ele>1709.4</ele>
        <time>2022-12-29T12:02:15Z</time>
      </trkpt>
      <trkpt lat="45.00663" lon="6.11945">
        <ele>1697.4</ele>
        <time>2022-12-29T12:02:16Z</time>
      </trkpt>
      <trkpt lat="45.00661" lon="6.11946">
        <ele>1697.4</ele>
        <time>2022-12-29T12:02:17Z</time>
      </trkpt>
      <trkpt lat="45.00661" lon="6.11946">
        <ele>1697.4</ele>
        <time>2022-12-29T12:02:18Z</time>
      </trkpt>
      <trkpt lat="45.0066" lon="6.11947">
        <ele>1697.4</ele>
        <time>2022-12-29T12:02:19Z</time>
      </trkpt>
      <trkpt lat="45.0066" lon="6.11947">
        <ele>1697.4</ele>
        <time>2022-12-29T12:02:20Z</time>
      </trkpt>
      <trkpt lat="45.0066" lon="6.11947">
        <ele>1697.4</ele>
        <time>2022-12-29T12:02:21Z</time>
      </trkpt>
      <trkpt lat="45.00659" lon="6.11948">
        <ele>1697.4</ele>
        <time>2022-12-29T12:02:22Z</time>
      </trkpt>
      <trkpt lat="45.00659" lon="6.11948">
        <ele>1697.4</ele>
        <time>2022-12-29T12:02:23Z</time>
      </trkpt>
      <trkpt lat="45.00658" lon="6.11949">
        <ele>1697.4</ele>
        <time>2022-12-29T12:02:24Z</time>
      </trkpt>
      <trkpt lat="45.00658" lon="6.11949">
        <ele>1697.4</ele>
        <time>2022-12-29T12:02:25Z</time>
      </trkpt>
      <trkpt lat="45.00658" lon="6.1195">
        <ele>1694.2</ele>
        <time>2022-12-29T12:02:26Z</time>
      </trkpt>
      <trkpt lat="45.00658" lon="6.1195">
        <ele>1694.2</ele>
        <time>2022-12-29T12:02:27Z</time>
      </trkpt>
      <trkpt lat="45.00658" lon="6.1195">
        <ele>1694.2</ele>
        <time>2022-12-29T12:02:28Z</time>
      </trkpt>
      <trkpt lat="45.00655" lon="6.11949">
        <ele>1694.2</ele>
        <time>2022-12-29T12:02:29Z</time>
      </trkpt>
      <trkpt lat="45.00655" lon="6.11949">
        <ele>1694.2</ele>
        <time>2022-12-29T12:02:30Z</time>
      </trkpt>
      <trkpt lat="45.00655" lon="6.11949">
        <ele>1694.2</ele>
        <time>2022-12-29T12:02:31Z</time>
      </trkpt>
      <trkpt lat="45.00655" lon="6.11949">
        <ele>1694.2</ele>
        <time>2022-12-29T12:02:32Z</time>
      </trkpt>
      <trkpt lat="45.00655" lon="6.11949">
        <ele>1694.2</ele>
        <time>2022-12-29T12:02:33Z</time>
      </trkpt>
      <trkpt lat="45.00655" lon="6.11949">
        <ele>1694.2</ele>
        <time>2022-12-29T12:02:34Z</time>
      </trkpt>
      <trkpt lat="45.00655" lon="6.11949">
        <ele>1694.2</ele>
        <time>2022-12-29T12:02:35Z</time>
      </trkpt>
      <trkpt lat="45.00655" lon="6.11949">
        <ele>1693.6</ele>
        <time>2022-12-29T12:02:36Z</time>
      </trkpt>
      <trkpt lat="45.00655" lon="6.11949">
        <ele>1693.6</ele>
        <time>2022-12-29T12:02:37Z</time>
      </trkpt>
      <trkpt lat="45.00655" lon="6.11949">
        <ele>1693.6</ele>
        <time>2022-12-29T12:02:38Z</time>
      </trkpt>
      <trkpt lat="45.00655" lon="6.1195">
        <ele>1693.6</ele>
        <time>2022-12-29T12:02:39Z</time>
      </trkpt>
      <trkpt lat="45.00655" lon="6.1195">
        <ele>1693.6</ele>
        <time>2022-12-29T12:02:40Z</time>
      </trkpt>
      <trkpt lat="45.00655" lon="6.1195">
        <ele>1693.6</ele>
        <time>2022-12-29T12:02:41Z</time>
      </trkpt>
      <trkpt lat="45.00655" lon="6.1195">
        <ele>1693.6</ele>
        <time>2022-12-29T12:02:42Z</time>
      </trkpt>
      <trkpt lat="45.00655" lon="6.1195">
        <ele>1693.6</ele>
        <time>2022-12-29T12:02:43Z</time>
      </trkpt>
      <trkpt lat="45.00655" lon="6.1195">
        <ele>1693.6</ele>
        <time>2022-12-29T12:02:44Z</time>
      </trkpt>
      <trkpt lat="45.00655" lon="6.1195">
        <ele>1693.6</ele>
        <time>2022-12-29T12:02:45Z</time>
      </trkpt>
      <trkpt lat="45.00655" lon="6.1195">
        <ele>1693.6</ele>
        <time>2022-12-29T12:02:46Z</time>
      </trkpt>
      <trkpt lat="45.00655" lon="6.1195">
        <ele>1693.6</ele>
        <time>2022-12-29T12:02:47Z</time>
      </trkpt>
      <trkpt lat="45.00655" lon="6.1195">
        <ele>1693.6</ele>
        <time>2022-12-29T12:02:48Z</time>
      </trkpt>
      <trkpt lat="45.00655" lon="6.11951">
        <ele>1693.6</ele>
        <time>2022-12-29T12:02:49Z</time>
      </trkpt>
      <trkpt lat="45.00655" lon="6.11951">
        <ele>1693.6</ele>
        <time>2022-12-29T12:02:50Z</time>
      </trkpt>
      <trkpt lat="45.00655" lon="6.11951">
        <ele>1693.6</ele>
        <time>2022-12-29T12:02:51Z</time>
      </trkpt>
      <trkpt lat="45.00655" lon="6.11951">
        <ele>1693.6</ele>
        <time>2022-12-29T12:02:52Z</time>
      </trkpt>
      <trkpt lat="45.00655" lon="6.11951">
        <ele>1693.6</ele>
        <time>2022-12-29T12:02:53Z</time>
      </trkpt>
      <trkpt lat="45.00655" lon="6.11951">
        <ele>1693.6</ele>
        <time>2022-12-29T12:02:54Z</time>
      </trkpt>
      <trkpt lat="45.00655" lon="6.11951">
        <ele>1693.6</ele>
        <time>2022-12-29T12:02:55Z</time>
      </trkpt>
      <trkpt lat="45.00655" lon="6.11951">
        <ele>1694.2</ele>
        <time>2022-12-29T12:02:56Z</time>
      </trkpt>
      <trkpt lat="45.00655" lon="6.11951">
        <ele>1694.2</ele>
        <time>2022-12-29T12:02:57Z</time>
      </trkpt>
      <trkpt lat="45.00655" lon="6.11951">
        <ele>1694.2</ele>
        <time>2022-12-29T12:02:58Z</time>
      </trkpt>
      <trkpt lat="45.00655" lon="6.11952">
        <ele>1694.2</ele>
        <time>2022-12-29T12:02:59Z</time>
      </trkpt>
      <trkpt lat="45.00655" lon="6.11952">
        <ele>1694.2</ele>
        <time>2022-12-29T12:03:00Z</time>
      </trkpt>
      <trkpt lat="45.00655" lon="6.11952">
        <ele>1694.2</ele>
        <time>2022-12-29T12:03:01Z</time>
      </trkpt>
      <trkpt lat="45.00655" lon="6.11952">
        <ele>1694.2</ele>
        <time>2022-12-29T12:03:02Z</time>
      </trkpt>
      <trkpt lat="45.00655" lon="6.11952">
        <ele>1694.2</ele>
        <time>2022-12-29T12:03:03Z</time>
      </trkpt>
      <trkpt lat="45.00655" lon="6.11952">
        <ele>1694.2</ele>
        <time>2022-12-29T12:03:04Z</time>
      </trkpt>
      <trkpt lat="45.00655" lon="6.11952">
        <ele>1694.2</ele>
        <time>2022-12-29T12:03:05Z</time>
      </trkpt>
      <trkpt lat="45.00655" lon="6.11952">
        <ele>1693.6</ele>
        <time>2022-12-29T12:03:06Z</time>
      </trkpt>
      <trkpt lat="45.00655" lon="6.11952">
        <ele>1693.6</ele>
        <time>2022-12-29T12:03:07Z</time>
      </trkpt>
      <trkpt lat="45.00655" lon="6.11952">
        <ele>1693.6</ele>
        <time>2022-12-29T12:03:08Z</time>
      </trkpt>
      <trkpt lat="45.00655" lon="6.11953">
        <ele>1693.6</ele>
        <time>2022-12-29T12:03:09Z</time>
      </trkpt>
      <trkpt lat="45.00655" lon="6.11953">
        <ele>1693.6</ele>
        <time>2022-12-29T12:03:10Z</time>
      </trkpt>
      <trkpt lat="45.00655" lon="6.11953">
        <ele>1693.6</ele>
        <time>2022-12-29T12:03:11Z</time>
      </trkpt>
      <trkpt lat="45.00655" lon="6.11953">
        <ele>1693.6</ele>
        <time>2022-12-29T12:03:12Z</time>
      </trkpt>
      <trkpt lat="45.00655" lon="6.11953">
        <ele>1693.6</ele>
        <time>2022-12-29T12:03:13Z</time>
      </trkpt>
      <trkpt lat="45.00654" lon="6.11953">
        <ele>1693.6</ele>
        <time>2022-12-29T12:03:14Z</time>
      </trkpt>
      <trkpt lat="45.00654" lon="6.11953">
        <ele>1693.6</ele>
        <time>2022-12-29T12:03:15Z</time>
      </trkpt>
      <trkpt lat="45.00654" lon="6.11953">
        <ele>1694</ele>
        <time>2022-12-29T12:03:16Z</time>
      </trkpt>
      <trkpt lat="45.00654" lon="6.11953">
        <ele>1694</ele>
        <time>2022-12-29T12:03:17Z</time>
      </trkpt>
      <trkpt lat="45.00654" lon="6.11953">
        <ele>1694</ele>
        <time>2022-12-29T12:03:18Z</time>
      </trkpt>
      <trkpt lat="45.00654" lon="6.11954">
        <ele>1694</ele>
        <time>2022-12-29T12:03:19Z</time>
      </trkpt>
      <trkpt lat="45.00654" lon="6.11954">
        <ele>1694</ele>
        <time>2022-12-29T12:03:20Z</time>
      </trkpt>
      <trkpt lat="45.00654" lon="6.11954">
        <ele>1694</ele>
        <time>2022-12-29T12:03:21Z</time>
      </trkpt>
      <trkpt lat="45.00654" lon="6.11954">
        <ele>1694</ele>
        <time>2022-12-29T12:03:22Z</time>
      </trkpt>
      <trkpt lat="45.00654" lon="6.11954">
        <ele>1694</ele>
        <time>2022-12-29T12:03:23Z</time>
      </trkpt>
      <trkpt lat="45.00654" lon="6.11954">
        <ele>1694</ele>
        <time>2022-12-29T12:03:24Z</time>
      </trkpt>
      <trkpt lat="45.00654" lon="6.11954">
        <ele>1694</ele>
        <time>2022-12-29T12:03:25Z</time>
      </trkpt>
      <trkpt lat="45.00654" lon="6.11954">
        <ele>1693.6</ele>
        <time>2022-12-29T12:03:26Z</time>
      </trkpt>
      <trkpt lat="45.00654" lon="6.11954">
        <ele>1693.6</ele>
        <time>2022-12-29T12:03:27Z</time>
      </trkpt>
      <trkpt lat="45.00654" lon="6.11955">
        <ele>1693.6</ele>
        <time>2022-12-29T12:03:28Z</time>
      </trkpt>
      <trkpt lat="45.00654" lon="6.11955">
        <ele>1693.6</ele>
        <time>2022-12-29T12:03:29Z</time>
      </trkpt>
      <trkpt lat="45.00654" lon="6.11955">
        <ele>1693.6</ele>
        <time>2022-12-29T12:03:30Z</time>
      </trkpt>
      <trkpt lat="45.00654" lon="6.11955">
        <ele>1693.6</ele>
        <time>2022-12-29T12:03:31Z</time>
      </trkpt>
      <trkpt lat="45.00654" lon="6.11955">
        <ele>1693.6</ele>
        <time>2022-12-29T12:03:32Z</time>
      </trkpt>
      <trkpt lat="45.00654" lon="6.11955">
        <ele>1693.6</ele>
        <time>2022-12-29T12:03:33Z</time>
      </trkpt>
      <trkpt lat="45.00654" lon="6.11955">
        <ele>1693.6</ele>
        <time>2022-12-29T12:03:34Z</time>
      </trkpt>
      <trkpt lat="45.00654" lon="6.11955">
        <ele>1693.6</ele>
        <time>2022-12-29T12:03:35Z</time>
      </trkpt>
      <trkpt lat="45.00654" lon="6.11955">
        <ele>1694.6</ele>
        <time>2022-12-29T12:03:36Z</time>
      </trkpt>
      <trkpt lat="45.00654" lon="6.11955">
        <ele>1694.6</ele>
        <time>2022-12-29T12:03:37Z</time>
      </trkpt>
      <trkpt lat="45.00654" lon="6.11956">
        <ele>1694.6</ele>
        <time>2022-12-29T12:03:38Z</time>
      </trkpt>
      <trkpt lat="45.00654" lon="6.11956">
        <ele>1694.6</ele>
        <time>2022-12-29T12:03:39Z</time>
      </trkpt>
      <trkpt lat="45.00654" lon="6.11956">
        <ele>1694.6</ele>
        <time>2022-12-29T12:03:40Z</time>
      </trkpt>
      <trkpt lat="45.00654" lon="6.11956">
        <ele>1694.6</ele>
        <time>2022-12-29T12:03:41Z</time>
      </trkpt>
      <trkpt lat="45.00654" lon="6.11956">
        <ele>1694.6</ele>
        <time>2022-12-29T12:03:42Z</time>
      </trkpt>
      <trkpt lat="45.00654" lon="6.11956">
        <ele>1694.6</ele>
        <time>2022-12-29T12:03:43Z</time>
      </trkpt>
      <trkpt lat="45.00654" lon="6.11956">
        <ele>1694.6</ele>
        <time>2022-12-29T12:03:44Z</time>
      </trkpt>
      <trkpt lat="45.00654" lon="6.11956">
        <ele>1694.6</ele>
        <time>2022-12-29T12:03:45Z</time>
      </trkpt>
      <trkpt lat="45.00654" lon="6.11956">
        <ele>1694.8</ele>
        <time>2022-12-29T12:03:46Z</time>
      </trkpt>
      <trkpt lat="45.00654" lon="6.11956">
        <ele>1694.8</ele>
        <time>2022-12-29T12:03:47Z</time>
      </trkpt>
      <trkpt lat="45.00654" lon="6.11957">
        <ele>1694.8</ele>
        <time>2022-12-29T12:03:48Z</time>
      </trkpt>
      <trkpt lat="45.00654" lon="6.11957">
        <ele>1694.8</ele>
        <time>2022-12-29T12:03:49Z</time>
      </trkpt>
      <trkpt lat="45.00654" lon="6.11957">
        <ele>1694.8</ele>
        <time>2022-12-29T12:03:50Z</time>
      </trkpt>
      <trkpt lat="45.00654" lon="6.11957">
        <ele>1694.8</ele>
        <time>2022-12-29T12:03:51Z</time>
      </trkpt>
      <trkpt lat="45.00654" lon="6.11957">
        <ele>1694.8</ele>
        <time>2022-12-29T12:03:52Z</time>
      </trkpt>
      <trkpt lat="45.00654" lon="6.11957">
        <ele>1694.8</ele>
        <time>2022-12-29T12:03:53Z</time>
      </trkpt>
      <trkpt lat="45.00654" lon="6.11957">
        <ele>1694.8</ele>
        <time>2022-12-29T12:03:54Z</time>
      </trkpt>
      <trkpt lat="45.00654" lon="6.11957">
        <ele>1694.8</ele>
        <time>2022-12-29T12:03:55Z</time>
      </trkpt>
      <trkpt lat="45.00653" lon="6.11957">
        <ele>1692.8</ele>
        <time>2022-12-29T12:03:56Z</time>
      </trkpt>
      <trkpt lat="45.00652" lon="6.1196">
        <ele>1692.8</ele>
        <time>2022-12-29T12:03:57Z</time>
      </trkpt>
      <trkpt lat="45.00652" lon="6.1196">
        <ele>1692.8</ele>
        <time>2022-12-29T12:03:58Z</time>
      </trkpt>
      <trkpt lat="45.00652" lon="6.11961">
        <ele>1692.8</ele>
        <time>2022-12-29T12:03:59Z</time>
      </trkpt>
      <trkpt lat="45.00653" lon="6.11962">
        <ele>1692.8</ele>
        <time>2022-12-29T12:04:00Z</time>
      </trkpt>
      <trkpt lat="45.00653" lon="6.11963">
        <ele>1692.8</ele>
        <time>2022-12-29T12:04:01Z</time>
      </trkpt>
      <trkpt lat="45.00653" lon="6.11963">
        <ele>1692.8</ele>
        <time>2022-12-29T12:04:02Z</time>
      </trkpt>
      <trkpt lat="45.00653" lon="6.11964">
        <ele>1692.8</ele>
        <time>2022-12-29T12:04:03Z</time>
      </trkpt>
      <trkpt lat="45.00653" lon="6.11965">
        <ele>1692.8</ele>
        <time>2022-12-29T12:04:04Z</time>
      </trkpt>
      <trkpt lat="45.00654" lon="6.11965">
        <ele>1692.8</ele>
        <time>2022-12-29T12:04:05Z</time>
      </trkpt>
      <trkpt lat="45.00654" lon="6.11966">
        <ele>1691.2</ele>
        <time>2022-12-29T12:04:06Z</time>
      </trkpt>
      <trkpt lat="45.00655" lon="6.11968">
        <ele>1691.2</ele>
        <time>2022-12-29T12:04:07Z</time>
      </trkpt>
      <trkpt lat="45.00655" lon="6.11968">
        <ele>1691.2</ele>
        <time>2022-12-29T12:04:08Z</time>
      </trkpt>
      <trkpt lat="45.00655" lon="6.11968">
        <ele>1691.2</ele>
        <time>2022-12-29T12:04:09Z</time>
      </trkpt>
      <trkpt lat="45.00655" lon="6.11968">
        <ele>1691.2</ele>
        <time>2022-12-29T12:04:10Z</time>
      </trkpt>
      <trkpt lat="45.00655" lon="6.11968">
        <ele>1691.2</ele>
        <time>2022-12-29T12:04:11Z</time>
      </trkpt>
      <trkpt lat="45.00655" lon="6.11968">
        <ele>1691.2</ele>
        <time>2022-12-29T12:04:12Z</time>
      </trkpt>
      <trkpt lat="45.00655" lon="6.11968">
        <ele>1691.2</ele>
        <time>2022-12-29T12:04:13Z</time>
      </trkpt>
      <trkpt lat="45.00655" lon="6.11968">
        <ele>1691.2</ele>
        <time>2022-12-29T12:04:14Z</time>
      </trkpt>
      <trkpt lat="45.00653" lon="6.11968">
        <ele>1691.2</ele>
        <time>2022-12-29T12:04:15Z</time>
      </trkpt>
      <trkpt lat="45.00653" lon="6.11968">
        <ele>1690.8</ele>
        <time>2022-12-29T12:04:16Z</time>
      </trkpt>
      <trkpt lat="45.0065" lon="6.11967">
        <ele>1690.8</ele>
        <time>2022-12-29T12:04:17Z</time>
      </trkpt>
      <trkpt lat="45.0065" lon="6.11967">
        <ele>1690.8</ele>
        <time>2022-12-29T12:04:18Z</time>
      </trkpt>
      <trkpt lat="45.00649" lon="6.11967">
        <ele>1690.8</ele>
        <time>2022-12-29T12:04:19Z</time>
      </trkpt>
      <trkpt lat="45.00649" lon="6.11967">
        <ele>1690.8</ele>
        <time>2022-12-29T12:04:20Z</time>
      </trkpt>
      <trkpt lat="45.00649" lon="6.11967">
        <ele>1690.8</ele>
        <time>2022-12-29T12:04:21Z</time>
      </trkpt>
      <trkpt lat="45.00648" lon="6.11967">
        <ele>1690.8</ele>
        <time>2022-12-29T12:04:22Z</time>
      </trkpt>
      <trkpt lat="45.00648" lon="6.11967">
        <ele>1690.8</ele>
        <time>2022-12-29T12:04:23Z</time>
      </trkpt>
      <trkpt lat="45.00648" lon="6.11967">
        <ele>1690.8</ele>
        <time>2022-12-29T12:04:24Z</time>
      </trkpt>
      <trkpt lat="45.00647" lon="6.11967">
        <ele>1690.8</ele>
        <time>2022-12-29T12:04:25Z</time>
      </trkpt>
      <trkpt lat="45.00647" lon="6.11967">
        <ele>1691.8</ele>
        <time>2022-12-29T12:04:26Z</time>
      </trkpt>
      <trkpt lat="45.00643" lon="6.11966">
        <ele>1691.8</ele>
        <time>2022-12-29T12:04:27Z</time>
      </trkpt>
      <trkpt lat="45.00642" lon="6.11965">
        <ele>1691.8</ele>
        <time>2022-12-29T12:04:28Z</time>
      </trkpt>
      <trkpt lat="45.0064" lon="6.11965">
        <ele>1691.8</ele>
        <time>2022-12-29T12:04:29Z</time>
      </trkpt>
      <trkpt lat="45.00639" lon="6.11964">
        <ele>1691.8</ele>
        <time>2022-12-29T12:04:30Z</time>
      </trkpt>
      <trkpt lat="45.00638" lon="6.11964">
        <ele>1691.8</ele>
        <time>2022-12-29T12:04:31Z</time>
      </trkpt>
      <trkpt lat="45.00636" lon="6.11964">
        <ele>1691.8</ele>
        <time>2022-12-29T12:04:32Z</time>
      </trkpt>
      <trkpt lat="45.00635" lon="6.11963">
        <ele>1691.8</ele>
        <time>2022-12-29T12:04:33Z</time>
      </trkpt>
      <trkpt lat="45.00634" lon="6.11963">
        <ele>1691.8</ele>
        <time>2022-12-29T12:04:34Z</time>
      </trkpt>
      <trkpt lat="45.00632" lon="6.11962">
        <ele>1691.8</ele>
        <time>2022-12-29T12:04:35Z</time>
      </trkpt>
      <trkpt lat="45.00631" lon="6.11962">
        <ele>1690.6</ele>
        <time>2022-12-29T12:04:36Z</time>
      </trkpt>
      <trkpt lat="45.00628" lon="6.11961">
        <ele>1690.6</ele>
        <time>2022-12-29T12:04:37Z</time>
      </trkpt>
      <trkpt lat="45.00627" lon="6.1196">
        <ele>1690.6</ele>
        <time>2022-12-29T12:04:38Z</time>
      </trkpt>
      <trkpt lat="45.00626" lon="6.1196">
        <ele>1690.6</ele>
        <time>2022-12-29T12:04:39Z</time>
      </trkpt>
      <trkpt lat="45.00625" lon="6.11959">
        <ele>1690.6</ele>
        <time>2022-12-29T12:04:40Z</time>
      </trkpt>
      <trkpt lat="45.00624" lon="6.11959">
        <ele>1690.6</ele>
        <time>2022-12-29T12:04:41Z</time>
      </trkpt>
      <trkpt lat="45.00623" lon="6.11958">
        <ele>1690.6</ele>
        <time>2022-12-29T12:04:42Z</time>
      </trkpt>
      <trkpt lat="45.00621" lon="6.11958">
        <ele>1690.6</ele>
        <time>2022-12-29T12:04:43Z</time>
      </trkpt>
      <trkpt lat="45.0062" lon="6.11957">
        <ele>1690.6</ele>
        <time>2022-12-29T12:04:44Z</time>
      </trkpt>
      <trkpt lat="45.00619" lon="6.11957">
        <ele>1690.6</ele>
        <time>2022-12-29T12:04:45Z</time>
      </trkpt>
      <trkpt lat="45.00618" lon="6.11956">
        <ele>1691</ele>
        <time>2022-12-29T12:04:46Z</time>
      </trkpt>
      <trkpt lat="45.00616" lon="6.11955">
        <ele>1691</ele>
        <time>2022-12-29T12:04:47Z</time>
      </trkpt>
      <trkpt lat="45.00615" lon="6.11954">
        <ele>1691</ele>
        <time>2022-12-29T12:04:48Z</time>
      </trkpt>
      <trkpt lat="45.00614" lon="6.11953">
        <ele>1691</ele>
        <time>2022-12-29T12:04:49Z</time>
      </trkpt>
      <trkpt lat="45.00613" lon="6.11953">
        <ele>1691</ele>
        <time>2022-12-29T12:04:50Z</time>
      </trkpt>
      <trkpt lat="45.00612" lon="6.11952">
        <ele>1691</ele>
        <time>2022-12-29T12:04:51Z</time>
      </trkpt>
      <trkpt lat="45.00611" lon="6.11951">
        <ele>1691</ele>
        <time>2022-12-29T12:04:52Z</time>
      </trkpt>
      <trkpt lat="45.0061" lon="6.11951">
        <ele>1691</ele>
        <time>2022-12-29T12:04:53Z</time>
      </trkpt>
      <trkpt lat="45.00608" lon="6.1195">
        <ele>1691</ele>
        <time>2022-12-29T12:04:54Z</time>
      </trkpt>
      <trkpt lat="45.00607" lon="6.11949">
        <ele>1691</ele>
        <time>2022-12-29T12:04:55Z</time>
      </trkpt>
      <trkpt lat="45.00606" lon="6.11949">
        <ele>1691.4</ele>
        <time>2022-12-29T12:04:56Z</time>
      </trkpt>
      <trkpt lat="45.00604" lon="6.11947">
        <ele>1691.4</ele>
        <time>2022-12-29T12:04:57Z</time>
      </trkpt>
      <trkpt lat="45.00604" lon="6.11947">
        <ele>1691.4</ele>
        <time>2022-12-29T12:04:58Z</time>
      </trkpt>
      <trkpt lat="45.00603" lon="6.11946">
        <ele>1691.4</ele>
        <time>2022-12-29T12:04:59Z</time>
      </trkpt>
      <trkpt lat="45.00602" lon="6.11945">
        <ele>1691.4</ele>
        <time>2022-12-29T12:05:00Z</time>
      </trkpt>
      <trkpt lat="45.00601" lon="6.11944">
        <ele>1691.4</ele>
        <time>2022-12-29T12:05:01Z</time>
      </trkpt>
      <trkpt lat="45.00601" lon="6.11943">
        <ele>1691.4</ele>
        <time>2022-12-29T12:05:02Z</time>
      </trkpt>
      <trkpt lat="45.006" lon="6.11943">
        <ele>1691.4</ele>
        <time>2022-12-29T12:05:03Z</time>
      </trkpt>
      <trkpt lat="45.00599" lon="6.11942">
        <ele>1691.4</ele>
        <time>2022-12-29T12:05:04Z</time>
      </trkpt>
      <trkpt lat="45.00599" lon="6.11941">
        <ele>1691.4</ele>
        <time>2022-12-29T12:05:05Z</time>
      </trkpt>
      <trkpt lat="45.00598" lon="6.1194">
        <ele>1691.4</ele>
        <time>2022-12-29T12:05:06Z</time>
      </trkpt>
      <trkpt lat="45.00596" lon="6.11939">
        <ele>1691.4</ele>
        <time>2022-12-29T12:05:07Z</time>
      </trkpt>
      <trkpt lat="45.00595" lon="6.11938">
        <ele>1691.4</ele>
        <time>2022-12-29T12:05:08Z</time>
      </trkpt>
      <trkpt lat="45.00594" lon="6.11938">
        <ele>1691.4</ele>
        <time>2022-12-29T12:05:09Z</time>
      </trkpt>
      <trkpt lat="45.00593" lon="6.11937">
        <ele>1691.4</ele>
        <time>2022-12-29T12:05:10Z</time>
      </trkpt>
      <trkpt lat="45.00592" lon="6.11937">
        <ele>1691.4</ele>
        <time>2022-12-29T12:05:11Z</time>
      </trkpt>
      <trkpt lat="45.00591" lon="6.11936">
        <ele>1691.4</ele>
        <time>2022-12-29T12:05:12Z</time>
      </trkpt>
      <trkpt lat="45.0059" lon="6.11936">
        <ele>1691.4</ele>
        <time>2022-12-29T12:05:13Z</time>
      </trkpt>
      <trkpt lat="45.00589" lon="6.11935">
        <ele>1691.4</ele>
        <time>2022-12-29T12:05:14Z</time>
      </trkpt>
      <trkpt lat="45.00588" lon="6.11935">
        <ele>1691.4</ele>
        <time>2022-12-29T12:05:15Z</time>
      </trkpt>
      <trkpt lat="45.00587" lon="6.11934">
        <ele>1693</ele>
        <time>2022-12-29T12:05:16Z</time>
      </trkpt>
      <trkpt lat="45.00585" lon="6.11934">
        <ele>1693</ele>
        <time>2022-12-29T12:05:17Z</time>
      </trkpt>
      <trkpt lat="45.00584" lon="6.11933">
        <ele>1693</ele>
        <time>2022-12-29T12:05:18Z</time>
      </trkpt>
      <trkpt lat="45.00583" lon="6.11933">
        <ele>1693</ele>
        <time>2022-12-29T12:05:19Z</time>
      </trkpt>
      <trkpt lat="45.00582" lon="6.11932">
        <ele>1693</ele>
        <time>2022-12-29T12:05:20Z</time>
      </trkpt>
      <trkpt lat="45.00581" lon="6.11932">
        <ele>1693</ele>
        <time>2022-12-29T12:05:21Z</time>
      </trkpt>
      <trkpt lat="45.0058" lon="6.11931">
        <ele>1693</ele>
        <time>2022-12-29T12:05:22Z</time>
      </trkpt>
      <trkpt lat="45.00579" lon="6.1193">
        <ele>1693</ele>
        <time>2022-12-29T12:05:23Z</time>
      </trkpt>
      <trkpt lat="45.00579" lon="6.1193">
        <ele>1693</ele>
        <time>2022-12-29T12:05:24Z</time>
      </trkpt>
      <trkpt lat="45.00578" lon="6.11929">
        <ele>1693</ele>
        <time>2022-12-29T12:05:25Z</time>
      </trkpt>
      <trkpt lat="45.00577" lon="6.11929">
        <ele>1694.8</ele>
        <time>2022-12-29T12:05:26Z</time>
      </trkpt>
      <trkpt lat="45.00575" lon="6.11928">
        <ele>1694.8</ele>
        <time>2022-12-29T12:05:27Z</time>
      </trkpt>
      <trkpt lat="45.00574" lon="6.11927">
        <ele>1694.8</ele>
        <time>2022-12-29T12:05:28Z</time>
      </trkpt>
      <trkpt lat="45.00573" lon="6.11926">
        <ele>1694.8</ele>
        <time>2022-12-29T12:05:29Z</time>
      </trkpt>
      <trkpt lat="45.00572" lon="6.11925">
        <ele>1694.8</ele>
        <time>2022-12-29T12:05:30Z</time>
      </trkpt>
      <trkpt lat="45.0057" lon="6.11925">
        <ele>1694.8</ele>
        <time>2022-12-29T12:05:31Z</time>
      </trkpt>
      <trkpt lat="45.00569" lon="6.11924">
        <ele>1694.8</ele>
        <time>2022-12-29T12:05:32Z</time>
      </trkpt>
      <trkpt lat="45.00568" lon="6.11923">
        <ele>1694.8</ele>
        <time>2022-12-29T12:05:33Z</time>
      </trkpt>
      <trkpt lat="45.00567" lon="6.11922">
        <ele>1694.8</ele>
        <time>2022-12-29T12:05:34Z</time>
      </trkpt>
      <trkpt lat="45.00566" lon="6.11922">
        <ele>1694.8</ele>
        <time>2022-12-29T12:05:35Z</time>
      </trkpt>
      <trkpt lat="45.00565" lon="6.11921">
        <ele>1696.6</ele>
        <time>2022-12-29T12:05:36Z</time>
      </trkpt>
      <trkpt lat="45.00563" lon="6.11919">
        <ele>1696.6</ele>
        <time>2022-12-29T12:05:37Z</time>
      </trkpt>
      <trkpt lat="45.00562" lon="6.11918">
        <ele>1696.6</ele>
        <time>2022-12-29T12:05:38Z</time>
      </trkpt>
      <trkpt lat="45.00561" lon="6.11917">
        <ele>1696.6</ele>
        <time>2022-12-29T12:05:39Z</time>
      </trkpt>
      <trkpt lat="45.0056" lon="6.11917">
        <ele>1696.6</ele>
        <time>2022-12-29T12:05:40Z</time>
      </trkpt>
      <trkpt lat="45.00559" lon="6.11916">
        <ele>1696.6</ele>
        <time>2022-12-29T12:05:41Z</time>
      </trkpt>
      <trkpt lat="45.00558" lon="6.11915">
        <ele>1696.6</ele>
        <time>2022-12-29T12:05:42Z</time>
      </trkpt>
      <trkpt lat="45.00557" lon="6.11914">
        <ele>1696.6</ele>
        <time>2022-12-29T12:05:43Z</time>
      </trkpt>
      <trkpt lat="45.00556" lon="6.11913">
        <ele>1696.6</ele>
        <time>2022-12-29T12:05:44Z</time>
      </trkpt>
      <trkpt lat="45.00555" lon="6.11912">
        <ele>1696.6</ele>
        <time>2022-12-29T12:05:45Z</time>
      </trkpt>
      <trkpt lat="45.00554" lon="6.11911">
        <ele>1694.8</ele>
        <time>2022-12-29T12:05:46Z</time>
      </trkpt>
      <trkpt lat="45.00552" lon="6.11909">
        <ele>1694.8</ele>
        <time>2022-12-29T12:05:47Z</time>
      </trkpt>
      <trkpt lat="45.00551" lon="6.11908">
        <ele>1694.8</ele>
        <time>2022-12-29T12:05:48Z</time>
      </trkpt>
      <trkpt lat="45.0055" lon="6.11907">
        <ele>1694.8</ele>
        <time>2022-12-29T12:05:49Z</time>
      </trkpt>
      <trkpt lat="45.00549" lon="6.11906">
        <ele>1694.8</ele>
        <time>2022-12-29T12:05:50Z</time>
      </trkpt>
      <trkpt lat="45.00549" lon="6.11905">
        <ele>1694.8</ele>
        <time>2022-12-29T12:05:51Z</time>
      </trkpt>
      <trkpt lat="45.00548" lon="6.11904">
        <ele>1694.8</ele>
        <time>2022-12-29T12:05:52Z</time>
      </trkpt>
      <trkpt lat="45.00547" lon="6.11903">
        <ele>1694.8</ele>
        <time>2022-12-29T12:05:53Z</time>
      </trkpt>
      <trkpt lat="45.00546" lon="6.11901">
        <ele>1694.8</ele>
        <time>2022-12-29T12:05:54Z</time>
      </trkpt>
      <trkpt lat="45.00545" lon="6.119">
        <ele>1694.8</ele>
        <time>2022-12-29T12:05:55Z</time>
      </trkpt>
      <trkpt lat="45.00545" lon="6.11899">
        <ele>1693.2</ele>
        <time>2022-12-29T12:05:56Z</time>
      </trkpt>
      <trkpt lat="45.00543" lon="6.11899">
        <ele>1693.2</ele>
        <time>2022-12-29T12:05:57Z</time>
      </trkpt>
      <trkpt lat="45.00543" lon="6.11899">
        <ele>1693.2</ele>
        <time>2022-12-29T12:05:58Z</time>
      </trkpt>
      <trkpt lat="45.00543" lon="6.11899">
        <ele>1693.2</ele>
        <time>2022-12-29T12:05:59Z</time>
      </trkpt>
      <trkpt lat="45.00543" lon="6.119">
        <ele>1693.2</ele>
        <time>2022-12-29T12:06:00Z</time>
      </trkpt>
      <trkpt lat="45.00542" lon="6.119">
        <ele>1693.2</ele>
        <time>2022-12-29T12:06:01Z</time>
      </trkpt>
      <trkpt lat="45.00542" lon="6.119">
        <ele>1693.2</ele>
        <time>2022-12-29T12:06:02Z</time>
      </trkpt>
      <trkpt lat="45.00542" lon="6.11901">
        <ele>1693.2</ele>
        <time>2022-12-29T12:06:03Z</time>
      </trkpt>
      <trkpt lat="45.00541" lon="6.11901">
        <ele>1693.2</ele>
        <time>2022-12-29T12:06:04Z</time>
      </trkpt>
      <trkpt lat="45.00541" lon="6.11901">
        <ele>1693.2</ele>
        <time>2022-12-29T12:06:05Z</time>
      </trkpt>
      <trkpt lat="45.00541" lon="6.11902">
        <ele>1692.8</ele>
        <time>2022-12-29T12:06:06Z</time>
      </trkpt>
      <trkpt lat="45.00541" lon="6.11905">
        <ele>1692.8</ele>
        <time>2022-12-29T12:06:07Z</time>
      </trkpt>
      <trkpt lat="45.00541" lon="6.11906">
        <ele>1692.8</ele>
        <time>2022-12-29T12:06:08Z</time>
      </trkpt>
      <trkpt lat="45.00541" lon="6.11907">
        <ele>1692.8</ele>
        <time>2022-12-29T12:06:09Z</time>
      </trkpt>
      <trkpt lat="45.00541" lon="6.11908">
        <ele>1692.8</ele>
        <time>2022-12-29T12:06:10Z</time>
      </trkpt>
      <trkpt lat="45.00541" lon="6.11909">
        <ele>1692.8</ele>
        <time>2022-12-29T12:06:11Z</time>
      </trkpt>
      <trkpt lat="45.00541" lon="6.1191">
        <ele>1692.8</ele>
        <time>2022-12-29T12:06:12Z</time>
      </trkpt>
      <trkpt lat="45.00541" lon="6.11911">
        <ele>1692.8</ele>
        <time>2022-12-29T12:06:13Z</time>
      </trkpt>
      <trkpt lat="45.00541" lon="6.11912">
        <ele>1692.8</ele>
        <time>2022-12-29T12:06:14Z</time>
      </trkpt>
      <trkpt lat="45.00541" lon="6.11912">
        <ele>1692.8</ele>
        <time>2022-12-29T12:06:15Z</time>
      </trkpt>
      <trkpt lat="45.00541" lon="6.11913">
        <ele>1690.2</ele>
        <time>2022-12-29T12:06:16Z</time>
      </trkpt>
      <trkpt lat="45.00541" lon="6.11914">
        <ele>1690.2</ele>
        <time>2022-12-29T12:06:17Z</time>
      </trkpt>
      <trkpt lat="45.00541" lon="6.11915">
        <ele>1690.2</ele>
        <time>2022-12-29T12:06:18Z</time>
      </trkpt>
      <trkpt lat="45.00541" lon="6.11916">
        <ele>1690.2</ele>
        <time>2022-12-29T12:06:19Z</time>
      </trkpt>
      <trkpt lat="45.00541" lon="6.11917">
        <ele>1690.2</ele>
        <time>2022-12-29T12:06:20Z</time>
      </trkpt>
      <trkpt lat="45.00541" lon="6.11918">
        <ele>1690.2</ele>
        <time>2022-12-29T12:06:21Z</time>
      </trkpt>
      <trkpt lat="45.00541" lon="6.11919">
        <ele>1690.2</ele>
        <time>2022-12-29T12:06:22Z</time>
      </trkpt>
      <trkpt lat="45.00541" lon="6.1192">
        <ele>1690.2</ele>
        <time>2022-12-29T12:06:23Z</time>
      </trkpt>
      <trkpt lat="45.00541" lon="6.11921">
        <ele>1690.2</ele>
        <time>2022-12-29T12:06:24Z</time>
      </trkpt>
      <trkpt lat="45.00541" lon="6.11922">
        <ele>1690.2</ele>
        <time>2022-12-29T12:06:25Z</time>
      </trkpt>
      <trkpt lat="45.00541" lon="6.11923">
        <ele>1688.4</ele>
        <time>2022-12-29T12:06:26Z</time>
      </trkpt>
      <trkpt lat="45.00541" lon="6.11923">
        <ele>1688.4</ele>
        <time>2022-12-29T12:06:27Z</time>
      </trkpt>
      <trkpt lat="45.00541" lon="6.11924">
        <ele>1688.4</ele>
        <time>2022-12-29T12:06:28Z</time>
      </trkpt>
      <trkpt lat="45.00541" lon="6.11925">
        <ele>1688.4</ele>
        <time>2022-12-29T12:06:29Z</time>
      </trkpt>
      <trkpt lat="45.00541" lon="6.11925">
        <ele>1688.4</ele>
        <time>2022-12-29T12:06:30Z</time>
      </trkpt>
      <trkpt lat="45.00541" lon="6.11926">
        <ele>1688.4</ele>
        <time>2022-12-29T12:06:31Z</time>
      </trkpt>
      <trkpt lat="45.00541" lon="6.11926">
        <ele>1688.4</ele>
        <time>2022-12-29T12:06:32Z</time>
      </trkpt>
      <trkpt lat="45.00542" lon="6.11927">
        <ele>1688.4</ele>
        <time>2022-12-29T12:06:33Z</time>
      </trkpt>
      <trkpt lat="45.00542" lon="6.11928">
        <ele>1688.4</ele>
        <time>2022-12-29T12:06:34Z</time>
      </trkpt>
      <trkpt lat="45.00542" lon="6.11928">
        <ele>1688.4</ele>
        <time>2022-12-29T12:06:35Z</time>
      </trkpt>
      <trkpt lat="45.00542" lon="6.11929">
        <ele>1686.2</ele>
        <time>2022-12-29T12:06:36Z</time>
      </trkpt>
      <trkpt lat="45.00544" lon="6.11932">
        <ele>1686.2</ele>
        <time>2022-12-29T12:06:37Z</time>
      </trkpt>
      <trkpt lat="45.00544" lon="6.11933">
        <ele>1686.2</ele>
        <time>2022-12-29T12:06:38Z</time>
      </trkpt>
      <trkpt lat="45.00544" lon="6.11933">
        <ele>1686.2</ele>
        <time>2022-12-29T12:06:39Z</time>
      </trkpt>
      <trkpt lat="45.00545" lon="6.11934">
        <ele>1686.2</ele>
        <time>2022-12-29T12:06:40Z</time>
      </trkpt>
      <trkpt lat="45.00545" lon="6.11934">
        <ele>1686.2</ele>
        <time>2022-12-29T12:06:41Z</time>
      </trkpt>
      <trkpt lat="45.00545" lon="6.11935">
        <ele>1686.2</ele>
        <time>2022-12-29T12:06:42Z</time>
      </trkpt>
      <trkpt lat="45.00545" lon="6.11935">
        <ele>1686.2</ele>
        <time>2022-12-29T12:06:43Z</time>
      </trkpt>
      <trkpt lat="45.00545" lon="6.11936">
        <ele>1686.2</ele>
        <time>2022-12-29T12:06:44Z</time>
      </trkpt>
      <trkpt lat="45.00545" lon="6.11937">
        <ele>1686.2</ele>
        <time>2022-12-29T12:06:45Z</time>
      </trkpt>
      <trkpt lat="45.00546" lon="6.11937">
        <ele>1684.6</ele>
        <time>2022-12-29T12:06:46Z</time>
      </trkpt>
      <trkpt lat="45.00546" lon="6.11938">
        <ele>1684.6</ele>
        <time>2022-12-29T12:06:47Z</time>
      </trkpt>
      <trkpt lat="45.00546" lon="6.11939">
        <ele>1684.6</ele>
        <time>2022-12-29T12:06:48Z</time>
      </trkpt>
      <trkpt lat="45.00547" lon="6.11939">
        <ele>1684.6</ele>
        <time>2022-12-29T12:06:49Z</time>
      </trkpt>
      <trkpt lat="45.00547" lon="6.1194">
        <ele>1684.6</ele>
        <time>2022-12-29T12:06:50Z</time>
      </trkpt>
      <trkpt lat="45.00547" lon="6.11941">
        <ele>1684.6</ele>
        <time>2022-12-29T12:06:51Z</time>
      </trkpt>
      <trkpt lat="45.00548" lon="6.11942">
        <ele>1684.6</ele>
        <time>2022-12-29T12:06:52Z</time>
      </trkpt>
      <trkpt lat="45.00548" lon="6.11942">
        <ele>1684.6</ele>
        <time>2022-12-29T12:06:53Z</time>
      </trkpt>
      <trkpt lat="45.00548" lon="6.11943">
        <ele>1684.6</ele>
        <time>2022-12-29T12:06:54Z</time>
      </trkpt>
      <trkpt lat="45.00549" lon="6.11944">
        <ele>1684.6</ele>
        <time>2022-12-29T12:06:55Z</time>
      </trkpt>
      <trkpt lat="45.00549" lon="6.11945">
        <ele>1682.8</ele>
        <time>2022-12-29T12:06:56Z</time>
      </trkpt>
      <trkpt lat="45.0055" lon="6.11945">
        <ele>1682.8</ele>
        <time>2022-12-29T12:06:57Z</time>
      </trkpt>
      <trkpt lat="45.00551" lon="6.11946">
        <ele>1682.8</ele>
        <time>2022-12-29T12:06:58Z</time>
      </trkpt>
      <trkpt lat="45.00552" lon="6.11946">
        <ele>1682.8</ele>
        <time>2022-12-29T12:06:59Z</time>
      </trkpt>
      <trkpt lat="45.00552" lon="6.11947">
        <ele>1682.8</ele>
        <time>2022-12-29T12:07:00Z</time>
      </trkpt>
      <trkpt lat="45.00553" lon="6.11947">
        <ele>1682.8</ele>
        <time>2022-12-29T12:07:01Z</time>
      </trkpt>
      <trkpt lat="45.00554" lon="6.11948">
        <ele>1682.8</ele>
        <time>2022-12-29T12:07:02Z</time>
      </trkpt>
      <trkpt lat="45.00555" lon="6.11949">
        <ele>1682.8</ele>
        <time>2022-12-29T12:07:03Z</time>
      </trkpt>
      <trkpt lat="45.00556" lon="6.11949">
        <ele>1682.8</ele>
        <time>2022-12-29T12:07:04Z</time>
      </trkpt>
      <trkpt lat="45.00557" lon="6.1195">
        <ele>1682.8</ele>
        <time>2022-12-29T12:07:05Z</time>
      </trkpt>
      <trkpt lat="45.00558" lon="6.1195">
        <ele>1682.2</ele>
        <time>2022-12-29T12:07:06Z</time>
      </trkpt>
      <trkpt lat="45.00556" lon="6.11954">
        <ele>1682.2</ele>
        <time>2022-12-29T12:07:07Z</time>
      </trkpt>
      <trkpt lat="45.00556" lon="6.11955">
        <ele>1682.2</ele>
        <time>2022-12-29T12:07:08Z</time>
      </trkpt>
      <trkpt lat="45.00555" lon="6.11955">
        <ele>1682.2</ele>
        <time>2022-12-29T12:07:09Z</time>
      </trkpt>
      <trkpt lat="45.00555" lon="6.11956">
        <ele>1682.2</ele>
        <time>2022-12-29T12:07:10Z</time>
      </trkpt>
      <trkpt lat="45.00554" lon="6.11957">
        <ele>1682.2</ele>
        <time>2022-12-29T12:07:11Z</time>
      </trkpt>
      <trkpt lat="45.00554" lon="6.11957">
        <ele>1682.2</ele>
        <time>2022-12-29T12:07:12Z</time>
      </trkpt>
      <trkpt lat="45.00553" lon="6.11958">
        <ele>1682.2</ele>
        <time>2022-12-29T12:07:13Z</time>
      </trkpt>
      <trkpt lat="45.00552" lon="6.11959">
        <ele>1682.2</ele>
        <time>2022-12-29T12:07:14Z</time>
      </trkpt>
      <trkpt lat="45.00552" lon="6.1196">
        <ele>1682.2</ele>
        <time>2022-12-29T12:07:15Z</time>
      </trkpt>
      <trkpt lat="45.00551" lon="6.1196">
        <ele>1680.6</ele>
        <time>2022-12-29T12:07:16Z</time>
      </trkpt>
      <trkpt lat="45.00551" lon="6.1196">
        <ele>1680.6</ele>
        <time>2022-12-29T12:07:17Z</time>
      </trkpt>
      <trkpt lat="45.0055" lon="6.1196">
        <ele>1680.6</ele>
        <time>2022-12-29T12:07:18Z</time>
      </trkpt>
      <trkpt lat="45.00549" lon="6.1196">
        <ele>1680.6</ele>
        <time>2022-12-29T12:07:19Z</time>
      </trkpt>
      <trkpt lat="45.00549" lon="6.1196">
        <ele>1680.6</ele>
        <time>2022-12-29T12:07:20Z</time>
      </trkpt>
      <trkpt lat="45.00548" lon="6.1196">
        <ele>1680.6</ele>
        <time>2022-12-29T12:07:21Z</time>
      </trkpt>
      <trkpt lat="45.00547" lon="6.11959">
        <ele>1680.6</ele>
        <time>2022-12-29T12:07:22Z</time>
      </trkpt>
      <trkpt lat="45.00547" lon="6.11959">
        <ele>1680.6</ele>
        <time>2022-12-29T12:07:23Z</time>
      </trkpt>
      <trkpt lat="45.00546" lon="6.11959">
        <ele>1680.6</ele>
        <time>2022-12-29T12:07:24Z</time>
      </trkpt>
      <trkpt lat="45.00545" lon="6.11959">
        <ele>1680.6</ele>
        <time>2022-12-29T12:07:25Z</time>
      </trkpt>
      <trkpt lat="45.00545" lon="6.11959">
        <ele>1678.6</ele>
        <time>2022-12-29T12:07:26Z</time>
      </trkpt>
      <trkpt lat="45.00545" lon="6.1196">
        <ele>1678.6</ele>
        <time>2022-12-29T12:07:27Z</time>
      </trkpt>
      <trkpt lat="45.00545" lon="6.11961">
        <ele>1678.6</ele>
        <time>2022-12-29T12:07:28Z</time>
      </trkpt>
      <trkpt lat="45.00545" lon="6.11961">
        <ele>1678.6</ele>
        <time>2022-12-29T12:07:29Z</time>
      </trkpt>
      <trkpt lat="45.00545" lon="6.11962">
        <ele>1678.6</ele>
        <time>2022-12-29T12:07:30Z</time>
      </trkpt>
      <trkpt lat="45.00545" lon="6.11963">
        <ele>1678.6</ele>
        <time>2022-12-29T12:07:31Z</time>
      </trkpt>
      <trkpt lat="45.00545" lon="6.11964">
        <ele>1678.6</ele>
        <time>2022-12-29T12:07:32Z</time>
      </trkpt>
      <trkpt lat="45.00545" lon="6.11965">
        <ele>1678.6</ele>
        <time>2022-12-29T12:07:33Z</time>
      </trkpt>
      <trkpt lat="45.00545" lon="6.11966">
        <ele>1678.6</ele>
        <time>2022-12-29T12:07:34Z</time>
      </trkpt>
      <trkpt lat="45.00545" lon="6.11967">
        <ele>1678.6</ele>
        <time>2022-12-29T12:07:35Z</time>
      </trkpt>
      <trkpt lat="45.00545" lon="6.11968">
        <ele>1677</ele>
        <time>2022-12-29T12:07:36Z</time>
      </trkpt>
      <trkpt lat="45.00545" lon="6.11968">
        <ele>1677</ele>
        <time>2022-12-29T12:07:37Z</time>
      </trkpt>
      <trkpt lat="45.00545" lon="6.11968">
        <ele>1677</ele>
        <time>2022-12-29T12:07:38Z</time>
      </trkpt>
      <trkpt lat="45.00545" lon="6.1197">
        <ele>1677</ele>
        <time>2022-12-29T12:07:39Z</time>
      </trkpt>
      <trkpt lat="45.00545" lon="6.1197">
        <ele>1677</ele>
        <time>2022-12-29T12:07:40Z</time>
      </trkpt>
      <trkpt lat="45.00545" lon="6.1197">
        <ele>1677</ele>
        <time>2022-12-29T12:07:41Z</time>
      </trkpt>
      <trkpt lat="45.00544" lon="6.11973">
        <ele>1677</ele>
        <time>2022-12-29T12:07:42Z</time>
      </trkpt>
      <trkpt lat="45.00544" lon="6.11973">
        <ele>1677</ele>
        <time>2022-12-29T12:07:43Z</time>
      </trkpt>
      <trkpt lat="45.00544" lon="6.11973">
        <ele>1677</ele>
        <time>2022-12-29T12:07:44Z</time>
      </trkpt>
      <trkpt lat="45.00544" lon="6.11973">
        <ele>1677</ele>
        <time>2022-12-29T12:07:45Z</time>
      </trkpt>
      <trkpt lat="45.00544" lon="6.11973">
        <ele>1675</ele>
        <time>2022-12-29T12:07:46Z</time>
      </trkpt>
      <trkpt lat="45.00542" lon="6.11975">
        <ele>1675</ele>
        <time>2022-12-29T12:07:47Z</time>
      </trkpt>
      <trkpt lat="45.00542" lon="6.11976">
        <ele>1675</ele>
        <time>2022-12-29T12:07:48Z</time>
      </trkpt>
      <trkpt lat="45.00541" lon="6.11976">
        <ele>1675</ele>
        <time>2022-12-29T12:07:49Z</time>
      </trkpt>
      <trkpt lat="45.0054" lon="6.11977">
        <ele>1675</ele>
        <time>2022-12-29T12:07:50Z</time>
      </trkpt>
      <trkpt lat="45.0054" lon="6.11977">
        <ele>1675</ele>
        <time>2022-12-29T12:07:51Z</time>
      </trkpt>
      <trkpt lat="45.00539" lon="6.11977">
        <ele>1675</ele>
        <time>2022-12-29T12:07:52Z</time>
      </trkpt>
      <trkpt lat="45.00539" lon="6.11978">
        <ele>1675</ele>
        <time>2022-12-29T12:07:53Z</time>
      </trkpt>
      <trkpt lat="45.00538" lon="6.11978">
        <ele>1675</ele>
        <time>2022-12-29T12:07:54Z</time>
      </trkpt>
      <trkpt lat="45.00538" lon="6.11979">
        <ele>1675</ele>
        <time>2022-12-29T12:07:55Z</time>
      </trkpt>
      <trkpt lat="45.00537" lon="6.11979">
        <ele>1673.4</ele>
        <time>2022-12-29T12:07:56Z</time>
      </trkpt>
      <trkpt lat="45.00537" lon="6.1198">
        <ele>1673.4</ele>
        <time>2022-12-29T12:07:57Z</time>
      </trkpt>
      <trkpt lat="45.00538" lon="6.11981">
        <ele>1673.4</ele>
        <time>2022-12-29T12:07:58Z</time>
      </trkpt>
      <trkpt lat="45.00538" lon="6.11983">
        <ele>1673.4</ele>
        <time>2022-12-29T12:07:59Z</time>
      </trkpt>
      <trkpt lat="45.00539" lon="6.11984">
        <ele>1673.4</ele>
        <time>2022-12-29T12:08:00Z</time>
      </trkpt>
      <trkpt lat="45.00539" lon="6.11985">
        <ele>1673.4</ele>
        <time>2022-12-29T12:08:01Z</time>
      </trkpt>
      <trkpt lat="45.0054" lon="6.11986">
        <ele>1673.4</ele>
        <time>2022-12-29T12:08:02Z</time>
      </trkpt>
      <trkpt lat="45.0054" lon="6.11988">
        <ele>1673.4</ele>
        <time>2022-12-29T12:08:03Z</time>
      </trkpt>
      <trkpt lat="45.00541" lon="6.11989">
        <ele>1673.4</ele>
        <time>2022-12-29T12:08:04Z</time>
      </trkpt>
      <trkpt lat="45.00541" lon="6.1199">
        <ele>1673.4</ele>
        <time>2022-12-29T12:08:05Z</time>
      </trkpt>
      <trkpt lat="45.00541" lon="6.11991">
        <ele>1672.2</ele>
        <time>2022-12-29T12:08:06Z</time>
      </trkpt>
      <trkpt lat="45.00542" lon="6.11993">
        <ele>1672.2</ele>
        <time>2022-12-29T12:08:07Z</time>
      </trkpt>
      <trkpt lat="45.00542" lon="6.11994">
        <ele>1672.2</ele>
        <time>2022-12-29T12:08:08Z</time>
      </trkpt>
      <trkpt lat="45.00543" lon="6.11995">
        <ele>1672.2</ele>
        <time>2022-12-29T12:08:09Z</time>
      </trkpt>
      <trkpt lat="45.00543" lon="6.11996">
        <ele>1672.2</ele>
        <time>2022-12-29T12:08:10Z</time>
      </trkpt>
      <trkpt lat="45.00543" lon="6.11998">
        <ele>1672.2</ele>
        <time>2022-12-29T12:08:11Z</time>
      </trkpt>
      <trkpt lat="45.00544" lon="6.11999">
        <ele>1672.2</ele>
        <time>2022-12-29T12:08:12Z</time>
      </trkpt>
      <trkpt lat="45.00544" lon="6.12">
        <ele>1672.2</ele>
        <time>2022-12-29T12:08:13Z</time>
      </trkpt>
      <trkpt lat="45.00545" lon="6.12002">
        <ele>1672.2</ele>
        <time>2022-12-29T12:08:14Z</time>
      </trkpt>
      <trkpt lat="45.00545" lon="6.12003">
        <ele>1672.2</ele>
        <time>2022-12-29T12:08:15Z</time>
      </trkpt>
      <trkpt lat="45.00545" lon="6.12004">
        <ele>1671</ele>
        <time>2022-12-29T12:08:16Z</time>
      </trkpt>
      <trkpt lat="45.00544" lon="6.12006">
        <ele>1671</ele>
        <time>2022-12-29T12:08:17Z</time>
      </trkpt>
      <trkpt lat="45.00543" lon="6.12006">
        <ele>1671</ele>
        <time>2022-12-29T12:08:18Z</time>
      </trkpt>
      <trkpt lat="45.00542" lon="6.12006">
        <ele>1671</ele>
        <time>2022-12-29T12:08:19Z</time>
      </trkpt>
      <trkpt lat="45.00541" lon="6.12006">
        <ele>1671</ele>
        <time>2022-12-29T12:08:20Z</time>
      </trkpt>
      <trkpt lat="45.0054" lon="6.12006">
        <ele>1671</ele>
        <time>2022-12-29T12:08:21Z</time>
      </trkpt>
      <trkpt lat="45.0054" lon="6.12006">
        <ele>1671</ele>
        <time>2022-12-29T12:08:22Z</time>
      </trkpt>
      <trkpt lat="45.00539" lon="6.12007">
        <ele>1671</ele>
        <time>2022-12-29T12:08:23Z</time>
      </trkpt>
      <trkpt lat="45.00538" lon="6.12007">
        <ele>1671</ele>
        <time>2022-12-29T12:08:24Z</time>
      </trkpt>
      <trkpt lat="45.00537" lon="6.12007">
        <ele>1671</ele>
        <time>2022-12-29T12:08:25Z</time>
      </trkpt>
      <trkpt lat="45.00536" lon="6.12007">
        <ele>1669.4</ele>
        <time>2022-12-29T12:08:26Z</time>
      </trkpt>
      <trkpt lat="45.00534" lon="6.12006">
        <ele>1669.4</ele>
        <time>2022-12-29T12:08:27Z</time>
      </trkpt>
      <trkpt lat="45.00534" lon="6.12006">
        <ele>1669.4</ele>
        <time>2022-12-29T12:08:28Z</time>
      </trkpt>
      <trkpt lat="45.00533" lon="6.12006">
        <ele>1669.4</ele>
        <time>2022-12-29T12:08:29Z</time>
      </trkpt>
      <trkpt lat="45.00533" lon="6.12006">
        <ele>1669.4</ele>
        <time>2022-12-29T12:08:30Z</time>
      </trkpt>
      <trkpt lat="45.00532" lon="6.12005">
        <ele>1669.4</ele>
        <time>2022-12-29T12:08:31Z</time>
      </trkpt>
      <trkpt lat="45.00532" lon="6.12005">
        <ele>1669.4</ele>
        <time>2022-12-29T12:08:32Z</time>
      </trkpt>
      <trkpt lat="45.00532" lon="6.12005">
        <ele>1669.4</ele>
        <time>2022-12-29T12:08:33Z</time>
      </trkpt>
      <trkpt lat="45.00531" lon="6.12005">
        <ele>1669.4</ele>
        <time>2022-12-29T12:08:34Z</time>
      </trkpt>
      <trkpt lat="45.00531" lon="6.12005">
        <ele>1669.4</ele>
        <time>2022-12-29T12:08:35Z</time>
      </trkpt>
      <trkpt lat="45.0053" lon="6.12005">
        <ele>1667.6</ele>
        <time>2022-12-29T12:08:36Z</time>
      </trkpt>
      <trkpt lat="45.0053" lon="6.12005">
        <ele>1667.6</ele>
        <time>2022-12-29T12:08:37Z</time>
      </trkpt>
      <trkpt lat="45.0053" lon="6.12005">
        <ele>1667.6</ele>
        <time>2022-12-29T12:08:38Z</time>
      </trkpt>
      <trkpt lat="45.0053" lon="6.12005">
        <ele>1667.6</ele>
        <time>2022-12-29T12:08:39Z</time>
      </trkpt>
      <trkpt lat="45.0053" lon="6.12005">
        <ele>1667.6</ele>
        <time>2022-12-29T12:08:40Z</time>
      </trkpt>
      <trkpt lat="45.0053" lon="6.12008">
        <ele>1667.6</ele>
        <time>2022-12-29T12:08:41Z</time>
      </trkpt>
      <trkpt lat="45.0053" lon="6.12008">
        <ele>1667.6</ele>
        <time>2022-12-29T12:08:42Z</time>
      </trkpt>
      <trkpt lat="45.0053" lon="6.12008">
        <ele>1667.6</ele>
        <time>2022-12-29T12:08:43Z</time>
      </trkpt>
      <trkpt lat="45.0053" lon="6.12008">
        <ele>1667.6</ele>
        <time>2022-12-29T12:08:44Z</time>
      </trkpt>
      <trkpt lat="45.0053" lon="6.12008">
        <ele>1667.6</ele>
        <time>2022-12-29T12:08:45Z</time>
      </trkpt>
      <trkpt lat="45.00529" lon="6.1201">
        <ele>1666</ele>
        <time>2022-12-29T12:08:46Z</time>
      </trkpt>
      <trkpt lat="45.00528" lon="6.12011">
        <ele>1666</ele>
        <time>2022-12-29T12:08:47Z</time>
      </trkpt>
      <trkpt lat="45.00528" lon="6.12012">
        <ele>1666</ele>
        <time>2022-12-29T12:08:48Z</time>
      </trkpt>
      <trkpt lat="45.00528" lon="6.12012">
        <ele>1666</ele>
        <time>2022-12-29T12:08:49Z</time>
      </trkpt>
      <trkpt lat="45.00527" lon="6.12013">
        <ele>1666</ele>
        <time>2022-12-29T12:08:50Z</time>
      </trkpt>
      <trkpt lat="45.00527" lon="6.12014">
        <ele>1666</ele>
        <time>2022-12-29T12:08:51Z</time>
      </trkpt>
      <trkpt lat="45.00527" lon="6.12014">
        <ele>1666</ele>
        <time>2022-12-29T12:08:52Z</time>
      </trkpt>
      <trkpt lat="45.00526" lon="6.12015">
        <ele>1666</ele>
        <time>2022-12-29T12:08:53Z</time>
      </trkpt>
      <trkpt lat="45.00526" lon="6.12016">
        <ele>1666</ele>
        <time>2022-12-29T12:08:54Z</time>
      </trkpt>
      <trkpt lat="45.00526" lon="6.12017">
        <ele>1666</ele>
        <time>2022-12-29T12:08:55Z</time>
      </trkpt>
      <trkpt lat="45.00525" lon="6.12017">
        <ele>1664.2</ele>
        <time>2022-12-29T12:08:56Z</time>
      </trkpt>
      <trkpt lat="45.00525" lon="6.12018">
        <ele>1664.2</ele>
        <time>2022-12-29T12:08:57Z</time>
      </trkpt>
      <trkpt lat="45.00525" lon="6.12019">
        <ele>1664.2</ele>
        <time>2022-12-29T12:08:58Z</time>
      </trkpt>
      <trkpt lat="45.00524" lon="6.12019">
        <ele>1664.2</ele>
        <time>2022-12-29T12:08:59Z</time>
      </trkpt>
      <trkpt lat="45.00524" lon="6.1202">
        <ele>1664.2</ele>
        <time>2022-12-29T12:09:00Z</time>
      </trkpt>
      <trkpt lat="45.00524" lon="6.12021">
        <ele>1664.2</ele>
        <time>2022-12-29T12:09:01Z</time>
      </trkpt>
      <trkpt lat="45.00523" lon="6.12022">
        <ele>1664.2</ele>
        <time>2022-12-29T12:09:02Z</time>
      </trkpt>
      <trkpt lat="45.00523" lon="6.12022">
        <ele>1664.2</ele>
        <time>2022-12-29T12:09:03Z</time>
      </trkpt>
      <trkpt lat="45.00522" lon="6.12023">
        <ele>1664.2</ele>
        <time>2022-12-29T12:09:04Z</time>
      </trkpt>
      <trkpt lat="45.00522" lon="6.12024">
        <ele>1664.2</ele>
        <time>2022-12-29T12:09:05Z</time>
      </trkpt>
      <trkpt lat="45.00522" lon="6.12025">
        <ele>1662.2</ele>
        <time>2022-12-29T12:09:06Z</time>
      </trkpt>
      <trkpt lat="45.00521" lon="6.12025">
        <ele>1662.2</ele>
        <time>2022-12-29T12:09:07Z</time>
      </trkpt>
      <trkpt lat="45.00521" lon="6.12026">
        <ele>1662.2</ele>
        <time>2022-12-29T12:09:08Z</time>
      </trkpt>
      <trkpt lat="45.00521" lon="6.12027">
        <ele>1662.2</ele>
        <time>2022-12-29T12:09:09Z</time>
      </trkpt>
      <trkpt lat="45.0052" lon="6.12027">
        <ele>1662.2</ele>
        <time>2022-12-29T12:09:10Z</time>
      </trkpt>
      <trkpt lat="45.0052" lon="6.12028">
        <ele>1662.2</ele>
        <time>2022-12-29T12:09:11Z</time>
      </trkpt>
      <trkpt lat="45.0052" lon="6.12029">
        <ele>1662.2</ele>
        <time>2022-12-29T12:09:12Z</time>
      </trkpt>
      <trkpt lat="45.00519" lon="6.1203">
        <ele>1662.2</ele>
        <time>2022-12-29T12:09:13Z</time>
      </trkpt>
      <trkpt lat="45.00519" lon="6.1203">
        <ele>1662.2</ele>
        <time>2022-12-29T12:09:14Z</time>
      </trkpt>
      <trkpt lat="45.00518" lon="6.12031">
        <ele>1662.2</ele>
        <time>2022-12-29T12:09:15Z</time>
      </trkpt>
      <trkpt lat="45.00518" lon="6.12032">
        <ele>1660.4</ele>
        <time>2022-12-29T12:09:16Z</time>
      </trkpt>
      <trkpt lat="45.00519" lon="6.12033">
        <ele>1660.4</ele>
        <time>2022-12-29T12:09:17Z</time>
      </trkpt>
      <trkpt lat="45.0052" lon="6.12034">
        <ele>1660.4</ele>
        <time>2022-12-29T12:09:18Z</time>
      </trkpt>
      <trkpt lat="45.0052" lon="6.12035">
        <ele>1660.4</ele>
        <time>2022-12-29T12:09:19Z</time>
      </trkpt>
      <trkpt lat="45.00521" lon="6.12036">
        <ele>1660.4</ele>
        <time>2022-12-29T12:09:20Z</time>
      </trkpt>
      <trkpt lat="45.00522" lon="6.12038">
        <ele>1660.4</ele>
        <time>2022-12-29T12:09:21Z</time>
      </trkpt>
      <trkpt lat="45.00523" lon="6.12039">
        <ele>1660.4</ele>
        <time>2022-12-29T12:09:22Z</time>
      </trkpt>
      <trkpt lat="45.00523" lon="6.1204">
        <ele>1660.4</ele>
        <time>2022-12-29T12:09:23Z</time>
      </trkpt>
      <trkpt lat="45.00524" lon="6.12041">
        <ele>1660.4</ele>
        <time>2022-12-29T12:09:24Z</time>
      </trkpt>
      <trkpt lat="45.00525" lon="6.12042">
        <ele>1660.4</ele>
        <time>2022-12-29T12:09:25Z</time>
      </trkpt>
      <trkpt lat="45.00525" lon="6.12043">
        <ele>1660.2</ele>
        <time>2022-12-29T12:09:26Z</time>
      </trkpt>
      <trkpt lat="45.00527" lon="6.12046">
        <ele>1660.2</ele>
        <time>2022-12-29T12:09:27Z</time>
      </trkpt>
      <trkpt lat="45.00528" lon="6.12047">
        <ele>1660.2</ele>
        <time>2022-12-29T12:09:28Z</time>
      </trkpt>
      <trkpt lat="45.00528" lon="6.12048">
        <ele>1660.2</ele>
        <time>2022-12-29T12:09:29Z</time>
      </trkpt>
      <trkpt lat="45.00529" lon="6.12049">
        <ele>1660.2</ele>
        <time>2022-12-29T12:09:30Z</time>
      </trkpt>
      <trkpt lat="45.00529" lon="6.1205">
        <ele>1660.2</ele>
        <time>2022-12-29T12:09:31Z</time>
      </trkpt>
      <trkpt lat="45.0053" lon="6.12052">
        <ele>1660.2</ele>
        <time>2022-12-29T12:09:32Z</time>
      </trkpt>
      <trkpt lat="45.00531" lon="6.12053">
        <ele>1660.2</ele>
        <time>2022-12-29T12:09:33Z</time>
      </trkpt>
      <trkpt lat="45.00531" lon="6.12054">
        <ele>1660.2</ele>
        <time>2022-12-29T12:09:34Z</time>
      </trkpt>
      <trkpt lat="45.00532" lon="6.12055">
        <ele>1660.2</ele>
        <time>2022-12-29T12:09:35Z</time>
      </trkpt>
      <trkpt lat="45.00533" lon="6.12056">
        <ele>1660.2</ele>
        <time>2022-12-29T12:09:36Z</time>
      </trkpt>
      <trkpt lat="45.00535" lon="6.12059">
        <ele>1660.2</ele>
        <time>2022-12-29T12:09:37Z</time>
      </trkpt>
      <trkpt lat="45.00535" lon="6.1206">
        <ele>1660.2</ele>
        <time>2022-12-29T12:09:38Z</time>
      </trkpt>
      <trkpt lat="45.00536" lon="6.12061">
        <ele>1660.2</ele>
        <time>2022-12-29T12:09:39Z</time>
      </trkpt>
      <trkpt lat="45.00536" lon="6.12061">
        <ele>1660.2</ele>
        <time>2022-12-29T12:09:40Z</time>
      </trkpt>
      <trkpt lat="45.00537" lon="6.12062">
        <ele>1660.2</ele>
        <time>2022-12-29T12:09:41Z</time>
      </trkpt>
      <trkpt lat="45.00538" lon="6.12063">
        <ele>1660.2</ele>
        <time>2022-12-29T12:09:42Z</time>
      </trkpt>
      <trkpt lat="45.00538" lon="6.12064">
        <ele>1660.2</ele>
        <time>2022-12-29T12:09:43Z</time>
      </trkpt>
      <trkpt lat="45.00539" lon="6.12065">
        <ele>1660.2</ele>
        <time>2022-12-29T12:09:44Z</time>
      </trkpt>
      <trkpt lat="45.00539" lon="6.12065">
        <ele>1660.2</ele>
        <time>2022-12-29T12:09:45Z</time>
      </trkpt>
      <trkpt lat="45.0054" lon="6.12066">
        <ele>1660.4</ele>
        <time>2022-12-29T12:09:46Z</time>
      </trkpt>
      <trkpt lat="45.00541" lon="6.12068">
        <ele>1660.4</ele>
        <time>2022-12-29T12:09:47Z</time>
      </trkpt>
      <trkpt lat="45.00542" lon="6.12069">
        <ele>1660.4</ele>
        <time>2022-12-29T12:09:48Z</time>
      </trkpt>
      <trkpt lat="45.00543" lon="6.12069">
        <ele>1660.4</ele>
        <time>2022-12-29T12:09:49Z</time>
      </trkpt>
      <trkpt lat="45.00543" lon="6.1207">
        <ele>1660.4</ele>
        <time>2022-12-29T12:09:50Z</time>
      </trkpt>
      <trkpt lat="45.00544" lon="6.12071">
        <ele>1660.4</ele>
        <time>2022-12-29T12:09:51Z</time>
      </trkpt>
      <trkpt lat="45.00545" lon="6.12071">
        <ele>1660.4</ele>
        <time>2022-12-29T12:09:52Z</time>
      </trkpt>
      <trkpt lat="45.00546" lon="6.12072">
        <ele>1660.4</ele>
        <time>2022-12-29T12:09:53Z</time>
      </trkpt>
      <trkpt lat="45.00547" lon="6.12072">
        <ele>1660.4</ele>
        <time>2022-12-29T12:09:54Z</time>
      </trkpt>
      <trkpt lat="45.00547" lon="6.12073">
        <ele>1660.4</ele>
        <time>2022-12-29T12:09:55Z</time>
      </trkpt>
      <trkpt lat="45.00548" lon="6.12074">
        <ele>1660.4</ele>
        <time>2022-12-29T12:09:56Z</time>
      </trkpt>
      <trkpt lat="45.0055" lon="6.12074">
        <ele>1660.4</ele>
        <time>2022-12-29T12:09:57Z</time>
      </trkpt>
      <trkpt lat="45.00551" lon="6.12074">
        <ele>1660.4</ele>
        <time>2022-12-29T12:09:58Z</time>
      </trkpt>
      <trkpt lat="45.00552" lon="6.12075">
        <ele>1660.4</ele>
        <time>2022-12-29T12:09:59Z</time>
      </trkpt>
      <trkpt lat="45.00553" lon="6.12075">
        <ele>1660.4</ele>
        <time>2022-12-29T12:10:00Z</time>
      </trkpt>
      <trkpt lat="45.00553" lon="6.12075">
        <ele>1660.4</ele>
        <time>2022-12-29T12:10:01Z</time>
      </trkpt>
      <trkpt lat="45.00554" lon="6.12076">
        <ele>1660.4</ele>
        <time>2022-12-29T12:10:02Z</time>
      </trkpt>
      <trkpt lat="45.00555" lon="6.12076">
        <ele>1660.4</ele>
        <time>2022-12-29T12:10:03Z</time>
      </trkpt>
      <trkpt lat="45.00556" lon="6.12076">
        <ele>1660.4</ele>
        <time>2022-12-29T12:10:04Z</time>
      </trkpt>
      <trkpt lat="45.00557" lon="6.12076">
        <ele>1660.4</ele>
        <time>2022-12-29T12:10:05Z</time>
      </trkpt>
      <trkpt lat="45.00557" lon="6.12077">
        <ele>1659.8</ele>
        <time>2022-12-29T12:10:06Z</time>
      </trkpt>
      <trkpt lat="45.00559" lon="6.12077">
        <ele>1659.8</ele>
        <time>2022-12-29T12:10:07Z</time>
      </trkpt>
      <trkpt lat="45.00561" lon="6.12078">
        <ele>1659.8</ele>
        <time>2022-12-29T12:10:08Z</time>
      </trkpt>
      <trkpt lat="45.00562" lon="6.12079">
        <ele>1659.8</ele>
        <time>2022-12-29T12:10:09Z</time>
      </trkpt>
      <trkpt lat="45.00564" lon="6.12079">
        <ele>1659.8</ele>
        <time>2022-12-29T12:10:10Z</time>
      </trkpt>
      <trkpt lat="45.00565" lon="6.1208">
        <ele>1659.8</ele>
        <time>2022-12-29T12:10:11Z</time>
      </trkpt>
      <trkpt lat="45.00567" lon="6.12081">
        <ele>1659.8</ele>
        <time>2022-12-29T12:10:12Z</time>
      </trkpt>
      <trkpt lat="45.00568" lon="6.12081">
        <ele>1659.8</ele>
        <time>2022-12-29T12:10:13Z</time>
      </trkpt>
      <trkpt lat="45.0057" lon="6.12082">
        <ele>1659.8</ele>
        <time>2022-12-29T12:10:14Z</time>
      </trkpt>
      <trkpt lat="45.00572" lon="6.12083">
        <ele>1659.8</ele>
        <time>2022-12-29T12:10:15Z</time>
      </trkpt>
      <trkpt lat="45.00573" lon="6.12084">
        <ele>1660.2</ele>
        <time>2022-12-29T12:10:16Z</time>
      </trkpt>
      <trkpt lat="45.00575" lon="6.12085">
        <ele>1660.2</ele>
        <time>2022-12-29T12:10:17Z</time>
      </trkpt>
      <trkpt lat="45.00576" lon="6.12086">
        <ele>1660.2</ele>
        <time>2022-12-29T12:10:18Z</time>
      </trkpt>
      <trkpt lat="45.00577" lon="6.12087">
        <ele>1660.2</ele>
        <time>2022-12-29T12:10:19Z</time>
      </trkpt>
      <trkpt lat="45.00578" lon="6.12088">
        <ele>1660.2</ele>
        <time>2022-12-29T12:10:20Z</time>
      </trkpt>
      <trkpt lat="45.00579" lon="6.1209">
        <ele>1660.2</ele>
        <time>2022-12-29T12:10:21Z</time>
      </trkpt>
      <trkpt lat="45.0058" lon="6.12091">
        <ele>1660.2</ele>
        <time>2022-12-29T12:10:22Z</time>
      </trkpt>
      <trkpt lat="45.00582" lon="6.12092">
        <ele>1660.2</ele>
        <time>2022-12-29T12:10:23Z</time>
      </trkpt>
      <trkpt lat="45.00583" lon="6.12093">
        <ele>1660.2</ele>
        <time>2022-12-29T12:10:24Z</time>
      </trkpt>
      <trkpt lat="45.00584" lon="6.12094">
        <ele>1660.2</ele>
        <time>2022-12-29T12:10:25Z</time>
      </trkpt>
      <trkpt lat="45.00585" lon="6.12095">
        <ele>1659</ele>
        <time>2022-12-29T12:10:26Z</time>
      </trkpt>
      <trkpt lat="45.00586" lon="6.12099">
        <ele>1659</ele>
        <time>2022-12-29T12:10:27Z</time>
      </trkpt>
      <trkpt lat="45.00587" lon="6.12101">
        <ele>1659</ele>
        <time>2022-12-29T12:10:28Z</time>
      </trkpt>
      <trkpt lat="45.00588" lon="6.12102">
        <ele>1659</ele>
        <time>2022-12-29T12:10:29Z</time>
      </trkpt>
      <trkpt lat="45.00589" lon="6.12104">
        <ele>1659</ele>
        <time>2022-12-29T12:10:30Z</time>
      </trkpt>
      <trkpt lat="45.00589" lon="6.12106">
        <ele>1659</ele>
        <time>2022-12-29T12:10:31Z</time>
      </trkpt>
      <trkpt lat="45.0059" lon="6.12108">
        <ele>1659</ele>
        <time>2022-12-29T12:10:32Z</time>
      </trkpt>
      <trkpt lat="45.00591" lon="6.12109">
        <ele>1659</ele>
        <time>2022-12-29T12:10:33Z</time>
      </trkpt>
      <trkpt lat="45.00591" lon="6.12111">
        <ele>1659</ele>
        <time>2022-12-29T12:10:34Z</time>
      </trkpt>
      <trkpt lat="45.00592" lon="6.12113">
        <ele>1659</ele>
        <time>2022-12-29T12:10:35Z</time>
      </trkpt>
      <trkpt lat="45.00593" lon="6.12114">
        <ele>1658.2</ele>
        <time>2022-12-29T12:10:36Z</time>
      </trkpt>
      <trkpt lat="45.00594" lon="6.12117">
        <ele>1658.2</ele>
        <time>2022-12-29T12:10:37Z</time>
      </trkpt>
      <trkpt lat="45.00595" lon="6.12119">
        <ele>1658.2</ele>
        <time>2022-12-29T12:10:38Z</time>
      </trkpt>
      <trkpt lat="45.00596" lon="6.1212">
        <ele>1658.2</ele>
        <time>2022-12-29T12:10:39Z</time>
      </trkpt>
      <trkpt lat="45.00597" lon="6.12121">
        <ele>1658.2</ele>
        <time>2022-12-29T12:10:40Z</time>
      </trkpt>
      <trkpt lat="45.00598" lon="6.12123">
        <ele>1658.2</ele>
        <time>2022-12-29T12:10:41Z</time>
      </trkpt>
      <trkpt lat="45.00598" lon="6.12124">
        <ele>1658.2</ele>
        <time>2022-12-29T12:10:42Z</time>
      </trkpt>
      <trkpt lat="45.00599" lon="6.12125">
        <ele>1658.2</ele>
        <time>2022-12-29T12:10:43Z</time>
      </trkpt>
      <trkpt lat="45.006" lon="6.12127">
        <ele>1658.2</ele>
        <time>2022-12-29T12:10:44Z</time>
      </trkpt>
      <trkpt lat="45.00601" lon="6.12128">
        <ele>1658.2</ele>
        <time>2022-12-29T12:10:45Z</time>
      </trkpt>
      <trkpt lat="45.00602" lon="6.1213">
        <ele>1657.4</ele>
        <time>2022-12-29T12:10:46Z</time>
      </trkpt>
      <trkpt lat="45.00603" lon="6.12133">
        <ele>1657.4</ele>
        <time>2022-12-29T12:10:47Z</time>
      </trkpt>
      <trkpt lat="45.00603" lon="6.12134">
        <ele>1657.4</ele>
        <time>2022-12-29T12:10:48Z</time>
      </trkpt>
      <trkpt lat="45.00604" lon="6.12135">
        <ele>1657.4</ele>
        <time>2022-12-29T12:10:49Z</time>
      </trkpt>
      <trkpt lat="45.00604" lon="6.12137">
        <ele>1657.4</ele>
        <time>2022-12-29T12:10:50Z</time>
      </trkpt>
      <trkpt lat="45.00605" lon="6.12138">
        <ele>1657.4</ele>
        <time>2022-12-29T12:10:51Z</time>
      </trkpt>
      <trkpt lat="45.00605" lon="6.1214">
        <ele>1657.4</ele>
        <time>2022-12-29T12:10:52Z</time>
      </trkpt>
      <trkpt lat="45.00606" lon="6.12141">
        <ele>1657.4</ele>
        <time>2022-12-29T12:10:53Z</time>
      </trkpt>
      <trkpt lat="45.00606" lon="6.12142">
        <ele>1657.4</ele>
        <time>2022-12-29T12:10:54Z</time>
      </trkpt>
      <trkpt lat="45.00606" lon="6.12144">
        <ele>1657.4</ele>
        <time>2022-12-29T12:10:55Z</time>
      </trkpt>
      <trkpt lat="45.00607" lon="6.12145">
        <ele>1656.6</ele>
        <time>2022-12-29T12:10:56Z</time>
      </trkpt>
      <trkpt lat="45.00609" lon="6.12148">
        <ele>1656.6</ele>
        <time>2022-12-29T12:10:57Z</time>
      </trkpt>
      <trkpt lat="45.00609" lon="6.12149">
        <ele>1656.6</ele>
        <time>2022-12-29T12:10:58Z</time>
      </trkpt>
      <trkpt lat="45.0061" lon="6.1215">
        <ele>1656.6</ele>
        <time>2022-12-29T12:10:59Z</time>
      </trkpt>
      <trkpt lat="45.00611" lon="6.12151">
        <ele>1656.6</ele>
        <time>2022-12-29T12:11:00Z</time>
      </trkpt>
      <trkpt lat="45.00612" lon="6.12152">
        <ele>1656.6</ele>
        <time>2022-12-29T12:11:01Z</time>
      </trkpt>
      <trkpt lat="45.00612" lon="6.12153">
        <ele>1656.6</ele>
        <time>2022-12-29T12:11:02Z</time>
      </trkpt>
      <trkpt lat="45.00613" lon="6.12155">
        <ele>1656.6</ele>
        <time>2022-12-29T12:11:03Z</time>
      </trkpt>
      <trkpt lat="45.00614" lon="6.12156">
        <ele>1656.6</ele>
        <time>2022-12-29T12:11:04Z</time>
      </trkpt>
      <trkpt lat="45.00614" lon="6.12157">
        <ele>1656.6</ele>
        <time>2022-12-29T12:11:05Z</time>
      </trkpt>
      <trkpt lat="45.00615" lon="6.12158">
        <ele>1655.6</ele>
        <time>2022-12-29T12:11:06Z</time>
      </trkpt>
      <trkpt lat="45.00616" lon="6.12161">
        <ele>1655.6</ele>
        <time>2022-12-29T12:11:07Z</time>
      </trkpt>
      <trkpt lat="45.00617" lon="6.12162">
        <ele>1655.6</ele>
        <time>2022-12-29T12:11:08Z</time>
      </trkpt>
      <trkpt lat="45.00617" lon="6.12164">
        <ele>1655.6</ele>
        <time>2022-12-29T12:11:09Z</time>
      </trkpt>
      <trkpt lat="45.00618" lon="6.12165">
        <ele>1655.6</ele>
        <time>2022-12-29T12:11:10Z</time>
      </trkpt>
      <trkpt lat="45.00618" lon="6.12167">
        <ele>1655.6</ele>
        <time>2022-12-29T12:11:11Z</time>
      </trkpt>
      <trkpt lat="45.00619" lon="6.12168">
        <ele>1655.6</ele>
        <time>2022-12-29T12:11:12Z</time>
      </trkpt>
      <trkpt lat="45.00619" lon="6.1217">
        <ele>1655.6</ele>
        <time>2022-12-29T12:11:13Z</time>
      </trkpt>
      <trkpt lat="45.0062" lon="6.12171">
        <ele>1655.6</ele>
        <time>2022-12-29T12:11:14Z</time>
      </trkpt>
      <trkpt lat="45.0062" lon="6.12173">
        <ele>1655.6</ele>
        <time>2022-12-29T12:11:15Z</time>
      </trkpt>
      <trkpt lat="45.0062" lon="6.12174">
        <ele>1654.8</ele>
        <time>2022-12-29T12:11:16Z</time>
      </trkpt>
      <trkpt lat="45.00621" lon="6.12178">
        <ele>1654.8</ele>
        <time>2022-12-29T12:11:17Z</time>
      </trkpt>
      <trkpt lat="45.00622" lon="6.1218">
        <ele>1654.8</ele>
        <time>2022-12-29T12:11:18Z</time>
      </trkpt>
      <trkpt lat="45.00622" lon="6.12182">
        <ele>1654.8</ele>
        <time>2022-12-29T12:11:19Z</time>
      </trkpt>
      <trkpt lat="45.00623" lon="6.12184">
        <ele>1654.8</ele>
        <time>2022-12-29T12:11:20Z</time>
      </trkpt>
      <trkpt lat="45.00623" lon="6.12186">
        <ele>1654.8</ele>
        <time>2022-12-29T12:11:21Z</time>
      </trkpt>
      <trkpt lat="45.00623" lon="6.12187">
        <ele>1654.8</ele>
        <time>2022-12-29T12:11:22Z</time>
      </trkpt>
      <trkpt lat="45.00624" lon="6.12189">
        <ele>1654.8</ele>
        <time>2022-12-29T12:11:23Z</time>
      </trkpt>
      <trkpt lat="45.00624" lon="6.12191">
        <ele>1654.8</ele>
        <time>2022-12-29T12:11:24Z</time>
      </trkpt>
      <trkpt lat="45.00625" lon="6.12193">
        <ele>1654.8</ele>
        <time>2022-12-29T12:11:25Z</time>
      </trkpt>
      <trkpt lat="45.00625" lon="6.12195">
        <ele>1653.8</ele>
        <time>2022-12-29T12:11:26Z</time>
      </trkpt>
      <trkpt lat="45.00625" lon="6.12198">
        <ele>1653.8</ele>
        <time>2022-12-29T12:11:27Z</time>
      </trkpt>
      <trkpt lat="45.00626" lon="6.12199">
        <ele>1653.8</ele>
        <time>2022-12-29T12:11:28Z</time>
      </trkpt>
      <trkpt lat="45.00626" lon="6.12201">
        <ele>1653.8</ele>
        <time>2022-12-29T12:11:29Z</time>
      </trkpt>
      <trkpt lat="45.00626" lon="6.12202">
        <ele>1653.8</ele>
        <time>2022-12-29T12:11:30Z</time>
      </trkpt>
      <trkpt lat="45.00626" lon="6.12203">
        <ele>1653.8</ele>
        <time>2022-12-29T12:11:31Z</time>
      </trkpt>
      <trkpt lat="45.00626" lon="6.12204">
        <ele>1653.8</ele>
        <time>2022-12-29T12:11:32Z</time>
      </trkpt>
      <trkpt lat="45.00626" lon="6.12206">
        <ele>1653.8</ele>
        <time>2022-12-29T12:11:33Z</time>
      </trkpt>
      <trkpt lat="45.00627" lon="6.12207">
        <ele>1653.8</ele>
        <time>2022-12-29T12:11:34Z</time>
      </trkpt>
      <trkpt lat="45.00627" lon="6.12208">
        <ele>1653.8</ele>
        <time>2022-12-29T12:11:35Z</time>
      </trkpt>
      <trkpt lat="45.00627" lon="6.12209">
        <ele>1652.2</ele>
        <time>2022-12-29T12:11:36Z</time>
      </trkpt>
      <trkpt lat="45.00628" lon="6.12213">
        <ele>1652.2</ele>
        <time>2022-12-29T12:11:37Z</time>
      </trkpt>
      <trkpt lat="45.00629" lon="6.12214">
        <ele>1652.2</ele>
        <time>2022-12-29T12:11:38Z</time>
      </trkpt>
      <trkpt lat="45.00629" lon="6.12216">
        <ele>1652.2</ele>
        <time>2022-12-29T12:11:39Z</time>
      </trkpt>
      <trkpt lat="45.0063" lon="6.12217">
        <ele>1652.2</ele>
        <time>2022-12-29T12:11:40Z</time>
      </trkpt>
      <trkpt lat="45.0063" lon="6.12219">
        <ele>1652.2</ele>
        <time>2022-12-29T12:11:41Z</time>
      </trkpt>
      <trkpt lat="45.00631" lon="6.1222">
        <ele>1652.2</ele>
        <time>2022-12-29T12:11:42Z</time>
      </trkpt>
      <trkpt lat="45.00632" lon="6.12222">
        <ele>1652.2</ele>
        <time>2022-12-29T12:11:43Z</time>
      </trkpt>
      <trkpt lat="45.00632" lon="6.12223">
        <ele>1652.2</ele>
        <time>2022-12-29T12:11:44Z</time>
      </trkpt>
      <trkpt lat="45.00633" lon="6.12224">
        <ele>1652.2</ele>
        <time>2022-12-29T12:11:45Z</time>
      </trkpt>
      <trkpt lat="45.00633" lon="6.12226">
        <ele>1651.2</ele>
        <time>2022-12-29T12:11:46Z</time>
      </trkpt>
      <trkpt lat="45.00634" lon="6.12229">
        <ele>1651.2</ele>
        <time>2022-12-29T12:11:47Z</time>
      </trkpt>
      <trkpt lat="45.00635" lon="6.12231">
        <ele>1651.2</ele>
        <time>2022-12-29T12:11:48Z</time>
      </trkpt>
      <trkpt lat="45.00635" lon="6.12232">
        <ele>1651.2</ele>
        <time>2022-12-29T12:11:49Z</time>
      </trkpt>
      <trkpt lat="45.00636" lon="6.12234">
        <ele>1651.2</ele>
        <time>2022-12-29T12:11:50Z</time>
      </trkpt>
      <trkpt lat="45.00636" lon="6.12235">
        <ele>1651.2</ele>
        <time>2022-12-29T12:11:51Z</time>
      </trkpt>
      <trkpt lat="45.00637" lon="6.12237">
        <ele>1651.2</ele>
        <time>2022-12-29T12:11:52Z</time>
      </trkpt>
      <trkpt lat="45.00637" lon="6.12238">
        <ele>1651.2</ele>
        <time>2022-12-29T12:11:53Z</time>
      </trkpt>
      <trkpt lat="45.00638" lon="6.1224">
        <ele>1651.2</ele>
        <time>2022-12-29T12:11:54Z</time>
      </trkpt>
      <trkpt lat="45.00638" lon="6.12241">
        <ele>1651.2</ele>
        <time>2022-12-29T12:11:55Z</time>
      </trkpt>
      <trkpt lat="45.00639" lon="6.12243">
        <ele>1651.2</ele>
        <time>2022-12-29T12:11:56Z</time>
      </trkpt>
      <trkpt lat="45.00639" lon="6.12246">
        <ele>1651.2</ele>
        <time>2022-12-29T12:11:57Z</time>
      </trkpt>
      <trkpt lat="45.0064" lon="6.12248">
        <ele>1651.2</ele>
        <time>2022-12-29T12:11:58Z</time>
      </trkpt>
      <trkpt lat="45.0064" lon="6.12249">
        <ele>1651.2</ele>
        <time>2022-12-29T12:11:59Z</time>
      </trkpt>
      <trkpt lat="45.00641" lon="6.12251">
        <ele>1651.2</ele>
        <time>2022-12-29T12:12:00Z</time>
      </trkpt>
      <trkpt lat="45.00641" lon="6.12252">
        <ele>1651.2</ele>
        <time>2022-12-29T12:12:01Z</time>
      </trkpt>
      <trkpt lat="45.00641" lon="6.12254">
        <ele>1651.2</ele>
        <time>2022-12-29T12:12:02Z</time>
      </trkpt>
      <trkpt lat="45.00642" lon="6.12255">
        <ele>1651.2</ele>
        <time>2022-12-29T12:12:03Z</time>
      </trkpt>
      <trkpt lat="45.00642" lon="6.12257">
        <ele>1651.2</ele>
        <time>2022-12-29T12:12:04Z</time>
      </trkpt>
      <trkpt lat="45.00642" lon="6.12258">
        <ele>1651.2</ele>
        <time>2022-12-29T12:12:05Z</time>
      </trkpt>
      <trkpt lat="45.00643" lon="6.12259">
        <ele>1651.4</ele>
        <time>2022-12-29T12:12:06Z</time>
      </trkpt>
      <trkpt lat="45.00644" lon="6.12263">
        <ele>1651.4</ele>
        <time>2022-12-29T12:12:07Z</time>
      </trkpt>
      <trkpt lat="45.00644" lon="6.12264">
        <ele>1651.4</ele>
        <time>2022-12-29T12:12:08Z</time>
      </trkpt>
      <trkpt lat="45.00644" lon="6.12266">
        <ele>1651.4</ele>
        <time>2022-12-29T12:12:09Z</time>
      </trkpt>
      <trkpt lat="45.00645" lon="6.12267">
        <ele>1651.4</ele>
        <time>2022-12-29T12:12:10Z</time>
      </trkpt>
      <trkpt lat="45.00645" lon="6.12269">
        <ele>1651.4</ele>
        <time>2022-12-29T12:12:11Z</time>
      </trkpt>
      <trkpt lat="45.00646" lon="6.1227">
        <ele>1651.4</ele>
        <time>2022-12-29T12:12:12Z</time>
      </trkpt>
      <trkpt lat="45.00646" lon="6.12272">
        <ele>1651.4</ele>
        <time>2022-12-29T12:12:13Z</time>
      </trkpt>
      <trkpt lat="45.00646" lon="6.12273">
        <ele>1651.4</ele>
        <time>2022-12-29T12:12:14Z</time>
      </trkpt>
      <trkpt lat="45.00647" lon="6.12275">
        <ele>1651.4</ele>
        <time>2022-12-29T12:12:15Z</time>
      </trkpt>
      <trkpt lat="45.00647" lon="6.12276">
        <ele>1651</ele>
        <time>2022-12-29T12:12:16Z</time>
      </trkpt>
      <trkpt lat="45.00648" lon="6.1228">
        <ele>1651</ele>
        <time>2022-12-29T12:12:17Z</time>
      </trkpt>
      <trkpt lat="45.00649" lon="6.12281">
        <ele>1651</ele>
        <time>2022-12-29T12:12:18Z</time>
      </trkpt>
      <trkpt lat="45.00649" lon="6.12282">
        <ele>1651</ele>
        <time>2022-12-29T12:12:19Z</time>
      </trkpt>
      <trkpt lat="45.0065" lon="6.12284">
        <ele>1651</ele>
        <time>2022-12-29T12:12:20Z</time>
      </trkpt>
      <trkpt lat="45.0065" lon="6.12285">
        <ele>1651</ele>
        <time>2022-12-29T12:12:21Z</time>
      </trkpt>
      <trkpt lat="45.0065" lon="6.12287">
        <ele>1651</ele>
        <time>2022-12-29T12:12:22Z</time>
      </trkpt>
      <trkpt lat="45.00651" lon="6.12288">
        <ele>1651</ele>
        <time>2022-12-29T12:12:23Z</time>
      </trkpt>
      <trkpt lat="45.00651" lon="6.1229">
        <ele>1651</ele>
        <time>2022-12-29T12:12:24Z</time>
      </trkpt>
      <trkpt lat="45.00652" lon="6.12291">
        <ele>1651</ele>
        <time>2022-12-29T12:12:25Z</time>
      </trkpt>
      <trkpt lat="45.00652" lon="6.12293">
        <ele>1650.6</ele>
        <time>2022-12-29T12:12:26Z</time>
      </trkpt>
      <trkpt lat="45.00653" lon="6.12296">
        <ele>1650.6</ele>
        <time>2022-12-29T12:12:27Z</time>
      </trkpt>
      <trkpt lat="45.00654" lon="6.12297">
        <ele>1650.6</ele>
        <time>2022-12-29T12:12:28Z</time>
      </trkpt>
      <trkpt lat="45.00654" lon="6.12299">
        <ele>1650.6</ele>
        <time>2022-12-29T12:12:29Z</time>
      </trkpt>
      <trkpt lat="45.00654" lon="6.123">
        <ele>1650.6</ele>
        <time>2022-12-29T12:12:30Z</time>
      </trkpt>
      <trkpt lat="45.00655" lon="6.12301">
        <ele>1650.6</ele>
        <time>2022-12-29T12:12:31Z</time>
      </trkpt>
      <trkpt lat="45.00655" lon="6.12303">
        <ele>1650.6</ele>
        <time>2022-12-29T12:12:32Z</time>
      </trkpt>
      <trkpt lat="45.00656" lon="6.12304">
        <ele>1650.6</ele>
        <time>2022-12-29T12:12:33Z</time>
      </trkpt>
      <trkpt lat="45.00656" lon="6.12305">
        <ele>1650.6</ele>
        <time>2022-12-29T12:12:34Z</time>
      </trkpt>
      <trkpt lat="45.00656" lon="6.12307">
        <ele>1650.6</ele>
        <time>2022-12-29T12:12:35Z</time>
      </trkpt>
      <trkpt lat="45.00657" lon="6.12308">
        <ele>1650.4</ele>
        <time>2022-12-29T12:12:36Z</time>
      </trkpt>
      <trkpt lat="45.00657" lon="6.12311">
        <ele>1650.4</ele>
        <time>2022-12-29T12:12:37Z</time>
      </trkpt>
      <trkpt lat="45.00657" lon="6.12313">
        <ele>1650.4</ele>
        <time>2022-12-29T12:12:38Z</time>
      </trkpt>
      <trkpt lat="45.00658" lon="6.12314">
        <ele>1650.4</ele>
        <time>2022-12-29T12:12:39Z</time>
      </trkpt>
      <trkpt lat="45.00658" lon="6.12315">
        <ele>1650.4</ele>
        <time>2022-12-29T12:12:40Z</time>
      </trkpt>
      <trkpt lat="45.00658" lon="6.12316">
        <ele>1650.4</ele>
        <time>2022-12-29T12:12:41Z</time>
      </trkpt>
      <trkpt lat="45.00658" lon="6.12318">
        <ele>1650.4</ele>
        <time>2022-12-29T12:12:42Z</time>
      </trkpt>
      <trkpt lat="45.00659" lon="6.12319">
        <ele>1650.4</ele>
        <time>2022-12-29T12:12:43Z</time>
      </trkpt>
      <trkpt lat="45.00659" lon="6.1232">
        <ele>1650.4</ele>
        <time>2022-12-29T12:12:44Z</time>
      </trkpt>
      <trkpt lat="45.00659" lon="6.12322">
        <ele>1650.4</ele>
        <time>2022-12-29T12:12:45Z</time>
      </trkpt>
      <trkpt lat="45.00659" lon="6.12323">
        <ele>1650.6</ele>
        <time>2022-12-29T12:12:46Z</time>
      </trkpt>
      <trkpt lat="45.00659" lon="6.12327">
        <ele>1650.6</ele>
        <time>2022-12-29T12:12:47Z</time>
      </trkpt>
      <trkpt lat="45.00658" lon="6.12328">
        <ele>1650.6</ele>
        <time>2022-12-29T12:12:48Z</time>
      </trkpt>
      <trkpt lat="45.00657" lon="6.1233">
        <ele>1650.6</ele>
        <time>2022-12-29T12:12:49Z</time>
      </trkpt>
      <trkpt lat="45.00656" lon="6.12332">
        <ele>1650.6</ele>
        <time>2022-12-29T12:12:50Z</time>
      </trkpt>
      <trkpt lat="45.00656" lon="6.12333">
        <ele>1650.6</ele>
        <time>2022-12-29T12:12:51Z</time>
      </trkpt>
      <trkpt lat="45.00655" lon="6.12335">
        <ele>1650.6</ele>
        <time>2022-12-29T12:12:52Z</time>
      </trkpt>
      <trkpt lat="45.00654" lon="6.12336">
        <ele>1650.6</ele>
        <time>2022-12-29T12:12:53Z</time>
      </trkpt>
      <trkpt lat="45.00654" lon="6.12338">
        <ele>1650.6</ele>
        <time>2022-12-29T12:12:54Z</time>
      </trkpt>
      <trkpt lat="45.00653" lon="6.1234">
        <ele>1650.6</ele>
        <time>2022-12-29T12:12:55Z</time>
      </trkpt>
      <trkpt lat="45.00652" lon="6.12341">
        <ele>1651.2</ele>
        <time>2022-12-29T12:12:56Z</time>
      </trkpt>
      <trkpt lat="45.00651" lon="6.12344">
        <ele>1651.2</ele>
        <time>2022-12-29T12:12:57Z</time>
      </trkpt>
      <trkpt lat="45.0065" lon="6.12346">
        <ele>1651.2</ele>
        <time>2022-12-29T12:12:58Z</time>
      </trkpt>
      <trkpt lat="45.0065" lon="6.12347">
        <ele>1651.2</ele>
        <time>2022-12-29T12:12:59Z</time>
      </trkpt>
      <trkpt lat="45.00649" lon="6.12348">
        <ele>1651.2</ele>
        <time>2022-12-29T12:13:00Z</time>
      </trkpt>
      <trkpt lat="45.00649" lon="6.1235">
        <ele>1651.2</ele>
        <time>2022-12-29T12:13:01Z</time>
      </trkpt>
      <trkpt lat="45.00648" lon="6.12351">
        <ele>1651.2</ele>
        <time>2022-12-29T12:13:02Z</time>
      </trkpt>
      <trkpt lat="45.00647" lon="6.12352">
        <ele>1651.2</ele>
        <time>2022-12-29T12:13:03Z</time>
      </trkpt>
      <trkpt lat="45.00647" lon="6.12354">
        <ele>1651.2</ele>
        <time>2022-12-29T12:13:04Z</time>
      </trkpt>
      <trkpt lat="45.00646" lon="6.12355">
        <ele>1651.2</ele>
        <time>2022-12-29T12:13:05Z</time>
      </trkpt>
      <trkpt lat="45.00645" lon="6.12356">
        <ele>1651.4</ele>
        <time>2022-12-29T12:13:06Z</time>
      </trkpt>
      <trkpt lat="45.00644" lon="6.12359">
        <ele>1651.4</ele>
        <time>2022-12-29T12:13:07Z</time>
      </trkpt>
      <trkpt lat="45.00644" lon="6.12361">
        <ele>1651.4</ele>
        <time>2022-12-29T12:13:08Z</time>
      </trkpt>
      <trkpt lat="45.00643" lon="6.12362">
        <ele>1651.4</ele>
        <time>2022-12-29T12:13:09Z</time>
      </trkpt>
      <trkpt lat="45.00642" lon="6.12364">
        <ele>1651.4</ele>
        <time>2022-12-29T12:13:10Z</time>
      </trkpt>
      <trkpt lat="45.00642" lon="6.12365">
        <ele>1651.4</ele>
        <time>2022-12-29T12:13:11Z</time>
      </trkpt>
      <trkpt lat="45.00641" lon="6.12367">
        <ele>1651.4</ele>
        <time>2022-12-29T12:13:12Z</time>
      </trkpt>
      <trkpt lat="45.00641" lon="6.12368">
        <ele>1651.4</ele>
        <time>2022-12-29T12:13:13Z</time>
      </trkpt>
      <trkpt lat="45.0064" lon="6.1237">
        <ele>1651.4</ele>
        <time>2022-12-29T12:13:14Z</time>
      </trkpt>
      <trkpt lat="45.00639" lon="6.12371">
        <ele>1651.4</ele>
        <time>2022-12-29T12:13:15Z</time>
      </trkpt>
      <trkpt lat="45.00639" lon="6.12373">
        <ele>1651.8</ele>
        <time>2022-12-29T12:13:16Z</time>
      </trkpt>
      <trkpt lat="45.00638" lon="6.12374">
        <ele>1651.8</ele>
        <time>2022-12-29T12:13:17Z</time>
      </trkpt>
      <trkpt lat="45.00637" lon="6.12377">
        <ele>1651.8</ele>
        <time>2022-12-29T12:13:18Z</time>
      </trkpt>
      <trkpt lat="45.00637" lon="6.12377">
        <ele>1651.8</ele>
        <time>2022-12-29T12:13:19Z</time>
      </trkpt>
      <trkpt lat="45.00636" lon="6.12381">
        <ele>1651.8</ele>
        <time>2022-12-29T12:13:20Z</time>
      </trkpt>
      <trkpt lat="45.00636" lon="6.12381">
        <ele>1651.8</ele>
        <time>2022-12-29T12:13:21Z</time>
      </trkpt>
      <trkpt lat="45.00634" lon="6.12384">
        <ele>1651.8</ele>
        <time>2022-12-29T12:13:22Z</time>
      </trkpt>
      <trkpt lat="45.00632" lon="6.12387">
        <ele>1651.8</ele>
        <time>2022-12-29T12:13:24Z</time>
      </trkpt>
      <trkpt lat="45.00631" lon="6.12389">
        <ele>1652.6</ele>
        <time>2022-12-29T12:13:26Z</time>
      </trkpt>
      <trkpt lat="45.00631" lon="6.1239">
        <ele>1652.6</ele>
        <time>2022-12-29T12:13:27Z</time>
      </trkpt>
      <trkpt lat="45.0063" lon="6.12391">
        <ele>1652.6</ele>
        <time>2022-12-29T12:13:28Z</time>
      </trkpt>
      <trkpt lat="45.00629" lon="6.12392">
        <ele>1652.6</ele>
        <time>2022-12-29T12:13:29Z</time>
      </trkpt>
      <trkpt lat="45.00628" lon="6.12393">
        <ele>1652.6</ele>
        <time>2022-12-29T12:13:30Z</time>
      </trkpt>
      <trkpt lat="45.00627" lon="6.12394">
        <ele>1652.6</ele>
        <time>2022-12-29T12:13:31Z</time>
      </trkpt>
      <trkpt lat="45.00626" lon="6.12395">
        <ele>1652.6</ele>
        <time>2022-12-29T12:13:32Z</time>
      </trkpt>
      <trkpt lat="45.00625" lon="6.12396">
        <ele>1652.6</ele>
        <time>2022-12-29T12:13:33Z</time>
      </trkpt>
      <trkpt lat="45.00624" lon="6.12397">
        <ele>1652.6</ele>
        <time>2022-12-29T12:13:34Z</time>
      </trkpt>
      <trkpt lat="45.00624" lon="6.12398">
        <ele>1652.6</ele>
        <time>2022-12-29T12:13:35Z</time>
      </trkpt>
      <trkpt lat="45.00623" lon="6.124">
        <ele>1653</ele>
        <time>2022-12-29T12:13:36Z</time>
      </trkpt>
      <trkpt lat="45.00621" lon="6.12402">
        <ele>1653</ele>
        <time>2022-12-29T12:13:37Z</time>
      </trkpt>
      <trkpt lat="45.0062" lon="6.12403">
        <ele>1653</ele>
        <time>2022-12-29T12:13:38Z</time>
      </trkpt>
      <trkpt lat="45.00619" lon="6.12404">
        <ele>1653</ele>
        <time>2022-12-29T12:13:39Z</time>
      </trkpt>
      <trkpt lat="45.00618" lon="6.12404">
        <ele>1653</ele>
        <time>2022-12-29T12:13:40Z</time>
      </trkpt>
      <trkpt lat="45.00617" lon="6.12405">
        <ele>1653</ele>
        <time>2022-12-29T12:13:41Z</time>
      </trkpt>
      <trkpt lat="45.00616" lon="6.12406">
        <ele>1653</ele>
        <time>2022-12-29T12:13:42Z</time>
      </trkpt>
      <trkpt lat="45.00615" lon="6.12407">
        <ele>1653</ele>
        <time>2022-12-29T12:13:43Z</time>
      </trkpt>
      <trkpt lat="45.00613" lon="6.12408">
        <ele>1653</ele>
        <time>2022-12-29T12:13:44Z</time>
      </trkpt>
      <trkpt lat="45.00612" lon="6.12409">
        <ele>1653</ele>
        <time>2022-12-29T12:13:45Z</time>
      </trkpt>
      <trkpt lat="45.00611" lon="6.1241">
        <ele>1653.6</ele>
        <time>2022-12-29T12:13:46Z</time>
      </trkpt>
      <trkpt lat="45.00609" lon="6.12412">
        <ele>1653.6</ele>
        <time>2022-12-29T12:13:47Z</time>
      </trkpt>
      <trkpt lat="45.00608" lon="6.12413">
        <ele>1653.6</ele>
        <time>2022-12-29T12:13:48Z</time>
      </trkpt>
      <trkpt lat="45.00607" lon="6.12413">
        <ele>1653.6</ele>
        <time>2022-12-29T12:13:49Z</time>
      </trkpt>
      <trkpt lat="45.00605" lon="6.12414">
        <ele>1653.6</ele>
        <time>2022-12-29T12:13:50Z</time>
      </trkpt>
      <trkpt lat="45.00604" lon="6.12415">
        <ele>1653.6</ele>
        <time>2022-12-29T12:13:51Z</time>
      </trkpt>
      <trkpt lat="45.00603" lon="6.12416">
        <ele>1653.6</ele>
        <time>2022-12-29T12:13:52Z</time>
      </trkpt>
      <trkpt lat="45.00602" lon="6.12417">
        <ele>1653.6</ele>
        <time>2022-12-29T12:13:53Z</time>
      </trkpt>
      <trkpt lat="45.00601" lon="6.12418">
        <ele>1653.6</ele>
        <time>2022-12-29T12:13:54Z</time>
      </trkpt>
      <trkpt lat="45.006" lon="6.12418">
        <ele>1653.6</ele>
        <time>2022-12-29T12:13:55Z</time>
      </trkpt>
      <trkpt lat="45.00598" lon="6.12419">
        <ele>1653.6</ele>
        <time>2022-12-29T12:13:56Z</time>
      </trkpt>
      <trkpt lat="45.00596" lon="6.12421">
        <ele>1653.6</ele>
        <time>2022-12-29T12:13:57Z</time>
      </trkpt>
      <trkpt lat="45.00596" lon="6.12422">
        <ele>1653.6</ele>
        <time>2022-12-29T12:13:58Z</time>
      </trkpt>
      <trkpt lat="45.00595" lon="6.12423">
        <ele>1653.6</ele>
        <time>2022-12-29T12:13:59Z</time>
      </trkpt>
      <trkpt lat="45.00594" lon="6.12424">
        <ele>1653.6</ele>
        <time>2022-12-29T12:14:00Z</time>
      </trkpt>
      <trkpt lat="45.00593" lon="6.12424">
        <ele>1653.6</ele>
        <time>2022-12-29T12:14:01Z</time>
      </trkpt>
      <trkpt lat="45.00593" lon="6.12425">
        <ele>1653.6</ele>
        <time>2022-12-29T12:14:02Z</time>
      </trkpt>
      <trkpt lat="45.00592" lon="6.12426">
        <ele>1653.6</ele>
        <time>2022-12-29T12:14:03Z</time>
      </trkpt>
      <trkpt lat="45.00591" lon="6.12427">
        <ele>1653.6</ele>
        <time>2022-12-29T12:14:04Z</time>
      </trkpt>
      <trkpt lat="45.00591" lon="6.12428">
        <ele>1653.6</ele>
        <time>2022-12-29T12:14:05Z</time>
      </trkpt>
      <trkpt lat="45.0059" lon="6.12429">
        <ele>1653.8</ele>
        <time>2022-12-29T12:14:06Z</time>
      </trkpt>
      <trkpt lat="45.00587" lon="6.12429">
        <ele>1653.8</ele>
        <time>2022-12-29T12:14:07Z</time>
      </trkpt>
      <trkpt lat="45.00586" lon="6.12429">
        <ele>1653.8</ele>
        <time>2022-12-29T12:14:08Z</time>
      </trkpt>
      <trkpt lat="45.00585" lon="6.1243">
        <ele>1653.8</ele>
        <time>2022-12-29T12:14:09Z</time>
      </trkpt>
      <trkpt lat="45.00584" lon="6.1243">
        <ele>1653.8</ele>
        <time>2022-12-29T12:14:10Z</time>
      </trkpt>
      <trkpt lat="45.00583" lon="6.1243">
        <ele>1653.8</ele>
        <time>2022-12-29T12:14:11Z</time>
      </trkpt>
      <trkpt lat="45.00582" lon="6.1243">
        <ele>1653.8</ele>
        <time>2022-12-29T12:14:12Z</time>
      </trkpt>
      <trkpt lat="45.00581" lon="6.1243">
        <ele>1653.8</ele>
        <time>2022-12-29T12:14:13Z</time>
      </trkpt>
      <trkpt lat="45.0058" lon="6.1243">
        <ele>1653.8</ele>
        <time>2022-12-29T12:14:14Z</time>
      </trkpt>
      <trkpt lat="45.00578" lon="6.1243">
        <ele>1653.8</ele>
        <time>2022-12-29T12:14:15Z</time>
      </trkpt>
      <trkpt lat="45.00577" lon="6.12431">
        <ele>1654.6</ele>
        <time>2022-12-29T12:14:16Z</time>
      </trkpt>
      <trkpt lat="45.00575" lon="6.12431">
        <ele>1654.6</ele>
        <time>2022-12-29T12:14:17Z</time>
      </trkpt>
      <trkpt lat="45.00574" lon="6.12431">
        <ele>1654.6</ele>
        <time>2022-12-29T12:14:18Z</time>
      </trkpt>
      <trkpt lat="45.00573" lon="6.12432">
        <ele>1654.6</ele>
        <time>2022-12-29T12:14:19Z</time>
      </trkpt>
      <trkpt lat="45.00572" lon="6.12432">
        <ele>1654.6</ele>
        <time>2022-12-29T12:14:20Z</time>
      </trkpt>
      <trkpt lat="45.00571" lon="6.12432">
        <ele>1654.6</ele>
        <time>2022-12-29T12:14:21Z</time>
      </trkpt>
      <trkpt lat="45.0057" lon="6.12433">
        <ele>1654.6</ele>
        <time>2022-12-29T12:14:22Z</time>
      </trkpt>
      <trkpt lat="45.00568" lon="6.12433">
        <ele>1654.6</ele>
        <time>2022-12-29T12:14:23Z</time>
      </trkpt>
      <trkpt lat="45.00567" lon="6.12433">
        <ele>1654.6</ele>
        <time>2022-12-29T12:14:24Z</time>
      </trkpt>
      <trkpt lat="45.00566" lon="6.12433">
        <ele>1654.6</ele>
        <time>2022-12-29T12:14:25Z</time>
      </trkpt>
      <trkpt lat="45.00565" lon="6.12434">
        <ele>1654.8</ele>
        <time>2022-12-29T12:14:26Z</time>
      </trkpt>
      <trkpt lat="45.00563" lon="6.12434">
        <ele>1654.8</ele>
        <time>2022-12-29T12:14:27Z</time>
      </trkpt>
      <trkpt lat="45.00562" lon="6.12435">
        <ele>1654.8</ele>
        <time>2022-12-29T12:14:28Z</time>
      </trkpt>
      <trkpt lat="45.00561" lon="6.12435">
        <ele>1654.8</ele>
        <time>2022-12-29T12:14:29Z</time>
      </trkpt>
      <trkpt lat="45.00561" lon="6.12435">
        <ele>1654.8</ele>
        <time>2022-12-29T12:14:30Z</time>
      </trkpt>
      <trkpt lat="45.0056" lon="6.12435">
        <ele>1654.8</ele>
        <time>2022-12-29T12:14:31Z</time>
      </trkpt>
      <trkpt lat="45.00559" lon="6.12436">
        <ele>1654.8</ele>
        <time>2022-12-29T12:14:32Z</time>
      </trkpt>
      <trkpt lat="45.00558" lon="6.12436">
        <ele>1654.8</ele>
        <time>2022-12-29T12:14:33Z</time>
      </trkpt>
      <trkpt lat="45.00557" lon="6.12436">
        <ele>1654.8</ele>
        <time>2022-12-29T12:14:34Z</time>
      </trkpt>
      <trkpt lat="45.00556" lon="6.12436">
        <ele>1654.8</ele>
        <time>2022-12-29T12:14:35Z</time>
      </trkpt>
      <trkpt lat="45.00556" lon="6.12437">
        <ele>1654.6</ele>
        <time>2022-12-29T12:14:36Z</time>
      </trkpt>
      <trkpt lat="45.00555" lon="6.12436">
        <ele>1654.6</ele>
        <time>2022-12-29T12:14:37Z</time>
      </trkpt>
      <trkpt lat="45.00554" lon="6.12436">
        <ele>1654.6</ele>
        <time>2022-12-29T12:14:38Z</time>
      </trkpt>
      <trkpt lat="45.00553" lon="6.12436">
        <ele>1654.6</ele>
        <time>2022-12-29T12:14:39Z</time>
      </trkpt>
      <trkpt lat="45.00552" lon="6.12436">
        <ele>1654.6</ele>
        <time>2022-12-29T12:14:40Z</time>
      </trkpt>
      <trkpt lat="45.00551" lon="6.12436">
        <ele>1654.6</ele>
        <time>2022-12-29T12:14:41Z</time>
      </trkpt>
      <trkpt lat="45.0055" lon="6.12436">
        <ele>1654.6</ele>
        <time>2022-12-29T12:14:42Z</time>
      </trkpt>
      <trkpt lat="45.00549" lon="6.12436">
        <ele>1654.6</ele>
        <time>2022-12-29T12:14:43Z</time>
      </trkpt>
      <trkpt lat="45.00548" lon="6.12436">
        <ele>1654.6</ele>
        <time>2022-12-29T12:14:44Z</time>
      </trkpt>
      <trkpt lat="45.00548" lon="6.12436">
        <ele>1654.6</ele>
        <time>2022-12-29T12:14:45Z</time>
      </trkpt>
      <trkpt lat="45.00547" lon="6.12436">
        <ele>1653.4</ele>
        <time>2022-12-29T12:14:46Z</time>
      </trkpt>
      <trkpt lat="45.00542" lon="6.12432">
        <ele>1653.4</ele>
        <time>2022-12-29T12:14:47Z</time>
      </trkpt>
      <trkpt lat="45.00541" lon="6.12431">
        <ele>1653.4</ele>
        <time>2022-12-29T12:14:48Z</time>
      </trkpt>
      <trkpt lat="45.0054" lon="6.1243">
        <ele>1653.4</ele>
        <time>2022-12-29T12:14:49Z</time>
      </trkpt>
      <trkpt lat="45.00539" lon="6.12429">
        <ele>1653.4</ele>
        <time>2022-12-29T12:14:50Z</time>
      </trkpt>
      <trkpt lat="45.00538" lon="6.12428">
        <ele>1653.4</ele>
        <time>2022-12-29T12:14:51Z</time>
      </trkpt>
      <trkpt lat="45.00536" lon="6.12427">
        <ele>1653.4</ele>
        <time>2022-12-29T12:14:52Z</time>
      </trkpt>
      <trkpt lat="45.00535" lon="6.12426">
        <ele>1653.4</ele>
        <time>2022-12-29T12:14:53Z</time>
      </trkpt>
      <trkpt lat="45.00534" lon="6.12425">
        <ele>1653.4</ele>
        <time>2022-12-29T12:14:54Z</time>
      </trkpt>
      <trkpt lat="45.00533" lon="6.12424">
        <ele>1653.4</ele>
        <time>2022-12-29T12:14:55Z</time>
      </trkpt>
      <trkpt lat="45.00532" lon="6.12423">
        <ele>1653.4</ele>
        <time>2022-12-29T12:14:56Z</time>
      </trkpt>
      <trkpt lat="45.0053" lon="6.12421">
        <ele>1653.4</ele>
        <time>2022-12-29T12:14:57Z</time>
      </trkpt>
      <trkpt lat="45.00528" lon="6.12421">
        <ele>1653.4</ele>
        <time>2022-12-29T12:14:58Z</time>
      </trkpt>
      <trkpt lat="45.00527" lon="6.1242">
        <ele>1653.4</ele>
        <time>2022-12-29T12:14:59Z</time>
      </trkpt>
      <trkpt lat="45.00526" lon="6.12419">
        <ele>1653.4</ele>
        <time>2022-12-29T12:15:00Z</time>
      </trkpt>
      <trkpt lat="45.00525" lon="6.12418">
        <ele>1653.4</ele>
        <time>2022-12-29T12:15:01Z</time>
      </trkpt>
      <trkpt lat="45.00524" lon="6.12418">
        <ele>1653.4</ele>
        <time>2022-12-29T12:15:02Z</time>
      </trkpt>
      <trkpt lat="45.00523" lon="6.12417">
        <ele>1653.4</ele>
        <time>2022-12-29T12:15:03Z</time>
      </trkpt>
      <trkpt lat="45.00522" lon="6.12416">
        <ele>1653.4</ele>
        <time>2022-12-29T12:15:04Z</time>
      </trkpt>
      <trkpt lat="45.00521" lon="6.12416">
        <ele>1653.4</ele>
        <time>2022-12-29T12:15:05Z</time>
      </trkpt>
      <trkpt lat="45.0052" lon="6.12415">
        <ele>1653.4</ele>
        <time>2022-12-29T12:15:06Z</time>
      </trkpt>
      <trkpt lat="45.00518" lon="6.12415">
        <ele>1653.4</ele>
        <time>2022-12-29T12:15:07Z</time>
      </trkpt>
      <trkpt lat="45.00517" lon="6.12414">
        <ele>1653.4</ele>
        <time>2022-12-29T12:15:08Z</time>
      </trkpt>
      <trkpt lat="45.00517" lon="6.12414">
        <ele>1653.4</ele>
        <time>2022-12-29T12:15:09Z</time>
      </trkpt>
      <trkpt lat="45.00516" lon="6.12413">
        <ele>1653.4</ele>
        <time>2022-12-29T12:15:10Z</time>
      </trkpt>
      <trkpt lat="45.00516" lon="6.12413">
        <ele>1653.4</ele>
        <time>2022-12-29T12:15:11Z</time>
      </trkpt>
      <trkpt lat="45.00515" lon="6.12413">
        <ele>1653.4</ele>
        <time>2022-12-29T12:15:12Z</time>
      </trkpt>
      <trkpt lat="45.00515" lon="6.12412">
        <ele>1653.4</ele>
        <time>2022-12-29T12:15:13Z</time>
      </trkpt>
      <trkpt lat="45.00514" lon="6.12412">
        <ele>1653.4</ele>
        <time>2022-12-29T12:15:14Z</time>
      </trkpt>
      <trkpt lat="45.00514" lon="6.12411">
        <ele>1653.4</ele>
        <time>2022-12-29T12:15:15Z</time>
      </trkpt>
      <trkpt lat="45.00513" lon="6.12411">
        <ele>1653.2</ele>
        <time>2022-12-29T12:15:16Z</time>
      </trkpt>
      <trkpt lat="45.0051" lon="6.12411">
        <ele>1653.2</ele>
        <time>2022-12-29T12:15:17Z</time>
      </trkpt>
      <trkpt lat="45.0051" lon="6.12411">
        <ele>1653.2</ele>
        <time>2022-12-29T12:15:18Z</time>
      </trkpt>
      <trkpt lat="45.00509" lon="6.12411">
        <ele>1653.2</ele>
        <time>2022-12-29T12:15:19Z</time>
      </trkpt>
      <trkpt lat="45.00509" lon="6.12411">
        <ele>1653.2</ele>
        <time>2022-12-29T12:15:20Z</time>
      </trkpt>
      <trkpt lat="45.00509" lon="6.12411">
        <ele>1653.2</ele>
        <time>2022-12-29T12:15:21Z</time>
      </trkpt>
      <trkpt lat="45.00508" lon="6.12411">
        <ele>1653.2</ele>
        <time>2022-12-29T12:15:22Z</time>
      </trkpt>
      <trkpt lat="45.00508" lon="6.12411">
        <ele>1653.2</ele>
        <time>2022-12-29T12:15:23Z</time>
      </trkpt>
      <trkpt lat="45.00507" lon="6.12411">
        <ele>1653.2</ele>
        <time>2022-12-29T12:15:24Z</time>
      </trkpt>
      <trkpt lat="45.00507" lon="6.1241">
        <ele>1653.2</ele>
        <time>2022-12-29T12:15:25Z</time>
      </trkpt>
      <trkpt lat="45.00507" lon="6.1241">
        <ele>1653</ele>
        <time>2022-12-29T12:15:26Z</time>
      </trkpt>
      <trkpt lat="45.00507" lon="6.1241">
        <ele>1653</ele>
        <time>2022-12-29T12:15:27Z</time>
      </trkpt>
      <trkpt lat="45.00506" lon="6.1241">
        <ele>1653</ele>
        <time>2022-12-29T12:15:28Z</time>
      </trkpt>
      <trkpt lat="45.00506" lon="6.1241">
        <ele>1653</ele>
        <time>2022-12-29T12:15:29Z</time>
      </trkpt>
      <trkpt lat="45.00506" lon="6.1241">
        <ele>1653</ele>
        <time>2022-12-29T12:15:30Z</time>
      </trkpt>
      <trkpt lat="45.00506" lon="6.1241">
        <ele>1653</ele>
        <time>2022-12-29T12:15:31Z</time>
      </trkpt>
      <trkpt lat="45.00506" lon="6.12409">
        <ele>1653</ele>
        <time>2022-12-29T12:15:32Z</time>
      </trkpt>
      <trkpt lat="45.00506" lon="6.12409">
        <ele>1653</ele>
        <time>2022-12-29T12:15:33Z</time>
      </trkpt>
      <trkpt lat="45.00506" lon="6.12409">
        <ele>1653</ele>
        <time>2022-12-29T12:15:34Z</time>
      </trkpt>
      <trkpt lat="45.00506" lon="6.12409">
        <ele>1653</ele>
        <time>2022-12-29T12:15:35Z</time>
      </trkpt>
      <trkpt lat="45.00506" lon="6.12409">
        <ele>1652.8</ele>
        <time>2022-12-29T12:15:36Z</time>
      </trkpt>
      <trkpt lat="45.00506" lon="6.12409">
        <ele>1652.8</ele>
        <time>2022-12-29T12:15:37Z</time>
      </trkpt>
      <trkpt lat="45.00505" lon="6.12408">
        <ele>1652.8</ele>
        <time>2022-12-29T12:15:38Z</time>
      </trkpt>
      <trkpt lat="45.00505" lon="6.12408">
        <ele>1652.8</ele>
        <time>2022-12-29T12:15:39Z</time>
      </trkpt>
      <trkpt lat="45.00505" lon="6.12408">
        <ele>1652.8</ele>
        <time>2022-12-29T12:15:40Z</time>
      </trkpt>
      <trkpt lat="45.00505" lon="6.12408">
        <ele>1652.8</ele>
        <time>2022-12-29T12:15:41Z</time>
      </trkpt>
      <trkpt lat="45.00505" lon="6.12408">
        <ele>1652.8</ele>
        <time>2022-12-29T12:15:42Z</time>
      </trkpt>
      <trkpt lat="45.00505" lon="6.12408">
        <ele>1652.8</ele>
        <time>2022-12-29T12:15:43Z</time>
      </trkpt>
      <trkpt lat="45.00505" lon="6.12408">
        <ele>1652.8</ele>
        <time>2022-12-29T12:15:44Z</time>
      </trkpt>
      <trkpt lat="45.00505" lon="6.12407">
        <ele>1652.8</ele>
        <time>2022-12-29T12:15:45Z</time>
      </trkpt>
      <trkpt lat="45.00505" lon="6.12407">
        <ele>1653.6</ele>
        <time>2022-12-29T12:15:46Z</time>
      </trkpt>
      <trkpt lat="45.00505" lon="6.12407">
        <ele>1653.6</ele>
        <time>2022-12-29T12:15:47Z</time>
      </trkpt>
      <trkpt lat="45.00505" lon="6.12407">
        <ele>1653.6</ele>
        <time>2022-12-29T12:15:48Z</time>
      </trkpt>
      <trkpt lat="45.00504" lon="6.12407">
        <ele>1653.6</ele>
        <time>2022-12-29T12:15:49Z</time>
      </trkpt>
      <trkpt lat="45.00504" lon="6.12407">
        <ele>1653.6</ele>
        <time>2022-12-29T12:15:50Z</time>
      </trkpt>
      <trkpt lat="45.00504" lon="6.12406">
        <ele>1653.6</ele>
        <time>2022-12-29T12:15:51Z</time>
      </trkpt>
      <trkpt lat="45.00504" lon="6.12406">
        <ele>1653.6</ele>
        <time>2022-12-29T12:15:52Z</time>
      </trkpt>
      <trkpt lat="45.00504" lon="6.12406">
        <ele>1653.6</ele>
        <time>2022-12-29T12:15:53Z</time>
      </trkpt>
      <trkpt lat="45.00504" lon="6.12406">
        <ele>1653.6</ele>
        <time>2022-12-29T12:15:54Z</time>
      </trkpt>
      <trkpt lat="45.00504" lon="6.12406">
        <ele>1653.6</ele>
        <time>2022-12-29T12:15:55Z</time>
      </trkpt>
      <trkpt lat="45.00504" lon="6.12406">
        <ele>1653.2</ele>
        <time>2022-12-29T12:15:56Z</time>
      </trkpt>
      <trkpt lat="45.00504" lon="6.12405">
        <ele>1653.2</ele>
        <time>2022-12-29T12:15:57Z</time>
      </trkpt>
      <trkpt lat="45.00504" lon="6.12405">
        <ele>1653.2</ele>
        <time>2022-12-29T12:15:58Z</time>
      </trkpt>
      <trkpt lat="45.00504" lon="6.12405">
        <ele>1653.2</ele>
        <time>2022-12-29T12:15:59Z</time>
      </trkpt>
      <trkpt lat="45.00503" lon="6.12405">
        <ele>1653.2</ele>
        <time>2022-12-29T12:16:00Z</time>
      </trkpt>
      <trkpt lat="45.00503" lon="6.12405">
        <ele>1653.2</ele>
        <time>2022-12-29T12:16:01Z</time>
      </trkpt>
      <trkpt lat="45.00503" lon="6.12405">
        <ele>1653.2</ele>
        <time>2022-12-29T12:16:02Z</time>
      </trkpt>
      <trkpt lat="45.00503" lon="6.12404">
        <ele>1653.2</ele>
        <time>2022-12-29T12:16:03Z</time>
      </trkpt>
      <trkpt lat="45.00503" lon="6.12404">
        <ele>1653.2</ele>
        <time>2022-12-29T12:16:04Z</time>
      </trkpt>
      <trkpt lat="45.00503" lon="6.12404">
        <ele>1653.2</ele>
        <time>2022-12-29T12:16:05Z</time>
      </trkpt>
      <trkpt lat="45.00503" lon="6.12404">
        <ele>1653.2</ele>
        <time>2022-12-29T12:16:06Z</time>
      </trkpt>
      <trkpt lat="45.00503" lon="6.12404">
        <ele>1653.2</ele>
        <time>2022-12-29T12:16:07Z</time>
      </trkpt>
      <trkpt lat="45.00503" lon="6.12404">
        <ele>1653.2</ele>
        <time>2022-12-29T12:16:08Z</time>
      </trkpt>
      <trkpt lat="45.00503" lon="6.12404">
        <ele>1653.2</ele>
        <time>2022-12-29T12:16:09Z</time>
      </trkpt>
      <trkpt lat="45.00503" lon="6.12403">
        <ele>1653.2</ele>
        <time>2022-12-29T12:16:10Z</time>
      </trkpt>
      <trkpt lat="45.00502" lon="6.12403">
        <ele>1653.2</ele>
        <time>2022-12-29T12:16:11Z</time>
      </trkpt>
      <trkpt lat="45.00502" lon="6.12403">
        <ele>1653.2</ele>
        <time>2022-12-29T12:16:12Z</time>
      </trkpt>
      <trkpt lat="45.00502" lon="6.12403">
        <ele>1653.2</ele>
        <time>2022-12-29T12:16:13Z</time>
      </trkpt>
      <trkpt lat="45.00502" lon="6.12403">
        <ele>1653.2</ele>
        <time>2022-12-29T12:16:14Z</time>
      </trkpt>
      <trkpt lat="45.00502" lon="6.12403">
        <ele>1653.2</ele>
        <time>2022-12-29T12:16:15Z</time>
      </trkpt>
      <trkpt lat="45.00502" lon="6.12402">
        <ele>1653.4</ele>
        <time>2022-12-29T12:16:16Z</time>
      </trkpt>
      <trkpt lat="45.00502" lon="6.12402">
        <ele>1653.4</ele>
        <time>2022-12-29T12:16:17Z</time>
      </trkpt>
      <trkpt lat="45.00502" lon="6.12402">
        <ele>1653.4</ele>
        <time>2022-12-29T12:16:18Z</time>
      </trkpt>
      <trkpt lat="45.00502" lon="6.12402">
        <ele>1653.4</ele>
        <time>2022-12-29T12:16:19Z</time>
      </trkpt>
      <trkpt lat="45.00502" lon="6.12402">
        <ele>1653.4</ele>
        <time>2022-12-29T12:16:20Z</time>
      </trkpt>
      <trkpt lat="45.00502" lon="6.12402">
        <ele>1653.4</ele>
        <time>2022-12-29T12:16:21Z</time>
      </trkpt>
      <trkpt lat="45.00501" lon="6.12401">
        <ele>1653.4</ele>
        <time>2022-12-29T12:16:22Z</time>
      </trkpt>
      <trkpt lat="45.00501" lon="6.12401">
        <ele>1653.4</ele>
        <time>2022-12-29T12:16:23Z</time>
      </trkpt>
      <trkpt lat="45.00501" lon="6.12401">
        <ele>1653.4</ele>
        <time>2022-12-29T12:16:24Z</time>
      </trkpt>
      <trkpt lat="45.00501" lon="6.12401">
        <ele>1653.4</ele>
        <time>2022-12-29T12:16:25Z</time>
      </trkpt>
      <trkpt lat="45.00501" lon="6.12401">
        <ele>1653.4</ele>
        <time>2022-12-29T12:16:26Z</time>
      </trkpt>
      <trkpt lat="45.00501" lon="6.12401">
        <ele>1653.4</ele>
        <time>2022-12-29T12:16:27Z</time>
      </trkpt>
      <trkpt lat="45.00501" lon="6.124">
        <ele>1653.4</ele>
        <time>2022-12-29T12:16:28Z</time>
      </trkpt>
      <trkpt lat="45.00501" lon="6.124">
        <ele>1653.4</ele>
        <time>2022-12-29T12:16:29Z</time>
      </trkpt>
      <trkpt lat="45.00501" lon="6.124">
        <ele>1653.4</ele>
        <time>2022-12-29T12:16:30Z</time>
      </trkpt>
      <trkpt lat="45.00501" lon="6.124">
        <ele>1653.4</ele>
        <time>2022-12-29T12:16:31Z</time>
      </trkpt>
      <trkpt lat="45.005" lon="6.124">
        <ele>1653.4</ele>
        <time>2022-12-29T12:16:32Z</time>
      </trkpt>
      <trkpt lat="45.005" lon="6.124">
        <ele>1653.4</ele>
        <time>2022-12-29T12:16:33Z</time>
      </trkpt>
      <trkpt lat="45.005" lon="6.12399">
        <ele>1653.4</ele>
        <time>2022-12-29T12:16:34Z</time>
      </trkpt>
      <trkpt lat="45.005" lon="6.12399">
        <ele>1653.4</ele>
        <time>2022-12-29T12:16:35Z</time>
      </trkpt>
      <trkpt lat="45.005" lon="6.12399">
        <ele>1653.8</ele>
        <time>2022-12-29T12:16:36Z</time>
      </trkpt>
      <trkpt lat="45.005" lon="6.12399">
        <ele>1653.8</ele>
        <time>2022-12-29T12:16:37Z</time>
      </trkpt>
      <trkpt lat="45.005" lon="6.12399">
        <ele>1653.8</ele>
        <time>2022-12-29T12:16:38Z</time>
      </trkpt>
      <trkpt lat="45.005" lon="6.12399">
        <ele>1653.8</ele>
        <time>2022-12-29T12:16:39Z</time>
      </trkpt>
      <trkpt lat="45.005" lon="6.12399">
        <ele>1653.8</ele>
        <time>2022-12-29T12:16:40Z</time>
      </trkpt>
      <trkpt lat="45.005" lon="6.12398">
        <ele>1653.8</ele>
        <time>2022-12-29T12:16:41Z</time>
      </trkpt>
      <trkpt lat="45.005" lon="6.12398">
        <ele>1653.8</ele>
        <time>2022-12-29T12:16:42Z</time>
      </trkpt>
      <trkpt lat="45.00499" lon="6.12398">
        <ele>1653.8</ele>
        <time>2022-12-29T12:16:43Z</time>
      </trkpt>
      <trkpt lat="45.00499" lon="6.12398">
        <ele>1653.8</ele>
        <time>2022-12-29T12:16:44Z</time>
      </trkpt>
      <trkpt lat="45.00499" lon="6.12398">
        <ele>1653.8</ele>
        <time>2022-12-29T12:16:45Z</time>
      </trkpt>
      <trkpt lat="45.00499" lon="6.12398">
        <ele>1653.4</ele>
        <time>2022-12-29T12:16:46Z</time>
      </trkpt>
      <trkpt lat="45.00499" lon="6.12397">
        <ele>1653.4</ele>
        <time>2022-12-29T12:16:47Z</time>
      </trkpt>
      <trkpt lat="45.00499" lon="6.12397">
        <ele>1653.4</ele>
        <time>2022-12-29T12:16:48Z</time>
      </trkpt>
      <trkpt lat="45.00499" lon="6.12397">
        <ele>1653.4</ele>
        <time>2022-12-29T12:16:49Z</time>
      </trkpt>
      <trkpt lat="45.00499" lon="6.12397">
        <ele>1653.4</ele>
        <time>2022-12-29T12:16:50Z</time>
      </trkpt>
      <trkpt lat="45.00499" lon="6.12397">
        <ele>1653.4</ele>
        <time>2022-12-29T12:16:51Z</time>
      </trkpt>
      <trkpt lat="45.00499" lon="6.12397">
        <ele>1653.4</ele>
        <time>2022-12-29T12:16:52Z</time>
      </trkpt>
      <trkpt lat="45.00499" lon="6.12396">
        <ele>1653.6</ele>
        <time>2022-12-29T12:16:56Z</time>
      </trkpt>
      <trkpt lat="45.00498" lon="6.12396">
        <ele>1653.6</ele>
        <time>2022-12-29T12:16:57Z</time>
      </trkpt>
      <trkpt lat="45.00498" lon="6.12396">
        <ele>1653.6</ele>
        <time>2022-12-29T12:16:58Z</time>
      </trkpt>
      <trkpt lat="45.00498" lon="6.12396">
        <ele>1653.6</ele>
        <time>2022-12-29T12:16:59Z</time>
      </trkpt>
      <trkpt lat="45.00498" lon="6.12396">
        <ele>1653.6</ele>
        <time>2022-12-29T12:17:00Z</time>
      </trkpt>
      <trkpt lat="45.00498" lon="6.12396">
        <ele>1653.6</ele>
        <time>2022-12-29T12:17:01Z</time>
      </trkpt>
      <trkpt lat="45.00498" lon="6.12395">
        <ele>1653.6</ele>
        <time>2022-12-29T12:17:02Z</time>
      </trkpt>
      <trkpt lat="45.00498" lon="6.12395">
        <ele>1653.6</ele>
        <time>2022-12-29T12:17:03Z</time>
      </trkpt>
      <trkpt lat="45.00498" lon="6.12395">
        <ele>1653.6</ele>
        <time>2022-12-29T12:17:04Z</time>
      </trkpt>
      <trkpt lat="45.00498" lon="6.12395">
        <ele>1653.6</ele>
        <time>2022-12-29T12:17:05Z</time>
      </trkpt>
      <trkpt lat="45.00498" lon="6.12395">
        <ele>1653.8</ele>
        <time>2022-12-29T12:17:06Z</time>
      </trkpt>
      <trkpt lat="45.00498" lon="6.12395">
        <ele>1653.8</ele>
        <time>2022-12-29T12:17:07Z</time>
      </trkpt>
      <trkpt lat="45.00497" lon="6.12395">
        <ele>1653.8</ele>
        <time>2022-12-29T12:17:08Z</time>
      </trkpt>
      <trkpt lat="45.00497" lon="6.12394">
        <ele>1653.8</ele>
        <time>2022-12-29T12:17:09Z</time>
      </trkpt>
      <trkpt lat="45.00497" lon="6.12394">
        <ele>1653.8</ele>
        <time>2022-12-29T12:17:10Z</time>
      </trkpt>
      <trkpt lat="45.00497" lon="6.12394">
        <ele>1653.8</ele>
        <time>2022-12-29T12:17:11Z</time>
      </trkpt>
      <trkpt lat="45.00497" lon="6.12394">
        <ele>1653.8</ele>
        <time>2022-12-29T12:17:12Z</time>
      </trkpt>
      <trkpt lat="45.00497" lon="6.12394">
        <ele>1653.8</ele>
        <time>2022-12-29T12:17:13Z</time>
      </trkpt>
      <trkpt lat="45.00497" lon="6.12394">
        <ele>1653.8</ele>
        <time>2022-12-29T12:17:14Z</time>
      </trkpt>
      <trkpt lat="45.00497" lon="6.12393">
        <ele>1653.8</ele>
        <time>2022-12-29T12:17:15Z</time>
      </trkpt>
      <trkpt lat="45.00497" lon="6.12393">
        <ele>1653.2</ele>
        <time>2022-12-29T12:17:16Z</time>
      </trkpt>
      <trkpt lat="45.00495" lon="6.12391">
        <ele>1653.2</ele>
        <time>2022-12-29T12:17:17Z</time>
      </trkpt>
      <trkpt lat="45.00495" lon="6.12389">
        <ele>1653.2</ele>
        <time>2022-12-29T12:17:18Z</time>
      </trkpt>
      <trkpt lat="45.00494" lon="6.12388">
        <ele>1653.2</ele>
        <time>2022-12-29T12:17:19Z</time>
      </trkpt>
      <trkpt lat="45.00494" lon="6.12387">
        <ele>1653.2</ele>
        <time>2022-12-29T12:17:20Z</time>
      </trkpt>
      <trkpt lat="45.00493" lon="6.12386">
        <ele>1653.2</ele>
        <time>2022-12-29T12:17:21Z</time>
      </trkpt>
      <trkpt lat="45.00492" lon="6.12384">
        <ele>1653.2</ele>
        <time>2022-12-29T12:17:23Z</time>
      </trkpt>
      <trkpt lat="45.00492" lon="6.12383">
        <ele>1653.2</ele>
        <time>2022-12-29T12:17:24Z</time>
      </trkpt>
      <trkpt lat="45.00491" lon="6.12382">
        <ele>1653.2</ele>
        <time>2022-12-29T12:17:25Z</time>
      </trkpt>
      <trkpt lat="45.00491" lon="6.12381">
        <ele>1652.8</ele>
        <time>2022-12-29T12:17:26Z</time>
      </trkpt>
      <trkpt lat="45.0049" lon="6.12378">
        <ele>1652.8</ele>
        <time>2022-12-29T12:17:27Z</time>
      </trkpt>
      <trkpt lat="45.00489" lon="6.12377">
        <ele>1652.8</ele>
        <time>2022-12-29T12:17:28Z</time>
      </trkpt>
      <trkpt lat="45.00488" lon="6.12375">
        <ele>1652.8</ele>
        <time>2022-12-29T12:17:29Z</time>
      </trkpt>
      <trkpt lat="45.00488" lon="6.12374">
        <ele>1652.8</ele>
        <time>2022-12-29T12:17:30Z</time>
      </trkpt>
      <trkpt lat="45.00487" lon="6.12372">
        <ele>1652.8</ele>
        <time>2022-12-29T12:17:31Z</time>
      </trkpt>
      <trkpt lat="45.00486" lon="6.12371">
        <ele>1652.8</ele>
        <time>2022-12-29T12:17:32Z</time>
      </trkpt>
      <trkpt lat="45.00485" lon="6.1237">
        <ele>1652.8</ele>
        <time>2022-12-29T12:17:33Z</time>
      </trkpt>
      <trkpt lat="45.00485" lon="6.12368">
        <ele>1652.8</ele>
        <time>2022-12-29T12:17:34Z</time>
      </trkpt>
      <trkpt lat="45.00484" lon="6.12367">
        <ele>1652.8</ele>
        <time>2022-12-29T12:17:35Z</time>
      </trkpt>
      <trkpt lat="45.00483" lon="6.12365">
        <ele>1651.4</ele>
        <time>2022-12-29T12:17:36Z</time>
      </trkpt>
      <trkpt lat="45.00483" lon="6.12362">
        <ele>1651.4</ele>
        <time>2022-12-29T12:17:37Z</time>
      </trkpt>
      <trkpt lat="45.00482" lon="6.1236">
        <ele>1651.4</ele>
        <time>2022-12-29T12:17:38Z</time>
      </trkpt>
      <trkpt lat="45.00482" lon="6.12358">
        <ele>1651.4</ele>
        <time>2022-12-29T12:17:39Z</time>
      </trkpt>
      <trkpt lat="45.00481" lon="6.12356">
        <ele>1651.4</ele>
        <time>2022-12-29T12:17:40Z</time>
      </trkpt>
      <trkpt lat="45.00481" lon="6.12354">
        <ele>1651.4</ele>
        <time>2022-12-29T12:17:41Z</time>
      </trkpt>
      <trkpt lat="45.00481" lon="6.12352">
        <ele>1651.4</ele>
        <time>2022-12-29T12:17:42Z</time>
      </trkpt>
      <trkpt lat="45.0048" lon="6.1235">
        <ele>1651.4</ele>
        <time>2022-12-29T12:17:44Z</time>
      </trkpt>
      <trkpt lat="45.0048" lon="6.12348">
        <ele>1651.4</ele>
        <time>2022-12-29T12:17:45Z</time>
      </trkpt>
      <trkpt lat="45.00479" lon="6.12346">
        <ele>1651</ele>
        <time>2022-12-29T12:17:46Z</time>
      </trkpt>
      <trkpt lat="45.00479" lon="6.12343">
        <ele>1651</ele>
        <time>2022-12-29T12:17:47Z</time>
      </trkpt>
      <trkpt lat="45.00478" lon="6.12343">
        <ele>1651</ele>
        <time>2022-12-29T12:17:48Z</time>
      </trkpt>
      <trkpt lat="45.00477" lon="6.12342">
        <ele>1651</ele>
        <time>2022-12-29T12:17:49Z</time>
      </trkpt>
      <trkpt lat="45.00477" lon="6.12341">
        <ele>1651</ele>
        <time>2022-12-29T12:17:50Z</time>
      </trkpt>
      <trkpt lat="45.00476" lon="6.1234">
        <ele>1651</ele>
        <time>2022-12-29T12:17:51Z</time>
      </trkpt>
      <trkpt lat="45.00475" lon="6.12339">
        <ele>1651</ele>
        <time>2022-12-29T12:17:52Z</time>
      </trkpt>
      <trkpt lat="45.00474" lon="6.12339">
        <ele>1651</ele>
        <time>2022-12-29T12:17:53Z</time>
      </trkpt>
      <trkpt lat="45.00474" lon="6.12338">
        <ele>1651</ele>
        <time>2022-12-29T12:17:54Z</time>
      </trkpt>
      <trkpt lat="45.00473" lon="6.12337">
        <ele>1651</ele>
        <time>2022-12-29T12:17:55Z</time>
      </trkpt>
      <trkpt lat="45.00472" lon="6.12336">
        <ele>1652</ele>
        <time>2022-12-29T12:17:56Z</time>
      </trkpt>
      <trkpt lat="45.0047" lon="6.12336">
        <ele>1652</ele>
        <time>2022-12-29T12:17:57Z</time>
      </trkpt>
      <trkpt lat="45.00469" lon="6.12336">
        <ele>1652</ele>
        <time>2022-12-29T12:17:58Z</time>
      </trkpt>
      <trkpt lat="45.00468" lon="6.12336">
        <ele>1652</ele>
        <time>2022-12-29T12:17:59Z</time>
      </trkpt>
      <trkpt lat="45.00467" lon="6.12336">
        <ele>1652</ele>
        <time>2022-12-29T12:18:00Z</time>
      </trkpt>
      <trkpt lat="45.00466" lon="6.12337">
        <ele>1652</ele>
        <time>2022-12-29T12:18:01Z</time>
      </trkpt>
      <trkpt lat="45.00465" lon="6.12337">
        <ele>1652</ele>
        <time>2022-12-29T12:18:02Z</time>
      </trkpt>
      <trkpt lat="45.00464" lon="6.12337">
        <ele>1652</ele>
        <time>2022-12-29T12:18:03Z</time>
      </trkpt>
      <trkpt lat="45.00463" lon="6.12337">
        <ele>1652</ele>
        <time>2022-12-29T12:18:04Z</time>
      </trkpt>
      <trkpt lat="45.00462" lon="6.12337">
        <ele>1652</ele>
        <time>2022-12-29T12:18:05Z</time>
      </trkpt>
      <trkpt lat="45.00461" lon="6.12337">
        <ele>1651</ele>
        <time>2022-12-29T12:18:06Z</time>
      </trkpt>
      <trkpt lat="45.0046" lon="6.12338">
        <ele>1651</ele>
        <time>2022-12-29T12:18:07Z</time>
      </trkpt>
      <trkpt lat="45.00459" lon="6.12338">
        <ele>1651</ele>
        <time>2022-12-29T12:18:08Z</time>
      </trkpt>
      <trkpt lat="45.00459" lon="6.12339">
        <ele>1651</ele>
        <time>2022-12-29T12:18:09Z</time>
      </trkpt>
      <trkpt lat="45.00459" lon="6.12339">
        <ele>1651</ele>
        <time>2022-12-29T12:18:10Z</time>
      </trkpt>
      <trkpt lat="45.00458" lon="6.1234">
        <ele>1651</ele>
        <time>2022-12-29T12:18:11Z</time>
      </trkpt>
      <trkpt lat="45.00458" lon="6.1234">
        <ele>1651</ele>
        <time>2022-12-29T12:18:12Z</time>
      </trkpt>
      <trkpt lat="45.00457" lon="6.1234">
        <ele>1651</ele>
        <time>2022-12-29T12:18:13Z</time>
      </trkpt>
      <trkpt lat="45.00457" lon="6.12341">
        <ele>1651</ele>
        <time>2022-12-29T12:18:14Z</time>
      </trkpt>
      <trkpt lat="45.00456" lon="6.12341">
        <ele>1651</ele>
        <time>2022-12-29T12:18:15Z</time>
      </trkpt>
      <trkpt lat="45.00456" lon="6.12342">
        <ele>1650.8</ele>
        <time>2022-12-29T12:18:16Z</time>
      </trkpt>
      <trkpt lat="45.00456" lon="6.12343">
        <ele>1650.8</ele>
        <time>2022-12-29T12:18:17Z</time>
      </trkpt>
      <trkpt lat="45.00457" lon="6.12344">
        <ele>1650.8</ele>
        <time>2022-12-29T12:18:18Z</time>
      </trkpt>
      <trkpt lat="45.00457" lon="6.12344">
        <ele>1650.8</ele>
        <time>2022-12-29T12:18:19Z</time>
      </trkpt>
      <trkpt lat="45.00457" lon="6.12345">
        <ele>1650.8</ele>
        <time>2022-12-29T12:18:20Z</time>
      </trkpt>
      <trkpt lat="45.00457" lon="6.12346">
        <ele>1650.8</ele>
        <time>2022-12-29T12:18:21Z</time>
      </trkpt>
      <trkpt lat="45.00458" lon="6.12347">
        <ele>1650.8</ele>
        <time>2022-12-29T12:18:22Z</time>
      </trkpt>
      <trkpt lat="45.00458" lon="6.12348">
        <ele>1650.8</ele>
        <time>2022-12-29T12:18:25Z</time>
      </trkpt>
      <trkpt lat="45.00458" lon="6.12349">
        <ele>1652.2</ele>
        <time>2022-12-29T12:18:26Z</time>
      </trkpt>
      <trkpt lat="45.00458" lon="6.12349">
        <ele>1652.2</ele>
        <time>2022-12-29T12:18:27Z</time>
      </trkpt>
      <trkpt lat="45.00458" lon="6.12349">
        <ele>1652.2</ele>
        <time>2022-12-29T12:18:28Z</time>
      </trkpt>
      <trkpt lat="45.0046" lon="6.12351">
        <ele>1652.2</ele>
        <time>2022-12-29T12:18:29Z</time>
      </trkpt>
      <trkpt lat="45.0046" lon="6.12351">
        <ele>1652.2</ele>
        <time>2022-12-29T12:18:30Z</time>
      </trkpt>
      <trkpt lat="45.0046" lon="6.12351">
        <ele>1652.2</ele>
        <time>2022-12-29T12:18:31Z</time>
      </trkpt>
      <trkpt lat="45.0046" lon="6.12351">
        <ele>1652.2</ele>
        <time>2022-12-29T12:18:32Z</time>
      </trkpt>
      <trkpt lat="45.0046" lon="6.12351">
        <ele>1652.2</ele>
        <time>2022-12-29T12:18:33Z</time>
      </trkpt>
      <trkpt lat="45.0046" lon="6.12351">
        <ele>1652.2</ele>
        <time>2022-12-29T12:18:34Z</time>
      </trkpt>
      <trkpt lat="45.0046" lon="6.12351">
        <ele>1652.2</ele>
        <time>2022-12-29T12:18:35Z</time>
      </trkpt>
      <trkpt lat="45.0046" lon="6.12351">
        <ele>1651.8</ele>
        <time>2022-12-29T12:18:36Z</time>
      </trkpt>
      <trkpt lat="45.0046" lon="6.12351">
        <ele>1651.8</ele>
        <time>2022-12-29T12:18:37Z</time>
      </trkpt>
      <trkpt lat="45.0046" lon="6.12351">
        <ele>1651.8</ele>
        <time>2022-12-29T12:18:38Z</time>
      </trkpt>
      <trkpt lat="45.0046" lon="6.12351">
        <ele>1651.8</ele>
        <time>2022-12-29T12:18:39Z</time>
      </trkpt>
      <trkpt lat="45.0046" lon="6.12351">
        <ele>1651.8</ele>
        <time>2022-12-29T12:18:40Z</time>
      </trkpt>
      <trkpt lat="45.0046" lon="6.12351">
        <ele>1651.8</ele>
        <time>2022-12-29T12:18:41Z</time>
      </trkpt>
      <trkpt lat="45.0046" lon="6.12351">
        <ele>1651.8</ele>
        <time>2022-12-29T12:18:42Z</time>
      </trkpt>
      <trkpt lat="45.0046" lon="6.12351">
        <ele>1651.8</ele>
        <time>2022-12-29T12:18:43Z</time>
      </trkpt>
      <trkpt lat="45.0046" lon="6.12351">
        <ele>1652.8</ele>
        <time>2022-12-29T12:18:46Z</time>
      </trkpt>
      <trkpt lat="45.0046" lon="6.12352">
        <ele>1652.8</ele>
        <time>2022-12-29T12:18:48Z</time>
      </trkpt>
      <trkpt lat="45.0046" lon="6.12352">
        <ele>1652.8</ele>
        <time>2022-12-29T12:18:49Z</time>
      </trkpt>
      <trkpt lat="45.0046" lon="6.12352">
        <ele>1652.8</ele>
        <time>2022-12-29T12:18:50Z</time>
      </trkpt>
      <trkpt lat="45.0046" lon="6.12352">
        <ele>1652.8</ele>
        <time>2022-12-29T12:18:51Z</time>
      </trkpt>
      <trkpt lat="45.0046" lon="6.12352">
        <ele>1652.8</ele>
        <time>2022-12-29T12:18:52Z</time>
      </trkpt>
      <trkpt lat="45.0046" lon="6.12352">
        <ele>1652.8</ele>
        <time>2022-12-29T12:18:53Z</time>
      </trkpt>
      <trkpt lat="45.0046" lon="6.12352">
        <ele>1652.8</ele>
        <time>2022-12-29T12:18:54Z</time>
      </trkpt>
      <trkpt lat="45.0046" lon="6.12352">
        <ele>1652.8</ele>
        <time>2022-12-29T12:18:55Z</time>
      </trkpt>
      <trkpt lat="45.0046" lon="6.12352">
        <ele>1653.2</ele>
        <time>2022-12-29T12:18:56Z</time>
      </trkpt>
      <trkpt lat="45.0046" lon="6.12352">
        <ele>1653.2</ele>
        <time>2022-12-29T12:18:57Z</time>
      </trkpt>
      <trkpt lat="45.0046" lon="6.12352">
        <ele>1653.2</ele>
        <time>2022-12-29T12:18:58Z</time>
      </trkpt>
      <trkpt lat="45.0046" lon="6.12352">
        <ele>1653.2</ele>
        <time>2022-12-29T12:18:59Z</time>
      </trkpt>
      <trkpt lat="45.0046" lon="6.12352">
        <ele>1653.2</ele>
        <time>2022-12-29T12:19:00Z</time>
      </trkpt>
      <trkpt lat="45.0046" lon="6.12352">
        <ele>1653.2</ele>
        <time>2022-12-29T12:19:01Z</time>
      </trkpt>
      <trkpt lat="45.0046" lon="6.12352">
        <ele>1653.2</ele>
        <time>2022-12-29T12:19:04Z</time>
      </trkpt>
      <trkpt lat="45.0046" lon="6.12352">
        <ele>1653.2</ele>
        <time>2022-12-29T12:19:05Z</time>
      </trkpt>
      <trkpt lat="45.0046" lon="6.12352">
        <ele>1653.6</ele>
        <time>2022-12-29T12:19:06Z</time>
      </trkpt>
      <trkpt lat="45.0046" lon="6.12352">
        <ele>1653.6</ele>
        <time>2022-12-29T12:19:07Z</time>
      </trkpt>
      <trkpt lat="45.0046" lon="6.12352">
        <ele>1653.6</ele>
        <time>2022-12-29T12:19:08Z</time>
      </trkpt>
      <trkpt lat="45.0046" lon="6.12352">
        <ele>1653.6</ele>
        <time>2022-12-29T12:19:09Z</time>
      </trkpt>
      <trkpt lat="45.0046" lon="6.12353">
        <ele>1653.6</ele>
        <time>2022-12-29T12:19:10Z</time>
      </trkpt>
      <trkpt lat="45.0046" lon="6.12353">
        <ele>1653.6</ele>
        <time>2022-12-29T12:19:11Z</time>
      </trkpt>
      <trkpt lat="45.0046" lon="6.12353">
        <ele>1653.6</ele>
        <time>2022-12-29T12:19:12Z</time>
      </trkpt>
      <trkpt lat="45.0046" lon="6.12353">
        <ele>1653.6</ele>
        <time>2022-12-29T12:19:13Z</time>
      </trkpt>
      <trkpt lat="45.0046" lon="6.12353">
        <ele>1653.6</ele>
        <time>2022-12-29T12:19:14Z</time>
      </trkpt>
      <trkpt lat="45.0046" lon="6.12353">
        <ele>1653.6</ele>
        <time>2022-12-29T12:19:15Z</time>
      </trkpt>
      <trkpt lat="45.0046" lon="6.12353">
        <ele>1653</ele>
        <time>2022-12-29T12:19:16Z</time>
      </trkpt>
      <trkpt lat="45.0046" lon="6.12353">
        <ele>1653</ele>
        <time>2022-12-29T12:19:17Z</time>
      </trkpt>
      <trkpt lat="45.00461" lon="6.12353">
        <ele>1653</ele>
        <time>2022-12-29T12:19:18Z</time>
      </trkpt>
      <trkpt lat="45.00461" lon="6.12353">
        <ele>1653</ele>
        <time>2022-12-29T12:19:19Z</time>
      </trkpt>
      <trkpt lat="45.00461" lon="6.12353">
        <ele>1653</ele>
        <time>2022-12-29T12:19:20Z</time>
      </trkpt>
      <trkpt lat="45.00461" lon="6.12353">
        <ele>1653</ele>
        <time>2022-12-29T12:19:21Z</time>
      </trkpt>
      <trkpt lat="45.00461" lon="6.12353">
        <ele>1653</ele>
        <time>2022-12-29T12:19:22Z</time>
      </trkpt>
      <trkpt lat="45.00461" lon="6.12353">
        <ele>1653</ele>
        <time>2022-12-29T12:19:23Z</time>
      </trkpt>
      <trkpt lat="45.00461" lon="6.12353">
        <ele>1653</ele>
        <time>2022-12-29T12:19:24Z</time>
      </trkpt>
      <trkpt lat="45.00461" lon="6.12353">
        <ele>1653</ele>
        <time>2022-12-29T12:19:25Z</time>
      </trkpt>
      <trkpt lat="45.00461" lon="6.12353">
        <ele>1653</ele>
        <time>2022-12-29T12:19:26Z</time>
      </trkpt>
      <trkpt lat="45.00461" lon="6.12353">
        <ele>1653</ele>
        <time>2022-12-29T12:19:27Z</time>
      </trkpt>
      <trkpt lat="45.00461" lon="6.12353">
        <ele>1653</ele>
        <time>2022-12-29T12:19:28Z</time>
      </trkpt>
      <trkpt lat="45.00461" lon="6.12354">
        <ele>1653</ele>
        <time>2022-12-29T12:19:29Z</time>
      </trkpt>
      <trkpt lat="45.00461" lon="6.12354">
        <ele>1653</ele>
        <time>2022-12-29T12:19:30Z</time>
      </trkpt>
      <trkpt lat="45.00461" lon="6.12354">
        <ele>1653</ele>
        <time>2022-12-29T12:19:31Z</time>
      </trkpt>
      <trkpt lat="45.00461" lon="6.12354">
        <ele>1653</ele>
        <time>2022-12-29T12:19:32Z</time>
      </trkpt>
      <trkpt lat="45.00461" lon="6.12354">
        <ele>1653</ele>
        <time>2022-12-29T12:19:33Z</time>
      </trkpt>
      <trkpt lat="45.00461" lon="6.12354">
        <ele>1653</ele>
        <time>2022-12-29T12:19:34Z</time>
      </trkpt>
      <trkpt lat="45.00461" lon="6.12354">
        <ele>1653</ele>
        <time>2022-12-29T12:19:35Z</time>
      </trkpt>
      <trkpt lat="45.00461" lon="6.12354">
        <ele>1652.6</ele>
        <time>2022-12-29T12:19:36Z</time>
      </trkpt>
      <trkpt lat="45.00461" lon="6.12354">
        <ele>1652.6</ele>
        <time>2022-12-29T12:19:37Z</time>
      </trkpt>
      <trkpt lat="45.00461" lon="6.12354">
        <ele>1652.6</ele>
        <time>2022-12-29T12:19:38Z</time>
      </trkpt>
      <trkpt lat="45.00461" lon="6.12354">
        <ele>1652.6</ele>
        <time>2022-12-29T12:19:39Z</time>
      </trkpt>
      <trkpt lat="45.00461" lon="6.12354">
        <ele>1652.6</ele>
        <time>2022-12-29T12:19:40Z</time>
      </trkpt>
      <trkpt lat="45.00461" lon="6.12354">
        <ele>1652.6</ele>
        <time>2022-12-29T12:19:41Z</time>
      </trkpt>
      <trkpt lat="45.00461" lon="6.12354">
        <ele>1652.6</ele>
        <time>2022-12-29T12:19:42Z</time>
      </trkpt>
      <trkpt lat="45.00461" lon="6.12354">
        <ele>1652.6</ele>
        <time>2022-12-29T12:19:43Z</time>
      </trkpt>
      <trkpt lat="45.00461" lon="6.12354">
        <ele>1653</ele>
        <time>2022-12-29T12:19:46Z</time>
      </trkpt>
      <trkpt lat="45.00461" lon="6.12354">
        <ele>1653</ele>
        <time>2022-12-29T12:19:48Z</time>
      </trkpt>
      <trkpt lat="45.00461" lon="6.12354">
        <ele>1653</ele>
        <time>2022-12-29T12:19:49Z</time>
      </trkpt>
      <trkpt lat="45.00461" lon="6.12354">
        <ele>1653</ele>
        <time>2022-12-29T12:19:50Z</time>
      </trkpt>
      <trkpt lat="45.00461" lon="6.12354">
        <ele>1653</ele>
        <time>2022-12-29T12:19:51Z</time>
      </trkpt>
      <trkpt lat="45.00461" lon="6.12355">
        <ele>1653</ele>
        <time>2022-12-29T12:19:52Z</time>
      </trkpt>
      <trkpt lat="45.00461" lon="6.12355">
        <ele>1653</ele>
        <time>2022-12-29T12:19:53Z</time>
      </trkpt>
      <trkpt lat="45.00461" lon="6.12355">
        <ele>1653</ele>
        <time>2022-12-29T12:19:54Z</time>
      </trkpt>
      <trkpt lat="45.00461" lon="6.12355">
        <ele>1653</ele>
        <time>2022-12-29T12:19:55Z</time>
      </trkpt>
      <trkpt lat="45.00461" lon="6.12355">
        <ele>1653.6</ele>
        <time>2022-12-29T12:19:56Z</time>
      </trkpt>
      <trkpt lat="45.00461" lon="6.12355">
        <ele>1653.6</ele>
        <time>2022-12-29T12:20:00Z</time>
      </trkpt>
      <trkpt lat="45.00461" lon="6.12355">
        <ele>1653.6</ele>
        <time>2022-12-29T12:20:01Z</time>
      </trkpt>
      <trkpt lat="45.00461" lon="6.12355">
        <ele>1653.6</ele>
        <time>2022-12-29T12:20:02Z</time>
      </trkpt>
      <trkpt lat="45.00462" lon="6.12355">
        <ele>1653.6</ele>
        <time>2022-12-29T12:20:03Z</time>
      </trkpt>
      <trkpt lat="45.00462" lon="6.12355">
        <ele>1653.6</ele>
        <time>2022-12-29T12:20:04Z</time>
      </trkpt>
      <trkpt lat="45.00462" lon="6.12355">
        <ele>1653.6</ele>
        <time>2022-12-29T12:20:05Z</time>
      </trkpt>
      <trkpt lat="45.00462" lon="6.12355">
        <ele>1652.6</ele>
        <time>2022-12-29T12:20:06Z</time>
      </trkpt>
      <trkpt lat="45.00462" lon="6.12355">
        <ele>1652.6</ele>
        <time>2022-12-29T12:20:07Z</time>
      </trkpt>
      <trkpt lat="45.00462" lon="6.12355">
        <ele>1652.6</ele>
        <time>2022-12-29T12:20:08Z</time>
      </trkpt>
      <trkpt lat="45.00462" lon="6.12355">
        <ele>1652.6</ele>
        <time>2022-12-29T12:20:09Z</time>
      </trkpt>
      <trkpt lat="45.00462" lon="6.12355">
        <ele>1652.6</ele>
        <time>2022-12-29T12:20:10Z</time>
      </trkpt>
      <trkpt lat="45.00462" lon="6.12355">
        <ele>1652.6</ele>
        <time>2022-12-29T12:20:11Z</time>
      </trkpt>
      <trkpt lat="45.00462" lon="6.12355">
        <ele>1652.6</ele>
        <time>2022-12-29T12:20:12Z</time>
      </trkpt>
      <trkpt lat="45.00462" lon="6.12355">
        <ele>1652.6</ele>
        <time>2022-12-29T12:20:13Z</time>
      </trkpt>
      <trkpt lat="45.00462" lon="6.12356">
        <ele>1652.6</ele>
        <time>2022-12-29T12:20:14Z</time>
      </trkpt>
      <trkpt lat="45.00462" lon="6.12356">
        <ele>1652.6</ele>
        <time>2022-12-29T12:20:15Z</time>
      </trkpt>
      <trkpt lat="45.00462" lon="6.12356">
        <ele>1653.8</ele>
        <time>2022-12-29T12:20:16Z</time>
      </trkpt>
      <trkpt lat="45.00462" lon="6.12356">
        <ele>1653.8</ele>
        <time>2022-12-29T12:20:17Z</time>
      </trkpt>
      <trkpt lat="45.00462" lon="6.12356">
        <ele>1653.8</ele>
        <time>2022-12-29T12:20:18Z</time>
      </trkpt>
      <trkpt lat="45.00462" lon="6.12356">
        <ele>1653.8</ele>
        <time>2022-12-29T12:20:19Z</time>
      </trkpt>
      <trkpt lat="45.00462" lon="6.12356">
        <ele>1653.8</ele>
        <time>2022-12-29T12:20:20Z</time>
      </trkpt>
      <trkpt lat="45.00462" lon="6.12356">
        <ele>1653.8</ele>
        <time>2022-12-29T12:20:21Z</time>
      </trkpt>
      <trkpt lat="45.00462" lon="6.12356">
        <ele>1653.8</ele>
        <time>2022-12-29T12:20:22Z</time>
      </trkpt>
      <trkpt lat="45.00462" lon="6.12356">
        <ele>1653.8</ele>
        <time>2022-12-29T12:20:23Z</time>
      </trkpt>
      <trkpt lat="45.00462" lon="6.12356">
        <ele>1653.8</ele>
        <time>2022-12-29T12:20:24Z</time>
      </trkpt>
      <trkpt lat="45.00462" lon="6.12356">
        <ele>1653.8</ele>
        <time>2022-12-29T12:20:25Z</time>
      </trkpt>
      <trkpt lat="45.00462" lon="6.12356">
        <ele>1652.8</ele>
        <time>2022-12-29T12:20:26Z</time>
      </trkpt>
      <trkpt lat="45.00462" lon="6.12356">
        <ele>1652.8</ele>
        <time>2022-12-29T12:20:27Z</time>
      </trkpt>
      <trkpt lat="45.00462" lon="6.12356">
        <ele>1652.8</ele>
        <time>2022-12-29T12:20:28Z</time>
      </trkpt>
      <trkpt lat="45.00462" lon="6.12356">
        <ele>1652.8</ele>
        <time>2022-12-29T12:20:29Z</time>
      </trkpt>
      <trkpt lat="45.00462" lon="6.12356">
        <ele>1652.8</ele>
        <time>2022-12-29T12:20:30Z</time>
      </trkpt>
      <trkpt lat="45.00462" lon="6.12356">
        <ele>1652.8</ele>
        <time>2022-12-29T12:20:31Z</time>
      </trkpt>
      <trkpt lat="45.00462" lon="6.12356">
        <ele>1652.8</ele>
        <time>2022-12-29T12:20:32Z</time>
      </trkpt>
      <trkpt lat="45.00462" lon="6.12356">
        <ele>1652.8</ele>
        <time>2022-12-29T12:20:33Z</time>
      </trkpt>
      <trkpt lat="45.00462" lon="6.12357">
        <ele>1653.2</ele>
        <time>2022-12-29T12:20:36Z</time>
      </trkpt>
      <trkpt lat="45.00462" lon="6.12357">
        <ele>1653.2</ele>
        <time>2022-12-29T12:20:37Z</time>
      </trkpt>
      <trkpt lat="45.00462" lon="6.12357">
        <ele>1653.2</ele>
        <time>2022-12-29T12:20:38Z</time>
      </trkpt>
      <trkpt lat="45.00462" lon="6.12357">
        <ele>1653.2</ele>
        <time>2022-12-29T12:20:39Z</time>
      </trkpt>
      <trkpt lat="45.00462" lon="6.12357">
        <ele>1653.2</ele>
        <time>2022-12-29T12:20:40Z</time>
      </trkpt>
      <trkpt lat="45.00462" lon="6.12357">
        <ele>1653.2</ele>
        <time>2022-12-29T12:20:41Z</time>
      </trkpt>
      <trkpt lat="45.00462" lon="6.12357">
        <ele>1653.2</ele>
        <time>2022-12-29T12:20:42Z</time>
      </trkpt>
      <trkpt lat="45.00462" lon="6.12357">
        <ele>1653.2</ele>
        <time>2022-12-29T12:20:43Z</time>
      </trkpt>
      <trkpt lat="45.00462" lon="6.12357">
        <ele>1653.2</ele>
        <time>2022-12-29T12:20:44Z</time>
      </trkpt>
      <trkpt lat="45.00463" lon="6.12357">
        <ele>1653.2</ele>
        <time>2022-12-29T12:20:45Z</time>
      </trkpt>
      <trkpt lat="45.00463" lon="6.12357">
        <ele>1653.2</ele>
        <time>2022-12-29T12:20:46Z</time>
      </trkpt>
      <trkpt lat="45.00463" lon="6.12357">
        <ele>1653.2</ele>
        <time>2022-12-29T12:20:47Z</time>
      </trkpt>
      <trkpt lat="45.00463" lon="6.12357">
        <ele>1653.2</ele>
        <time>2022-12-29T12:20:50Z</time>
      </trkpt>
      <trkpt lat="45.00463" lon="6.12357">
        <ele>1653.2</ele>
        <time>2022-12-29T12:20:51Z</time>
      </trkpt>
      <trkpt lat="45.00463" lon="6.12357">
        <ele>1653.2</ele>
        <time>2022-12-29T12:20:52Z</time>
      </trkpt>
      <trkpt lat="45.00463" lon="6.12357">
        <ele>1653.2</ele>
        <time>2022-12-29T12:20:53Z</time>
      </trkpt>
      <trkpt lat="45.00463" lon="6.12357">
        <ele>1653.2</ele>
        <time>2022-12-29T12:20:54Z</time>
      </trkpt>
      <trkpt lat="45.00463" lon="6.12357">
        <ele>1653.2</ele>
        <time>2022-12-29T12:20:55Z</time>
      </trkpt>
      <trkpt lat="45.00463" lon="6.12357">
        <ele>1653.6</ele>
        <time>2022-12-29T12:20:56Z</time>
      </trkpt>
      <trkpt lat="45.00463" lon="6.12357">
        <ele>1653.6</ele>
        <time>2022-12-29T12:20:57Z</time>
      </trkpt>
      <trkpt lat="45.00463" lon="6.12358">
        <ele>1653.6</ele>
        <time>2022-12-29T12:20:58Z</time>
      </trkpt>
      <trkpt lat="45.00463" lon="6.12358">
        <ele>1653.6</ele>
        <time>2022-12-29T12:20:59Z</time>
      </trkpt>
      <trkpt lat="45.00463" lon="6.12358">
        <ele>1653.6</ele>
        <time>2022-12-29T12:21:00Z</time>
      </trkpt>
      <trkpt lat="45.00463" lon="6.12358">
        <ele>1653.6</ele>
        <time>2022-12-29T12:21:01Z</time>
      </trkpt>
      <trkpt lat="45.00463" lon="6.12358">
        <ele>1653.6</ele>
        <time>2022-12-29T12:21:02Z</time>
      </trkpt>
      <trkpt lat="45.00463" lon="6.12358">
        <ele>1653.6</ele>
        <time>2022-12-29T12:21:03Z</time>
      </trkpt>
      <trkpt lat="45.00463" lon="6.12358">
        <ele>1653.6</ele>
        <time>2022-12-29T12:21:04Z</time>
      </trkpt>
      <trkpt lat="45.00463" lon="6.12358">
        <ele>1653.6</ele>
        <time>2022-12-29T12:21:05Z</time>
      </trkpt>
      <trkpt lat="45.00463" lon="6.12358">
        <ele>1652.6</ele>
        <time>2022-12-29T12:21:06Z</time>
      </trkpt>
      <trkpt lat="45.00463" lon="6.12358">
        <ele>1652.6</ele>
        <time>2022-12-29T12:21:07Z</time>
      </trkpt>
      <trkpt lat="45.00463" lon="6.12358">
        <ele>1652.6</ele>
        <time>2022-12-29T12:21:08Z</time>
      </trkpt>
      <trkpt lat="45.00463" lon="6.12358">
        <ele>1652.6</ele>
        <time>2022-12-29T12:21:09Z</time>
      </trkpt>
      <trkpt lat="45.00463" lon="6.12358">
        <ele>1652.6</ele>
        <time>2022-12-29T12:21:10Z</time>
      </trkpt>
      <trkpt lat="45.00463" lon="6.12358">
        <ele>1652.6</ele>
        <time>2022-12-29T12:21:11Z</time>
      </trkpt>
      <trkpt lat="45.00463" lon="6.12358">
        <ele>1652.6</ele>
        <time>2022-12-29T12:21:12Z</time>
      </trkpt>
      <trkpt lat="45.00463" lon="6.12358">
        <ele>1652.6</ele>
        <time>2022-12-29T12:21:13Z</time>
      </trkpt>
      <trkpt lat="45.00463" lon="6.12358">
        <ele>1652.6</ele>
        <time>2022-12-29T12:21:14Z</time>
      </trkpt>
      <trkpt lat="45.00463" lon="6.12358">
        <ele>1652.6</ele>
        <time>2022-12-29T12:21:15Z</time>
      </trkpt>
      <trkpt lat="45.00463" lon="6.12358">
        <ele>1652.6</ele>
        <time>2022-12-29T12:21:16Z</time>
      </trkpt>
      <trkpt lat="45.00463" lon="6.12359">
        <ele>1652.6</ele>
        <time>2022-12-29T12:21:17Z</time>
      </trkpt>
      <trkpt lat="45.00463" lon="6.12359">
        <ele>1652.6</ele>
        <time>2022-12-29T12:21:18Z</time>
      </trkpt>
      <trkpt lat="45.00463" lon="6.12359">
        <ele>1652.6</ele>
        <time>2022-12-29T12:21:19Z</time>
      </trkpt>
      <trkpt lat="45.00463" lon="6.12359">
        <ele>1652.6</ele>
        <time>2022-12-29T12:21:20Z</time>
      </trkpt>
      <trkpt lat="45.00463" lon="6.12359">
        <ele>1652.6</ele>
        <time>2022-12-29T12:21:21Z</time>
      </trkpt>
      <trkpt lat="45.00463" lon="6.12359">
        <ele>1652.6</ele>
        <time>2022-12-29T12:21:22Z</time>
      </trkpt>
      <trkpt lat="45.00463" lon="6.12359">
        <ele>1652.6</ele>
        <time>2022-12-29T12:21:23Z</time>
      </trkpt>
      <trkpt lat="45.00463" lon="6.12359">
        <ele>1652.6</ele>
        <time>2022-12-29T12:21:24Z</time>
      </trkpt>
      <trkpt lat="45.00463" lon="6.12359">
        <ele>1652.6</ele>
        <time>2022-12-29T12:21:25Z</time>
      </trkpt>
      <trkpt lat="45.00464" lon="6.12359">
        <ele>1652.4</ele>
        <time>2022-12-29T12:21:26Z</time>
      </trkpt>
      <trkpt lat="45.00464" lon="6.12359">
        <ele>1652.4</ele>
        <time>2022-12-29T12:21:27Z</time>
      </trkpt>
      <trkpt lat="45.00464" lon="6.12359">
        <ele>1652.4</ele>
        <time>2022-12-29T12:21:28Z</time>
      </trkpt>
      <trkpt lat="45.00464" lon="6.12359">
        <ele>1652.4</ele>
        <time>2022-12-29T12:21:29Z</time>
      </trkpt>
      <trkpt lat="45.00464" lon="6.12359">
        <ele>1652.4</ele>
        <time>2022-12-29T12:21:30Z</time>
      </trkpt>
      <trkpt lat="45.00464" lon="6.12359">
        <ele>1652.4</ele>
        <time>2022-12-29T12:21:31Z</time>
      </trkpt>
      <trkpt lat="45.00464" lon="6.12359">
        <ele>1652.4</ele>
        <time>2022-12-29T12:21:32Z</time>
      </trkpt>
      <trkpt lat="45.00464" lon="6.12359">
        <ele>1652.4</ele>
        <time>2022-12-29T12:21:33Z</time>
      </trkpt>
      <trkpt lat="45.00464" lon="6.12359">
        <ele>1652.4</ele>
        <time>2022-12-29T12:21:34Z</time>
      </trkpt>
      <trkpt lat="45.00464" lon="6.12359">
        <ele>1652.4</ele>
        <time>2022-12-29T12:21:35Z</time>
      </trkpt>
      <trkpt lat="45.00464" lon="6.12359">
        <ele>1653.8</ele>
        <time>2022-12-29T12:21:36Z</time>
      </trkpt>
      <trkpt lat="45.00464" lon="6.1236">
        <ele>1653.8</ele>
        <time>2022-12-29T12:21:37Z</time>
      </trkpt>
      <trkpt lat="45.00464" lon="6.1236">
        <ele>1653.8</ele>
        <time>2022-12-29T12:21:38Z</time>
      </trkpt>
      <trkpt lat="45.00464" lon="6.1236">
        <ele>1653.8</ele>
        <time>2022-12-29T12:21:39Z</time>
      </trkpt>
      <trkpt lat="45.00464" lon="6.1236">
        <ele>1653.8</ele>
        <time>2022-12-29T12:21:40Z</time>
      </trkpt>
      <trkpt lat="45.00464" lon="6.1236">
        <ele>1653.8</ele>
        <time>2022-12-29T12:21:41Z</time>
      </trkpt>
      <trkpt lat="45.00464" lon="6.1236">
        <ele>1653.8</ele>
        <time>2022-12-29T12:21:42Z</time>
      </trkpt>
      <trkpt lat="45.00464" lon="6.1236">
        <ele>1653.8</ele>
        <time>2022-12-29T12:21:43Z</time>
      </trkpt>
      <trkpt lat="45.00464" lon="6.1236">
        <ele>1653.8</ele>
        <time>2022-12-29T12:21:44Z</time>
      </trkpt>
      <trkpt lat="45.00464" lon="6.1236">
        <ele>1653.8</ele>
        <time>2022-12-29T12:21:45Z</time>
      </trkpt>
      <trkpt lat="45.00464" lon="6.1236">
        <ele>1653.8</ele>
        <time>2022-12-29T12:21:46Z</time>
      </trkpt>
      <trkpt lat="45.00464" lon="6.1236">
        <ele>1653.8</ele>
        <time>2022-12-29T12:21:47Z</time>
      </trkpt>
      <trkpt lat="45.00464" lon="6.1236">
        <ele>1653.8</ele>
        <time>2022-12-29T12:21:48Z</time>
      </trkpt>
      <trkpt lat="45.00464" lon="6.1236">
        <ele>1653.8</ele>
        <time>2022-12-29T12:21:49Z</time>
      </trkpt>
      <trkpt lat="45.00464" lon="6.1236">
        <ele>1653.8</ele>
        <time>2022-12-29T12:21:50Z</time>
      </trkpt>
      <trkpt lat="45.00464" lon="6.1236">
        <ele>1653.8</ele>
        <time>2022-12-29T12:21:51Z</time>
      </trkpt>
      <trkpt lat="45.00464" lon="6.1236">
        <ele>1653.8</ele>
        <time>2022-12-29T12:21:52Z</time>
      </trkpt>
      <trkpt lat="45.00464" lon="6.1236">
        <ele>1653.8</ele>
        <time>2022-12-29T12:21:53Z</time>
      </trkpt>
      <trkpt lat="45.00464" lon="6.1236">
        <ele>1653.8</ele>
        <time>2022-12-29T12:21:54Z</time>
      </trkpt>
      <trkpt lat="45.00464" lon="6.1236">
        <ele>1653.8</ele>
        <time>2022-12-29T12:21:55Z</time>
      </trkpt>
      <trkpt lat="45.00464" lon="6.12361">
        <ele>1654.2</ele>
        <time>2022-12-29T12:21:56Z</time>
      </trkpt>
      <trkpt lat="45.00464" lon="6.12361">
        <ele>1654.2</ele>
        <time>2022-12-29T12:21:57Z</time>
      </trkpt>
      <trkpt lat="45.00464" lon="6.12361">
        <ele>1654.2</ele>
        <time>2022-12-29T12:21:58Z</time>
      </trkpt>
      <trkpt lat="45.00464" lon="6.12361">
        <ele>1654.2</ele>
        <time>2022-12-29T12:21:59Z</time>
      </trkpt>
      <trkpt lat="45.00464" lon="6.12361">
        <ele>1654.2</ele>
        <time>2022-12-29T12:22:00Z</time>
      </trkpt>
      <trkpt lat="45.00464" lon="6.12361">
        <ele>1654.2</ele>
        <time>2022-12-29T12:22:01Z</time>
      </trkpt>
      <trkpt lat="45.00464" lon="6.12361">
        <ele>1654.2</ele>
        <time>2022-12-29T12:22:02Z</time>
      </trkpt>
      <trkpt lat="45.00464" lon="6.12361">
        <ele>1654.2</ele>
        <time>2022-12-29T12:22:03Z</time>
      </trkpt>
      <trkpt lat="45.00464" lon="6.12361">
        <ele>1654.2</ele>
        <time>2022-12-29T12:22:04Z</time>
      </trkpt>
      <trkpt lat="45.00464" lon="6.12361">
        <ele>1654.2</ele>
        <time>2022-12-29T12:22:05Z</time>
      </trkpt>
      <trkpt lat="45.00465" lon="6.12361">
        <ele>1653.2</ele>
        <time>2022-12-29T12:22:06Z</time>
      </trkpt>
      <trkpt lat="45.00465" lon="6.12361">
        <ele>1653.2</ele>
        <time>2022-12-29T12:22:07Z</time>
      </trkpt>
      <trkpt lat="45.00465" lon="6.12361">
        <ele>1653.2</ele>
        <time>2022-12-29T12:22:08Z</time>
      </trkpt>
      <trkpt lat="45.00465" lon="6.12361">
        <ele>1653.2</ele>
        <time>2022-12-29T12:22:09Z</time>
      </trkpt>
      <trkpt lat="45.00465" lon="6.12361">
        <ele>1653.2</ele>
        <time>2022-12-29T12:22:10Z</time>
      </trkpt>
      <trkpt lat="45.00465" lon="6.12361">
        <ele>1653.2</ele>
        <time>2022-12-29T12:22:11Z</time>
      </trkpt>
      <trkpt lat="45.00465" lon="6.12361">
        <ele>1653.2</ele>
        <time>2022-12-29T12:22:12Z</time>
      </trkpt>
      <trkpt lat="45.00465" lon="6.12361">
        <ele>1653.2</ele>
        <time>2022-12-29T12:22:13Z</time>
      </trkpt>
      <trkpt lat="45.00465" lon="6.12361">
        <ele>1653.2</ele>
        <time>2022-12-29T12:22:14Z</time>
      </trkpt>
      <trkpt lat="45.00465" lon="6.12361">
        <ele>1653.2</ele>
        <time>2022-12-29T12:22:15Z</time>
      </trkpt>
      <trkpt lat="45.00465" lon="6.12362">
        <ele>1653.2</ele>
        <time>2022-12-29T12:22:16Z</time>
      </trkpt>
      <trkpt lat="45.00465" lon="6.12362">
        <ele>1653.2</ele>
        <time>2022-12-29T12:22:17Z</time>
      </trkpt>
      <trkpt lat="45.00465" lon="6.12362">
        <ele>1653.2</ele>
        <time>2022-12-29T12:22:18Z</time>
      </trkpt>
      <trkpt lat="45.00465" lon="6.12362">
        <ele>1653.2</ele>
        <time>2022-12-29T12:22:19Z</time>
      </trkpt>
      <trkpt lat="45.00465" lon="6.12362">
        <ele>1653.2</ele>
        <time>2022-12-29T12:22:20Z</time>
      </trkpt>
      <trkpt lat="45.00465" lon="6.12362">
        <ele>1653.2</ele>
        <time>2022-12-29T12:22:21Z</time>
      </trkpt>
      <trkpt lat="45.00465" lon="6.12362">
        <ele>1653.2</ele>
        <time>2022-12-29T12:22:22Z</time>
      </trkpt>
      <trkpt lat="45.00465" lon="6.12362">
        <ele>1653.2</ele>
        <time>2022-12-29T12:22:23Z</time>
      </trkpt>
      <trkpt lat="45.00465" lon="6.12362">
        <ele>1653.2</ele>
        <time>2022-12-29T12:22:24Z</time>
      </trkpt>
      <trkpt lat="45.00465" lon="6.12362">
        <ele>1653.2</ele>
        <time>2022-12-29T12:22:25Z</time>
      </trkpt>
      <trkpt lat="45.00465" lon="6.12362">
        <ele>1653.2</ele>
        <time>2022-12-29T12:22:26Z</time>
      </trkpt>
      <trkpt lat="45.00465" lon="6.12362">
        <ele>1653.2</ele>
        <time>2022-12-29T12:22:27Z</time>
      </trkpt>
      <trkpt lat="45.00465" lon="6.12362">
        <ele>1653.2</ele>
        <time>2022-12-29T12:22:28Z</time>
      </trkpt>
      <trkpt lat="45.00465" lon="6.12362">
        <ele>1653.2</ele>
        <time>2022-12-29T12:22:29Z</time>
      </trkpt>
      <trkpt lat="45.00465" lon="6.12362">
        <ele>1653.2</ele>
        <time>2022-12-29T12:22:30Z</time>
      </trkpt>
      <trkpt lat="45.00465" lon="6.12362">
        <ele>1653.2</ele>
        <time>2022-12-29T12:22:31Z</time>
      </trkpt>
      <trkpt lat="45.00465" lon="6.12362">
        <ele>1653.2</ele>
        <time>2022-12-29T12:22:32Z</time>
      </trkpt>
      <trkpt lat="45.00465" lon="6.12362">
        <ele>1653.2</ele>
        <time>2022-12-29T12:22:35Z</time>
      </trkpt>
      <trkpt lat="45.00465" lon="6.12362">
        <ele>1654.2</ele>
        <time>2022-12-29T12:22:36Z</time>
      </trkpt>
      <trkpt lat="45.00465" lon="6.12363">
        <ele>1654.2</ele>
        <time>2022-12-29T12:22:37Z</time>
      </trkpt>
      <trkpt lat="45.00465" lon="6.12363">
        <ele>1654.2</ele>
        <time>2022-12-29T12:22:38Z</time>
      </trkpt>
      <trkpt lat="45.00465" lon="6.12363">
        <ele>1654.2</ele>
        <time>2022-12-29T12:22:39Z</time>
      </trkpt>
      <trkpt lat="45.00465" lon="6.12363">
        <ele>1654.2</ele>
        <time>2022-12-29T12:22:40Z</time>
      </trkpt>
      <trkpt lat="45.00465" lon="6.12363">
        <ele>1654.2</ele>
        <time>2022-12-29T12:22:41Z</time>
      </trkpt>
      <trkpt lat="45.00465" lon="6.12363">
        <ele>1654.2</ele>
        <time>2022-12-29T12:22:42Z</time>
      </trkpt>
      <trkpt lat="45.00465" lon="6.12363">
        <ele>1654.2</ele>
        <time>2022-12-29T12:22:43Z</time>
      </trkpt>
      <trkpt lat="45.00465" lon="6.12363">
        <ele>1654.2</ele>
        <time>2022-12-29T12:22:44Z</time>
      </trkpt>
      <trkpt lat="45.00465" lon="6.12363">
        <ele>1654.2</ele>
        <time>2022-12-29T12:22:45Z</time>
      </trkpt>
      <trkpt lat="45.00465" lon="6.12363">
        <ele>1654.8</ele>
        <time>2022-12-29T12:22:46Z</time>
      </trkpt>
      <trkpt lat="45.00466" lon="6.12366">
        <ele>1654.8</ele>
        <time>2022-12-29T12:22:47Z</time>
      </trkpt>
      <trkpt lat="45.00466" lon="6.12368">
        <ele>1654.8</ele>
        <time>2022-12-29T12:22:48Z</time>
      </trkpt>
      <trkpt lat="45.00466" lon="6.12369">
        <ele>1654.8</ele>
        <time>2022-12-29T12:22:49Z</time>
      </trkpt>
      <trkpt lat="45.00466" lon="6.12371">
        <ele>1654.8</ele>
        <time>2022-12-29T12:22:50Z</time>
      </trkpt>
      <trkpt lat="45.00466" lon="6.12372">
        <ele>1654.8</ele>
        <time>2022-12-29T12:22:51Z</time>
      </trkpt>
      <trkpt lat="45.00466" lon="6.12374">
        <ele>1654.8</ele>
        <time>2022-12-29T12:22:52Z</time>
      </trkpt>
      <trkpt lat="45.00466" lon="6.12375">
        <ele>1654.8</ele>
        <time>2022-12-29T12:22:53Z</time>
      </trkpt>
      <trkpt lat="45.00466" lon="6.12377">
        <ele>1654.8</ele>
        <time>2022-12-29T12:22:54Z</time>
      </trkpt>
      <trkpt lat="45.00466" lon="6.12378">
        <ele>1654.8</ele>
        <time>2022-12-29T12:22:55Z</time>
      </trkpt>
      <trkpt lat="45.00466" lon="6.1238">
        <ele>1655.2</ele>
        <time>2022-12-29T12:22:56Z</time>
      </trkpt>
      <trkpt lat="45.00465" lon="6.12383">
        <ele>1655.2</ele>
        <time>2022-12-29T12:22:57Z</time>
      </trkpt>
      <trkpt lat="45.00465" lon="6.12384">
        <ele>1655.2</ele>
        <time>2022-12-29T12:22:58Z</time>
      </trkpt>
      <trkpt lat="45.00464" lon="6.12385">
        <ele>1655.2</ele>
        <time>2022-12-29T12:22:59Z</time>
      </trkpt>
      <trkpt lat="45.00464" lon="6.12387">
        <ele>1655.2</ele>
        <time>2022-12-29T12:23:00Z</time>
      </trkpt>
      <trkpt lat="45.00464" lon="6.12388">
        <ele>1655.2</ele>
        <time>2022-12-29T12:23:01Z</time>
      </trkpt>
      <trkpt lat="45.00463" lon="6.12389">
        <ele>1655.2</ele>
        <time>2022-12-29T12:23:02Z</time>
      </trkpt>
      <trkpt lat="45.00463" lon="6.1239">
        <ele>1655.2</ele>
        <time>2022-12-29T12:23:03Z</time>
      </trkpt>
      <trkpt lat="45.00463" lon="6.12392">
        <ele>1655.2</ele>
        <time>2022-12-29T12:23:04Z</time>
      </trkpt>
      <trkpt lat="45.00462" lon="6.12393">
        <ele>1655.2</ele>
        <time>2022-12-29T12:23:05Z</time>
      </trkpt>
      <trkpt lat="45.00462" lon="6.12394">
        <ele>1655.6</ele>
        <time>2022-12-29T12:23:06Z</time>
      </trkpt>
      <trkpt lat="45.00461" lon="6.12397">
        <ele>1655.6</ele>
        <time>2022-12-29T12:23:07Z</time>
      </trkpt>
      <trkpt lat="45.0046" lon="6.12398">
        <ele>1655.6</ele>
        <time>2022-12-29T12:23:08Z</time>
      </trkpt>
      <trkpt lat="45.0046" lon="6.124">
        <ele>1655.6</ele>
        <time>2022-12-29T12:23:09Z</time>
      </trkpt>
      <trkpt lat="45.00459" lon="6.12401">
        <ele>1655.6</ele>
        <time>2022-12-29T12:23:10Z</time>
      </trkpt>
      <trkpt lat="45.00459" lon="6.12402">
        <ele>1655.6</ele>
        <time>2022-12-29T12:23:11Z</time>
      </trkpt>
      <trkpt lat="45.00458" lon="6.12403">
        <ele>1655.6</ele>
        <time>2022-12-29T12:23:12Z</time>
      </trkpt>
      <trkpt lat="45.00458" lon="6.12405">
        <ele>1655.6</ele>
        <time>2022-12-29T12:23:13Z</time>
      </trkpt>
      <trkpt lat="45.00457" lon="6.12406">
        <ele>1655.6</ele>
        <time>2022-12-29T12:23:14Z</time>
      </trkpt>
      <trkpt lat="45.00457" lon="6.12407">
        <ele>1655.6</ele>
        <time>2022-12-29T12:23:15Z</time>
      </trkpt>
      <trkpt lat="45.00456" lon="6.12408">
        <ele>1656.2</ele>
        <time>2022-12-29T12:23:16Z</time>
      </trkpt>
      <trkpt lat="45.00455" lon="6.1241">
        <ele>1656.2</ele>
        <time>2022-12-29T12:23:17Z</time>
      </trkpt>
      <trkpt lat="45.00454" lon="6.12411">
        <ele>1656.2</ele>
        <time>2022-12-29T12:23:18Z</time>
      </trkpt>
      <trkpt lat="45.00453" lon="6.12412">
        <ele>1656.2</ele>
        <time>2022-12-29T12:23:19Z</time>
      </trkpt>
      <trkpt lat="45.00453" lon="6.12412">
        <ele>1656.2</ele>
        <time>2022-12-29T12:23:20Z</time>
      </trkpt>
      <trkpt lat="45.00452" lon="6.12413">
        <ele>1656.2</ele>
        <time>2022-12-29T12:23:21Z</time>
      </trkpt>
      <trkpt lat="45.00452" lon="6.12414">
        <ele>1656.2</ele>
        <time>2022-12-29T12:23:22Z</time>
      </trkpt>
      <trkpt lat="45.00451" lon="6.12414">
        <ele>1656.2</ele>
        <time>2022-12-29T12:23:23Z</time>
      </trkpt>
      <trkpt lat="45.00451" lon="6.12415">
        <ele>1656.2</ele>
        <time>2022-12-29T12:23:24Z</time>
      </trkpt>
      <trkpt lat="45.0045" lon="6.12416">
        <ele>1656.2</ele>
        <time>2022-12-29T12:23:25Z</time>
      </trkpt>
      <trkpt lat="45.0045" lon="6.12416">
        <ele>1656.8</ele>
        <time>2022-12-29T12:23:26Z</time>
      </trkpt>
      <trkpt lat="45.00451" lon="6.1242">
        <ele>1656.8</ele>
        <time>2022-12-29T12:23:27Z</time>
      </trkpt>
      <trkpt lat="45.00451" lon="6.12421">
        <ele>1656.8</ele>
        <time>2022-12-29T12:23:28Z</time>
      </trkpt>
      <trkpt lat="45.00452" lon="6.12422">
        <ele>1656.8</ele>
        <time>2022-12-29T12:23:29Z</time>
      </trkpt>
      <trkpt lat="45.00452" lon="6.12423">
        <ele>1656.8</ele>
        <time>2022-12-29T12:23:30Z</time>
      </trkpt>
      <trkpt lat="45.00453" lon="6.12424">
        <ele>1656.8</ele>
        <time>2022-12-29T12:23:31Z</time>
      </trkpt>
      <trkpt lat="45.00453" lon="6.12425">
        <ele>1656.8</ele>
        <time>2022-12-29T12:23:32Z</time>
      </trkpt>
      <trkpt lat="45.00454" lon="6.12426">
        <ele>1656.8</ele>
        <time>2022-12-29T12:23:33Z</time>
      </trkpt>
      <trkpt lat="45.00454" lon="6.12427">
        <ele>1656.8</ele>
        <time>2022-12-29T12:23:34Z</time>
      </trkpt>
      <trkpt lat="45.00454" lon="6.12428">
        <ele>1656.8</ele>
        <time>2022-12-29T12:23:35Z</time>
      </trkpt>
      <trkpt lat="45.00455" lon="6.12428">
        <ele>1656.8</ele>
        <time>2022-12-29T12:23:36Z</time>
      </trkpt>
      <trkpt lat="45.00456" lon="6.12431">
        <ele>1656.8</ele>
        <time>2022-12-29T12:23:37Z</time>
      </trkpt>
      <trkpt lat="45.00456" lon="6.12432">
        <ele>1656.8</ele>
        <time>2022-12-29T12:23:38Z</time>
      </trkpt>
      <trkpt lat="45.00457" lon="6.12433">
        <ele>1656.8</ele>
        <time>2022-12-29T12:23:39Z</time>
      </trkpt>
      <trkpt lat="45.00457" lon="6.12434">
        <ele>1656.8</ele>
        <time>2022-12-29T12:23:40Z</time>
      </trkpt>
      <trkpt lat="45.00458" lon="6.12434">
        <ele>1656.8</ele>
        <time>2022-12-29T12:23:41Z</time>
      </trkpt>
      <trkpt lat="45.00458" lon="6.12435">
        <ele>1656.8</ele>
        <time>2022-12-29T12:23:42Z</time>
      </trkpt>
      <trkpt lat="45.00459" lon="6.12436">
        <ele>1656.8</ele>
        <time>2022-12-29T12:23:43Z</time>
      </trkpt>
      <trkpt lat="45.00459" lon="6.12437">
        <ele>1656.8</ele>
        <time>2022-12-29T12:23:44Z</time>
      </trkpt>
      <trkpt lat="45.0046" lon="6.12438">
        <ele>1656.8</ele>
        <time>2022-12-29T12:23:45Z</time>
      </trkpt>
      <trkpt lat="45.0046" lon="6.12439">
        <ele>1657.6</ele>
        <time>2022-12-29T12:23:46Z</time>
      </trkpt>
      <trkpt lat="45.0046" lon="6.12439">
        <ele>1657.6</ele>
        <time>2022-12-29T12:23:47Z</time>
      </trkpt>
      <trkpt lat="45.0046" lon="6.1244">
        <ele>1657.6</ele>
        <time>2022-12-29T12:23:48Z</time>
      </trkpt>
      <trkpt lat="45.0046" lon="6.12441">
        <ele>1657.6</ele>
        <time>2022-12-29T12:23:49Z</time>
      </trkpt>
      <trkpt lat="45.00461" lon="6.12442">
        <ele>1657.6</ele>
        <time>2022-12-29T12:23:50Z</time>
      </trkpt>
      <trkpt lat="45.00461" lon="6.12442">
        <ele>1657.6</ele>
        <time>2022-12-29T12:23:51Z</time>
      </trkpt>
      <trkpt lat="45.00461" lon="6.12443">
        <ele>1657.6</ele>
        <time>2022-12-29T12:23:52Z</time>
      </trkpt>
      <trkpt lat="45.00461" lon="6.12444">
        <ele>1657.6</ele>
        <time>2022-12-29T12:23:53Z</time>
      </trkpt>
      <trkpt lat="45.00461" lon="6.12445">
        <ele>1657.6</ele>
        <time>2022-12-29T12:23:54Z</time>
      </trkpt>
      <trkpt lat="45.00461" lon="6.12446">
        <ele>1657.6</ele>
        <time>2022-12-29T12:23:55Z</time>
      </trkpt>
      <trkpt lat="45.00461" lon="6.12446">
        <ele>1658.8</ele>
        <time>2022-12-29T12:23:56Z</time>
      </trkpt>
      <trkpt lat="45.00462" lon="6.12447">
        <ele>1658.8</ele>
        <time>2022-12-29T12:23:57Z</time>
      </trkpt>
      <trkpt lat="45.00463" lon="6.12448">
        <ele>1658.8</ele>
        <time>2022-12-29T12:23:58Z</time>
      </trkpt>
      <trkpt lat="45.00463" lon="6.12449">
        <ele>1658.8</ele>
        <time>2022-12-29T12:23:59Z</time>
      </trkpt>
      <trkpt lat="45.00464" lon="6.12449">
        <ele>1658.8</ele>
        <time>2022-12-29T12:24:00Z</time>
      </trkpt>
      <trkpt lat="45.00465" lon="6.1245">
        <ele>1658.8</ele>
        <time>2022-12-29T12:24:01Z</time>
      </trkpt>
      <trkpt lat="45.00465" lon="6.12451">
        <ele>1658.8</ele>
        <time>2022-12-29T12:24:02Z</time>
      </trkpt>
      <trkpt lat="45.00466" lon="6.12452">
        <ele>1658.8</ele>
        <time>2022-12-29T12:24:03Z</time>
      </trkpt>
      <trkpt lat="45.00467" lon="6.12452">
        <ele>1658.8</ele>
        <time>2022-12-29T12:24:04Z</time>
      </trkpt>
      <trkpt lat="45.00468" lon="6.12453">
        <ele>1658.8</ele>
        <time>2022-12-29T12:24:05Z</time>
      </trkpt>
      <trkpt lat="45.00468" lon="6.12454">
        <ele>1659.2</ele>
        <time>2022-12-29T12:24:06Z</time>
      </trkpt>
      <trkpt lat="45.0047" lon="6.12457">
        <ele>1659.2</ele>
        <time>2022-12-29T12:24:07Z</time>
      </trkpt>
      <trkpt lat="45.00471" lon="6.12457">
        <ele>1659.2</ele>
        <time>2022-12-29T12:24:08Z</time>
      </trkpt>
      <trkpt lat="45.00471" lon="6.12458">
        <ele>1659.2</ele>
        <time>2022-12-29T12:24:09Z</time>
      </trkpt>
      <trkpt lat="45.00472" lon="6.12459">
        <ele>1659.2</ele>
        <time>2022-12-29T12:24:10Z</time>
      </trkpt>
      <trkpt lat="45.00472" lon="6.1246">
        <ele>1659.2</ele>
        <time>2022-12-29T12:24:11Z</time>
      </trkpt>
      <trkpt lat="45.00473" lon="6.12461">
        <ele>1659.2</ele>
        <time>2022-12-29T12:24:12Z</time>
      </trkpt>
      <trkpt lat="45.00473" lon="6.12461">
        <ele>1659.2</ele>
        <time>2022-12-29T12:24:13Z</time>
      </trkpt>
      <trkpt lat="45.00474" lon="6.12462">
        <ele>1659.2</ele>
        <time>2022-12-29T12:24:14Z</time>
      </trkpt>
      <trkpt lat="45.00474" lon="6.12463">
        <ele>1659.2</ele>
        <time>2022-12-29T12:24:15Z</time>
      </trkpt>
      <trkpt lat="45.00475" lon="6.12464">
        <ele>1660.6</ele>
        <time>2022-12-29T12:24:16Z</time>
      </trkpt>
      <trkpt lat="45.00477" lon="6.12466">
        <ele>1660.6</ele>
        <time>2022-12-29T12:24:17Z</time>
      </trkpt>
      <trkpt lat="45.00478" lon="6.12467">
        <ele>1660.6</ele>
        <time>2022-12-29T12:24:18Z</time>
      </trkpt>
      <trkpt lat="45.00478" lon="6.12468">
        <ele>1660.6</ele>
        <time>2022-12-29T12:24:19Z</time>
      </trkpt>
      <trkpt lat="45.00479" lon="6.12469">
        <ele>1660.6</ele>
        <time>2022-12-29T12:24:20Z</time>
      </trkpt>
      <trkpt lat="45.0048" lon="6.1247">
        <ele>1660.6</ele>
        <time>2022-12-29T12:24:21Z</time>
      </trkpt>
      <trkpt lat="45.0048" lon="6.1247">
        <ele>1660.6</ele>
        <time>2022-12-29T12:24:22Z</time>
      </trkpt>
      <trkpt lat="45.00481" lon="6.12471">
        <ele>1660.6</ele>
        <time>2022-12-29T12:24:23Z</time>
      </trkpt>
      <trkpt lat="45.00482" lon="6.12472">
        <ele>1660.6</ele>
        <time>2022-12-29T12:24:24Z</time>
      </trkpt>
      <trkpt lat="45.00482" lon="6.12473">
        <ele>1660.6</ele>
        <time>2022-12-29T12:24:25Z</time>
      </trkpt>
      <trkpt lat="45.00483" lon="6.12474">
        <ele>1661.8</ele>
        <time>2022-12-29T12:24:26Z</time>
      </trkpt>
      <trkpt lat="45.00483" lon="6.12477">
        <ele>1661.8</ele>
        <time>2022-12-29T12:24:27Z</time>
      </trkpt>
      <trkpt lat="45.00482" lon="6.12478">
        <ele>1661.8</ele>
        <time>2022-12-29T12:24:28Z</time>
      </trkpt>
      <trkpt lat="45.00482" lon="6.1248">
        <ele>1661.8</ele>
        <time>2022-12-29T12:24:29Z</time>
      </trkpt>
      <trkpt lat="45.00481" lon="6.12481">
        <ele>1661.8</ele>
        <time>2022-12-29T12:24:30Z</time>
      </trkpt>
      <trkpt lat="45.00481" lon="6.12483">
        <ele>1661.8</ele>
        <time>2022-12-29T12:24:31Z</time>
      </trkpt>
      <trkpt lat="45.0048" lon="6.12484">
        <ele>1661.8</ele>
        <time>2022-12-29T12:24:32Z</time>
      </trkpt>
      <trkpt lat="45.0048" lon="6.12486">
        <ele>1661.8</ele>
        <time>2022-12-29T12:24:33Z</time>
      </trkpt>
      <trkpt lat="45.0048" lon="6.12487">
        <ele>1661.8</ele>
        <time>2022-12-29T12:24:34Z</time>
      </trkpt>
      <trkpt lat="45.00479" lon="6.12488">
        <ele>1661.8</ele>
        <time>2022-12-29T12:24:35Z</time>
      </trkpt>
      <trkpt lat="45.00479" lon="6.1249">
        <ele>1662.2</ele>
        <time>2022-12-29T12:24:36Z</time>
      </trkpt>
      <trkpt lat="45.00477" lon="6.12492">
        <ele>1662.2</ele>
        <time>2022-12-29T12:24:37Z</time>
      </trkpt>
      <trkpt lat="45.00477" lon="6.12494">
        <ele>1662.2</ele>
        <time>2022-12-29T12:24:38Z</time>
      </trkpt>
      <trkpt lat="45.00476" lon="6.12495">
        <ele>1662.2</ele>
        <time>2022-12-29T12:24:39Z</time>
      </trkpt>
      <trkpt lat="45.00475" lon="6.12496">
        <ele>1662.2</ele>
        <time>2022-12-29T12:24:40Z</time>
      </trkpt>
      <trkpt lat="45.00474" lon="6.12497">
        <ele>1662.2</ele>
        <time>2022-12-29T12:24:41Z</time>
      </trkpt>
      <trkpt lat="45.00474" lon="6.12498">
        <ele>1662.2</ele>
        <time>2022-12-29T12:24:42Z</time>
      </trkpt>
      <trkpt lat="45.00473" lon="6.125">
        <ele>1662.2</ele>
        <time>2022-12-29T12:24:43Z</time>
      </trkpt>
      <trkpt lat="45.00472" lon="6.12501">
        <ele>1662.2</ele>
        <time>2022-12-29T12:24:44Z</time>
      </trkpt>
      <trkpt lat="45.00472" lon="6.12502">
        <ele>1662.2</ele>
        <time>2022-12-29T12:24:45Z</time>
      </trkpt>
      <trkpt lat="45.00471" lon="6.12503">
        <ele>1662.6</ele>
        <time>2022-12-29T12:24:46Z</time>
      </trkpt>
      <trkpt lat="45.00469" lon="6.12505">
        <ele>1662.6</ele>
        <time>2022-12-29T12:24:47Z</time>
      </trkpt>
      <trkpt lat="45.00469" lon="6.12507">
        <ele>1662.6</ele>
        <time>2022-12-29T12:24:48Z</time>
      </trkpt>
      <trkpt lat="45.00468" lon="6.12508">
        <ele>1662.6</ele>
        <time>2022-12-29T12:24:49Z</time>
      </trkpt>
      <trkpt lat="45.00467" lon="6.12509">
        <ele>1662.6</ele>
        <time>2022-12-29T12:24:50Z</time>
      </trkpt>
      <trkpt lat="45.00466" lon="6.12511">
        <ele>1662.6</ele>
        <time>2022-12-29T12:24:51Z</time>
      </trkpt>
      <trkpt lat="45.00465" lon="6.12512">
        <ele>1662.6</ele>
        <time>2022-12-29T12:24:52Z</time>
      </trkpt>
      <trkpt lat="45.00465" lon="6.12513">
        <ele>1662.6</ele>
        <time>2022-12-29T12:24:53Z</time>
      </trkpt>
      <trkpt lat="45.00464" lon="6.12514">
        <ele>1662.6</ele>
        <time>2022-12-29T12:24:54Z</time>
      </trkpt>
      <trkpt lat="45.00463" lon="6.12516">
        <ele>1662.6</ele>
        <time>2022-12-29T12:24:55Z</time>
      </trkpt>
      <trkpt lat="45.00462" lon="6.12517">
        <ele>1663.6</ele>
        <time>2022-12-29T12:24:56Z</time>
      </trkpt>
      <trkpt lat="45.0046" lon="6.12519">
        <ele>1663.6</ele>
        <time>2022-12-29T12:24:57Z</time>
      </trkpt>
      <trkpt lat="45.0046" lon="6.1252">
        <ele>1663.6</ele>
        <time>2022-12-29T12:24:58Z</time>
      </trkpt>
      <trkpt lat="45.00459" lon="6.12521">
        <ele>1663.6</ele>
        <time>2022-12-29T12:24:59Z</time>
      </trkpt>
      <trkpt lat="45.00458" lon="6.12522">
        <ele>1663.6</ele>
        <time>2022-12-29T12:25:00Z</time>
      </trkpt>
      <trkpt lat="45.00458" lon="6.12523">
        <ele>1663.6</ele>
        <time>2022-12-29T12:25:01Z</time>
      </trkpt>
      <trkpt lat="45.00457" lon="6.12525">
        <ele>1663.6</ele>
        <time>2022-12-29T12:25:02Z</time>
      </trkpt>
      <trkpt lat="45.00456" lon="6.12526">
        <ele>1663.6</ele>
        <time>2022-12-29T12:25:03Z</time>
      </trkpt>
      <trkpt lat="45.00456" lon="6.12527">
        <ele>1663.6</ele>
        <time>2022-12-29T12:25:04Z</time>
      </trkpt>
      <trkpt lat="45.00455" lon="6.12528">
        <ele>1663.6</ele>
        <time>2022-12-29T12:25:05Z</time>
      </trkpt>
      <trkpt lat="45.00454" lon="6.12529">
        <ele>1664.8</ele>
        <time>2022-12-29T12:25:06Z</time>
      </trkpt>
      <trkpt lat="45.00452" lon="6.12531">
        <ele>1664.8</ele>
        <time>2022-12-29T12:25:07Z</time>
      </trkpt>
      <trkpt lat="45.00452" lon="6.12532">
        <ele>1664.8</ele>
        <time>2022-12-29T12:25:08Z</time>
      </trkpt>
      <trkpt lat="45.00451" lon="6.12533">
        <ele>1664.8</ele>
        <time>2022-12-29T12:25:09Z</time>
      </trkpt>
      <trkpt lat="45.0045" lon="6.12534">
        <ele>1664.8</ele>
        <time>2022-12-29T12:25:10Z</time>
      </trkpt>
      <trkpt lat="45.0045" lon="6.12536">
        <ele>1664.8</ele>
        <time>2022-12-29T12:25:11Z</time>
      </trkpt>
      <trkpt lat="45.00449" lon="6.12537">
        <ele>1664.8</ele>
        <time>2022-12-29T12:25:12Z</time>
      </trkpt>
      <trkpt lat="45.00448" lon="6.12538">
        <ele>1664.8</ele>
        <time>2022-12-29T12:25:13Z</time>
      </trkpt>
      <trkpt lat="45.00447" lon="6.12539">
        <ele>1664.8</ele>
        <time>2022-12-29T12:25:14Z</time>
      </trkpt>
      <trkpt lat="45.00447" lon="6.1254">
        <ele>1664.8</ele>
        <time>2022-12-29T12:25:15Z</time>
      </trkpt>
      <trkpt lat="45.00446" lon="6.12541">
        <ele>1665.6</ele>
        <time>2022-12-29T12:25:16Z</time>
      </trkpt>
      <trkpt lat="45.00445" lon="6.12544">
        <ele>1665.6</ele>
        <time>2022-12-29T12:25:17Z</time>
      </trkpt>
      <trkpt lat="45.00444" lon="6.12545">
        <ele>1665.6</ele>
        <time>2022-12-29T12:25:18Z</time>
      </trkpt>
      <trkpt lat="45.00444" lon="6.12547">
        <ele>1665.6</ele>
        <time>2022-12-29T12:25:19Z</time>
      </trkpt>
      <trkpt lat="45.00444" lon="6.12548">
        <ele>1665.6</ele>
        <time>2022-12-29T12:25:20Z</time>
      </trkpt>
      <trkpt lat="45.00443" lon="6.12549">
        <ele>1665.6</ele>
        <time>2022-12-29T12:25:21Z</time>
      </trkpt>
      <trkpt lat="45.00443" lon="6.12551">
        <ele>1665.6</ele>
        <time>2022-12-29T12:25:22Z</time>
      </trkpt>
      <trkpt lat="45.00442" lon="6.12552">
        <ele>1665.6</ele>
        <time>2022-12-29T12:25:23Z</time>
      </trkpt>
      <trkpt lat="45.00442" lon="6.12553">
        <ele>1665.6</ele>
        <time>2022-12-29T12:25:24Z</time>
      </trkpt>
      <trkpt lat="45.00441" lon="6.12555">
        <ele>1665.6</ele>
        <time>2022-12-29T12:25:25Z</time>
      </trkpt>
      <trkpt lat="45.00441" lon="6.12556">
        <ele>1666.4</ele>
        <time>2022-12-29T12:25:26Z</time>
      </trkpt>
      <trkpt lat="45.0044" lon="6.12558">
        <ele>1666.4</ele>
        <time>2022-12-29T12:25:27Z</time>
      </trkpt>
      <trkpt lat="45.0044" lon="6.12559">
        <ele>1666.4</ele>
        <time>2022-12-29T12:25:28Z</time>
      </trkpt>
      <trkpt lat="45.0044" lon="6.1256">
        <ele>1666.4</ele>
        <time>2022-12-29T12:25:29Z</time>
      </trkpt>
      <trkpt lat="45.0044" lon="6.12561">
        <ele>1666.4</ele>
        <time>2022-12-29T12:25:30Z</time>
      </trkpt>
      <trkpt lat="45.0044" lon="6.12562">
        <ele>1666.4</ele>
        <time>2022-12-29T12:25:31Z</time>
      </trkpt>
      <trkpt lat="45.0044" lon="6.12564">
        <ele>1666.4</ele>
        <time>2022-12-29T12:25:32Z</time>
      </trkpt>
      <trkpt lat="45.00439" lon="6.12565">
        <ele>1666.4</ele>
        <time>2022-12-29T12:25:33Z</time>
      </trkpt>
      <trkpt lat="45.00439" lon="6.12566">
        <ele>1666.4</ele>
        <time>2022-12-29T12:25:34Z</time>
      </trkpt>
      <trkpt lat="45.00439" lon="6.12567">
        <ele>1666.4</ele>
        <time>2022-12-29T12:25:35Z</time>
      </trkpt>
      <trkpt lat="45.00439" lon="6.12568">
        <ele>1667.2</ele>
        <time>2022-12-29T12:25:36Z</time>
      </trkpt>
      <trkpt lat="45.00438" lon="6.1257">
        <ele>1667.2</ele>
        <time>2022-12-29T12:25:37Z</time>
      </trkpt>
      <trkpt lat="45.00438" lon="6.12572">
        <ele>1667.2</ele>
        <time>2022-12-29T12:25:38Z</time>
      </trkpt>
      <trkpt lat="45.00438" lon="6.12573">
        <ele>1667.2</ele>
        <time>2022-12-29T12:25:39Z</time>
      </trkpt>
      <trkpt lat="45.00437" lon="6.12574">
        <ele>1667.2</ele>
        <time>2022-12-29T12:25:40Z</time>
      </trkpt>
      <trkpt lat="45.00437" lon="6.12575">
        <ele>1667.2</ele>
        <time>2022-12-29T12:25:41Z</time>
      </trkpt>
      <trkpt lat="45.00436" lon="6.12576">
        <ele>1667.2</ele>
        <time>2022-12-29T12:25:42Z</time>
      </trkpt>
      <trkpt lat="45.00436" lon="6.12577">
        <ele>1667.2</ele>
        <time>2022-12-29T12:25:43Z</time>
      </trkpt>
      <trkpt lat="45.00436" lon="6.12578">
        <ele>1667.2</ele>
        <time>2022-12-29T12:25:44Z</time>
      </trkpt>
      <trkpt lat="45.00435" lon="6.12579">
        <ele>1667.2</ele>
        <time>2022-12-29T12:25:45Z</time>
      </trkpt>
      <trkpt lat="45.00435" lon="6.12581">
        <ele>1667.8</ele>
        <time>2022-12-29T12:25:46Z</time>
      </trkpt>
      <trkpt lat="45.00433" lon="6.12585">
        <ele>1667.8</ele>
        <time>2022-12-29T12:25:47Z</time>
      </trkpt>
      <trkpt lat="45.00432" lon="6.12586">
        <ele>1667.8</ele>
        <time>2022-12-29T12:25:48Z</time>
      </trkpt>
      <trkpt lat="45.00432" lon="6.12587">
        <ele>1667.8</ele>
        <time>2022-12-29T12:25:49Z</time>
      </trkpt>
      <trkpt lat="45.00431" lon="6.12588">
        <ele>1667.8</ele>
        <time>2022-12-29T12:25:50Z</time>
      </trkpt>
      <trkpt lat="45.00431" lon="6.12589">
        <ele>1667.8</ele>
        <time>2022-12-29T12:25:51Z</time>
      </trkpt>
      <trkpt lat="45.0043" lon="6.1259">
        <ele>1667.8</ele>
        <time>2022-12-29T12:25:52Z</time>
      </trkpt>
      <trkpt lat="45.0043" lon="6.1259">
        <ele>1667.8</ele>
        <time>2022-12-29T12:25:53Z</time>
      </trkpt>
      <trkpt lat="45.00429" lon="6.12591">
        <ele>1667.8</ele>
        <time>2022-12-29T12:25:54Z</time>
      </trkpt>
      <trkpt lat="45.00429" lon="6.12592">
        <ele>1667.8</ele>
        <time>2022-12-29T12:25:55Z</time>
      </trkpt>
      <trkpt lat="45.00428" lon="6.12593">
        <ele>1668.4</ele>
        <time>2022-12-29T12:25:56Z</time>
      </trkpt>
      <trkpt lat="45.00427" lon="6.12595">
        <ele>1668.4</ele>
        <time>2022-12-29T12:25:57Z</time>
      </trkpt>
      <trkpt lat="45.00426" lon="6.12596">
        <ele>1668.4</ele>
        <time>2022-12-29T12:25:58Z</time>
      </trkpt>
      <trkpt lat="45.00426" lon="6.12597">
        <ele>1668.4</ele>
        <time>2022-12-29T12:25:59Z</time>
      </trkpt>
      <trkpt lat="45.00425" lon="6.12599">
        <ele>1668.4</ele>
        <time>2022-12-29T12:26:00Z</time>
      </trkpt>
      <trkpt lat="45.00425" lon="6.126">
        <ele>1668.4</ele>
        <time>2022-12-29T12:26:01Z</time>
      </trkpt>
      <trkpt lat="45.00425" lon="6.12601">
        <ele>1668.4</ele>
        <time>2022-12-29T12:26:02Z</time>
      </trkpt>
      <trkpt lat="45.00424" lon="6.12602">
        <ele>1668.4</ele>
        <time>2022-12-29T12:26:03Z</time>
      </trkpt>
      <trkpt lat="45.00424" lon="6.12603">
        <ele>1668.4</ele>
        <time>2022-12-29T12:26:04Z</time>
      </trkpt>
      <trkpt lat="45.00423" lon="6.12604">
        <ele>1668.4</ele>
        <time>2022-12-29T12:26:05Z</time>
      </trkpt>
      <trkpt lat="45.00423" lon="6.12605">
        <ele>1669</ele>
        <time>2022-12-29T12:26:06Z</time>
      </trkpt>
      <trkpt lat="45.00421" lon="6.12609">
        <ele>1669</ele>
        <time>2022-12-29T12:26:07Z</time>
      </trkpt>
      <trkpt lat="45.0042" lon="6.12609">
        <ele>1669</ele>
        <time>2022-12-29T12:26:08Z</time>
      </trkpt>
      <trkpt lat="45.0042" lon="6.1261">
        <ele>1669</ele>
        <time>2022-12-29T12:26:09Z</time>
      </trkpt>
      <trkpt lat="45.0042" lon="6.12611">
        <ele>1669</ele>
        <time>2022-12-29T12:26:10Z</time>
      </trkpt>
      <trkpt lat="45.00419" lon="6.12612">
        <ele>1669</ele>
        <time>2022-12-29T12:26:11Z</time>
      </trkpt>
      <trkpt lat="45.00419" lon="6.12613">
        <ele>1669</ele>
        <time>2022-12-29T12:26:12Z</time>
      </trkpt>
      <trkpt lat="45.00418" lon="6.12613">
        <ele>1669</ele>
        <time>2022-12-29T12:26:13Z</time>
      </trkpt>
      <trkpt lat="45.00418" lon="6.12614">
        <ele>1669</ele>
        <time>2022-12-29T12:26:14Z</time>
      </trkpt>
      <trkpt lat="45.00417" lon="6.12615">
        <ele>1669</ele>
        <time>2022-12-29T12:26:15Z</time>
      </trkpt>
      <trkpt lat="45.00417" lon="6.12616">
        <ele>1669.8</ele>
        <time>2022-12-29T12:26:16Z</time>
      </trkpt>
      <trkpt lat="45.00415" lon="6.12618">
        <ele>1669.8</ele>
        <time>2022-12-29T12:26:17Z</time>
      </trkpt>
      <trkpt lat="45.00414" lon="6.12618">
        <ele>1669.8</ele>
        <time>2022-12-29T12:26:18Z</time>
      </trkpt>
      <trkpt lat="45.00414" lon="6.12619">
        <ele>1669.8</ele>
        <time>2022-12-29T12:26:19Z</time>
      </trkpt>
      <trkpt lat="45.00413" lon="6.1262">
        <ele>1669.8</ele>
        <time>2022-12-29T12:26:20Z</time>
      </trkpt>
      <trkpt lat="45.00412" lon="6.1262">
        <ele>1669.8</ele>
        <time>2022-12-29T12:26:21Z</time>
      </trkpt>
      <trkpt lat="45.00412" lon="6.12621">
        <ele>1669.8</ele>
        <time>2022-12-29T12:26:22Z</time>
      </trkpt>
      <trkpt lat="45.00411" lon="6.12622">
        <ele>1669.8</ele>
        <time>2022-12-29T12:26:23Z</time>
      </trkpt>
      <trkpt lat="45.0041" lon="6.12622">
        <ele>1669.8</ele>
        <time>2022-12-29T12:26:24Z</time>
      </trkpt>
      <trkpt lat="45.0041" lon="6.12623">
        <ele>1669.8</ele>
        <time>2022-12-29T12:26:25Z</time>
      </trkpt>
      <trkpt lat="45.00409" lon="6.12624">
        <ele>1670.2</ele>
        <time>2022-12-29T12:26:26Z</time>
      </trkpt>
      <trkpt lat="45.00407" lon="6.12626">
        <ele>1670.2</ele>
        <time>2022-12-29T12:26:27Z</time>
      </trkpt>
      <trkpt lat="45.00406" lon="6.12626">
        <ele>1670.2</ele>
        <time>2022-12-29T12:26:28Z</time>
      </trkpt>
      <trkpt lat="45.00406" lon="6.12627">
        <ele>1670.2</ele>
        <time>2022-12-29T12:26:29Z</time>
      </trkpt>
      <trkpt lat="45.00405" lon="6.12628">
        <ele>1670.2</ele>
        <time>2022-12-29T12:26:30Z</time>
      </trkpt>
      <trkpt lat="45.00405" lon="6.12628">
        <ele>1670.2</ele>
        <time>2022-12-29T12:26:31Z</time>
      </trkpt>
      <trkpt lat="45.00404" lon="6.12629">
        <ele>1670.2</ele>
        <time>2022-12-29T12:26:32Z</time>
      </trkpt>
      <trkpt lat="45.00403" lon="6.1263">
        <ele>1670.2</ele>
        <time>2022-12-29T12:26:33Z</time>
      </trkpt>
      <trkpt lat="45.00403" lon="6.1263">
        <ele>1670.2</ele>
        <time>2022-12-29T12:26:34Z</time>
      </trkpt>
      <trkpt lat="45.00402" lon="6.12631">
        <ele>1670.2</ele>
        <time>2022-12-29T12:26:35Z</time>
      </trkpt>
      <trkpt lat="45.00402" lon="6.12632">
        <ele>1670.4</ele>
        <time>2022-12-29T12:26:36Z</time>
      </trkpt>
      <trkpt lat="45.00399" lon="6.12636">
        <ele>1670.4</ele>
        <time>2022-12-29T12:26:37Z</time>
      </trkpt>
      <trkpt lat="45.00399" lon="6.12637">
        <ele>1670.4</ele>
        <time>2022-12-29T12:26:38Z</time>
      </trkpt>
      <trkpt lat="45.00398" lon="6.12637">
        <ele>1670.4</ele>
        <time>2022-12-29T12:26:39Z</time>
      </trkpt>
      <trkpt lat="45.00398" lon="6.12638">
        <ele>1670.4</ele>
        <time>2022-12-29T12:26:40Z</time>
      </trkpt>
      <trkpt lat="45.00397" lon="6.12639">
        <ele>1670.4</ele>
        <time>2022-12-29T12:26:41Z</time>
      </trkpt>
      <trkpt lat="45.00397" lon="6.1264">
        <ele>1670.4</ele>
        <time>2022-12-29T12:26:42Z</time>
      </trkpt>
      <trkpt lat="45.00397" lon="6.12641">
        <ele>1670.4</ele>
        <time>2022-12-29T12:26:43Z</time>
      </trkpt>
      <trkpt lat="45.00396" lon="6.12642">
        <ele>1670.4</ele>
        <time>2022-12-29T12:26:44Z</time>
      </trkpt>
      <trkpt lat="45.00396" lon="6.12643">
        <ele>1670.4</ele>
        <time>2022-12-29T12:26:45Z</time>
      </trkpt>
      <trkpt lat="45.00395" lon="6.12644">
        <ele>1670.8</ele>
        <time>2022-12-29T12:26:46Z</time>
      </trkpt>
      <trkpt lat="45.00395" lon="6.12645">
        <ele>1670.8</ele>
        <time>2022-12-29T12:26:47Z</time>
      </trkpt>
      <trkpt lat="45.00394" lon="6.12646">
        <ele>1670.8</ele>
        <time>2022-12-29T12:26:48Z</time>
      </trkpt>
      <trkpt lat="45.00394" lon="6.12647">
        <ele>1670.8</ele>
        <time>2022-12-29T12:26:49Z</time>
      </trkpt>
      <trkpt lat="45.00393" lon="6.12649">
        <ele>1670.8</ele>
        <time>2022-12-29T12:26:50Z</time>
      </trkpt>
      <trkpt lat="45.00393" lon="6.1265">
        <ele>1670.8</ele>
        <time>2022-12-29T12:26:51Z</time>
      </trkpt>
      <trkpt lat="45.00392" lon="6.12651">
        <ele>1670.8</ele>
        <time>2022-12-29T12:26:52Z</time>
      </trkpt>
      <trkpt lat="45.00391" lon="6.12652">
        <ele>1670.8</ele>
        <time>2022-12-29T12:26:53Z</time>
      </trkpt>
      <trkpt lat="45.00391" lon="6.12653">
        <ele>1670.8</ele>
        <time>2022-12-29T12:26:54Z</time>
      </trkpt>
      <trkpt lat="45.0039" lon="6.12655">
        <ele>1670.8</ele>
        <time>2022-12-29T12:26:55Z</time>
      </trkpt>
      <trkpt lat="45.0039" lon="6.12656">
        <ele>1671.4</ele>
        <time>2022-12-29T12:26:56Z</time>
      </trkpt>
      <trkpt lat="45.00389" lon="6.12657">
        <ele>1671.4</ele>
        <time>2022-12-29T12:26:57Z</time>
      </trkpt>
      <trkpt lat="45.00389" lon="6.12658">
        <ele>1671.4</ele>
        <time>2022-12-29T12:26:58Z</time>
      </trkpt>
      <trkpt lat="45.00388" lon="6.12659">
        <ele>1671.4</ele>
        <time>2022-12-29T12:26:59Z</time>
      </trkpt>
      <trkpt lat="45.00388" lon="6.1266">
        <ele>1671.4</ele>
        <time>2022-12-29T12:27:00Z</time>
      </trkpt>
      <trkpt lat="45.00387" lon="6.12661">
        <ele>1671.4</ele>
        <time>2022-12-29T12:27:01Z</time>
      </trkpt>
      <trkpt lat="45.00386" lon="6.12662">
        <ele>1671.4</ele>
        <time>2022-12-29T12:27:02Z</time>
      </trkpt>
      <trkpt lat="45.00386" lon="6.12663">
        <ele>1671.4</ele>
        <time>2022-12-29T12:27:03Z</time>
      </trkpt>
      <trkpt lat="45.00385" lon="6.12664">
        <ele>1671.4</ele>
        <time>2022-12-29T12:27:04Z</time>
      </trkpt>
      <trkpt lat="45.00385" lon="6.12665">
        <ele>1671.4</ele>
        <time>2022-12-29T12:27:05Z</time>
      </trkpt>
      <trkpt lat="45.00384" lon="6.12666">
        <ele>1671.8</ele>
        <time>2022-12-29T12:27:06Z</time>
      </trkpt>
      <trkpt lat="45.00384" lon="6.12667">
        <ele>1671.8</ele>
        <time>2022-12-29T12:27:07Z</time>
      </trkpt>
      <trkpt lat="45.00383" lon="6.12668">
        <ele>1671.8</ele>
        <time>2022-12-29T12:27:08Z</time>
      </trkpt>
      <trkpt lat="45.00383" lon="6.12669">
        <ele>1671.8</ele>
        <time>2022-12-29T12:27:09Z</time>
      </trkpt>
      <trkpt lat="45.00382" lon="6.1267">
        <ele>1671.8</ele>
        <time>2022-12-29T12:27:10Z</time>
      </trkpt>
      <trkpt lat="45.00382" lon="6.12671">
        <ele>1671.8</ele>
        <time>2022-12-29T12:27:11Z</time>
      </trkpt>
      <trkpt lat="45.00382" lon="6.12672">
        <ele>1671.8</ele>
        <time>2022-12-29T12:27:12Z</time>
      </trkpt>
      <trkpt lat="45.00381" lon="6.12673">
        <ele>1671.8</ele>
        <time>2022-12-29T12:27:13Z</time>
      </trkpt>
      <trkpt lat="45.00381" lon="6.12674">
        <ele>1671.8</ele>
        <time>2022-12-29T12:27:14Z</time>
      </trkpt>
      <trkpt lat="45.0038" lon="6.12675">
        <ele>1671.8</ele>
        <time>2022-12-29T12:27:15Z</time>
      </trkpt>
      <trkpt lat="45.0038" lon="6.12676">
        <ele>1672.8</ele>
        <time>2022-12-29T12:27:16Z</time>
      </trkpt>
      <trkpt lat="45.0038" lon="6.12678">
        <ele>1672.8</ele>
        <time>2022-12-29T12:27:17Z</time>
      </trkpt>
      <trkpt lat="45.00379" lon="6.12679">
        <ele>1672.8</ele>
        <time>2022-12-29T12:27:18Z</time>
      </trkpt>
      <trkpt lat="45.00379" lon="6.1268">
        <ele>1672.8</ele>
        <time>2022-12-29T12:27:19Z</time>
      </trkpt>
      <trkpt lat="45.00379" lon="6.12681">
        <ele>1672.8</ele>
        <time>2022-12-29T12:27:20Z</time>
      </trkpt>
      <trkpt lat="45.00378" lon="6.12683">
        <ele>1672.8</ele>
        <time>2022-12-29T12:27:21Z</time>
      </trkpt>
      <trkpt lat="45.00378" lon="6.12684">
        <ele>1672.8</ele>
        <time>2022-12-29T12:27:22Z</time>
      </trkpt>
      <trkpt lat="45.00378" lon="6.12685">
        <ele>1672.8</ele>
        <time>2022-12-29T12:27:23Z</time>
      </trkpt>
      <trkpt lat="45.00377" lon="6.12686">
        <ele>1672.8</ele>
        <time>2022-12-29T12:27:24Z</time>
      </trkpt>
      <trkpt lat="45.00377" lon="6.12688">
        <ele>1672.8</ele>
        <time>2022-12-29T12:27:25Z</time>
      </trkpt>
      <trkpt lat="45.00377" lon="6.12689">
        <ele>1673.6</ele>
        <time>2022-12-29T12:27:26Z</time>
      </trkpt>
      <trkpt lat="45.00376" lon="6.1269">
        <ele>1673.6</ele>
        <time>2022-12-29T12:27:27Z</time>
      </trkpt>
      <trkpt lat="45.00376" lon="6.12691">
        <ele>1673.6</ele>
        <time>2022-12-29T12:27:28Z</time>
      </trkpt>
      <trkpt lat="45.00376" lon="6.12692">
        <ele>1673.6</ele>
        <time>2022-12-29T12:27:29Z</time>
      </trkpt>
      <trkpt lat="45.00376" lon="6.12694">
        <ele>1673.6</ele>
        <time>2022-12-29T12:27:30Z</time>
      </trkpt>
      <trkpt lat="45.00375" lon="6.12695">
        <ele>1673.6</ele>
        <time>2022-12-29T12:27:31Z</time>
      </trkpt>
      <trkpt lat="45.00375" lon="6.12696">
        <ele>1673.6</ele>
        <time>2022-12-29T12:27:32Z</time>
      </trkpt>
      <trkpt lat="45.00375" lon="6.12697">
        <ele>1673.6</ele>
        <time>2022-12-29T12:27:33Z</time>
      </trkpt>
      <trkpt lat="45.00374" lon="6.12698">
        <ele>1673.6</ele>
        <time>2022-12-29T12:27:34Z</time>
      </trkpt>
      <trkpt lat="45.00374" lon="6.127">
        <ele>1673.6</ele>
        <time>2022-12-29T12:27:35Z</time>
      </trkpt>
      <trkpt lat="45.00374" lon="6.12701">
        <ele>1675</ele>
        <time>2022-12-29T12:27:36Z</time>
      </trkpt>
      <trkpt lat="45.00372" lon="6.12704">
        <ele>1675</ele>
        <time>2022-12-29T12:27:37Z</time>
      </trkpt>
      <trkpt lat="45.00371" lon="6.12705">
        <ele>1675</ele>
        <time>2022-12-29T12:27:38Z</time>
      </trkpt>
      <trkpt lat="45.0037" lon="6.12706">
        <ele>1675</ele>
        <time>2022-12-29T12:27:39Z</time>
      </trkpt>
      <trkpt lat="45.0037" lon="6.12707">
        <ele>1675</ele>
        <time>2022-12-29T12:27:40Z</time>
      </trkpt>
      <trkpt lat="45.00369" lon="6.12707">
        <ele>1675</ele>
        <time>2022-12-29T12:27:41Z</time>
      </trkpt>
      <trkpt lat="45.00368" lon="6.12708">
        <ele>1675</ele>
        <time>2022-12-29T12:27:42Z</time>
      </trkpt>
      <trkpt lat="45.00368" lon="6.12709">
        <ele>1675</ele>
        <time>2022-12-29T12:27:43Z</time>
      </trkpt>
      <trkpt lat="45.00367" lon="6.1271">
        <ele>1675</ele>
        <time>2022-12-29T12:27:44Z</time>
      </trkpt>
      <trkpt lat="45.00366" lon="6.12711">
        <ele>1675</ele>
        <time>2022-12-29T12:27:45Z</time>
      </trkpt>
      <trkpt lat="45.00366" lon="6.12712">
        <ele>1675.2</ele>
        <time>2022-12-29T12:27:46Z</time>
      </trkpt>
      <trkpt lat="45.00365" lon="6.12713">
        <ele>1675.2</ele>
        <time>2022-12-29T12:27:47Z</time>
      </trkpt>
      <trkpt lat="45.00364" lon="6.12714">
        <ele>1675.2</ele>
        <time>2022-12-29T12:27:48Z</time>
      </trkpt>
      <trkpt lat="45.00364" lon="6.12715">
        <ele>1675.2</ele>
        <time>2022-12-29T12:27:49Z</time>
      </trkpt>
      <trkpt lat="45.00363" lon="6.12715">
        <ele>1675.2</ele>
        <time>2022-12-29T12:27:50Z</time>
      </trkpt>
      <trkpt lat="45.00362" lon="6.12716">
        <ele>1675.2</ele>
        <time>2022-12-29T12:27:51Z</time>
      </trkpt>
      <trkpt lat="45.00361" lon="6.12717">
        <ele>1675.2</ele>
        <time>2022-12-29T12:27:52Z</time>
      </trkpt>
      <trkpt lat="45.0036" lon="6.12718">
        <ele>1675.2</ele>
        <time>2022-12-29T12:27:53Z</time>
      </trkpt>
      <trkpt lat="45.0036" lon="6.12719">
        <ele>1675.2</ele>
        <time>2022-12-29T12:27:54Z</time>
      </trkpt>
      <trkpt lat="45.00359" lon="6.1272">
        <ele>1675.2</ele>
        <time>2022-12-29T12:27:55Z</time>
      </trkpt>
      <trkpt lat="45.00358" lon="6.1272">
        <ele>1675.8</ele>
        <time>2022-12-29T12:27:56Z</time>
      </trkpt>
      <trkpt lat="45.00356" lon="6.12723">
        <ele>1675.8</ele>
        <time>2022-12-29T12:27:57Z</time>
      </trkpt>
      <trkpt lat="45.00355" lon="6.12723">
        <ele>1675.8</ele>
        <time>2022-12-29T12:27:58Z</time>
      </trkpt>
      <trkpt lat="45.00355" lon="6.12724">
        <ele>1675.8</ele>
        <time>2022-12-29T12:27:59Z</time>
      </trkpt>
      <trkpt lat="45.00354" lon="6.12724">
        <ele>1675.8</ele>
        <time>2022-12-29T12:28:00Z</time>
      </trkpt>
      <trkpt lat="45.00353" lon="6.12725">
        <ele>1675.8</ele>
        <time>2022-12-29T12:28:01Z</time>
      </trkpt>
      <trkpt lat="45.00353" lon="6.12726">
        <ele>1675.8</ele>
        <time>2022-12-29T12:28:02Z</time>
      </trkpt>
      <trkpt lat="45.00352" lon="6.12726">
        <ele>1675.8</ele>
        <time>2022-12-29T12:28:03Z</time>
      </trkpt>
      <trkpt lat="45.00351" lon="6.12727">
        <ele>1675.8</ele>
        <time>2022-12-29T12:28:04Z</time>
      </trkpt>
      <trkpt lat="45.00351" lon="6.12727">
        <ele>1675.8</ele>
        <time>2022-12-29T12:28:05Z</time>
      </trkpt>
      <trkpt lat="45.0035" lon="6.12728">
        <ele>1676.2</ele>
        <time>2022-12-29T12:28:06Z</time>
      </trkpt>
      <trkpt lat="45.00348" lon="6.12729">
        <ele>1676.2</ele>
        <time>2022-12-29T12:28:07Z</time>
      </trkpt>
      <trkpt lat="45.00348" lon="6.1273">
        <ele>1676.2</ele>
        <time>2022-12-29T12:28:08Z</time>
      </trkpt>
      <trkpt lat="45.00347" lon="6.12731">
        <ele>1676.2</ele>
        <time>2022-12-29T12:28:09Z</time>
      </trkpt>
      <trkpt lat="45.00346" lon="6.12731">
        <ele>1676.2</ele>
        <time>2022-12-29T12:28:10Z</time>
      </trkpt>
      <trkpt lat="45.00345" lon="6.12732">
        <ele>1676.2</ele>
        <time>2022-12-29T12:28:11Z</time>
      </trkpt>
      <trkpt lat="45.00344" lon="6.12733">
        <ele>1676.2</ele>
        <time>2022-12-29T12:28:12Z</time>
      </trkpt>
      <trkpt lat="45.00344" lon="6.12734">
        <ele>1676.2</ele>
        <time>2022-12-29T12:28:13Z</time>
      </trkpt>
      <trkpt lat="45.00343" lon="6.12734">
        <ele>1676.2</ele>
        <time>2022-12-29T12:28:14Z</time>
      </trkpt>
      <trkpt lat="45.00342" lon="6.12735">
        <ele>1676.2</ele>
        <time>2022-12-29T12:28:15Z</time>
      </trkpt>
      <trkpt lat="45.00341" lon="6.12736">
        <ele>1676.8</ele>
        <time>2022-12-29T12:28:16Z</time>
      </trkpt>
      <trkpt lat="45.00339" lon="6.12737">
        <ele>1676.8</ele>
        <time>2022-12-29T12:28:17Z</time>
      </trkpt>
      <trkpt lat="45.00339" lon="6.12738">
        <ele>1676.8</ele>
        <time>2022-12-29T12:28:18Z</time>
      </trkpt>
      <trkpt lat="45.00338" lon="6.12738">
        <ele>1676.8</ele>
        <time>2022-12-29T12:28:19Z</time>
      </trkpt>
      <trkpt lat="45.00337" lon="6.12739">
        <ele>1676.8</ele>
        <time>2022-12-29T12:28:20Z</time>
      </trkpt>
      <trkpt lat="45.00336" lon="6.12739">
        <ele>1676.8</ele>
        <time>2022-12-29T12:28:21Z</time>
      </trkpt>
      <trkpt lat="45.00335" lon="6.1274">
        <ele>1676.8</ele>
        <time>2022-12-29T12:28:22Z</time>
      </trkpt>
      <trkpt lat="45.00334" lon="6.1274">
        <ele>1676.8</ele>
        <time>2022-12-29T12:28:23Z</time>
      </trkpt>
      <trkpt lat="45.00334" lon="6.12741">
        <ele>1676.8</ele>
        <time>2022-12-29T12:28:24Z</time>
      </trkpt>
      <trkpt lat="45.00333" lon="6.12741">
        <ele>1676.8</ele>
        <time>2022-12-29T12:28:25Z</time>
      </trkpt>
      <trkpt lat="45.00332" lon="6.12742">
        <ele>1677.4</ele>
        <time>2022-12-29T12:28:26Z</time>
      </trkpt>
      <trkpt lat="45.00329" lon="6.12743">
        <ele>1677.4</ele>
        <time>2022-12-29T12:28:27Z</time>
      </trkpt>
      <trkpt lat="45.00328" lon="6.12743">
        <ele>1677.4</ele>
        <time>2022-12-29T12:28:28Z</time>
      </trkpt>
      <trkpt lat="45.00327" lon="6.12743">
        <ele>1677.4</ele>
        <time>2022-12-29T12:28:29Z</time>
      </trkpt>
      <trkpt lat="45.00326" lon="6.12743">
        <ele>1677.4</ele>
        <time>2022-12-29T12:28:30Z</time>
      </trkpt>
      <trkpt lat="45.00325" lon="6.12744">
        <ele>1677.4</ele>
        <time>2022-12-29T12:28:31Z</time>
      </trkpt>
      <trkpt lat="45.00324" lon="6.12744">
        <ele>1677.4</ele>
        <time>2022-12-29T12:28:32Z</time>
      </trkpt>
      <trkpt lat="45.00323" lon="6.12744">
        <ele>1677.4</ele>
        <time>2022-12-29T12:28:33Z</time>
      </trkpt>
      <trkpt lat="45.00322" lon="6.12744">
        <ele>1677.4</ele>
        <time>2022-12-29T12:28:34Z</time>
      </trkpt>
      <trkpt lat="45.00321" lon="6.12745">
        <ele>1677.4</ele>
        <time>2022-12-29T12:28:35Z</time>
      </trkpt>
      <trkpt lat="45.0032" lon="6.12745">
        <ele>1677.6</ele>
        <time>2022-12-29T12:28:36Z</time>
      </trkpt>
      <trkpt lat="45.00318" lon="6.12745">
        <ele>1677.6</ele>
        <time>2022-12-29T12:28:37Z</time>
      </trkpt>
      <trkpt lat="45.00317" lon="6.12745">
        <ele>1677.6</ele>
        <time>2022-12-29T12:28:38Z</time>
      </trkpt>
      <trkpt lat="45.00316" lon="6.12745">
        <ele>1677.6</ele>
        <time>2022-12-29T12:28:39Z</time>
      </trkpt>
      <trkpt lat="45.00316" lon="6.12745">
        <ele>1677.6</ele>
        <time>2022-12-29T12:28:40Z</time>
      </trkpt>
      <trkpt lat="45.00315" lon="6.12746">
        <ele>1677.6</ele>
        <time>2022-12-29T12:28:41Z</time>
      </trkpt>
      <trkpt lat="45.00314" lon="6.12746">
        <ele>1677.6</ele>
        <time>2022-12-29T12:28:42Z</time>
      </trkpt>
      <trkpt lat="45.00313" lon="6.12746">
        <ele>1677.6</ele>
        <time>2022-12-29T12:28:43Z</time>
      </trkpt>
      <trkpt lat="45.00312" lon="6.12746">
        <ele>1677.6</ele>
        <time>2022-12-29T12:28:44Z</time>
      </trkpt>
      <trkpt lat="45.00311" lon="6.12746">
        <ele>1677.6</ele>
        <time>2022-12-29T12:28:45Z</time>
      </trkpt>
      <trkpt lat="45.0031" lon="6.12746">
        <ele>1677.4</ele>
        <time>2022-12-29T12:28:46Z</time>
      </trkpt>
      <trkpt lat="45.0031" lon="6.12746">
        <ele>1677.4</ele>
        <time>2022-12-29T12:28:47Z</time>
      </trkpt>
      <trkpt lat="45.00309" lon="6.12746">
        <ele>1677.4</ele>
        <time>2022-12-29T12:28:48Z</time>
      </trkpt>
      <trkpt lat="45.00308" lon="6.12747">
        <ele>1677.4</ele>
        <time>2022-12-29T12:28:49Z</time>
      </trkpt>
      <trkpt lat="45.00308" lon="6.12747">
        <ele>1677.4</ele>
        <time>2022-12-29T12:28:50Z</time>
      </trkpt>
      <trkpt lat="45.00307" lon="6.12747">
        <ele>1677.4</ele>
        <time>2022-12-29T12:28:51Z</time>
      </trkpt>
      <trkpt lat="45.00306" lon="6.12747">
        <ele>1677.4</ele>
        <time>2022-12-29T12:28:52Z</time>
      </trkpt>
      <trkpt lat="45.00306" lon="6.12747">
        <ele>1677.4</ele>
        <time>2022-12-29T12:28:53Z</time>
      </trkpt>
      <trkpt lat="45.00305" lon="6.12748">
        <ele>1677.4</ele>
        <time>2022-12-29T12:28:54Z</time>
      </trkpt>
      <trkpt lat="45.00304" lon="6.12748">
        <ele>1677.4</ele>
        <time>2022-12-29T12:28:55Z</time>
      </trkpt>
      <trkpt lat="45.00304" lon="6.12748">
        <ele>1677.6</ele>
        <time>2022-12-29T12:28:56Z</time>
      </trkpt>
      <trkpt lat="45.00304" lon="6.12748">
        <ele>1677.6</ele>
        <time>2022-12-29T12:28:57Z</time>
      </trkpt>
      <trkpt lat="45.00304" lon="6.12748">
        <ele>1677.6</ele>
        <time>2022-12-29T12:28:58Z</time>
      </trkpt>
      <trkpt lat="45.00303" lon="6.12748">
        <ele>1677.6</ele>
        <time>2022-12-29T12:28:59Z</time>
      </trkpt>
      <trkpt lat="45.00303" lon="6.12748">
        <ele>1677.6</ele>
        <time>2022-12-29T12:29:00Z</time>
      </trkpt>
      <trkpt lat="45.00303" lon="6.12748">
        <ele>1677.6</ele>
        <time>2022-12-29T12:29:01Z</time>
      </trkpt>
      <trkpt lat="45.00303" lon="6.12748">
        <ele>1677.6</ele>
        <time>2022-12-29T12:29:02Z</time>
      </trkpt>
      <trkpt lat="45.00303" lon="6.12749">
        <ele>1677.6</ele>
        <time>2022-12-29T12:29:03Z</time>
      </trkpt>
      <trkpt lat="45.00303" lon="6.12749">
        <ele>1677.6</ele>
        <time>2022-12-29T12:29:04Z</time>
      </trkpt>
      <trkpt lat="45.00303" lon="6.12749">
        <ele>1677.6</ele>
        <time>2022-12-29T12:29:05Z</time>
      </trkpt>
      <trkpt lat="45.00303" lon="6.12749">
        <ele>1678</ele>
        <time>2022-12-29T12:29:06Z</time>
      </trkpt>
      <trkpt lat="45.00303" lon="6.12749">
        <ele>1678</ele>
        <time>2022-12-29T12:29:07Z</time>
      </trkpt>
      <trkpt lat="45.00302" lon="6.12749">
        <ele>1678</ele>
        <time>2022-12-29T12:29:08Z</time>
      </trkpt>
      <trkpt lat="45.00302" lon="6.12749">
        <ele>1678</ele>
        <time>2022-12-29T12:29:09Z</time>
      </trkpt>
      <trkpt lat="45.00302" lon="6.12749">
        <ele>1678</ele>
        <time>2022-12-29T12:29:10Z</time>
      </trkpt>
      <trkpt lat="45.00302" lon="6.12749">
        <ele>1678</ele>
        <time>2022-12-29T12:29:11Z</time>
      </trkpt>
      <trkpt lat="45.00302" lon="6.12749">
        <ele>1678</ele>
        <time>2022-12-29T12:29:13Z</time>
      </trkpt>
      <trkpt lat="45.00302" lon="6.12749">
        <ele>1678</ele>
        <time>2022-12-29T12:29:14Z</time>
      </trkpt>
      <trkpt lat="45.00302" lon="6.12749">
        <ele>1678</ele>
        <time>2022-12-29T12:29:15Z</time>
      </trkpt>
      <trkpt lat="45.00302" lon="6.12749">
        <ele>1678</ele>
        <time>2022-12-29T12:29:16Z</time>
      </trkpt>
      <trkpt lat="45.00302" lon="6.1275">
        <ele>1678</ele>
        <time>2022-12-29T12:29:17Z</time>
      </trkpt>
      <trkpt lat="45.00301" lon="6.1275">
        <ele>1678</ele>
        <time>2022-12-29T12:29:18Z</time>
      </trkpt>
      <trkpt lat="45.00301" lon="6.1275">
        <ele>1678</ele>
        <time>2022-12-29T12:29:19Z</time>
      </trkpt>
      <trkpt lat="45.00301" lon="6.1275">
        <ele>1678</ele>
        <time>2022-12-29T12:29:20Z</time>
      </trkpt>
      <trkpt lat="45.00301" lon="6.1275">
        <ele>1678</ele>
        <time>2022-12-29T12:29:21Z</time>
      </trkpt>
      <trkpt lat="45.00301" lon="6.1275">
        <ele>1678</ele>
        <time>2022-12-29T12:29:22Z</time>
      </trkpt>
      <trkpt lat="45.00301" lon="6.1275">
        <ele>1678</ele>
        <time>2022-12-29T12:29:23Z</time>
      </trkpt>
      <trkpt lat="45.00301" lon="6.1275">
        <ele>1678</ele>
        <time>2022-12-29T12:29:24Z</time>
      </trkpt>
      <trkpt lat="45.00301" lon="6.1275">
        <ele>1678</ele>
        <time>2022-12-29T12:29:25Z</time>
      </trkpt>
      <trkpt lat="45.00301" lon="6.1275">
        <ele>1677.8</ele>
        <time>2022-12-29T12:29:26Z</time>
      </trkpt>
      <trkpt lat="45.003" lon="6.1275">
        <ele>1677.8</ele>
        <time>2022-12-29T12:29:27Z</time>
      </trkpt>
      <trkpt lat="45.003" lon="6.1275">
        <ele>1677.8</ele>
        <time>2022-12-29T12:29:28Z</time>
      </trkpt>
      <trkpt lat="45.003" lon="6.1275">
        <ele>1677.8</ele>
        <time>2022-12-29T12:29:29Z</time>
      </trkpt>
      <trkpt lat="45.003" lon="6.1275">
        <ele>1677.8</ele>
        <time>2022-12-29T12:29:30Z</time>
      </trkpt>
      <trkpt lat="45.003" lon="6.12751">
        <ele>1677.8</ele>
        <time>2022-12-29T12:29:31Z</time>
      </trkpt>
      <trkpt lat="45.003" lon="6.12751">
        <ele>1677.8</ele>
        <time>2022-12-29T12:29:32Z</time>
      </trkpt>
      <trkpt lat="45.003" lon="6.12751">
        <ele>1677.8</ele>
        <time>2022-12-29T12:29:33Z</time>
      </trkpt>
      <trkpt lat="45.003" lon="6.12751">
        <ele>1677.8</ele>
        <time>2022-12-29T12:29:34Z</time>
      </trkpt>
      <trkpt lat="45.003" lon="6.12751">
        <ele>1677.8</ele>
        <time>2022-12-29T12:29:35Z</time>
      </trkpt>
      <trkpt lat="45.00299" lon="6.12751">
        <ele>1678</ele>
        <time>2022-12-29T12:29:36Z</time>
      </trkpt>
      <trkpt lat="45.00299" lon="6.12751">
        <ele>1678</ele>
        <time>2022-12-29T12:29:37Z</time>
      </trkpt>
      <trkpt lat="45.00299" lon="6.12751">
        <ele>1678</ele>
        <time>2022-12-29T12:29:38Z</time>
      </trkpt>
      <trkpt lat="45.00299" lon="6.12751">
        <ele>1678</ele>
        <time>2022-12-29T12:29:39Z</time>
      </trkpt>
      <trkpt lat="45.00299" lon="6.12751">
        <ele>1678</ele>
        <time>2022-12-29T12:29:40Z</time>
      </trkpt>
      <trkpt lat="45.00299" lon="6.12751">
        <ele>1678</ele>
        <time>2022-12-29T12:29:41Z</time>
      </trkpt>
      <trkpt lat="45.00299" lon="6.12751">
        <ele>1678</ele>
        <time>2022-12-29T12:29:42Z</time>
      </trkpt>
      <trkpt lat="45.00299" lon="6.12751">
        <ele>1678</ele>
        <time>2022-12-29T12:29:43Z</time>
      </trkpt>
      <trkpt lat="45.00299" lon="6.12752">
        <ele>1678</ele>
        <time>2022-12-29T12:29:44Z</time>
      </trkpt>
      <trkpt lat="45.00299" lon="6.12752">
        <ele>1678</ele>
        <time>2022-12-29T12:29:45Z</time>
      </trkpt>
      <trkpt lat="45.00298" lon="6.12752">
        <ele>1677.4</ele>
        <time>2022-12-29T12:29:46Z</time>
      </trkpt>
      <trkpt lat="45.00298" lon="6.12752">
        <ele>1677.4</ele>
        <time>2022-12-29T12:29:47Z</time>
      </trkpt>
      <trkpt lat="45.00298" lon="6.12752">
        <ele>1677.4</ele>
        <time>2022-12-29T12:29:48Z</time>
      </trkpt>
      <trkpt lat="45.00298" lon="6.12752">
        <ele>1677.4</ele>
        <time>2022-12-29T12:29:49Z</time>
      </trkpt>
      <trkpt lat="45.00298" lon="6.12752">
        <ele>1677.4</ele>
        <time>2022-12-29T12:29:50Z</time>
      </trkpt>
      <trkpt lat="45.00298" lon="6.12752">
        <ele>1677.4</ele>
        <time>2022-12-29T12:29:51Z</time>
      </trkpt>
      <trkpt lat="45.00298" lon="6.12752">
        <ele>1677.4</ele>
        <time>2022-12-29T12:29:52Z</time>
      </trkpt>
      <trkpt lat="45.00298" lon="6.12752">
        <ele>1677.4</ele>
        <time>2022-12-29T12:29:53Z</time>
      </trkpt>
      <trkpt lat="45.00298" lon="6.12752">
        <ele>1677.4</ele>
        <time>2022-12-29T12:29:54Z</time>
      </trkpt>
      <trkpt lat="45.00297" lon="6.12752">
        <ele>1677.4</ele>
        <time>2022-12-29T12:29:55Z</time>
      </trkpt>
      <trkpt lat="45.00297" lon="6.12752">
        <ele>1677.8</ele>
        <time>2022-12-29T12:29:56Z</time>
      </trkpt>
      <trkpt lat="45.00294" lon="6.12754">
        <ele>1677.8</ele>
        <time>2022-12-29T12:29:57Z</time>
      </trkpt>
      <trkpt lat="45.00293" lon="6.12754">
        <ele>1677.8</ele>
        <time>2022-12-29T12:29:58Z</time>
      </trkpt>
      <trkpt lat="45.00292" lon="6.12754">
        <ele>1677.8</ele>
        <time>2022-12-29T12:29:59Z</time>
      </trkpt>
      <trkpt lat="45.00292" lon="6.12755">
        <ele>1677.8</ele>
        <time>2022-12-29T12:30:00Z</time>
      </trkpt>
      <trkpt lat="45.00291" lon="6.12755">
        <ele>1677.8</ele>
        <time>2022-12-29T12:30:01Z</time>
      </trkpt>
      <trkpt lat="45.0029" lon="6.12755">
        <ele>1677.8</ele>
        <time>2022-12-29T12:30:02Z</time>
      </trkpt>
      <trkpt lat="45.00289" lon="6.12756">
        <ele>1677.8</ele>
        <time>2022-12-29T12:30:03Z</time>
      </trkpt>
      <trkpt lat="45.00288" lon="6.12756">
        <ele>1677.8</ele>
        <time>2022-12-29T12:30:04Z</time>
      </trkpt>
      <trkpt lat="45.00288" lon="6.12757">
        <ele>1677.8</ele>
        <time>2022-12-29T12:30:05Z</time>
      </trkpt>
      <trkpt lat="45.00287" lon="6.12757">
        <ele>1678.2</ele>
        <time>2022-12-29T12:30:06Z</time>
      </trkpt>
      <trkpt lat="45.00285" lon="6.12758">
        <ele>1678.2</ele>
        <time>2022-12-29T12:30:07Z</time>
      </trkpt>
      <trkpt lat="45.00284" lon="6.12758">
        <ele>1678.2</ele>
        <time>2022-12-29T12:30:08Z</time>
      </trkpt>
      <trkpt lat="45.00283" lon="6.12759">
        <ele>1678.2</ele>
        <time>2022-12-29T12:30:09Z</time>
      </trkpt>
      <trkpt lat="45.00283" lon="6.12759">
        <ele>1678.2</ele>
        <time>2022-12-29T12:30:10Z</time>
      </trkpt>
      <trkpt lat="45.00282" lon="6.1276">
        <ele>1678.2</ele>
        <time>2022-12-29T12:30:11Z</time>
      </trkpt>
      <trkpt lat="45.00281" lon="6.1276">
        <ele>1678.2</ele>
        <time>2022-12-29T12:30:12Z</time>
      </trkpt>
      <trkpt lat="45.0028" lon="6.12761">
        <ele>1678.2</ele>
        <time>2022-12-29T12:30:13Z</time>
      </trkpt>
      <trkpt lat="45.00279" lon="6.12761">
        <ele>1678.2</ele>
        <time>2022-12-29T12:30:14Z</time>
      </trkpt>
      <trkpt lat="45.00279" lon="6.12762">
        <ele>1678.2</ele>
        <time>2022-12-29T12:30:15Z</time>
      </trkpt>
      <trkpt lat="45.00278" lon="6.12762">
        <ele>1679</ele>
        <time>2022-12-29T12:30:16Z</time>
      </trkpt>
      <trkpt lat="45.00275" lon="6.12765">
        <ele>1679</ele>
        <time>2022-12-29T12:30:17Z</time>
      </trkpt>
      <trkpt lat="45.00275" lon="6.12765">
        <ele>1679</ele>
        <time>2022-12-29T12:30:18Z</time>
      </trkpt>
      <trkpt lat="45.00274" lon="6.12766">
        <ele>1679</ele>
        <time>2022-12-29T12:30:19Z</time>
      </trkpt>
      <trkpt lat="45.00273" lon="6.12767">
        <ele>1679</ele>
        <time>2022-12-29T12:30:20Z</time>
      </trkpt>
      <trkpt lat="45.00273" lon="6.12767">
        <ele>1679</ele>
        <time>2022-12-29T12:30:21Z</time>
      </trkpt>
      <trkpt lat="45.00272" lon="6.12768">
        <ele>1679</ele>
        <time>2022-12-29T12:30:22Z</time>
      </trkpt>
      <trkpt lat="45.00272" lon="6.12769">
        <ele>1679</ele>
        <time>2022-12-29T12:30:23Z</time>
      </trkpt>
      <trkpt lat="45.00271" lon="6.1277">
        <ele>1679</ele>
        <time>2022-12-29T12:30:24Z</time>
      </trkpt>
      <trkpt lat="45.0027" lon="6.1277">
        <ele>1679</ele>
        <time>2022-12-29T12:30:25Z</time>
      </trkpt>
      <trkpt lat="45.0027" lon="6.12771">
        <ele>1680.2</ele>
        <time>2022-12-29T12:30:26Z</time>
      </trkpt>
      <trkpt lat="45.00268" lon="6.12772">
        <ele>1680.2</ele>
        <time>2022-12-29T12:30:27Z</time>
      </trkpt>
      <trkpt lat="45.00268" lon="6.12773">
        <ele>1680.2</ele>
        <time>2022-12-29T12:30:28Z</time>
      </trkpt>
      <trkpt lat="45.00267" lon="6.12774">
        <ele>1680.2</ele>
        <time>2022-12-29T12:30:29Z</time>
      </trkpt>
      <trkpt lat="45.00266" lon="6.12774">
        <ele>1680.2</ele>
        <time>2022-12-29T12:30:30Z</time>
      </trkpt>
      <trkpt lat="45.00266" lon="6.12775">
        <ele>1680.2</ele>
        <time>2022-12-29T12:30:31Z</time>
      </trkpt>
      <trkpt lat="45.00265" lon="6.12776">
        <ele>1680.2</ele>
        <time>2022-12-29T12:30:32Z</time>
      </trkpt>
      <trkpt lat="45.00265" lon="6.12776">
        <ele>1680.2</ele>
        <time>2022-12-29T12:30:33Z</time>
      </trkpt>
      <trkpt lat="45.00264" lon="6.12777">
        <ele>1680.2</ele>
        <time>2022-12-29T12:30:34Z</time>
      </trkpt>
      <trkpt lat="45.00263" lon="6.12778">
        <ele>1680.2</ele>
        <time>2022-12-29T12:30:35Z</time>
      </trkpt>
      <trkpt lat="45.00263" lon="6.12779">
        <ele>1681.8</ele>
        <time>2022-12-29T12:30:36Z</time>
      </trkpt>
      <trkpt lat="45.00262" lon="6.12779">
        <ele>1681.8</ele>
        <time>2022-12-29T12:30:37Z</time>
      </trkpt>
      <trkpt lat="45.00261" lon="6.1278">
        <ele>1681.8</ele>
        <time>2022-12-29T12:30:38Z</time>
      </trkpt>
      <trkpt lat="45.00261" lon="6.12781">
        <ele>1681.8</ele>
        <time>2022-12-29T12:30:39Z</time>
      </trkpt>
      <trkpt lat="45.0026" lon="6.12782">
        <ele>1681.8</ele>
        <time>2022-12-29T12:30:40Z</time>
      </trkpt>
      <trkpt lat="45.0026" lon="6.12782">
        <ele>1681.8</ele>
        <time>2022-12-29T12:30:41Z</time>
      </trkpt>
      <trkpt lat="45.00259" lon="6.12783">
        <ele>1681.8</ele>
        <time>2022-12-29T12:30:42Z</time>
      </trkpt>
      <trkpt lat="45.00258" lon="6.12784">
        <ele>1681.8</ele>
        <time>2022-12-29T12:30:43Z</time>
      </trkpt>
      <trkpt lat="45.00258" lon="6.12785">
        <ele>1681.8</ele>
        <time>2022-12-29T12:30:44Z</time>
      </trkpt>
      <trkpt lat="45.00257" lon="6.12786">
        <ele>1681.8</ele>
        <time>2022-12-29T12:30:45Z</time>
      </trkpt>
      <trkpt lat="45.00256" lon="6.12786">
        <ele>1683</ele>
        <time>2022-12-29T12:30:46Z</time>
      </trkpt>
      <trkpt lat="45.00254" lon="6.12789">
        <ele>1683</ele>
        <time>2022-12-29T12:30:47Z</time>
      </trkpt>
      <trkpt lat="45.00254" lon="6.1279">
        <ele>1683</ele>
        <time>2022-12-29T12:30:48Z</time>
      </trkpt>
      <trkpt lat="45.00254" lon="6.1279">
        <ele>1683</ele>
        <time>2022-12-29T12:30:49Z</time>
      </trkpt>
      <trkpt lat="45.00253" lon="6.12791">
        <ele>1683</ele>
        <time>2022-12-29T12:30:50Z</time>
      </trkpt>
      <trkpt lat="45.00253" lon="6.12792">
        <ele>1683</ele>
        <time>2022-12-29T12:30:51Z</time>
      </trkpt>
      <trkpt lat="45.00252" lon="6.12793">
        <ele>1683</ele>
        <time>2022-12-29T12:30:52Z</time>
      </trkpt>
      <trkpt lat="45.00252" lon="6.12794">
        <ele>1683</ele>
        <time>2022-12-29T12:30:53Z</time>
      </trkpt>
      <trkpt lat="45.00251" lon="6.12794">
        <ele>1683</ele>
        <time>2022-12-29T12:30:54Z</time>
      </trkpt>
      <trkpt lat="45.00251" lon="6.12795">
        <ele>1683</ele>
        <time>2022-12-29T12:30:55Z</time>
      </trkpt>
      <trkpt lat="45.00251" lon="6.12796">
        <ele>1683.6</ele>
        <time>2022-12-29T12:30:56Z</time>
      </trkpt>
      <trkpt lat="45.00248" lon="6.12798">
        <ele>1683.6</ele>
        <time>2022-12-29T12:30:57Z</time>
      </trkpt>
      <trkpt lat="45.00248" lon="6.12799">
        <ele>1683.6</ele>
        <time>2022-12-29T12:30:58Z</time>
      </trkpt>
      <trkpt lat="45.00247" lon="6.128">
        <ele>1683.6</ele>
        <time>2022-12-29T12:30:59Z</time>
      </trkpt>
      <trkpt lat="45.00247" lon="6.12801">
        <ele>1683.6</ele>
        <time>2022-12-29T12:31:00Z</time>
      </trkpt>
      <trkpt lat="45.00246" lon="6.12801">
        <ele>1683.6</ele>
        <time>2022-12-29T12:31:01Z</time>
      </trkpt>
      <trkpt lat="45.00246" lon="6.12802">
        <ele>1683.6</ele>
        <time>2022-12-29T12:31:02Z</time>
      </trkpt>
      <trkpt lat="45.00245" lon="6.12803">
        <ele>1683.6</ele>
        <time>2022-12-29T12:31:03Z</time>
      </trkpt>
      <trkpt lat="45.00245" lon="6.12804">
        <ele>1683.6</ele>
        <time>2022-12-29T12:31:04Z</time>
      </trkpt>
      <trkpt lat="45.00244" lon="6.12804">
        <ele>1683.6</ele>
        <time>2022-12-29T12:31:05Z</time>
      </trkpt>
      <trkpt lat="45.00244" lon="6.12805">
        <ele>1684.4</ele>
        <time>2022-12-29T12:31:06Z</time>
      </trkpt>
      <trkpt lat="45.00242" lon="6.12807">
        <ele>1684.4</ele>
        <time>2022-12-29T12:31:07Z</time>
      </trkpt>
      <trkpt lat="45.00241" lon="6.12808">
        <ele>1684.4</ele>
        <time>2022-12-29T12:31:08Z</time>
      </trkpt>
      <trkpt lat="45.0024" lon="6.12809">
        <ele>1684.4</ele>
        <time>2022-12-29T12:31:09Z</time>
      </trkpt>
      <trkpt lat="45.0024" lon="6.1281">
        <ele>1684.4</ele>
        <time>2022-12-29T12:31:10Z</time>
      </trkpt>
      <trkpt lat="45.00239" lon="6.12811">
        <ele>1684.4</ele>
        <time>2022-12-29T12:31:11Z</time>
      </trkpt>
      <trkpt lat="45.00239" lon="6.12812">
        <ele>1684.4</ele>
        <time>2022-12-29T12:31:12Z</time>
      </trkpt>
      <trkpt lat="45.00238" lon="6.12812">
        <ele>1684.4</ele>
        <time>2022-12-29T12:31:13Z</time>
      </trkpt>
      <trkpt lat="45.00237" lon="6.12813">
        <ele>1684.4</ele>
        <time>2022-12-29T12:31:14Z</time>
      </trkpt>
      <trkpt lat="45.00237" lon="6.12814">
        <ele>1684.4</ele>
        <time>2022-12-29T12:31:15Z</time>
      </trkpt>
      <trkpt lat="45.00236" lon="6.12815">
        <ele>1685.4</ele>
        <time>2022-12-29T12:31:16Z</time>
      </trkpt>
      <trkpt lat="45.00236" lon="6.12815">
        <ele>1685.4</ele>
        <time>2022-12-29T12:31:17Z</time>
      </trkpt>
      <trkpt lat="45.00235" lon="6.12816">
        <ele>1685.4</ele>
        <time>2022-12-29T12:31:18Z</time>
      </trkpt>
      <trkpt lat="45.00234" lon="6.12817">
        <ele>1685.4</ele>
        <time>2022-12-29T12:31:19Z</time>
      </trkpt>
      <trkpt lat="45.00233" lon="6.12817">
        <ele>1685.4</ele>
        <time>2022-12-29T12:31:20Z</time>
      </trkpt>
      <trkpt lat="45.00233" lon="6.12818">
        <ele>1685.4</ele>
        <time>2022-12-29T12:31:21Z</time>
      </trkpt>
      <trkpt lat="45.00232" lon="6.12819">
        <ele>1685.4</ele>
        <time>2022-12-29T12:31:22Z</time>
      </trkpt>
      <trkpt lat="45.00231" lon="6.12819">
        <ele>1685.4</ele>
        <time>2022-12-29T12:31:23Z</time>
      </trkpt>
      <trkpt lat="45.00231" lon="6.1282">
        <ele>1685.4</ele>
        <time>2022-12-29T12:31:24Z</time>
      </trkpt>
      <trkpt lat="45.0023" lon="6.12821">
        <ele>1685.4</ele>
        <time>2022-12-29T12:31:25Z</time>
      </trkpt>
      <trkpt lat="45.00229" lon="6.12821">
        <ele>1686.2</ele>
        <time>2022-12-29T12:31:26Z</time>
      </trkpt>
      <trkpt lat="45.00227" lon="6.12825">
        <ele>1686.2</ele>
        <time>2022-12-29T12:31:27Z</time>
      </trkpt>
      <trkpt lat="45.00226" lon="6.12825">
        <ele>1686.2</ele>
        <time>2022-12-29T12:31:28Z</time>
      </trkpt>
      <trkpt lat="45.00225" lon="6.12826">
        <ele>1686.2</ele>
        <time>2022-12-29T12:31:29Z</time>
      </trkpt>
      <trkpt lat="45.00225" lon="6.12826">
        <ele>1686.2</ele>
        <time>2022-12-29T12:31:30Z</time>
      </trkpt>
      <trkpt lat="45.00224" lon="6.12827">
        <ele>1686.2</ele>
        <time>2022-12-29T12:31:31Z</time>
      </trkpt>
      <trkpt lat="45.00224" lon="6.12828">
        <ele>1686.2</ele>
        <time>2022-12-29T12:31:32Z</time>
      </trkpt>
      <trkpt lat="45.00223" lon="6.12828">
        <ele>1686.2</ele>
        <time>2022-12-29T12:31:33Z</time>
      </trkpt>
      <trkpt lat="45.00223" lon="6.12829">
        <ele>1686.2</ele>
        <time>2022-12-29T12:31:34Z</time>
      </trkpt>
      <trkpt lat="45.00222" lon="6.12829">
        <ele>1686.2</ele>
        <time>2022-12-29T12:31:35Z</time>
      </trkpt>
      <trkpt lat="45.00221" lon="6.1283">
        <ele>1686.8</ele>
        <time>2022-12-29T12:31:36Z</time>
      </trkpt>
      <trkpt lat="45.0022" lon="6.12831">
        <ele>1686.8</ele>
        <time>2022-12-29T12:31:37Z</time>
      </trkpt>
      <trkpt lat="45.00219" lon="6.12832">
        <ele>1686.8</ele>
        <time>2022-12-29T12:31:38Z</time>
      </trkpt>
      <trkpt lat="45.00218" lon="6.12832">
        <ele>1686.8</ele>
        <time>2022-12-29T12:31:39Z</time>
      </trkpt>
      <trkpt lat="45.00217" lon="6.12833">
        <ele>1686.8</ele>
        <time>2022-12-29T12:31:40Z</time>
      </trkpt>
      <trkpt lat="45.00216" lon="6.12833">
        <ele>1686.8</ele>
        <time>2022-12-29T12:31:41Z</time>
      </trkpt>
      <trkpt lat="45.00216" lon="6.12834">
        <ele>1686.8</ele>
        <time>2022-12-29T12:31:42Z</time>
      </trkpt>
      <trkpt lat="45.00215" lon="6.12834">
        <ele>1686.8</ele>
        <time>2022-12-29T12:31:43Z</time>
      </trkpt>
      <trkpt lat="45.00214" lon="6.12835">
        <ele>1686.8</ele>
        <time>2022-12-29T12:31:44Z</time>
      </trkpt>
      <trkpt lat="45.00213" lon="6.12835">
        <ele>1686.8</ele>
        <time>2022-12-29T12:31:45Z</time>
      </trkpt>
      <trkpt lat="45.00212" lon="6.12836">
        <ele>1686.6</ele>
        <time>2022-12-29T12:31:46Z</time>
      </trkpt>
      <trkpt lat="45.0021" lon="6.12837">
        <ele>1686.6</ele>
        <time>2022-12-29T12:31:47Z</time>
      </trkpt>
      <trkpt lat="45.00209" lon="6.12837">
        <ele>1686.6</ele>
        <time>2022-12-29T12:31:48Z</time>
      </trkpt>
      <trkpt lat="45.00209" lon="6.12837">
        <ele>1686.6</ele>
        <time>2022-12-29T12:31:49Z</time>
      </trkpt>
      <trkpt lat="45.00209" lon="6.12838">
        <ele>1686.6</ele>
        <time>2022-12-29T12:31:50Z</time>
      </trkpt>
      <trkpt lat="45.00208" lon="6.12838">
        <ele>1686.6</ele>
        <time>2022-12-29T12:31:51Z</time>
      </trkpt>
      <trkpt lat="45.00208" lon="6.12838">
        <ele>1686.6</ele>
        <time>2022-12-29T12:31:52Z</time>
      </trkpt>
      <trkpt lat="45.00208" lon="6.12838">
        <ele>1686.6</ele>
        <time>2022-12-29T12:31:53Z</time>
      </trkpt>
      <trkpt lat="45.00207" lon="6.12839">
        <ele>1686.6</ele>
        <time>2022-12-29T12:31:54Z</time>
      </trkpt>
      <trkpt lat="45.00207" lon="6.12839">
        <ele>1686.6</ele>
        <time>2022-12-29T12:31:55Z</time>
      </trkpt>
      <trkpt lat="45.00207" lon="6.12839">
        <ele>1686.4</ele>
        <time>2022-12-29T12:31:56Z</time>
      </trkpt>
      <trkpt lat="45.00208" lon="6.12843">
        <ele>1686.4</ele>
        <time>2022-12-29T12:31:57Z</time>
      </trkpt>
      <trkpt lat="45.00208" lon="6.12844">
        <ele>1686.4</ele>
        <time>2022-12-29T12:31:58Z</time>
      </trkpt>
      <trkpt lat="45.00209" lon="6.12844">
        <ele>1686.4</ele>
        <time>2022-12-29T12:31:59Z</time>
      </trkpt>
      <trkpt lat="45.00209" lon="6.12845">
        <ele>1686.4</ele>
        <time>2022-12-29T12:32:00Z</time>
      </trkpt>
      <trkpt lat="45.0021" lon="6.12846">
        <ele>1686.4</ele>
        <time>2022-12-29T12:32:01Z</time>
      </trkpt>
      <trkpt lat="45.0021" lon="6.12847">
        <ele>1686.4</ele>
        <time>2022-12-29T12:32:02Z</time>
      </trkpt>
      <trkpt lat="45.00211" lon="6.12848">
        <ele>1686.4</ele>
        <time>2022-12-29T12:32:03Z</time>
      </trkpt>
      <trkpt lat="45.00211" lon="6.12849">
        <ele>1686.4</ele>
        <time>2022-12-29T12:32:04Z</time>
      </trkpt>
      <trkpt lat="45.00211" lon="6.12849">
        <ele>1686.4</ele>
        <time>2022-12-29T12:32:05Z</time>
      </trkpt>
      <trkpt lat="45.00212" lon="6.1285">
        <ele>1687.8</ele>
        <time>2022-12-29T12:32:06Z</time>
      </trkpt>
      <trkpt lat="45.00212" lon="6.12852">
        <ele>1687.8</ele>
        <time>2022-12-29T12:32:07Z</time>
      </trkpt>
      <trkpt lat="45.00212" lon="6.12853">
        <ele>1687.8</ele>
        <time>2022-12-29T12:32:08Z</time>
      </trkpt>
      <trkpt lat="45.00212" lon="6.12853">
        <ele>1687.8</ele>
        <time>2022-12-29T12:32:09Z</time>
      </trkpt>
      <trkpt lat="45.00212" lon="6.12854">
        <ele>1687.8</ele>
        <time>2022-12-29T12:32:10Z</time>
      </trkpt>
      <trkpt lat="45.00212" lon="6.12854">
        <ele>1687.8</ele>
        <time>2022-12-29T12:32:11Z</time>
      </trkpt>
      <trkpt lat="45.00212" lon="6.12855">
        <ele>1687.8</ele>
        <time>2022-12-29T12:32:12Z</time>
      </trkpt>
      <trkpt lat="45.00212" lon="6.12856">
        <ele>1687.8</ele>
        <time>2022-12-29T12:32:13Z</time>
      </trkpt>
      <trkpt lat="45.00212" lon="6.12856">
        <ele>1687.8</ele>
        <time>2022-12-29T12:32:14Z</time>
      </trkpt>
      <trkpt lat="45.00211" lon="6.12857">
        <ele>1687.8</ele>
        <time>2022-12-29T12:32:15Z</time>
      </trkpt>
      <trkpt lat="45.00211" lon="6.12857">
        <ele>1689.8</ele>
        <time>2022-12-29T12:32:16Z</time>
      </trkpt>
      <trkpt lat="45.00211" lon="6.12858">
        <ele>1689.8</ele>
        <time>2022-12-29T12:32:17Z</time>
      </trkpt>
      <trkpt lat="45.0021" lon="6.12858">
        <ele>1689.8</ele>
        <time>2022-12-29T12:32:18Z</time>
      </trkpt>
      <trkpt lat="45.00209" lon="6.12859">
        <ele>1689.8</ele>
        <time>2022-12-29T12:32:19Z</time>
      </trkpt>
      <trkpt lat="45.00209" lon="6.12859">
        <ele>1689.8</ele>
        <time>2022-12-29T12:32:20Z</time>
      </trkpt>
      <trkpt lat="45.00208" lon="6.1286">
        <ele>1689.8</ele>
        <time>2022-12-29T12:32:21Z</time>
      </trkpt>
      <trkpt lat="45.00208" lon="6.1286">
        <ele>1689.8</ele>
        <time>2022-12-29T12:32:22Z</time>
      </trkpt>
      <trkpt lat="45.00207" lon="6.12861">
        <ele>1689.8</ele>
        <time>2022-12-29T12:32:23Z</time>
      </trkpt>
      <trkpt lat="45.00206" lon="6.12862">
        <ele>1689.8</ele>
        <time>2022-12-29T12:32:24Z</time>
      </trkpt>
      <trkpt lat="45.00206" lon="6.12862">
        <ele>1689.8</ele>
        <time>2022-12-29T12:32:25Z</time>
      </trkpt>
      <trkpt lat="45.00205" lon="6.12863">
        <ele>1690</ele>
        <time>2022-12-29T12:32:26Z</time>
      </trkpt>
      <trkpt lat="45.00204" lon="6.12863">
        <ele>1690</ele>
        <time>2022-12-29T12:32:27Z</time>
      </trkpt>
      <trkpt lat="45.00203" lon="6.12864">
        <ele>1690</ele>
        <time>2022-12-29T12:32:28Z</time>
      </trkpt>
      <trkpt lat="45.00202" lon="6.12864">
        <ele>1690</ele>
        <time>2022-12-29T12:32:29Z</time>
      </trkpt>
      <trkpt lat="45.00201" lon="6.12865">
        <ele>1690</ele>
        <time>2022-12-29T12:32:30Z</time>
      </trkpt>
      <trkpt lat="45.002" lon="6.12866">
        <ele>1690</ele>
        <time>2022-12-29T12:32:31Z</time>
      </trkpt>
      <trkpt lat="45.00199" lon="6.12866">
        <ele>1690</ele>
        <time>2022-12-29T12:32:32Z</time>
      </trkpt>
      <trkpt lat="45.00198" lon="6.12867">
        <ele>1690</ele>
        <time>2022-12-29T12:32:33Z</time>
      </trkpt>
      <trkpt lat="45.00197" lon="6.12868">
        <ele>1690</ele>
        <time>2022-12-29T12:32:34Z</time>
      </trkpt>
      <trkpt lat="45.00196" lon="6.12868">
        <ele>1690</ele>
        <time>2022-12-29T12:32:35Z</time>
      </trkpt>
      <trkpt lat="45.00195" lon="6.12869">
        <ele>1690</ele>
        <time>2022-12-29T12:32:36Z</time>
      </trkpt>
      <trkpt lat="45.00193" lon="6.1287">
        <ele>1690</ele>
        <time>2022-12-29T12:32:37Z</time>
      </trkpt>
      <trkpt lat="45.00192" lon="6.1287">
        <ele>1690</ele>
        <time>2022-12-29T12:32:38Z</time>
      </trkpt>
      <trkpt lat="45.00191" lon="6.1287">
        <ele>1690</ele>
        <time>2022-12-29T12:32:39Z</time>
      </trkpt>
      <trkpt lat="45.0019" lon="6.1287">
        <ele>1690</ele>
        <time>2022-12-29T12:32:40Z</time>
      </trkpt>
      <trkpt lat="45.00189" lon="6.12871">
        <ele>1690</ele>
        <time>2022-12-29T12:32:41Z</time>
      </trkpt>
      <trkpt lat="45.00188" lon="6.12871">
        <ele>1690</ele>
        <time>2022-12-29T12:32:42Z</time>
      </trkpt>
      <trkpt lat="45.00187" lon="6.12871">
        <ele>1690</ele>
        <time>2022-12-29T12:32:43Z</time>
      </trkpt>
      <trkpt lat="45.00186" lon="6.12871">
        <ele>1690</ele>
        <time>2022-12-29T12:32:44Z</time>
      </trkpt>
      <trkpt lat="45.00185" lon="6.12871">
        <ele>1690</ele>
        <time>2022-12-29T12:32:45Z</time>
      </trkpt>
      <trkpt lat="45.00184" lon="6.12872">
        <ele>1689.4</ele>
        <time>2022-12-29T12:32:46Z</time>
      </trkpt>
      <trkpt lat="45.0018" lon="6.12873">
        <ele>1689.4</ele>
        <time>2022-12-29T12:32:47Z</time>
      </trkpt>
      <trkpt lat="45.00179" lon="6.12873">
        <ele>1689.4</ele>
        <time>2022-12-29T12:32:48Z</time>
      </trkpt>
      <trkpt lat="45.00178" lon="6.12874">
        <ele>1689.4</ele>
        <time>2022-12-29T12:32:49Z</time>
      </trkpt>
      <trkpt lat="45.00177" lon="6.12874">
        <ele>1689.4</ele>
        <time>2022-12-29T12:32:50Z</time>
      </trkpt>
      <trkpt lat="45.00176" lon="6.12875">
        <ele>1689.4</ele>
        <time>2022-12-29T12:32:51Z</time>
      </trkpt>
      <trkpt lat="45.00175" lon="6.12875">
        <ele>1689.4</ele>
        <time>2022-12-29T12:32:52Z</time>
      </trkpt>
      <trkpt lat="45.00174" lon="6.12875">
        <ele>1689.4</ele>
        <time>2022-12-29T12:32:53Z</time>
      </trkpt>
      <trkpt lat="45.00173" lon="6.12876">
        <ele>1689.4</ele>
        <time>2022-12-29T12:32:54Z</time>
      </trkpt>
      <trkpt lat="45.00172" lon="6.12876">
        <ele>1689.4</ele>
        <time>2022-12-29T12:32:55Z</time>
      </trkpt>
      <trkpt lat="45.0017" lon="6.12877">
        <ele>1688.8</ele>
        <time>2022-12-29T12:32:56Z</time>
      </trkpt>
      <trkpt lat="45.00168" lon="6.12879">
        <ele>1688.8</ele>
        <time>2022-12-29T12:32:57Z</time>
      </trkpt>
      <trkpt lat="45.00168" lon="6.12879">
        <ele>1688.8</ele>
        <time>2022-12-29T12:32:58Z</time>
      </trkpt>
      <trkpt lat="45.00167" lon="6.1288">
        <ele>1688.8</ele>
        <time>2022-12-29T12:32:59Z</time>
      </trkpt>
      <trkpt lat="45.00166" lon="6.12881">
        <ele>1688.8</ele>
        <time>2022-12-29T12:33:00Z</time>
      </trkpt>
      <trkpt lat="45.00165" lon="6.12882">
        <ele>1688.8</ele>
        <time>2022-12-29T12:33:01Z</time>
      </trkpt>
      <trkpt lat="45.00164" lon="6.12882">
        <ele>1688.8</ele>
        <time>2022-12-29T12:33:02Z</time>
      </trkpt>
      <trkpt lat="45.00163" lon="6.12883">
        <ele>1688.8</ele>
        <time>2022-12-29T12:33:03Z</time>
      </trkpt>
      <trkpt lat="45.00162" lon="6.12884">
        <ele>1688.8</ele>
        <time>2022-12-29T12:33:04Z</time>
      </trkpt>
      <trkpt lat="45.00162" lon="6.12885">
        <ele>1688.8</ele>
        <time>2022-12-29T12:33:05Z</time>
      </trkpt>
      <trkpt lat="45.00161" lon="6.12885">
        <ele>1689.6</ele>
        <time>2022-12-29T12:33:06Z</time>
      </trkpt>
      <trkpt lat="45.00159" lon="6.12887">
        <ele>1689.6</ele>
        <time>2022-12-29T12:33:07Z</time>
      </trkpt>
      <trkpt lat="45.00158" lon="6.12887">
        <ele>1689.6</ele>
        <time>2022-12-29T12:33:08Z</time>
      </trkpt>
      <trkpt lat="45.00158" lon="6.12888">
        <ele>1689.6</ele>
        <time>2022-12-29T12:33:09Z</time>
      </trkpt>
      <trkpt lat="45.00157" lon="6.12889">
        <ele>1689.6</ele>
        <time>2022-12-29T12:33:10Z</time>
      </trkpt>
      <trkpt lat="45.00157" lon="6.1289">
        <ele>1689.6</ele>
        <time>2022-12-29T12:33:11Z</time>
      </trkpt>
      <trkpt lat="45.00156" lon="6.1289">
        <ele>1689.6</ele>
        <time>2022-12-29T12:33:12Z</time>
      </trkpt>
      <trkpt lat="45.00155" lon="6.12891">
        <ele>1689.6</ele>
        <time>2022-12-29T12:33:13Z</time>
      </trkpt>
      <trkpt lat="45.00155" lon="6.12892">
        <ele>1689.6</ele>
        <time>2022-12-29T12:33:14Z</time>
      </trkpt>
      <trkpt lat="45.00154" lon="6.12892">
        <ele>1689.6</ele>
        <time>2022-12-29T12:33:15Z</time>
      </trkpt>
      <trkpt lat="45.00153" lon="6.12893">
        <ele>1690.6</ele>
        <time>2022-12-29T12:33:16Z</time>
      </trkpt>
      <trkpt lat="45.00153" lon="6.12894">
        <ele>1690.6</ele>
        <time>2022-12-29T12:33:17Z</time>
      </trkpt>
      <trkpt lat="45.00152" lon="6.12895">
        <ele>1690.6</ele>
        <time>2022-12-29T12:33:18Z</time>
      </trkpt>
      <trkpt lat="45.00151" lon="6.12895">
        <ele>1690.6</ele>
        <time>2022-12-29T12:33:19Z</time>
      </trkpt>
      <trkpt lat="45.00151" lon="6.12896">
        <ele>1690.6</ele>
        <time>2022-12-29T12:33:20Z</time>
      </trkpt>
      <trkpt lat="45.0015" lon="6.12897">
        <ele>1690.6</ele>
        <time>2022-12-29T12:33:21Z</time>
      </trkpt>
      <trkpt lat="45.00149" lon="6.12897">
        <ele>1690.6</ele>
        <time>2022-12-29T12:33:22Z</time>
      </trkpt>
      <trkpt lat="45.00149" lon="6.12898">
        <ele>1690.6</ele>
        <time>2022-12-29T12:33:23Z</time>
      </trkpt>
      <trkpt lat="45.00148" lon="6.12899">
        <ele>1690.6</ele>
        <time>2022-12-29T12:33:24Z</time>
      </trkpt>
      <trkpt lat="45.00147" lon="6.12899">
        <ele>1690.6</ele>
        <time>2022-12-29T12:33:25Z</time>
      </trkpt>
      <trkpt lat="45.00147" lon="6.129">
        <ele>1691.2</ele>
        <time>2022-12-29T12:33:26Z</time>
      </trkpt>
      <trkpt lat="45.00146" lon="6.129">
        <ele>1691.2</ele>
        <time>2022-12-29T12:33:27Z</time>
      </trkpt>
      <trkpt lat="45.00145" lon="6.12901">
        <ele>1691.2</ele>
        <time>2022-12-29T12:33:28Z</time>
      </trkpt>
      <trkpt lat="45.00144" lon="6.12901">
        <ele>1691.2</ele>
        <time>2022-12-29T12:33:29Z</time>
      </trkpt>
      <trkpt lat="45.00143" lon="6.12901">
        <ele>1691.2</ele>
        <time>2022-12-29T12:33:30Z</time>
      </trkpt>
      <trkpt lat="45.00142" lon="6.12902">
        <ele>1691.2</ele>
        <time>2022-12-29T12:33:31Z</time>
      </trkpt>
      <trkpt lat="45.00141" lon="6.12902">
        <ele>1691.2</ele>
        <time>2022-12-29T12:33:32Z</time>
      </trkpt>
      <trkpt lat="45.0014" lon="6.12903">
        <ele>1691.2</ele>
        <time>2022-12-29T12:33:33Z</time>
      </trkpt>
      <trkpt lat="45.00139" lon="6.12903">
        <ele>1691.2</ele>
        <time>2022-12-29T12:33:34Z</time>
      </trkpt>
      <trkpt lat="45.00139" lon="6.12903">
        <ele>1691.2</ele>
        <time>2022-12-29T12:33:35Z</time>
      </trkpt>
      <trkpt lat="45.00138" lon="6.12904">
        <ele>1692.6</ele>
        <time>2022-12-29T12:33:36Z</time>
      </trkpt>
      <trkpt lat="45.00137" lon="6.12904">
        <ele>1692.6</ele>
        <time>2022-12-29T12:33:37Z</time>
      </trkpt>
      <trkpt lat="45.00136" lon="6.12904">
        <ele>1692.6</ele>
        <time>2022-12-29T12:33:38Z</time>
      </trkpt>
      <trkpt lat="45.00136" lon="6.12905">
        <ele>1692.6</ele>
        <time>2022-12-29T12:33:39Z</time>
      </trkpt>
      <trkpt lat="45.00135" lon="6.12905">
        <ele>1692.6</ele>
        <time>2022-12-29T12:33:40Z</time>
      </trkpt>
      <trkpt lat="45.00134" lon="6.12906">
        <ele>1692.6</ele>
        <time>2022-12-29T12:33:41Z</time>
      </trkpt>
      <trkpt lat="45.00134" lon="6.12906">
        <ele>1692.6</ele>
        <time>2022-12-29T12:33:42Z</time>
      </trkpt>
      <trkpt lat="45.00133" lon="6.12906">
        <ele>1692.6</ele>
        <time>2022-12-29T12:33:43Z</time>
      </trkpt>
      <trkpt lat="45.00133" lon="6.12907">
        <ele>1692.6</ele>
        <time>2022-12-29T12:33:44Z</time>
      </trkpt>
      <trkpt lat="45.00132" lon="6.12907">
        <ele>1692.6</ele>
        <time>2022-12-29T12:33:45Z</time>
      </trkpt>
      <trkpt lat="45.00131" lon="6.12907">
        <ele>1693.8</ele>
        <time>2022-12-29T12:33:46Z</time>
      </trkpt>
      <trkpt lat="45.0013" lon="6.1291">
        <ele>1693.8</ele>
        <time>2022-12-29T12:33:47Z</time>
      </trkpt>
      <trkpt lat="45.0013" lon="6.12911">
        <ele>1693.8</ele>
        <time>2022-12-29T12:33:48Z</time>
      </trkpt>
      <trkpt lat="45.0013" lon="6.12911">
        <ele>1693.8</ele>
        <time>2022-12-29T12:33:49Z</time>
      </trkpt>
      <trkpt lat="45.0013" lon="6.12912">
        <ele>1693.8</ele>
        <time>2022-12-29T12:33:50Z</time>
      </trkpt>
      <trkpt lat="45.00131" lon="6.12913">
        <ele>1693.8</ele>
        <time>2022-12-29T12:33:51Z</time>
      </trkpt>
      <trkpt lat="45.00131" lon="6.12914">
        <ele>1693.8</ele>
        <time>2022-12-29T12:33:52Z</time>
      </trkpt>
      <trkpt lat="45.00131" lon="6.12915">
        <ele>1693.8</ele>
        <time>2022-12-29T12:33:53Z</time>
      </trkpt>
      <trkpt lat="45.00131" lon="6.12916">
        <ele>1693.8</ele>
        <time>2022-12-29T12:33:54Z</time>
      </trkpt>
      <trkpt lat="45.00131" lon="6.12917">
        <ele>1693.8</ele>
        <time>2022-12-29T12:33:55Z</time>
      </trkpt>
      <trkpt lat="45.00132" lon="6.12917">
        <ele>1695.4</ele>
        <time>2022-12-29T12:33:56Z</time>
      </trkpt>
      <trkpt lat="45.00131" lon="6.12918">
        <ele>1695.4</ele>
        <time>2022-12-29T12:33:57Z</time>
      </trkpt>
      <trkpt lat="45.00131" lon="6.12918">
        <ele>1695.4</ele>
        <time>2022-12-29T12:33:58Z</time>
      </trkpt>
      <trkpt lat="45.0013" lon="6.12919">
        <ele>1695.4</ele>
        <time>2022-12-29T12:33:59Z</time>
      </trkpt>
      <trkpt lat="45.0013" lon="6.12919">
        <ele>1695.4</ele>
        <time>2022-12-29T12:34:00Z</time>
      </trkpt>
      <trkpt lat="45.00129" lon="6.1292">
        <ele>1695.4</ele>
        <time>2022-12-29T12:34:01Z</time>
      </trkpt>
      <trkpt lat="45.00128" lon="6.1292">
        <ele>1695.4</ele>
        <time>2022-12-29T12:34:02Z</time>
      </trkpt>
      <trkpt lat="45.00128" lon="6.12921">
        <ele>1695.4</ele>
        <time>2022-12-29T12:34:03Z</time>
      </trkpt>
      <trkpt lat="45.00127" lon="6.12921">
        <ele>1695.4</ele>
        <time>2022-12-29T12:34:04Z</time>
      </trkpt>
      <trkpt lat="45.00127" lon="6.12922">
        <ele>1695.4</ele>
        <time>2022-12-29T12:34:05Z</time>
      </trkpt>
      <trkpt lat="45.00126" lon="6.12922">
        <ele>1698.2</ele>
        <time>2022-12-29T12:34:06Z</time>
      </trkpt>
      <trkpt lat="45.00124" lon="6.12923">
        <ele>1698.2</ele>
        <time>2022-12-29T12:34:07Z</time>
      </trkpt>
      <trkpt lat="45.00124" lon="6.12924">
        <ele>1698.2</ele>
        <time>2022-12-29T12:34:08Z</time>
      </trkpt>
      <trkpt lat="45.00123" lon="6.12924">
        <ele>1698.2</ele>
        <time>2022-12-29T12:34:09Z</time>
      </trkpt>
      <trkpt lat="45.00122" lon="6.12924">
        <ele>1698.2</ele>
        <time>2022-12-29T12:34:10Z</time>
      </trkpt>
      <trkpt lat="45.00122" lon="6.12925">
        <ele>1698.2</ele>
        <time>2022-12-29T12:34:11Z</time>
      </trkpt>
      <trkpt lat="45.00121" lon="6.12925">
        <ele>1698.2</ele>
        <time>2022-12-29T12:34:12Z</time>
      </trkpt>
      <trkpt lat="45.00121" lon="6.12925">
        <ele>1698.2</ele>
        <time>2022-12-29T12:34:13Z</time>
      </trkpt>
      <trkpt lat="45.0012" lon="6.12926">
        <ele>1698.2</ele>
        <time>2022-12-29T12:34:14Z</time>
      </trkpt>
      <trkpt lat="45.0012" lon="6.12926">
        <ele>1698.2</ele>
        <time>2022-12-29T12:34:15Z</time>
      </trkpt>
      <trkpt lat="45.00119" lon="6.12927">
        <ele>1700</ele>
        <time>2022-12-29T12:34:16Z</time>
      </trkpt>
      <trkpt lat="45.00117" lon="6.12928">
        <ele>1700</ele>
        <time>2022-12-29T12:34:17Z</time>
      </trkpt>
      <trkpt lat="45.00117" lon="6.12929">
        <ele>1700</ele>
        <time>2022-12-29T12:34:18Z</time>
      </trkpt>
      <trkpt lat="45.00117" lon="6.12929">
        <ele>1700</ele>
        <time>2022-12-29T12:34:19Z</time>
      </trkpt>
      <trkpt lat="45.00117" lon="6.1293">
        <ele>1700</ele>
        <time>2022-12-29T12:34:20Z</time>
      </trkpt>
      <trkpt lat="45.00117" lon="6.1293">
        <ele>1700</ele>
        <time>2022-12-29T12:34:21Z</time>
      </trkpt>
      <trkpt lat="45.00116" lon="6.12931">
        <ele>1700</ele>
        <time>2022-12-29T12:34:22Z</time>
      </trkpt>
      <trkpt lat="45.00116" lon="6.12931">
        <ele>1700</ele>
        <time>2022-12-29T12:34:23Z</time>
      </trkpt>
      <trkpt lat="45.00116" lon="6.12931">
        <ele>1700</ele>
        <time>2022-12-29T12:34:24Z</time>
      </trkpt>
      <trkpt lat="45.00116" lon="6.12932">
        <ele>1700</ele>
        <time>2022-12-29T12:34:25Z</time>
      </trkpt>
      <trkpt lat="45.00116" lon="6.12932">
        <ele>1701.2</ele>
        <time>2022-12-29T12:34:26Z</time>
      </trkpt>
      <trkpt lat="45.00116" lon="6.12933">
        <ele>1701.2</ele>
        <time>2022-12-29T12:34:27Z</time>
      </trkpt>
      <trkpt lat="45.00117" lon="6.12934">
        <ele>1701.2</ele>
        <time>2022-12-29T12:34:28Z</time>
      </trkpt>
      <trkpt lat="45.00117" lon="6.12935">
        <ele>1701.2</ele>
        <time>2022-12-29T12:34:29Z</time>
      </trkpt>
      <trkpt lat="45.00117" lon="6.12935">
        <ele>1701.2</ele>
        <time>2022-12-29T12:34:30Z</time>
      </trkpt>
      <trkpt lat="45.00118" lon="6.12936">
        <ele>1701.2</ele>
        <time>2022-12-29T12:34:31Z</time>
      </trkpt>
      <trkpt lat="45.00118" lon="6.12937">
        <ele>1701.2</ele>
        <time>2022-12-29T12:34:32Z</time>
      </trkpt>
      <trkpt lat="45.00119" lon="6.12938">
        <ele>1701.2</ele>
        <time>2022-12-29T12:34:33Z</time>
      </trkpt>
      <trkpt lat="45.00119" lon="6.12938">
        <ele>1701.2</ele>
        <time>2022-12-29T12:34:34Z</time>
      </trkpt>
      <trkpt lat="45.0012" lon="6.12939">
        <ele>1701.2</ele>
        <time>2022-12-29T12:34:35Z</time>
      </trkpt>
      <trkpt lat="45.0012" lon="6.1294">
        <ele>1703</ele>
        <time>2022-12-29T12:34:36Z</time>
      </trkpt>
      <trkpt lat="45.00121" lon="6.1294">
        <ele>1703</ele>
        <time>2022-12-29T12:34:37Z</time>
      </trkpt>
      <trkpt lat="45.00121" lon="6.12941">
        <ele>1703</ele>
        <time>2022-12-29T12:34:38Z</time>
      </trkpt>
      <trkpt lat="45.00122" lon="6.12941">
        <ele>1703</ele>
        <time>2022-12-29T12:34:39Z</time>
      </trkpt>
      <trkpt lat="45.00122" lon="6.12942">
        <ele>1703</ele>
        <time>2022-12-29T12:34:40Z</time>
      </trkpt>
      <trkpt lat="45.00123" lon="6.12942">
        <ele>1703</ele>
        <time>2022-12-29T12:34:41Z</time>
      </trkpt>
      <trkpt lat="45.00123" lon="6.12943">
        <ele>1703</ele>
        <time>2022-12-29T12:34:42Z</time>
      </trkpt>
      <trkpt lat="45.00124" lon="6.12943">
        <ele>1703</ele>
        <time>2022-12-29T12:34:43Z</time>
      </trkpt>
      <trkpt lat="45.00124" lon="6.12944">
        <ele>1703</ele>
        <time>2022-12-29T12:34:44Z</time>
      </trkpt>
      <trkpt lat="45.00125" lon="6.12945">
        <ele>1703</ele>
        <time>2022-12-29T12:34:45Z</time>
      </trkpt>
      <trkpt lat="45.00125" lon="6.12945">
        <ele>1705.2</ele>
        <time>2022-12-29T12:34:46Z</time>
      </trkpt>
      <trkpt lat="45.00126" lon="6.12947">
        <ele>1705.2</ele>
        <time>2022-12-29T12:34:47Z</time>
      </trkpt>
      <trkpt lat="45.00125" lon="6.12948">
        <ele>1705.2</ele>
        <time>2022-12-29T12:34:48Z</time>
      </trkpt>
      <trkpt lat="45.00125" lon="6.12948">
        <ele>1705.2</ele>
        <time>2022-12-29T12:34:49Z</time>
      </trkpt>
      <trkpt lat="45.00125" lon="6.12949">
        <ele>1705.2</ele>
        <time>2022-12-29T12:34:50Z</time>
      </trkpt>
      <trkpt lat="45.00124" lon="6.12949">
        <ele>1705.2</ele>
        <time>2022-12-29T12:34:51Z</time>
      </trkpt>
      <trkpt lat="45.00124" lon="6.12949">
        <ele>1705.2</ele>
        <time>2022-12-29T12:34:52Z</time>
      </trkpt>
      <trkpt lat="45.00123" lon="6.1295">
        <ele>1705.2</ele>
        <time>2022-12-29T12:34:53Z</time>
      </trkpt>
      <trkpt lat="45.00123" lon="6.1295">
        <ele>1705.2</ele>
        <time>2022-12-29T12:34:54Z</time>
      </trkpt>
      <trkpt lat="45.00122" lon="6.1295">
        <ele>1705.2</ele>
        <time>2022-12-29T12:34:55Z</time>
      </trkpt>
      <trkpt lat="45.00122" lon="6.12951">
        <ele>1707.6</ele>
        <time>2022-12-29T12:34:56Z</time>
      </trkpt>
      <trkpt lat="45.00121" lon="6.1295">
        <ele>1707.6</ele>
        <time>2022-12-29T12:34:57Z</time>
      </trkpt>
      <trkpt lat="45.0012" lon="6.1295">
        <ele>1707.6</ele>
        <time>2022-12-29T12:34:58Z</time>
      </trkpt>
      <trkpt lat="45.00119" lon="6.12949">
        <ele>1707.6</ele>
        <time>2022-12-29T12:34:59Z</time>
      </trkpt>
      <trkpt lat="45.00118" lon="6.12949">
        <ele>1707.6</ele>
        <time>2022-12-29T12:35:00Z</time>
      </trkpt>
      <trkpt lat="45.00117" lon="6.12949">
        <ele>1707.6</ele>
        <time>2022-12-29T12:35:01Z</time>
      </trkpt>
      <trkpt lat="45.00117" lon="6.12948">
        <ele>1707.6</ele>
        <time>2022-12-29T12:35:02Z</time>
      </trkpt>
      <trkpt lat="45.00116" lon="6.12948">
        <ele>1707.6</ele>
        <time>2022-12-29T12:35:03Z</time>
      </trkpt>
      <trkpt lat="45.00115" lon="6.12947">
        <ele>1707.6</ele>
        <time>2022-12-29T12:35:04Z</time>
      </trkpt>
      <trkpt lat="45.00114" lon="6.12947">
        <ele>1707.6</ele>
        <time>2022-12-29T12:35:05Z</time>
      </trkpt>
      <trkpt lat="45.00113" lon="6.12947">
        <ele>1708.6</ele>
        <time>2022-12-29T12:35:06Z</time>
      </trkpt>
      <trkpt lat="45.00113" lon="6.12946">
        <ele>1708.6</ele>
        <time>2022-12-29T12:35:07Z</time>
      </trkpt>
      <trkpt lat="45.00112" lon="6.12945">
        <ele>1708.6</ele>
        <time>2022-12-29T12:35:08Z</time>
      </trkpt>
      <trkpt lat="45.00111" lon="6.12945">
        <ele>1708.6</ele>
        <time>2022-12-29T12:35:09Z</time>
      </trkpt>
      <trkpt lat="45.00111" lon="6.12944">
        <ele>1708.6</ele>
        <time>2022-12-29T12:35:10Z</time>
      </trkpt>
      <trkpt lat="45.0011" lon="6.12943">
        <ele>1708.6</ele>
        <time>2022-12-29T12:35:11Z</time>
      </trkpt>
      <trkpt lat="45.00109" lon="6.12943">
        <ele>1708.6</ele>
        <time>2022-12-29T12:35:12Z</time>
      </trkpt>
      <trkpt lat="45.00109" lon="6.12942">
        <ele>1708.6</ele>
        <time>2022-12-29T12:35:13Z</time>
      </trkpt>
      <trkpt lat="45.00108" lon="6.12942">
        <ele>1708.6</ele>
        <time>2022-12-29T12:35:14Z</time>
      </trkpt>
      <trkpt lat="45.00107" lon="6.12941">
        <ele>1708.6</ele>
        <time>2022-12-29T12:35:15Z</time>
      </trkpt>
      <trkpt lat="45.00107" lon="6.1294">
        <ele>1709.4</ele>
        <time>2022-12-29T12:35:16Z</time>
      </trkpt>
      <trkpt lat="45.00104" lon="6.12939">
        <ele>1709.4</ele>
        <time>2022-12-29T12:35:17Z</time>
      </trkpt>
      <trkpt lat="45.00103" lon="6.12938">
        <ele>1709.4</ele>
        <time>2022-12-29T12:35:18Z</time>
      </trkpt>
      <trkpt lat="45.00103" lon="6.12938">
        <ele>1709.4</ele>
        <time>2022-12-29T12:35:19Z</time>
      </trkpt>
      <trkpt lat="45.00102" lon="6.12938">
        <ele>1709.4</ele>
        <time>2022-12-29T12:35:20Z</time>
      </trkpt>
      <trkpt lat="45.00101" lon="6.12938">
        <ele>1709.4</ele>
        <time>2022-12-29T12:35:21Z</time>
      </trkpt>
      <trkpt lat="45.00101" lon="6.12937">
        <ele>1709.4</ele>
        <time>2022-12-29T12:35:22Z</time>
      </trkpt>
      <trkpt lat="45.001" lon="6.12937">
        <ele>1709.4</ele>
        <time>2022-12-29T12:35:23Z</time>
      </trkpt>
      <trkpt lat="45.00099" lon="6.12937">
        <ele>1709.4</ele>
        <time>2022-12-29T12:35:24Z</time>
      </trkpt>
      <trkpt lat="45.00099" lon="6.12937">
        <ele>1709.4</ele>
        <time>2022-12-29T12:35:25Z</time>
      </trkpt>
      <trkpt lat="45.00098" lon="6.12937">
        <ele>1710.4</ele>
        <time>2022-12-29T12:35:26Z</time>
      </trkpt>
      <trkpt lat="45.00098" lon="6.12937">
        <ele>1710.4</ele>
        <time>2022-12-29T12:35:27Z</time>
      </trkpt>
      <trkpt lat="45.00097" lon="6.12937">
        <ele>1710.4</ele>
        <time>2022-12-29T12:35:28Z</time>
      </trkpt>
      <trkpt lat="45.00097" lon="6.12937">
        <ele>1710.4</ele>
        <time>2022-12-29T12:35:29Z</time>
      </trkpt>
      <trkpt lat="45.00097" lon="6.12937">
        <ele>1710.4</ele>
        <time>2022-12-29T12:35:30Z</time>
      </trkpt>
      <trkpt lat="45.00097" lon="6.12937">
        <ele>1710.4</ele>
        <time>2022-12-29T12:35:31Z</time>
      </trkpt>
      <trkpt lat="45.00097" lon="6.12937">
        <ele>1710.4</ele>
        <time>2022-12-29T12:35:32Z</time>
      </trkpt>
      <trkpt lat="45.00096" lon="6.12938">
        <ele>1710.4</ele>
        <time>2022-12-29T12:35:33Z</time>
      </trkpt>
      <trkpt lat="45.00096" lon="6.12938">
        <ele>1710.4</ele>
        <time>2022-12-29T12:35:34Z</time>
      </trkpt>
      <trkpt lat="45.00096" lon="6.12938">
        <ele>1710.4</ele>
        <time>2022-12-29T12:35:35Z</time>
      </trkpt>
      <trkpt lat="45.00096" lon="6.12938">
        <ele>1710.8</ele>
        <time>2022-12-29T12:35:36Z</time>
      </trkpt>
      <trkpt lat="45.00095" lon="6.12938">
        <ele>1710.8</ele>
        <time>2022-12-29T12:35:37Z</time>
      </trkpt>
      <trkpt lat="45.00095" lon="6.12938">
        <ele>1710.8</ele>
        <time>2022-12-29T12:35:38Z</time>
      </trkpt>
      <trkpt lat="45.00095" lon="6.12939">
        <ele>1710.8</ele>
        <time>2022-12-29T12:35:39Z</time>
      </trkpt>
      <trkpt lat="45.00095" lon="6.12939">
        <ele>1710.8</ele>
        <time>2022-12-29T12:35:40Z</time>
      </trkpt>
      <trkpt lat="45.00094" lon="6.12939">
        <ele>1710.8</ele>
        <time>2022-12-29T12:35:41Z</time>
      </trkpt>
      <trkpt lat="45.00094" lon="6.12939">
        <ele>1710.8</ele>
        <time>2022-12-29T12:35:42Z</time>
      </trkpt>
      <trkpt lat="45.00094" lon="6.12939">
        <ele>1710.8</ele>
        <time>2022-12-29T12:35:43Z</time>
      </trkpt>
      <trkpt lat="45.00094" lon="6.12939">
        <ele>1710.8</ele>
        <time>2022-12-29T12:35:44Z</time>
      </trkpt>
      <trkpt lat="45.00093" lon="6.12939">
        <ele>1710.8</ele>
        <time>2022-12-29T12:35:45Z</time>
      </trkpt>
      <trkpt lat="45.00093" lon="6.1294">
        <ele>1711.6</ele>
        <time>2022-12-29T12:35:46Z</time>
      </trkpt>
      <trkpt lat="45.00093" lon="6.12941">
        <ele>1711.6</ele>
        <time>2022-12-29T12:35:47Z</time>
      </trkpt>
      <trkpt lat="45.00094" lon="6.12942">
        <ele>1711.6</ele>
        <time>2022-12-29T12:35:48Z</time>
      </trkpt>
      <trkpt lat="45.00094" lon="6.12943">
        <ele>1711.6</ele>
        <time>2022-12-29T12:35:49Z</time>
      </trkpt>
      <trkpt lat="45.00094" lon="6.12945">
        <ele>1711.6</ele>
        <time>2022-12-29T12:35:50Z</time>
      </trkpt>
      <trkpt lat="45.00095" lon="6.12946">
        <ele>1711.6</ele>
        <time>2022-12-29T12:35:51Z</time>
      </trkpt>
      <trkpt lat="45.00095" lon="6.12947">
        <ele>1711.6</ele>
        <time>2022-12-29T12:35:52Z</time>
      </trkpt>
      <trkpt lat="45.00095" lon="6.12948">
        <ele>1711.6</ele>
        <time>2022-12-29T12:35:53Z</time>
      </trkpt>
      <trkpt lat="45.00095" lon="6.1295">
        <ele>1711.6</ele>
        <time>2022-12-29T12:35:54Z</time>
      </trkpt>
      <trkpt lat="45.00096" lon="6.12951">
        <ele>1711.6</ele>
        <time>2022-12-29T12:35:55Z</time>
      </trkpt>
      <trkpt lat="45.00096" lon="6.12952">
        <ele>1712.2</ele>
        <time>2022-12-29T12:35:56Z</time>
      </trkpt>
      <trkpt lat="45.00096" lon="6.12953">
        <ele>1712.2</ele>
        <time>2022-12-29T12:35:57Z</time>
      </trkpt>
      <trkpt lat="45.00097" lon="6.12954">
        <ele>1712.2</ele>
        <time>2022-12-29T12:35:58Z</time>
      </trkpt>
      <trkpt lat="45.00097" lon="6.12955">
        <ele>1712.2</ele>
        <time>2022-12-29T12:35:59Z</time>
      </trkpt>
      <trkpt lat="45.00097" lon="6.12956">
        <ele>1712.2</ele>
        <time>2022-12-29T12:36:00Z</time>
      </trkpt>
      <trkpt lat="45.00097" lon="6.12957">
        <ele>1712.2</ele>
        <time>2022-12-29T12:36:01Z</time>
      </trkpt>
      <trkpt lat="45.00098" lon="6.12958">
        <ele>1712.2</ele>
        <time>2022-12-29T12:36:02Z</time>
      </trkpt>
      <trkpt lat="45.00098" lon="6.12959">
        <ele>1712.2</ele>
        <time>2022-12-29T12:36:03Z</time>
      </trkpt>
      <trkpt lat="45.00098" lon="6.1296">
        <ele>1712.2</ele>
        <time>2022-12-29T12:36:04Z</time>
      </trkpt>
      <trkpt lat="45.00099" lon="6.12961">
        <ele>1712.2</ele>
        <time>2022-12-29T12:36:05Z</time>
      </trkpt>
      <trkpt lat="45.00099" lon="6.12962">
        <ele>1713.6</ele>
        <time>2022-12-29T12:36:06Z</time>
      </trkpt>
      <trkpt lat="45.00101" lon="6.12966">
        <ele>1713.6</ele>
        <time>2022-12-29T12:36:07Z</time>
      </trkpt>
      <trkpt lat="45.00101" lon="6.12967">
        <ele>1713.6</ele>
        <time>2022-12-29T12:36:08Z</time>
      </trkpt>
      <trkpt lat="45.00102" lon="6.12968">
        <ele>1713.6</ele>
        <time>2022-12-29T12:36:09Z</time>
      </trkpt>
      <trkpt lat="45.00102" lon="6.12969">
        <ele>1713.6</ele>
        <time>2022-12-29T12:36:10Z</time>
      </trkpt>
      <trkpt lat="45.00103" lon="6.12969">
        <ele>1713.6</ele>
        <time>2022-12-29T12:36:11Z</time>
      </trkpt>
      <trkpt lat="45.00103" lon="6.1297">
        <ele>1713.6</ele>
        <time>2022-12-29T12:36:12Z</time>
      </trkpt>
      <trkpt lat="45.00103" lon="6.12971">
        <ele>1713.6</ele>
        <time>2022-12-29T12:36:13Z</time>
      </trkpt>
      <trkpt lat="45.00104" lon="6.12972">
        <ele>1713.6</ele>
        <time>2022-12-29T12:36:14Z</time>
      </trkpt>
      <trkpt lat="45.00104" lon="6.12973">
        <ele>1713.6</ele>
        <time>2022-12-29T12:36:15Z</time>
      </trkpt>
      <trkpt lat="45.00105" lon="6.12973">
        <ele>1715.6</ele>
        <time>2022-12-29T12:36:16Z</time>
      </trkpt>
      <trkpt lat="45.00105" lon="6.12974">
        <ele>1715.6</ele>
        <time>2022-12-29T12:36:17Z</time>
      </trkpt>
      <trkpt lat="45.00106" lon="6.12975">
        <ele>1715.6</ele>
        <time>2022-12-29T12:36:18Z</time>
      </trkpt>
      <trkpt lat="45.00106" lon="6.12976">
        <ele>1715.6</ele>
        <time>2022-12-29T12:36:19Z</time>
      </trkpt>
      <trkpt lat="45.00106" lon="6.12977">
        <ele>1715.6</ele>
        <time>2022-12-29T12:36:20Z</time>
      </trkpt>
      <trkpt lat="45.00107" lon="6.12978">
        <ele>1715.6</ele>
        <time>2022-12-29T12:36:21Z</time>
      </trkpt>
      <trkpt lat="45.00107" lon="6.12979">
        <ele>1715.6</ele>
        <time>2022-12-29T12:36:22Z</time>
      </trkpt>
      <trkpt lat="45.00108" lon="6.1298">
        <ele>1715.6</ele>
        <time>2022-12-29T12:36:23Z</time>
      </trkpt>
      <trkpt lat="45.00108" lon="6.12981">
        <ele>1715.6</ele>
        <time>2022-12-29T12:36:24Z</time>
      </trkpt>
      <trkpt lat="45.00109" lon="6.12981">
        <ele>1715.6</ele>
        <time>2022-12-29T12:36:25Z</time>
      </trkpt>
      <trkpt lat="45.00109" lon="6.12982">
        <ele>1717.6</ele>
        <time>2022-12-29T12:36:26Z</time>
      </trkpt>
      <trkpt lat="45.00109" lon="6.12983">
        <ele>1717.6</ele>
        <time>2022-12-29T12:36:27Z</time>
      </trkpt>
      <trkpt lat="45.00109" lon="6.12983">
        <ele>1717.6</ele>
        <time>2022-12-29T12:36:28Z</time>
      </trkpt>
      <trkpt lat="45.00109" lon="6.12984">
        <ele>1717.6</ele>
        <time>2022-12-29T12:36:29Z</time>
      </trkpt>
      <trkpt lat="45.00109" lon="6.12984">
        <ele>1717.6</ele>
        <time>2022-12-29T12:36:30Z</time>
      </trkpt>
      <trkpt lat="45.00108" lon="6.12985">
        <ele>1717.6</ele>
        <time>2022-12-29T12:36:31Z</time>
      </trkpt>
      <trkpt lat="45.00108" lon="6.12985">
        <ele>1717.6</ele>
        <time>2022-12-29T12:36:32Z</time>
      </trkpt>
      <trkpt lat="45.00108" lon="6.12986">
        <ele>1717.6</ele>
        <time>2022-12-29T12:36:33Z</time>
      </trkpt>
      <trkpt lat="45.00108" lon="6.12987">
        <ele>1717.6</ele>
        <time>2022-12-29T12:36:34Z</time>
      </trkpt>
      <trkpt lat="45.00108" lon="6.12987">
        <ele>1717.6</ele>
        <time>2022-12-29T12:36:35Z</time>
      </trkpt>
      <trkpt lat="45.00108" lon="6.12988">
        <ele>1720.2</ele>
        <time>2022-12-29T12:36:36Z</time>
      </trkpt>
      <trkpt lat="45.00108" lon="6.12988">
        <ele>1720.2</ele>
        <time>2022-12-29T12:36:37Z</time>
      </trkpt>
      <trkpt lat="45.00108" lon="6.12988">
        <ele>1720.2</ele>
        <time>2022-12-29T12:36:38Z</time>
      </trkpt>
      <trkpt lat="45.00106" lon="6.12987">
        <ele>1720.2</ele>
        <time>2022-12-29T12:36:39Z</time>
      </trkpt>
      <trkpt lat="45.00106" lon="6.12987">
        <ele>1720.2</ele>
        <time>2022-12-29T12:36:40Z</time>
      </trkpt>
      <trkpt lat="45.00106" lon="6.12987">
        <ele>1720.2</ele>
        <time>2022-12-29T12:36:41Z</time>
      </trkpt>
      <trkpt lat="45.00103" lon="6.12987">
        <ele>1720.2</ele>
        <time>2022-12-29T12:36:42Z</time>
      </trkpt>
      <trkpt lat="45.00103" lon="6.12987">
        <ele>1720.2</ele>
        <time>2022-12-29T12:36:43Z</time>
      </trkpt>
      <trkpt lat="45.00103" lon="6.12987">
        <ele>1720.2</ele>
        <time>2022-12-29T12:36:44Z</time>
      </trkpt>
      <trkpt lat="45.00103" lon="6.12987">
        <ele>1721.8</ele>
        <time>2022-12-29T12:36:46Z</time>
      </trkpt>
      <trkpt lat="45.00101" lon="6.12987">
        <ele>1721.8</ele>
        <time>2022-12-29T12:36:48Z</time>
      </trkpt>
      <trkpt lat="45.001" lon="6.12987">
        <ele>1721.8</ele>
        <time>2022-12-29T12:36:50Z</time>
      </trkpt>
      <trkpt lat="45.001" lon="6.12987">
        <ele>1721.8</ele>
        <time>2022-12-29T12:36:51Z</time>
      </trkpt>
      <trkpt lat="45.00099" lon="6.12986">
        <ele>1721.8</ele>
        <time>2022-12-29T12:36:52Z</time>
      </trkpt>
      <trkpt lat="45.00099" lon="6.12986">
        <ele>1721.8</ele>
        <time>2022-12-29T12:36:53Z</time>
      </trkpt>
      <trkpt lat="45.00098" lon="6.12986">
        <ele>1721.8</ele>
        <time>2022-12-29T12:36:54Z</time>
      </trkpt>
      <trkpt lat="45.00098" lon="6.12986">
        <ele>1721.8</ele>
        <time>2022-12-29T12:36:55Z</time>
      </trkpt>
      <trkpt lat="45.00097" lon="6.12986">
        <ele>1722.6</ele>
        <time>2022-12-29T12:36:56Z</time>
      </trkpt>
      <trkpt lat="45.00098" lon="6.12986">
        <ele>1722.6</ele>
        <time>2022-12-29T12:37:02Z</time>
      </trkpt>
      <trkpt lat="45.00098" lon="6.12987">
        <ele>1722.6</ele>
        <time>2022-12-29T12:37:03Z</time>
      </trkpt>
      <trkpt lat="45.00098" lon="6.12987">
        <ele>1722.6</ele>
        <time>2022-12-29T12:37:04Z</time>
      </trkpt>
      <trkpt lat="45.00098" lon="6.12987">
        <ele>1722.6</ele>
        <time>2022-12-29T12:37:05Z</time>
      </trkpt>
      <trkpt lat="45.00099" lon="6.12987">
        <ele>1721.8</ele>
        <time>2022-12-29T12:37:06Z</time>
      </trkpt>
      <trkpt lat="45.00099" lon="6.12987">
        <ele>1721.8</ele>
        <time>2022-12-29T12:37:07Z</time>
      </trkpt>
      <trkpt lat="45.00099" lon="6.12988">
        <ele>1721.8</ele>
        <time>2022-12-29T12:37:08Z</time>
      </trkpt>
      <trkpt lat="45.00099" lon="6.12988">
        <ele>1721.8</ele>
        <time>2022-12-29T12:37:09Z</time>
      </trkpt>
      <trkpt lat="45.00099" lon="6.12988">
        <ele>1721.8</ele>
        <time>2022-12-29T12:37:10Z</time>
      </trkpt>
      <trkpt lat="45.001" lon="6.12988">
        <ele>1721.8</ele>
        <time>2022-12-29T12:37:11Z</time>
      </trkpt>
      <trkpt lat="45.001" lon="6.12989">
        <ele>1721.8</ele>
        <time>2022-12-29T12:37:12Z</time>
      </trkpt>
      <trkpt lat="45.001" lon="6.12989">
        <ele>1721.8</ele>
        <time>2022-12-29T12:37:13Z</time>
      </trkpt>
      <trkpt lat="45.001" lon="6.12989">
        <ele>1721.8</ele>
        <time>2022-12-29T12:37:14Z</time>
      </trkpt>
      <trkpt lat="45.00101" lon="6.12989">
        <ele>1721.8</ele>
        <time>2022-12-29T12:37:15Z</time>
      </trkpt>
      <trkpt lat="45.00101" lon="6.12989">
        <ele>1722.2</ele>
        <time>2022-12-29T12:37:16Z</time>
      </trkpt>
      <trkpt lat="45.00103" lon="6.12992">
        <ele>1722.2</ele>
        <time>2022-12-29T12:37:17Z</time>
      </trkpt>
      <trkpt lat="45.00103" lon="6.12993">
        <ele>1722.2</ele>
        <time>2022-12-29T12:37:18Z</time>
      </trkpt>
      <trkpt lat="45.00104" lon="6.12993">
        <ele>1722.2</ele>
        <time>2022-12-29T12:37:19Z</time>
      </trkpt>
      <trkpt lat="45.00104" lon="6.12994">
        <ele>1722.2</ele>
        <time>2022-12-29T12:37:20Z</time>
      </trkpt>
      <trkpt lat="45.00105" lon="6.12994">
        <ele>1722.2</ele>
        <time>2022-12-29T12:37:21Z</time>
      </trkpt>
      <trkpt lat="45.00106" lon="6.12995">
        <ele>1722.2</ele>
        <time>2022-12-29T12:37:22Z</time>
      </trkpt>
      <trkpt lat="45.00106" lon="6.12996">
        <ele>1722.2</ele>
        <time>2022-12-29T12:37:23Z</time>
      </trkpt>
      <trkpt lat="45.00107" lon="6.12996">
        <ele>1722.2</ele>
        <time>2022-12-29T12:37:24Z</time>
      </trkpt>
      <trkpt lat="45.00107" lon="6.12997">
        <ele>1722.2</ele>
        <time>2022-12-29T12:37:25Z</time>
      </trkpt>
      <trkpt lat="45.00108" lon="6.12998">
        <ele>1724.4</ele>
        <time>2022-12-29T12:37:26Z</time>
      </trkpt>
      <trkpt lat="45.00108" lon="6.12998">
        <ele>1724.4</ele>
        <time>2022-12-29T12:37:27Z</time>
      </trkpt>
      <trkpt lat="45.00109" lon="6.12999">
        <ele>1724.4</ele>
        <time>2022-12-29T12:37:28Z</time>
      </trkpt>
      <trkpt lat="45.00109" lon="6.13">
        <ele>1724.4</ele>
        <time>2022-12-29T12:37:29Z</time>
      </trkpt>
      <trkpt lat="45.0011" lon="6.13">
        <ele>1724.4</ele>
        <time>2022-12-29T12:37:30Z</time>
      </trkpt>
      <trkpt lat="45.0011" lon="6.13001">
        <ele>1724.4</ele>
        <time>2022-12-29T12:37:31Z</time>
      </trkpt>
      <trkpt lat="45.0011" lon="6.13001">
        <ele>1724.4</ele>
        <time>2022-12-29T12:37:32Z</time>
      </trkpt>
      <trkpt lat="45.00111" lon="6.13002">
        <ele>1724.4</ele>
        <time>2022-12-29T12:37:33Z</time>
      </trkpt>
      <trkpt lat="45.00111" lon="6.13003">
        <ele>1724.4</ele>
        <time>2022-12-29T12:37:34Z</time>
      </trkpt>
      <trkpt lat="45.00112" lon="6.13003">
        <ele>1724.4</ele>
        <time>2022-12-29T12:37:35Z</time>
      </trkpt>
      <trkpt lat="45.00112" lon="6.13004">
        <ele>1725.8</ele>
        <time>2022-12-29T12:37:36Z</time>
      </trkpt>
      <trkpt lat="45.00113" lon="6.13006">
        <ele>1725.8</ele>
        <time>2022-12-29T12:37:37Z</time>
      </trkpt>
      <trkpt lat="45.00114" lon="6.13007">
        <ele>1725.8</ele>
        <time>2022-12-29T12:37:38Z</time>
      </trkpt>
      <trkpt lat="45.00114" lon="6.13007">
        <ele>1725.8</ele>
        <time>2022-12-29T12:37:39Z</time>
      </trkpt>
      <trkpt lat="45.00114" lon="6.13008">
        <ele>1725.8</ele>
        <time>2022-12-29T12:37:40Z</time>
      </trkpt>
      <trkpt lat="45.00114" lon="6.13008">
        <ele>1725.8</ele>
        <time>2022-12-29T12:37:41Z</time>
      </trkpt>
      <trkpt lat="45.00115" lon="6.13009">
        <ele>1725.8</ele>
        <time>2022-12-29T12:37:42Z</time>
      </trkpt>
      <trkpt lat="45.00115" lon="6.13009">
        <ele>1725.8</ele>
        <time>2022-12-29T12:37:43Z</time>
      </trkpt>
      <trkpt lat="45.00115" lon="6.1301">
        <ele>1725.8</ele>
        <time>2022-12-29T12:37:44Z</time>
      </trkpt>
      <trkpt lat="45.00116" lon="6.1301">
        <ele>1725.8</ele>
        <time>2022-12-29T12:37:45Z</time>
      </trkpt>
      <trkpt lat="45.00116" lon="6.13011">
        <ele>1727.4</ele>
        <time>2022-12-29T12:37:46Z</time>
      </trkpt>
      <trkpt lat="45.00117" lon="6.13012">
        <ele>1727.4</ele>
        <time>2022-12-29T12:37:47Z</time>
      </trkpt>
      <trkpt lat="45.00117" lon="6.13012">
        <ele>1727.4</ele>
        <time>2022-12-29T12:37:48Z</time>
      </trkpt>
      <trkpt lat="45.00118" lon="6.13013">
        <ele>1727.4</ele>
        <time>2022-12-29T12:37:49Z</time>
      </trkpt>
      <trkpt lat="45.00119" lon="6.13014">
        <ele>1727.4</ele>
        <time>2022-12-29T12:37:50Z</time>
      </trkpt>
      <trkpt lat="45.00119" lon="6.13015">
        <ele>1727.4</ele>
        <time>2022-12-29T12:37:51Z</time>
      </trkpt>
      <trkpt lat="45.0012" lon="6.13015">
        <ele>1727.4</ele>
        <time>2022-12-29T12:37:52Z</time>
      </trkpt>
      <trkpt lat="45.00121" lon="6.13016">
        <ele>1727.4</ele>
        <time>2022-12-29T12:37:53Z</time>
      </trkpt>
      <trkpt lat="45.00121" lon="6.13017">
        <ele>1727.4</ele>
        <time>2022-12-29T12:37:54Z</time>
      </trkpt>
      <trkpt lat="45.00122" lon="6.13017">
        <ele>1727.4</ele>
        <time>2022-12-29T12:37:55Z</time>
      </trkpt>
      <trkpt lat="45.00123" lon="6.13018">
        <ele>1728.8</ele>
        <time>2022-12-29T12:37:56Z</time>
      </trkpt>
      <trkpt lat="45.00123" lon="6.13018">
        <ele>1728.8</ele>
        <time>2022-12-29T12:37:57Z</time>
      </trkpt>
      <trkpt lat="45.00123" lon="6.13018">
        <ele>1728.8</ele>
        <time>2022-12-29T12:38:00Z</time>
      </trkpt>
      <trkpt lat="45.00123" lon="6.13018">
        <ele>1728.8</ele>
        <time>2022-12-29T12:38:01Z</time>
      </trkpt>
      <trkpt lat="45.00121" lon="6.1302">
        <ele>1728.8</ele>
        <time>2022-12-29T12:38:02Z</time>
      </trkpt>
      <trkpt lat="45.00121" lon="6.1302">
        <ele>1728.8</ele>
        <time>2022-12-29T12:38:03Z</time>
      </trkpt>
      <trkpt lat="45.00121" lon="6.1302">
        <ele>1728.8</ele>
        <time>2022-12-29T12:38:04Z</time>
      </trkpt>
      <trkpt lat="45.00119" lon="6.13019">
        <ele>1728.8</ele>
        <time>2022-12-29T12:38:05Z</time>
      </trkpt>
      <trkpt lat="45.00119" lon="6.13019">
        <ele>1731.6</ele>
        <time>2022-12-29T12:38:06Z</time>
      </trkpt>
      <trkpt lat="45.00118" lon="6.13019">
        <ele>1731.6</ele>
        <time>2022-12-29T12:38:07Z</time>
      </trkpt>
      <trkpt lat="45.00117" lon="6.1302">
        <ele>1731.6</ele>
        <time>2022-12-29T12:38:08Z</time>
      </trkpt>
      <trkpt lat="45.00117" lon="6.1302">
        <ele>1731.6</ele>
        <time>2022-12-29T12:38:09Z</time>
      </trkpt>
      <trkpt lat="45.00116" lon="6.1302">
        <ele>1731.6</ele>
        <time>2022-12-29T12:38:10Z</time>
      </trkpt>
      <trkpt lat="45.00115" lon="6.1302">
        <ele>1731.6</ele>
        <time>2022-12-29T12:38:11Z</time>
      </trkpt>
      <trkpt lat="45.00115" lon="6.1302">
        <ele>1731.6</ele>
        <time>2022-12-29T12:38:12Z</time>
      </trkpt>
      <trkpt lat="45.00114" lon="6.1302">
        <ele>1731.6</ele>
        <time>2022-12-29T12:38:13Z</time>
      </trkpt>
      <trkpt lat="45.00113" lon="6.1302">
        <ele>1731.6</ele>
        <time>2022-12-29T12:38:14Z</time>
      </trkpt>
      <trkpt lat="45.00113" lon="6.1302">
        <ele>1731.6</ele>
        <time>2022-12-29T12:38:15Z</time>
      </trkpt>
      <trkpt lat="45.00112" lon="6.1302">
        <ele>1732.4</ele>
        <time>2022-12-29T12:38:16Z</time>
      </trkpt>
      <trkpt lat="45.00109" lon="6.1302">
        <ele>1732.4</ele>
        <time>2022-12-29T12:38:17Z</time>
      </trkpt>
      <trkpt lat="45.00109" lon="6.1302">
        <ele>1732.4</ele>
        <time>2022-12-29T12:38:18Z</time>
      </trkpt>
      <trkpt lat="45.00108" lon="6.1302">
        <ele>1732.4</ele>
        <time>2022-12-29T12:38:19Z</time>
      </trkpt>
      <trkpt lat="45.00107" lon="6.1302">
        <ele>1732.4</ele>
        <time>2022-12-29T12:38:20Z</time>
      </trkpt>
      <trkpt lat="45.00107" lon="6.1302">
        <ele>1732.4</ele>
        <time>2022-12-29T12:38:21Z</time>
      </trkpt>
      <trkpt lat="45.00106" lon="6.1302">
        <ele>1732.4</ele>
        <time>2022-12-29T12:38:22Z</time>
      </trkpt>
      <trkpt lat="45.00105" lon="6.1302">
        <ele>1732.4</ele>
        <time>2022-12-29T12:38:23Z</time>
      </trkpt>
      <trkpt lat="45.00105" lon="6.1302">
        <ele>1732.4</ele>
        <time>2022-12-29T12:38:24Z</time>
      </trkpt>
      <trkpt lat="45.00104" lon="6.13021">
        <ele>1732.4</ele>
        <time>2022-12-29T12:38:25Z</time>
      </trkpt>
      <trkpt lat="45.00103" lon="6.13021">
        <ele>1733.6</ele>
        <time>2022-12-29T12:38:26Z</time>
      </trkpt>
      <trkpt lat="45.00103" lon="6.13021">
        <ele>1733.6</ele>
        <time>2022-12-29T12:38:27Z</time>
      </trkpt>
      <trkpt lat="45.00102" lon="6.13021">
        <ele>1733.6</ele>
        <time>2022-12-29T12:38:28Z</time>
      </trkpt>
      <trkpt lat="45.00101" lon="6.13021">
        <ele>1733.6</ele>
        <time>2022-12-29T12:38:29Z</time>
      </trkpt>
      <trkpt lat="45.00101" lon="6.13021">
        <ele>1733.6</ele>
        <time>2022-12-29T12:38:30Z</time>
      </trkpt>
      <trkpt lat="45.001" lon="6.13021">
        <ele>1733.6</ele>
        <time>2022-12-29T12:38:31Z</time>
      </trkpt>
      <trkpt lat="45.001" lon="6.13021">
        <ele>1733.6</ele>
        <time>2022-12-29T12:38:32Z</time>
      </trkpt>
      <trkpt lat="45.00099" lon="6.13022">
        <ele>1733.6</ele>
        <time>2022-12-29T12:38:33Z</time>
      </trkpt>
      <trkpt lat="45.00098" lon="6.13022">
        <ele>1733.6</ele>
        <time>2022-12-29T12:38:34Z</time>
      </trkpt>
      <trkpt lat="45.00098" lon="6.13022">
        <ele>1733.6</ele>
        <time>2022-12-29T12:38:35Z</time>
      </trkpt>
      <trkpt lat="45.00097" lon="6.13022">
        <ele>1734.8</ele>
        <time>2022-12-29T12:38:36Z</time>
      </trkpt>
      <trkpt lat="45.00097" lon="6.13022">
        <ele>1734.8</ele>
        <time>2022-12-29T12:38:37Z</time>
      </trkpt>
      <trkpt lat="45.00097" lon="6.13022">
        <ele>1734.8</ele>
        <time>2022-12-29T12:38:38Z</time>
      </trkpt>
      <trkpt lat="45.00097" lon="6.13022">
        <ele>1734.8</ele>
        <time>2022-12-29T12:38:39Z</time>
      </trkpt>
      <trkpt lat="45.00097" lon="6.13022">
        <ele>1734.8</ele>
        <time>2022-12-29T12:38:40Z</time>
      </trkpt>
      <trkpt lat="45.00097" lon="6.13022">
        <ele>1734.8</ele>
        <time>2022-12-29T12:38:41Z</time>
      </trkpt>
      <trkpt lat="45.00097" lon="6.13022">
        <ele>1734.8</ele>
        <time>2022-12-29T12:38:42Z</time>
      </trkpt>
      <trkpt lat="45.00097" lon="6.13022">
        <ele>1734.8</ele>
        <time>2022-12-29T12:38:43Z</time>
      </trkpt>
      <trkpt lat="45.00096" lon="6.13025">
        <ele>1734.8</ele>
        <time>2022-12-29T12:38:44Z</time>
      </trkpt>
      <trkpt lat="45.00096" lon="6.13025">
        <ele>1734.8</ele>
        <time>2022-12-29T12:38:45Z</time>
      </trkpt>
      <trkpt lat="45.00098" lon="6.13027">
        <ele>1735.6</ele>
        <time>2022-12-29T12:38:46Z</time>
      </trkpt>
      <trkpt lat="45.00098" lon="6.13027">
        <ele>1735.6</ele>
        <time>2022-12-29T12:38:47Z</time>
      </trkpt>
      <trkpt lat="45.00099" lon="6.13028">
        <ele>1735.6</ele>
        <time>2022-12-29T12:38:48Z</time>
      </trkpt>
      <trkpt lat="45.00099" lon="6.13029">
        <ele>1735.6</ele>
        <time>2022-12-29T12:38:49Z</time>
      </trkpt>
      <trkpt lat="45.001" lon="6.13029">
        <ele>1735.6</ele>
        <time>2022-12-29T12:38:50Z</time>
      </trkpt>
      <trkpt lat="45.001" lon="6.1303">
        <ele>1735.6</ele>
        <time>2022-12-29T12:38:51Z</time>
      </trkpt>
      <trkpt lat="45.00101" lon="6.13031">
        <ele>1735.6</ele>
        <time>2022-12-29T12:38:52Z</time>
      </trkpt>
      <trkpt lat="45.00101" lon="6.13031">
        <ele>1735.6</ele>
        <time>2022-12-29T12:38:53Z</time>
      </trkpt>
      <trkpt lat="45.00102" lon="6.13032">
        <ele>1735.6</ele>
        <time>2022-12-29T12:38:54Z</time>
      </trkpt>
      <trkpt lat="45.00103" lon="6.13033">
        <ele>1735.6</ele>
        <time>2022-12-29T12:38:55Z</time>
      </trkpt>
      <trkpt lat="45.00103" lon="6.13034">
        <ele>1736.6</ele>
        <time>2022-12-29T12:38:56Z</time>
      </trkpt>
      <trkpt lat="45.00104" lon="6.13034">
        <ele>1736.6</ele>
        <time>2022-12-29T12:38:57Z</time>
      </trkpt>
      <trkpt lat="45.00104" lon="6.13034">
        <ele>1736.6</ele>
        <time>2022-12-29T12:38:58Z</time>
      </trkpt>
      <trkpt lat="45.00105" lon="6.13035">
        <ele>1736.6</ele>
        <time>2022-12-29T12:38:59Z</time>
      </trkpt>
      <trkpt lat="45.00105" lon="6.13035">
        <ele>1736.6</ele>
        <time>2022-12-29T12:39:00Z</time>
      </trkpt>
      <trkpt lat="45.00105" lon="6.13036">
        <ele>1736.6</ele>
        <time>2022-12-29T12:39:01Z</time>
      </trkpt>
      <trkpt lat="45.00106" lon="6.13036">
        <ele>1736.6</ele>
        <time>2022-12-29T12:39:02Z</time>
      </trkpt>
      <trkpt lat="45.00106" lon="6.13037">
        <ele>1736.6</ele>
        <time>2022-12-29T12:39:03Z</time>
      </trkpt>
      <trkpt lat="45.00107" lon="6.13037">
        <ele>1736.6</ele>
        <time>2022-12-29T12:39:04Z</time>
      </trkpt>
      <trkpt lat="45.00107" lon="6.13038">
        <ele>1736.6</ele>
        <time>2022-12-29T12:39:05Z</time>
      </trkpt>
      <trkpt lat="45.00108" lon="6.13038">
        <ele>1738.4</ele>
        <time>2022-12-29T12:39:06Z</time>
      </trkpt>
      <trkpt lat="45.00108" lon="6.13039">
        <ele>1738.4</ele>
        <time>2022-12-29T12:39:07Z</time>
      </trkpt>
      <trkpt lat="45.00109" lon="6.13039">
        <ele>1738.4</ele>
        <time>2022-12-29T12:39:08Z</time>
      </trkpt>
      <trkpt lat="45.00109" lon="6.1304">
        <ele>1738.4</ele>
        <time>2022-12-29T12:39:09Z</time>
      </trkpt>
      <trkpt lat="45.0011" lon="6.13041">
        <ele>1738.4</ele>
        <time>2022-12-29T12:39:10Z</time>
      </trkpt>
      <trkpt lat="45.0011" lon="6.13041">
        <ele>1738.4</ele>
        <time>2022-12-29T12:39:11Z</time>
      </trkpt>
      <trkpt lat="45.00111" lon="6.13042">
        <ele>1738.4</ele>
        <time>2022-12-29T12:39:12Z</time>
      </trkpt>
      <trkpt lat="45.00111" lon="6.13042">
        <ele>1738.4</ele>
        <time>2022-12-29T12:39:13Z</time>
      </trkpt>
      <trkpt lat="45.00112" lon="6.13043">
        <ele>1738.4</ele>
        <time>2022-12-29T12:39:14Z</time>
      </trkpt>
      <trkpt lat="45.00112" lon="6.13044">
        <ele>1738.4</ele>
        <time>2022-12-29T12:39:15Z</time>
      </trkpt>
      <trkpt lat="45.00113" lon="6.13044">
        <ele>1740.2</ele>
        <time>2022-12-29T12:39:16Z</time>
      </trkpt>
      <trkpt lat="45.00113" lon="6.13045">
        <ele>1740.2</ele>
        <time>2022-12-29T12:39:17Z</time>
      </trkpt>
      <trkpt lat="45.00113" lon="6.13045">
        <ele>1740.2</ele>
        <time>2022-12-29T12:39:18Z</time>
      </trkpt>
      <trkpt lat="45.00114" lon="6.13046">
        <ele>1740.2</ele>
        <time>2022-12-29T12:39:19Z</time>
      </trkpt>
      <trkpt lat="45.00114" lon="6.13046">
        <ele>1740.2</ele>
        <time>2022-12-29T12:39:20Z</time>
      </trkpt>
      <trkpt lat="45.00115" lon="6.13046">
        <ele>1740.2</ele>
        <time>2022-12-29T12:39:21Z</time>
      </trkpt>
      <trkpt lat="45.00115" lon="6.13047">
        <ele>1740.2</ele>
        <time>2022-12-29T12:39:22Z</time>
      </trkpt>
      <trkpt lat="45.00115" lon="6.13047">
        <ele>1740.2</ele>
        <time>2022-12-29T12:39:23Z</time>
      </trkpt>
      <trkpt lat="45.00116" lon="6.13048">
        <ele>1740.2</ele>
        <time>2022-12-29T12:39:24Z</time>
      </trkpt>
      <trkpt lat="45.00116" lon="6.13048">
        <ele>1740.2</ele>
        <time>2022-12-29T12:39:25Z</time>
      </trkpt>
      <trkpt lat="45.00117" lon="6.13049">
        <ele>1742.6</ele>
        <time>2022-12-29T12:39:26Z</time>
      </trkpt>
      <trkpt lat="45.00116" lon="6.13049">
        <ele>1742.6</ele>
        <time>2022-12-29T12:39:27Z</time>
      </trkpt>
      <trkpt lat="45.00116" lon="6.13049">
        <ele>1742.6</ele>
        <time>2022-12-29T12:39:28Z</time>
      </trkpt>
      <trkpt lat="45.00115" lon="6.1305">
        <ele>1742.6</ele>
        <time>2022-12-29T12:39:29Z</time>
      </trkpt>
      <trkpt lat="45.00115" lon="6.1305">
        <ele>1742.6</ele>
        <time>2022-12-29T12:39:30Z</time>
      </trkpt>
      <trkpt lat="45.00115" lon="6.1305">
        <ele>1742.6</ele>
        <time>2022-12-29T12:39:31Z</time>
      </trkpt>
      <trkpt lat="45.00114" lon="6.13051">
        <ele>1742.6</ele>
        <time>2022-12-29T12:39:32Z</time>
      </trkpt>
      <trkpt lat="45.00114" lon="6.13051">
        <ele>1742.6</ele>
        <time>2022-12-29T12:39:33Z</time>
      </trkpt>
      <trkpt lat="45.00114" lon="6.13052">
        <ele>1742.6</ele>
        <time>2022-12-29T12:39:34Z</time>
      </trkpt>
      <trkpt lat="45.00113" lon="6.13052">
        <ele>1742.6</ele>
        <time>2022-12-29T12:39:35Z</time>
      </trkpt>
      <trkpt lat="45.00113" lon="6.13052">
        <ele>1744</ele>
        <time>2022-12-29T12:39:36Z</time>
      </trkpt>
      <trkpt lat="45.00111" lon="6.13053">
        <ele>1744</ele>
        <time>2022-12-29T12:39:37Z</time>
      </trkpt>
      <trkpt lat="45.00111" lon="6.13053">
        <ele>1744</ele>
        <time>2022-12-29T12:39:38Z</time>
      </trkpt>
      <trkpt lat="45.0011" lon="6.13053">
        <ele>1744</ele>
        <time>2022-12-29T12:39:39Z</time>
      </trkpt>
      <trkpt lat="45.0011" lon="6.13053">
        <ele>1744</ele>
        <time>2022-12-29T12:39:40Z</time>
      </trkpt>
      <trkpt lat="45.0011" lon="6.13053">
        <ele>1744</ele>
        <time>2022-12-29T12:39:41Z</time>
      </trkpt>
      <trkpt lat="45.0011" lon="6.13053">
        <ele>1744</ele>
        <time>2022-12-29T12:39:42Z</time>
      </trkpt>
      <trkpt lat="45.0011" lon="6.13053">
        <ele>1744</ele>
        <time>2022-12-29T12:39:43Z</time>
      </trkpt>
      <trkpt lat="45.00109" lon="6.13053">
        <ele>1744</ele>
        <time>2022-12-29T12:39:44Z</time>
      </trkpt>
      <trkpt lat="45.00109" lon="6.13053">
        <ele>1744</ele>
        <time>2022-12-29T12:39:45Z</time>
      </trkpt>
      <trkpt lat="45.00109" lon="6.13053">
        <ele>1744.8</ele>
        <time>2022-12-29T12:39:46Z</time>
      </trkpt>
      <trkpt lat="45.00109" lon="6.13054">
        <ele>1744.8</ele>
        <time>2022-12-29T12:39:47Z</time>
      </trkpt>
      <trkpt lat="45.0011" lon="6.13054">
        <ele>1744.8</ele>
        <time>2022-12-29T12:39:48Z</time>
      </trkpt>
      <trkpt lat="45.0011" lon="6.13055">
        <ele>1744.8</ele>
        <time>2022-12-29T12:39:49Z</time>
      </trkpt>
      <trkpt lat="45.00111" lon="6.13055">
        <ele>1744.8</ele>
        <time>2022-12-29T12:39:50Z</time>
      </trkpt>
      <trkpt lat="45.00111" lon="6.13056">
        <ele>1744.8</ele>
        <time>2022-12-29T12:39:51Z</time>
      </trkpt>
      <trkpt lat="45.00111" lon="6.13056">
        <ele>1744.8</ele>
        <time>2022-12-29T12:39:52Z</time>
      </trkpt>
      <trkpt lat="45.00112" lon="6.13057">
        <ele>1744.8</ele>
        <time>2022-12-29T12:39:53Z</time>
      </trkpt>
      <trkpt lat="45.00112" lon="6.13057">
        <ele>1744.8</ele>
        <time>2022-12-29T12:39:54Z</time>
      </trkpt>
      <trkpt lat="45.00113" lon="6.13057">
        <ele>1744.8</ele>
        <time>2022-12-29T12:39:55Z</time>
      </trkpt>
      <trkpt lat="45.00113" lon="6.13058">
        <ele>1745.2</ele>
        <time>2022-12-29T12:39:56Z</time>
      </trkpt>
      <trkpt lat="45.00113" lon="6.13058">
        <ele>1745.2</ele>
        <time>2022-12-29T12:39:57Z</time>
      </trkpt>
      <trkpt lat="45.00114" lon="6.13058">
        <ele>1745.2</ele>
        <time>2022-12-29T12:39:58Z</time>
      </trkpt>
      <trkpt lat="45.00114" lon="6.13059">
        <ele>1745.2</ele>
        <time>2022-12-29T12:39:59Z</time>
      </trkpt>
      <trkpt lat="45.00115" lon="6.13059">
        <ele>1745.2</ele>
        <time>2022-12-29T12:40:00Z</time>
      </trkpt>
      <trkpt lat="45.00115" lon="6.13059">
        <ele>1745.2</ele>
        <time>2022-12-29T12:40:01Z</time>
      </trkpt>
      <trkpt lat="45.00115" lon="6.1306">
        <ele>1745.2</ele>
        <time>2022-12-29T12:40:02Z</time>
      </trkpt>
      <trkpt lat="45.00116" lon="6.1306">
        <ele>1745.2</ele>
        <time>2022-12-29T12:40:03Z</time>
      </trkpt>
      <trkpt lat="45.00116" lon="6.1306">
        <ele>1745.2</ele>
        <time>2022-12-29T12:40:04Z</time>
      </trkpt>
      <trkpt lat="45.00116" lon="6.13061">
        <ele>1745.2</ele>
        <time>2022-12-29T12:40:05Z</time>
      </trkpt>
      <trkpt lat="45.00117" lon="6.13061">
        <ele>1746</ele>
        <time>2022-12-29T12:40:06Z</time>
      </trkpt>
      <trkpt lat="45.00117" lon="6.13061">
        <ele>1746</ele>
        <time>2022-12-29T12:40:07Z</time>
      </trkpt>
      <trkpt lat="45.00118" lon="6.13062">
        <ele>1746</ele>
        <time>2022-12-29T12:40:08Z</time>
      </trkpt>
      <trkpt lat="45.00118" lon="6.13062">
        <ele>1746</ele>
        <time>2022-12-29T12:40:09Z</time>
      </trkpt>
      <trkpt lat="45.00119" lon="6.13063">
        <ele>1746</ele>
        <time>2022-12-29T12:40:10Z</time>
      </trkpt>
      <trkpt lat="45.00119" lon="6.13064">
        <ele>1746</ele>
        <time>2022-12-29T12:40:11Z</time>
      </trkpt>
      <trkpt lat="45.00119" lon="6.13064">
        <ele>1746</ele>
        <time>2022-12-29T12:40:12Z</time>
      </trkpt>
      <trkpt lat="45.0012" lon="6.13065">
        <ele>1746</ele>
        <time>2022-12-29T12:40:13Z</time>
      </trkpt>
      <trkpt lat="45.0012" lon="6.13065">
        <ele>1746</ele>
        <time>2022-12-29T12:40:14Z</time>
      </trkpt>
      <trkpt lat="45.00121" lon="6.13066">
        <ele>1746</ele>
        <time>2022-12-29T12:40:15Z</time>
      </trkpt>
      <trkpt lat="45.00121" lon="6.13066">
        <ele>1748.2</ele>
        <time>2022-12-29T12:40:16Z</time>
      </trkpt>
      <trkpt lat="45.0012" lon="6.13067">
        <ele>1748.2</ele>
        <time>2022-12-29T12:40:17Z</time>
      </trkpt>
      <trkpt lat="45.0012" lon="6.13067">
        <ele>1748.2</ele>
        <time>2022-12-29T12:40:18Z</time>
      </trkpt>
      <trkpt lat="45.00119" lon="6.13067">
        <ele>1748.2</ele>
        <time>2022-12-29T12:40:19Z</time>
      </trkpt>
      <trkpt lat="45.00119" lon="6.13068">
        <ele>1748.2</ele>
        <time>2022-12-29T12:40:20Z</time>
      </trkpt>
      <trkpt lat="45.00118" lon="6.13068">
        <ele>1748.2</ele>
        <time>2022-12-29T12:40:21Z</time>
      </trkpt>
      <trkpt lat="45.00118" lon="6.13069">
        <ele>1748.2</ele>
        <time>2022-12-29T12:40:22Z</time>
      </trkpt>
      <trkpt lat="45.00117" lon="6.13069">
        <ele>1748.2</ele>
        <time>2022-12-29T12:40:23Z</time>
      </trkpt>
      <trkpt lat="45.00116" lon="6.13069">
        <ele>1748.2</ele>
        <time>2022-12-29T12:40:24Z</time>
      </trkpt>
      <trkpt lat="45.00116" lon="6.1307">
        <ele>1748.2</ele>
        <time>2022-12-29T12:40:25Z</time>
      </trkpt>
      <trkpt lat="45.00115" lon="6.1307">
        <ele>1750.8</ele>
        <time>2022-12-29T12:40:26Z</time>
      </trkpt>
      <trkpt lat="45.00115" lon="6.1307">
        <ele>1750.8</ele>
        <time>2022-12-29T12:40:27Z</time>
      </trkpt>
      <trkpt lat="45.00114" lon="6.13071">
        <ele>1750.8</ele>
        <time>2022-12-29T12:40:28Z</time>
      </trkpt>
      <trkpt lat="45.00114" lon="6.13071">
        <ele>1750.8</ele>
        <time>2022-12-29T12:40:29Z</time>
      </trkpt>
      <trkpt lat="45.00113" lon="6.13071">
        <ele>1750.8</ele>
        <time>2022-12-29T12:40:30Z</time>
      </trkpt>
      <trkpt lat="45.00112" lon="6.13071">
        <ele>1750.8</ele>
        <time>2022-12-29T12:40:31Z</time>
      </trkpt>
      <trkpt lat="45.00112" lon="6.13072">
        <ele>1750.8</ele>
        <time>2022-12-29T12:40:32Z</time>
      </trkpt>
      <trkpt lat="45.00111" lon="6.13072">
        <ele>1750.8</ele>
        <time>2022-12-29T12:40:33Z</time>
      </trkpt>
      <trkpt lat="45.00111" lon="6.13072">
        <ele>1750.8</ele>
        <time>2022-12-29T12:40:34Z</time>
      </trkpt>
      <trkpt lat="45.0011" lon="6.13072">
        <ele>1750.8</ele>
        <time>2022-12-29T12:40:35Z</time>
      </trkpt>
      <trkpt lat="45.00109" lon="6.13073">
        <ele>1752.2</ele>
        <time>2022-12-29T12:40:36Z</time>
      </trkpt>
      <trkpt lat="45.00109" lon="6.13073">
        <ele>1752.2</ele>
        <time>2022-12-29T12:40:37Z</time>
      </trkpt>
      <trkpt lat="45.00108" lon="6.13073">
        <ele>1752.2</ele>
        <time>2022-12-29T12:40:38Z</time>
      </trkpt>
      <trkpt lat="45.00107" lon="6.13073">
        <ele>1752.2</ele>
        <time>2022-12-29T12:40:39Z</time>
      </trkpt>
      <trkpt lat="45.00106" lon="6.13074">
        <ele>1752.2</ele>
        <time>2022-12-29T12:40:40Z</time>
      </trkpt>
      <trkpt lat="45.00105" lon="6.13074">
        <ele>1752.2</ele>
        <time>2022-12-29T12:40:41Z</time>
      </trkpt>
      <trkpt lat="45.00104" lon="6.13074">
        <ele>1752.2</ele>
        <time>2022-12-29T12:40:42Z</time>
      </trkpt>
      <trkpt lat="45.00103" lon="6.13074">
        <ele>1752.2</ele>
        <time>2022-12-29T12:40:43Z</time>
      </trkpt>
      <trkpt lat="45.00103" lon="6.13074">
        <ele>1752.2</ele>
        <time>2022-12-29T12:40:44Z</time>
      </trkpt>
      <trkpt lat="45.00102" lon="6.13075">
        <ele>1752.2</ele>
        <time>2022-12-29T12:40:45Z</time>
      </trkpt>
      <trkpt lat="45.00101" lon="6.13075">
        <ele>1753.6</ele>
        <time>2022-12-29T12:40:46Z</time>
      </trkpt>
      <trkpt lat="45.00101" lon="6.13075">
        <ele>1753.6</ele>
        <time>2022-12-29T12:40:47Z</time>
      </trkpt>
      <trkpt lat="45.00101" lon="6.13075">
        <ele>1753.6</ele>
        <time>2022-12-29T12:40:48Z</time>
      </trkpt>
      <trkpt lat="45.00101" lon="6.13075">
        <ele>1753.6</ele>
        <time>2022-12-29T12:40:49Z</time>
      </trkpt>
      <trkpt lat="45.00101" lon="6.13076">
        <ele>1753.6</ele>
        <time>2022-12-29T12:40:50Z</time>
      </trkpt>
      <trkpt lat="45.00101" lon="6.13076">
        <ele>1753.6</ele>
        <time>2022-12-29T12:40:51Z</time>
      </trkpt>
      <trkpt lat="45.00101" lon="6.13076">
        <ele>1753.6</ele>
        <time>2022-12-29T12:40:52Z</time>
      </trkpt>
      <trkpt lat="45.00102" lon="6.13076">
        <ele>1753.6</ele>
        <time>2022-12-29T12:40:53Z</time>
      </trkpt>
      <trkpt lat="45.00102" lon="6.13077">
        <ele>1753.6</ele>
        <time>2022-12-29T12:40:54Z</time>
      </trkpt>
      <trkpt lat="45.00102" lon="6.13077">
        <ele>1753.6</ele>
        <time>2022-12-29T12:40:55Z</time>
      </trkpt>
      <trkpt lat="45.00102" lon="6.13077">
        <ele>1755</ele>
        <time>2022-12-29T12:40:56Z</time>
      </trkpt>
      <trkpt lat="45.00102" lon="6.13077">
        <ele>1755</ele>
        <time>2022-12-29T12:40:57Z</time>
      </trkpt>
      <trkpt lat="45.00102" lon="6.13078">
        <ele>1755</ele>
        <time>2022-12-29T12:40:58Z</time>
      </trkpt>
      <trkpt lat="45.00102" lon="6.13078">
        <ele>1755</ele>
        <time>2022-12-29T12:40:59Z</time>
      </trkpt>
      <trkpt lat="45.00102" lon="6.13078">
        <ele>1755</ele>
        <time>2022-12-29T12:41:00Z</time>
      </trkpt>
      <trkpt lat="45.00102" lon="6.13078">
        <ele>1755</ele>
        <time>2022-12-29T12:41:01Z</time>
      </trkpt>
      <trkpt lat="45.00102" lon="6.13079">
        <ele>1755</ele>
        <time>2022-12-29T12:41:02Z</time>
      </trkpt>
      <trkpt lat="45.00103" lon="6.13079">
        <ele>1755</ele>
        <time>2022-12-29T12:41:03Z</time>
      </trkpt>
      <trkpt lat="45.00103" lon="6.13079">
        <ele>1755</ele>
        <time>2022-12-29T12:41:04Z</time>
      </trkpt>
      <trkpt lat="45.00103" lon="6.13079">
        <ele>1755</ele>
        <time>2022-12-29T12:41:05Z</time>
      </trkpt>
      <trkpt lat="45.00103" lon="6.1308">
        <ele>1755</ele>
        <time>2022-12-29T12:41:06Z</time>
      </trkpt>
      <trkpt lat="45.00103" lon="6.1308">
        <ele>1755</ele>
        <time>2022-12-29T12:41:07Z</time>
      </trkpt>
      <trkpt lat="45.00103" lon="6.1308">
        <ele>1755</ele>
        <time>2022-12-29T12:41:10Z</time>
      </trkpt>
      <trkpt lat="45.00103" lon="6.1308">
        <ele>1755</ele>
        <time>2022-12-29T12:41:11Z</time>
      </trkpt>
      <trkpt lat="45.00103" lon="6.13081">
        <ele>1755</ele>
        <time>2022-12-29T12:41:12Z</time>
      </trkpt>
      <trkpt lat="45.00103" lon="6.13081">
        <ele>1755</ele>
        <time>2022-12-29T12:41:13Z</time>
      </trkpt>
      <trkpt lat="45.00103" lon="6.13081">
        <ele>1755</ele>
        <time>2022-12-29T12:41:14Z</time>
      </trkpt>
      <trkpt lat="45.00104" lon="6.13081">
        <ele>1755</ele>
        <time>2022-12-29T12:41:15Z</time>
      </trkpt>
      <trkpt lat="45.00104" lon="6.13082">
        <ele>1754.4</ele>
        <time>2022-12-29T12:41:16Z</time>
      </trkpt>
      <trkpt lat="45.00104" lon="6.13082">
        <ele>1754.4</ele>
        <time>2022-12-29T12:41:17Z</time>
      </trkpt>
      <trkpt lat="45.00104" lon="6.13082">
        <ele>1754.4</ele>
        <time>2022-12-29T12:41:18Z</time>
      </trkpt>
      <trkpt lat="45.00104" lon="6.13082">
        <ele>1754.4</ele>
        <time>2022-12-29T12:41:19Z</time>
      </trkpt>
      <trkpt lat="45.00104" lon="6.13083">
        <ele>1754.4</ele>
        <time>2022-12-29T12:41:20Z</time>
      </trkpt>
      <trkpt lat="45.00104" lon="6.13083">
        <ele>1754.4</ele>
        <time>2022-12-29T12:41:21Z</time>
      </trkpt>
      <trkpt lat="45.00104" lon="6.13083">
        <ele>1754.4</ele>
        <time>2022-12-29T12:41:22Z</time>
      </trkpt>
      <trkpt lat="45.00104" lon="6.13083">
        <ele>1754.4</ele>
        <time>2022-12-29T12:41:23Z</time>
      </trkpt>
      <trkpt lat="45.00104" lon="6.13084">
        <ele>1754.4</ele>
        <time>2022-12-29T12:41:24Z</time>
      </trkpt>
      <trkpt lat="45.00105" lon="6.13084">
        <ele>1754.4</ele>
        <time>2022-12-29T12:41:25Z</time>
      </trkpt>
      <trkpt lat="45.00105" lon="6.13084">
        <ele>1755.4</ele>
        <time>2022-12-29T12:41:26Z</time>
      </trkpt>
      <trkpt lat="45.00106" lon="6.13087">
        <ele>1755.4</ele>
        <time>2022-12-29T12:41:27Z</time>
      </trkpt>
      <trkpt lat="45.00107" lon="6.13087">
        <ele>1755.4</ele>
        <time>2022-12-29T12:41:28Z</time>
      </trkpt>
      <trkpt lat="45.00107" lon="6.13088">
        <ele>1755.4</ele>
        <time>2022-12-29T12:41:29Z</time>
      </trkpt>
      <trkpt lat="45.00108" lon="6.13088">
        <ele>1755.4</ele>
        <time>2022-12-29T12:41:30Z</time>
      </trkpt>
      <trkpt lat="45.00108" lon="6.13089">
        <ele>1755.4</ele>
        <time>2022-12-29T12:41:31Z</time>
      </trkpt>
      <trkpt lat="45.00109" lon="6.13089">
        <ele>1755.4</ele>
        <time>2022-12-29T12:41:32Z</time>
      </trkpt>
      <trkpt lat="45.00109" lon="6.1309">
        <ele>1755.4</ele>
        <time>2022-12-29T12:41:33Z</time>
      </trkpt>
      <trkpt lat="45.00109" lon="6.1309">
        <ele>1755.4</ele>
        <time>2022-12-29T12:41:34Z</time>
      </trkpt>
      <trkpt lat="45.0011" lon="6.13091">
        <ele>1755.4</ele>
        <time>2022-12-29T12:41:35Z</time>
      </trkpt>
      <trkpt lat="45.0011" lon="6.13091">
        <ele>1757.2</ele>
        <time>2022-12-29T12:41:36Z</time>
      </trkpt>
      <trkpt lat="45.0011" lon="6.13092">
        <ele>1757.2</ele>
        <time>2022-12-29T12:41:37Z</time>
      </trkpt>
      <trkpt lat="45.0011" lon="6.13092">
        <ele>1757.2</ele>
        <time>2022-12-29T12:41:38Z</time>
      </trkpt>
      <trkpt lat="45.0011" lon="6.13092">
        <ele>1757.2</ele>
        <time>2022-12-29T12:41:39Z</time>
      </trkpt>
      <trkpt lat="45.0011" lon="6.13093">
        <ele>1757.2</ele>
        <time>2022-12-29T12:41:40Z</time>
      </trkpt>
      <trkpt lat="45.0011" lon="6.13093">
        <ele>1757.2</ele>
        <time>2022-12-29T12:41:41Z</time>
      </trkpt>
      <trkpt lat="45.0011" lon="6.13094">
        <ele>1757.2</ele>
        <time>2022-12-29T12:41:42Z</time>
      </trkpt>
      <trkpt lat="45.0011" lon="6.13094">
        <ele>1757.2</ele>
        <time>2022-12-29T12:41:43Z</time>
      </trkpt>
      <trkpt lat="45.0011" lon="6.13094">
        <ele>1757.2</ele>
        <time>2022-12-29T12:41:44Z</time>
      </trkpt>
      <trkpt lat="45.0011" lon="6.13095">
        <ele>1757.2</ele>
        <time>2022-12-29T12:41:45Z</time>
      </trkpt>
      <trkpt lat="45.0011" lon="6.13095">
        <ele>1759.6</ele>
        <time>2022-12-29T12:41:46Z</time>
      </trkpt>
      <trkpt lat="45.00109" lon="6.13095">
        <ele>1759.6</ele>
        <time>2022-12-29T12:41:47Z</time>
      </trkpt>
      <trkpt lat="45.00109" lon="6.13096">
        <ele>1759.6</ele>
        <time>2022-12-29T12:41:48Z</time>
      </trkpt>
      <trkpt lat="45.00108" lon="6.13096">
        <ele>1759.6</ele>
        <time>2022-12-29T12:41:49Z</time>
      </trkpt>
      <trkpt lat="45.00107" lon="6.13096">
        <ele>1759.6</ele>
        <time>2022-12-29T12:41:50Z</time>
      </trkpt>
      <trkpt lat="45.00107" lon="6.13096">
        <ele>1759.6</ele>
        <time>2022-12-29T12:41:51Z</time>
      </trkpt>
      <trkpt lat="45.00106" lon="6.13097">
        <ele>1759.6</ele>
        <time>2022-12-29T12:41:52Z</time>
      </trkpt>
      <trkpt lat="45.00106" lon="6.13097">
        <ele>1759.6</ele>
        <time>2022-12-29T12:41:53Z</time>
      </trkpt>
      <trkpt lat="45.00105" lon="6.13097">
        <ele>1759.6</ele>
        <time>2022-12-29T12:41:54Z</time>
      </trkpt>
      <trkpt lat="45.00104" lon="6.13097">
        <ele>1759.6</ele>
        <time>2022-12-29T12:41:55Z</time>
      </trkpt>
      <trkpt lat="45.00104" lon="6.13098">
        <ele>1761.4</ele>
        <time>2022-12-29T12:41:56Z</time>
      </trkpt>
      <trkpt lat="45.00101" lon="6.13099">
        <ele>1761.4</ele>
        <time>2022-12-29T12:41:57Z</time>
      </trkpt>
      <trkpt lat="45.00101" lon="6.13099">
        <ele>1761.4</ele>
        <time>2022-12-29T12:41:58Z</time>
      </trkpt>
      <trkpt lat="45.001" lon="6.13099">
        <ele>1761.4</ele>
        <time>2022-12-29T12:41:59Z</time>
      </trkpt>
      <trkpt lat="45.001" lon="6.131">
        <ele>1761.4</ele>
        <time>2022-12-29T12:42:00Z</time>
      </trkpt>
      <trkpt lat="45.001" lon="6.131">
        <ele>1761.4</ele>
        <time>2022-12-29T12:42:01Z</time>
      </trkpt>
      <trkpt lat="45.00099" lon="6.131">
        <ele>1761.4</ele>
        <time>2022-12-29T12:42:02Z</time>
      </trkpt>
      <trkpt lat="45.00099" lon="6.131">
        <ele>1761.4</ele>
        <time>2022-12-29T12:42:03Z</time>
      </trkpt>
      <trkpt lat="45.00099" lon="6.131">
        <ele>1761.4</ele>
        <time>2022-12-29T12:42:04Z</time>
      </trkpt>
      <trkpt lat="45.00098" lon="6.13101">
        <ele>1761.4</ele>
        <time>2022-12-29T12:42:05Z</time>
      </trkpt>
      <trkpt lat="45.00098" lon="6.13101">
        <ele>1763.2</ele>
        <time>2022-12-29T12:42:06Z</time>
      </trkpt>
      <trkpt lat="45.00096" lon="6.13102">
        <ele>1763.2</ele>
        <time>2022-12-29T12:42:07Z</time>
      </trkpt>
      <trkpt lat="45.00095" lon="6.13102">
        <ele>1763.2</ele>
        <time>2022-12-29T12:42:08Z</time>
      </trkpt>
      <trkpt lat="45.00095" lon="6.13102">
        <ele>1763.2</ele>
        <time>2022-12-29T12:42:09Z</time>
      </trkpt>
      <trkpt lat="45.00095" lon="6.13102">
        <ele>1763.2</ele>
        <time>2022-12-29T12:42:10Z</time>
      </trkpt>
      <trkpt lat="45.00094" lon="6.13103">
        <ele>1763.2</ele>
        <time>2022-12-29T12:42:11Z</time>
      </trkpt>
      <trkpt lat="45.00094" lon="6.13103">
        <ele>1763.2</ele>
        <time>2022-12-29T12:42:12Z</time>
      </trkpt>
      <trkpt lat="45.00093" lon="6.13103">
        <ele>1763.2</ele>
        <time>2022-12-29T12:42:13Z</time>
      </trkpt>
      <trkpt lat="45.00093" lon="6.13103">
        <ele>1763.2</ele>
        <time>2022-12-29T12:42:14Z</time>
      </trkpt>
      <trkpt lat="45.00093" lon="6.13103">
        <ele>1763.2</ele>
        <time>2022-12-29T12:42:15Z</time>
      </trkpt>
      <trkpt lat="45.00092" lon="6.13104">
        <ele>1765</ele>
        <time>2022-12-29T12:42:16Z</time>
      </trkpt>
      <trkpt lat="45.0009" lon="6.13104">
        <ele>1765</ele>
        <time>2022-12-29T12:42:17Z</time>
      </trkpt>
      <trkpt lat="45.00089" lon="6.13104">
        <ele>1765</ele>
        <time>2022-12-29T12:42:18Z</time>
      </trkpt>
      <trkpt lat="45.00089" lon="6.13104">
        <ele>1765</ele>
        <time>2022-12-29T12:42:19Z</time>
      </trkpt>
      <trkpt lat="45.00088" lon="6.13104">
        <ele>1765</ele>
        <time>2022-12-29T12:42:20Z</time>
      </trkpt>
      <trkpt lat="45.00088" lon="6.13104">
        <ele>1765</ele>
        <time>2022-12-29T12:42:21Z</time>
      </trkpt>
      <trkpt lat="45.00087" lon="6.13104">
        <ele>1765</ele>
        <time>2022-12-29T12:42:22Z</time>
      </trkpt>
      <trkpt lat="45.00087" lon="6.13104">
        <ele>1765</ele>
        <time>2022-12-29T12:42:23Z</time>
      </trkpt>
      <trkpt lat="45.00087" lon="6.13104">
        <ele>1765</ele>
        <time>2022-12-29T12:42:24Z</time>
      </trkpt>
      <trkpt lat="45.00086" lon="6.13104">
        <ele>1765</ele>
        <time>2022-12-29T12:42:25Z</time>
      </trkpt>
      <trkpt lat="45.00086" lon="6.13104">
        <ele>1766.8</ele>
        <time>2022-12-29T12:42:26Z</time>
      </trkpt>
      <trkpt lat="45.00085" lon="6.13104">
        <ele>1766.8</ele>
        <time>2022-12-29T12:42:27Z</time>
      </trkpt>
      <trkpt lat="45.00085" lon="6.13104">
        <ele>1766.8</ele>
        <time>2022-12-29T12:42:28Z</time>
      </trkpt>
      <trkpt lat="45.00084" lon="6.13104">
        <ele>1766.8</ele>
        <time>2022-12-29T12:42:29Z</time>
      </trkpt>
      <trkpt lat="45.00083" lon="6.13104">
        <ele>1766.8</ele>
        <time>2022-12-29T12:42:30Z</time>
      </trkpt>
      <trkpt lat="45.00083" lon="6.13104">
        <ele>1766.8</ele>
        <time>2022-12-29T12:42:31Z</time>
      </trkpt>
      <trkpt lat="45.00082" lon="6.13104">
        <ele>1766.8</ele>
        <time>2022-12-29T12:42:32Z</time>
      </trkpt>
      <trkpt lat="45.00081" lon="6.13104">
        <ele>1766.8</ele>
        <time>2022-12-29T12:42:33Z</time>
      </trkpt>
      <trkpt lat="45.00081" lon="6.13104">
        <ele>1766.8</ele>
        <time>2022-12-29T12:42:34Z</time>
      </trkpt>
      <trkpt lat="45.0008" lon="6.13105">
        <ele>1766.8</ele>
        <time>2022-12-29T12:42:35Z</time>
      </trkpt>
      <trkpt lat="45.00079" lon="6.13105">
        <ele>1768.8</ele>
        <time>2022-12-29T12:42:36Z</time>
      </trkpt>
      <trkpt lat="45.00077" lon="6.13104">
        <ele>1768.8</ele>
        <time>2022-12-29T12:42:37Z</time>
      </trkpt>
      <trkpt lat="45.00077" lon="6.13104">
        <ele>1768.8</ele>
        <time>2022-12-29T12:42:38Z</time>
      </trkpt>
      <trkpt lat="45.00076" lon="6.13104">
        <ele>1768.8</ele>
        <time>2022-12-29T12:42:39Z</time>
      </trkpt>
      <trkpt lat="45.00076" lon="6.13104">
        <ele>1768.8</ele>
        <time>2022-12-29T12:42:40Z</time>
      </trkpt>
      <trkpt lat="45.00076" lon="6.13104">
        <ele>1768.8</ele>
        <time>2022-12-29T12:42:41Z</time>
      </trkpt>
      <trkpt lat="45.00075" lon="6.13104">
        <ele>1768.8</ele>
        <time>2022-12-29T12:42:42Z</time>
      </trkpt>
      <trkpt lat="45.00075" lon="6.13104">
        <ele>1768.8</ele>
        <time>2022-12-29T12:42:43Z</time>
      </trkpt>
      <trkpt lat="45.00074" lon="6.13104">
        <ele>1768.8</ele>
        <time>2022-12-29T12:42:44Z</time>
      </trkpt>
      <trkpt lat="45.00074" lon="6.13103">
        <ele>1768.8</ele>
        <time>2022-12-29T12:42:45Z</time>
      </trkpt>
      <trkpt lat="45.00074" lon="6.13103">
        <ele>1770.2</ele>
        <time>2022-12-29T12:42:46Z</time>
      </trkpt>
      <trkpt lat="45.00072" lon="6.13103">
        <ele>1770.2</ele>
        <time>2022-12-29T12:42:47Z</time>
      </trkpt>
      <trkpt lat="45.00072" lon="6.13103">
        <ele>1770.2</ele>
        <time>2022-12-29T12:42:48Z</time>
      </trkpt>
      <trkpt lat="45.00072" lon="6.13103">
        <ele>1770.2</ele>
        <time>2022-12-29T12:42:49Z</time>
      </trkpt>
      <trkpt lat="45.00072" lon="6.13103">
        <ele>1770.2</ele>
        <time>2022-12-29T12:42:50Z</time>
      </trkpt>
      <trkpt lat="45.00073" lon="6.13104">
        <ele>1770.2</ele>
        <time>2022-12-29T12:42:51Z</time>
      </trkpt>
      <trkpt lat="45.00073" lon="6.13104">
        <ele>1770.2</ele>
        <time>2022-12-29T12:42:52Z</time>
      </trkpt>
      <trkpt lat="45.00073" lon="6.13104">
        <ele>1770.2</ele>
        <time>2022-12-29T12:42:53Z</time>
      </trkpt>
      <trkpt lat="45.00073" lon="6.13104">
        <ele>1770.2</ele>
        <time>2022-12-29T12:42:54Z</time>
      </trkpt>
      <trkpt lat="45.00073" lon="6.13104">
        <ele>1770.2</ele>
        <time>2022-12-29T12:42:55Z</time>
      </trkpt>
      <trkpt lat="45.00074" lon="6.13104">
        <ele>1771</ele>
        <time>2022-12-29T12:42:56Z</time>
      </trkpt>
      <trkpt lat="45.00074" lon="6.13105">
        <ele>1771</ele>
        <time>2022-12-29T12:42:57Z</time>
      </trkpt>
      <trkpt lat="45.00074" lon="6.13106">
        <ele>1771</ele>
        <time>2022-12-29T12:42:58Z</time>
      </trkpt>
      <trkpt lat="45.00074" lon="6.13107">
        <ele>1771</ele>
        <time>2022-12-29T12:42:59Z</time>
      </trkpt>
      <trkpt lat="45.00074" lon="6.13108">
        <ele>1771</ele>
        <time>2022-12-29T12:43:00Z</time>
      </trkpt>
      <trkpt lat="45.00075" lon="6.13108">
        <ele>1771</ele>
        <time>2022-12-29T12:43:01Z</time>
      </trkpt>
      <trkpt lat="45.00075" lon="6.13109">
        <ele>1771</ele>
        <time>2022-12-29T12:43:02Z</time>
      </trkpt>
      <trkpt lat="45.00075" lon="6.1311">
        <ele>1771</ele>
        <time>2022-12-29T12:43:03Z</time>
      </trkpt>
      <trkpt lat="45.00075" lon="6.13111">
        <ele>1771</ele>
        <time>2022-12-29T12:43:04Z</time>
      </trkpt>
      <trkpt lat="45.00075" lon="6.13112">
        <ele>1771</ele>
        <time>2022-12-29T12:43:05Z</time>
      </trkpt>
      <trkpt lat="45.00076" lon="6.13113">
        <ele>1772.2</ele>
        <time>2022-12-29T12:43:06Z</time>
      </trkpt>
      <trkpt lat="45.00076" lon="6.13113">
        <ele>1772.2</ele>
        <time>2022-12-29T12:43:07Z</time>
      </trkpt>
      <trkpt lat="45.00076" lon="6.13114">
        <ele>1772.2</ele>
        <time>2022-12-29T12:43:08Z</time>
      </trkpt>
      <trkpt lat="45.00077" lon="6.13115">
        <ele>1772.2</ele>
        <time>2022-12-29T12:43:09Z</time>
      </trkpt>
      <trkpt lat="45.00077" lon="6.13116">
        <ele>1772.2</ele>
        <time>2022-12-29T12:43:10Z</time>
      </trkpt>
      <trkpt lat="45.00077" lon="6.13117">
        <ele>1772.2</ele>
        <time>2022-12-29T12:43:11Z</time>
      </trkpt>
      <trkpt lat="45.00077" lon="6.13117">
        <ele>1772.2</ele>
        <time>2022-12-29T12:43:12Z</time>
      </trkpt>
      <trkpt lat="45.00078" lon="6.13118">
        <ele>1772.2</ele>
        <time>2022-12-29T12:43:13Z</time>
      </trkpt>
      <trkpt lat="45.00078" lon="6.13119">
        <ele>1772.2</ele>
        <time>2022-12-29T12:43:14Z</time>
      </trkpt>
      <trkpt lat="45.00078" lon="6.1312">
        <ele>1772.2</ele>
        <time>2022-12-29T12:43:15Z</time>
      </trkpt>
      <trkpt lat="45.00079" lon="6.13121">
        <ele>1774.2</ele>
        <time>2022-12-29T12:43:16Z</time>
      </trkpt>
      <trkpt lat="45.00079" lon="6.13121">
        <ele>1774.2</ele>
        <time>2022-12-29T12:43:17Z</time>
      </trkpt>
      <trkpt lat="45.0008" lon="6.13122">
        <ele>1774.2</ele>
        <time>2022-12-29T12:43:18Z</time>
      </trkpt>
      <trkpt lat="45.0008" lon="6.13123">
        <ele>1774.2</ele>
        <time>2022-12-29T12:43:19Z</time>
      </trkpt>
      <trkpt lat="45.0008" lon="6.13123">
        <ele>1774.2</ele>
        <time>2022-12-29T12:43:20Z</time>
      </trkpt>
      <trkpt lat="45.00081" lon="6.13124">
        <ele>1774.2</ele>
        <time>2022-12-29T12:43:21Z</time>
      </trkpt>
      <trkpt lat="45.00081" lon="6.13125">
        <ele>1774.2</ele>
        <time>2022-12-29T12:43:22Z</time>
      </trkpt>
      <trkpt lat="45.00082" lon="6.13125">
        <ele>1774.2</ele>
        <time>2022-12-29T12:43:23Z</time>
      </trkpt>
      <trkpt lat="45.00082" lon="6.13126">
        <ele>1774.2</ele>
        <time>2022-12-29T12:43:24Z</time>
      </trkpt>
      <trkpt lat="45.00083" lon="6.13127">
        <ele>1774.2</ele>
        <time>2022-12-29T12:43:25Z</time>
      </trkpt>
      <trkpt lat="45.00083" lon="6.13127">
        <ele>1775.8</ele>
        <time>2022-12-29T12:43:26Z</time>
      </trkpt>
      <trkpt lat="45.00083" lon="6.13127">
        <ele>1775.8</ele>
        <time>2022-12-29T12:43:27Z</time>
      </trkpt>
      <trkpt lat="45.00083" lon="6.13127">
        <ele>1775.8</ele>
        <time>2022-12-29T12:43:28Z</time>
      </trkpt>
      <trkpt lat="45.00083" lon="6.13127">
        <ele>1775.8</ele>
        <time>2022-12-29T12:43:29Z</time>
      </trkpt>
      <trkpt lat="45.00085" lon="6.13129">
        <ele>1775.8</ele>
        <time>2022-12-29T12:43:30Z</time>
      </trkpt>
      <trkpt lat="45.00085" lon="6.13129">
        <ele>1775.8</ele>
        <time>2022-12-29T12:43:31Z</time>
      </trkpt>
      <trkpt lat="45.00085" lon="6.13129">
        <ele>1775.8</ele>
        <time>2022-12-29T12:43:32Z</time>
      </trkpt>
      <trkpt lat="45.00085" lon="6.13129">
        <ele>1775.8</ele>
        <time>2022-12-29T12:43:33Z</time>
      </trkpt>
      <trkpt lat="45.00085" lon="6.13129">
        <ele>1775.8</ele>
        <time>2022-12-29T12:43:34Z</time>
      </trkpt>
      <trkpt lat="45.00085" lon="6.13129">
        <ele>1775.8</ele>
        <time>2022-12-29T12:43:35Z</time>
      </trkpt>
      <trkpt lat="45.00085" lon="6.13129">
        <ele>1778.2</ele>
        <time>2022-12-29T12:43:36Z</time>
      </trkpt>
      <trkpt lat="45.00082" lon="6.1313">
        <ele>1778.2</ele>
        <time>2022-12-29T12:43:37Z</time>
      </trkpt>
      <trkpt lat="45.00081" lon="6.13131">
        <ele>1778.2</ele>
        <time>2022-12-29T12:43:38Z</time>
      </trkpt>
      <trkpt lat="45.00081" lon="6.13131">
        <ele>1778.2</ele>
        <time>2022-12-29T12:43:39Z</time>
      </trkpt>
      <trkpt lat="45.0008" lon="6.13131">
        <ele>1778.2</ele>
        <time>2022-12-29T12:43:40Z</time>
      </trkpt>
      <trkpt lat="45.0008" lon="6.13131">
        <ele>1778.2</ele>
        <time>2022-12-29T12:43:41Z</time>
      </trkpt>
      <trkpt lat="45.00079" lon="6.13132">
        <ele>1778.2</ele>
        <time>2022-12-29T12:43:42Z</time>
      </trkpt>
      <trkpt lat="45.00079" lon="6.13132">
        <ele>1778.2</ele>
        <time>2022-12-29T12:43:43Z</time>
      </trkpt>
      <trkpt lat="45.00078" lon="6.13132">
        <ele>1778.2</ele>
        <time>2022-12-29T12:43:45Z</time>
      </trkpt>
      <trkpt lat="45.00078" lon="6.13132">
        <ele>1780.2</ele>
        <time>2022-12-29T12:43:46Z</time>
      </trkpt>
      <trkpt lat="45.00077" lon="6.13133">
        <ele>1780.2</ele>
        <time>2022-12-29T12:43:47Z</time>
      </trkpt>
      <trkpt lat="45.00077" lon="6.13133">
        <ele>1780.2</ele>
        <time>2022-12-29T12:43:48Z</time>
      </trkpt>
      <trkpt lat="45.00077" lon="6.13134">
        <ele>1780.2</ele>
        <time>2022-12-29T12:43:49Z</time>
      </trkpt>
      <trkpt lat="45.00076" lon="6.13134">
        <ele>1780.2</ele>
        <time>2022-12-29T12:43:51Z</time>
      </trkpt>
      <trkpt lat="45.00076" lon="6.13135">
        <ele>1780.2</ele>
        <time>2022-12-29T12:43:52Z</time>
      </trkpt>
      <trkpt lat="45.00075" lon="6.13135">
        <ele>1780.2</ele>
        <time>2022-12-29T12:43:53Z</time>
      </trkpt>
      <trkpt lat="45.00075" lon="6.13135">
        <ele>1780.2</ele>
        <time>2022-12-29T12:43:54Z</time>
      </trkpt>
      <trkpt lat="45.00074" lon="6.13136">
        <ele>1780.2</ele>
        <time>2022-12-29T12:43:55Z</time>
      </trkpt>
      <trkpt lat="45.00074" lon="6.13136">
        <ele>1781.6</ele>
        <time>2022-12-29T12:43:56Z</time>
      </trkpt>
      <trkpt lat="45.00071" lon="6.13138">
        <ele>1781.6</ele>
        <time>2022-12-29T12:43:57Z</time>
      </trkpt>
      <trkpt lat="45.00071" lon="6.13138">
        <ele>1781.6</ele>
        <time>2022-12-29T12:43:58Z</time>
      </trkpt>
      <trkpt lat="45.0007" lon="6.13138">
        <ele>1781.6</ele>
        <time>2022-12-29T12:43:59Z</time>
      </trkpt>
      <trkpt lat="45.0007" lon="6.13138">
        <ele>1781.6</ele>
        <time>2022-12-29T12:44:00Z</time>
      </trkpt>
      <trkpt lat="45.00069" lon="6.13139">
        <ele>1781.6</ele>
        <time>2022-12-29T12:44:01Z</time>
      </trkpt>
      <trkpt lat="45.00069" lon="6.13139">
        <ele>1781.6</ele>
        <time>2022-12-29T12:44:02Z</time>
      </trkpt>
      <trkpt lat="45.00069" lon="6.13139">
        <ele>1781.6</ele>
        <time>2022-12-29T12:44:03Z</time>
      </trkpt>
      <trkpt lat="45.00068" lon="6.13139">
        <ele>1781.6</ele>
        <time>2022-12-29T12:44:04Z</time>
      </trkpt>
      <trkpt lat="45.00068" lon="6.1314">
        <ele>1781.6</ele>
        <time>2022-12-29T12:44:05Z</time>
      </trkpt>
      <trkpt lat="45.00068" lon="6.1314">
        <ele>1783.4</ele>
        <time>2022-12-29T12:44:06Z</time>
      </trkpt>
      <trkpt lat="45.00068" lon="6.13141">
        <ele>1783.4</ele>
        <time>2022-12-29T12:44:07Z</time>
      </trkpt>
      <trkpt lat="45.00068" lon="6.13141">
        <ele>1783.4</ele>
        <time>2022-12-29T12:44:08Z</time>
      </trkpt>
      <trkpt lat="45.00069" lon="6.13142">
        <ele>1783.4</ele>
        <time>2022-12-29T12:44:09Z</time>
      </trkpt>
      <trkpt lat="45.00069" lon="6.13143">
        <ele>1783.4</ele>
        <time>2022-12-29T12:44:10Z</time>
      </trkpt>
      <trkpt lat="45.00069" lon="6.13144">
        <ele>1783.4</ele>
        <time>2022-12-29T12:44:11Z</time>
      </trkpt>
      <trkpt lat="45.0007" lon="6.13144">
        <ele>1783.4</ele>
        <time>2022-12-29T12:44:12Z</time>
      </trkpt>
      <trkpt lat="45.0007" lon="6.13145">
        <ele>1783.4</ele>
        <time>2022-12-29T12:44:13Z</time>
      </trkpt>
      <trkpt lat="45.00071" lon="6.13146">
        <ele>1783.4</ele>
        <time>2022-12-29T12:44:14Z</time>
      </trkpt>
      <trkpt lat="45.00071" lon="6.13147">
        <ele>1783.4</ele>
        <time>2022-12-29T12:44:15Z</time>
      </trkpt>
      <trkpt lat="45.00071" lon="6.13148">
        <ele>1784.6</ele>
        <time>2022-12-29T12:44:16Z</time>
      </trkpt>
      <trkpt lat="45.00071" lon="6.13148">
        <ele>1784.6</ele>
        <time>2022-12-29T12:44:17Z</time>
      </trkpt>
      <trkpt lat="45.00072" lon="6.1315">
        <ele>1784.6</ele>
        <time>2022-12-29T12:44:18Z</time>
      </trkpt>
      <trkpt lat="45.00072" lon="6.1315">
        <ele>1784.6</ele>
        <time>2022-12-29T12:44:19Z</time>
      </trkpt>
      <trkpt lat="45.00072" lon="6.1315">
        <ele>1784.6</ele>
        <time>2022-12-29T12:44:20Z</time>
      </trkpt>
      <trkpt lat="45.00074" lon="6.13152">
        <ele>1784.6</ele>
        <time>2022-12-29T12:44:21Z</time>
      </trkpt>
      <trkpt lat="45.00074" lon="6.13152">
        <ele>1784.6</ele>
        <time>2022-12-29T12:44:22Z</time>
      </trkpt>
      <trkpt lat="45.00074" lon="6.13152">
        <ele>1784.6</ele>
        <time>2022-12-29T12:44:23Z</time>
      </trkpt>
      <trkpt lat="45.00074" lon="6.13152">
        <ele>1784.6</ele>
        <time>2022-12-29T12:44:24Z</time>
      </trkpt>
      <trkpt lat="45.00074" lon="6.13152">
        <ele>1784.6</ele>
        <time>2022-12-29T12:44:25Z</time>
      </trkpt>
      <trkpt lat="45.00074" lon="6.13152">
        <ele>1787</ele>
        <time>2022-12-29T12:44:26Z</time>
      </trkpt>
      <trkpt lat="45.00074" lon="6.13153">
        <ele>1787</ele>
        <time>2022-12-29T12:44:27Z</time>
      </trkpt>
      <trkpt lat="45.00074" lon="6.13153">
        <ele>1787</ele>
        <time>2022-12-29T12:44:28Z</time>
      </trkpt>
      <trkpt lat="45.00074" lon="6.13154">
        <ele>1787</ele>
        <time>2022-12-29T12:44:29Z</time>
      </trkpt>
      <trkpt lat="45.00074" lon="6.13154">
        <ele>1787</ele>
        <time>2022-12-29T12:44:30Z</time>
      </trkpt>
      <trkpt lat="45.00075" lon="6.13154">
        <ele>1787</ele>
        <time>2022-12-29T12:44:31Z</time>
      </trkpt>
      <trkpt lat="45.00075" lon="6.13155">
        <ele>1787</ele>
        <time>2022-12-29T12:44:32Z</time>
      </trkpt>
      <trkpt lat="45.00075" lon="6.13155">
        <ele>1787</ele>
        <time>2022-12-29T12:44:33Z</time>
      </trkpt>
      <trkpt lat="45.00075" lon="6.13155">
        <ele>1787</ele>
        <time>2022-12-29T12:44:34Z</time>
      </trkpt>
      <trkpt lat="45.00075" lon="6.13156">
        <ele>1787</ele>
        <time>2022-12-29T12:44:35Z</time>
      </trkpt>
      <trkpt lat="45.00076" lon="6.13156">
        <ele>1787.4</ele>
        <time>2022-12-29T12:44:36Z</time>
      </trkpt>
      <trkpt lat="45.00076" lon="6.13157">
        <ele>1787.4</ele>
        <time>2022-12-29T12:44:37Z</time>
      </trkpt>
      <trkpt lat="45.00076" lon="6.13157">
        <ele>1787.4</ele>
        <time>2022-12-29T12:44:38Z</time>
      </trkpt>
      <trkpt lat="45.00076" lon="6.13157">
        <ele>1787.4</ele>
        <time>2022-12-29T12:44:39Z</time>
      </trkpt>
      <trkpt lat="45.00076" lon="6.13158">
        <ele>1787.4</ele>
        <time>2022-12-29T12:44:40Z</time>
      </trkpt>
      <trkpt lat="45.00077" lon="6.13158">
        <ele>1787.4</ele>
        <time>2022-12-29T12:44:41Z</time>
      </trkpt>
      <trkpt lat="45.00077" lon="6.13159">
        <ele>1787.4</ele>
        <time>2022-12-29T12:44:42Z</time>
      </trkpt>
      <trkpt lat="45.00077" lon="6.13159">
        <ele>1787.4</ele>
        <time>2022-12-29T12:44:43Z</time>
      </trkpt>
      <trkpt lat="45.00077" lon="6.13159">
        <ele>1787.4</ele>
        <time>2022-12-29T12:44:44Z</time>
      </trkpt>
      <trkpt lat="45.00077" lon="6.1316">
        <ele>1787.4</ele>
        <time>2022-12-29T12:44:45Z</time>
      </trkpt>
      <trkpt lat="45.00077" lon="6.1316">
        <ele>1787.8</ele>
        <time>2022-12-29T12:44:46Z</time>
      </trkpt>
      <trkpt lat="45.00078" lon="6.13161">
        <ele>1787.8</ele>
        <time>2022-12-29T12:44:47Z</time>
      </trkpt>
      <trkpt lat="45.00078" lon="6.13161">
        <ele>1787.8</ele>
        <time>2022-12-29T12:44:48Z</time>
      </trkpt>
      <trkpt lat="45.00078" lon="6.13162">
        <ele>1787.8</ele>
        <time>2022-12-29T12:44:49Z</time>
      </trkpt>
      <trkpt lat="45.00078" lon="6.13162">
        <ele>1787.8</ele>
        <time>2022-12-29T12:44:50Z</time>
      </trkpt>
      <trkpt lat="45.00078" lon="6.13163">
        <ele>1787.8</ele>
        <time>2022-12-29T12:44:51Z</time>
      </trkpt>
      <trkpt lat="45.00079" lon="6.13164">
        <ele>1787.8</ele>
        <time>2022-12-29T12:44:52Z</time>
      </trkpt>
      <trkpt lat="45.00079" lon="6.13164">
        <ele>1787.8</ele>
        <time>2022-12-29T12:44:53Z</time>
      </trkpt>
      <trkpt lat="45.00079" lon="6.13165">
        <ele>1787.8</ele>
        <time>2022-12-29T12:44:54Z</time>
      </trkpt>
      <trkpt lat="45.00079" lon="6.13165">
        <ele>1787.8</ele>
        <time>2022-12-29T12:44:55Z</time>
      </trkpt>
      <trkpt lat="45.00079" lon="6.13166">
        <ele>1789.2</ele>
        <time>2022-12-29T12:44:56Z</time>
      </trkpt>
      <trkpt lat="45.0008" lon="6.1317">
        <ele>1789.2</ele>
        <time>2022-12-29T12:44:57Z</time>
      </trkpt>
      <trkpt lat="45.0008" lon="6.13171">
        <ele>1789.2</ele>
        <time>2022-12-29T12:44:58Z</time>
      </trkpt>
      <trkpt lat="45.0008" lon="6.13172">
        <ele>1789.2</ele>
        <time>2022-12-29T12:44:59Z</time>
      </trkpt>
      <trkpt lat="45.0008" lon="6.13172">
        <ele>1789.2</ele>
        <time>2022-12-29T12:45:00Z</time>
      </trkpt>
      <trkpt lat="45.0008" lon="6.13173">
        <ele>1789.2</ele>
        <time>2022-12-29T12:45:01Z</time>
      </trkpt>
      <trkpt lat="45.0008" lon="6.13174">
        <ele>1789.2</ele>
        <time>2022-12-29T12:45:02Z</time>
      </trkpt>
      <trkpt lat="45.0008" lon="6.13175">
        <ele>1789.2</ele>
        <time>2022-12-29T12:45:03Z</time>
      </trkpt>
      <trkpt lat="45.0008" lon="6.13176">
        <ele>1789.2</ele>
        <time>2022-12-29T12:45:04Z</time>
      </trkpt>
      <trkpt lat="45.00081" lon="6.13177">
        <ele>1789.2</ele>
        <time>2022-12-29T12:45:05Z</time>
      </trkpt>
      <trkpt lat="45.00081" lon="6.13178">
        <ele>1791</ele>
        <time>2022-12-29T12:45:06Z</time>
      </trkpt>
      <trkpt lat="45.0008" lon="6.13178">
        <ele>1791</ele>
        <time>2022-12-29T12:45:07Z</time>
      </trkpt>
      <trkpt lat="45.0008" lon="6.13178">
        <ele>1791</ele>
        <time>2022-12-29T12:45:08Z</time>
      </trkpt>
      <trkpt lat="45.0008" lon="6.13177">
        <ele>1791</ele>
        <time>2022-12-29T12:45:09Z</time>
      </trkpt>
      <trkpt lat="45.0008" lon="6.13177">
        <ele>1791</ele>
        <time>2022-12-29T12:45:10Z</time>
      </trkpt>
      <trkpt lat="45.00079" lon="6.13177">
        <ele>1791</ele>
        <time>2022-12-29T12:45:11Z</time>
      </trkpt>
      <trkpt lat="45.00079" lon="6.13177">
        <ele>1791</ele>
        <time>2022-12-29T12:45:12Z</time>
      </trkpt>
      <trkpt lat="45.00079" lon="6.13177">
        <ele>1791</ele>
        <time>2022-12-29T12:45:13Z</time>
      </trkpt>
      <trkpt lat="45.00078" lon="6.13177">
        <ele>1791</ele>
        <time>2022-12-29T12:45:14Z</time>
      </trkpt>
      <trkpt lat="45.00078" lon="6.13177">
        <ele>1791</ele>
        <time>2022-12-29T12:45:15Z</time>
      </trkpt>
      <trkpt lat="45.00078" lon="6.13177">
        <ele>1793.6</ele>
        <time>2022-12-29T12:45:16Z</time>
      </trkpt>
      <trkpt lat="45.00075" lon="6.13176">
        <ele>1793.6</ele>
        <time>2022-12-29T12:45:17Z</time>
      </trkpt>
      <trkpt lat="45.00074" lon="6.13176">
        <ele>1793.6</ele>
        <time>2022-12-29T12:45:18Z</time>
      </trkpt>
      <trkpt lat="45.00073" lon="6.13176">
        <ele>1793.6</ele>
        <time>2022-12-29T12:45:19Z</time>
      </trkpt>
      <trkpt lat="45.00073" lon="6.13175">
        <ele>1793.6</ele>
        <time>2022-12-29T12:45:20Z</time>
      </trkpt>
      <trkpt lat="45.00072" lon="6.13175">
        <ele>1793.6</ele>
        <time>2022-12-29T12:45:21Z</time>
      </trkpt>
      <trkpt lat="45.00072" lon="6.13175">
        <ele>1793.6</ele>
        <time>2022-12-29T12:45:22Z</time>
      </trkpt>
      <trkpt lat="45.00071" lon="6.13175">
        <ele>1793.6</ele>
        <time>2022-12-29T12:45:23Z</time>
      </trkpt>
      <trkpt lat="45.0007" lon="6.13174">
        <ele>1793.6</ele>
        <time>2022-12-29T12:45:24Z</time>
      </trkpt>
      <trkpt lat="45.0007" lon="6.13174">
        <ele>1793.6</ele>
        <time>2022-12-29T12:45:25Z</time>
      </trkpt>
      <trkpt lat="45.00069" lon="6.13174">
        <ele>1795.4</ele>
        <time>2022-12-29T12:45:26Z</time>
      </trkpt>
      <trkpt lat="45.00068" lon="6.13174">
        <ele>1795.4</ele>
        <time>2022-12-29T12:45:27Z</time>
      </trkpt>
      <trkpt lat="45.00068" lon="6.13174">
        <ele>1795.4</ele>
        <time>2022-12-29T12:45:28Z</time>
      </trkpt>
      <trkpt lat="45.00067" lon="6.13173">
        <ele>1795.4</ele>
        <time>2022-12-29T12:45:29Z</time>
      </trkpt>
      <trkpt lat="45.00066" lon="6.13173">
        <ele>1795.4</ele>
        <time>2022-12-29T12:45:30Z</time>
      </trkpt>
      <trkpt lat="45.00066" lon="6.13173">
        <ele>1795.4</ele>
        <time>2022-12-29T12:45:31Z</time>
      </trkpt>
      <trkpt lat="45.00065" lon="6.13173">
        <ele>1795.4</ele>
        <time>2022-12-29T12:45:34Z</time>
      </trkpt>
      <trkpt lat="45.00064" lon="6.13173">
        <ele>1795.4</ele>
        <time>2022-12-29T12:45:35Z</time>
      </trkpt>
      <trkpt lat="45.00063" lon="6.13173">
        <ele>1797</ele>
        <time>2022-12-29T12:45:36Z</time>
      </trkpt>
      <trkpt lat="45.00063" lon="6.13173">
        <ele>1797</ele>
        <time>2022-12-29T12:45:37Z</time>
      </trkpt>
      <trkpt lat="45.00063" lon="6.13173">
        <ele>1797</ele>
        <time>2022-12-29T12:45:38Z</time>
      </trkpt>
      <trkpt lat="45.00063" lon="6.13173">
        <ele>1797</ele>
        <time>2022-12-29T12:45:39Z</time>
      </trkpt>
      <trkpt lat="45.00063" lon="6.13173">
        <ele>1797</ele>
        <time>2022-12-29T12:45:40Z</time>
      </trkpt>
      <trkpt lat="45.00063" lon="6.13173">
        <ele>1797</ele>
        <time>2022-12-29T12:45:41Z</time>
      </trkpt>
      <trkpt lat="45.00063" lon="6.13173">
        <ele>1797</ele>
        <time>2022-12-29T12:45:42Z</time>
      </trkpt>
      <trkpt lat="45.00063" lon="6.13173">
        <ele>1797</ele>
        <time>2022-12-29T12:45:43Z</time>
      </trkpt>
      <trkpt lat="45.00063" lon="6.13173">
        <ele>1797</ele>
        <time>2022-12-29T12:45:44Z</time>
      </trkpt>
      <trkpt lat="45.00063" lon="6.13173">
        <ele>1797</ele>
        <time>2022-12-29T12:45:45Z</time>
      </trkpt>
      <trkpt lat="45.00063" lon="6.13173">
        <ele>1796.4</ele>
        <time>2022-12-29T12:45:46Z</time>
      </trkpt>
      <trkpt lat="45.00063" lon="6.13173">
        <ele>1796.4</ele>
        <time>2022-12-29T12:45:47Z</time>
      </trkpt>
      <trkpt lat="45.00063" lon="6.13173">
        <ele>1796.4</ele>
        <time>2022-12-29T12:45:48Z</time>
      </trkpt>
      <trkpt lat="45.00063" lon="6.13173">
        <ele>1796.4</ele>
        <time>2022-12-29T12:45:49Z</time>
      </trkpt>
      <trkpt lat="45.00063" lon="6.13173">
        <ele>1796.4</ele>
        <time>2022-12-29T12:45:50Z</time>
      </trkpt>
      <trkpt lat="45.00063" lon="6.13173">
        <ele>1796.4</ele>
        <time>2022-12-29T12:45:51Z</time>
      </trkpt>
      <trkpt lat="45.00063" lon="6.13173">
        <ele>1796.4</ele>
        <time>2022-12-29T12:45:52Z</time>
      </trkpt>
      <trkpt lat="45.00063" lon="6.13173">
        <ele>1796.4</ele>
        <time>2022-12-29T12:45:53Z</time>
      </trkpt>
      <trkpt lat="45.00063" lon="6.13173">
        <ele>1796.4</ele>
        <time>2022-12-29T12:45:54Z</time>
      </trkpt>
      <trkpt lat="45.00063" lon="6.13173">
        <ele>1796.4</ele>
        <time>2022-12-29T12:45:55Z</time>
      </trkpt>
      <trkpt lat="45.00061" lon="6.13173">
        <ele>1797.2</ele>
        <time>2022-12-29T12:45:56Z</time>
      </trkpt>
      <trkpt lat="45.0006" lon="6.13173">
        <ele>1797.2</ele>
        <time>2022-12-29T12:45:57Z</time>
      </trkpt>
      <trkpt lat="45.00059" lon="6.13173">
        <ele>1797.2</ele>
        <time>2022-12-29T12:45:58Z</time>
      </trkpt>
      <trkpt lat="45.00058" lon="6.13173">
        <ele>1797.2</ele>
        <time>2022-12-29T12:45:59Z</time>
      </trkpt>
      <trkpt lat="45.00057" lon="6.13173">
        <ele>1797.2</ele>
        <time>2022-12-29T12:46:00Z</time>
      </trkpt>
      <trkpt lat="45.00057" lon="6.13174">
        <ele>1797.2</ele>
        <time>2022-12-29T12:46:01Z</time>
      </trkpt>
      <trkpt lat="45.00056" lon="6.13174">
        <ele>1797.2</ele>
        <time>2022-12-29T12:46:02Z</time>
      </trkpt>
      <trkpt lat="45.00055" lon="6.13174">
        <ele>1797.2</ele>
        <time>2022-12-29T12:46:03Z</time>
      </trkpt>
      <trkpt lat="45.00054" lon="6.13174">
        <ele>1797.2</ele>
        <time>2022-12-29T12:46:04Z</time>
      </trkpt>
      <trkpt lat="45.00053" lon="6.13175">
        <ele>1797.2</ele>
        <time>2022-12-29T12:46:05Z</time>
      </trkpt>
      <trkpt lat="45.00052" lon="6.13175">
        <ele>1797.6</ele>
        <time>2022-12-29T12:46:06Z</time>
      </trkpt>
      <trkpt lat="45.00052" lon="6.13175">
        <ele>1797.6</ele>
        <time>2022-12-29T12:46:07Z</time>
      </trkpt>
      <trkpt lat="45.00052" lon="6.13175">
        <ele>1797.6</ele>
        <time>2022-12-29T12:46:08Z</time>
      </trkpt>
      <trkpt lat="45.00052" lon="6.13175">
        <ele>1797.6</ele>
        <time>2022-12-29T12:46:09Z</time>
      </trkpt>
      <trkpt lat="45.00052" lon="6.13175">
        <ele>1797.6</ele>
        <time>2022-12-29T12:46:10Z</time>
      </trkpt>
      <trkpt lat="45.00052" lon="6.13175">
        <ele>1797.6</ele>
        <time>2022-12-29T12:46:11Z</time>
      </trkpt>
      <trkpt lat="45.00052" lon="6.13175">
        <ele>1797.6</ele>
        <time>2022-12-29T12:46:12Z</time>
      </trkpt>
      <trkpt lat="45.00052" lon="6.13175">
        <ele>1797.6</ele>
        <time>2022-12-29T12:46:13Z</time>
      </trkpt>
      <trkpt lat="45.00052" lon="6.13175">
        <ele>1797.6</ele>
        <time>2022-12-29T12:46:14Z</time>
      </trkpt>
      <trkpt lat="45.00052" lon="6.13175">
        <ele>1797.6</ele>
        <time>2022-12-29T12:46:15Z</time>
      </trkpt>
      <trkpt lat="45.00053" lon="6.13177">
        <ele>1797.6</ele>
        <time>2022-12-29T12:46:16Z</time>
      </trkpt>
      <trkpt lat="45.00054" lon="6.13178">
        <ele>1797.6</ele>
        <time>2022-12-29T12:46:17Z</time>
      </trkpt>
      <trkpt lat="45.00054" lon="6.13178">
        <ele>1797.6</ele>
        <time>2022-12-29T12:46:18Z</time>
      </trkpt>
      <trkpt lat="45.00055" lon="6.13179">
        <ele>1797.6</ele>
        <time>2022-12-29T12:46:19Z</time>
      </trkpt>
      <trkpt lat="45.00055" lon="6.13179">
        <ele>1797.6</ele>
        <time>2022-12-29T12:46:20Z</time>
      </trkpt>
      <trkpt lat="45.00056" lon="6.1318">
        <ele>1797.6</ele>
        <time>2022-12-29T12:46:21Z</time>
      </trkpt>
      <trkpt lat="45.00057" lon="6.1318">
        <ele>1797.6</ele>
        <time>2022-12-29T12:46:22Z</time>
      </trkpt>
      <trkpt lat="45.00057" lon="6.13181">
        <ele>1797.6</ele>
        <time>2022-12-29T12:46:23Z</time>
      </trkpt>
      <trkpt lat="45.00058" lon="6.13181">
        <ele>1797.6</ele>
        <time>2022-12-29T12:46:24Z</time>
      </trkpt>
      <trkpt lat="45.00058" lon="6.13182">
        <ele>1797.6</ele>
        <time>2022-12-29T12:46:25Z</time>
      </trkpt>
      <trkpt lat="45.00059" lon="6.13182">
        <ele>1799</ele>
        <time>2022-12-29T12:46:26Z</time>
      </trkpt>
      <trkpt lat="45.00059" lon="6.13183">
        <ele>1799</ele>
        <time>2022-12-29T12:46:27Z</time>
      </trkpt>
      <trkpt lat="45.0006" lon="6.13183">
        <ele>1799</ele>
        <time>2022-12-29T12:46:28Z</time>
      </trkpt>
      <trkpt lat="45.0006" lon="6.13184">
        <ele>1799</ele>
        <time>2022-12-29T12:46:29Z</time>
      </trkpt>
      <trkpt lat="45.00061" lon="6.13184">
        <ele>1799</ele>
        <time>2022-12-29T12:46:30Z</time>
      </trkpt>
      <trkpt lat="45.00061" lon="6.13185">
        <ele>1799</ele>
        <time>2022-12-29T12:46:31Z</time>
      </trkpt>
      <trkpt lat="45.00062" lon="6.13185">
        <ele>1799</ele>
        <time>2022-12-29T12:46:32Z</time>
      </trkpt>
      <trkpt lat="45.00062" lon="6.13186">
        <ele>1799</ele>
        <time>2022-12-29T12:46:33Z</time>
      </trkpt>
      <trkpt lat="45.00063" lon="6.13186">
        <ele>1799</ele>
        <time>2022-12-29T12:46:34Z</time>
      </trkpt>
      <trkpt lat="45.00063" lon="6.13187">
        <ele>1799</ele>
        <time>2022-12-29T12:46:35Z</time>
      </trkpt>
      <trkpt lat="45.00063" lon="6.13187">
        <ele>1801.4</ele>
        <time>2022-12-29T12:46:36Z</time>
      </trkpt>
      <trkpt lat="45.00065" lon="6.1319">
        <ele>1801.4</ele>
        <time>2022-12-29T12:46:37Z</time>
      </trkpt>
      <trkpt lat="45.00066" lon="6.1319">
        <ele>1801.4</ele>
        <time>2022-12-29T12:46:38Z</time>
      </trkpt>
      <trkpt lat="45.00066" lon="6.13191">
        <ele>1801.4</ele>
        <time>2022-12-29T12:46:39Z</time>
      </trkpt>
      <trkpt lat="45.00067" lon="6.13191">
        <ele>1801.4</ele>
        <time>2022-12-29T12:46:40Z</time>
      </trkpt>
      <trkpt lat="45.00067" lon="6.13192">
        <ele>1801.4</ele>
        <time>2022-12-29T12:46:41Z</time>
      </trkpt>
      <trkpt lat="45.00068" lon="6.13193">
        <ele>1801.4</ele>
        <time>2022-12-29T12:46:42Z</time>
      </trkpt>
      <trkpt lat="45.00068" lon="6.13193">
        <ele>1801.4</ele>
        <time>2022-12-29T12:46:43Z</time>
      </trkpt>
      <trkpt lat="45.00068" lon="6.13194">
        <ele>1801.4</ele>
        <time>2022-12-29T12:46:44Z</time>
      </trkpt>
      <trkpt lat="45.00069" lon="6.13195">
        <ele>1801.4</ele>
        <time>2022-12-29T12:46:45Z</time>
      </trkpt>
      <trkpt lat="45.00069" lon="6.13195">
        <ele>1802.8</ele>
        <time>2022-12-29T12:46:46Z</time>
      </trkpt>
      <trkpt lat="45.0007" lon="6.13196">
        <ele>1802.8</ele>
        <time>2022-12-29T12:46:47Z</time>
      </trkpt>
      <trkpt lat="45.0007" lon="6.13197">
        <ele>1802.8</ele>
        <time>2022-12-29T12:46:48Z</time>
      </trkpt>
      <trkpt lat="45.00071" lon="6.13198">
        <ele>1802.8</ele>
        <time>2022-12-29T12:46:49Z</time>
      </trkpt>
      <trkpt lat="45.00071" lon="6.13198">
        <ele>1802.8</ele>
        <time>2022-12-29T12:46:50Z</time>
      </trkpt>
      <trkpt lat="45.00072" lon="6.13199">
        <ele>1802.8</ele>
        <time>2022-12-29T12:46:51Z</time>
      </trkpt>
      <trkpt lat="45.00072" lon="6.132">
        <ele>1802.8</ele>
        <time>2022-12-29T12:46:52Z</time>
      </trkpt>
      <trkpt lat="45.00073" lon="6.13201">
        <ele>1802.8</ele>
        <time>2022-12-29T12:46:53Z</time>
      </trkpt>
      <trkpt lat="45.00073" lon="6.13202">
        <ele>1802.8</ele>
        <time>2022-12-29T12:46:54Z</time>
      </trkpt>
      <trkpt lat="45.00073" lon="6.13203">
        <ele>1802.8</ele>
        <time>2022-12-29T12:46:55Z</time>
      </trkpt>
      <trkpt lat="45.00074" lon="6.13203">
        <ele>1804</ele>
        <time>2022-12-29T12:46:56Z</time>
      </trkpt>
      <trkpt lat="45.00074" lon="6.13204">
        <ele>1804</ele>
        <time>2022-12-29T12:46:57Z</time>
      </trkpt>
      <trkpt lat="45.00074" lon="6.13204">
        <ele>1804</ele>
        <time>2022-12-29T12:46:58Z</time>
      </trkpt>
      <trkpt lat="45.00074" lon="6.13205">
        <ele>1804</ele>
        <time>2022-12-29T12:46:59Z</time>
      </trkpt>
      <trkpt lat="45.00075" lon="6.13205">
        <ele>1804</ele>
        <time>2022-12-29T12:47:00Z</time>
      </trkpt>
      <trkpt lat="45.00075" lon="6.13206">
        <ele>1804</ele>
        <time>2022-12-29T12:47:01Z</time>
      </trkpt>
      <trkpt lat="45.00075" lon="6.13206">
        <ele>1804</ele>
        <time>2022-12-29T12:47:02Z</time>
      </trkpt>
      <trkpt lat="45.00075" lon="6.13206">
        <ele>1804</ele>
        <time>2022-12-29T12:47:03Z</time>
      </trkpt>
      <trkpt lat="45.00075" lon="6.13207">
        <ele>1804</ele>
        <time>2022-12-29T12:47:04Z</time>
      </trkpt>
      <trkpt lat="45.00076" lon="6.13207">
        <ele>1804</ele>
        <time>2022-12-29T12:47:05Z</time>
      </trkpt>
      <trkpt lat="45.00076" lon="6.13208">
        <ele>1805.2</ele>
        <time>2022-12-29T12:47:06Z</time>
      </trkpt>
      <trkpt lat="45.00076" lon="6.13208">
        <ele>1805.2</ele>
        <time>2022-12-29T12:47:07Z</time>
      </trkpt>
      <trkpt lat="45.00076" lon="6.13209">
        <ele>1805.2</ele>
        <time>2022-12-29T12:47:08Z</time>
      </trkpt>
      <trkpt lat="45.00076" lon="6.13209">
        <ele>1805.2</ele>
        <time>2022-12-29T12:47:09Z</time>
      </trkpt>
      <trkpt lat="45.00076" lon="6.1321">
        <ele>1805.2</ele>
        <time>2022-12-29T12:47:10Z</time>
      </trkpt>
      <trkpt lat="45.00077" lon="6.1321">
        <ele>1805.2</ele>
        <time>2022-12-29T12:47:11Z</time>
      </trkpt>
      <trkpt lat="45.00077" lon="6.1321">
        <ele>1805.2</ele>
        <time>2022-12-29T12:47:12Z</time>
      </trkpt>
      <trkpt lat="45.00077" lon="6.13211">
        <ele>1805.2</ele>
        <time>2022-12-29T12:47:13Z</time>
      </trkpt>
      <trkpt lat="45.00077" lon="6.13211">
        <ele>1805.2</ele>
        <time>2022-12-29T12:47:14Z</time>
      </trkpt>
      <trkpt lat="45.00077" lon="6.13212">
        <ele>1805.2</ele>
        <time>2022-12-29T12:47:15Z</time>
      </trkpt>
      <trkpt lat="45.00077" lon="6.13212">
        <ele>1806</ele>
        <time>2022-12-29T12:47:16Z</time>
      </trkpt>
      <trkpt lat="45.00077" lon="6.13212">
        <ele>1806</ele>
        <time>2022-12-29T12:47:17Z</time>
      </trkpt>
      <trkpt lat="45.00077" lon="6.13212">
        <ele>1806</ele>
        <time>2022-12-29T12:47:18Z</time>
      </trkpt>
      <trkpt lat="45.00077" lon="6.13212">
        <ele>1806</ele>
        <time>2022-12-29T12:47:19Z</time>
      </trkpt>
      <trkpt lat="45.00077" lon="6.13212">
        <ele>1806</ele>
        <time>2022-12-29T12:47:20Z</time>
      </trkpt>
      <trkpt lat="45.00077" lon="6.13212">
        <ele>1806</ele>
        <time>2022-12-29T12:47:21Z</time>
      </trkpt>
      <trkpt lat="45.00076" lon="6.13212">
        <ele>1806</ele>
        <time>2022-12-29T12:47:22Z</time>
      </trkpt>
      <trkpt lat="45.00076" lon="6.13212">
        <ele>1806</ele>
        <time>2022-12-29T12:47:23Z</time>
      </trkpt>
      <trkpt lat="45.00076" lon="6.13212">
        <ele>1806</ele>
        <time>2022-12-29T12:47:24Z</time>
      </trkpt>
      <trkpt lat="45.00074" lon="6.13211">
        <ele>1806</ele>
        <time>2022-12-29T12:47:25Z</time>
      </trkpt>
      <trkpt lat="45.00074" lon="6.13211">
        <ele>1808.2</ele>
        <time>2022-12-29T12:47:26Z</time>
      </trkpt>
      <trkpt lat="45.00073" lon="6.13211">
        <ele>1808.2</ele>
        <time>2022-12-29T12:47:27Z</time>
      </trkpt>
      <trkpt lat="45.00073" lon="6.13211">
        <ele>1808.2</ele>
        <time>2022-12-29T12:47:28Z</time>
      </trkpt>
      <trkpt lat="45.00072" lon="6.13211">
        <ele>1808.2</ele>
        <time>2022-12-29T12:47:29Z</time>
      </trkpt>
      <trkpt lat="45.00072" lon="6.13211">
        <ele>1808.2</ele>
        <time>2022-12-29T12:47:30Z</time>
      </trkpt>
      <trkpt lat="45.00071" lon="6.13211">
        <ele>1808.2</ele>
        <time>2022-12-29T12:47:31Z</time>
      </trkpt>
      <trkpt lat="45.00071" lon="6.13211">
        <ele>1808.2</ele>
        <time>2022-12-29T12:47:32Z</time>
      </trkpt>
      <trkpt lat="45.00071" lon="6.13211">
        <ele>1808.2</ele>
        <time>2022-12-29T12:47:33Z</time>
      </trkpt>
      <trkpt lat="45.0007" lon="6.13211">
        <ele>1808.2</ele>
        <time>2022-12-29T12:47:34Z</time>
      </trkpt>
      <trkpt lat="45.0007" lon="6.13211">
        <ele>1808.2</ele>
        <time>2022-12-29T12:47:35Z</time>
      </trkpt>
      <trkpt lat="45.00069" lon="6.13211">
        <ele>1809.6</ele>
        <time>2022-12-29T12:47:36Z</time>
      </trkpt>
      <trkpt lat="45.00069" lon="6.13211">
        <ele>1809.6</ele>
        <time>2022-12-29T12:47:40Z</time>
      </trkpt>
      <trkpt lat="45.00069" lon="6.13211">
        <ele>1809.6</ele>
        <time>2022-12-29T12:47:41Z</time>
      </trkpt>
      <trkpt lat="45.00069" lon="6.13211">
        <ele>1809.6</ele>
        <time>2022-12-29T12:47:42Z</time>
      </trkpt>
      <trkpt lat="45.00069" lon="6.13211">
        <ele>1809.6</ele>
        <time>2022-12-29T12:47:43Z</time>
      </trkpt>
      <trkpt lat="45.00069" lon="6.13211">
        <ele>1809.6</ele>
        <time>2022-12-29T12:47:44Z</time>
      </trkpt>
      <trkpt lat="45.00069" lon="6.13211">
        <ele>1809.6</ele>
        <time>2022-12-29T12:47:45Z</time>
      </trkpt>
      <trkpt lat="45.00069" lon="6.13211">
        <ele>1808.8</ele>
        <time>2022-12-29T12:47:46Z</time>
      </trkpt>
      <trkpt lat="45.00069" lon="6.13211">
        <ele>1808.8</ele>
        <time>2022-12-29T12:47:47Z</time>
      </trkpt>
      <trkpt lat="45.00069" lon="6.13211">
        <ele>1808.8</ele>
        <time>2022-12-29T12:47:48Z</time>
      </trkpt>
      <trkpt lat="45.00069" lon="6.13211">
        <ele>1808.8</ele>
        <time>2022-12-29T12:47:49Z</time>
      </trkpt>
      <trkpt lat="45.00069" lon="6.13211">
        <ele>1808.8</ele>
        <time>2022-12-29T12:47:50Z</time>
      </trkpt>
      <trkpt lat="45.0007" lon="6.13213">
        <ele>1808.8</ele>
        <time>2022-12-29T12:47:51Z</time>
      </trkpt>
      <trkpt lat="45.0007" lon="6.13213">
        <ele>1808.8</ele>
        <time>2022-12-29T12:47:52Z</time>
      </trkpt>
      <trkpt lat="45.0007" lon="6.13213">
        <ele>1808.8</ele>
        <time>2022-12-29T12:47:53Z</time>
      </trkpt>
      <trkpt lat="45.0007" lon="6.13213">
        <ele>1808.8</ele>
        <time>2022-12-29T12:47:54Z</time>
      </trkpt>
      <trkpt lat="45.0007" lon="6.13213">
        <ele>1808.8</ele>
        <time>2022-12-29T12:47:55Z</time>
      </trkpt>
      <trkpt lat="45.0007" lon="6.13213">
        <ele>1809.2</ele>
        <time>2022-12-29T12:47:56Z</time>
      </trkpt>
      <trkpt lat="45.0007" lon="6.13213">
        <ele>1809.2</ele>
        <time>2022-12-29T12:47:57Z</time>
      </trkpt>
      <trkpt lat="45.00071" lon="6.13214">
        <ele>1809.2</ele>
        <time>2022-12-29T12:47:58Z</time>
      </trkpt>
      <trkpt lat="45.00071" lon="6.13214">
        <ele>1809.2</ele>
        <time>2022-12-29T12:47:59Z</time>
      </trkpt>
      <trkpt lat="45.00071" lon="6.13215">
        <ele>1809.2</ele>
        <time>2022-12-29T12:48:00Z</time>
      </trkpt>
      <trkpt lat="45.00071" lon="6.13215">
        <ele>1809.2</ele>
        <time>2022-12-29T12:48:01Z</time>
      </trkpt>
      <trkpt lat="45.00071" lon="6.13216">
        <ele>1809.2</ele>
        <time>2022-12-29T12:48:02Z</time>
      </trkpt>
      <trkpt lat="45.00072" lon="6.13216">
        <ele>1809.2</ele>
        <time>2022-12-29T12:48:03Z</time>
      </trkpt>
      <trkpt lat="45.00072" lon="6.13217">
        <ele>1809.2</ele>
        <time>2022-12-29T12:48:04Z</time>
      </trkpt>
      <trkpt lat="45.00072" lon="6.13217">
        <ele>1809.2</ele>
        <time>2022-12-29T12:48:05Z</time>
      </trkpt>
      <trkpt lat="45.00072" lon="6.13217">
        <ele>1810.6</ele>
        <time>2022-12-29T12:48:06Z</time>
      </trkpt>
      <trkpt lat="45.00072" lon="6.13218">
        <ele>1810.6</ele>
        <time>2022-12-29T12:48:07Z</time>
      </trkpt>
      <trkpt lat="45.00071" lon="6.13218">
        <ele>1810.6</ele>
        <time>2022-12-29T12:48:08Z</time>
      </trkpt>
      <trkpt lat="45.00071" lon="6.13218">
        <ele>1810.6</ele>
        <time>2022-12-29T12:48:09Z</time>
      </trkpt>
      <trkpt lat="45.00071" lon="6.13218">
        <ele>1810.6</ele>
        <time>2022-12-29T12:48:10Z</time>
      </trkpt>
      <trkpt lat="45.0007" lon="6.13219">
        <ele>1810.6</ele>
        <time>2022-12-29T12:48:11Z</time>
      </trkpt>
      <trkpt lat="45.0007" lon="6.13219">
        <ele>1810.6</ele>
        <time>2022-12-29T12:48:12Z</time>
      </trkpt>
      <trkpt lat="45.00069" lon="6.13219">
        <ele>1810.6</ele>
        <time>2022-12-29T12:48:13Z</time>
      </trkpt>
      <trkpt lat="45.00069" lon="6.13219">
        <ele>1810.6</ele>
        <time>2022-12-29T12:48:14Z</time>
      </trkpt>
      <trkpt lat="45.00068" lon="6.1322">
        <ele>1810.6</ele>
        <time>2022-12-29T12:48:15Z</time>
      </trkpt>
      <trkpt lat="45.00068" lon="6.1322">
        <ele>1811.8</ele>
        <time>2022-12-29T12:48:16Z</time>
      </trkpt>
      <trkpt lat="45.00067" lon="6.1322">
        <ele>1811.8</ele>
        <time>2022-12-29T12:48:17Z</time>
      </trkpt>
      <trkpt lat="45.00067" lon="6.1322">
        <ele>1811.8</ele>
        <time>2022-12-29T12:48:18Z</time>
      </trkpt>
      <trkpt lat="45.00067" lon="6.13221">
        <ele>1811.8</ele>
        <time>2022-12-29T12:48:19Z</time>
      </trkpt>
      <trkpt lat="45.00066" lon="6.13221">
        <ele>1811.8</ele>
        <time>2022-12-29T12:48:20Z</time>
      </trkpt>
      <trkpt lat="45.00066" lon="6.13221">
        <ele>1811.8</ele>
        <time>2022-12-29T12:48:21Z</time>
      </trkpt>
      <trkpt lat="45.00065" lon="6.13221">
        <ele>1811.8</ele>
        <time>2022-12-29T12:48:22Z</time>
      </trkpt>
      <trkpt lat="45.00065" lon="6.13222">
        <ele>1811.8</ele>
        <time>2022-12-29T12:48:23Z</time>
      </trkpt>
      <trkpt lat="45.00064" lon="6.13222">
        <ele>1811.8</ele>
        <time>2022-12-29T12:48:24Z</time>
      </trkpt>
      <trkpt lat="45.00064" lon="6.13222">
        <ele>1811.8</ele>
        <time>2022-12-29T12:48:25Z</time>
      </trkpt>
      <trkpt lat="45.00063" lon="6.13222">
        <ele>1812.6</ele>
        <time>2022-12-29T12:48:26Z</time>
      </trkpt>
      <trkpt lat="45.00062" lon="6.13223">
        <ele>1812.6</ele>
        <time>2022-12-29T12:48:27Z</time>
      </trkpt>
      <trkpt lat="45.00062" lon="6.13223">
        <ele>1812.6</ele>
        <time>2022-12-29T12:48:28Z</time>
      </trkpt>
      <trkpt lat="45.00061" lon="6.13223">
        <ele>1812.6</ele>
        <time>2022-12-29T12:48:29Z</time>
      </trkpt>
      <trkpt lat="45.0006" lon="6.13223">
        <ele>1812.6</ele>
        <time>2022-12-29T12:48:30Z</time>
      </trkpt>
      <trkpt lat="45.00059" lon="6.13224">
        <ele>1812.6</ele>
        <time>2022-12-29T12:48:31Z</time>
      </trkpt>
      <trkpt lat="45.00058" lon="6.13224">
        <ele>1812.6</ele>
        <time>2022-12-29T12:48:32Z</time>
      </trkpt>
      <trkpt lat="45.00057" lon="6.13224">
        <ele>1812.6</ele>
        <time>2022-12-29T12:48:33Z</time>
      </trkpt>
      <trkpt lat="45.00056" lon="6.13224">
        <ele>1812.6</ele>
        <time>2022-12-29T12:48:34Z</time>
      </trkpt>
      <trkpt lat="45.00055" lon="6.13225">
        <ele>1812.6</ele>
        <time>2022-12-29T12:48:35Z</time>
      </trkpt>
      <trkpt lat="45.00054" lon="6.13225">
        <ele>1812.8</ele>
        <time>2022-12-29T12:48:36Z</time>
      </trkpt>
      <trkpt lat="45.00052" lon="6.13225">
        <ele>1812.8</ele>
        <time>2022-12-29T12:48:37Z</time>
      </trkpt>
      <trkpt lat="45.00052" lon="6.13225">
        <ele>1812.8</ele>
        <time>2022-12-29T12:48:38Z</time>
      </trkpt>
      <trkpt lat="45.00051" lon="6.13226">
        <ele>1812.8</ele>
        <time>2022-12-29T12:48:39Z</time>
      </trkpt>
      <trkpt lat="45.0005" lon="6.13226">
        <ele>1812.8</ele>
        <time>2022-12-29T12:48:40Z</time>
      </trkpt>
      <trkpt lat="45.00049" lon="6.13226">
        <ele>1812.8</ele>
        <time>2022-12-29T12:48:41Z</time>
      </trkpt>
      <trkpt lat="45.00049" lon="6.13226">
        <ele>1812.8</ele>
        <time>2022-12-29T12:48:42Z</time>
      </trkpt>
      <trkpt lat="45.00048" lon="6.13227">
        <ele>1812.8</ele>
        <time>2022-12-29T12:48:43Z</time>
      </trkpt>
      <trkpt lat="45.00047" lon="6.13227">
        <ele>1812.8</ele>
        <time>2022-12-29T12:48:44Z</time>
      </trkpt>
      <trkpt lat="45.00047" lon="6.13227">
        <ele>1812.8</ele>
        <time>2022-12-29T12:48:45Z</time>
      </trkpt>
      <trkpt lat="45.00046" lon="6.13227">
        <ele>1813</ele>
        <time>2022-12-29T12:48:46Z</time>
      </trkpt>
      <trkpt lat="45.00043" lon="6.13228">
        <ele>1813</ele>
        <time>2022-12-29T12:48:47Z</time>
      </trkpt>
      <trkpt lat="45.00042" lon="6.13229">
        <ele>1813</ele>
        <time>2022-12-29T12:48:48Z</time>
      </trkpt>
      <trkpt lat="45.00042" lon="6.13229">
        <ele>1813</ele>
        <time>2022-12-29T12:48:49Z</time>
      </trkpt>
      <trkpt lat="45.00041" lon="6.13229">
        <ele>1813</ele>
        <time>2022-12-29T12:48:50Z</time>
      </trkpt>
      <trkpt lat="45.00041" lon="6.1323">
        <ele>1813</ele>
        <time>2022-12-29T12:48:51Z</time>
      </trkpt>
      <trkpt lat="45.0004" lon="6.1323">
        <ele>1813</ele>
        <time>2022-12-29T12:48:52Z</time>
      </trkpt>
      <trkpt lat="45.00039" lon="6.13231">
        <ele>1813</ele>
        <time>2022-12-29T12:48:53Z</time>
      </trkpt>
      <trkpt lat="45.00039" lon="6.13231">
        <ele>1813</ele>
        <time>2022-12-29T12:48:54Z</time>
      </trkpt>
      <trkpt lat="45.00038" lon="6.13231">
        <ele>1813</ele>
        <time>2022-12-29T12:48:55Z</time>
      </trkpt>
      <trkpt lat="45.00037" lon="6.13232">
        <ele>1814.4</ele>
        <time>2022-12-29T12:48:56Z</time>
      </trkpt>
      <trkpt lat="45.00037" lon="6.13232">
        <ele>1814.4</ele>
        <time>2022-12-29T12:48:57Z</time>
      </trkpt>
      <trkpt lat="45.00036" lon="6.13232">
        <ele>1814.4</ele>
        <time>2022-12-29T12:48:58Z</time>
      </trkpt>
      <trkpt lat="45.00036" lon="6.13233">
        <ele>1814.4</ele>
        <time>2022-12-29T12:48:59Z</time>
      </trkpt>
      <trkpt lat="45.00035" lon="6.13233">
        <ele>1814.4</ele>
        <time>2022-12-29T12:49:00Z</time>
      </trkpt>
      <trkpt lat="45.00035" lon="6.13233">
        <ele>1814.4</ele>
        <time>2022-12-29T12:49:01Z</time>
      </trkpt>
      <trkpt lat="45.00034" lon="6.13233">
        <ele>1814.4</ele>
        <time>2022-12-29T12:49:02Z</time>
      </trkpt>
      <trkpt lat="45.00033" lon="6.13233">
        <ele>1814.4</ele>
        <time>2022-12-29T12:49:03Z</time>
      </trkpt>
      <trkpt lat="45.00033" lon="6.13234">
        <ele>1814.4</ele>
        <time>2022-12-29T12:49:04Z</time>
      </trkpt>
      <trkpt lat="45.00032" lon="6.13234">
        <ele>1814.4</ele>
        <time>2022-12-29T12:49:05Z</time>
      </trkpt>
      <trkpt lat="45.00032" lon="6.13234">
        <ele>1816.6</ele>
        <time>2022-12-29T12:49:06Z</time>
      </trkpt>
      <trkpt lat="45.00029" lon="6.13235">
        <ele>1816.6</ele>
        <time>2022-12-29T12:49:07Z</time>
      </trkpt>
      <trkpt lat="45.00029" lon="6.13235">
        <ele>1816.6</ele>
        <time>2022-12-29T12:49:08Z</time>
      </trkpt>
      <trkpt lat="45.00029" lon="6.13235">
        <ele>1816.6</ele>
        <time>2022-12-29T12:49:09Z</time>
      </trkpt>
      <trkpt lat="45.00029" lon="6.13235">
        <ele>1816.6</ele>
        <time>2022-12-29T12:49:10Z</time>
      </trkpt>
      <trkpt lat="45.00029" lon="6.13235">
        <ele>1816.6</ele>
        <time>2022-12-29T12:49:11Z</time>
      </trkpt>
      <trkpt lat="45.00029" lon="6.13235">
        <ele>1816.6</ele>
        <time>2022-12-29T12:49:12Z</time>
      </trkpt>
      <trkpt lat="45.00029" lon="6.13235">
        <ele>1816.6</ele>
        <time>2022-12-29T12:49:13Z</time>
      </trkpt>
      <trkpt lat="45.00029" lon="6.13235">
        <ele>1816.6</ele>
        <time>2022-12-29T12:49:14Z</time>
      </trkpt>
      <trkpt lat="45.00029" lon="6.13235">
        <ele>1816.6</ele>
        <time>2022-12-29T12:49:15Z</time>
      </trkpt>
      <trkpt lat="45.00029" lon="6.13235">
        <ele>1817.6</ele>
        <time>2022-12-29T12:49:16Z</time>
      </trkpt>
      <trkpt lat="45.00029" lon="6.13235">
        <ele>1817.6</ele>
        <time>2022-12-29T12:49:17Z</time>
      </trkpt>
      <trkpt lat="45.00029" lon="6.13236">
        <ele>1817.6</ele>
        <time>2022-12-29T12:49:18Z</time>
      </trkpt>
      <trkpt lat="45.00029" lon="6.13236">
        <ele>1817.6</ele>
        <time>2022-12-29T12:49:19Z</time>
      </trkpt>
      <trkpt lat="45.00029" lon="6.13236">
        <ele>1817.6</ele>
        <time>2022-12-29T12:49:20Z</time>
      </trkpt>
      <trkpt lat="45.00028" lon="6.13236">
        <ele>1817.6</ele>
        <time>2022-12-29T12:49:21Z</time>
      </trkpt>
      <trkpt lat="45.00028" lon="6.13236">
        <ele>1817.6</ele>
        <time>2022-12-29T12:49:22Z</time>
      </trkpt>
      <trkpt lat="45.00028" lon="6.13236">
        <ele>1817.6</ele>
        <time>2022-12-29T12:49:23Z</time>
      </trkpt>
      <trkpt lat="45.00028" lon="6.13236">
        <ele>1817.6</ele>
        <time>2022-12-29T12:49:24Z</time>
      </trkpt>
      <trkpt lat="45.00027" lon="6.13236">
        <ele>1817.6</ele>
        <time>2022-12-29T12:49:25Z</time>
      </trkpt>
      <trkpt lat="45.00027" lon="6.13236">
        <ele>1817.8</ele>
        <time>2022-12-29T12:49:26Z</time>
      </trkpt>
      <trkpt lat="45.00027" lon="6.13236">
        <ele>1817.8</ele>
        <time>2022-12-29T12:49:27Z</time>
      </trkpt>
      <trkpt lat="45.00027" lon="6.13236">
        <ele>1817.8</ele>
        <time>2022-12-29T12:49:28Z</time>
      </trkpt>
      <trkpt lat="45.00027" lon="6.13236">
        <ele>1817.8</ele>
        <time>2022-12-29T12:49:29Z</time>
      </trkpt>
      <trkpt lat="45.00026" lon="6.13236">
        <ele>1817.8</ele>
        <time>2022-12-29T12:49:30Z</time>
      </trkpt>
      <trkpt lat="45.00026" lon="6.13236">
        <ele>1817.8</ele>
        <time>2022-12-29T12:49:31Z</time>
      </trkpt>
      <trkpt lat="45.00026" lon="6.13236">
        <ele>1817.8</ele>
        <time>2022-12-29T12:49:32Z</time>
      </trkpt>
      <trkpt lat="45.00026" lon="6.13237">
        <ele>1817.8</ele>
        <time>2022-12-29T12:49:33Z</time>
      </trkpt>
      <trkpt lat="45.00025" lon="6.13237">
        <ele>1818</ele>
        <time>2022-12-29T12:49:36Z</time>
      </trkpt>
      <trkpt lat="45.00025" lon="6.13237">
        <ele>1818</ele>
        <time>2022-12-29T12:49:37Z</time>
      </trkpt>
      <trkpt lat="45.00025" lon="6.13237">
        <ele>1818</ele>
        <time>2022-12-29T12:49:38Z</time>
      </trkpt>
      <trkpt lat="45.00025" lon="6.13237">
        <ele>1818</ele>
        <time>2022-12-29T12:49:39Z</time>
      </trkpt>
      <trkpt lat="45.00024" lon="6.13237">
        <ele>1818</ele>
        <time>2022-12-29T12:49:40Z</time>
      </trkpt>
      <trkpt lat="45.00024" lon="6.13237">
        <ele>1818</ele>
        <time>2022-12-29T12:49:41Z</time>
      </trkpt>
      <trkpt lat="45.00024" lon="6.13237">
        <ele>1818</ele>
        <time>2022-12-29T12:49:42Z</time>
      </trkpt>
      <trkpt lat="45.00024" lon="6.13237">
        <ele>1818</ele>
        <time>2022-12-29T12:49:43Z</time>
      </trkpt>
      <trkpt lat="45.00024" lon="6.13237">
        <ele>1818</ele>
        <time>2022-12-29T12:49:44Z</time>
      </trkpt>
      <trkpt lat="45.00023" lon="6.13237">
        <ele>1818</ele>
        <time>2022-12-29T12:49:45Z</time>
      </trkpt>
      <trkpt lat="45.00023" lon="6.13237">
        <ele>1819.2</ele>
        <time>2022-12-29T12:49:46Z</time>
      </trkpt>
      <trkpt lat="45.00021" lon="6.13238">
        <ele>1819.2</ele>
        <time>2022-12-29T12:49:47Z</time>
      </trkpt>
      <trkpt lat="45.0002" lon="6.13238">
        <ele>1819.2</ele>
        <time>2022-12-29T12:49:48Z</time>
      </trkpt>
      <trkpt lat="45.00019" lon="6.13238">
        <ele>1819.2</ele>
        <time>2022-12-29T12:49:49Z</time>
      </trkpt>
      <trkpt lat="45.00018" lon="6.13239">
        <ele>1819.2</ele>
        <time>2022-12-29T12:49:50Z</time>
      </trkpt>
      <trkpt lat="45.00018" lon="6.13239">
        <ele>1819.2</ele>
        <time>2022-12-29T12:49:51Z</time>
      </trkpt>
      <trkpt lat="45.00017" lon="6.13239">
        <ele>1819.2</ele>
        <time>2022-12-29T12:49:52Z</time>
      </trkpt>
      <trkpt lat="45.00016" lon="6.13239">
        <ele>1819.2</ele>
        <time>2022-12-29T12:49:53Z</time>
      </trkpt>
      <trkpt lat="45.00016" lon="6.1324">
        <ele>1819.2</ele>
        <time>2022-12-29T12:49:54Z</time>
      </trkpt>
      <trkpt lat="45.00015" lon="6.1324">
        <ele>1819.2</ele>
        <time>2022-12-29T12:49:55Z</time>
      </trkpt>
      <trkpt lat="45.00014" lon="6.1324">
        <ele>1821.2</ele>
        <time>2022-12-29T12:49:56Z</time>
      </trkpt>
      <trkpt lat="45.00014" lon="6.1324">
        <ele>1821.2</ele>
        <time>2022-12-29T12:49:57Z</time>
      </trkpt>
      <trkpt lat="45.00013" lon="6.13241">
        <ele>1821.2</ele>
        <time>2022-12-29T12:49:58Z</time>
      </trkpt>
      <trkpt lat="45.00013" lon="6.13241">
        <ele>1821.2</ele>
        <time>2022-12-29T12:49:59Z</time>
      </trkpt>
      <trkpt lat="45.00012" lon="6.13241">
        <ele>1821.2</ele>
        <time>2022-12-29T12:50:00Z</time>
      </trkpt>
      <trkpt lat="45.00011" lon="6.13241">
        <ele>1821.2</ele>
        <time>2022-12-29T12:50:01Z</time>
      </trkpt>
      <trkpt lat="45.00011" lon="6.13241">
        <ele>1821.2</ele>
        <time>2022-12-29T12:50:02Z</time>
      </trkpt>
      <trkpt lat="45.0001" lon="6.13241">
        <ele>1821.2</ele>
        <time>2022-12-29T12:50:03Z</time>
      </trkpt>
      <trkpt lat="45.0001" lon="6.13242">
        <ele>1821.2</ele>
        <time>2022-12-29T12:50:04Z</time>
      </trkpt>
      <trkpt lat="45.00009" lon="6.13242">
        <ele>1821.2</ele>
        <time>2022-12-29T12:50:05Z</time>
      </trkpt>
      <trkpt lat="45.00008" lon="6.13242">
        <ele>1823.4</ele>
        <time>2022-12-29T12:50:06Z</time>
      </trkpt>
      <trkpt lat="45.00008" lon="6.13242">
        <ele>1823.4</ele>
        <time>2022-12-29T12:50:07Z</time>
      </trkpt>
      <trkpt lat="45.00008" lon="6.13242">
        <ele>1823.4</ele>
        <time>2022-12-29T12:50:08Z</time>
      </trkpt>
      <trkpt lat="45.00006" lon="6.13243">
        <ele>1823.4</ele>
        <time>2022-12-29T12:50:09Z</time>
      </trkpt>
      <trkpt lat="45.00006" lon="6.13243">
        <ele>1823.4</ele>
        <time>2022-12-29T12:50:10Z</time>
      </trkpt>
      <trkpt lat="45.00006" lon="6.13243">
        <ele>1823.4</ele>
        <time>2022-12-29T12:50:11Z</time>
      </trkpt>
      <trkpt lat="45.00006" lon="6.13243">
        <ele>1823.4</ele>
        <time>2022-12-29T12:50:12Z</time>
      </trkpt>
      <trkpt lat="45.00006" lon="6.13243">
        <ele>1823.4</ele>
        <time>2022-12-29T12:50:13Z</time>
      </trkpt>
      <trkpt lat="45.00006" lon="6.13243">
        <ele>1823.4</ele>
        <time>2022-12-29T12:50:14Z</time>
      </trkpt>
      <trkpt lat="45.00006" lon="6.13243">
        <ele>1823.4</ele>
        <time>2022-12-29T12:50:15Z</time>
      </trkpt>
      <trkpt lat="45.00006" lon="6.13243">
        <ele>1824.8</ele>
        <time>2022-12-29T12:50:16Z</time>
      </trkpt>
      <trkpt lat="45.00006" lon="6.13243">
        <ele>1824.8</ele>
        <time>2022-12-29T12:50:17Z</time>
      </trkpt>
      <trkpt lat="45.00006" lon="6.13243">
        <ele>1824.8</ele>
        <time>2022-12-29T12:50:18Z</time>
      </trkpt>
      <trkpt lat="45.00006" lon="6.13243">
        <ele>1824.8</ele>
        <time>2022-12-29T12:50:19Z</time>
      </trkpt>
      <trkpt lat="45.00006" lon="6.13243">
        <ele>1824.8</ele>
        <time>2022-12-29T12:50:20Z</time>
      </trkpt>
      <trkpt lat="45.00006" lon="6.13243">
        <ele>1824.8</ele>
        <time>2022-12-29T12:50:21Z</time>
      </trkpt>
      <trkpt lat="45.00006" lon="6.13243">
        <ele>1824.8</ele>
        <time>2022-12-29T12:50:22Z</time>
      </trkpt>
      <trkpt lat="45.00005" lon="6.13243">
        <ele>1824.8</ele>
        <time>2022-12-29T12:50:23Z</time>
      </trkpt>
      <trkpt lat="45.00005" lon="6.13243">
        <ele>1824.8</ele>
        <time>2022-12-29T12:50:24Z</time>
      </trkpt>
      <trkpt lat="45.00005" lon="6.13243">
        <ele>1824.8</ele>
        <time>2022-12-29T12:50:25Z</time>
      </trkpt>
      <trkpt lat="45.00005" lon="6.13243">
        <ele>1825.4</ele>
        <time>2022-12-29T12:50:26Z</time>
      </trkpt>
      <trkpt lat="45.00005" lon="6.13243">
        <ele>1825.4</ele>
        <time>2022-12-29T12:50:27Z</time>
      </trkpt>
      <trkpt lat="45.00005" lon="6.13243">
        <ele>1825.4</ele>
        <time>2022-12-29T12:50:28Z</time>
      </trkpt>
      <trkpt lat="45.00005" lon="6.13243">
        <ele>1825.4</ele>
        <time>2022-12-29T12:50:29Z</time>
      </trkpt>
      <trkpt lat="45.00004" lon="6.13243">
        <ele>1825.4</ele>
        <time>2022-12-29T12:50:30Z</time>
      </trkpt>
      <trkpt lat="45.00004" lon="6.13244">
        <ele>1825.4</ele>
        <time>2022-12-29T12:50:31Z</time>
      </trkpt>
      <trkpt lat="45.00004" lon="6.13244">
        <ele>1825.4</ele>
        <time>2022-12-29T12:50:32Z</time>
      </trkpt>
      <trkpt lat="45.00004" lon="6.13244">
        <ele>1825.4</ele>
        <time>2022-12-29T12:50:33Z</time>
      </trkpt>
      <trkpt lat="45.00004" lon="6.13244">
        <ele>1825.4</ele>
        <time>2022-12-29T12:50:34Z</time>
      </trkpt>
      <trkpt lat="45.00004" lon="6.13244">
        <ele>1825.4</ele>
        <time>2022-12-29T12:50:35Z</time>
      </trkpt>
      <trkpt lat="45.00003" lon="6.13244">
        <ele>1825.2</ele>
        <time>2022-12-29T12:50:36Z</time>
      </trkpt>
      <trkpt lat="45.00003" lon="6.13244">
        <ele>1825.2</ele>
        <time>2022-12-29T12:50:37Z</time>
      </trkpt>
      <trkpt lat="45.00003" lon="6.13244">
        <ele>1825.2</ele>
        <time>2022-12-29T12:50:38Z</time>
      </trkpt>
      <trkpt lat="45.00003" lon="6.13244">
        <ele>1825.2</ele>
        <time>2022-12-29T12:50:39Z</time>
      </trkpt>
      <trkpt lat="45.00003" lon="6.13244">
        <ele>1825.2</ele>
        <time>2022-12-29T12:50:40Z</time>
      </trkpt>
      <trkpt lat="45.00003" lon="6.13244">
        <ele>1825.2</ele>
        <time>2022-12-29T12:50:41Z</time>
      </trkpt>
      <trkpt lat="45.00003" lon="6.13244">
        <ele>1825.2</ele>
        <time>2022-12-29T12:50:42Z</time>
      </trkpt>
      <trkpt lat="45.00002" lon="6.13244">
        <ele>1825.2</ele>
        <time>2022-12-29T12:50:43Z</time>
      </trkpt>
      <trkpt lat="45.00002" lon="6.13244">
        <ele>1825.2</ele>
        <time>2022-12-29T12:50:44Z</time>
      </trkpt>
      <trkpt lat="45.00002" lon="6.13244">
        <ele>1825.2</ele>
        <time>2022-12-29T12:50:45Z</time>
      </trkpt>
      <trkpt lat="45.00002" lon="6.13245">
        <ele>1825.4</ele>
        <time>2022-12-29T12:50:46Z</time>
      </trkpt>
      <trkpt lat="45.00001" lon="6.13245">
        <ele>1825.4</ele>
        <time>2022-12-29T12:50:47Z</time>
      </trkpt>
      <trkpt lat="45" lon="6.13246">
        <ele>1825.4</ele>
        <time>2022-12-29T12:50:48Z</time>
      </trkpt>
      <trkpt lat="45" lon="6.13246">
        <ele>1825.4</ele>
        <time>2022-12-29T12:50:49Z</time>
      </trkpt>
      <trkpt lat="44.99999" lon="6.13247">
        <ele>1825.4</ele>
        <time>2022-12-29T12:50:50Z</time>
      </trkpt>
      <trkpt lat="44.99998" lon="6.13248">
        <ele>1825.4</ele>
        <time>2022-12-29T12:50:51Z</time>
      </trkpt>
      <trkpt lat="44.99997" lon="6.13248">
        <ele>1825.4</ele>
        <time>2022-12-29T12:50:52Z</time>
      </trkpt>
      <trkpt lat="44.99997" lon="6.13249">
        <ele>1825.4</ele>
        <time>2022-12-29T12:50:53Z</time>
      </trkpt>
      <trkpt lat="44.99996" lon="6.1325">
        <ele>1825.4</ele>
        <time>2022-12-29T12:50:54Z</time>
      </trkpt>
      <trkpt lat="44.99995" lon="6.1325">
        <ele>1825.4</ele>
        <time>2022-12-29T12:50:55Z</time>
      </trkpt>
      <trkpt lat="44.99994" lon="6.13251">
        <ele>1827.4</ele>
        <time>2022-12-29T12:50:56Z</time>
      </trkpt>
      <trkpt lat="44.99993" lon="6.13251">
        <ele>1827.4</ele>
        <time>2022-12-29T12:50:57Z</time>
      </trkpt>
      <trkpt lat="44.99993" lon="6.13252">
        <ele>1827.4</ele>
        <time>2022-12-29T12:50:58Z</time>
      </trkpt>
      <trkpt lat="44.99992" lon="6.13252">
        <ele>1827.4</ele>
        <time>2022-12-29T12:50:59Z</time>
      </trkpt>
      <trkpt lat="44.99991" lon="6.13252">
        <ele>1827.4</ele>
        <time>2022-12-29T12:51:00Z</time>
      </trkpt>
      <trkpt lat="44.9999" lon="6.13253">
        <ele>1827.4</ele>
        <time>2022-12-29T12:51:01Z</time>
      </trkpt>
      <trkpt lat="44.99989" lon="6.13253">
        <ele>1827.4</ele>
        <time>2022-12-29T12:51:02Z</time>
      </trkpt>
      <trkpt lat="44.99988" lon="6.13253">
        <ele>1827.4</ele>
        <time>2022-12-29T12:51:03Z</time>
      </trkpt>
      <trkpt lat="44.99987" lon="6.13254">
        <ele>1827.4</ele>
        <time>2022-12-29T12:51:04Z</time>
      </trkpt>
      <trkpt lat="44.99987" lon="6.13254">
        <ele>1827.4</ele>
        <time>2022-12-29T12:51:05Z</time>
      </trkpt>
      <trkpt lat="44.99986" lon="6.13254">
        <ele>1829.4</ele>
        <time>2022-12-29T12:51:06Z</time>
      </trkpt>
      <trkpt lat="44.99985" lon="6.13255">
        <ele>1829.4</ele>
        <time>2022-12-29T12:51:07Z</time>
      </trkpt>
      <trkpt lat="44.99984" lon="6.13255">
        <ele>1829.4</ele>
        <time>2022-12-29T12:51:08Z</time>
      </trkpt>
      <trkpt lat="44.99984" lon="6.13256">
        <ele>1829.4</ele>
        <time>2022-12-29T12:51:09Z</time>
      </trkpt>
      <trkpt lat="44.99983" lon="6.13256">
        <ele>1829.4</ele>
        <time>2022-12-29T12:51:12Z</time>
      </trkpt>
      <trkpt lat="44.99982" lon="6.13257">
        <ele>1829.4</ele>
        <time>2022-12-29T12:51:13Z</time>
      </trkpt>
      <trkpt lat="44.99982" lon="6.13257">
        <ele>1829.4</ele>
        <time>2022-12-29T12:51:14Z</time>
      </trkpt>
      <trkpt lat="44.99981" lon="6.13258">
        <ele>1829.4</ele>
        <time>2022-12-29T12:51:15Z</time>
      </trkpt>
      <trkpt lat="44.9998" lon="6.13258">
        <ele>1830.8</ele>
        <time>2022-12-29T12:51:16Z</time>
      </trkpt>
      <trkpt lat="44.9998" lon="6.13258">
        <ele>1830.8</ele>
        <time>2022-12-29T12:51:17Z</time>
      </trkpt>
      <trkpt lat="44.99979" lon="6.13258">
        <ele>1830.8</ele>
        <time>2022-12-29T12:51:18Z</time>
      </trkpt>
      <trkpt lat="44.99978" lon="6.13258">
        <ele>1830.8</ele>
        <time>2022-12-29T12:51:19Z</time>
      </trkpt>
      <trkpt lat="44.99978" lon="6.13258">
        <ele>1830.8</ele>
        <time>2022-12-29T12:51:20Z</time>
      </trkpt>
      <trkpt lat="44.99977" lon="6.13258">
        <ele>1830.8</ele>
        <time>2022-12-29T12:51:21Z</time>
      </trkpt>
      <trkpt lat="44.99977" lon="6.13259">
        <ele>1830.8</ele>
        <time>2022-12-29T12:51:22Z</time>
      </trkpt>
      <trkpt lat="44.99976" lon="6.13259">
        <ele>1830.8</ele>
        <time>2022-12-29T12:51:23Z</time>
      </trkpt>
      <trkpt lat="44.99976" lon="6.13259">
        <ele>1830.8</ele>
        <time>2022-12-29T12:51:24Z</time>
      </trkpt>
      <trkpt lat="44.99975" lon="6.13259">
        <ele>1830.8</ele>
        <time>2022-12-29T12:51:25Z</time>
      </trkpt>
      <trkpt lat="44.99974" lon="6.13259">
        <ele>1832.4</ele>
        <time>2022-12-29T12:51:26Z</time>
      </trkpt>
      <trkpt lat="44.99974" lon="6.13259">
        <ele>1832.4</ele>
        <time>2022-12-29T12:51:27Z</time>
      </trkpt>
      <trkpt lat="44.99974" lon="6.13259">
        <ele>1832.4</ele>
        <time>2022-12-29T12:51:28Z</time>
      </trkpt>
      <trkpt lat="44.99974" lon="6.13259">
        <ele>1832.4</ele>
        <time>2022-12-29T12:51:29Z</time>
      </trkpt>
      <trkpt lat="44.99974" lon="6.13259">
        <ele>1832.4</ele>
        <time>2022-12-29T12:51:30Z</time>
      </trkpt>
      <trkpt lat="44.99974" lon="6.13259">
        <ele>1832.4</ele>
        <time>2022-12-29T12:51:31Z</time>
      </trkpt>
      <trkpt lat="44.99974" lon="6.13259">
        <ele>1832.4</ele>
        <time>2022-12-29T12:51:32Z</time>
      </trkpt>
      <trkpt lat="44.99974" lon="6.13259">
        <ele>1832.4</ele>
        <time>2022-12-29T12:51:33Z</time>
      </trkpt>
      <trkpt lat="44.99974" lon="6.13259">
        <ele>1832.4</ele>
        <time>2022-12-29T12:51:34Z</time>
      </trkpt>
      <trkpt lat="44.99974" lon="6.13259">
        <ele>1832.4</ele>
        <time>2022-12-29T12:51:35Z</time>
      </trkpt>
      <trkpt lat="44.99974" lon="6.13259">
        <ele>1833</ele>
        <time>2022-12-29T12:51:36Z</time>
      </trkpt>
      <trkpt lat="44.99974" lon="6.13259">
        <ele>1833</ele>
        <time>2022-12-29T12:51:37Z</time>
      </trkpt>
      <trkpt lat="44.99974" lon="6.13259">
        <ele>1833</ele>
        <time>2022-12-29T12:51:38Z</time>
      </trkpt>
      <trkpt lat="44.99974" lon="6.13259">
        <ele>1833</ele>
        <time>2022-12-29T12:51:39Z</time>
      </trkpt>
      <trkpt lat="44.99974" lon="6.13259">
        <ele>1833</ele>
        <time>2022-12-29T12:51:40Z</time>
      </trkpt>
      <trkpt lat="44.99974" lon="6.13259">
        <ele>1833</ele>
        <time>2022-12-29T12:51:41Z</time>
      </trkpt>
      <trkpt lat="44.99973" lon="6.1326">
        <ele>1833</ele>
        <time>2022-12-29T12:51:42Z</time>
      </trkpt>
      <trkpt lat="44.99973" lon="6.1326">
        <ele>1833</ele>
        <time>2022-12-29T12:51:43Z</time>
      </trkpt>
      <trkpt lat="44.99973" lon="6.1326">
        <ele>1833</ele>
        <time>2022-12-29T12:51:44Z</time>
      </trkpt>
      <trkpt lat="44.99973" lon="6.1326">
        <ele>1833</ele>
        <time>2022-12-29T12:51:45Z</time>
      </trkpt>
      <trkpt lat="44.99973" lon="6.1326">
        <ele>1832.8</ele>
        <time>2022-12-29T12:51:46Z</time>
      </trkpt>
      <trkpt lat="44.99973" lon="6.1326">
        <ele>1832.8</ele>
        <time>2022-12-29T12:51:47Z</time>
      </trkpt>
      <trkpt lat="44.99973" lon="6.1326">
        <ele>1832.8</ele>
        <time>2022-12-29T12:51:48Z</time>
      </trkpt>
      <trkpt lat="44.99973" lon="6.1326">
        <ele>1832.8</ele>
        <time>2022-12-29T12:51:49Z</time>
      </trkpt>
      <trkpt lat="44.99973" lon="6.1326">
        <ele>1832.8</ele>
        <time>2022-12-29T12:51:50Z</time>
      </trkpt>
      <trkpt lat="44.99973" lon="6.1326">
        <ele>1832.8</ele>
        <time>2022-12-29T12:51:51Z</time>
      </trkpt>
      <trkpt lat="44.99973" lon="6.1326">
        <ele>1832.8</ele>
        <time>2022-12-29T12:51:52Z</time>
      </trkpt>
      <trkpt lat="44.99973" lon="6.1326">
        <ele>1832.8</ele>
        <time>2022-12-29T12:51:53Z</time>
      </trkpt>
      <trkpt lat="44.99973" lon="6.1326">
        <ele>1832.8</ele>
        <time>2022-12-29T12:51:54Z</time>
      </trkpt>
      <trkpt lat="44.99973" lon="6.1326">
        <ele>1832.8</ele>
        <time>2022-12-29T12:51:55Z</time>
      </trkpt>
      <trkpt lat="44.99973" lon="6.1326">
        <ele>1832.6</ele>
        <time>2022-12-29T12:51:56Z</time>
      </trkpt>
      <trkpt lat="44.99973" lon="6.1326">
        <ele>1832.6</ele>
        <time>2022-12-29T12:51:57Z</time>
      </trkpt>
      <trkpt lat="44.99973" lon="6.1326">
        <ele>1832.6</ele>
        <time>2022-12-29T12:51:58Z</time>
      </trkpt>
      <trkpt lat="44.99972" lon="6.1326">
        <ele>1832.6</ele>
        <time>2022-12-29T12:51:59Z</time>
      </trkpt>
      <trkpt lat="44.99972" lon="6.1326">
        <ele>1832.6</ele>
        <time>2022-12-29T12:52:00Z</time>
      </trkpt>
      <trkpt lat="44.99972" lon="6.1326">
        <ele>1832.6</ele>
        <time>2022-12-29T12:52:01Z</time>
      </trkpt>
      <trkpt lat="44.99972" lon="6.1326">
        <ele>1832.6</ele>
        <time>2022-12-29T12:52:02Z</time>
      </trkpt>
      <trkpt lat="44.99972" lon="6.1326">
        <ele>1832.6</ele>
        <time>2022-12-29T12:52:03Z</time>
      </trkpt>
      <trkpt lat="44.99972" lon="6.1326">
        <ele>1832.6</ele>
        <time>2022-12-29T12:52:04Z</time>
      </trkpt>
      <trkpt lat="44.99972" lon="6.1326">
        <ele>1832.6</ele>
        <time>2022-12-29T12:52:05Z</time>
      </trkpt>
      <trkpt lat="44.99972" lon="6.1326">
        <ele>1832.8</ele>
        <time>2022-12-29T12:52:06Z</time>
      </trkpt>
      <trkpt lat="44.99972" lon="6.13261">
        <ele>1832.8</ele>
        <time>2022-12-29T12:52:07Z</time>
      </trkpt>
      <trkpt lat="44.99972" lon="6.13261">
        <ele>1832.8</ele>
        <time>2022-12-29T12:52:08Z</time>
      </trkpt>
      <trkpt lat="44.99972" lon="6.13261">
        <ele>1832.8</ele>
        <time>2022-12-29T12:52:09Z</time>
      </trkpt>
      <trkpt lat="44.99972" lon="6.13261">
        <ele>1832.8</ele>
        <time>2022-12-29T12:52:10Z</time>
      </trkpt>
      <trkpt lat="44.99972" lon="6.13261">
        <ele>1832.8</ele>
        <time>2022-12-29T12:52:11Z</time>
      </trkpt>
      <trkpt lat="44.99972" lon="6.13261">
        <ele>1832.8</ele>
        <time>2022-12-29T12:52:12Z</time>
      </trkpt>
      <trkpt lat="44.99972" lon="6.13261">
        <ele>1832.8</ele>
        <time>2022-12-29T12:52:13Z</time>
      </trkpt>
      <trkpt lat="44.99972" lon="6.13261">
        <ele>1832.8</ele>
        <time>2022-12-29T12:52:14Z</time>
      </trkpt>
      <trkpt lat="44.99972" lon="6.13261">
        <ele>1832.8</ele>
        <time>2022-12-29T12:52:15Z</time>
      </trkpt>
      <trkpt lat="44.99971" lon="6.13261">
        <ele>1832.8</ele>
        <time>2022-12-29T12:52:16Z</time>
      </trkpt>
      <trkpt lat="44.99971" lon="6.13261">
        <ele>1832.8</ele>
        <time>2022-12-29T12:52:17Z</time>
      </trkpt>
      <trkpt lat="44.99971" lon="6.13261">
        <ele>1832.8</ele>
        <time>2022-12-29T12:52:18Z</time>
      </trkpt>
      <trkpt lat="44.99971" lon="6.13261">
        <ele>1832.8</ele>
        <time>2022-12-29T12:52:19Z</time>
      </trkpt>
      <trkpt lat="44.99971" lon="6.13261">
        <ele>1832.8</ele>
        <time>2022-12-29T12:52:20Z</time>
      </trkpt>
      <trkpt lat="44.99971" lon="6.13261">
        <ele>1832.8</ele>
        <time>2022-12-29T12:52:21Z</time>
      </trkpt>
      <trkpt lat="44.99971" lon="6.13261">
        <ele>1832.8</ele>
        <time>2022-12-29T12:52:22Z</time>
      </trkpt>
      <trkpt lat="44.99971" lon="6.13261">
        <ele>1832.8</ele>
        <time>2022-12-29T12:52:23Z</time>
      </trkpt>
      <trkpt lat="44.99971" lon="6.13261">
        <ele>1832.8</ele>
        <time>2022-12-29T12:52:24Z</time>
      </trkpt>
      <trkpt lat="44.99971" lon="6.13261">
        <ele>1832.8</ele>
        <time>2022-12-29T12:52:25Z</time>
      </trkpt>
      <trkpt lat="44.99971" lon="6.13261">
        <ele>1833</ele>
        <time>2022-12-29T12:52:26Z</time>
      </trkpt>
      <trkpt lat="44.99971" lon="6.13261">
        <ele>1833</ele>
        <time>2022-12-29T12:52:27Z</time>
      </trkpt>
      <trkpt lat="44.99971" lon="6.13261">
        <ele>1833</ele>
        <time>2022-12-29T12:52:28Z</time>
      </trkpt>
      <trkpt lat="44.99971" lon="6.13261">
        <ele>1833</ele>
        <time>2022-12-29T12:52:29Z</time>
      </trkpt>
      <trkpt lat="44.99971" lon="6.13261">
        <ele>1833</ele>
        <time>2022-12-29T12:52:30Z</time>
      </trkpt>
      <trkpt lat="44.99971" lon="6.13262">
        <ele>1833</ele>
        <time>2022-12-29T12:52:31Z</time>
      </trkpt>
      <trkpt lat="44.99971" lon="6.13262">
        <ele>1833</ele>
        <time>2022-12-29T12:52:32Z</time>
      </trkpt>
      <trkpt lat="44.9997" lon="6.13262">
        <ele>1833</ele>
        <time>2022-12-29T12:52:33Z</time>
      </trkpt>
      <trkpt lat="44.9997" lon="6.13262">
        <ele>1833</ele>
        <time>2022-12-29T12:52:34Z</time>
      </trkpt>
      <trkpt lat="44.9997" lon="6.13262">
        <ele>1833</ele>
        <time>2022-12-29T12:52:35Z</time>
      </trkpt>
      <trkpt lat="44.9997" lon="6.13262">
        <ele>1832.8</ele>
        <time>2022-12-29T12:52:36Z</time>
      </trkpt>
      <trkpt lat="44.9997" lon="6.13262">
        <ele>1832.8</ele>
        <time>2022-12-29T12:52:37Z</time>
      </trkpt>
      <trkpt lat="44.9997" lon="6.13262">
        <ele>1832.8</ele>
        <time>2022-12-29T12:52:38Z</time>
      </trkpt>
      <trkpt lat="44.9997" lon="6.13262">
        <ele>1832.8</ele>
        <time>2022-12-29T12:52:39Z</time>
      </trkpt>
      <trkpt lat="44.9997" lon="6.13262">
        <ele>1832.8</ele>
        <time>2022-12-29T12:52:40Z</time>
      </trkpt>
      <trkpt lat="44.9997" lon="6.13262">
        <ele>1832.8</ele>
        <time>2022-12-29T12:52:41Z</time>
      </trkpt>
      <trkpt lat="44.9997" lon="6.13262">
        <ele>1832.8</ele>
        <time>2022-12-29T12:52:42Z</time>
      </trkpt>
      <trkpt lat="44.9997" lon="6.13262">
        <ele>1832.8</ele>
        <time>2022-12-29T12:52:43Z</time>
      </trkpt>
      <trkpt lat="44.9997" lon="6.13262">
        <ele>1832.8</ele>
        <time>2022-12-29T12:52:44Z</time>
      </trkpt>
      <trkpt lat="44.9997" lon="6.13262">
        <ele>1832.8</ele>
        <time>2022-12-29T12:52:45Z</time>
      </trkpt>
      <trkpt lat="44.9997" lon="6.13262">
        <ele>1833</ele>
        <time>2022-12-29T12:52:46Z</time>
      </trkpt>
      <trkpt lat="44.9997" lon="6.13262">
        <ele>1833</ele>
        <time>2022-12-29T12:52:47Z</time>
      </trkpt>
      <trkpt lat="44.9997" lon="6.13262">
        <ele>1833</ele>
        <time>2022-12-29T12:52:48Z</time>
      </trkpt>
      <trkpt lat="44.99969" lon="6.13262">
        <ele>1833</ele>
        <time>2022-12-29T12:52:49Z</time>
      </trkpt>
      <trkpt lat="44.99969" lon="6.13262">
        <ele>1833</ele>
        <time>2022-12-29T12:52:50Z</time>
      </trkpt>
      <trkpt lat="44.99969" lon="6.13262">
        <ele>1833</ele>
        <time>2022-12-29T12:52:51Z</time>
      </trkpt>
      <trkpt lat="44.99969" lon="6.13262">
        <ele>1833</ele>
        <time>2022-12-29T12:52:52Z</time>
      </trkpt>
      <trkpt lat="44.99969" lon="6.13262">
        <ele>1833</ele>
        <time>2022-12-29T12:52:53Z</time>
      </trkpt>
      <trkpt lat="44.99969" lon="6.13262">
        <ele>1833</ele>
        <time>2022-12-29T12:52:54Z</time>
      </trkpt>
      <trkpt lat="44.99969" lon="6.13262">
        <ele>1833</ele>
        <time>2022-12-29T12:52:55Z</time>
      </trkpt>
      <trkpt lat="44.99969" lon="6.13263">
        <ele>1833</ele>
        <time>2022-12-29T12:52:56Z</time>
      </trkpt>
      <trkpt lat="44.99969" lon="6.13263">
        <ele>1833</ele>
        <time>2022-12-29T12:52:57Z</time>
      </trkpt>
      <trkpt lat="44.99969" lon="6.13263">
        <ele>1833</ele>
        <time>2022-12-29T12:52:58Z</time>
      </trkpt>
      <trkpt lat="44.99969" lon="6.13263">
        <ele>1833</ele>
        <time>2022-12-29T12:52:59Z</time>
      </trkpt>
      <trkpt lat="44.99969" lon="6.13263">
        <ele>1833</ele>
        <time>2022-12-29T12:53:00Z</time>
      </trkpt>
      <trkpt lat="44.99969" lon="6.13263">
        <ele>1833</ele>
        <time>2022-12-29T12:53:01Z</time>
      </trkpt>
      <trkpt lat="44.99969" lon="6.13263">
        <ele>1833</ele>
        <time>2022-12-29T12:53:02Z</time>
      </trkpt>
      <trkpt lat="44.99969" lon="6.13263">
        <ele>1833</ele>
        <time>2022-12-29T12:53:03Z</time>
      </trkpt>
      <trkpt lat="44.99969" lon="6.13263">
        <ele>1833</ele>
        <time>2022-12-29T12:53:04Z</time>
      </trkpt>
      <trkpt lat="44.99969" lon="6.13263">
        <ele>1833</ele>
        <time>2022-12-29T12:53:05Z</time>
      </trkpt>
      <trkpt lat="44.99968" lon="6.13263">
        <ele>1833.2</ele>
        <time>2022-12-29T12:53:06Z</time>
      </trkpt>
      <trkpt lat="44.99968" lon="6.13263">
        <ele>1833.2</ele>
        <time>2022-12-29T12:53:07Z</time>
      </trkpt>
      <trkpt lat="44.99968" lon="6.13263">
        <ele>1833.2</ele>
        <time>2022-12-29T12:53:08Z</time>
      </trkpt>
      <trkpt lat="44.99968" lon="6.13263">
        <ele>1833.2</ele>
        <time>2022-12-29T12:53:09Z</time>
      </trkpt>
      <trkpt lat="44.99968" lon="6.13263">
        <ele>1833.2</ele>
        <time>2022-12-29T12:53:10Z</time>
      </trkpt>
      <trkpt lat="44.99968" lon="6.13263">
        <ele>1833.2</ele>
        <time>2022-12-29T12:53:11Z</time>
      </trkpt>
      <trkpt lat="44.99968" lon="6.13263">
        <ele>1833.2</ele>
        <time>2022-12-29T12:53:12Z</time>
      </trkpt>
      <trkpt lat="44.99968" lon="6.13263">
        <ele>1833.2</ele>
        <time>2022-12-29T12:53:13Z</time>
      </trkpt>
      <trkpt lat="44.99968" lon="6.13263">
        <ele>1833.2</ele>
        <time>2022-12-29T12:53:14Z</time>
      </trkpt>
      <trkpt lat="44.99968" lon="6.13263">
        <ele>1833.2</ele>
        <time>2022-12-29T12:53:15Z</time>
      </trkpt>
      <trkpt lat="44.99968" lon="6.13263">
        <ele>1833.2</ele>
        <time>2022-12-29T12:53:16Z</time>
      </trkpt>
      <trkpt lat="44.99968" lon="6.13263">
        <ele>1833.2</ele>
        <time>2022-12-29T12:53:17Z</time>
      </trkpt>
      <trkpt lat="44.99968" lon="6.13263">
        <ele>1833.2</ele>
        <time>2022-12-29T12:53:18Z</time>
      </trkpt>
      <trkpt lat="44.99968" lon="6.13263">
        <ele>1833.2</ele>
        <time>2022-12-29T12:53:19Z</time>
      </trkpt>
      <trkpt lat="44.99968" lon="6.13263">
        <ele>1833.2</ele>
        <time>2022-12-29T12:53:20Z</time>
      </trkpt>
      <trkpt lat="44.99968" lon="6.13264">
        <ele>1833.2</ele>
        <time>2022-12-29T12:53:21Z</time>
      </trkpt>
      <trkpt lat="44.99968" lon="6.13264">
        <ele>1833.2</ele>
        <time>2022-12-29T12:53:22Z</time>
      </trkpt>
      <trkpt lat="44.99967" lon="6.13264">
        <ele>1833.2</ele>
        <time>2022-12-29T12:53:23Z</time>
      </trkpt>
      <trkpt lat="44.99967" lon="6.13264">
        <ele>1833.2</ele>
        <time>2022-12-29T12:53:24Z</time>
      </trkpt>
      <trkpt lat="44.99967" lon="6.13264">
        <ele>1833.2</ele>
        <time>2022-12-29T12:53:25Z</time>
      </trkpt>
      <trkpt lat="44.99967" lon="6.13264">
        <ele>1833.2</ele>
        <time>2022-12-29T12:53:26Z</time>
      </trkpt>
      <trkpt lat="44.99967" lon="6.13264">
        <ele>1833.2</ele>
        <time>2022-12-29T12:53:27Z</time>
      </trkpt>
      <trkpt lat="44.99967" lon="6.13264">
        <ele>1833.2</ele>
        <time>2022-12-29T12:53:28Z</time>
      </trkpt>
      <trkpt lat="44.99967" lon="6.13264">
        <ele>1833.2</ele>
        <time>2022-12-29T12:53:29Z</time>
      </trkpt>
      <trkpt lat="44.99967" lon="6.13264">
        <ele>1833.2</ele>
        <time>2022-12-29T12:53:30Z</time>
      </trkpt>
      <trkpt lat="44.99967" lon="6.13264">
        <ele>1833.2</ele>
        <time>2022-12-29T12:53:31Z</time>
      </trkpt>
      <trkpt lat="44.99967" lon="6.13264">
        <ele>1833.2</ele>
        <time>2022-12-29T12:53:32Z</time>
      </trkpt>
      <trkpt lat="44.99967" lon="6.13264">
        <ele>1833.2</ele>
        <time>2022-12-29T12:53:33Z</time>
      </trkpt>
      <trkpt lat="44.99967" lon="6.13264">
        <ele>1833.2</ele>
        <time>2022-12-29T12:53:34Z</time>
      </trkpt>
      <trkpt lat="44.99967" lon="6.13264">
        <ele>1833.2</ele>
        <time>2022-12-29T12:53:35Z</time>
      </trkpt>
      <trkpt lat="44.99967" lon="6.13264">
        <ele>1833.4</ele>
        <time>2022-12-29T12:53:36Z</time>
      </trkpt>
      <trkpt lat="44.99967" lon="6.13264">
        <ele>1833.4</ele>
        <time>2022-12-29T12:53:37Z</time>
      </trkpt>
      <trkpt lat="44.99967" lon="6.13264">
        <ele>1833.4</ele>
        <time>2022-12-29T12:53:38Z</time>
      </trkpt>
      <trkpt lat="44.99967" lon="6.13264">
        <ele>1833.4</ele>
        <time>2022-12-29T12:53:39Z</time>
      </trkpt>
      <trkpt lat="44.99966" lon="6.13264">
        <ele>1833.4</ele>
        <time>2022-12-29T12:53:40Z</time>
      </trkpt>
      <trkpt lat="44.99966" lon="6.13264">
        <ele>1833.4</ele>
        <time>2022-12-29T12:53:43Z</time>
      </trkpt>
      <trkpt lat="44.99966" lon="6.13264">
        <ele>1833.4</ele>
        <time>2022-12-29T12:53:44Z</time>
      </trkpt>
      <trkpt lat="44.99966" lon="6.13264">
        <ele>1833.4</ele>
        <time>2022-12-29T12:53:45Z</time>
      </trkpt>
      <trkpt lat="44.99966" lon="6.13264">
        <ele>1833.4</ele>
        <time>2022-12-29T12:53:46Z</time>
      </trkpt>
      <trkpt lat="44.99966" lon="6.13264">
        <ele>1833.4</ele>
        <time>2022-12-29T12:53:47Z</time>
      </trkpt>
      <trkpt lat="44.99966" lon="6.13265">
        <ele>1833.4</ele>
        <time>2022-12-29T12:53:48Z</time>
      </trkpt>
      <trkpt lat="44.99966" lon="6.13265">
        <ele>1833.4</ele>
        <time>2022-12-29T12:53:49Z</time>
      </trkpt>
      <trkpt lat="44.99966" lon="6.13265">
        <ele>1833.4</ele>
        <time>2022-12-29T12:53:50Z</time>
      </trkpt>
      <trkpt lat="44.99966" lon="6.13265">
        <ele>1833.4</ele>
        <time>2022-12-29T12:53:51Z</time>
      </trkpt>
      <trkpt lat="44.99966" lon="6.13265">
        <ele>1833.4</ele>
        <time>2022-12-29T12:53:52Z</time>
      </trkpt>
      <trkpt lat="44.99966" lon="6.13265">
        <ele>1833.4</ele>
        <time>2022-12-29T12:53:53Z</time>
      </trkpt>
      <trkpt lat="44.99966" lon="6.13265">
        <ele>1833.4</ele>
        <time>2022-12-29T12:53:54Z</time>
      </trkpt>
      <trkpt lat="44.99966" lon="6.13265">
        <ele>1833.4</ele>
        <time>2022-12-29T12:53:55Z</time>
      </trkpt>
      <trkpt lat="44.99966" lon="6.13265">
        <ele>1835.2</ele>
        <time>2022-12-29T12:53:56Z</time>
      </trkpt>
      <trkpt lat="44.99966" lon="6.13265">
        <ele>1835.2</ele>
        <time>2022-12-29T12:53:59Z</time>
      </trkpt>
      <trkpt lat="44.99965" lon="6.13265">
        <ele>1835.2</ele>
        <time>2022-12-29T12:54:00Z</time>
      </trkpt>
      <trkpt lat="44.99965" lon="6.13265">
        <ele>1835.2</ele>
        <time>2022-12-29T12:54:01Z</time>
      </trkpt>
      <trkpt lat="44.99965" lon="6.13265">
        <ele>1835.2</ele>
        <time>2022-12-29T12:54:02Z</time>
      </trkpt>
      <trkpt lat="44.99965" lon="6.13265">
        <ele>1835.2</ele>
        <time>2022-12-29T12:54:03Z</time>
      </trkpt>
      <trkpt lat="44.99965" lon="6.13265">
        <ele>1835.2</ele>
        <time>2022-12-29T12:54:04Z</time>
      </trkpt>
      <trkpt lat="44.99965" lon="6.13265">
        <ele>1835.2</ele>
        <time>2022-12-29T12:54:05Z</time>
      </trkpt>
      <trkpt lat="44.99965" lon="6.13265">
        <ele>1835.8</ele>
        <time>2022-12-29T12:54:06Z</time>
      </trkpt>
      <trkpt lat="44.99965" lon="6.13265">
        <ele>1835.8</ele>
        <time>2022-12-29T12:54:07Z</time>
      </trkpt>
      <trkpt lat="44.99965" lon="6.13265">
        <ele>1835.8</ele>
        <time>2022-12-29T12:54:08Z</time>
      </trkpt>
      <trkpt lat="44.99965" lon="6.13265">
        <ele>1835.8</ele>
        <time>2022-12-29T12:54:09Z</time>
      </trkpt>
      <trkpt lat="44.99965" lon="6.13265">
        <ele>1835.8</ele>
        <time>2022-12-29T12:54:10Z</time>
      </trkpt>
      <trkpt lat="44.99965" lon="6.13265">
        <ele>1835.8</ele>
        <time>2022-12-29T12:54:11Z</time>
      </trkpt>
      <trkpt lat="44.99965" lon="6.13265">
        <ele>1835.8</ele>
        <time>2022-12-29T12:54:12Z</time>
      </trkpt>
      <trkpt lat="44.99965" lon="6.13265">
        <ele>1835.8</ele>
        <time>2022-12-29T12:54:13Z</time>
      </trkpt>
      <trkpt lat="44.99965" lon="6.13265">
        <ele>1835.8</ele>
        <time>2022-12-29T12:54:14Z</time>
      </trkpt>
      <trkpt lat="44.99965" lon="6.13266">
        <ele>1835.8</ele>
        <time>2022-12-29T12:54:15Z</time>
      </trkpt>
      <trkpt lat="44.99965" lon="6.13266">
        <ele>1836.8</ele>
        <time>2022-12-29T12:54:16Z</time>
      </trkpt>
      <trkpt lat="44.99965" lon="6.13266">
        <ele>1836.8</ele>
        <time>2022-12-29T12:54:17Z</time>
      </trkpt>
      <trkpt lat="44.99965" lon="6.13267">
        <ele>1836.8</ele>
        <time>2022-12-29T12:54:18Z</time>
      </trkpt>
      <trkpt lat="44.99965" lon="6.13268">
        <ele>1836.8</ele>
        <time>2022-12-29T12:54:19Z</time>
      </trkpt>
      <trkpt lat="44.99966" lon="6.13268">
        <ele>1836.8</ele>
        <time>2022-12-29T12:54:20Z</time>
      </trkpt>
      <trkpt lat="44.99966" lon="6.13269">
        <ele>1836.8</ele>
        <time>2022-12-29T12:54:21Z</time>
      </trkpt>
      <trkpt lat="44.99966" lon="6.1327">
        <ele>1836.8</ele>
        <time>2022-12-29T12:54:22Z</time>
      </trkpt>
      <trkpt lat="44.99966" lon="6.13271">
        <ele>1836.8</ele>
        <time>2022-12-29T12:54:23Z</time>
      </trkpt>
      <trkpt lat="44.99967" lon="6.13271">
        <ele>1836.8</ele>
        <time>2022-12-29T12:54:24Z</time>
      </trkpt>
      <trkpt lat="44.99967" lon="6.13272">
        <ele>1836.8</ele>
        <time>2022-12-29T12:54:25Z</time>
      </trkpt>
      <trkpt lat="44.99967" lon="6.13273">
        <ele>1838.4</ele>
        <time>2022-12-29T12:54:26Z</time>
      </trkpt>
      <trkpt lat="44.99967" lon="6.13273">
        <ele>1838.4</ele>
        <time>2022-12-29T12:54:27Z</time>
      </trkpt>
      <trkpt lat="44.99967" lon="6.13273">
        <ele>1838.4</ele>
        <time>2022-12-29T12:54:28Z</time>
      </trkpt>
      <trkpt lat="44.99967" lon="6.13273">
        <ele>1838.4</ele>
        <time>2022-12-29T12:54:29Z</time>
      </trkpt>
      <trkpt lat="44.99967" lon="6.13273">
        <ele>1838.4</ele>
        <time>2022-12-29T12:54:30Z</time>
      </trkpt>
      <trkpt lat="44.99969" lon="6.13274">
        <ele>1838.4</ele>
        <time>2022-12-29T12:54:31Z</time>
      </trkpt>
      <trkpt lat="44.99969" lon="6.13274">
        <ele>1838.4</ele>
        <time>2022-12-29T12:54:32Z</time>
      </trkpt>
      <trkpt lat="44.99969" lon="6.13274">
        <ele>1838.4</ele>
        <time>2022-12-29T12:54:33Z</time>
      </trkpt>
      <trkpt lat="44.99969" lon="6.13274">
        <ele>1838.4</ele>
        <time>2022-12-29T12:54:34Z</time>
      </trkpt>
      <trkpt lat="44.99969" lon="6.13274">
        <ele>1838.4</ele>
        <time>2022-12-29T12:54:35Z</time>
      </trkpt>
      <trkpt lat="44.99969" lon="6.13274">
        <ele>1839.8</ele>
        <time>2022-12-29T12:54:36Z</time>
      </trkpt>
      <trkpt lat="44.99969" lon="6.13274">
        <ele>1839.8</ele>
        <time>2022-12-29T12:54:37Z</time>
      </trkpt>
      <trkpt lat="44.99969" lon="6.13275">
        <ele>1839.8</ele>
        <time>2022-12-29T12:54:38Z</time>
      </trkpt>
      <trkpt lat="44.99968" lon="6.13275">
        <ele>1839.8</ele>
        <time>2022-12-29T12:54:39Z</time>
      </trkpt>
      <trkpt lat="44.99968" lon="6.13276">
        <ele>1839.8</ele>
        <time>2022-12-29T12:54:40Z</time>
      </trkpt>
      <trkpt lat="44.99968" lon="6.13276">
        <ele>1839.8</ele>
        <time>2022-12-29T12:54:41Z</time>
      </trkpt>
      <trkpt lat="44.99968" lon="6.13277">
        <ele>1839.8</ele>
        <time>2022-12-29T12:54:42Z</time>
      </trkpt>
      <trkpt lat="44.99968" lon="6.13277">
        <ele>1839.8</ele>
        <time>2022-12-29T12:54:43Z</time>
      </trkpt>
      <trkpt lat="44.99967" lon="6.13278">
        <ele>1839.8</ele>
        <time>2022-12-29T12:54:44Z</time>
      </trkpt>
      <trkpt lat="44.99967" lon="6.13278">
        <ele>1839.8</ele>
        <time>2022-12-29T12:54:45Z</time>
      </trkpt>
      <trkpt lat="44.99967" lon="6.13279">
        <ele>1841.2</ele>
        <time>2022-12-29T12:54:46Z</time>
      </trkpt>
      <trkpt lat="44.99967" lon="6.13279">
        <ele>1841.2</ele>
        <time>2022-12-29T12:54:47Z</time>
      </trkpt>
      <trkpt lat="44.99966" lon="6.1328">
        <ele>1841.2</ele>
        <time>2022-12-29T12:54:49Z</time>
      </trkpt>
      <trkpt lat="44.99965" lon="6.1328">
        <ele>1841.2</ele>
        <time>2022-12-29T12:54:50Z</time>
      </trkpt>
      <trkpt lat="44.99965" lon="6.13281">
        <ele>1841.2</ele>
        <time>2022-12-29T12:54:51Z</time>
      </trkpt>
      <trkpt lat="44.99964" lon="6.13281">
        <ele>1841.2</ele>
        <time>2022-12-29T12:54:52Z</time>
      </trkpt>
      <trkpt lat="44.99964" lon="6.13282">
        <ele>1841.2</ele>
        <time>2022-12-29T12:54:53Z</time>
      </trkpt>
      <trkpt lat="44.99963" lon="6.13282">
        <ele>1841.2</ele>
        <time>2022-12-29T12:54:54Z</time>
      </trkpt>
      <trkpt lat="44.99963" lon="6.13283">
        <ele>1841.2</ele>
        <time>2022-12-29T12:54:55Z</time>
      </trkpt>
      <trkpt lat="44.99962" lon="6.13283">
        <ele>1843</ele>
        <time>2022-12-29T12:54:56Z</time>
      </trkpt>
      <trkpt lat="44.99962" lon="6.13284">
        <ele>1843</ele>
        <time>2022-12-29T12:54:57Z</time>
      </trkpt>
      <trkpt lat="44.99962" lon="6.13284">
        <ele>1843</ele>
        <time>2022-12-29T12:54:58Z</time>
      </trkpt>
      <trkpt lat="44.99962" lon="6.13285">
        <ele>1843</ele>
        <time>2022-12-29T12:54:59Z</time>
      </trkpt>
      <trkpt lat="44.99962" lon="6.13285">
        <ele>1843</ele>
        <time>2022-12-29T12:55:00Z</time>
      </trkpt>
      <trkpt lat="44.99961" lon="6.13286">
        <ele>1843</ele>
        <time>2022-12-29T12:55:01Z</time>
      </trkpt>
      <trkpt lat="44.99961" lon="6.13286">
        <ele>1843</ele>
        <time>2022-12-29T12:55:02Z</time>
      </trkpt>
      <trkpt lat="44.99961" lon="6.13287">
        <ele>1843</ele>
        <time>2022-12-29T12:55:03Z</time>
      </trkpt>
      <trkpt lat="44.99961" lon="6.13287">
        <ele>1843</ele>
        <time>2022-12-29T12:55:04Z</time>
      </trkpt>
      <trkpt lat="44.99961" lon="6.13287">
        <ele>1843</ele>
        <time>2022-12-29T12:55:05Z</time>
      </trkpt>
      <trkpt lat="44.99961" lon="6.13288">
        <ele>1844</ele>
        <time>2022-12-29T12:55:06Z</time>
      </trkpt>
      <trkpt lat="44.99961" lon="6.13288">
        <ele>1844</ele>
        <time>2022-12-29T12:55:07Z</time>
      </trkpt>
      <trkpt lat="44.99961" lon="6.13288">
        <ele>1844</ele>
        <time>2022-12-29T12:55:08Z</time>
      </trkpt>
      <trkpt lat="44.99961" lon="6.13288">
        <ele>1844</ele>
        <time>2022-12-29T12:55:09Z</time>
      </trkpt>
      <trkpt lat="44.99961" lon="6.13288">
        <ele>1844</ele>
        <time>2022-12-29T12:55:10Z</time>
      </trkpt>
      <trkpt lat="44.99962" lon="6.13291">
        <ele>1844</ele>
        <time>2022-12-29T12:55:11Z</time>
      </trkpt>
      <trkpt lat="44.99962" lon="6.13291">
        <ele>1844</ele>
        <time>2022-12-29T12:55:12Z</time>
      </trkpt>
      <trkpt lat="44.99962" lon="6.13291">
        <ele>1844</ele>
        <time>2022-12-29T12:55:13Z</time>
      </trkpt>
      <trkpt lat="44.99962" lon="6.13291">
        <ele>1844</ele>
        <time>2022-12-29T12:55:14Z</time>
      </trkpt>
      <trkpt lat="44.99962" lon="6.13291">
        <ele>1844</ele>
        <time>2022-12-29T12:55:15Z</time>
      </trkpt>
      <trkpt lat="44.99962" lon="6.13291">
        <ele>1845.8</ele>
        <time>2022-12-29T12:55:16Z</time>
      </trkpt>
      <trkpt lat="44.99963" lon="6.13291">
        <ele>1845.8</ele>
        <time>2022-12-29T12:55:17Z</time>
      </trkpt>
      <trkpt lat="44.99963" lon="6.13291">
        <ele>1845.8</ele>
        <time>2022-12-29T12:55:18Z</time>
      </trkpt>
      <trkpt lat="44.99964" lon="6.13292">
        <ele>1845.8</ele>
        <time>2022-12-29T12:55:19Z</time>
      </trkpt>
      <trkpt lat="44.99964" lon="6.13292">
        <ele>1845.8</ele>
        <time>2022-12-29T12:55:20Z</time>
      </trkpt>
      <trkpt lat="44.99965" lon="6.13293">
        <ele>1845.8</ele>
        <time>2022-12-29T12:55:21Z</time>
      </trkpt>
      <trkpt lat="44.99965" lon="6.13293">
        <ele>1845.8</ele>
        <time>2022-12-29T12:55:23Z</time>
      </trkpt>
      <trkpt lat="44.99966" lon="6.13294">
        <ele>1845.8</ele>
        <time>2022-12-29T12:55:24Z</time>
      </trkpt>
      <trkpt lat="44.99967" lon="6.13294">
        <ele>1845.8</ele>
        <time>2022-12-29T12:55:25Z</time>
      </trkpt>
      <trkpt lat="44.99967" lon="6.13295">
        <ele>1846.8</ele>
        <time>2022-12-29T12:55:26Z</time>
      </trkpt>
      <trkpt lat="44.99967" lon="6.13295">
        <ele>1846.8</ele>
        <time>2022-12-29T12:55:27Z</time>
      </trkpt>
      <trkpt lat="44.99966" lon="6.13295">
        <ele>1846.8</ele>
        <time>2022-12-29T12:55:28Z</time>
      </trkpt>
      <trkpt lat="44.99965" lon="6.13295">
        <ele>1846.8</ele>
        <time>2022-12-29T12:55:29Z</time>
      </trkpt>
      <trkpt lat="44.99965" lon="6.13295">
        <ele>1846.8</ele>
        <time>2022-12-29T12:55:30Z</time>
      </trkpt>
      <trkpt lat="44.99964" lon="6.13295">
        <ele>1846.8</ele>
        <time>2022-12-29T12:55:31Z</time>
      </trkpt>
      <trkpt lat="44.99964" lon="6.13295">
        <ele>1846.8</ele>
        <time>2022-12-29T12:55:32Z</time>
      </trkpt>
      <trkpt lat="44.99963" lon="6.13295">
        <ele>1846.8</ele>
        <time>2022-12-29T12:55:33Z</time>
      </trkpt>
      <trkpt lat="44.99962" lon="6.13295">
        <ele>1848</ele>
        <time>2022-12-29T12:55:36Z</time>
      </trkpt>
      <trkpt lat="44.99962" lon="6.13295">
        <ele>1848</ele>
        <time>2022-12-29T12:55:37Z</time>
      </trkpt>
      <trkpt lat="44.99961" lon="6.13295">
        <ele>1848</ele>
        <time>2022-12-29T12:55:38Z</time>
      </trkpt>
      <trkpt lat="44.99961" lon="6.13295">
        <ele>1848</ele>
        <time>2022-12-29T12:55:39Z</time>
      </trkpt>
      <trkpt lat="44.9996" lon="6.13295">
        <ele>1848</ele>
        <time>2022-12-29T12:55:40Z</time>
      </trkpt>
      <trkpt lat="44.99959" lon="6.13295">
        <ele>1848</ele>
        <time>2022-12-29T12:55:41Z</time>
      </trkpt>
      <trkpt lat="44.99959" lon="6.13295">
        <ele>1848</ele>
        <time>2022-12-29T12:55:42Z</time>
      </trkpt>
      <trkpt lat="44.99958" lon="6.13295">
        <ele>1848</ele>
        <time>2022-12-29T12:55:43Z</time>
      </trkpt>
      <trkpt lat="44.99958" lon="6.13295">
        <ele>1848</ele>
        <time>2022-12-29T12:55:44Z</time>
      </trkpt>
      <trkpt lat="44.99957" lon="6.13296">
        <ele>1848</ele>
        <time>2022-12-29T12:55:45Z</time>
      </trkpt>
      <trkpt lat="44.99957" lon="6.13296">
        <ele>1848.6</ele>
        <time>2022-12-29T12:55:46Z</time>
      </trkpt>
      <trkpt lat="44.99957" lon="6.13296">
        <ele>1848.6</ele>
        <time>2022-12-29T12:55:47Z</time>
      </trkpt>
      <trkpt lat="44.99957" lon="6.13296">
        <ele>1848.6</ele>
        <time>2022-12-29T12:55:48Z</time>
      </trkpt>
      <trkpt lat="44.99955" lon="6.13296">
        <ele>1848.6</ele>
        <time>2022-12-29T12:55:49Z</time>
      </trkpt>
      <trkpt lat="44.99955" lon="6.13296">
        <ele>1848.6</ele>
        <time>2022-12-29T12:55:50Z</time>
      </trkpt>
      <trkpt lat="44.99955" lon="6.13296">
        <ele>1848.6</ele>
        <time>2022-12-29T12:55:51Z</time>
      </trkpt>
      <trkpt lat="44.99955" lon="6.13296">
        <ele>1848.6</ele>
        <time>2022-12-29T12:55:52Z</time>
      </trkpt>
      <trkpt lat="44.99955" lon="6.13296">
        <ele>1848.6</ele>
        <time>2022-12-29T12:55:53Z</time>
      </trkpt>
      <trkpt lat="44.99955" lon="6.13296">
        <ele>1848.6</ele>
        <time>2022-12-29T12:55:54Z</time>
      </trkpt>
      <trkpt lat="44.99953" lon="6.13297">
        <ele>1848.6</ele>
        <time>2022-12-29T12:55:55Z</time>
      </trkpt>
      <trkpt lat="44.99953" lon="6.13297">
        <ele>1850.4</ele>
        <time>2022-12-29T12:55:56Z</time>
      </trkpt>
      <trkpt lat="44.99954" lon="6.13298">
        <ele>1850.4</ele>
        <time>2022-12-29T12:55:57Z</time>
      </trkpt>
      <trkpt lat="44.99954" lon="6.13298">
        <ele>1850.4</ele>
        <time>2022-12-29T12:55:58Z</time>
      </trkpt>
      <trkpt lat="44.99955" lon="6.13298">
        <ele>1850.4</ele>
        <time>2022-12-29T12:55:59Z</time>
      </trkpt>
      <trkpt lat="44.99955" lon="6.13299">
        <ele>1850.4</ele>
        <time>2022-12-29T12:56:00Z</time>
      </trkpt>
      <trkpt lat="44.99956" lon="6.13299">
        <ele>1850.4</ele>
        <time>2022-12-29T12:56:01Z</time>
      </trkpt>
      <trkpt lat="44.99956" lon="6.133">
        <ele>1850.4</ele>
        <time>2022-12-29T12:56:02Z</time>
      </trkpt>
      <trkpt lat="44.99957" lon="6.133">
        <ele>1850.4</ele>
        <time>2022-12-29T12:56:03Z</time>
      </trkpt>
      <trkpt lat="44.99957" lon="6.13301">
        <ele>1850.4</ele>
        <time>2022-12-29T12:56:04Z</time>
      </trkpt>
      <trkpt lat="44.99958" lon="6.13301">
        <ele>1850.4</ele>
        <time>2022-12-29T12:56:05Z</time>
      </trkpt>
      <trkpt lat="44.99958" lon="6.13302">
        <ele>1851</ele>
        <time>2022-12-29T12:56:06Z</time>
      </trkpt>
      <trkpt lat="44.99959" lon="6.13302">
        <ele>1851</ele>
        <time>2022-12-29T12:56:07Z</time>
      </trkpt>
      <trkpt lat="44.99959" lon="6.13303">
        <ele>1851</ele>
        <time>2022-12-29T12:56:08Z</time>
      </trkpt>
      <trkpt lat="44.9996" lon="6.13303">
        <ele>1851</ele>
        <time>2022-12-29T12:56:09Z</time>
      </trkpt>
      <trkpt lat="44.9996" lon="6.13303">
        <ele>1851</ele>
        <time>2022-12-29T12:56:10Z</time>
      </trkpt>
      <trkpt lat="44.99961" lon="6.13304">
        <ele>1851</ele>
        <time>2022-12-29T12:56:11Z</time>
      </trkpt>
      <trkpt lat="44.99961" lon="6.13304">
        <ele>1851</ele>
        <time>2022-12-29T12:56:12Z</time>
      </trkpt>
      <trkpt lat="44.99962" lon="6.13305">
        <ele>1851</ele>
        <time>2022-12-29T12:56:13Z</time>
      </trkpt>
      <trkpt lat="44.99962" lon="6.13305">
        <ele>1851</ele>
        <time>2022-12-29T12:56:14Z</time>
      </trkpt>
      <trkpt lat="44.99963" lon="6.13306">
        <ele>1851</ele>
        <time>2022-12-29T12:56:15Z</time>
      </trkpt>
      <trkpt lat="44.99964" lon="6.13306">
        <ele>1852.4</ele>
        <time>2022-12-29T12:56:16Z</time>
      </trkpt>
      <trkpt lat="44.99964" lon="6.13307">
        <ele>1852.4</ele>
        <time>2022-12-29T12:56:17Z</time>
      </trkpt>
      <trkpt lat="44.99965" lon="6.13307">
        <ele>1852.4</ele>
        <time>2022-12-29T12:56:18Z</time>
      </trkpt>
      <trkpt lat="44.99965" lon="6.13308">
        <ele>1852.4</ele>
        <time>2022-12-29T12:56:19Z</time>
      </trkpt>
      <trkpt lat="44.99966" lon="6.13308">
        <ele>1852.4</ele>
        <time>2022-12-29T12:56:20Z</time>
      </trkpt>
      <trkpt lat="44.99966" lon="6.13309">
        <ele>1852.4</ele>
        <time>2022-12-29T12:56:21Z</time>
      </trkpt>
      <trkpt lat="44.99967" lon="6.1331">
        <ele>1852.4</ele>
        <time>2022-12-29T12:56:22Z</time>
      </trkpt>
      <trkpt lat="44.99967" lon="6.1331">
        <ele>1852.4</ele>
        <time>2022-12-29T12:56:23Z</time>
      </trkpt>
      <trkpt lat="44.99968" lon="6.13311">
        <ele>1852.4</ele>
        <time>2022-12-29T12:56:24Z</time>
      </trkpt>
      <trkpt lat="44.99968" lon="6.13311">
        <ele>1852.4</ele>
        <time>2022-12-29T12:56:25Z</time>
      </trkpt>
      <trkpt lat="44.99969" lon="6.13312">
        <ele>1853.6</ele>
        <time>2022-12-29T12:56:26Z</time>
      </trkpt>
      <trkpt lat="44.99969" lon="6.13312">
        <ele>1853.6</ele>
        <time>2022-12-29T12:56:27Z</time>
      </trkpt>
      <trkpt lat="44.99969" lon="6.13312">
        <ele>1853.6</ele>
        <time>2022-12-29T12:56:28Z</time>
      </trkpt>
      <trkpt lat="44.99969" lon="6.13312">
        <ele>1853.6</ele>
        <time>2022-12-29T12:56:29Z</time>
      </trkpt>
      <trkpt lat="44.99969" lon="6.13312">
        <ele>1853.6</ele>
        <time>2022-12-29T12:56:30Z</time>
      </trkpt>
      <trkpt lat="44.99969" lon="6.13312">
        <ele>1853.6</ele>
        <time>2022-12-29T12:56:31Z</time>
      </trkpt>
      <trkpt lat="44.99969" lon="6.13312">
        <ele>1853.6</ele>
        <time>2022-12-29T12:56:32Z</time>
      </trkpt>
      <trkpt lat="44.99969" lon="6.13312">
        <ele>1853.6</ele>
        <time>2022-12-29T12:56:33Z</time>
      </trkpt>
      <trkpt lat="44.99969" lon="6.13312">
        <ele>1853.6</ele>
        <time>2022-12-29T12:56:34Z</time>
      </trkpt>
      <trkpt lat="44.99967" lon="6.13313">
        <ele>1853.6</ele>
        <time>2022-12-29T12:56:35Z</time>
      </trkpt>
      <trkpt lat="44.99967" lon="6.13313">
        <ele>1856</ele>
        <time>2022-12-29T12:56:36Z</time>
      </trkpt>
      <trkpt lat="44.99967" lon="6.13314">
        <ele>1856</ele>
        <time>2022-12-29T12:56:37Z</time>
      </trkpt>
      <trkpt lat="44.99966" lon="6.13314">
        <ele>1856</ele>
        <time>2022-12-29T12:56:38Z</time>
      </trkpt>
      <trkpt lat="44.99966" lon="6.13315">
        <ele>1856</ele>
        <time>2022-12-29T12:56:39Z</time>
      </trkpt>
      <trkpt lat="44.99965" lon="6.13315">
        <ele>1856</ele>
        <time>2022-12-29T12:56:40Z</time>
      </trkpt>
      <trkpt lat="44.99965" lon="6.13316">
        <ele>1856</ele>
        <time>2022-12-29T12:56:41Z</time>
      </trkpt>
      <trkpt lat="44.99964" lon="6.13316">
        <ele>1856</ele>
        <time>2022-12-29T12:56:42Z</time>
      </trkpt>
      <trkpt lat="44.99964" lon="6.13317">
        <ele>1856</ele>
        <time>2022-12-29T12:56:43Z</time>
      </trkpt>
      <trkpt lat="44.99963" lon="6.13317">
        <ele>1856</ele>
        <time>2022-12-29T12:56:44Z</time>
      </trkpt>
      <trkpt lat="44.99962" lon="6.13318">
        <ele>1856</ele>
        <time>2022-12-29T12:56:45Z</time>
      </trkpt>
      <trkpt lat="44.99962" lon="6.13318">
        <ele>1856.8</ele>
        <time>2022-12-29T12:56:46Z</time>
      </trkpt>
      <trkpt lat="44.99961" lon="6.13318">
        <ele>1856.8</ele>
        <time>2022-12-29T12:56:47Z</time>
      </trkpt>
      <trkpt lat="44.99961" lon="6.13318">
        <ele>1856.8</ele>
        <time>2022-12-29T12:56:48Z</time>
      </trkpt>
      <trkpt lat="44.9996" lon="6.13318">
        <ele>1856.8</ele>
        <time>2022-12-29T12:56:49Z</time>
      </trkpt>
      <trkpt lat="44.9996" lon="6.13318">
        <ele>1856.8</ele>
        <time>2022-12-29T12:56:50Z</time>
      </trkpt>
      <trkpt lat="44.99959" lon="6.13318">
        <ele>1856.8</ele>
        <time>2022-12-29T12:56:51Z</time>
      </trkpt>
      <trkpt lat="44.99958" lon="6.13318">
        <ele>1856.8</ele>
        <time>2022-12-29T12:56:52Z</time>
      </trkpt>
      <trkpt lat="44.99958" lon="6.13318">
        <ele>1856.8</ele>
        <time>2022-12-29T12:56:53Z</time>
      </trkpt>
      <trkpt lat="44.99957" lon="6.13318">
        <ele>1856.8</ele>
        <time>2022-12-29T12:56:54Z</time>
      </trkpt>
      <trkpt lat="44.99957" lon="6.13318">
        <ele>1856.8</ele>
        <time>2022-12-29T12:56:55Z</time>
      </trkpt>
      <trkpt lat="44.99956" lon="6.13319">
        <ele>1857.4</ele>
        <time>2022-12-29T12:56:56Z</time>
      </trkpt>
      <trkpt lat="44.99955" lon="6.13319">
        <ele>1857.4</ele>
        <time>2022-12-29T12:56:57Z</time>
      </trkpt>
      <trkpt lat="44.99955" lon="6.13319">
        <ele>1857.4</ele>
        <time>2022-12-29T12:56:58Z</time>
      </trkpt>
      <trkpt lat="44.99954" lon="6.13319">
        <ele>1857.4</ele>
        <time>2022-12-29T12:56:59Z</time>
      </trkpt>
      <trkpt lat="44.99954" lon="6.1332">
        <ele>1857.4</ele>
        <time>2022-12-29T12:57:00Z</time>
      </trkpt>
      <trkpt lat="44.99953" lon="6.1332">
        <ele>1857.4</ele>
        <time>2022-12-29T12:57:01Z</time>
      </trkpt>
      <trkpt lat="44.99952" lon="6.1332">
        <ele>1857.4</ele>
        <time>2022-12-29T12:57:02Z</time>
      </trkpt>
      <trkpt lat="44.99952" lon="6.13321">
        <ele>1857.4</ele>
        <time>2022-12-29T12:57:03Z</time>
      </trkpt>
      <trkpt lat="44.99951" lon="6.13321">
        <ele>1857.4</ele>
        <time>2022-12-29T12:57:04Z</time>
      </trkpt>
      <trkpt lat="44.99951" lon="6.13321">
        <ele>1857.4</ele>
        <time>2022-12-29T12:57:05Z</time>
      </trkpt>
      <trkpt lat="44.9995" lon="6.13321">
        <ele>1859.4</ele>
        <time>2022-12-29T12:57:06Z</time>
      </trkpt>
      <trkpt lat="44.9995" lon="6.13322">
        <ele>1859.4</ele>
        <time>2022-12-29T12:57:07Z</time>
      </trkpt>
      <trkpt lat="44.9995" lon="6.13322">
        <ele>1859.4</ele>
        <time>2022-12-29T12:57:08Z</time>
      </trkpt>
      <trkpt lat="44.9995" lon="6.13322">
        <ele>1859.4</ele>
        <time>2022-12-29T12:57:09Z</time>
      </trkpt>
      <trkpt lat="44.9995" lon="6.13322">
        <ele>1859.4</ele>
        <time>2022-12-29T12:57:10Z</time>
      </trkpt>
      <trkpt lat="44.99949" lon="6.13323">
        <ele>1859.4</ele>
        <time>2022-12-29T12:57:11Z</time>
      </trkpt>
      <trkpt lat="44.99949" lon="6.13323">
        <ele>1859.4</ele>
        <time>2022-12-29T12:57:12Z</time>
      </trkpt>
      <trkpt lat="44.99949" lon="6.13323">
        <ele>1859.4</ele>
        <time>2022-12-29T12:57:13Z</time>
      </trkpt>
      <trkpt lat="44.99949" lon="6.13323">
        <ele>1859.4</ele>
        <time>2022-12-29T12:57:14Z</time>
      </trkpt>
      <trkpt lat="44.99949" lon="6.13324">
        <ele>1859.4</ele>
        <time>2022-12-29T12:57:15Z</time>
      </trkpt>
      <trkpt lat="44.99949" lon="6.13324">
        <ele>1860.2</ele>
        <time>2022-12-29T12:57:16Z</time>
      </trkpt>
      <trkpt lat="44.99949" lon="6.13324">
        <ele>1860.2</ele>
        <time>2022-12-29T12:57:17Z</time>
      </trkpt>
      <trkpt lat="44.99948" lon="6.13324">
        <ele>1860.2</ele>
        <time>2022-12-29T12:57:18Z</time>
      </trkpt>
      <trkpt lat="44.99948" lon="6.13325">
        <ele>1860.2</ele>
        <time>2022-12-29T12:57:19Z</time>
      </trkpt>
      <trkpt lat="44.99948" lon="6.13325">
        <ele>1860.2</ele>
        <time>2022-12-29T12:57:20Z</time>
      </trkpt>
      <trkpt lat="44.99948" lon="6.13325">
        <ele>1860.2</ele>
        <time>2022-12-29T12:57:21Z</time>
      </trkpt>
      <trkpt lat="44.99948" lon="6.13325">
        <ele>1860.2</ele>
        <time>2022-12-29T12:57:22Z</time>
      </trkpt>
      <trkpt lat="44.99948" lon="6.13326">
        <ele>1860.2</ele>
        <time>2022-12-29T12:57:23Z</time>
      </trkpt>
      <trkpt lat="44.99948" lon="6.13326">
        <ele>1860.2</ele>
        <time>2022-12-29T12:57:24Z</time>
      </trkpt>
      <trkpt lat="44.99947" lon="6.13326">
        <ele>1860.2</ele>
        <time>2022-12-29T12:57:25Z</time>
      </trkpt>
      <trkpt lat="44.99947" lon="6.13326">
        <ele>1860.8</ele>
        <time>2022-12-29T12:57:26Z</time>
      </trkpt>
      <trkpt lat="44.99947" lon="6.13327">
        <ele>1860.8</ele>
        <time>2022-12-29T12:57:29Z</time>
      </trkpt>
      <trkpt lat="44.99947" lon="6.13327">
        <ele>1860.8</ele>
        <time>2022-12-29T12:57:30Z</time>
      </trkpt>
      <trkpt lat="44.99947" lon="6.13327">
        <ele>1860.8</ele>
        <time>2022-12-29T12:57:31Z</time>
      </trkpt>
      <trkpt lat="44.99947" lon="6.13327">
        <ele>1860.8</ele>
        <time>2022-12-29T12:57:32Z</time>
      </trkpt>
      <trkpt lat="44.99947" lon="6.13328">
        <ele>1860.8</ele>
        <time>2022-12-29T12:57:33Z</time>
      </trkpt>
      <trkpt lat="44.99946" lon="6.13328">
        <ele>1860.8</ele>
        <time>2022-12-29T12:57:34Z</time>
      </trkpt>
      <trkpt lat="44.99946" lon="6.13328">
        <ele>1860.8</ele>
        <time>2022-12-29T12:57:35Z</time>
      </trkpt>
      <trkpt lat="44.99946" lon="6.13329">
        <ele>1862.2</ele>
        <time>2022-12-29T12:57:36Z</time>
      </trkpt>
      <trkpt lat="44.99946" lon="6.13329">
        <ele>1862.2</ele>
        <time>2022-12-29T12:57:37Z</time>
      </trkpt>
      <trkpt lat="44.99946" lon="6.13329">
        <ele>1862.2</ele>
        <time>2022-12-29T12:57:38Z</time>
      </trkpt>
      <trkpt lat="44.99946" lon="6.13329">
        <ele>1862.2</ele>
        <time>2022-12-29T12:57:39Z</time>
      </trkpt>
      <trkpt lat="44.99946" lon="6.1333">
        <ele>1862.2</ele>
        <time>2022-12-29T12:57:40Z</time>
      </trkpt>
      <trkpt lat="44.99945" lon="6.1333">
        <ele>1862.2</ele>
        <time>2022-12-29T12:57:41Z</time>
      </trkpt>
      <trkpt lat="44.99945" lon="6.1333">
        <ele>1862.2</ele>
        <time>2022-12-29T12:57:42Z</time>
      </trkpt>
      <trkpt lat="44.99945" lon="6.1333">
        <ele>1862.2</ele>
        <time>2022-12-29T12:57:43Z</time>
      </trkpt>
      <trkpt lat="44.99945" lon="6.13331">
        <ele>1862.2</ele>
        <time>2022-12-29T12:57:44Z</time>
      </trkpt>
      <trkpt lat="44.99945" lon="6.13331">
        <ele>1862.2</ele>
        <time>2022-12-29T12:57:45Z</time>
      </trkpt>
      <trkpt lat="44.99945" lon="6.13331">
        <ele>1863.6</ele>
        <time>2022-12-29T12:57:46Z</time>
      </trkpt>
      <trkpt lat="44.99943" lon="6.13334">
        <ele>1863.6</ele>
        <time>2022-12-29T12:57:47Z</time>
      </trkpt>
      <trkpt lat="44.99942" lon="6.13335">
        <ele>1863.6</ele>
        <time>2022-12-29T12:57:48Z</time>
      </trkpt>
      <trkpt lat="44.99942" lon="6.13335">
        <ele>1863.6</ele>
        <time>2022-12-29T12:57:49Z</time>
      </trkpt>
      <trkpt lat="44.99942" lon="6.13336">
        <ele>1863.6</ele>
        <time>2022-12-29T12:57:50Z</time>
      </trkpt>
      <trkpt lat="44.99941" lon="6.13336">
        <ele>1863.6</ele>
        <time>2022-12-29T12:57:51Z</time>
      </trkpt>
      <trkpt lat="44.99941" lon="6.13337">
        <ele>1863.6</ele>
        <time>2022-12-29T12:57:52Z</time>
      </trkpt>
      <trkpt lat="44.99941" lon="6.13337">
        <ele>1863.6</ele>
        <time>2022-12-29T12:57:53Z</time>
      </trkpt>
      <trkpt lat="44.99941" lon="6.13338">
        <ele>1863.6</ele>
        <time>2022-12-29T12:57:54Z</time>
      </trkpt>
      <trkpt lat="44.9994" lon="6.13338">
        <ele>1863.6</ele>
        <time>2022-12-29T12:57:55Z</time>
      </trkpt>
      <trkpt lat="44.9994" lon="6.13339">
        <ele>1864.6</ele>
        <time>2022-12-29T12:57:56Z</time>
      </trkpt>
      <trkpt lat="44.9994" lon="6.13339">
        <ele>1864.6</ele>
        <time>2022-12-29T12:57:59Z</time>
      </trkpt>
      <trkpt lat="44.99939" lon="6.1334">
        <ele>1864.6</ele>
        <time>2022-12-29T12:58:00Z</time>
      </trkpt>
      <trkpt lat="44.99939" lon="6.1334">
        <ele>1864.6</ele>
        <time>2022-12-29T12:58:01Z</time>
      </trkpt>
      <trkpt lat="44.99939" lon="6.1334">
        <ele>1864.6</ele>
        <time>2022-12-29T12:58:02Z</time>
      </trkpt>
      <trkpt lat="44.99937" lon="6.13342">
        <ele>1864.6</ele>
        <time>2022-12-29T12:58:03Z</time>
      </trkpt>
      <trkpt lat="44.99937" lon="6.13342">
        <ele>1864.6</ele>
        <time>2022-12-29T12:58:04Z</time>
      </trkpt>
      <trkpt lat="44.99937" lon="6.13342">
        <ele>1864.6</ele>
        <time>2022-12-29T12:58:05Z</time>
      </trkpt>
      <trkpt lat="44.99937" lon="6.13342">
        <ele>1865</ele>
        <time>2022-12-29T12:58:06Z</time>
      </trkpt>
      <trkpt lat="44.99934" lon="6.13343">
        <ele>1865</ele>
        <time>2022-12-29T12:58:07Z</time>
      </trkpt>
      <trkpt lat="44.99934" lon="6.13343">
        <ele>1865</ele>
        <time>2022-12-29T12:58:08Z</time>
      </trkpt>
      <trkpt lat="44.99933" lon="6.13343">
        <ele>1865</ele>
        <time>2022-12-29T12:58:09Z</time>
      </trkpt>
      <trkpt lat="44.99933" lon="6.13344">
        <ele>1865</ele>
        <time>2022-12-29T12:58:10Z</time>
      </trkpt>
      <trkpt lat="44.99932" lon="6.13344">
        <ele>1865</ele>
        <time>2022-12-29T12:58:11Z</time>
      </trkpt>
      <trkpt lat="44.99932" lon="6.13345">
        <ele>1865</ele>
        <time>2022-12-29T12:58:12Z</time>
      </trkpt>
      <trkpt lat="44.99931" lon="6.13345">
        <ele>1865</ele>
        <time>2022-12-29T12:58:13Z</time>
      </trkpt>
      <trkpt lat="44.99931" lon="6.13345">
        <ele>1865</ele>
        <time>2022-12-29T12:58:14Z</time>
      </trkpt>
      <trkpt lat="44.9993" lon="6.13346">
        <ele>1865</ele>
        <time>2022-12-29T12:58:15Z</time>
      </trkpt>
      <trkpt lat="44.9993" lon="6.13346">
        <ele>1863.6</ele>
        <time>2022-12-29T12:58:16Z</time>
      </trkpt>
      <trkpt lat="44.99929" lon="6.13347">
        <ele>1863.6</ele>
        <time>2022-12-29T12:58:17Z</time>
      </trkpt>
      <trkpt lat="44.99928" lon="6.13347">
        <ele>1863.6</ele>
        <time>2022-12-29T12:58:18Z</time>
      </trkpt>
      <trkpt lat="44.99928" lon="6.13348">
        <ele>1863.6</ele>
        <time>2022-12-29T12:58:19Z</time>
      </trkpt>
      <trkpt lat="44.99927" lon="6.13348">
        <ele>1863.6</ele>
        <time>2022-12-29T12:58:20Z</time>
      </trkpt>
      <trkpt lat="44.99926" lon="6.13348">
        <ele>1863.6</ele>
        <time>2022-12-29T12:58:21Z</time>
      </trkpt>
      <trkpt lat="44.99926" lon="6.13349">
        <ele>1863.6</ele>
        <time>2022-12-29T12:58:22Z</time>
      </trkpt>
      <trkpt lat="44.99925" lon="6.13349">
        <ele>1863.6</ele>
        <time>2022-12-29T12:58:23Z</time>
      </trkpt>
      <trkpt lat="44.99924" lon="6.1335">
        <ele>1863.6</ele>
        <time>2022-12-29T12:58:24Z</time>
      </trkpt>
      <trkpt lat="44.99923" lon="6.1335">
        <ele>1863.6</ele>
        <time>2022-12-29T12:58:25Z</time>
      </trkpt>
      <trkpt lat="44.99923" lon="6.13351">
        <ele>1863</ele>
        <time>2022-12-29T12:58:26Z</time>
      </trkpt>
      <trkpt lat="44.9992" lon="6.13352">
        <ele>1863</ele>
        <time>2022-12-29T12:58:27Z</time>
      </trkpt>
      <trkpt lat="44.9992" lon="6.13352">
        <ele>1863</ele>
        <time>2022-12-29T12:58:28Z</time>
      </trkpt>
      <trkpt lat="44.99919" lon="6.13352">
        <ele>1863</ele>
        <time>2022-12-29T12:58:29Z</time>
      </trkpt>
      <trkpt lat="44.99919" lon="6.13353">
        <ele>1863</ele>
        <time>2022-12-29T12:58:30Z</time>
      </trkpt>
      <trkpt lat="44.99918" lon="6.13353">
        <ele>1863</ele>
        <time>2022-12-29T12:58:31Z</time>
      </trkpt>
      <trkpt lat="44.99918" lon="6.13353">
        <ele>1863</ele>
        <time>2022-12-29T12:58:32Z</time>
      </trkpt>
      <trkpt lat="44.99917" lon="6.13353">
        <ele>1863</ele>
        <time>2022-12-29T12:58:33Z</time>
      </trkpt>
      <trkpt lat="44.99917" lon="6.13353">
        <ele>1863</ele>
        <time>2022-12-29T12:58:34Z</time>
      </trkpt>
      <trkpt lat="44.99916" lon="6.13353">
        <ele>1863</ele>
        <time>2022-12-29T12:58:35Z</time>
      </trkpt>
      <trkpt lat="44.99916" lon="6.13353">
        <ele>1865</ele>
        <time>2022-12-29T12:58:36Z</time>
      </trkpt>
      <trkpt lat="44.99913" lon="6.13354">
        <ele>1865</ele>
        <time>2022-12-29T12:58:37Z</time>
      </trkpt>
      <trkpt lat="44.99912" lon="6.13354">
        <ele>1865</ele>
        <time>2022-12-29T12:58:38Z</time>
      </trkpt>
      <trkpt lat="44.99912" lon="6.13354">
        <ele>1865</ele>
        <time>2022-12-29T12:58:39Z</time>
      </trkpt>
      <trkpt lat="44.99911" lon="6.13354">
        <ele>1865</ele>
        <time>2022-12-29T12:58:40Z</time>
      </trkpt>
      <trkpt lat="44.99911" lon="6.13354">
        <ele>1865</ele>
        <time>2022-12-29T12:58:41Z</time>
      </trkpt>
      <trkpt lat="44.99911" lon="6.13354">
        <ele>1865</ele>
        <time>2022-12-29T12:58:42Z</time>
      </trkpt>
      <trkpt lat="44.9991" lon="6.13354">
        <ele>1865</ele>
        <time>2022-12-29T12:58:43Z</time>
      </trkpt>
      <trkpt lat="44.9991" lon="6.13354">
        <ele>1865</ele>
        <time>2022-12-29T12:58:44Z</time>
      </trkpt>
      <trkpt lat="44.99909" lon="6.13354">
        <ele>1865</ele>
        <time>2022-12-29T12:58:45Z</time>
      </trkpt>
      <trkpt lat="44.99909" lon="6.13354">
        <ele>1866.6</ele>
        <time>2022-12-29T12:58:46Z</time>
      </trkpt>
      <trkpt lat="44.99908" lon="6.13355">
        <ele>1866.6</ele>
        <time>2022-12-29T12:58:47Z</time>
      </trkpt>
      <trkpt lat="44.99908" lon="6.13355">
        <ele>1866.6</ele>
        <time>2022-12-29T12:58:48Z</time>
      </trkpt>
      <trkpt lat="44.99907" lon="6.13355">
        <ele>1866.6</ele>
        <time>2022-12-29T12:58:49Z</time>
      </trkpt>
      <trkpt lat="44.99906" lon="6.13355">
        <ele>1866.6</ele>
        <time>2022-12-29T12:58:50Z</time>
      </trkpt>
      <trkpt lat="44.99906" lon="6.13355">
        <ele>1866.6</ele>
        <time>2022-12-29T12:58:51Z</time>
      </trkpt>
      <trkpt lat="44.99905" lon="6.13356">
        <ele>1866.6</ele>
        <time>2022-12-29T12:58:52Z</time>
      </trkpt>
      <trkpt lat="44.99905" lon="6.13356">
        <ele>1866.6</ele>
        <time>2022-12-29T12:58:53Z</time>
      </trkpt>
      <trkpt lat="44.99904" lon="6.13356">
        <ele>1866.6</ele>
        <time>2022-12-29T12:58:54Z</time>
      </trkpt>
      <trkpt lat="44.99903" lon="6.13356">
        <ele>1866.6</ele>
        <time>2022-12-29T12:58:55Z</time>
      </trkpt>
      <trkpt lat="44.99903" lon="6.13357">
        <ele>1868.2</ele>
        <time>2022-12-29T12:58:56Z</time>
      </trkpt>
      <trkpt lat="44.99902" lon="6.13356">
        <ele>1868.2</ele>
        <time>2022-12-29T12:58:57Z</time>
      </trkpt>
      <trkpt lat="44.99902" lon="6.13356">
        <ele>1868.2</ele>
        <time>2022-12-29T12:58:58Z</time>
      </trkpt>
      <trkpt lat="44.99901" lon="6.13356">
        <ele>1868.2</ele>
        <time>2022-12-29T12:58:59Z</time>
      </trkpt>
      <trkpt lat="44.99901" lon="6.13356">
        <ele>1868.2</ele>
        <time>2022-12-29T12:59:00Z</time>
      </trkpt>
      <trkpt lat="44.99901" lon="6.13356">
        <ele>1868.2</ele>
        <time>2022-12-29T12:59:01Z</time>
      </trkpt>
      <trkpt lat="44.999" lon="6.13355">
        <ele>1868.2</ele>
        <time>2022-12-29T12:59:02Z</time>
      </trkpt>
      <trkpt lat="44.999" lon="6.13355">
        <ele>1868.2</ele>
        <time>2022-12-29T12:59:03Z</time>
      </trkpt>
      <trkpt lat="44.99899" lon="6.13355">
        <ele>1868.2</ele>
        <time>2022-12-29T12:59:04Z</time>
      </trkpt>
      <trkpt lat="44.99899" lon="6.13355">
        <ele>1868.2</ele>
        <time>2022-12-29T12:59:05Z</time>
      </trkpt>
      <trkpt lat="44.99898" lon="6.13355">
        <ele>1869</ele>
        <time>2022-12-29T12:59:06Z</time>
      </trkpt>
      <trkpt lat="44.99898" lon="6.13355">
        <ele>1869</ele>
        <time>2022-12-29T12:59:07Z</time>
      </trkpt>
      <trkpt lat="44.99897" lon="6.13355">
        <ele>1869</ele>
        <time>2022-12-29T12:59:08Z</time>
      </trkpt>
      <trkpt lat="44.99896" lon="6.13355">
        <ele>1869</ele>
        <time>2022-12-29T12:59:09Z</time>
      </trkpt>
      <trkpt lat="44.99895" lon="6.13355">
        <ele>1869</ele>
        <time>2022-12-29T12:59:10Z</time>
      </trkpt>
      <trkpt lat="44.99895" lon="6.13355">
        <ele>1869</ele>
        <time>2022-12-29T12:59:11Z</time>
      </trkpt>
      <trkpt lat="44.99894" lon="6.13355">
        <ele>1869</ele>
        <time>2022-12-29T12:59:12Z</time>
      </trkpt>
      <trkpt lat="44.99893" lon="6.13355">
        <ele>1869</ele>
        <time>2022-12-29T12:59:13Z</time>
      </trkpt>
      <trkpt lat="44.99893" lon="6.13356">
        <ele>1869</ele>
        <time>2022-12-29T12:59:14Z</time>
      </trkpt>
      <trkpt lat="44.99892" lon="6.13356">
        <ele>1869</ele>
        <time>2022-12-29T12:59:15Z</time>
      </trkpt>
      <trkpt lat="44.99891" lon="6.13356">
        <ele>1869.6</ele>
        <time>2022-12-29T12:59:16Z</time>
      </trkpt>
      <trkpt lat="44.99889" lon="6.13356">
        <ele>1869.6</ele>
        <time>2022-12-29T12:59:17Z</time>
      </trkpt>
      <trkpt lat="44.99888" lon="6.13357">
        <ele>1869.6</ele>
        <time>2022-12-29T12:59:18Z</time>
      </trkpt>
      <trkpt lat="44.99888" lon="6.13357">
        <ele>1869.6</ele>
        <time>2022-12-29T12:59:19Z</time>
      </trkpt>
      <trkpt lat="44.99887" lon="6.13357">
        <ele>1869.6</ele>
        <time>2022-12-29T12:59:20Z</time>
      </trkpt>
      <trkpt lat="44.99886" lon="6.13358">
        <ele>1869.6</ele>
        <time>2022-12-29T12:59:21Z</time>
      </trkpt>
      <trkpt lat="44.99886" lon="6.13358">
        <ele>1869.6</ele>
        <time>2022-12-29T12:59:22Z</time>
      </trkpt>
      <trkpt lat="44.99885" lon="6.13358">
        <ele>1869.6</ele>
        <time>2022-12-29T12:59:23Z</time>
      </trkpt>
      <trkpt lat="44.99884" lon="6.13359">
        <ele>1869.6</ele>
        <time>2022-12-29T12:59:24Z</time>
      </trkpt>
      <trkpt lat="44.99884" lon="6.13359">
        <ele>1869.6</ele>
        <time>2022-12-29T12:59:25Z</time>
      </trkpt>
      <trkpt lat="44.99883" lon="6.1336">
        <ele>1871.2</ele>
        <time>2022-12-29T12:59:26Z</time>
      </trkpt>
      <trkpt lat="44.99883" lon="6.1336">
        <ele>1871.2</ele>
        <time>2022-12-29T12:59:27Z</time>
      </trkpt>
      <trkpt lat="44.99882" lon="6.1336">
        <ele>1871.2</ele>
        <time>2022-12-29T12:59:28Z</time>
      </trkpt>
      <trkpt lat="44.99881" lon="6.1336">
        <ele>1871.2</ele>
        <time>2022-12-29T12:59:29Z</time>
      </trkpt>
      <trkpt lat="44.99881" lon="6.1336">
        <ele>1871.2</ele>
        <time>2022-12-29T12:59:30Z</time>
      </trkpt>
      <trkpt lat="44.9988" lon="6.1336">
        <ele>1871.2</ele>
        <time>2022-12-29T12:59:31Z</time>
      </trkpt>
      <trkpt lat="44.9988" lon="6.13361">
        <ele>1871.2</ele>
        <time>2022-12-29T12:59:32Z</time>
      </trkpt>
      <trkpt lat="44.99879" lon="6.13361">
        <ele>1871.2</ele>
        <time>2022-12-29T12:59:33Z</time>
      </trkpt>
      <trkpt lat="44.99878" lon="6.13361">
        <ele>1871.2</ele>
        <time>2022-12-29T12:59:34Z</time>
      </trkpt>
      <trkpt lat="44.99878" lon="6.13361">
        <ele>1871.2</ele>
        <time>2022-12-29T12:59:35Z</time>
      </trkpt>
      <trkpt lat="44.99877" lon="6.13361">
        <ele>1873.6</ele>
        <time>2022-12-29T12:59:36Z</time>
      </trkpt>
      <trkpt lat="44.99877" lon="6.13362">
        <ele>1873.6</ele>
        <time>2022-12-29T12:59:37Z</time>
      </trkpt>
      <trkpt lat="44.99876" lon="6.13362">
        <ele>1873.6</ele>
        <time>2022-12-29T12:59:38Z</time>
      </trkpt>
      <trkpt lat="44.99876" lon="6.13362">
        <ele>1873.6</ele>
        <time>2022-12-29T12:59:39Z</time>
      </trkpt>
      <trkpt lat="44.99875" lon="6.13362">
        <ele>1873.6</ele>
        <time>2022-12-29T12:59:40Z</time>
      </trkpt>
      <trkpt lat="44.99875" lon="6.13362">
        <ele>1873.6</ele>
        <time>2022-12-29T12:59:41Z</time>
      </trkpt>
      <trkpt lat="44.99874" lon="6.13362">
        <ele>1873.6</ele>
        <time>2022-12-29T12:59:42Z</time>
      </trkpt>
      <trkpt lat="44.99874" lon="6.13363">
        <ele>1873.6</ele>
        <time>2022-12-29T12:59:43Z</time>
      </trkpt>
      <trkpt lat="44.99874" lon="6.13363">
        <ele>1873.6</ele>
        <time>2022-12-29T12:59:44Z</time>
      </trkpt>
      <trkpt lat="44.99873" lon="6.13363">
        <ele>1873.6</ele>
        <time>2022-12-29T12:59:45Z</time>
      </trkpt>
      <trkpt lat="44.99873" lon="6.13363">
        <ele>1875.2</ele>
        <time>2022-12-29T12:59:46Z</time>
      </trkpt>
      <trkpt lat="44.9987" lon="6.13365">
        <ele>1875.2</ele>
        <time>2022-12-29T12:59:47Z</time>
      </trkpt>
      <trkpt lat="44.99869" lon="6.13365">
        <ele>1875.2</ele>
        <time>2022-12-29T12:59:48Z</time>
      </trkpt>
      <trkpt lat="44.99869" lon="6.13366">
        <ele>1875.2</ele>
        <time>2022-12-29T12:59:49Z</time>
      </trkpt>
      <trkpt lat="44.99868" lon="6.13366">
        <ele>1875.2</ele>
        <time>2022-12-29T12:59:50Z</time>
      </trkpt>
      <trkpt lat="44.99868" lon="6.13366">
        <ele>1875.2</ele>
        <time>2022-12-29T12:59:51Z</time>
      </trkpt>
      <trkpt lat="44.99867" lon="6.13367">
        <ele>1875.2</ele>
        <time>2022-12-29T12:59:52Z</time>
      </trkpt>
      <trkpt lat="44.99866" lon="6.13367">
        <ele>1875.2</ele>
        <time>2022-12-29T12:59:53Z</time>
      </trkpt>
      <trkpt lat="44.99866" lon="6.13367">
        <ele>1875.2</ele>
        <time>2022-12-29T12:59:54Z</time>
      </trkpt>
      <trkpt lat="44.99865" lon="6.13368">
        <ele>1875.2</ele>
        <time>2022-12-29T12:59:55Z</time>
      </trkpt>
      <trkpt lat="44.99865" lon="6.13368">
        <ele>1876.4</ele>
        <time>2022-12-29T12:59:56Z</time>
      </trkpt>
      <trkpt lat="44.99864" lon="6.13368">
        <ele>1876.4</ele>
        <time>2022-12-29T12:59:57Z</time>
      </trkpt>
      <trkpt lat="44.99864" lon="6.13369">
        <ele>1876.4</ele>
        <time>2022-12-29T12:59:58Z</time>
      </trkpt>
      <trkpt lat="44.99863" lon="6.13369">
        <ele>1876.4</ele>
        <time>2022-12-29T12:59:59Z</time>
      </trkpt>
      <trkpt lat="44.99862" lon="6.13369">
        <ele>1876.4</ele>
        <time>2022-12-29T13:00:00Z</time>
      </trkpt>
      <trkpt lat="44.99862" lon="6.1337">
        <ele>1876.4</ele>
        <time>2022-12-29T13:00:01Z</time>
      </trkpt>
      <trkpt lat="44.99861" lon="6.1337">
        <ele>1876.4</ele>
        <time>2022-12-29T13:00:02Z</time>
      </trkpt>
      <trkpt lat="44.99861" lon="6.1337">
        <ele>1876.4</ele>
        <time>2022-12-29T13:00:03Z</time>
      </trkpt>
      <trkpt lat="44.9986" lon="6.1337">
        <ele>1876.4</ele>
        <time>2022-12-29T13:00:04Z</time>
      </trkpt>
      <trkpt lat="44.9986" lon="6.13371">
        <ele>1876.4</ele>
        <time>2022-12-29T13:00:05Z</time>
      </trkpt>
      <trkpt lat="44.99859" lon="6.13371">
        <ele>1877.4</ele>
        <time>2022-12-29T13:00:06Z</time>
      </trkpt>
      <trkpt lat="44.99858" lon="6.13371">
        <ele>1877.4</ele>
        <time>2022-12-29T13:00:07Z</time>
      </trkpt>
      <trkpt lat="44.99858" lon="6.13371">
        <ele>1877.4</ele>
        <time>2022-12-29T13:00:08Z</time>
      </trkpt>
      <trkpt lat="44.99857" lon="6.13371">
        <ele>1877.4</ele>
        <time>2022-12-29T13:00:09Z</time>
      </trkpt>
      <trkpt lat="44.99857" lon="6.13371">
        <ele>1877.4</ele>
        <time>2022-12-29T13:00:10Z</time>
      </trkpt>
      <trkpt lat="44.99856" lon="6.13371">
        <ele>1877.4</ele>
        <time>2022-12-29T13:00:11Z</time>
      </trkpt>
      <trkpt lat="44.99855" lon="6.13371">
        <ele>1877.4</ele>
        <time>2022-12-29T13:00:12Z</time>
      </trkpt>
      <trkpt lat="44.99855" lon="6.13371">
        <ele>1877.4</ele>
        <time>2022-12-29T13:00:13Z</time>
      </trkpt>
      <trkpt lat="44.99854" lon="6.13371">
        <ele>1877.4</ele>
        <time>2022-12-29T13:00:14Z</time>
      </trkpt>
      <trkpt lat="44.99854" lon="6.13371">
        <ele>1877.4</ele>
        <time>2022-12-29T13:00:15Z</time>
      </trkpt>
      <trkpt lat="44.99853" lon="6.13371">
        <ele>1878.6</ele>
        <time>2022-12-29T13:00:16Z</time>
      </trkpt>
      <trkpt lat="44.99853" lon="6.13371">
        <ele>1878.6</ele>
        <time>2022-12-29T13:00:17Z</time>
      </trkpt>
      <trkpt lat="44.99853" lon="6.13371">
        <ele>1878.6</ele>
        <time>2022-12-29T13:00:18Z</time>
      </trkpt>
      <trkpt lat="44.99852" lon="6.13371">
        <ele>1878.6</ele>
        <time>2022-12-29T13:00:19Z</time>
      </trkpt>
      <trkpt lat="44.99852" lon="6.13371">
        <ele>1878.6</ele>
        <time>2022-12-29T13:00:20Z</time>
      </trkpt>
      <trkpt lat="44.99852" lon="6.13371">
        <ele>1878.6</ele>
        <time>2022-12-29T13:00:21Z</time>
      </trkpt>
      <trkpt lat="44.99851" lon="6.13371">
        <ele>1878.6</ele>
        <time>2022-12-29T13:00:22Z</time>
      </trkpt>
      <trkpt lat="44.99851" lon="6.13371">
        <ele>1878.6</ele>
        <time>2022-12-29T13:00:23Z</time>
      </trkpt>
      <trkpt lat="44.99851" lon="6.13371">
        <ele>1878.6</ele>
        <time>2022-12-29T13:00:24Z</time>
      </trkpt>
      <trkpt lat="44.9985" lon="6.13372">
        <ele>1878.6</ele>
        <time>2022-12-29T13:00:25Z</time>
      </trkpt>
      <trkpt lat="44.9985" lon="6.13372">
        <ele>1879.2</ele>
        <time>2022-12-29T13:00:26Z</time>
      </trkpt>
      <trkpt lat="44.9985" lon="6.13372">
        <ele>1879.2</ele>
        <time>2022-12-29T13:00:27Z</time>
      </trkpt>
      <trkpt lat="44.99849" lon="6.13372">
        <ele>1879.2</ele>
        <time>2022-12-29T13:00:28Z</time>
      </trkpt>
      <trkpt lat="44.99849" lon="6.13372">
        <ele>1879.2</ele>
        <time>2022-12-29T13:00:29Z</time>
      </trkpt>
      <trkpt lat="44.99849" lon="6.13372">
        <ele>1879.2</ele>
        <time>2022-12-29T13:00:30Z</time>
      </trkpt>
      <trkpt lat="44.99849" lon="6.13372">
        <ele>1879.2</ele>
        <time>2022-12-29T13:00:31Z</time>
      </trkpt>
      <trkpt lat="44.99848" lon="6.13372">
        <ele>1879.2</ele>
        <time>2022-12-29T13:00:32Z</time>
      </trkpt>
      <trkpt lat="44.99848" lon="6.13372">
        <ele>1879.2</ele>
        <time>2022-12-29T13:00:33Z</time>
      </trkpt>
      <trkpt lat="44.99848" lon="6.13372">
        <ele>1879.2</ele>
        <time>2022-12-29T13:00:34Z</time>
      </trkpt>
      <trkpt lat="44.99847" lon="6.13372">
        <ele>1879.2</ele>
        <time>2022-12-29T13:00:35Z</time>
      </trkpt>
      <trkpt lat="44.99847" lon="6.13372">
        <ele>1880</ele>
        <time>2022-12-29T13:00:36Z</time>
      </trkpt>
      <trkpt lat="44.99847" lon="6.13372">
        <ele>1880</ele>
        <time>2022-12-29T13:00:37Z</time>
      </trkpt>
      <trkpt lat="44.99846" lon="6.13372">
        <ele>1880</ele>
        <time>2022-12-29T13:00:38Z</time>
      </trkpt>
      <trkpt lat="44.99846" lon="6.13372">
        <ele>1880</ele>
        <time>2022-12-29T13:00:39Z</time>
      </trkpt>
      <trkpt lat="44.99846" lon="6.13372">
        <ele>1880</ele>
        <time>2022-12-29T13:00:40Z</time>
      </trkpt>
      <trkpt lat="44.99845" lon="6.13372">
        <ele>1880</ele>
        <time>2022-12-29T13:00:41Z</time>
      </trkpt>
      <trkpt lat="44.99845" lon="6.13372">
        <ele>1880</ele>
        <time>2022-12-29T13:00:42Z</time>
      </trkpt>
      <trkpt lat="44.99845" lon="6.13372">
        <ele>1880</ele>
        <time>2022-12-29T13:00:43Z</time>
      </trkpt>
      <trkpt lat="44.99845" lon="6.13372">
        <ele>1880</ele>
        <time>2022-12-29T13:00:44Z</time>
      </trkpt>
      <trkpt lat="44.99844" lon="6.13372">
        <ele>1880</ele>
        <time>2022-12-29T13:00:45Z</time>
      </trkpt>
      <trkpt lat="44.99844" lon="6.13372">
        <ele>1881</ele>
        <time>2022-12-29T13:00:46Z</time>
      </trkpt>
      <trkpt lat="44.99842" lon="6.13372">
        <ele>1881</ele>
        <time>2022-12-29T13:00:47Z</time>
      </trkpt>
      <trkpt lat="44.99841" lon="6.13372">
        <ele>1881</ele>
        <time>2022-12-29T13:00:48Z</time>
      </trkpt>
      <trkpt lat="44.99841" lon="6.13373">
        <ele>1881</ele>
        <time>2022-12-29T13:00:49Z</time>
      </trkpt>
      <trkpt lat="44.9984" lon="6.13373">
        <ele>1881</ele>
        <time>2022-12-29T13:00:50Z</time>
      </trkpt>
      <trkpt lat="44.9984" lon="6.13373">
        <ele>1881</ele>
        <time>2022-12-29T13:00:51Z</time>
      </trkpt>
      <trkpt lat="44.99839" lon="6.13373">
        <ele>1881</ele>
        <time>2022-12-29T13:00:52Z</time>
      </trkpt>
      <trkpt lat="44.99839" lon="6.13373">
        <ele>1881</ele>
        <time>2022-12-29T13:00:53Z</time>
      </trkpt>
      <trkpt lat="44.99838" lon="6.13374">
        <ele>1881</ele>
        <time>2022-12-29T13:00:54Z</time>
      </trkpt>
      <trkpt lat="44.99837" lon="6.13374">
        <ele>1881</ele>
        <time>2022-12-29T13:00:55Z</time>
      </trkpt>
      <trkpt lat="44.99837" lon="6.13374">
        <ele>1882.4</ele>
        <time>2022-12-29T13:00:56Z</time>
      </trkpt>
      <trkpt lat="44.99836" lon="6.13374">
        <ele>1882.4</ele>
        <time>2022-12-29T13:00:57Z</time>
      </trkpt>
      <trkpt lat="44.99836" lon="6.13374">
        <ele>1882.4</ele>
        <time>2022-12-29T13:00:58Z</time>
      </trkpt>
      <trkpt lat="44.99836" lon="6.13374">
        <ele>1882.4</ele>
        <time>2022-12-29T13:00:59Z</time>
      </trkpt>
      <trkpt lat="44.99835" lon="6.13375">
        <ele>1882.4</ele>
        <time>2022-12-29T13:01:00Z</time>
      </trkpt>
      <trkpt lat="44.99835" lon="6.13375">
        <ele>1882.4</ele>
        <time>2022-12-29T13:01:01Z</time>
      </trkpt>
      <trkpt lat="44.99835" lon="6.13375">
        <ele>1882.4</ele>
        <time>2022-12-29T13:01:02Z</time>
      </trkpt>
      <trkpt lat="44.99834" lon="6.13375">
        <ele>1882.4</ele>
        <time>2022-12-29T13:01:03Z</time>
      </trkpt>
      <trkpt lat="44.99834" lon="6.13375">
        <ele>1882.4</ele>
        <time>2022-12-29T13:01:04Z</time>
      </trkpt>
      <trkpt lat="44.99833" lon="6.13376">
        <ele>1882.4</ele>
        <time>2022-12-29T13:01:05Z</time>
      </trkpt>
      <trkpt lat="44.99833" lon="6.13376">
        <ele>1885</ele>
        <time>2022-12-29T13:01:06Z</time>
      </trkpt>
      <trkpt lat="44.99833" lon="6.13376">
        <ele>1885</ele>
        <time>2022-12-29T13:01:07Z</time>
      </trkpt>
      <trkpt lat="44.99833" lon="6.13376">
        <ele>1885</ele>
        <time>2022-12-29T13:01:08Z</time>
      </trkpt>
      <trkpt lat="44.99833" lon="6.13376">
        <ele>1885</ele>
        <time>2022-12-29T13:01:09Z</time>
      </trkpt>
      <trkpt lat="44.99833" lon="6.13377">
        <ele>1885</ele>
        <time>2022-12-29T13:01:10Z</time>
      </trkpt>
      <trkpt lat="44.99834" lon="6.13377">
        <ele>1885</ele>
        <time>2022-12-29T13:01:11Z</time>
      </trkpt>
      <trkpt lat="44.99834" lon="6.13377">
        <ele>1885</ele>
        <time>2022-12-29T13:01:12Z</time>
      </trkpt>
      <trkpt lat="44.99834" lon="6.13377">
        <ele>1885</ele>
        <time>2022-12-29T13:01:13Z</time>
      </trkpt>
      <trkpt lat="44.99834" lon="6.13378">
        <ele>1885</ele>
        <time>2022-12-29T13:01:14Z</time>
      </trkpt>
      <trkpt lat="44.99834" lon="6.13378">
        <ele>1885</ele>
        <time>2022-12-29T13:01:15Z</time>
      </trkpt>
      <trkpt lat="44.99834" lon="6.13378">
        <ele>1885.4</ele>
        <time>2022-12-29T13:01:16Z</time>
      </trkpt>
      <trkpt lat="44.99834" lon="6.13378">
        <ele>1885.4</ele>
        <time>2022-12-29T13:01:17Z</time>
      </trkpt>
      <trkpt lat="44.99834" lon="6.13379">
        <ele>1885.4</ele>
        <time>2022-12-29T13:01:18Z</time>
      </trkpt>
      <trkpt lat="44.99834" lon="6.13379">
        <ele>1885.4</ele>
        <time>2022-12-29T13:01:19Z</time>
      </trkpt>
      <trkpt lat="44.99835" lon="6.13379">
        <ele>1885.4</ele>
        <time>2022-12-29T13:01:20Z</time>
      </trkpt>
      <trkpt lat="44.99835" lon="6.13379">
        <ele>1885.4</ele>
        <time>2022-12-29T13:01:21Z</time>
      </trkpt>
      <trkpt lat="44.99835" lon="6.1338">
        <ele>1885.4</ele>
        <time>2022-12-29T13:01:22Z</time>
      </trkpt>
      <trkpt lat="44.99835" lon="6.1338">
        <ele>1885.4</ele>
        <time>2022-12-29T13:01:23Z</time>
      </trkpt>
      <trkpt lat="44.99835" lon="6.1338">
        <ele>1885.4</ele>
        <time>2022-12-29T13:01:24Z</time>
      </trkpt>
      <trkpt lat="44.99835" lon="6.1338">
        <ele>1885.4</ele>
        <time>2022-12-29T13:01:25Z</time>
      </trkpt>
      <trkpt lat="44.99835" lon="6.13381">
        <ele>1885.4</ele>
        <time>2022-12-29T13:01:26Z</time>
      </trkpt>
      <trkpt lat="44.99835" lon="6.13381">
        <ele>1885.4</ele>
        <time>2022-12-29T13:01:27Z</time>
      </trkpt>
      <trkpt lat="44.99836" lon="6.13381">
        <ele>1885.4</ele>
        <time>2022-12-29T13:01:28Z</time>
      </trkpt>
      <trkpt lat="44.99836" lon="6.13381">
        <ele>1885.4</ele>
        <time>2022-12-29T13:01:29Z</time>
      </trkpt>
      <trkpt lat="44.99836" lon="6.13381">
        <ele>1885.4</ele>
        <time>2022-12-29T13:01:30Z</time>
      </trkpt>
      <trkpt lat="44.99836" lon="6.13382">
        <ele>1885.4</ele>
        <time>2022-12-29T13:01:31Z</time>
      </trkpt>
      <trkpt lat="44.99836" lon="6.13382">
        <ele>1885.4</ele>
        <time>2022-12-29T13:01:32Z</time>
      </trkpt>
      <trkpt lat="44.99836" lon="6.13382">
        <ele>1885.4</ele>
        <time>2022-12-29T13:01:33Z</time>
      </trkpt>
      <trkpt lat="44.99836" lon="6.13382">
        <ele>1885.4</ele>
        <time>2022-12-29T13:01:34Z</time>
      </trkpt>
      <trkpt lat="44.99836" lon="6.13383">
        <ele>1885.4</ele>
        <time>2022-12-29T13:01:35Z</time>
      </trkpt>
      <trkpt lat="44.99836" lon="6.13383">
        <ele>1885.2</ele>
        <time>2022-12-29T13:01:36Z</time>
      </trkpt>
      <trkpt lat="44.99837" lon="6.13383">
        <ele>1885.2</ele>
        <time>2022-12-29T13:01:38Z</time>
      </trkpt>
      <trkpt lat="44.99837" lon="6.13383">
        <ele>1885.2</ele>
        <time>2022-12-29T13:01:39Z</time>
      </trkpt>
      <trkpt lat="44.99837" lon="6.13384">
        <ele>1885.2</ele>
        <time>2022-12-29T13:01:40Z</time>
      </trkpt>
      <trkpt lat="44.99837" lon="6.13384">
        <ele>1885.2</ele>
        <time>2022-12-29T13:01:41Z</time>
      </trkpt>
      <trkpt lat="44.99837" lon="6.13384">
        <ele>1885.2</ele>
        <time>2022-12-29T13:01:42Z</time>
      </trkpt>
      <trkpt lat="44.99837" lon="6.13384">
        <ele>1885.2</ele>
        <time>2022-12-29T13:01:43Z</time>
      </trkpt>
      <trkpt lat="44.99837" lon="6.13385">
        <ele>1885.2</ele>
        <time>2022-12-29T13:01:44Z</time>
      </trkpt>
      <trkpt lat="44.99837" lon="6.13385">
        <ele>1885.2</ele>
        <time>2022-12-29T13:01:45Z</time>
      </trkpt>
      <trkpt lat="44.99837" lon="6.13385">
        <ele>1885</ele>
        <time>2022-12-29T13:01:46Z</time>
      </trkpt>
      <trkpt lat="44.99838" lon="6.13385">
        <ele>1885</ele>
        <time>2022-12-29T13:01:47Z</time>
      </trkpt>
      <trkpt lat="44.99838" lon="6.13386">
        <ele>1885</ele>
        <time>2022-12-29T13:01:48Z</time>
      </trkpt>
      <trkpt lat="44.99838" lon="6.13386">
        <ele>1885</ele>
        <time>2022-12-29T13:01:49Z</time>
      </trkpt>
      <trkpt lat="44.99838" lon="6.13386">
        <ele>1885</ele>
        <time>2022-12-29T13:01:50Z</time>
      </trkpt>
      <trkpt lat="44.99838" lon="6.13386">
        <ele>1885</ele>
        <time>2022-12-29T13:01:51Z</time>
      </trkpt>
      <trkpt lat="44.99838" lon="6.13386">
        <ele>1885</ele>
        <time>2022-12-29T13:01:52Z</time>
      </trkpt>
      <trkpt lat="44.99838" lon="6.13387">
        <ele>1885</ele>
        <time>2022-12-29T13:01:53Z</time>
      </trkpt>
      <trkpt lat="44.99838" lon="6.13387">
        <ele>1885</ele>
        <time>2022-12-29T13:01:54Z</time>
      </trkpt>
      <trkpt lat="44.99838" lon="6.13387">
        <ele>1885</ele>
        <time>2022-12-29T13:01:55Z</time>
      </trkpt>
      <trkpt lat="44.99839" lon="6.13387">
        <ele>1885.6</ele>
        <time>2022-12-29T13:01:56Z</time>
      </trkpt>
      <trkpt lat="44.99839" lon="6.13388">
        <ele>1885.6</ele>
        <time>2022-12-29T13:01:57Z</time>
      </trkpt>
      <trkpt lat="44.99839" lon="6.13388">
        <ele>1885.6</ele>
        <time>2022-12-29T13:01:58Z</time>
      </trkpt>
      <trkpt lat="44.99839" lon="6.13388">
        <ele>1885.6</ele>
        <time>2022-12-29T13:01:59Z</time>
      </trkpt>
      <trkpt lat="44.99839" lon="6.13388">
        <ele>1885.6</ele>
        <time>2022-12-29T13:02:00Z</time>
      </trkpt>
      <trkpt lat="44.99839" lon="6.13389">
        <ele>1885.6</ele>
        <time>2022-12-29T13:02:01Z</time>
      </trkpt>
      <trkpt lat="44.99839" lon="6.13389">
        <ele>1885.6</ele>
        <time>2022-12-29T13:02:02Z</time>
      </trkpt>
      <trkpt lat="44.99839" lon="6.13389">
        <ele>1885.6</ele>
        <time>2022-12-29T13:02:03Z</time>
      </trkpt>
      <trkpt lat="44.9984" lon="6.13389">
        <ele>1885.6</ele>
        <time>2022-12-29T13:02:04Z</time>
      </trkpt>
      <trkpt lat="44.9984" lon="6.1339">
        <ele>1885.6</ele>
        <time>2022-12-29T13:02:05Z</time>
      </trkpt>
      <trkpt lat="44.9984" lon="6.1339">
        <ele>1887.4</ele>
        <time>2022-12-29T13:02:06Z</time>
      </trkpt>
      <trkpt lat="44.99841" lon="6.13391">
        <ele>1887.4</ele>
        <time>2022-12-29T13:02:07Z</time>
      </trkpt>
      <trkpt lat="44.99842" lon="6.13392">
        <ele>1887.4</ele>
        <time>2022-12-29T13:02:08Z</time>
      </trkpt>
      <trkpt lat="44.99842" lon="6.13393">
        <ele>1887.4</ele>
        <time>2022-12-29T13:02:09Z</time>
      </trkpt>
      <trkpt lat="44.99843" lon="6.13393">
        <ele>1887.4</ele>
        <time>2022-12-29T13:02:10Z</time>
      </trkpt>
      <trkpt lat="44.99844" lon="6.13394">
        <ele>1887.4</ele>
        <time>2022-12-29T13:02:11Z</time>
      </trkpt>
      <trkpt lat="44.99844" lon="6.13394">
        <ele>1887.4</ele>
        <time>2022-12-29T13:02:12Z</time>
      </trkpt>
      <trkpt lat="44.99845" lon="6.13395">
        <ele>1887.4</ele>
        <time>2022-12-29T13:02:13Z</time>
      </trkpt>
      <trkpt lat="44.99845" lon="6.13396">
        <ele>1887.4</ele>
        <time>2022-12-29T13:02:14Z</time>
      </trkpt>
      <trkpt lat="44.99846" lon="6.13396">
        <ele>1887.4</ele>
        <time>2022-12-29T13:02:15Z</time>
      </trkpt>
      <trkpt lat="44.99847" lon="6.13397">
        <ele>1889</ele>
        <time>2022-12-29T13:02:16Z</time>
      </trkpt>
      <trkpt lat="44.99849" lon="6.13399">
        <ele>1889</ele>
        <time>2022-12-29T13:02:17Z</time>
      </trkpt>
      <trkpt lat="44.99849" lon="6.13399">
        <ele>1889</ele>
        <time>2022-12-29T13:02:18Z</time>
      </trkpt>
      <trkpt lat="44.99849" lon="6.13399">
        <ele>1889</ele>
        <time>2022-12-29T13:02:19Z</time>
      </trkpt>
      <trkpt lat="44.9985" lon="6.134">
        <ele>1889</ele>
        <time>2022-12-29T13:02:20Z</time>
      </trkpt>
      <trkpt lat="44.9985" lon="6.134">
        <ele>1889</ele>
        <time>2022-12-29T13:02:21Z</time>
      </trkpt>
      <trkpt lat="44.9985" lon="6.13401">
        <ele>1889</ele>
        <time>2022-12-29T13:02:22Z</time>
      </trkpt>
      <trkpt lat="44.99851" lon="6.13401">
        <ele>1889</ele>
        <time>2022-12-29T13:02:23Z</time>
      </trkpt>
      <trkpt lat="44.99851" lon="6.13401">
        <ele>1889</ele>
        <time>2022-12-29T13:02:24Z</time>
      </trkpt>
      <trkpt lat="44.99852" lon="6.13402">
        <ele>1889</ele>
        <time>2022-12-29T13:02:25Z</time>
      </trkpt>
      <trkpt lat="44.99852" lon="6.13402">
        <ele>1890.6</ele>
        <time>2022-12-29T13:02:26Z</time>
      </trkpt>
      <trkpt lat="44.99855" lon="6.13403">
        <ele>1890.6</ele>
        <time>2022-12-29T13:02:27Z</time>
      </trkpt>
      <trkpt lat="44.99855" lon="6.13403">
        <ele>1890.6</ele>
        <time>2022-12-29T13:02:28Z</time>
      </trkpt>
      <trkpt lat="44.99856" lon="6.13403">
        <ele>1890.6</ele>
        <time>2022-12-29T13:02:29Z</time>
      </trkpt>
      <trkpt lat="44.99856" lon="6.13403">
        <ele>1890.6</ele>
        <time>2022-12-29T13:02:30Z</time>
      </trkpt>
      <trkpt lat="44.99856" lon="6.13403">
        <ele>1890.6</ele>
        <time>2022-12-29T13:02:31Z</time>
      </trkpt>
      <trkpt lat="44.99857" lon="6.13403">
        <ele>1890.6</ele>
        <time>2022-12-29T13:02:32Z</time>
      </trkpt>
      <trkpt lat="44.99857" lon="6.13403">
        <ele>1890.6</ele>
        <time>2022-12-29T13:02:33Z</time>
      </trkpt>
      <trkpt lat="44.99858" lon="6.13404">
        <ele>1890.6</ele>
        <time>2022-12-29T13:02:34Z</time>
      </trkpt>
      <trkpt lat="44.99858" lon="6.13404">
        <ele>1890.6</ele>
        <time>2022-12-29T13:02:35Z</time>
      </trkpt>
      <trkpt lat="44.99858" lon="6.13404">
        <ele>1891.8</ele>
        <time>2022-12-29T13:02:36Z</time>
      </trkpt>
      <trkpt lat="44.99861" lon="6.13406">
        <ele>1891.8</ele>
        <time>2022-12-29T13:02:37Z</time>
      </trkpt>
      <trkpt lat="44.99861" lon="6.13406">
        <ele>1891.8</ele>
        <time>2022-12-29T13:02:38Z</time>
      </trkpt>
      <trkpt lat="44.99862" lon="6.13406">
        <ele>1891.8</ele>
        <time>2022-12-29T13:02:39Z</time>
      </trkpt>
      <trkpt lat="44.99862" lon="6.13407">
        <ele>1891.8</ele>
        <time>2022-12-29T13:02:40Z</time>
      </trkpt>
      <trkpt lat="44.99863" lon="6.13407">
        <ele>1891.8</ele>
        <time>2022-12-29T13:02:41Z</time>
      </trkpt>
      <trkpt lat="44.99863" lon="6.13407">
        <ele>1891.8</ele>
        <time>2022-12-29T13:02:42Z</time>
      </trkpt>
      <trkpt lat="44.99863" lon="6.13408">
        <ele>1891.8</ele>
        <time>2022-12-29T13:02:43Z</time>
      </trkpt>
      <trkpt lat="44.99864" lon="6.13408">
        <ele>1891.8</ele>
        <time>2022-12-29T13:02:44Z</time>
      </trkpt>
      <trkpt lat="44.99864" lon="6.13408">
        <ele>1891.8</ele>
        <time>2022-12-29T13:02:45Z</time>
      </trkpt>
      <trkpt lat="44.99865" lon="6.13408">
        <ele>1894.2</ele>
        <time>2022-12-29T13:02:46Z</time>
      </trkpt>
      <trkpt lat="44.99865" lon="6.13409">
        <ele>1894.2</ele>
        <time>2022-12-29T13:02:47Z</time>
      </trkpt>
      <trkpt lat="44.99865" lon="6.13409">
        <ele>1894.2</ele>
        <time>2022-12-29T13:02:48Z</time>
      </trkpt>
      <trkpt lat="44.99866" lon="6.13409">
        <ele>1894.2</ele>
        <time>2022-12-29T13:02:49Z</time>
      </trkpt>
      <trkpt lat="44.99866" lon="6.1341">
        <ele>1894.2</ele>
        <time>2022-12-29T13:02:50Z</time>
      </trkpt>
      <trkpt lat="44.99867" lon="6.1341">
        <ele>1894.2</ele>
        <time>2022-12-29T13:02:51Z</time>
      </trkpt>
      <trkpt lat="44.99867" lon="6.1341">
        <ele>1894.2</ele>
        <time>2022-12-29T13:02:52Z</time>
      </trkpt>
      <trkpt lat="44.99867" lon="6.1341">
        <ele>1894.2</ele>
        <time>2022-12-29T13:02:53Z</time>
      </trkpt>
      <trkpt lat="44.99868" lon="6.13411">
        <ele>1894.2</ele>
        <time>2022-12-29T13:02:54Z</time>
      </trkpt>
      <trkpt lat="44.99868" lon="6.13411">
        <ele>1894.2</ele>
        <time>2022-12-29T13:02:55Z</time>
      </trkpt>
      <trkpt lat="44.99869" lon="6.13411">
        <ele>1894.2</ele>
        <time>2022-12-29T13:02:56Z</time>
      </trkpt>
      <trkpt lat="44.99869" lon="6.13412">
        <ele>1894.2</ele>
        <time>2022-12-29T13:02:57Z</time>
      </trkpt>
      <trkpt lat="44.99869" lon="6.13412">
        <ele>1894.2</ele>
        <time>2022-12-29T13:02:58Z</time>
      </trkpt>
      <trkpt lat="44.9987" lon="6.13412">
        <ele>1894.2</ele>
        <time>2022-12-29T13:02:59Z</time>
      </trkpt>
      <trkpt lat="44.9987" lon="6.13413">
        <ele>1894.2</ele>
        <time>2022-12-29T13:03:00Z</time>
      </trkpt>
      <trkpt lat="44.9987" lon="6.13413">
        <ele>1894.2</ele>
        <time>2022-12-29T13:03:01Z</time>
      </trkpt>
      <trkpt lat="44.99871" lon="6.13413">
        <ele>1894.2</ele>
        <time>2022-12-29T13:03:02Z</time>
      </trkpt>
      <trkpt lat="44.99871" lon="6.13413">
        <ele>1894.2</ele>
        <time>2022-12-29T13:03:03Z</time>
      </trkpt>
      <trkpt lat="44.99872" lon="6.13414">
        <ele>1894.2</ele>
        <time>2022-12-29T13:03:04Z</time>
      </trkpt>
      <trkpt lat="44.99872" lon="6.13414">
        <ele>1894.2</ele>
        <time>2022-12-29T13:03:05Z</time>
      </trkpt>
      <trkpt lat="44.99872" lon="6.13414">
        <ele>1894.8</ele>
        <time>2022-12-29T13:03:06Z</time>
      </trkpt>
      <trkpt lat="44.99873" lon="6.13415">
        <ele>1894.8</ele>
        <time>2022-12-29T13:03:07Z</time>
      </trkpt>
      <trkpt lat="44.99874" lon="6.13415">
        <ele>1894.8</ele>
        <time>2022-12-29T13:03:08Z</time>
      </trkpt>
      <trkpt lat="44.99874" lon="6.13416">
        <ele>1894.8</ele>
        <time>2022-12-29T13:03:09Z</time>
      </trkpt>
      <trkpt lat="44.99875" lon="6.13416">
        <ele>1894.8</ele>
        <time>2022-12-29T13:03:10Z</time>
      </trkpt>
      <trkpt lat="44.99876" lon="6.13417">
        <ele>1894.8</ele>
        <time>2022-12-29T13:03:11Z</time>
      </trkpt>
      <trkpt lat="44.99876" lon="6.13417">
        <ele>1894.8</ele>
        <time>2022-12-29T13:03:12Z</time>
      </trkpt>
      <trkpt lat="44.99877" lon="6.13418">
        <ele>1894.8</ele>
        <time>2022-12-29T13:03:13Z</time>
      </trkpt>
      <trkpt lat="44.99877" lon="6.13418">
        <ele>1894.8</ele>
        <time>2022-12-29T13:03:14Z</time>
      </trkpt>
      <trkpt lat="44.99878" lon="6.13419">
        <ele>1894.8</ele>
        <time>2022-12-29T13:03:15Z</time>
      </trkpt>
      <trkpt lat="44.99879" lon="6.13419">
        <ele>1896.2</ele>
        <time>2022-12-29T13:03:16Z</time>
      </trkpt>
      <trkpt lat="44.99879" lon="6.13419">
        <ele>1896.2</ele>
        <time>2022-12-29T13:03:17Z</time>
      </trkpt>
      <trkpt lat="44.99879" lon="6.13419">
        <ele>1896.2</ele>
        <time>2022-12-29T13:03:18Z</time>
      </trkpt>
      <trkpt lat="44.9988" lon="6.13421">
        <ele>1896.2</ele>
        <time>2022-12-29T13:03:19Z</time>
      </trkpt>
      <trkpt lat="44.9988" lon="6.13421">
        <ele>1896.2</ele>
        <time>2022-12-29T13:03:20Z</time>
      </trkpt>
      <trkpt lat="44.9988" lon="6.13421">
        <ele>1896.2</ele>
        <time>2022-12-29T13:03:21Z</time>
      </trkpt>
      <trkpt lat="44.9988" lon="6.13421">
        <ele>1896.2</ele>
        <time>2022-12-29T13:03:22Z</time>
      </trkpt>
      <trkpt lat="44.9988" lon="6.13421">
        <ele>1896.2</ele>
        <time>2022-12-29T13:03:23Z</time>
      </trkpt>
      <trkpt lat="44.9988" lon="6.13421">
        <ele>1896.2</ele>
        <time>2022-12-29T13:03:24Z</time>
      </trkpt>
      <trkpt lat="44.9988" lon="6.13421">
        <ele>1896.2</ele>
        <time>2022-12-29T13:03:25Z</time>
      </trkpt>
      <trkpt lat="44.9988" lon="6.13421">
        <ele>1898.4</ele>
        <time>2022-12-29T13:03:26Z</time>
      </trkpt>
      <trkpt lat="44.9988" lon="6.13422">
        <ele>1898.4</ele>
        <time>2022-12-29T13:03:27Z</time>
      </trkpt>
      <trkpt lat="44.99879" lon="6.13422">
        <ele>1898.4</ele>
        <time>2022-12-29T13:03:28Z</time>
      </trkpt>
      <trkpt lat="44.99879" lon="6.13422">
        <ele>1898.4</ele>
        <time>2022-12-29T13:03:31Z</time>
      </trkpt>
      <trkpt lat="44.99879" lon="6.13423">
        <ele>1898.4</ele>
        <time>2022-12-29T13:03:32Z</time>
      </trkpt>
      <trkpt lat="44.99878" lon="6.13423">
        <ele>1898.4</ele>
        <time>2022-12-29T13:03:33Z</time>
      </trkpt>
      <trkpt lat="44.99878" lon="6.13423">
        <ele>1898.4</ele>
        <time>2022-12-29T13:03:34Z</time>
      </trkpt>
      <trkpt lat="44.99877" lon="6.13424">
        <ele>1898.4</ele>
        <time>2022-12-29T13:03:35Z</time>
      </trkpt>
      <trkpt lat="44.99877" lon="6.13424">
        <ele>1899.2</ele>
        <time>2022-12-29T13:03:36Z</time>
      </trkpt>
      <trkpt lat="44.99876" lon="6.13424">
        <ele>1899.2</ele>
        <time>2022-12-29T13:03:37Z</time>
      </trkpt>
      <trkpt lat="44.99876" lon="6.13424">
        <ele>1899.2</ele>
        <time>2022-12-29T13:03:38Z</time>
      </trkpt>
      <trkpt lat="44.99875" lon="6.13425">
        <ele>1899.2</ele>
        <time>2022-12-29T13:03:39Z</time>
      </trkpt>
      <trkpt lat="44.99874" lon="6.13425">
        <ele>1899.2</ele>
        <time>2022-12-29T13:03:40Z</time>
      </trkpt>
      <trkpt lat="44.99874" lon="6.13425">
        <ele>1899.2</ele>
        <time>2022-12-29T13:03:41Z</time>
      </trkpt>
      <trkpt lat="44.99873" lon="6.13425">
        <ele>1899.2</ele>
        <time>2022-12-29T13:03:42Z</time>
      </trkpt>
      <trkpt lat="44.99873" lon="6.13426">
        <ele>1899.2</ele>
        <time>2022-12-29T13:03:43Z</time>
      </trkpt>
      <trkpt lat="44.99872" lon="6.13426">
        <ele>1899.2</ele>
        <time>2022-12-29T13:03:44Z</time>
      </trkpt>
      <trkpt lat="44.99871" lon="6.13426">
        <ele>1899.2</ele>
        <time>2022-12-29T13:03:45Z</time>
      </trkpt>
      <trkpt lat="44.99871" lon="6.13426">
        <ele>1900.6</ele>
        <time>2022-12-29T13:03:46Z</time>
      </trkpt>
      <trkpt lat="44.9987" lon="6.13427">
        <ele>1900.6</ele>
        <time>2022-12-29T13:03:47Z</time>
      </trkpt>
      <trkpt lat="44.9987" lon="6.13427">
        <ele>1900.6</ele>
        <time>2022-12-29T13:03:48Z</time>
      </trkpt>
      <trkpt lat="44.99869" lon="6.13427">
        <ele>1900.6</ele>
        <time>2022-12-29T13:03:49Z</time>
      </trkpt>
      <trkpt lat="44.99868" lon="6.13428">
        <ele>1900.6</ele>
        <time>2022-12-29T13:03:50Z</time>
      </trkpt>
      <trkpt lat="44.99868" lon="6.13428">
        <ele>1900.6</ele>
        <time>2022-12-29T13:03:51Z</time>
      </trkpt>
      <trkpt lat="44.99867" lon="6.13428">
        <ele>1900.6</ele>
        <time>2022-12-29T13:03:52Z</time>
      </trkpt>
      <trkpt lat="44.99867" lon="6.13429">
        <ele>1900.6</ele>
        <time>2022-12-29T13:03:53Z</time>
      </trkpt>
      <trkpt lat="44.99866" lon="6.13429">
        <ele>1900.6</ele>
        <time>2022-12-29T13:03:54Z</time>
      </trkpt>
      <trkpt lat="44.99865" lon="6.13429">
        <ele>1900.6</ele>
        <time>2022-12-29T13:03:55Z</time>
      </trkpt>
      <trkpt lat="44.99865" lon="6.13429">
        <ele>1902.4</ele>
        <time>2022-12-29T13:03:56Z</time>
      </trkpt>
      <trkpt lat="44.99864" lon="6.1343">
        <ele>1902.4</ele>
        <time>2022-12-29T13:03:57Z</time>
      </trkpt>
      <trkpt lat="44.99863" lon="6.1343">
        <ele>1902.4</ele>
        <time>2022-12-29T13:03:58Z</time>
      </trkpt>
      <trkpt lat="44.99863" lon="6.1343">
        <ele>1902.4</ele>
        <time>2022-12-29T13:03:59Z</time>
      </trkpt>
      <trkpt lat="44.99862" lon="6.1343">
        <ele>1902.4</ele>
        <time>2022-12-29T13:04:00Z</time>
      </trkpt>
      <trkpt lat="44.99861" lon="6.13431">
        <ele>1902.4</ele>
        <time>2022-12-29T13:04:01Z</time>
      </trkpt>
      <trkpt lat="44.99861" lon="6.13431">
        <ele>1902.4</ele>
        <time>2022-12-29T13:04:02Z</time>
      </trkpt>
      <trkpt lat="44.9986" lon="6.13431">
        <ele>1902.4</ele>
        <time>2022-12-29T13:04:03Z</time>
      </trkpt>
      <trkpt lat="44.9986" lon="6.13431">
        <ele>1902.4</ele>
        <time>2022-12-29T13:04:04Z</time>
      </trkpt>
      <trkpt lat="44.99859" lon="6.13432">
        <ele>1902.4</ele>
        <time>2022-12-29T13:04:05Z</time>
      </trkpt>
      <trkpt lat="44.99858" lon="6.13432">
        <ele>1904.2</ele>
        <time>2022-12-29T13:04:06Z</time>
      </trkpt>
      <trkpt lat="44.99858" lon="6.13432">
        <ele>1904.2</ele>
        <time>2022-12-29T13:04:07Z</time>
      </trkpt>
      <trkpt lat="44.99858" lon="6.13432">
        <ele>1904.2</ele>
        <time>2022-12-29T13:04:08Z</time>
      </trkpt>
      <trkpt lat="44.99858" lon="6.13432">
        <ele>1904.2</ele>
        <time>2022-12-29T13:04:09Z</time>
      </trkpt>
      <trkpt lat="44.99856" lon="6.13434">
        <ele>1904.2</ele>
        <time>2022-12-29T13:04:10Z</time>
      </trkpt>
      <trkpt lat="44.99856" lon="6.13434">
        <ele>1904.2</ele>
        <time>2022-12-29T13:04:11Z</time>
      </trkpt>
      <trkpt lat="44.99856" lon="6.13434">
        <ele>1904.2</ele>
        <time>2022-12-29T13:04:12Z</time>
      </trkpt>
      <trkpt lat="44.99856" lon="6.13434">
        <ele>1904.2</ele>
        <time>2022-12-29T13:04:13Z</time>
      </trkpt>
      <trkpt lat="44.99854" lon="6.13435">
        <ele>1904.2</ele>
        <time>2022-12-29T13:04:14Z</time>
      </trkpt>
      <trkpt lat="44.99854" lon="6.13435">
        <ele>1904.2</ele>
        <time>2022-12-29T13:04:15Z</time>
      </trkpt>
      <trkpt lat="44.99854" lon="6.13435">
        <ele>1905.6</ele>
        <time>2022-12-29T13:04:16Z</time>
      </trkpt>
      <trkpt lat="44.99854" lon="6.13435">
        <ele>1905.6</ele>
        <time>2022-12-29T13:04:17Z</time>
      </trkpt>
      <trkpt lat="44.99853" lon="6.13435">
        <ele>1905.6</ele>
        <time>2022-12-29T13:04:18Z</time>
      </trkpt>
      <trkpt lat="44.99853" lon="6.13436">
        <ele>1905.6</ele>
        <time>2022-12-29T13:04:19Z</time>
      </trkpt>
      <trkpt lat="44.99852" lon="6.13436">
        <ele>1905.6</ele>
        <time>2022-12-29T13:04:20Z</time>
      </trkpt>
      <trkpt lat="44.99851" lon="6.13436">
        <ele>1905.6</ele>
        <time>2022-12-29T13:04:21Z</time>
      </trkpt>
      <trkpt lat="44.99851" lon="6.13437">
        <ele>1905.6</ele>
        <time>2022-12-29T13:04:22Z</time>
      </trkpt>
      <trkpt lat="44.9985" lon="6.13437">
        <ele>1905.6</ele>
        <time>2022-12-29T13:04:23Z</time>
      </trkpt>
      <trkpt lat="44.9985" lon="6.13438">
        <ele>1905.6</ele>
        <time>2022-12-29T13:04:24Z</time>
      </trkpt>
      <trkpt lat="44.99849" lon="6.13438">
        <ele>1905.6</ele>
        <time>2022-12-29T13:04:25Z</time>
      </trkpt>
      <trkpt lat="44.99848" lon="6.13438">
        <ele>1907.8</ele>
        <time>2022-12-29T13:04:26Z</time>
      </trkpt>
      <trkpt lat="44.99848" lon="6.13439">
        <ele>1907.8</ele>
        <time>2022-12-29T13:04:27Z</time>
      </trkpt>
      <trkpt lat="44.99847" lon="6.13439">
        <ele>1907.8</ele>
        <time>2022-12-29T13:04:28Z</time>
      </trkpt>
      <trkpt lat="44.99847" lon="6.13439">
        <ele>1907.8</ele>
        <time>2022-12-29T13:04:29Z</time>
      </trkpt>
      <trkpt lat="44.99847" lon="6.13439">
        <ele>1907.8</ele>
        <time>2022-12-29T13:04:30Z</time>
      </trkpt>
      <trkpt lat="44.99846" lon="6.13439">
        <ele>1907.8</ele>
        <time>2022-12-29T13:04:31Z</time>
      </trkpt>
      <trkpt lat="44.99846" lon="6.13439">
        <ele>1907.8</ele>
        <time>2022-12-29T13:04:32Z</time>
      </trkpt>
      <trkpt lat="44.99845" lon="6.1344">
        <ele>1907.8</ele>
        <time>2022-12-29T13:04:33Z</time>
      </trkpt>
      <trkpt lat="44.99845" lon="6.1344">
        <ele>1907.8</ele>
        <time>2022-12-29T13:04:34Z</time>
      </trkpt>
      <trkpt lat="44.99844" lon="6.1344">
        <ele>1907.8</ele>
        <time>2022-12-29T13:04:35Z</time>
      </trkpt>
      <trkpt lat="44.99844" lon="6.1344">
        <ele>1908.6</ele>
        <time>2022-12-29T13:04:36Z</time>
      </trkpt>
      <trkpt lat="44.99842" lon="6.13442">
        <ele>1908.6</ele>
        <time>2022-12-29T13:04:37Z</time>
      </trkpt>
      <trkpt lat="44.99841" lon="6.13442">
        <ele>1908.6</ele>
        <time>2022-12-29T13:04:38Z</time>
      </trkpt>
      <trkpt lat="44.99841" lon="6.13442">
        <ele>1908.6</ele>
        <time>2022-12-29T13:04:39Z</time>
      </trkpt>
      <trkpt lat="44.9984" lon="6.13442">
        <ele>1908.6</ele>
        <time>2022-12-29T13:04:40Z</time>
      </trkpt>
      <trkpt lat="44.9984" lon="6.13442">
        <ele>1908.6</ele>
        <time>2022-12-29T13:04:41Z</time>
      </trkpt>
      <trkpt lat="44.99839" lon="6.13442">
        <ele>1908.6</ele>
        <time>2022-12-29T13:04:42Z</time>
      </trkpt>
      <trkpt lat="44.99839" lon="6.13442">
        <ele>1908.6</ele>
        <time>2022-12-29T13:04:43Z</time>
      </trkpt>
      <trkpt lat="44.99838" lon="6.13442">
        <ele>1908.6</ele>
        <time>2022-12-29T13:04:44Z</time>
      </trkpt>
      <trkpt lat="44.99838" lon="6.13443">
        <ele>1908.6</ele>
        <time>2022-12-29T13:04:45Z</time>
      </trkpt>
      <trkpt lat="44.99837" lon="6.13443">
        <ele>1910.4</ele>
        <time>2022-12-29T13:04:46Z</time>
      </trkpt>
      <trkpt lat="44.99837" lon="6.13443">
        <ele>1910.4</ele>
        <time>2022-12-29T13:04:47Z</time>
      </trkpt>
      <trkpt lat="44.99837" lon="6.13443">
        <ele>1910.4</ele>
        <time>2022-12-29T13:04:48Z</time>
      </trkpt>
      <trkpt lat="44.99837" lon="6.13443">
        <ele>1910.4</ele>
        <time>2022-12-29T13:04:49Z</time>
      </trkpt>
      <trkpt lat="44.99837" lon="6.13443">
        <ele>1910.4</ele>
        <time>2022-12-29T13:04:50Z</time>
      </trkpt>
      <trkpt lat="44.99837" lon="6.13443">
        <ele>1910.4</ele>
        <time>2022-12-29T13:04:51Z</time>
      </trkpt>
      <trkpt lat="44.99836" lon="6.13444">
        <ele>1910.4</ele>
        <time>2022-12-29T13:04:52Z</time>
      </trkpt>
      <trkpt lat="44.99836" lon="6.13444">
        <ele>1910.4</ele>
        <time>2022-12-29T13:04:53Z</time>
      </trkpt>
      <trkpt lat="44.99836" lon="6.13444">
        <ele>1911</ele>
        <time>2022-12-29T13:04:56Z</time>
      </trkpt>
      <trkpt lat="44.99836" lon="6.13444">
        <ele>1911</ele>
        <time>2022-12-29T13:04:57Z</time>
      </trkpt>
      <trkpt lat="44.99836" lon="6.13444">
        <ele>1911</ele>
        <time>2022-12-29T13:04:58Z</time>
      </trkpt>
      <trkpt lat="44.99836" lon="6.13444">
        <ele>1911</ele>
        <time>2022-12-29T13:04:59Z</time>
      </trkpt>
      <trkpt lat="44.99835" lon="6.13444">
        <ele>1911</ele>
        <time>2022-12-29T13:05:00Z</time>
      </trkpt>
      <trkpt lat="44.99835" lon="6.13445">
        <ele>1911</ele>
        <time>2022-12-29T13:05:01Z</time>
      </trkpt>
      <trkpt lat="44.99835" lon="6.13445">
        <ele>1911</ele>
        <time>2022-12-29T13:05:02Z</time>
      </trkpt>
      <trkpt lat="44.99835" lon="6.13445">
        <ele>1911</ele>
        <time>2022-12-29T13:05:03Z</time>
      </trkpt>
      <trkpt lat="44.99835" lon="6.13445">
        <ele>1911</ele>
        <time>2022-12-29T13:05:04Z</time>
      </trkpt>
      <trkpt lat="44.99835" lon="6.13445">
        <ele>1911</ele>
        <time>2022-12-29T13:05:05Z</time>
      </trkpt>
      <trkpt lat="44.99834" lon="6.13445">
        <ele>1911</ele>
        <time>2022-12-29T13:05:06Z</time>
      </trkpt>
      <trkpt lat="44.99834" lon="6.13446">
        <ele>1911</ele>
        <time>2022-12-29T13:05:07Z</time>
      </trkpt>
      <trkpt lat="44.99834" lon="6.13446">
        <ele>1911</ele>
        <time>2022-12-29T13:05:08Z</time>
      </trkpt>
      <trkpt lat="44.99834" lon="6.13446">
        <ele>1911</ele>
        <time>2022-12-29T13:05:09Z</time>
      </trkpt>
      <trkpt lat="44.99834" lon="6.13446">
        <ele>1911</ele>
        <time>2022-12-29T13:05:10Z</time>
      </trkpt>
      <trkpt lat="44.99834" lon="6.13446">
        <ele>1911</ele>
        <time>2022-12-29T13:05:11Z</time>
      </trkpt>
      <trkpt lat="44.99833" lon="6.13446">
        <ele>1911</ele>
        <time>2022-12-29T13:05:12Z</time>
      </trkpt>
      <trkpt lat="44.99833" lon="6.13446">
        <ele>1911</ele>
        <time>2022-12-29T13:05:13Z</time>
      </trkpt>
      <trkpt lat="44.99833" lon="6.13447">
        <ele>1911</ele>
        <time>2022-12-29T13:05:14Z</time>
      </trkpt>
      <trkpt lat="44.99833" lon="6.13447">
        <ele>1911</ele>
        <time>2022-12-29T13:05:15Z</time>
      </trkpt>
      <trkpt lat="44.99833" lon="6.13447">
        <ele>1911</ele>
        <time>2022-12-29T13:05:16Z</time>
      </trkpt>
      <trkpt lat="44.99832" lon="6.13447">
        <ele>1911</ele>
        <time>2022-12-29T13:05:17Z</time>
      </trkpt>
      <trkpt lat="44.99832" lon="6.13447">
        <ele>1911</ele>
        <time>2022-12-29T13:05:18Z</time>
      </trkpt>
      <trkpt lat="44.99832" lon="6.13447">
        <ele>1911</ele>
        <time>2022-12-29T13:05:19Z</time>
      </trkpt>
      <trkpt lat="44.99832" lon="6.13447">
        <ele>1911</ele>
        <time>2022-12-29T13:05:20Z</time>
      </trkpt>
      <trkpt lat="44.99832" lon="6.13448">
        <ele>1911</ele>
        <time>2022-12-29T13:05:21Z</time>
      </trkpt>
      <trkpt lat="44.99832" lon="6.13448">
        <ele>1911</ele>
        <time>2022-12-29T13:05:22Z</time>
      </trkpt>
      <trkpt lat="44.99831" lon="6.13448">
        <ele>1911</ele>
        <time>2022-12-29T13:05:23Z</time>
      </trkpt>
      <trkpt lat="44.99831" lon="6.13448">
        <ele>1911</ele>
        <time>2022-12-29T13:05:24Z</time>
      </trkpt>
      <trkpt lat="44.99831" lon="6.13448">
        <ele>1911</ele>
        <time>2022-12-29T13:05:25Z</time>
      </trkpt>
      <trkpt lat="44.99831" lon="6.13448">
        <ele>1912</ele>
        <time>2022-12-29T13:05:26Z</time>
      </trkpt>
      <trkpt lat="44.99831" lon="6.13449">
        <ele>1912</ele>
        <time>2022-12-29T13:05:27Z</time>
      </trkpt>
      <trkpt lat="44.99831" lon="6.13449">
        <ele>1912</ele>
        <time>2022-12-29T13:05:28Z</time>
      </trkpt>
      <trkpt lat="44.9983" lon="6.13449">
        <ele>1912</ele>
        <time>2022-12-29T13:05:29Z</time>
      </trkpt>
      <trkpt lat="44.9983" lon="6.13449">
        <ele>1912</ele>
        <time>2022-12-29T13:05:30Z</time>
      </trkpt>
      <trkpt lat="44.9983" lon="6.13449">
        <ele>1912</ele>
        <time>2022-12-29T13:05:31Z</time>
      </trkpt>
      <trkpt lat="44.9983" lon="6.13449">
        <ele>1912</ele>
        <time>2022-12-29T13:05:32Z</time>
      </trkpt>
      <trkpt lat="44.9983" lon="6.13449">
        <ele>1912</ele>
        <time>2022-12-29T13:05:33Z</time>
      </trkpt>
      <trkpt lat="44.9983" lon="6.1345">
        <ele>1912</ele>
        <time>2022-12-29T13:05:34Z</time>
      </trkpt>
      <trkpt lat="44.99829" lon="6.1345">
        <ele>1912</ele>
        <time>2022-12-29T13:05:35Z</time>
      </trkpt>
      <trkpt lat="44.99829" lon="6.1345">
        <ele>1913.8</ele>
        <time>2022-12-29T13:05:36Z</time>
      </trkpt>
      <trkpt lat="44.99827" lon="6.13452">
        <ele>1913.8</ele>
        <time>2022-12-29T13:05:37Z</time>
      </trkpt>
      <trkpt lat="44.99826" lon="6.13452">
        <ele>1913.8</ele>
        <time>2022-12-29T13:05:38Z</time>
      </trkpt>
      <trkpt lat="44.99825" lon="6.13452">
        <ele>1913.8</ele>
        <time>2022-12-29T13:05:39Z</time>
      </trkpt>
      <trkpt lat="44.99825" lon="6.13453">
        <ele>1913.8</ele>
        <time>2022-12-29T13:05:40Z</time>
      </trkpt>
      <trkpt lat="44.99824" lon="6.13453">
        <ele>1913.8</ele>
        <time>2022-12-29T13:05:41Z</time>
      </trkpt>
      <trkpt lat="44.99824" lon="6.13453">
        <ele>1913.8</ele>
        <time>2022-12-29T13:05:42Z</time>
      </trkpt>
      <trkpt lat="44.99823" lon="6.13454">
        <ele>1913.8</ele>
        <time>2022-12-29T13:05:43Z</time>
      </trkpt>
      <trkpt lat="44.99822" lon="6.13454">
        <ele>1913.8</ele>
        <time>2022-12-29T13:05:44Z</time>
      </trkpt>
      <trkpt lat="44.99822" lon="6.13454">
        <ele>1913.8</ele>
        <time>2022-12-29T13:05:45Z</time>
      </trkpt>
      <trkpt lat="44.99821" lon="6.13455">
        <ele>1915.8</ele>
        <time>2022-12-29T13:05:46Z</time>
      </trkpt>
      <trkpt lat="44.99821" lon="6.13455">
        <ele>1915.8</ele>
        <time>2022-12-29T13:05:47Z</time>
      </trkpt>
      <trkpt lat="44.9982" lon="6.13455">
        <ele>1915.8</ele>
        <time>2022-12-29T13:05:48Z</time>
      </trkpt>
      <trkpt lat="44.99819" lon="6.13456">
        <ele>1915.8</ele>
        <time>2022-12-29T13:05:49Z</time>
      </trkpt>
      <trkpt lat="44.99819" lon="6.13456">
        <ele>1915.8</ele>
        <time>2022-12-29T13:05:50Z</time>
      </trkpt>
      <trkpt lat="44.99818" lon="6.13456">
        <ele>1915.8</ele>
        <time>2022-12-29T13:05:51Z</time>
      </trkpt>
      <trkpt lat="44.99818" lon="6.13456">
        <ele>1915.8</ele>
        <time>2022-12-29T13:05:52Z</time>
      </trkpt>
      <trkpt lat="44.99817" lon="6.13457">
        <ele>1915.8</ele>
        <time>2022-12-29T13:05:53Z</time>
      </trkpt>
      <trkpt lat="44.99816" lon="6.13457">
        <ele>1915.8</ele>
        <time>2022-12-29T13:05:54Z</time>
      </trkpt>
      <trkpt lat="44.99816" lon="6.13457">
        <ele>1915.8</ele>
        <time>2022-12-29T13:05:55Z</time>
      </trkpt>
      <trkpt lat="44.99815" lon="6.13458">
        <ele>1918</ele>
        <time>2022-12-29T13:05:56Z</time>
      </trkpt>
      <trkpt lat="44.99815" lon="6.13458">
        <ele>1918</ele>
        <time>2022-12-29T13:05:57Z</time>
      </trkpt>
      <trkpt lat="44.99814" lon="6.13458">
        <ele>1918</ele>
        <time>2022-12-29T13:05:58Z</time>
      </trkpt>
      <trkpt lat="44.99814" lon="6.13459">
        <ele>1918</ele>
        <time>2022-12-29T13:05:59Z</time>
      </trkpt>
      <trkpt lat="44.99813" lon="6.13459">
        <ele>1918</ele>
        <time>2022-12-29T13:06:00Z</time>
      </trkpt>
      <trkpt lat="44.99813" lon="6.1346">
        <ele>1918</ele>
        <time>2022-12-29T13:06:01Z</time>
      </trkpt>
      <trkpt lat="44.99812" lon="6.1346">
        <ele>1918</ele>
        <time>2022-12-29T13:06:02Z</time>
      </trkpt>
      <trkpt lat="44.99812" lon="6.1346">
        <ele>1918</ele>
        <time>2022-12-29T13:06:03Z</time>
      </trkpt>
      <trkpt lat="44.99811" lon="6.13461">
        <ele>1918</ele>
        <time>2022-12-29T13:06:04Z</time>
      </trkpt>
      <trkpt lat="44.9981" lon="6.13461">
        <ele>1918</ele>
        <time>2022-12-29T13:06:05Z</time>
      </trkpt>
      <trkpt lat="44.9981" lon="6.13462">
        <ele>1920</ele>
        <time>2022-12-29T13:06:06Z</time>
      </trkpt>
      <trkpt lat="44.9981" lon="6.13462">
        <ele>1920</ele>
        <time>2022-12-29T13:06:07Z</time>
      </trkpt>
      <trkpt lat="44.99808" lon="6.13464">
        <ele>1920</ele>
        <time>2022-12-29T13:06:08Z</time>
      </trkpt>
      <trkpt lat="44.99808" lon="6.13464">
        <ele>1920</ele>
        <time>2022-12-29T13:06:09Z</time>
      </trkpt>
      <trkpt lat="44.99808" lon="6.13464">
        <ele>1920</ele>
        <time>2022-12-29T13:06:10Z</time>
      </trkpt>
      <trkpt lat="44.99808" lon="6.13464">
        <ele>1920</ele>
        <time>2022-12-29T13:06:11Z</time>
      </trkpt>
      <trkpt lat="44.99808" lon="6.13464">
        <ele>1920</ele>
        <time>2022-12-29T13:06:12Z</time>
      </trkpt>
      <trkpt lat="44.99807" lon="6.13466">
        <ele>1920</ele>
        <time>2022-12-29T13:06:13Z</time>
      </trkpt>
      <trkpt lat="44.99807" lon="6.13466">
        <ele>1920</ele>
        <time>2022-12-29T13:06:14Z</time>
      </trkpt>
      <trkpt lat="44.99807" lon="6.13466">
        <ele>1920</ele>
        <time>2022-12-29T13:06:15Z</time>
      </trkpt>
      <trkpt lat="44.99807" lon="6.13466">
        <ele>1920.4</ele>
        <time>2022-12-29T13:06:16Z</time>
      </trkpt>
      <trkpt lat="44.99806" lon="6.13466">
        <ele>1920.4</ele>
        <time>2022-12-29T13:06:17Z</time>
      </trkpt>
      <trkpt lat="44.99806" lon="6.13466">
        <ele>1920.4</ele>
        <time>2022-12-29T13:06:18Z</time>
      </trkpt>
      <trkpt lat="44.99805" lon="6.13467">
        <ele>1920.4</ele>
        <time>2022-12-29T13:06:19Z</time>
      </trkpt>
      <trkpt lat="44.99804" lon="6.13467">
        <ele>1920.4</ele>
        <time>2022-12-29T13:06:20Z</time>
      </trkpt>
      <trkpt lat="44.99804" lon="6.13468">
        <ele>1920.4</ele>
        <time>2022-12-29T13:06:21Z</time>
      </trkpt>
      <trkpt lat="44.99803" lon="6.13468">
        <ele>1920.4</ele>
        <time>2022-12-29T13:06:22Z</time>
      </trkpt>
      <trkpt lat="44.99803" lon="6.13468">
        <ele>1920.4</ele>
        <time>2022-12-29T13:06:24Z</time>
      </trkpt>
      <trkpt lat="44.99802" lon="6.13469">
        <ele>1920.4</ele>
        <time>2022-12-29T13:06:25Z</time>
      </trkpt>
      <trkpt lat="44.99801" lon="6.13469">
        <ele>1921.4</ele>
        <time>2022-12-29T13:06:26Z</time>
      </trkpt>
      <trkpt lat="44.99801" lon="6.1347">
        <ele>1921.4</ele>
        <time>2022-12-29T13:06:27Z</time>
      </trkpt>
      <trkpt lat="44.998" lon="6.1347">
        <ele>1921.4</ele>
        <time>2022-12-29T13:06:28Z</time>
      </trkpt>
      <trkpt lat="44.998" lon="6.13471">
        <ele>1921.4</ele>
        <time>2022-12-29T13:06:29Z</time>
      </trkpt>
      <trkpt lat="44.99799" lon="6.13471">
        <ele>1921.4</ele>
        <time>2022-12-29T13:06:30Z</time>
      </trkpt>
      <trkpt lat="44.99799" lon="6.13471">
        <ele>1921.4</ele>
        <time>2022-12-29T13:06:31Z</time>
      </trkpt>
      <trkpt lat="44.99798" lon="6.13472">
        <ele>1921.4</ele>
        <time>2022-12-29T13:06:32Z</time>
      </trkpt>
      <trkpt lat="44.99798" lon="6.13472">
        <ele>1921.4</ele>
        <time>2022-12-29T13:06:33Z</time>
      </trkpt>
      <trkpt lat="44.99797" lon="6.13473">
        <ele>1921.4</ele>
        <time>2022-12-29T13:06:34Z</time>
      </trkpt>
      <trkpt lat="44.99796" lon="6.13473">
        <ele>1921.4</ele>
        <time>2022-12-29T13:06:35Z</time>
      </trkpt>
      <trkpt lat="44.99796" lon="6.13474">
        <ele>1922.2</ele>
        <time>2022-12-29T13:06:36Z</time>
      </trkpt>
      <trkpt lat="44.99795" lon="6.13475">
        <ele>1922.2</ele>
        <time>2022-12-29T13:06:37Z</time>
      </trkpt>
      <trkpt lat="44.99795" lon="6.13475">
        <ele>1922.2</ele>
        <time>2022-12-29T13:06:38Z</time>
      </trkpt>
      <trkpt lat="44.99794" lon="6.13476">
        <ele>1922.2</ele>
        <time>2022-12-29T13:06:39Z</time>
      </trkpt>
      <trkpt lat="44.99794" lon="6.13477">
        <ele>1922.2</ele>
        <time>2022-12-29T13:06:42Z</time>
      </trkpt>
      <trkpt lat="44.99793" lon="6.13478">
        <ele>1922.2</ele>
        <time>2022-12-29T13:06:43Z</time>
      </trkpt>
      <trkpt lat="44.99793" lon="6.13479">
        <ele>1922.2</ele>
        <time>2022-12-29T13:06:44Z</time>
      </trkpt>
      <trkpt lat="44.99792" lon="6.13479">
        <ele>1922.2</ele>
        <time>2022-12-29T13:06:45Z</time>
      </trkpt>
      <trkpt lat="44.99791" lon="6.1348">
        <ele>1923</ele>
        <time>2022-12-29T13:06:46Z</time>
      </trkpt>
      <trkpt lat="44.99791" lon="6.1348">
        <ele>1923</ele>
        <time>2022-12-29T13:06:47Z</time>
      </trkpt>
      <trkpt lat="44.99791" lon="6.1348">
        <ele>1923</ele>
        <time>2022-12-29T13:06:48Z</time>
      </trkpt>
      <trkpt lat="44.9979" lon="6.13483">
        <ele>1923</ele>
        <time>2022-12-29T13:06:49Z</time>
      </trkpt>
      <trkpt lat="44.9979" lon="6.13483">
        <ele>1923</ele>
        <time>2022-12-29T13:06:50Z</time>
      </trkpt>
      <trkpt lat="44.9979" lon="6.13483">
        <ele>1923</ele>
        <time>2022-12-29T13:06:51Z</time>
      </trkpt>
      <trkpt lat="44.9979" lon="6.13483">
        <ele>1923</ele>
        <time>2022-12-29T13:06:52Z</time>
      </trkpt>
      <trkpt lat="44.99789" lon="6.13485">
        <ele>1923</ele>
        <time>2022-12-29T13:06:53Z</time>
      </trkpt>
      <trkpt lat="44.99789" lon="6.13485">
        <ele>1923</ele>
        <time>2022-12-29T13:06:54Z</time>
      </trkpt>
      <trkpt lat="44.99789" lon="6.13485">
        <ele>1924.8</ele>
        <time>2022-12-29T13:06:56Z</time>
      </trkpt>
      <trkpt lat="44.99787" lon="6.13487">
        <ele>1924.8</ele>
        <time>2022-12-29T13:06:58Z</time>
      </trkpt>
      <trkpt lat="44.99787" lon="6.13487">
        <ele>1924.8</ele>
        <time>2022-12-29T13:06:59Z</time>
      </trkpt>
      <trkpt lat="44.99786" lon="6.13488">
        <ele>1924.8</ele>
        <time>2022-12-29T13:07:00Z</time>
      </trkpt>
      <trkpt lat="44.99786" lon="6.13488">
        <ele>1924.8</ele>
        <time>2022-12-29T13:07:01Z</time>
      </trkpt>
      <trkpt lat="44.99786" lon="6.13488">
        <ele>1924.8</ele>
        <time>2022-12-29T13:07:02Z</time>
      </trkpt>
      <trkpt lat="44.99785" lon="6.13488">
        <ele>1924.8</ele>
        <time>2022-12-29T13:07:03Z</time>
      </trkpt>
      <trkpt lat="44.99785" lon="6.13489">
        <ele>1924.8</ele>
        <time>2022-12-29T13:07:04Z</time>
      </trkpt>
      <trkpt lat="44.99784" lon="6.13489">
        <ele>1924.8</ele>
        <time>2022-12-29T13:07:05Z</time>
      </trkpt>
      <trkpt lat="44.99784" lon="6.13489">
        <ele>1925.8</ele>
        <time>2022-12-29T13:07:06Z</time>
      </trkpt>
      <trkpt lat="44.99784" lon="6.1349">
        <ele>1925.8</ele>
        <time>2022-12-29T13:07:07Z</time>
      </trkpt>
      <trkpt lat="44.99783" lon="6.1349">
        <ele>1925.8</ele>
        <time>2022-12-29T13:07:08Z</time>
      </trkpt>
      <trkpt lat="44.99783" lon="6.13491">
        <ele>1925.8</ele>
        <time>2022-12-29T13:07:09Z</time>
      </trkpt>
      <trkpt lat="44.99782" lon="6.13492">
        <ele>1925.8</ele>
        <time>2022-12-29T13:07:10Z</time>
      </trkpt>
      <trkpt lat="44.99782" lon="6.13492">
        <ele>1925.8</ele>
        <time>2022-12-29T13:07:11Z</time>
      </trkpt>
      <trkpt lat="44.99781" lon="6.13493">
        <ele>1925.8</ele>
        <time>2022-12-29T13:07:12Z</time>
      </trkpt>
      <trkpt lat="44.99781" lon="6.13494">
        <ele>1925.8</ele>
        <time>2022-12-29T13:07:13Z</time>
      </trkpt>
      <trkpt lat="44.9978" lon="6.13494">
        <ele>1925.8</ele>
        <time>2022-12-29T13:07:14Z</time>
      </trkpt>
      <trkpt lat="44.9978" lon="6.13495">
        <ele>1925.8</ele>
        <time>2022-12-29T13:07:15Z</time>
      </trkpt>
      <trkpt lat="44.9978" lon="6.13495">
        <ele>1927.2</ele>
        <time>2022-12-29T13:07:16Z</time>
      </trkpt>
      <trkpt lat="44.99779" lon="6.13496">
        <ele>1927.2</ele>
        <time>2022-12-29T13:07:17Z</time>
      </trkpt>
      <trkpt lat="44.99779" lon="6.13496">
        <ele>1927.2</ele>
        <time>2022-12-29T13:07:18Z</time>
      </trkpt>
      <trkpt lat="44.99779" lon="6.13496">
        <ele>1927.2</ele>
        <time>2022-12-29T13:07:19Z</time>
      </trkpt>
      <trkpt lat="44.99779" lon="6.13496">
        <ele>1927.2</ele>
        <time>2022-12-29T13:07:20Z</time>
      </trkpt>
      <trkpt lat="44.99779" lon="6.13497">
        <ele>1927.2</ele>
        <time>2022-12-29T13:07:21Z</time>
      </trkpt>
      <trkpt lat="44.99779" lon="6.13497">
        <ele>1927.2</ele>
        <time>2022-12-29T13:07:22Z</time>
      </trkpt>
      <trkpt lat="44.99779" lon="6.13497">
        <ele>1927.2</ele>
        <time>2022-12-29T13:07:23Z</time>
      </trkpt>
      <trkpt lat="44.99779" lon="6.13497">
        <ele>1927.2</ele>
        <time>2022-12-29T13:07:24Z</time>
      </trkpt>
      <trkpt lat="44.99779" lon="6.13497">
        <ele>1927.2</ele>
        <time>2022-12-29T13:07:25Z</time>
      </trkpt>
      <trkpt lat="44.99778" lon="6.13498">
        <ele>1927.6</ele>
        <time>2022-12-29T13:07:26Z</time>
      </trkpt>
      <trkpt lat="44.99778" lon="6.13498">
        <ele>1927.6</ele>
        <time>2022-12-29T13:07:27Z</time>
      </trkpt>
      <trkpt lat="44.99778" lon="6.13498">
        <ele>1927.6</ele>
        <time>2022-12-29T13:07:28Z</time>
      </trkpt>
      <trkpt lat="44.99778" lon="6.13498">
        <ele>1927.6</ele>
        <time>2022-12-29T13:07:29Z</time>
      </trkpt>
      <trkpt lat="44.99778" lon="6.13499">
        <ele>1927.6</ele>
        <time>2022-12-29T13:07:30Z</time>
      </trkpt>
      <trkpt lat="44.99778" lon="6.13499">
        <ele>1927.6</ele>
        <time>2022-12-29T13:07:31Z</time>
      </trkpt>
      <trkpt lat="44.99778" lon="6.13499">
        <ele>1927.6</ele>
        <time>2022-12-29T13:07:32Z</time>
      </trkpt>
      <trkpt lat="44.99778" lon="6.13499">
        <ele>1927.6</ele>
        <time>2022-12-29T13:07:33Z</time>
      </trkpt>
      <trkpt lat="44.99778" lon="6.13499">
        <ele>1927.6</ele>
        <time>2022-12-29T13:07:34Z</time>
      </trkpt>
      <trkpt lat="44.99777" lon="6.135">
        <ele>1927.6</ele>
        <time>2022-12-29T13:07:35Z</time>
      </trkpt>
      <trkpt lat="44.99777" lon="6.135">
        <ele>1927.8</ele>
        <time>2022-12-29T13:07:36Z</time>
      </trkpt>
      <trkpt lat="44.99777" lon="6.135">
        <ele>1927.8</ele>
        <time>2022-12-29T13:07:37Z</time>
      </trkpt>
      <trkpt lat="44.99777" lon="6.135">
        <ele>1927.8</ele>
        <time>2022-12-29T13:07:39Z</time>
      </trkpt>
      <trkpt lat="44.99777" lon="6.13501">
        <ele>1927.8</ele>
        <time>2022-12-29T13:07:40Z</time>
      </trkpt>
      <trkpt lat="44.99777" lon="6.13501">
        <ele>1927.8</ele>
        <time>2022-12-29T13:07:41Z</time>
      </trkpt>
      <trkpt lat="44.99777" lon="6.13501">
        <ele>1927.8</ele>
        <time>2022-12-29T13:07:42Z</time>
      </trkpt>
      <trkpt lat="44.99777" lon="6.13501">
        <ele>1927.8</ele>
        <time>2022-12-29T13:07:43Z</time>
      </trkpt>
      <trkpt lat="44.99777" lon="6.13501">
        <ele>1927.8</ele>
        <time>2022-12-29T13:07:44Z</time>
      </trkpt>
      <trkpt lat="44.99776" lon="6.13502">
        <ele>1927.8</ele>
        <time>2022-12-29T13:07:45Z</time>
      </trkpt>
      <trkpt lat="44.99776" lon="6.13502">
        <ele>1928.8</ele>
        <time>2022-12-29T13:07:46Z</time>
      </trkpt>
      <trkpt lat="44.99776" lon="6.13502">
        <ele>1928.8</ele>
        <time>2022-12-29T13:07:47Z</time>
      </trkpt>
      <trkpt lat="44.99776" lon="6.13502">
        <ele>1928.8</ele>
        <time>2022-12-29T13:07:50Z</time>
      </trkpt>
      <trkpt lat="44.99776" lon="6.13503">
        <ele>1928.8</ele>
        <time>2022-12-29T13:07:51Z</time>
      </trkpt>
      <trkpt lat="44.99776" lon="6.13503">
        <ele>1928.8</ele>
        <time>2022-12-29T13:07:52Z</time>
      </trkpt>
      <trkpt lat="44.99776" lon="6.13503">
        <ele>1928.8</ele>
        <time>2022-12-29T13:07:53Z</time>
      </trkpt>
      <trkpt lat="44.99776" lon="6.13503">
        <ele>1928.8</ele>
        <time>2022-12-29T13:07:54Z</time>
      </trkpt>
      <trkpt lat="44.99776" lon="6.13503">
        <ele>1928.8</ele>
        <time>2022-12-29T13:07:55Z</time>
      </trkpt>
      <trkpt lat="44.99775" lon="6.13504">
        <ele>1929.4</ele>
        <time>2022-12-29T13:07:56Z</time>
      </trkpt>
      <trkpt lat="44.99774" lon="6.13507">
        <ele>1929.4</ele>
        <time>2022-12-29T13:07:57Z</time>
      </trkpt>
      <trkpt lat="44.99773" lon="6.13508">
        <ele>1929.4</ele>
        <time>2022-12-29T13:07:58Z</time>
      </trkpt>
      <trkpt lat="44.99773" lon="6.13509">
        <ele>1929.4</ele>
        <time>2022-12-29T13:07:59Z</time>
      </trkpt>
      <trkpt lat="44.99773" lon="6.1351">
        <ele>1929.4</ele>
        <time>2022-12-29T13:08:00Z</time>
      </trkpt>
      <trkpt lat="44.99773" lon="6.1351">
        <ele>1929.4</ele>
        <time>2022-12-29T13:08:01Z</time>
      </trkpt>
      <trkpt lat="44.99772" lon="6.13511">
        <ele>1929.4</ele>
        <time>2022-12-29T13:08:02Z</time>
      </trkpt>
      <trkpt lat="44.99772" lon="6.13512">
        <ele>1929.4</ele>
        <time>2022-12-29T13:08:03Z</time>
      </trkpt>
      <trkpt lat="44.99772" lon="6.13513">
        <ele>1929.4</ele>
        <time>2022-12-29T13:08:04Z</time>
      </trkpt>
      <trkpt lat="44.99771" lon="6.13513">
        <ele>1929.4</ele>
        <time>2022-12-29T13:08:05Z</time>
      </trkpt>
      <trkpt lat="44.99771" lon="6.13514">
        <ele>1931.4</ele>
        <time>2022-12-29T13:08:06Z</time>
      </trkpt>
      <trkpt lat="44.9977" lon="6.13515">
        <ele>1931.4</ele>
        <time>2022-12-29T13:08:07Z</time>
      </trkpt>
      <trkpt lat="44.9977" lon="6.13516">
        <ele>1931.4</ele>
        <time>2022-12-29T13:08:08Z</time>
      </trkpt>
      <trkpt lat="44.99769" lon="6.13516">
        <ele>1931.4</ele>
        <time>2022-12-29T13:08:09Z</time>
      </trkpt>
      <trkpt lat="44.99769" lon="6.13517">
        <ele>1931.4</ele>
        <time>2022-12-29T13:08:10Z</time>
      </trkpt>
      <trkpt lat="44.99769" lon="6.13518">
        <ele>1931.4</ele>
        <time>2022-12-29T13:08:11Z</time>
      </trkpt>
      <trkpt lat="44.99768" lon="6.13519">
        <ele>1931.4</ele>
        <time>2022-12-29T13:08:12Z</time>
      </trkpt>
      <trkpt lat="44.99768" lon="6.13519">
        <ele>1931.4</ele>
        <time>2022-12-29T13:08:13Z</time>
      </trkpt>
      <trkpt lat="44.99767" lon="6.1352">
        <ele>1931.4</ele>
        <time>2022-12-29T13:08:14Z</time>
      </trkpt>
      <trkpt lat="44.99767" lon="6.13521">
        <ele>1931.4</ele>
        <time>2022-12-29T13:08:15Z</time>
      </trkpt>
      <trkpt lat="44.99766" lon="6.13522">
        <ele>1933</ele>
        <time>2022-12-29T13:08:16Z</time>
      </trkpt>
      <trkpt lat="44.99766" lon="6.13522">
        <ele>1933</ele>
        <time>2022-12-29T13:08:17Z</time>
      </trkpt>
      <trkpt lat="44.99765" lon="6.13523">
        <ele>1933</ele>
        <time>2022-12-29T13:08:18Z</time>
      </trkpt>
      <trkpt lat="44.99765" lon="6.13523">
        <ele>1933</ele>
        <time>2022-12-29T13:08:19Z</time>
      </trkpt>
      <trkpt lat="44.99765" lon="6.13524">
        <ele>1933</ele>
        <time>2022-12-29T13:08:20Z</time>
      </trkpt>
      <trkpt lat="44.99764" lon="6.13524">
        <ele>1933</ele>
        <time>2022-12-29T13:08:21Z</time>
      </trkpt>
      <trkpt lat="44.99764" lon="6.13525">
        <ele>1933</ele>
        <time>2022-12-29T13:08:22Z</time>
      </trkpt>
      <trkpt lat="44.99763" lon="6.13526">
        <ele>1933</ele>
        <time>2022-12-29T13:08:23Z</time>
      </trkpt>
      <trkpt lat="44.99763" lon="6.13526">
        <ele>1933</ele>
        <time>2022-12-29T13:08:24Z</time>
      </trkpt>
      <trkpt lat="44.99763" lon="6.13527">
        <ele>1933</ele>
        <time>2022-12-29T13:08:25Z</time>
      </trkpt>
      <trkpt lat="44.99762" lon="6.13527">
        <ele>1934</ele>
        <time>2022-12-29T13:08:26Z</time>
      </trkpt>
      <trkpt lat="44.9976" lon="6.1353">
        <ele>1934</ele>
        <time>2022-12-29T13:08:27Z</time>
      </trkpt>
      <trkpt lat="44.9976" lon="6.1353">
        <ele>1934</ele>
        <time>2022-12-29T13:08:28Z</time>
      </trkpt>
      <trkpt lat="44.99759" lon="6.13531">
        <ele>1934</ele>
        <time>2022-12-29T13:08:29Z</time>
      </trkpt>
      <trkpt lat="44.99759" lon="6.13531">
        <ele>1934</ele>
        <time>2022-12-29T13:08:30Z</time>
      </trkpt>
      <trkpt lat="44.99758" lon="6.13532">
        <ele>1934</ele>
        <time>2022-12-29T13:08:31Z</time>
      </trkpt>
      <trkpt lat="44.99758" lon="6.13532">
        <ele>1934</ele>
        <time>2022-12-29T13:08:32Z</time>
      </trkpt>
      <trkpt lat="44.99757" lon="6.13533">
        <ele>1934</ele>
        <time>2022-12-29T13:08:33Z</time>
      </trkpt>
      <trkpt lat="44.99757" lon="6.13533">
        <ele>1934</ele>
        <time>2022-12-29T13:08:34Z</time>
      </trkpt>
      <trkpt lat="44.99756" lon="6.13534">
        <ele>1934</ele>
        <time>2022-12-29T13:08:35Z</time>
      </trkpt>
      <trkpt lat="44.99756" lon="6.13534">
        <ele>1935.6</ele>
        <time>2022-12-29T13:08:36Z</time>
      </trkpt>
      <trkpt lat="44.99755" lon="6.13535">
        <ele>1935.6</ele>
        <time>2022-12-29T13:08:37Z</time>
      </trkpt>
      <trkpt lat="44.99755" lon="6.13535">
        <ele>1935.6</ele>
        <time>2022-12-29T13:08:38Z</time>
      </trkpt>
      <trkpt lat="44.99754" lon="6.13535">
        <ele>1935.6</ele>
        <time>2022-12-29T13:08:39Z</time>
      </trkpt>
      <trkpt lat="44.99753" lon="6.13536">
        <ele>1935.6</ele>
        <time>2022-12-29T13:08:40Z</time>
      </trkpt>
      <trkpt lat="44.99753" lon="6.13536">
        <ele>1935.6</ele>
        <time>2022-12-29T13:08:41Z</time>
      </trkpt>
      <trkpt lat="44.99752" lon="6.13537">
        <ele>1935.6</ele>
        <time>2022-12-29T13:08:42Z</time>
      </trkpt>
      <trkpt lat="44.99752" lon="6.13537">
        <ele>1935.6</ele>
        <time>2022-12-29T13:08:43Z</time>
      </trkpt>
      <trkpt lat="44.99751" lon="6.13537">
        <ele>1935.6</ele>
        <time>2022-12-29T13:08:44Z</time>
      </trkpt>
      <trkpt lat="44.9975" lon="6.13538">
        <ele>1935.6</ele>
        <time>2022-12-29T13:08:45Z</time>
      </trkpt>
      <trkpt lat="44.9975" lon="6.13538">
        <ele>1937</ele>
        <time>2022-12-29T13:08:46Z</time>
      </trkpt>
      <trkpt lat="44.99747" lon="6.1354">
        <ele>1937</ele>
        <time>2022-12-29T13:08:47Z</time>
      </trkpt>
      <trkpt lat="44.99747" lon="6.1354">
        <ele>1937</ele>
        <time>2022-12-29T13:08:48Z</time>
      </trkpt>
      <trkpt lat="44.99747" lon="6.1354">
        <ele>1937</ele>
        <time>2022-12-29T13:08:49Z</time>
      </trkpt>
      <trkpt lat="44.99746" lon="6.1354">
        <ele>1937</ele>
        <time>2022-12-29T13:08:50Z</time>
      </trkpt>
      <trkpt lat="44.99746" lon="6.13541">
        <ele>1937</ele>
        <time>2022-12-29T13:08:51Z</time>
      </trkpt>
      <trkpt lat="44.99745" lon="6.13541">
        <ele>1937</ele>
        <time>2022-12-29T13:08:52Z</time>
      </trkpt>
      <trkpt lat="44.99745" lon="6.13541">
        <ele>1937</ele>
        <time>2022-12-29T13:08:53Z</time>
      </trkpt>
      <trkpt lat="44.99745" lon="6.13541">
        <ele>1937</ele>
        <time>2022-12-29T13:08:54Z</time>
      </trkpt>
      <trkpt lat="44.99744" lon="6.13542">
        <ele>1937</ele>
        <time>2022-12-29T13:08:55Z</time>
      </trkpt>
      <trkpt lat="44.99744" lon="6.13542">
        <ele>1938.2</ele>
        <time>2022-12-29T13:08:56Z</time>
      </trkpt>
      <trkpt lat="44.99741" lon="6.13543">
        <ele>1938.2</ele>
        <time>2022-12-29T13:08:57Z</time>
      </trkpt>
      <trkpt lat="44.9974" lon="6.13543">
        <ele>1938.2</ele>
        <time>2022-12-29T13:08:58Z</time>
      </trkpt>
      <trkpt lat="44.9974" lon="6.13544">
        <ele>1938.2</ele>
        <time>2022-12-29T13:08:59Z</time>
      </trkpt>
      <trkpt lat="44.99739" lon="6.13544">
        <ele>1938.2</ele>
        <time>2022-12-29T13:09:00Z</time>
      </trkpt>
      <trkpt lat="44.99738" lon="6.13544">
        <ele>1938.2</ele>
        <time>2022-12-29T13:09:01Z</time>
      </trkpt>
      <trkpt lat="44.99738" lon="6.13545">
        <ele>1938.2</ele>
        <time>2022-12-29T13:09:02Z</time>
      </trkpt>
      <trkpt lat="44.99737" lon="6.13545">
        <ele>1938.2</ele>
        <time>2022-12-29T13:09:03Z</time>
      </trkpt>
      <trkpt lat="44.99737" lon="6.13545">
        <ele>1938.2</ele>
        <time>2022-12-29T13:09:04Z</time>
      </trkpt>
      <trkpt lat="44.99736" lon="6.13546">
        <ele>1938.2</ele>
        <time>2022-12-29T13:09:05Z</time>
      </trkpt>
      <trkpt lat="44.99735" lon="6.13546">
        <ele>1939.6</ele>
        <time>2022-12-29T13:09:06Z</time>
      </trkpt>
      <trkpt lat="44.99735" lon="6.13546">
        <ele>1939.6</ele>
        <time>2022-12-29T13:09:07Z</time>
      </trkpt>
      <trkpt lat="44.99734" lon="6.13547">
        <ele>1939.6</ele>
        <time>2022-12-29T13:09:08Z</time>
      </trkpt>
      <trkpt lat="44.99734" lon="6.13547">
        <ele>1939.6</ele>
        <time>2022-12-29T13:09:09Z</time>
      </trkpt>
      <trkpt lat="44.99733" lon="6.13547">
        <ele>1939.6</ele>
        <time>2022-12-29T13:09:10Z</time>
      </trkpt>
      <trkpt lat="44.99733" lon="6.13548">
        <ele>1939.6</ele>
        <time>2022-12-29T13:09:11Z</time>
      </trkpt>
      <trkpt lat="44.99732" lon="6.13548">
        <ele>1939.6</ele>
        <time>2022-12-29T13:09:12Z</time>
      </trkpt>
      <trkpt lat="44.99732" lon="6.13548">
        <ele>1939.6</ele>
        <time>2022-12-29T13:09:13Z</time>
      </trkpt>
      <trkpt lat="44.99731" lon="6.13549">
        <ele>1939.6</ele>
        <time>2022-12-29T13:09:14Z</time>
      </trkpt>
      <trkpt lat="44.99731" lon="6.13549">
        <ele>1939.6</ele>
        <time>2022-12-29T13:09:15Z</time>
      </trkpt>
      <trkpt lat="44.9973" lon="6.13549">
        <ele>1941.4</ele>
        <time>2022-12-29T13:09:16Z</time>
      </trkpt>
      <trkpt lat="44.9973" lon="6.1355">
        <ele>1941.4</ele>
        <time>2022-12-29T13:09:17Z</time>
      </trkpt>
      <trkpt lat="44.99729" lon="6.1355">
        <ele>1941.4</ele>
        <time>2022-12-29T13:09:18Z</time>
      </trkpt>
      <trkpt lat="44.99729" lon="6.1355">
        <ele>1941.4</ele>
        <time>2022-12-29T13:09:19Z</time>
      </trkpt>
      <trkpt lat="44.99729" lon="6.13551">
        <ele>1941.4</ele>
        <time>2022-12-29T13:09:20Z</time>
      </trkpt>
      <trkpt lat="44.99728" lon="6.13551">
        <ele>1941.4</ele>
        <time>2022-12-29T13:09:21Z</time>
      </trkpt>
      <trkpt lat="44.99728" lon="6.13551">
        <ele>1941.4</ele>
        <time>2022-12-29T13:09:22Z</time>
      </trkpt>
      <trkpt lat="44.99728" lon="6.13551">
        <ele>1941.4</ele>
        <time>2022-12-29T13:09:23Z</time>
      </trkpt>
      <trkpt lat="44.99727" lon="6.13552">
        <ele>1941.4</ele>
        <time>2022-12-29T13:09:24Z</time>
      </trkpt>
      <trkpt lat="44.99727" lon="6.13552">
        <ele>1941.4</ele>
        <time>2022-12-29T13:09:25Z</time>
      </trkpt>
      <trkpt lat="44.99726" lon="6.13552">
        <ele>1943.2</ele>
        <time>2022-12-29T13:09:26Z</time>
      </trkpt>
      <trkpt lat="44.99726" lon="6.13553">
        <ele>1943.2</ele>
        <time>2022-12-29T13:09:27Z</time>
      </trkpt>
      <trkpt lat="44.99725" lon="6.13553">
        <ele>1943.2</ele>
        <time>2022-12-29T13:09:28Z</time>
      </trkpt>
      <trkpt lat="44.99725" lon="6.13553">
        <ele>1943.2</ele>
        <time>2022-12-29T13:09:29Z</time>
      </trkpt>
      <trkpt lat="44.99724" lon="6.13553">
        <ele>1943.2</ele>
        <time>2022-12-29T13:09:30Z</time>
      </trkpt>
      <trkpt lat="44.99724" lon="6.13553">
        <ele>1943.2</ele>
        <time>2022-12-29T13:09:33Z</time>
      </trkpt>
      <trkpt lat="44.99723" lon="6.13553">
        <ele>1943.2</ele>
        <time>2022-12-29T13:09:34Z</time>
      </trkpt>
      <trkpt lat="44.99723" lon="6.13553">
        <ele>1943.2</ele>
        <time>2022-12-29T13:09:35Z</time>
      </trkpt>
      <trkpt lat="44.99722" lon="6.13554">
        <ele>1944</ele>
        <time>2022-12-29T13:09:36Z</time>
      </trkpt>
      <trkpt lat="44.99722" lon="6.13554">
        <ele>1944</ele>
        <time>2022-12-29T13:09:37Z</time>
      </trkpt>
      <trkpt lat="44.99722" lon="6.13554">
        <ele>1944</ele>
        <time>2022-12-29T13:09:38Z</time>
      </trkpt>
      <trkpt lat="44.99722" lon="6.13554">
        <ele>1944</ele>
        <time>2022-12-29T13:09:39Z</time>
      </trkpt>
      <trkpt lat="44.99721" lon="6.13555">
        <ele>1944</ele>
        <time>2022-12-29T13:09:40Z</time>
      </trkpt>
      <trkpt lat="44.99721" lon="6.13555">
        <ele>1944</ele>
        <time>2022-12-29T13:09:41Z</time>
      </trkpt>
      <trkpt lat="44.99721" lon="6.13555">
        <ele>1944</ele>
        <time>2022-12-29T13:09:42Z</time>
      </trkpt>
      <trkpt lat="44.99721" lon="6.13556">
        <ele>1944</ele>
        <time>2022-12-29T13:09:43Z</time>
      </trkpt>
      <trkpt lat="44.9972" lon="6.13556">
        <ele>1944</ele>
        <time>2022-12-29T13:09:44Z</time>
      </trkpt>
      <trkpt lat="44.9972" lon="6.13556">
        <ele>1944</ele>
        <time>2022-12-29T13:09:45Z</time>
      </trkpt>
      <trkpt lat="44.9972" lon="6.13556">
        <ele>1944.2</ele>
        <time>2022-12-29T13:09:46Z</time>
      </trkpt>
      <trkpt lat="44.9972" lon="6.13557">
        <ele>1944.2</ele>
        <time>2022-12-29T13:09:47Z</time>
      </trkpt>
      <trkpt lat="44.9972" lon="6.13557">
        <ele>1944.2</ele>
        <time>2022-12-29T13:09:48Z</time>
      </trkpt>
      <trkpt lat="44.99719" lon="6.13557">
        <ele>1944.2</ele>
        <time>2022-12-29T13:09:49Z</time>
      </trkpt>
      <trkpt lat="44.99719" lon="6.13558">
        <ele>1944.2</ele>
        <time>2022-12-29T13:09:50Z</time>
      </trkpt>
      <trkpt lat="44.99719" lon="6.13558">
        <ele>1944.2</ele>
        <time>2022-12-29T13:09:51Z</time>
      </trkpt>
      <trkpt lat="44.99719" lon="6.13558">
        <ele>1944.2</ele>
        <time>2022-12-29T13:09:52Z</time>
      </trkpt>
      <trkpt lat="44.99718" lon="6.13558">
        <ele>1944.2</ele>
        <time>2022-12-29T13:09:53Z</time>
      </trkpt>
      <trkpt lat="44.99718" lon="6.13559">
        <ele>1944.2</ele>
        <time>2022-12-29T13:09:54Z</time>
      </trkpt>
      <trkpt lat="44.99718" lon="6.13559">
        <ele>1944.2</ele>
        <time>2022-12-29T13:09:55Z</time>
      </trkpt>
      <trkpt lat="44.99718" lon="6.13559">
        <ele>1945.2</ele>
        <time>2022-12-29T13:09:56Z</time>
      </trkpt>
      <trkpt lat="44.99717" lon="6.1356">
        <ele>1945.2</ele>
        <time>2022-12-29T13:09:57Z</time>
      </trkpt>
      <trkpt lat="44.99717" lon="6.1356">
        <ele>1945.2</ele>
        <time>2022-12-29T13:09:58Z</time>
      </trkpt>
      <trkpt lat="44.99717" lon="6.1356">
        <ele>1945.2</ele>
        <time>2022-12-29T13:09:59Z</time>
      </trkpt>
      <trkpt lat="44.99717" lon="6.1356">
        <ele>1945.2</ele>
        <time>2022-12-29T13:10:00Z</time>
      </trkpt>
      <trkpt lat="44.99716" lon="6.13561">
        <ele>1945.2</ele>
        <time>2022-12-29T13:10:01Z</time>
      </trkpt>
      <trkpt lat="44.99716" lon="6.13561">
        <ele>1945.2</ele>
        <time>2022-12-29T13:10:02Z</time>
      </trkpt>
      <trkpt lat="44.99716" lon="6.13561">
        <ele>1945.2</ele>
        <time>2022-12-29T13:10:03Z</time>
      </trkpt>
      <trkpt lat="44.99716" lon="6.13562">
        <ele>1945.2</ele>
        <time>2022-12-29T13:10:04Z</time>
      </trkpt>
      <trkpt lat="44.99716" lon="6.13562">
        <ele>1945.2</ele>
        <time>2022-12-29T13:10:05Z</time>
      </trkpt>
      <trkpt lat="44.99715" lon="6.13562">
        <ele>1946.6</ele>
        <time>2022-12-29T13:10:06Z</time>
      </trkpt>
      <trkpt lat="44.99715" lon="6.13562">
        <ele>1946.6</ele>
        <time>2022-12-29T13:10:07Z</time>
      </trkpt>
      <trkpt lat="44.99715" lon="6.13563">
        <ele>1946.6</ele>
        <time>2022-12-29T13:10:08Z</time>
      </trkpt>
      <trkpt lat="44.99715" lon="6.13563">
        <ele>1946.6</ele>
        <time>2022-12-29T13:10:09Z</time>
      </trkpt>
      <trkpt lat="44.99714" lon="6.13563">
        <ele>1946.6</ele>
        <time>2022-12-29T13:10:10Z</time>
      </trkpt>
      <trkpt lat="44.99714" lon="6.13564">
        <ele>1946.6</ele>
        <time>2022-12-29T13:10:11Z</time>
      </trkpt>
      <trkpt lat="44.99714" lon="6.13564">
        <ele>1946.6</ele>
        <time>2022-12-29T13:10:12Z</time>
      </trkpt>
      <trkpt lat="44.99714" lon="6.13564">
        <ele>1946.6</ele>
        <time>2022-12-29T13:10:13Z</time>
      </trkpt>
      <trkpt lat="44.99713" lon="6.13564">
        <ele>1946.6</ele>
        <time>2022-12-29T13:10:14Z</time>
      </trkpt>
      <trkpt lat="44.99713" lon="6.13565">
        <ele>1946.6</ele>
        <time>2022-12-29T13:10:15Z</time>
      </trkpt>
      <trkpt lat="44.99713" lon="6.13565">
        <ele>1948.2</ele>
        <time>2022-12-29T13:10:16Z</time>
      </trkpt>
      <trkpt lat="44.99712" lon="6.13566">
        <ele>1948.2</ele>
        <time>2022-12-29T13:10:17Z</time>
      </trkpt>
      <trkpt lat="44.99711" lon="6.13566">
        <ele>1948.2</ele>
        <time>2022-12-29T13:10:18Z</time>
      </trkpt>
      <trkpt lat="44.99711" lon="6.13566">
        <ele>1948.2</ele>
        <time>2022-12-29T13:10:19Z</time>
      </trkpt>
      <trkpt lat="44.9971" lon="6.13566">
        <ele>1948.2</ele>
        <time>2022-12-29T13:10:20Z</time>
      </trkpt>
      <trkpt lat="44.9971" lon="6.13566">
        <ele>1948.2</ele>
        <time>2022-12-29T13:10:21Z</time>
      </trkpt>
      <trkpt lat="44.99709" lon="6.13566">
        <ele>1948.2</ele>
        <time>2022-12-29T13:10:22Z</time>
      </trkpt>
      <trkpt lat="44.99709" lon="6.13566">
        <ele>1948.2</ele>
        <time>2022-12-29T13:10:23Z</time>
      </trkpt>
      <trkpt lat="44.99708" lon="6.13567">
        <ele>1948.2</ele>
        <time>2022-12-29T13:10:24Z</time>
      </trkpt>
      <trkpt lat="44.99708" lon="6.13567">
        <ele>1948.2</ele>
        <time>2022-12-29T13:10:25Z</time>
      </trkpt>
      <trkpt lat="44.99708" lon="6.13567">
        <ele>1949.6</ele>
        <time>2022-12-29T13:10:26Z</time>
      </trkpt>
      <trkpt lat="44.99706" lon="6.13568">
        <ele>1949.6</ele>
        <time>2022-12-29T13:10:27Z</time>
      </trkpt>
      <trkpt lat="44.99706" lon="6.13568">
        <ele>1949.6</ele>
        <time>2022-12-29T13:10:28Z</time>
      </trkpt>
      <trkpt lat="44.99706" lon="6.13568">
        <ele>1949.6</ele>
        <time>2022-12-29T13:10:29Z</time>
      </trkpt>
      <trkpt lat="44.99706" lon="6.13568">
        <ele>1949.6</ele>
        <time>2022-12-29T13:10:30Z</time>
      </trkpt>
      <trkpt lat="44.99706" lon="6.13568">
        <ele>1949.6</ele>
        <time>2022-12-29T13:10:31Z</time>
      </trkpt>
      <trkpt lat="44.99706" lon="6.13568">
        <ele>1949.6</ele>
        <time>2022-12-29T13:10:34Z</time>
      </trkpt>
      <trkpt lat="44.99706" lon="6.13568">
        <ele>1949.6</ele>
        <time>2022-12-29T13:10:35Z</time>
      </trkpt>
      <trkpt lat="44.99706" lon="6.13568">
        <ele>1950.8</ele>
        <time>2022-12-29T13:10:36Z</time>
      </trkpt>
      <trkpt lat="44.99706" lon="6.13568">
        <ele>1950.8</ele>
        <time>2022-12-29T13:10:37Z</time>
      </trkpt>
      <trkpt lat="44.99705" lon="6.13568">
        <ele>1950.8</ele>
        <time>2022-12-29T13:10:38Z</time>
      </trkpt>
      <trkpt lat="44.99705" lon="6.13568">
        <ele>1950.8</ele>
        <time>2022-12-29T13:10:39Z</time>
      </trkpt>
      <trkpt lat="44.99705" lon="6.13569">
        <ele>1950.8</ele>
        <time>2022-12-29T13:10:40Z</time>
      </trkpt>
      <trkpt lat="44.99704" lon="6.13569">
        <ele>1950.8</ele>
        <time>2022-12-29T13:10:41Z</time>
      </trkpt>
      <trkpt lat="44.99704" lon="6.13569">
        <ele>1950.8</ele>
        <time>2022-12-29T13:10:42Z</time>
      </trkpt>
      <trkpt lat="44.99704" lon="6.13569">
        <ele>1950.8</ele>
        <time>2022-12-29T13:10:43Z</time>
      </trkpt>
      <trkpt lat="44.99703" lon="6.13569">
        <ele>1950.6</ele>
        <time>2022-12-29T13:10:46Z</time>
      </trkpt>
      <trkpt lat="44.99703" lon="6.13569">
        <ele>1950.6</ele>
        <time>2022-12-29T13:10:47Z</time>
      </trkpt>
      <trkpt lat="44.99703" lon="6.13569">
        <ele>1950.6</ele>
        <time>2022-12-29T13:10:48Z</time>
      </trkpt>
      <trkpt lat="44.99702" lon="6.1357">
        <ele>1950.6</ele>
        <time>2022-12-29T13:10:49Z</time>
      </trkpt>
      <trkpt lat="44.99702" lon="6.1357">
        <ele>1950.6</ele>
        <time>2022-12-29T13:10:50Z</time>
      </trkpt>
      <trkpt lat="44.99702" lon="6.1357">
        <ele>1950.6</ele>
        <time>2022-12-29T13:10:51Z</time>
      </trkpt>
      <trkpt lat="44.99701" lon="6.1357">
        <ele>1950.6</ele>
        <time>2022-12-29T13:10:52Z</time>
      </trkpt>
      <trkpt lat="44.99701" lon="6.1357">
        <ele>1950.6</ele>
        <time>2022-12-29T13:10:53Z</time>
      </trkpt>
      <trkpt lat="44.99701" lon="6.1357">
        <ele>1950.6</ele>
        <time>2022-12-29T13:10:54Z</time>
      </trkpt>
      <trkpt lat="44.997" lon="6.13571">
        <ele>1950.6</ele>
        <time>2022-12-29T13:10:55Z</time>
      </trkpt>
      <trkpt lat="44.997" lon="6.13571">
        <ele>1951.6</ele>
        <time>2022-12-29T13:10:56Z</time>
      </trkpt>
      <trkpt lat="44.997" lon="6.13571">
        <ele>1951.6</ele>
        <time>2022-12-29T13:10:57Z</time>
      </trkpt>
      <trkpt lat="44.99699" lon="6.13571">
        <ele>1951.6</ele>
        <time>2022-12-29T13:10:58Z</time>
      </trkpt>
      <trkpt lat="44.99699" lon="6.13571">
        <ele>1951.6</ele>
        <time>2022-12-29T13:10:59Z</time>
      </trkpt>
      <trkpt lat="44.99699" lon="6.13571">
        <ele>1951.6</ele>
        <time>2022-12-29T13:11:00Z</time>
      </trkpt>
      <trkpt lat="44.99698" lon="6.13572">
        <ele>1951.6</ele>
        <time>2022-12-29T13:11:01Z</time>
      </trkpt>
      <trkpt lat="44.99698" lon="6.13572">
        <ele>1951.6</ele>
        <time>2022-12-29T13:11:02Z</time>
      </trkpt>
      <trkpt lat="44.99698" lon="6.13572">
        <ele>1951.6</ele>
        <time>2022-12-29T13:11:03Z</time>
      </trkpt>
      <trkpt lat="44.99697" lon="6.13572">
        <ele>1951.6</ele>
        <time>2022-12-29T13:11:04Z</time>
      </trkpt>
      <trkpt lat="44.99697" lon="6.13572">
        <ele>1951.6</ele>
        <time>2022-12-29T13:11:05Z</time>
      </trkpt>
      <trkpt lat="44.99697" lon="6.13572">
        <ele>1952.6</ele>
        <time>2022-12-29T13:11:06Z</time>
      </trkpt>
      <trkpt lat="44.99695" lon="6.13574">
        <ele>1952.6</ele>
        <time>2022-12-29T13:11:07Z</time>
      </trkpt>
      <trkpt lat="44.99695" lon="6.13574">
        <ele>1952.6</ele>
        <time>2022-12-29T13:11:08Z</time>
      </trkpt>
      <trkpt lat="44.99694" lon="6.13575">
        <ele>1952.6</ele>
        <time>2022-12-29T13:11:09Z</time>
      </trkpt>
      <trkpt lat="44.99693" lon="6.13575">
        <ele>1952.6</ele>
        <time>2022-12-29T13:11:10Z</time>
      </trkpt>
      <trkpt lat="44.99693" lon="6.13576">
        <ele>1952.6</ele>
        <time>2022-12-29T13:11:11Z</time>
      </trkpt>
      <trkpt lat="44.99692" lon="6.13576">
        <ele>1952.6</ele>
        <time>2022-12-29T13:11:12Z</time>
      </trkpt>
      <trkpt lat="44.99692" lon="6.13577">
        <ele>1952.6</ele>
        <time>2022-12-29T13:11:13Z</time>
      </trkpt>
      <trkpt lat="44.99691" lon="6.13577">
        <ele>1952.6</ele>
        <time>2022-12-29T13:11:14Z</time>
      </trkpt>
      <trkpt lat="44.99691" lon="6.13577">
        <ele>1952.6</ele>
        <time>2022-12-29T13:11:15Z</time>
      </trkpt>
      <trkpt lat="44.9969" lon="6.13578">
        <ele>1954.4</ele>
        <time>2022-12-29T13:11:16Z</time>
      </trkpt>
      <trkpt lat="44.99689" lon="6.13578">
        <ele>1954.4</ele>
        <time>2022-12-29T13:11:17Z</time>
      </trkpt>
      <trkpt lat="44.99689" lon="6.13579">
        <ele>1954.4</ele>
        <time>2022-12-29T13:11:18Z</time>
      </trkpt>
      <trkpt lat="44.99688" lon="6.13579">
        <ele>1954.4</ele>
        <time>2022-12-29T13:11:19Z</time>
      </trkpt>
      <trkpt lat="44.99688" lon="6.1358">
        <ele>1954.4</ele>
        <time>2022-12-29T13:11:20Z</time>
      </trkpt>
      <trkpt lat="44.99687" lon="6.1358">
        <ele>1954.4</ele>
        <time>2022-12-29T13:11:21Z</time>
      </trkpt>
      <trkpt lat="44.99687" lon="6.13581">
        <ele>1954.4</ele>
        <time>2022-12-29T13:11:22Z</time>
      </trkpt>
      <trkpt lat="44.99686" lon="6.13581">
        <ele>1954.4</ele>
        <time>2022-12-29T13:11:23Z</time>
      </trkpt>
      <trkpt lat="44.99686" lon="6.13582">
        <ele>1954.4</ele>
        <time>2022-12-29T13:11:24Z</time>
      </trkpt>
      <trkpt lat="44.99685" lon="6.13582">
        <ele>1954.4</ele>
        <time>2022-12-29T13:11:25Z</time>
      </trkpt>
      <trkpt lat="44.99685" lon="6.13583">
        <ele>1955.6</ele>
        <time>2022-12-29T13:11:26Z</time>
      </trkpt>
      <trkpt lat="44.99684" lon="6.13583">
        <ele>1955.6</ele>
        <time>2022-12-29T13:11:27Z</time>
      </trkpt>
      <trkpt lat="44.99683" lon="6.13583">
        <ele>1955.6</ele>
        <time>2022-12-29T13:11:28Z</time>
      </trkpt>
      <trkpt lat="44.99683" lon="6.13583">
        <ele>1955.6</ele>
        <time>2022-12-29T13:11:29Z</time>
      </trkpt>
      <trkpt lat="44.99682" lon="6.13584">
        <ele>1955.6</ele>
        <time>2022-12-29T13:11:30Z</time>
      </trkpt>
      <trkpt lat="44.99681" lon="6.13584">
        <ele>1955.6</ele>
        <time>2022-12-29T13:11:31Z</time>
      </trkpt>
      <trkpt lat="44.99681" lon="6.13584">
        <ele>1955.6</ele>
        <time>2022-12-29T13:11:32Z</time>
      </trkpt>
      <trkpt lat="44.9968" lon="6.13584">
        <ele>1955.6</ele>
        <time>2022-12-29T13:11:33Z</time>
      </trkpt>
      <trkpt lat="44.9968" lon="6.13585">
        <ele>1955.6</ele>
        <time>2022-12-29T13:11:34Z</time>
      </trkpt>
      <trkpt lat="44.99679" lon="6.13585">
        <ele>1955.6</ele>
        <time>2022-12-29T13:11:35Z</time>
      </trkpt>
      <trkpt lat="44.99678" lon="6.13585">
        <ele>1956.6</ele>
        <time>2022-12-29T13:11:36Z</time>
      </trkpt>
      <trkpt lat="44.99677" lon="6.13585">
        <ele>1956.6</ele>
        <time>2022-12-29T13:11:37Z</time>
      </trkpt>
      <trkpt lat="44.99677" lon="6.13585">
        <ele>1956.6</ele>
        <time>2022-12-29T13:11:38Z</time>
      </trkpt>
      <trkpt lat="44.99677" lon="6.13585">
        <ele>1956.6</ele>
        <time>2022-12-29T13:11:39Z</time>
      </trkpt>
      <trkpt lat="44.99677" lon="6.13585">
        <ele>1956.6</ele>
        <time>2022-12-29T13:11:40Z</time>
      </trkpt>
      <trkpt lat="44.99677" lon="6.13585">
        <ele>1956.6</ele>
        <time>2022-12-29T13:11:41Z</time>
      </trkpt>
      <trkpt lat="44.99677" lon="6.13585">
        <ele>1956.6</ele>
        <time>2022-12-29T13:11:42Z</time>
      </trkpt>
      <trkpt lat="44.99677" lon="6.13585">
        <ele>1956.6</ele>
        <time>2022-12-29T13:11:43Z</time>
      </trkpt>
      <trkpt lat="44.99677" lon="6.13585">
        <ele>1956.6</ele>
        <time>2022-12-29T13:11:44Z</time>
      </trkpt>
      <trkpt lat="44.99677" lon="6.13585">
        <ele>1956.6</ele>
        <time>2022-12-29T13:11:45Z</time>
      </trkpt>
      <trkpt lat="44.99677" lon="6.13585">
        <ele>1956.8</ele>
        <time>2022-12-29T13:11:46Z</time>
      </trkpt>
      <trkpt lat="44.99676" lon="6.13587">
        <ele>1956.8</ele>
        <time>2022-12-29T13:11:47Z</time>
      </trkpt>
      <trkpt lat="44.99676" lon="6.13587">
        <ele>1956.8</ele>
        <time>2022-12-29T13:11:48Z</time>
      </trkpt>
      <trkpt lat="44.99676" lon="6.13587">
        <ele>1956.8</ele>
        <time>2022-12-29T13:11:49Z</time>
      </trkpt>
      <trkpt lat="44.99676" lon="6.13587">
        <ele>1956.8</ele>
        <time>2022-12-29T13:11:50Z</time>
      </trkpt>
      <trkpt lat="44.99676" lon="6.13587">
        <ele>1956.8</ele>
        <time>2022-12-29T13:11:51Z</time>
      </trkpt>
      <trkpt lat="44.99676" lon="6.13587">
        <ele>1956.8</ele>
        <time>2022-12-29T13:11:52Z</time>
      </trkpt>
      <trkpt lat="44.99676" lon="6.13587">
        <ele>1956.8</ele>
        <time>2022-12-29T13:11:53Z</time>
      </trkpt>
      <trkpt lat="44.99676" lon="6.13587">
        <ele>1956.8</ele>
        <time>2022-12-29T13:11:54Z</time>
      </trkpt>
      <trkpt lat="44.99676" lon="6.13587">
        <ele>1956.6</ele>
        <time>2022-12-29T13:11:56Z</time>
      </trkpt>
      <trkpt lat="44.99676" lon="6.13587">
        <ele>1956.6</ele>
        <time>2022-12-29T13:11:58Z</time>
      </trkpt>
      <trkpt lat="44.99676" lon="6.13587">
        <ele>1956.6</ele>
        <time>2022-12-29T13:11:59Z</time>
      </trkpt>
      <trkpt lat="44.99676" lon="6.13587">
        <ele>1956.6</ele>
        <time>2022-12-29T13:12:00Z</time>
      </trkpt>
      <trkpt lat="44.99676" lon="6.13587">
        <ele>1956.6</ele>
        <time>2022-12-29T13:12:01Z</time>
      </trkpt>
      <trkpt lat="44.99676" lon="6.13587">
        <ele>1956.6</ele>
        <time>2022-12-29T13:12:02Z</time>
      </trkpt>
      <trkpt lat="44.99676" lon="6.13587">
        <ele>1956.6</ele>
        <time>2022-12-29T13:12:03Z</time>
      </trkpt>
      <trkpt lat="44.99676" lon="6.13587">
        <ele>1956.6</ele>
        <time>2022-12-29T13:12:04Z</time>
      </trkpt>
      <trkpt lat="44.99676" lon="6.13587">
        <ele>1956.6</ele>
        <time>2022-12-29T13:12:05Z</time>
      </trkpt>
      <trkpt lat="44.99676" lon="6.13587">
        <ele>1956.8</ele>
        <time>2022-12-29T13:12:06Z</time>
      </trkpt>
      <trkpt lat="44.99676" lon="6.13587">
        <ele>1956.8</ele>
        <time>2022-12-29T13:12:07Z</time>
      </trkpt>
      <trkpt lat="44.99676" lon="6.13587">
        <ele>1956.8</ele>
        <time>2022-12-29T13:12:08Z</time>
      </trkpt>
      <trkpt lat="44.99676" lon="6.13587">
        <ele>1956.8</ele>
        <time>2022-12-29T13:12:09Z</time>
      </trkpt>
      <trkpt lat="44.99676" lon="6.13587">
        <ele>1956.8</ele>
        <time>2022-12-29T13:12:10Z</time>
      </trkpt>
      <trkpt lat="44.99676" lon="6.13587">
        <ele>1956.8</ele>
        <time>2022-12-29T13:12:11Z</time>
      </trkpt>
      <trkpt lat="44.99676" lon="6.13587">
        <ele>1956.8</ele>
        <time>2022-12-29T13:12:12Z</time>
      </trkpt>
      <trkpt lat="44.99676" lon="6.13587">
        <ele>1956.8</ele>
        <time>2022-12-29T13:12:13Z</time>
      </trkpt>
      <trkpt lat="44.99676" lon="6.13587">
        <ele>1956.8</ele>
        <time>2022-12-29T13:12:14Z</time>
      </trkpt>
      <trkpt lat="44.99676" lon="6.13587">
        <ele>1956.8</ele>
        <time>2022-12-29T13:12:15Z</time>
      </trkpt>
      <trkpt lat="44.99676" lon="6.13587">
        <ele>1957</ele>
        <time>2022-12-29T13:12:16Z</time>
      </trkpt>
      <trkpt lat="44.99676" lon="6.13587">
        <ele>1957</ele>
        <time>2022-12-29T13:12:17Z</time>
      </trkpt>
      <trkpt lat="44.99676" lon="6.13587">
        <ele>1957</ele>
        <time>2022-12-29T13:12:18Z</time>
      </trkpt>
      <trkpt lat="44.99676" lon="6.13587">
        <ele>1957</ele>
        <time>2022-12-29T13:12:19Z</time>
      </trkpt>
      <trkpt lat="44.99676" lon="6.13587">
        <ele>1957</ele>
        <time>2022-12-29T13:12:20Z</time>
      </trkpt>
      <trkpt lat="44.99676" lon="6.13587">
        <ele>1957</ele>
        <time>2022-12-29T13:12:21Z</time>
      </trkpt>
      <trkpt lat="44.99676" lon="6.13587">
        <ele>1957</ele>
        <time>2022-12-29T13:12:22Z</time>
      </trkpt>
      <trkpt lat="44.99676" lon="6.13587">
        <ele>1957</ele>
        <time>2022-12-29T13:12:23Z</time>
      </trkpt>
      <trkpt lat="44.99676" lon="6.13587">
        <ele>1957</ele>
        <time>2022-12-29T13:12:24Z</time>
      </trkpt>
      <trkpt lat="44.99676" lon="6.13587">
        <ele>1957</ele>
        <time>2022-12-29T13:12:25Z</time>
      </trkpt>
      <trkpt lat="44.99676" lon="6.13587">
        <ele>1957</ele>
        <time>2022-12-29T13:12:26Z</time>
      </trkpt>
      <trkpt lat="44.99676" lon="6.13587">
        <ele>1957</ele>
        <time>2022-12-29T13:12:27Z</time>
      </trkpt>
      <trkpt lat="44.99676" lon="6.13587">
        <ele>1957</ele>
        <time>2022-12-29T13:12:28Z</time>
      </trkpt>
      <trkpt lat="44.99676" lon="6.13587">
        <ele>1957</ele>
        <time>2022-12-29T13:12:29Z</time>
      </trkpt>
      <trkpt lat="44.99676" lon="6.13587">
        <ele>1957</ele>
        <time>2022-12-29T13:12:30Z</time>
      </trkpt>
      <trkpt lat="44.99676" lon="6.13587">
        <ele>1957</ele>
        <time>2022-12-29T13:12:31Z</time>
      </trkpt>
      <trkpt lat="44.99676" lon="6.13587">
        <ele>1957</ele>
        <time>2022-12-29T13:12:32Z</time>
      </trkpt>
      <trkpt lat="44.99676" lon="6.13587">
        <ele>1957</ele>
        <time>2022-12-29T13:12:33Z</time>
      </trkpt>
      <trkpt lat="44.99676" lon="6.13587">
        <ele>1957</ele>
        <time>2022-12-29T13:12:34Z</time>
      </trkpt>
      <trkpt lat="44.99676" lon="6.13587">
        <ele>1957</ele>
        <time>2022-12-29T13:12:35Z</time>
      </trkpt>
      <trkpt lat="44.99676" lon="6.13587">
        <ele>1957.6</ele>
        <time>2022-12-29T13:12:36Z</time>
      </trkpt>
      <trkpt lat="44.99676" lon="6.13587">
        <ele>1957.6</ele>
        <time>2022-12-29T13:12:37Z</time>
      </trkpt>
      <trkpt lat="44.99676" lon="6.13587">
        <ele>1957.6</ele>
        <time>2022-12-29T13:12:38Z</time>
      </trkpt>
      <trkpt lat="44.99676" lon="6.13587">
        <ele>1957.6</ele>
        <time>2022-12-29T13:12:39Z</time>
      </trkpt>
      <trkpt lat="44.99676" lon="6.13587">
        <ele>1957.6</ele>
        <time>2022-12-29T13:12:40Z</time>
      </trkpt>
      <trkpt lat="44.99676" lon="6.13587">
        <ele>1957.6</ele>
        <time>2022-12-29T13:12:41Z</time>
      </trkpt>
      <trkpt lat="44.99676" lon="6.13587">
        <ele>1957.6</ele>
        <time>2022-12-29T13:12:42Z</time>
      </trkpt>
      <trkpt lat="44.99676" lon="6.13587">
        <ele>1957.6</ele>
        <time>2022-12-29T13:12:43Z</time>
      </trkpt>
      <trkpt lat="44.99676" lon="6.13587">
        <ele>1957.6</ele>
        <time>2022-12-29T13:12:44Z</time>
      </trkpt>
      <trkpt lat="44.99674" lon="6.13587">
        <ele>1957.6</ele>
        <time>2022-12-29T13:12:45Z</time>
      </trkpt>
      <trkpt lat="44.99674" lon="6.13587">
        <ele>1958.2</ele>
        <time>2022-12-29T13:12:46Z</time>
      </trkpt>
      <trkpt lat="44.9967" lon="6.13587">
        <ele>1958.2</ele>
        <time>2022-12-29T13:12:47Z</time>
      </trkpt>
      <trkpt lat="44.99669" lon="6.13587">
        <ele>1958.2</ele>
        <time>2022-12-29T13:12:48Z</time>
      </trkpt>
      <trkpt lat="44.99668" lon="6.13586">
        <ele>1958.2</ele>
        <time>2022-12-29T13:12:49Z</time>
      </trkpt>
      <trkpt lat="44.99666" lon="6.13586">
        <ele>1958.2</ele>
        <time>2022-12-29T13:12:50Z</time>
      </trkpt>
      <trkpt lat="44.99665" lon="6.13586">
        <ele>1958.2</ele>
        <time>2022-12-29T13:12:51Z</time>
      </trkpt>
      <trkpt lat="44.99664" lon="6.13586">
        <ele>1958.2</ele>
        <time>2022-12-29T13:12:52Z</time>
      </trkpt>
      <trkpt lat="44.99663" lon="6.13586">
        <ele>1958.2</ele>
        <time>2022-12-29T13:12:53Z</time>
      </trkpt>
      <trkpt lat="44.99662" lon="6.13585">
        <ele>1958.2</ele>
        <time>2022-12-29T13:12:54Z</time>
      </trkpt>
      <trkpt lat="44.99661" lon="6.13585">
        <ele>1958.2</ele>
        <time>2022-12-29T13:12:55Z</time>
      </trkpt>
      <trkpt lat="44.99659" lon="6.13585">
        <ele>1960</ele>
        <time>2022-12-29T13:12:56Z</time>
      </trkpt>
      <trkpt lat="44.99658" lon="6.13585">
        <ele>1960</ele>
        <time>2022-12-29T13:12:57Z</time>
      </trkpt>
      <trkpt lat="44.99657" lon="6.13584">
        <ele>1960</ele>
        <time>2022-12-29T13:12:58Z</time>
      </trkpt>
      <trkpt lat="44.99657" lon="6.13584">
        <ele>1960</ele>
        <time>2022-12-29T13:12:59Z</time>
      </trkpt>
      <trkpt lat="44.99656" lon="6.13584">
        <ele>1960</ele>
        <time>2022-12-29T13:13:00Z</time>
      </trkpt>
      <trkpt lat="44.99655" lon="6.13584">
        <ele>1960</ele>
        <time>2022-12-29T13:13:01Z</time>
      </trkpt>
      <trkpt lat="44.99655" lon="6.13584">
        <ele>1960</ele>
        <time>2022-12-29T13:13:02Z</time>
      </trkpt>
      <trkpt lat="44.99654" lon="6.13584">
        <ele>1960</ele>
        <time>2022-12-29T13:13:03Z</time>
      </trkpt>
      <trkpt lat="44.99654" lon="6.13583">
        <ele>1960</ele>
        <time>2022-12-29T13:13:04Z</time>
      </trkpt>
      <trkpt lat="44.99653" lon="6.13583">
        <ele>1960</ele>
        <time>2022-12-29T13:13:05Z</time>
      </trkpt>
      <trkpt lat="44.99653" lon="6.13583">
        <ele>1961.6</ele>
        <time>2022-12-29T13:13:06Z</time>
      </trkpt>
      <trkpt lat="44.99652" lon="6.13583">
        <ele>1961.6</ele>
        <time>2022-12-29T13:13:07Z</time>
      </trkpt>
      <trkpt lat="44.99651" lon="6.13583">
        <ele>1961.6</ele>
        <time>2022-12-29T13:13:08Z</time>
      </trkpt>
      <trkpt lat="44.99651" lon="6.13583">
        <ele>1961.6</ele>
        <time>2022-12-29T13:13:09Z</time>
      </trkpt>
      <trkpt lat="44.9965" lon="6.13583">
        <ele>1961.6</ele>
        <time>2022-12-29T13:13:10Z</time>
      </trkpt>
      <trkpt lat="44.99649" lon="6.13583">
        <ele>1961.6</ele>
        <time>2022-12-29T13:13:11Z</time>
      </trkpt>
      <trkpt lat="44.99649" lon="6.13583">
        <ele>1961.6</ele>
        <time>2022-12-29T13:13:12Z</time>
      </trkpt>
      <trkpt lat="44.99648" lon="6.13583">
        <ele>1961.6</ele>
        <time>2022-12-29T13:13:13Z</time>
      </trkpt>
      <trkpt lat="44.99648" lon="6.13583">
        <ele>1961.6</ele>
        <time>2022-12-29T13:13:14Z</time>
      </trkpt>
      <trkpt lat="44.99647" lon="6.13583">
        <ele>1961.6</ele>
        <time>2022-12-29T13:13:15Z</time>
      </trkpt>
      <trkpt lat="44.99646" lon="6.13583">
        <ele>1963</ele>
        <time>2022-12-29T13:13:16Z</time>
      </trkpt>
      <trkpt lat="44.99646" lon="6.13583">
        <ele>1963</ele>
        <time>2022-12-29T13:13:17Z</time>
      </trkpt>
      <trkpt lat="44.99646" lon="6.13583">
        <ele>1963</ele>
        <time>2022-12-29T13:13:18Z</time>
      </trkpt>
      <trkpt lat="44.99645" lon="6.13583">
        <ele>1963</ele>
        <time>2022-12-29T13:13:19Z</time>
      </trkpt>
      <trkpt lat="44.99645" lon="6.13583">
        <ele>1963</ele>
        <time>2022-12-29T13:13:20Z</time>
      </trkpt>
      <trkpt lat="44.99644" lon="6.13583">
        <ele>1963</ele>
        <time>2022-12-29T13:13:21Z</time>
      </trkpt>
      <trkpt lat="44.99644" lon="6.13583">
        <ele>1963</ele>
        <time>2022-12-29T13:13:22Z</time>
      </trkpt>
      <trkpt lat="44.99644" lon="6.13584">
        <ele>1963</ele>
        <time>2022-12-29T13:13:23Z</time>
      </trkpt>
      <trkpt lat="44.99643" lon="6.13584">
        <ele>1963</ele>
        <time>2022-12-29T13:13:24Z</time>
      </trkpt>
      <trkpt lat="44.99643" lon="6.13584">
        <ele>1963</ele>
        <time>2022-12-29T13:13:25Z</time>
      </trkpt>
      <trkpt lat="44.99642" lon="6.13584">
        <ele>1964.4</ele>
        <time>2022-12-29T13:13:26Z</time>
      </trkpt>
      <trkpt lat="44.99639" lon="6.13584">
        <ele>1964.4</ele>
        <time>2022-12-29T13:13:27Z</time>
      </trkpt>
      <trkpt lat="44.99639" lon="6.13584">
        <ele>1964.4</ele>
        <time>2022-12-29T13:13:28Z</time>
      </trkpt>
      <trkpt lat="44.99638" lon="6.13584">
        <ele>1964.4</ele>
        <time>2022-12-29T13:13:29Z</time>
      </trkpt>
      <trkpt lat="44.99638" lon="6.13584">
        <ele>1964.4</ele>
        <time>2022-12-29T13:13:30Z</time>
      </trkpt>
      <trkpt lat="44.99637" lon="6.13584">
        <ele>1964.4</ele>
        <time>2022-12-29T13:13:31Z</time>
      </trkpt>
      <trkpt lat="44.99637" lon="6.13584">
        <ele>1964.4</ele>
        <time>2022-12-29T13:13:32Z</time>
      </trkpt>
      <trkpt lat="44.99636" lon="6.13584">
        <ele>1964.4</ele>
        <time>2022-12-29T13:13:33Z</time>
      </trkpt>
      <trkpt lat="44.99635" lon="6.13584">
        <ele>1964.4</ele>
        <time>2022-12-29T13:13:34Z</time>
      </trkpt>
      <trkpt lat="44.99635" lon="6.13584">
        <ele>1964.4</ele>
        <time>2022-12-29T13:13:35Z</time>
      </trkpt>
      <trkpt lat="44.99634" lon="6.13584">
        <ele>1966</ele>
        <time>2022-12-29T13:13:36Z</time>
      </trkpt>
      <trkpt lat="44.99634" lon="6.13584">
        <ele>1966</ele>
        <time>2022-12-29T13:13:37Z</time>
      </trkpt>
      <trkpt lat="44.99634" lon="6.13584">
        <ele>1966</ele>
        <time>2022-12-29T13:13:38Z</time>
      </trkpt>
      <trkpt lat="44.99632" lon="6.13583">
        <ele>1966</ele>
        <time>2022-12-29T13:13:39Z</time>
      </trkpt>
      <trkpt lat="44.99632" lon="6.13583">
        <ele>1966</ele>
        <time>2022-12-29T13:13:40Z</time>
      </trkpt>
      <trkpt lat="44.99632" lon="6.13583">
        <ele>1966</ele>
        <time>2022-12-29T13:13:41Z</time>
      </trkpt>
      <trkpt lat="44.99632" lon="6.13583">
        <ele>1966</ele>
        <time>2022-12-29T13:13:42Z</time>
      </trkpt>
      <trkpt lat="44.99632" lon="6.13583">
        <ele>1966</ele>
        <time>2022-12-29T13:13:43Z</time>
      </trkpt>
      <trkpt lat="44.99632" lon="6.13583">
        <ele>1966</ele>
        <time>2022-12-29T13:13:44Z</time>
      </trkpt>
      <trkpt lat="44.99632" lon="6.13583">
        <ele>1966</ele>
        <time>2022-12-29T13:13:45Z</time>
      </trkpt>
      <trkpt lat="44.99632" lon="6.13583">
        <ele>1966.4</ele>
        <time>2022-12-29T13:13:46Z</time>
      </trkpt>
      <trkpt lat="44.99632" lon="6.13583">
        <ele>1966.4</ele>
        <time>2022-12-29T13:13:47Z</time>
      </trkpt>
      <trkpt lat="44.99632" lon="6.13583">
        <ele>1966.4</ele>
        <time>2022-12-29T13:13:48Z</time>
      </trkpt>
      <trkpt lat="44.99632" lon="6.13583">
        <ele>1966.4</ele>
        <time>2022-12-29T13:13:49Z</time>
      </trkpt>
      <trkpt lat="44.99632" lon="6.13583">
        <ele>1966.4</ele>
        <time>2022-12-29T13:13:50Z</time>
      </trkpt>
      <trkpt lat="44.99631" lon="6.13583">
        <ele>1966.4</ele>
        <time>2022-12-29T13:13:51Z</time>
      </trkpt>
      <trkpt lat="44.99631" lon="6.13583">
        <ele>1966.4</ele>
        <time>2022-12-29T13:13:52Z</time>
      </trkpt>
      <trkpt lat="44.99631" lon="6.13583">
        <ele>1966.4</ele>
        <time>2022-12-29T13:13:53Z</time>
      </trkpt>
      <trkpt lat="44.99631" lon="6.13583">
        <ele>1966.4</ele>
        <time>2022-12-29T13:13:54Z</time>
      </trkpt>
      <trkpt lat="44.99631" lon="6.13583">
        <ele>1966.4</ele>
        <time>2022-12-29T13:13:55Z</time>
      </trkpt>
      <trkpt lat="44.9963" lon="6.13583">
        <ele>1966</ele>
        <time>2022-12-29T13:13:56Z</time>
      </trkpt>
      <trkpt lat="44.9963" lon="6.13583">
        <ele>1966</ele>
        <time>2022-12-29T13:13:57Z</time>
      </trkpt>
      <trkpt lat="44.9963" lon="6.13583">
        <ele>1966</ele>
        <time>2022-12-29T13:13:58Z</time>
      </trkpt>
      <trkpt lat="44.9963" lon="6.13583">
        <ele>1966</ele>
        <time>2022-12-29T13:13:59Z</time>
      </trkpt>
      <trkpt lat="44.9963" lon="6.13583">
        <ele>1966</ele>
        <time>2022-12-29T13:14:00Z</time>
      </trkpt>
      <trkpt lat="44.99629" lon="6.13583">
        <ele>1966</ele>
        <time>2022-12-29T13:14:01Z</time>
      </trkpt>
      <trkpt lat="44.99629" lon="6.13583">
        <ele>1966</ele>
        <time>2022-12-29T13:14:02Z</time>
      </trkpt>
      <trkpt lat="44.99629" lon="6.13584">
        <ele>1966</ele>
        <time>2022-12-29T13:14:03Z</time>
      </trkpt>
      <trkpt lat="44.99629" lon="6.13584">
        <ele>1966</ele>
        <time>2022-12-29T13:14:04Z</time>
      </trkpt>
      <trkpt lat="44.99629" lon="6.13584">
        <ele>1966</ele>
        <time>2022-12-29T13:14:05Z</time>
      </trkpt>
      <trkpt lat="44.99628" lon="6.13584">
        <ele>1966.4</ele>
        <time>2022-12-29T13:14:06Z</time>
      </trkpt>
      <trkpt lat="44.99628" lon="6.13584">
        <ele>1966.4</ele>
        <time>2022-12-29T13:14:07Z</time>
      </trkpt>
      <trkpt lat="44.99628" lon="6.13584">
        <ele>1966.4</ele>
        <time>2022-12-29T13:14:08Z</time>
      </trkpt>
      <trkpt lat="44.99628" lon="6.13584">
        <ele>1966.4</ele>
        <time>2022-12-29T13:14:09Z</time>
      </trkpt>
      <trkpt lat="44.99628" lon="6.13584">
        <ele>1966.4</ele>
        <time>2022-12-29T13:14:10Z</time>
      </trkpt>
      <trkpt lat="44.99627" lon="6.13584">
        <ele>1966.4</ele>
        <time>2022-12-29T13:14:11Z</time>
      </trkpt>
      <trkpt lat="44.99627" lon="6.13584">
        <ele>1966.4</ele>
        <time>2022-12-29T13:14:12Z</time>
      </trkpt>
      <trkpt lat="44.99627" lon="6.13584">
        <ele>1966.4</ele>
        <time>2022-12-29T13:14:13Z</time>
      </trkpt>
      <trkpt lat="44.99627" lon="6.13584">
        <ele>1966.4</ele>
        <time>2022-12-29T13:14:14Z</time>
      </trkpt>
      <trkpt lat="44.99627" lon="6.13584">
        <ele>1966.4</ele>
        <time>2022-12-29T13:14:15Z</time>
      </trkpt>
      <trkpt lat="44.99626" lon="6.13584">
        <ele>1968.2</ele>
        <time>2022-12-29T13:14:16Z</time>
      </trkpt>
      <trkpt lat="44.99626" lon="6.13584">
        <ele>1968.2</ele>
        <time>2022-12-29T13:14:17Z</time>
      </trkpt>
      <trkpt lat="44.99626" lon="6.13584">
        <ele>1968.2</ele>
        <time>2022-12-29T13:14:18Z</time>
      </trkpt>
      <trkpt lat="44.99626" lon="6.13584">
        <ele>1968.2</ele>
        <time>2022-12-29T13:14:19Z</time>
      </trkpt>
      <trkpt lat="44.99626" lon="6.13584">
        <ele>1968.2</ele>
        <time>2022-12-29T13:14:20Z</time>
      </trkpt>
      <trkpt lat="44.99625" lon="6.13584">
        <ele>1968.2</ele>
        <time>2022-12-29T13:14:21Z</time>
      </trkpt>
      <trkpt lat="44.99625" lon="6.13584">
        <ele>1968.2</ele>
        <time>2022-12-29T13:14:22Z</time>
      </trkpt>
      <trkpt lat="44.99625" lon="6.13584">
        <ele>1968.2</ele>
        <time>2022-12-29T13:14:23Z</time>
      </trkpt>
      <trkpt lat="44.99625" lon="6.13584">
        <ele>1968.2</ele>
        <time>2022-12-29T13:14:24Z</time>
      </trkpt>
      <trkpt lat="44.99625" lon="6.13584">
        <ele>1968.2</ele>
        <time>2022-12-29T13:14:25Z</time>
      </trkpt>
      <trkpt lat="44.99624" lon="6.13584">
        <ele>1968.8</ele>
        <time>2022-12-29T13:14:26Z</time>
      </trkpt>
      <trkpt lat="44.99624" lon="6.13584">
        <ele>1968.8</ele>
        <time>2022-12-29T13:14:27Z</time>
      </trkpt>
      <trkpt lat="44.99624" lon="6.13585">
        <ele>1968.8</ele>
        <time>2022-12-29T13:14:28Z</time>
      </trkpt>
      <trkpt lat="44.99624" lon="6.13585">
        <ele>1968.8</ele>
        <time>2022-12-29T13:14:29Z</time>
      </trkpt>
      <trkpt lat="44.99624" lon="6.13585">
        <ele>1968.8</ele>
        <time>2022-12-29T13:14:30Z</time>
      </trkpt>
      <trkpt lat="44.99624" lon="6.13585">
        <ele>1968.8</ele>
        <time>2022-12-29T13:14:31Z</time>
      </trkpt>
      <trkpt lat="44.99624" lon="6.13585">
        <ele>1968.8</ele>
        <time>2022-12-29T13:14:32Z</time>
      </trkpt>
      <trkpt lat="44.99624" lon="6.13585">
        <ele>1968.8</ele>
        <time>2022-12-29T13:14:33Z</time>
      </trkpt>
      <trkpt lat="44.99624" lon="6.13585">
        <ele>1968.8</ele>
        <time>2022-12-29T13:14:34Z</time>
      </trkpt>
      <trkpt lat="44.99624" lon="6.13585">
        <ele>1968.8</ele>
        <time>2022-12-29T13:14:35Z</time>
      </trkpt>
      <trkpt lat="44.99624" lon="6.13585">
        <ele>1968.6</ele>
        <time>2022-12-29T13:14:36Z</time>
      </trkpt>
      <trkpt lat="44.99624" lon="6.13585">
        <ele>1968.6</ele>
        <time>2022-12-29T13:14:37Z</time>
      </trkpt>
      <trkpt lat="44.99624" lon="6.13585">
        <ele>1968.6</ele>
        <time>2022-12-29T13:14:38Z</time>
      </trkpt>
      <trkpt lat="44.99623" lon="6.13585">
        <ele>1968.6</ele>
        <time>2022-12-29T13:14:39Z</time>
      </trkpt>
      <trkpt lat="44.99623" lon="6.13586">
        <ele>1968.6</ele>
        <time>2022-12-29T13:14:40Z</time>
      </trkpt>
      <trkpt lat="44.99623" lon="6.13586">
        <ele>1968.6</ele>
        <time>2022-12-29T13:14:41Z</time>
      </trkpt>
      <trkpt lat="44.99623" lon="6.13586">
        <ele>1968.6</ele>
        <time>2022-12-29T13:14:42Z</time>
      </trkpt>
      <trkpt lat="44.99623" lon="6.13586">
        <ele>1968.6</ele>
        <time>2022-12-29T13:14:45Z</time>
      </trkpt>
      <trkpt lat="44.99623" lon="6.13586">
        <ele>1968.8</ele>
        <time>2022-12-29T13:14:46Z</time>
      </trkpt>
      <trkpt lat="44.99623" lon="6.13586">
        <ele>1968.8</ele>
        <time>2022-12-29T13:14:47Z</time>
      </trkpt>
      <trkpt lat="44.99623" lon="6.13586">
        <ele>1968.8</ele>
        <time>2022-12-29T13:14:48Z</time>
      </trkpt>
      <trkpt lat="44.99623" lon="6.13586">
        <ele>1968.8</ele>
        <time>2022-12-29T13:14:49Z</time>
      </trkpt>
      <trkpt lat="44.99623" lon="6.13586">
        <ele>1968.8</ele>
        <time>2022-12-29T13:14:50Z</time>
      </trkpt>
      <trkpt lat="44.99623" lon="6.13586">
        <ele>1968.8</ele>
        <time>2022-12-29T13:14:51Z</time>
      </trkpt>
      <trkpt lat="44.99623" lon="6.13586">
        <ele>1968.8</ele>
        <time>2022-12-29T13:14:52Z</time>
      </trkpt>
      <trkpt lat="44.99623" lon="6.13586">
        <ele>1968.8</ele>
        <time>2022-12-29T13:14:53Z</time>
      </trkpt>
      <trkpt lat="44.99623" lon="6.13586">
        <ele>1968.8</ele>
        <time>2022-12-29T13:14:54Z</time>
      </trkpt>
      <trkpt lat="44.99623" lon="6.13587">
        <ele>1968.8</ele>
        <time>2022-12-29T13:14:55Z</time>
      </trkpt>
      <trkpt lat="44.99622" lon="6.13587">
        <ele>1970</ele>
        <time>2022-12-29T13:14:56Z</time>
      </trkpt>
      <trkpt lat="44.99622" lon="6.13587">
        <ele>1970</ele>
        <time>2022-12-29T13:14:57Z</time>
      </trkpt>
      <trkpt lat="44.99622" lon="6.13587">
        <ele>1970</ele>
        <time>2022-12-29T13:14:58Z</time>
      </trkpt>
      <trkpt lat="44.99622" lon="6.13587">
        <ele>1970</ele>
        <time>2022-12-29T13:14:59Z</time>
      </trkpt>
      <trkpt lat="44.99622" lon="6.13587">
        <ele>1970</ele>
        <time>2022-12-29T13:15:00Z</time>
      </trkpt>
      <trkpt lat="44.99622" lon="6.13587">
        <ele>1970</ele>
        <time>2022-12-29T13:15:01Z</time>
      </trkpt>
      <trkpt lat="44.99622" lon="6.13587">
        <ele>1970</ele>
        <time>2022-12-29T13:15:02Z</time>
      </trkpt>
      <trkpt lat="44.99622" lon="6.13587">
        <ele>1970</ele>
        <time>2022-12-29T13:15:03Z</time>
      </trkpt>
      <trkpt lat="44.99622" lon="6.13587">
        <ele>1970</ele>
        <time>2022-12-29T13:15:04Z</time>
      </trkpt>
      <trkpt lat="44.99622" lon="6.13587">
        <ele>1970</ele>
        <time>2022-12-29T13:15:05Z</time>
      </trkpt>
      <trkpt lat="44.99622" lon="6.13587">
        <ele>1968.8</ele>
        <time>2022-12-29T13:15:06Z</time>
      </trkpt>
      <trkpt lat="44.99622" lon="6.13588">
        <ele>1968.8</ele>
        <time>2022-12-29T13:15:07Z</time>
      </trkpt>
      <trkpt lat="44.99622" lon="6.13588">
        <ele>1968.8</ele>
        <time>2022-12-29T13:15:08Z</time>
      </trkpt>
      <trkpt lat="44.99622" lon="6.13588">
        <ele>1968.8</ele>
        <time>2022-12-29T13:15:11Z</time>
      </trkpt>
      <trkpt lat="44.99622" lon="6.13588">
        <ele>1968.8</ele>
        <time>2022-12-29T13:15:12Z</time>
      </trkpt>
      <trkpt lat="44.99621" lon="6.13588">
        <ele>1968.8</ele>
        <time>2022-12-29T13:15:13Z</time>
      </trkpt>
      <trkpt lat="44.99621" lon="6.13588">
        <ele>1968.8</ele>
        <time>2022-12-29T13:15:14Z</time>
      </trkpt>
      <trkpt lat="44.99621" lon="6.13588">
        <ele>1968.8</ele>
        <time>2022-12-29T13:15:15Z</time>
      </trkpt>
      <trkpt lat="44.99621" lon="6.13588">
        <ele>1970</ele>
        <time>2022-12-29T13:15:16Z</time>
      </trkpt>
      <trkpt lat="44.99621" lon="6.13588">
        <ele>1970</ele>
        <time>2022-12-29T13:15:17Z</time>
      </trkpt>
      <trkpt lat="44.99621" lon="6.13588">
        <ele>1970</ele>
        <time>2022-12-29T13:15:18Z</time>
      </trkpt>
      <trkpt lat="44.99621" lon="6.13588">
        <ele>1970</ele>
        <time>2022-12-29T13:15:19Z</time>
      </trkpt>
      <trkpt lat="44.99621" lon="6.13588">
        <ele>1970</ele>
        <time>2022-12-29T13:15:23Z</time>
      </trkpt>
      <trkpt lat="44.99621" lon="6.13588">
        <ele>1970</ele>
        <time>2022-12-29T13:15:25Z</time>
      </trkpt>
      <trkpt lat="44.99621" lon="6.13589">
        <ele>1970.2</ele>
        <time>2022-12-29T13:15:26Z</time>
      </trkpt>
      <trkpt lat="44.99621" lon="6.13589">
        <ele>1970.2</ele>
        <time>2022-12-29T13:15:27Z</time>
      </trkpt>
      <trkpt lat="44.99621" lon="6.1359">
        <ele>1970.2</ele>
        <time>2022-12-29T13:15:28Z</time>
      </trkpt>
      <trkpt lat="44.99621" lon="6.1359">
        <ele>1970.2</ele>
        <time>2022-12-29T13:15:29Z</time>
      </trkpt>
      <trkpt lat="44.99622" lon="6.1359">
        <ele>1970.2</ele>
        <time>2022-12-29T13:15:30Z</time>
      </trkpt>
      <trkpt lat="44.99622" lon="6.13591">
        <ele>1970.2</ele>
        <time>2022-12-29T13:15:31Z</time>
      </trkpt>
      <trkpt lat="44.99622" lon="6.13591">
        <ele>1970.2</ele>
        <time>2022-12-29T13:15:32Z</time>
      </trkpt>
      <trkpt lat="44.99622" lon="6.13592">
        <ele>1970.2</ele>
        <time>2022-12-29T13:15:33Z</time>
      </trkpt>
      <trkpt lat="44.99622" lon="6.13592">
        <ele>1970.2</ele>
        <time>2022-12-29T13:15:34Z</time>
      </trkpt>
      <trkpt lat="44.99623" lon="6.13593">
        <ele>1970.2</ele>
        <time>2022-12-29T13:15:35Z</time>
      </trkpt>
      <trkpt lat="44.99623" lon="6.13593">
        <ele>1970.8</ele>
        <time>2022-12-29T13:15:36Z</time>
      </trkpt>
      <trkpt lat="44.99623" lon="6.13594">
        <ele>1970.8</ele>
        <time>2022-12-29T13:15:37Z</time>
      </trkpt>
      <trkpt lat="44.99624" lon="6.13594">
        <ele>1970.8</ele>
        <time>2022-12-29T13:15:38Z</time>
      </trkpt>
      <trkpt lat="44.99624" lon="6.13595">
        <ele>1970.8</ele>
        <time>2022-12-29T13:15:39Z</time>
      </trkpt>
      <trkpt lat="44.99625" lon="6.13595">
        <ele>1970.8</ele>
        <time>2022-12-29T13:15:40Z</time>
      </trkpt>
      <trkpt lat="44.99626" lon="6.13596">
        <ele>1970.8</ele>
        <time>2022-12-29T13:15:41Z</time>
      </trkpt>
      <trkpt lat="44.99626" lon="6.13596">
        <ele>1970.8</ele>
        <time>2022-12-29T13:15:42Z</time>
      </trkpt>
      <trkpt lat="44.99627" lon="6.13596">
        <ele>1970.8</ele>
        <time>2022-12-29T13:15:43Z</time>
      </trkpt>
      <trkpt lat="44.99627" lon="6.13597">
        <ele>1970.8</ele>
        <time>2022-12-29T13:15:44Z</time>
      </trkpt>
      <trkpt lat="44.99628" lon="6.13597">
        <ele>1970.8</ele>
        <time>2022-12-29T13:15:45Z</time>
      </trkpt>
      <trkpt lat="44.99629" lon="6.13598">
        <ele>1972.6</ele>
        <time>2022-12-29T13:15:46Z</time>
      </trkpt>
      <trkpt lat="44.99631" lon="6.13599">
        <ele>1972.6</ele>
        <time>2022-12-29T13:15:47Z</time>
      </trkpt>
      <trkpt lat="44.99631" lon="6.136">
        <ele>1972.6</ele>
        <time>2022-12-29T13:15:48Z</time>
      </trkpt>
      <trkpt lat="44.99631" lon="6.13601">
        <ele>1972.6</ele>
        <time>2022-12-29T13:15:49Z</time>
      </trkpt>
      <trkpt lat="44.99632" lon="6.13601">
        <ele>1972.6</ele>
        <time>2022-12-29T13:15:50Z</time>
      </trkpt>
      <trkpt lat="44.99632" lon="6.13602">
        <ele>1972.6</ele>
        <time>2022-12-29T13:15:51Z</time>
      </trkpt>
      <trkpt lat="44.99633" lon="6.13602">
        <ele>1972.6</ele>
        <time>2022-12-29T13:15:52Z</time>
      </trkpt>
      <trkpt lat="44.99633" lon="6.13603">
        <ele>1972.6</ele>
        <time>2022-12-29T13:15:53Z</time>
      </trkpt>
      <trkpt lat="44.99633" lon="6.13603">
        <ele>1972.6</ele>
        <time>2022-12-29T13:15:54Z</time>
      </trkpt>
      <trkpt lat="44.99634" lon="6.13604">
        <ele>1972.6</ele>
        <time>2022-12-29T13:15:55Z</time>
      </trkpt>
      <trkpt lat="44.99634" lon="6.13605">
        <ele>1974.2</ele>
        <time>2022-12-29T13:15:56Z</time>
      </trkpt>
      <trkpt lat="44.99634" lon="6.13605">
        <ele>1974.2</ele>
        <time>2022-12-29T13:15:57Z</time>
      </trkpt>
      <trkpt lat="44.99634" lon="6.13605">
        <ele>1974.2</ele>
        <time>2022-12-29T13:15:58Z</time>
      </trkpt>
      <trkpt lat="44.99634" lon="6.13605">
        <ele>1974.2</ele>
        <time>2022-12-29T13:15:59Z</time>
      </trkpt>
      <trkpt lat="44.99636" lon="6.13606">
        <ele>1974.2</ele>
        <time>2022-12-29T13:16:00Z</time>
      </trkpt>
      <trkpt lat="44.99636" lon="6.13606">
        <ele>1974.2</ele>
        <time>2022-12-29T13:16:01Z</time>
      </trkpt>
      <trkpt lat="44.99636" lon="6.13606">
        <ele>1974.2</ele>
        <time>2022-12-29T13:16:02Z</time>
      </trkpt>
      <trkpt lat="44.99636" lon="6.13606">
        <ele>1974.2</ele>
        <time>2022-12-29T13:16:03Z</time>
      </trkpt>
      <trkpt lat="44.99636" lon="6.13606">
        <ele>1974.2</ele>
        <time>2022-12-29T13:16:04Z</time>
      </trkpt>
      <trkpt lat="44.99636" lon="6.13606">
        <ele>1974.2</ele>
        <time>2022-12-29T13:16:05Z</time>
      </trkpt>
      <trkpt lat="44.99636" lon="6.13606">
        <ele>1975.8</ele>
        <time>2022-12-29T13:16:06Z</time>
      </trkpt>
      <trkpt lat="44.99636" lon="6.13607">
        <ele>1975.8</ele>
        <time>2022-12-29T13:16:07Z</time>
      </trkpt>
      <trkpt lat="44.99636" lon="6.13607">
        <ele>1975.8</ele>
        <time>2022-12-29T13:16:08Z</time>
      </trkpt>
      <trkpt lat="44.99636" lon="6.13607">
        <ele>1975.8</ele>
        <time>2022-12-29T13:16:09Z</time>
      </trkpt>
      <trkpt lat="44.99636" lon="6.13607">
        <ele>1975.8</ele>
        <time>2022-12-29T13:16:10Z</time>
      </trkpt>
      <trkpt lat="44.99636" lon="6.13607">
        <ele>1975.8</ele>
        <time>2022-12-29T13:16:11Z</time>
      </trkpt>
      <trkpt lat="44.99635" lon="6.13608">
        <ele>1975.8</ele>
        <time>2022-12-29T13:16:12Z</time>
      </trkpt>
      <trkpt lat="44.99635" lon="6.13608">
        <ele>1975.8</ele>
        <time>2022-12-29T13:16:13Z</time>
      </trkpt>
      <trkpt lat="44.99635" lon="6.13608">
        <ele>1975.8</ele>
        <time>2022-12-29T13:16:14Z</time>
      </trkpt>
      <trkpt lat="44.99635" lon="6.13608">
        <ele>1975.8</ele>
        <time>2022-12-29T13:16:15Z</time>
      </trkpt>
      <trkpt lat="44.99635" lon="6.13608">
        <ele>1976.2</ele>
        <time>2022-12-29T13:16:16Z</time>
      </trkpt>
      <trkpt lat="44.99635" lon="6.13609">
        <ele>1976.2</ele>
        <time>2022-12-29T13:16:17Z</time>
      </trkpt>
      <trkpt lat="44.99635" lon="6.13609">
        <ele>1976.2</ele>
        <time>2022-12-29T13:16:18Z</time>
      </trkpt>
      <trkpt lat="44.99635" lon="6.13609">
        <ele>1976.2</ele>
        <time>2022-12-29T13:16:19Z</time>
      </trkpt>
      <trkpt lat="44.99634" lon="6.13609">
        <ele>1976.2</ele>
        <time>2022-12-29T13:16:20Z</time>
      </trkpt>
      <trkpt lat="44.99634" lon="6.13609">
        <ele>1976.2</ele>
        <time>2022-12-29T13:16:21Z</time>
      </trkpt>
      <trkpt lat="44.99634" lon="6.1361">
        <ele>1976.2</ele>
        <time>2022-12-29T13:16:22Z</time>
      </trkpt>
      <trkpt lat="44.99634" lon="6.1361">
        <ele>1976.2</ele>
        <time>2022-12-29T13:16:23Z</time>
      </trkpt>
      <trkpt lat="44.99634" lon="6.1361">
        <ele>1976.2</ele>
        <time>2022-12-29T13:16:24Z</time>
      </trkpt>
      <trkpt lat="44.99634" lon="6.1361">
        <ele>1976.2</ele>
        <time>2022-12-29T13:16:25Z</time>
      </trkpt>
      <trkpt lat="44.99634" lon="6.1361">
        <ele>1978</ele>
        <time>2022-12-29T13:16:26Z</time>
      </trkpt>
      <trkpt lat="44.99634" lon="6.13611">
        <ele>1978</ele>
        <time>2022-12-29T13:16:27Z</time>
      </trkpt>
      <trkpt lat="44.99633" lon="6.13611">
        <ele>1978</ele>
        <time>2022-12-29T13:16:28Z</time>
      </trkpt>
      <trkpt lat="44.99633" lon="6.13611">
        <ele>1978</ele>
        <time>2022-12-29T13:16:29Z</time>
      </trkpt>
      <trkpt lat="44.99633" lon="6.13611">
        <ele>1978</ele>
        <time>2022-12-29T13:16:30Z</time>
      </trkpt>
      <trkpt lat="44.99633" lon="6.13611">
        <ele>1978</ele>
        <time>2022-12-29T13:16:31Z</time>
      </trkpt>
      <trkpt lat="44.99633" lon="6.13612">
        <ele>1978</ele>
        <time>2022-12-29T13:16:32Z</time>
      </trkpt>
      <trkpt lat="44.99633" lon="6.13612">
        <ele>1978</ele>
        <time>2022-12-29T13:16:33Z</time>
      </trkpt>
      <trkpt lat="44.99633" lon="6.13612">
        <ele>1978</ele>
        <time>2022-12-29T13:16:34Z</time>
      </trkpt>
      <trkpt lat="44.99632" lon="6.13612">
        <ele>1978</ele>
        <time>2022-12-29T13:16:35Z</time>
      </trkpt>
      <trkpt lat="44.99632" lon="6.13612">
        <ele>1979.8</ele>
        <time>2022-12-29T13:16:36Z</time>
      </trkpt>
      <trkpt lat="44.99632" lon="6.13613">
        <ele>1979.8</ele>
        <time>2022-12-29T13:16:37Z</time>
      </trkpt>
      <trkpt lat="44.99631" lon="6.13613">
        <ele>1979.8</ele>
        <time>2022-12-29T13:16:38Z</time>
      </trkpt>
      <trkpt lat="44.9963" lon="6.13613">
        <ele>1979.8</ele>
        <time>2022-12-29T13:16:39Z</time>
      </trkpt>
      <trkpt lat="44.9963" lon="6.13614">
        <ele>1979.8</ele>
        <time>2022-12-29T13:16:40Z</time>
      </trkpt>
      <trkpt lat="44.99629" lon="6.13614">
        <ele>1979.8</ele>
        <time>2022-12-29T13:16:41Z</time>
      </trkpt>
      <trkpt lat="44.99629" lon="6.13614">
        <ele>1979.8</ele>
        <time>2022-12-29T13:16:42Z</time>
      </trkpt>
      <trkpt lat="44.99628" lon="6.13615">
        <ele>1979.8</ele>
        <time>2022-12-29T13:16:43Z</time>
      </trkpt>
      <trkpt lat="44.99627" lon="6.13615">
        <ele>1979.8</ele>
        <time>2022-12-29T13:16:44Z</time>
      </trkpt>
      <trkpt lat="44.99627" lon="6.13615">
        <ele>1979.8</ele>
        <time>2022-12-29T13:16:45Z</time>
      </trkpt>
      <trkpt lat="44.99626" lon="6.13616">
        <ele>1981</ele>
        <time>2022-12-29T13:16:46Z</time>
      </trkpt>
      <trkpt lat="44.99624" lon="6.13618">
        <ele>1981</ele>
        <time>2022-12-29T13:16:47Z</time>
      </trkpt>
      <trkpt lat="44.99624" lon="6.13618">
        <ele>1981</ele>
        <time>2022-12-29T13:16:48Z</time>
      </trkpt>
      <trkpt lat="44.99624" lon="6.13619">
        <ele>1981</ele>
        <time>2022-12-29T13:16:49Z</time>
      </trkpt>
      <trkpt lat="44.99623" lon="6.13619">
        <ele>1981</ele>
        <time>2022-12-29T13:16:50Z</time>
      </trkpt>
      <trkpt lat="44.99623" lon="6.13619">
        <ele>1981</ele>
        <time>2022-12-29T13:16:51Z</time>
      </trkpt>
      <trkpt lat="44.99623" lon="6.1362">
        <ele>1981</ele>
        <time>2022-12-29T13:16:52Z</time>
      </trkpt>
      <trkpt lat="44.99622" lon="6.1362">
        <ele>1981</ele>
        <time>2022-12-29T13:16:53Z</time>
      </trkpt>
      <trkpt lat="44.99622" lon="6.13621">
        <ele>1981</ele>
        <time>2022-12-29T13:16:54Z</time>
      </trkpt>
      <trkpt lat="44.99622" lon="6.13621">
        <ele>1981</ele>
        <time>2022-12-29T13:16:55Z</time>
      </trkpt>
      <trkpt lat="44.99621" lon="6.13621">
        <ele>1982.4</ele>
        <time>2022-12-29T13:16:56Z</time>
      </trkpt>
      <trkpt lat="44.99619" lon="6.13624">
        <ele>1982.4</ele>
        <time>2022-12-29T13:16:57Z</time>
      </trkpt>
      <trkpt lat="44.99619" lon="6.13624">
        <ele>1982.4</ele>
        <time>2022-12-29T13:16:58Z</time>
      </trkpt>
      <trkpt lat="44.99619" lon="6.13624">
        <ele>1982.4</ele>
        <time>2022-12-29T13:16:59Z</time>
      </trkpt>
      <trkpt lat="44.99619" lon="6.13625">
        <ele>1982.4</ele>
        <time>2022-12-29T13:17:00Z</time>
      </trkpt>
      <trkpt lat="44.99618" lon="6.13625">
        <ele>1982.4</ele>
        <time>2022-12-29T13:17:01Z</time>
      </trkpt>
      <trkpt lat="44.99618" lon="6.13626">
        <ele>1982.4</ele>
        <time>2022-12-29T13:17:02Z</time>
      </trkpt>
      <trkpt lat="44.99618" lon="6.13626">
        <ele>1982.4</ele>
        <time>2022-12-29T13:17:03Z</time>
      </trkpt>
      <trkpt lat="44.99618" lon="6.13626">
        <ele>1982.4</ele>
        <time>2022-12-29T13:17:04Z</time>
      </trkpt>
      <trkpt lat="44.99618" lon="6.13627">
        <ele>1982.4</ele>
        <time>2022-12-29T13:17:05Z</time>
      </trkpt>
      <trkpt lat="44.99617" lon="6.13627">
        <ele>1984</ele>
        <time>2022-12-29T13:17:06Z</time>
      </trkpt>
      <trkpt lat="44.99618" lon="6.13627">
        <ele>1984</ele>
        <time>2022-12-29T13:17:07Z</time>
      </trkpt>
      <trkpt lat="44.99618" lon="6.13628">
        <ele>1984</ele>
        <time>2022-12-29T13:17:08Z</time>
      </trkpt>
      <trkpt lat="44.99619" lon="6.13628">
        <ele>1984</ele>
        <time>2022-12-29T13:17:09Z</time>
      </trkpt>
      <trkpt lat="44.99619" lon="6.13628">
        <ele>1984</ele>
        <time>2022-12-29T13:17:10Z</time>
      </trkpt>
      <trkpt lat="44.99619" lon="6.13629">
        <ele>1984</ele>
        <time>2022-12-29T13:17:11Z</time>
      </trkpt>
      <trkpt lat="44.9962" lon="6.13629">
        <ele>1984</ele>
        <time>2022-12-29T13:17:12Z</time>
      </trkpt>
      <trkpt lat="44.9962" lon="6.13629">
        <ele>1984</ele>
        <time>2022-12-29T13:17:13Z</time>
      </trkpt>
      <trkpt lat="44.99621" lon="6.13629">
        <ele>1984</ele>
        <time>2022-12-29T13:17:14Z</time>
      </trkpt>
      <trkpt lat="44.99621" lon="6.1363">
        <ele>1984</ele>
        <time>2022-12-29T13:17:15Z</time>
      </trkpt>
      <trkpt lat="44.99621" lon="6.1363">
        <ele>1984.8</ele>
        <time>2022-12-29T13:17:16Z</time>
      </trkpt>
      <trkpt lat="44.99622" lon="6.13631">
        <ele>1984.8</ele>
        <time>2022-12-29T13:17:17Z</time>
      </trkpt>
      <trkpt lat="44.99623" lon="6.13631">
        <ele>1984.8</ele>
        <time>2022-12-29T13:17:18Z</time>
      </trkpt>
      <trkpt lat="44.99623" lon="6.13631">
        <ele>1984.8</ele>
        <time>2022-12-29T13:17:19Z</time>
      </trkpt>
      <trkpt lat="44.99624" lon="6.13632">
        <ele>1984.8</ele>
        <time>2022-12-29T13:17:20Z</time>
      </trkpt>
      <trkpt lat="44.99624" lon="6.13632">
        <ele>1984.8</ele>
        <time>2022-12-29T13:17:21Z</time>
      </trkpt>
      <trkpt lat="44.99625" lon="6.13633">
        <ele>1984.8</ele>
        <time>2022-12-29T13:17:22Z</time>
      </trkpt>
      <trkpt lat="44.99625" lon="6.13633">
        <ele>1984.8</ele>
        <time>2022-12-29T13:17:23Z</time>
      </trkpt>
      <trkpt lat="44.99626" lon="6.13634">
        <ele>1984.8</ele>
        <time>2022-12-29T13:17:24Z</time>
      </trkpt>
      <trkpt lat="44.99626" lon="6.13634">
        <ele>1984.8</ele>
        <time>2022-12-29T13:17:25Z</time>
      </trkpt>
      <trkpt lat="44.99627" lon="6.13635">
        <ele>1986.4</ele>
        <time>2022-12-29T13:17:26Z</time>
      </trkpt>
      <trkpt lat="44.99627" lon="6.13635">
        <ele>1986.4</ele>
        <time>2022-12-29T13:17:27Z</time>
      </trkpt>
      <trkpt lat="44.99628" lon="6.13635">
        <ele>1986.4</ele>
        <time>2022-12-29T13:17:28Z</time>
      </trkpt>
      <trkpt lat="44.99629" lon="6.13635">
        <ele>1986.4</ele>
        <time>2022-12-29T13:17:29Z</time>
      </trkpt>
      <trkpt lat="44.99629" lon="6.13636">
        <ele>1986.4</ele>
        <time>2022-12-29T13:17:30Z</time>
      </trkpt>
      <trkpt lat="44.9963" lon="6.13636">
        <ele>1986.4</ele>
        <time>2022-12-29T13:17:31Z</time>
      </trkpt>
      <trkpt lat="44.9963" lon="6.13636">
        <ele>1986.4</ele>
        <time>2022-12-29T13:17:32Z</time>
      </trkpt>
      <trkpt lat="44.99631" lon="6.13637">
        <ele>1986.4</ele>
        <time>2022-12-29T13:17:33Z</time>
      </trkpt>
      <trkpt lat="44.99631" lon="6.13637">
        <ele>1986.4</ele>
        <time>2022-12-29T13:17:34Z</time>
      </trkpt>
      <trkpt lat="44.99632" lon="6.13637">
        <ele>1986.4</ele>
        <time>2022-12-29T13:17:35Z</time>
      </trkpt>
      <trkpt lat="44.99632" lon="6.13638">
        <ele>1988.4</ele>
        <time>2022-12-29T13:17:36Z</time>
      </trkpt>
      <trkpt lat="44.99632" lon="6.13638">
        <ele>1988.4</ele>
        <time>2022-12-29T13:17:37Z</time>
      </trkpt>
      <trkpt lat="44.99632" lon="6.13638">
        <ele>1988.4</ele>
        <time>2022-12-29T13:17:38Z</time>
      </trkpt>
      <trkpt lat="44.99632" lon="6.13638">
        <ele>1988.4</ele>
        <time>2022-12-29T13:17:39Z</time>
      </trkpt>
      <trkpt lat="44.99634" lon="6.13638">
        <ele>1988.4</ele>
        <time>2022-12-29T13:17:40Z</time>
      </trkpt>
      <trkpt lat="44.99634" lon="6.13638">
        <ele>1988.4</ele>
        <time>2022-12-29T13:17:41Z</time>
      </trkpt>
      <trkpt lat="44.99634" lon="6.13638">
        <ele>1988.4</ele>
        <time>2022-12-29T13:17:42Z</time>
      </trkpt>
      <trkpt lat="44.99634" lon="6.13638">
        <ele>1988.4</ele>
        <time>2022-12-29T13:17:43Z</time>
      </trkpt>
      <trkpt lat="44.99634" lon="6.13638">
        <ele>1988.4</ele>
        <time>2022-12-29T13:17:44Z</time>
      </trkpt>
      <trkpt lat="44.99636" lon="6.1364">
        <ele>1988.4</ele>
        <time>2022-12-29T13:17:45Z</time>
      </trkpt>
      <trkpt lat="44.99636" lon="6.1364">
        <ele>1990</ele>
        <time>2022-12-29T13:17:46Z</time>
      </trkpt>
      <trkpt lat="44.99636" lon="6.1364">
        <ele>1990</ele>
        <time>2022-12-29T13:17:47Z</time>
      </trkpt>
      <trkpt lat="44.99636" lon="6.13641">
        <ele>1990</ele>
        <time>2022-12-29T13:17:48Z</time>
      </trkpt>
      <trkpt lat="44.99636" lon="6.13641">
        <ele>1990</ele>
        <time>2022-12-29T13:17:49Z</time>
      </trkpt>
      <trkpt lat="44.99636" lon="6.13642">
        <ele>1990</ele>
        <time>2022-12-29T13:17:50Z</time>
      </trkpt>
      <trkpt lat="44.99636" lon="6.13642">
        <ele>1990</ele>
        <time>2022-12-29T13:17:51Z</time>
      </trkpt>
      <trkpt lat="44.99637" lon="6.13643">
        <ele>1990</ele>
        <time>2022-12-29T13:17:52Z</time>
      </trkpt>
      <trkpt lat="44.99637" lon="6.13644">
        <ele>1990</ele>
        <time>2022-12-29T13:17:55Z</time>
      </trkpt>
      <trkpt lat="44.99637" lon="6.13644">
        <ele>1992.4</ele>
        <time>2022-12-29T13:17:56Z</time>
      </trkpt>
      <trkpt lat="44.99634" lon="6.13645">
        <ele>1992.4</ele>
        <time>2022-12-29T13:17:57Z</time>
      </trkpt>
      <trkpt lat="44.99633" lon="6.13645">
        <ele>1992.4</ele>
        <time>2022-12-29T13:17:58Z</time>
      </trkpt>
      <trkpt lat="44.99633" lon="6.13646">
        <ele>1992.4</ele>
        <time>2022-12-29T13:17:59Z</time>
      </trkpt>
      <trkpt lat="44.99632" lon="6.13646">
        <ele>1992.4</ele>
        <time>2022-12-29T13:18:00Z</time>
      </trkpt>
      <trkpt lat="44.99631" lon="6.13646">
        <ele>1992.4</ele>
        <time>2022-12-29T13:18:01Z</time>
      </trkpt>
      <trkpt lat="44.9963" lon="6.13647">
        <ele>1992.4</ele>
        <time>2022-12-29T13:18:02Z</time>
      </trkpt>
      <trkpt lat="44.99629" lon="6.13647">
        <ele>1992.4</ele>
        <time>2022-12-29T13:18:03Z</time>
      </trkpt>
      <trkpt lat="44.99629" lon="6.13647">
        <ele>1992.4</ele>
        <time>2022-12-29T13:18:04Z</time>
      </trkpt>
      <trkpt lat="44.99628" lon="6.13648">
        <ele>1992.4</ele>
        <time>2022-12-29T13:18:05Z</time>
      </trkpt>
      <trkpt lat="44.99627" lon="6.13648">
        <ele>1993.8</ele>
        <time>2022-12-29T13:18:06Z</time>
      </trkpt>
      <trkpt lat="44.99626" lon="6.13649">
        <ele>1993.8</ele>
        <time>2022-12-29T13:18:07Z</time>
      </trkpt>
      <trkpt lat="44.99625" lon="6.13649">
        <ele>1993.8</ele>
        <time>2022-12-29T13:18:08Z</time>
      </trkpt>
      <trkpt lat="44.99625" lon="6.1365">
        <ele>1993.8</ele>
        <time>2022-12-29T13:18:09Z</time>
      </trkpt>
      <trkpt lat="44.99625" lon="6.1365">
        <ele>1993.8</ele>
        <time>2022-12-29T13:18:10Z</time>
      </trkpt>
      <trkpt lat="44.99624" lon="6.13651">
        <ele>1993.8</ele>
        <time>2022-12-29T13:18:11Z</time>
      </trkpt>
      <trkpt lat="44.99624" lon="6.13651">
        <ele>1993.8</ele>
        <time>2022-12-29T13:18:12Z</time>
      </trkpt>
      <trkpt lat="44.99624" lon="6.13652">
        <ele>1993.8</ele>
        <time>2022-12-29T13:18:13Z</time>
      </trkpt>
      <trkpt lat="44.99623" lon="6.13652">
        <ele>1993.8</ele>
        <time>2022-12-29T13:18:14Z</time>
      </trkpt>
      <trkpt lat="44.99623" lon="6.13652">
        <ele>1993.8</ele>
        <time>2022-12-29T13:18:15Z</time>
      </trkpt>
      <trkpt lat="44.99623" lon="6.13653">
        <ele>1995.2</ele>
        <time>2022-12-29T13:18:16Z</time>
      </trkpt>
      <trkpt lat="44.99622" lon="6.13654">
        <ele>1995.2</ele>
        <time>2022-12-29T13:18:17Z</time>
      </trkpt>
      <trkpt lat="44.99622" lon="6.13654">
        <ele>1995.2</ele>
        <time>2022-12-29T13:18:18Z</time>
      </trkpt>
      <trkpt lat="44.99622" lon="6.13655">
        <ele>1995.2</ele>
        <time>2022-12-29T13:18:19Z</time>
      </trkpt>
      <trkpt lat="44.99621" lon="6.13655">
        <ele>1995.2</ele>
        <time>2022-12-29T13:18:20Z</time>
      </trkpt>
      <trkpt lat="44.99621" lon="6.13656">
        <ele>1995.2</ele>
        <time>2022-12-29T13:18:21Z</time>
      </trkpt>
      <trkpt lat="44.9962" lon="6.13657">
        <ele>1995.2</ele>
        <time>2022-12-29T13:18:22Z</time>
      </trkpt>
      <trkpt lat="44.9962" lon="6.13657">
        <ele>1995.2</ele>
        <time>2022-12-29T13:18:23Z</time>
      </trkpt>
      <trkpt lat="44.99619" lon="6.13658">
        <ele>1995.2</ele>
        <time>2022-12-29T13:18:24Z</time>
      </trkpt>
      <trkpt lat="44.99619" lon="6.13659">
        <ele>1995.2</ele>
        <time>2022-12-29T13:18:25Z</time>
      </trkpt>
      <trkpt lat="44.99619" lon="6.13659">
        <ele>1996.8</ele>
        <time>2022-12-29T13:18:26Z</time>
      </trkpt>
      <trkpt lat="44.99619" lon="6.1366">
        <ele>1996.8</ele>
        <time>2022-12-29T13:18:27Z</time>
      </trkpt>
      <trkpt lat="44.9962" lon="6.13661">
        <ele>1996.8</ele>
        <time>2022-12-29T13:18:28Z</time>
      </trkpt>
      <trkpt lat="44.9962" lon="6.13661">
        <ele>1996.8</ele>
        <time>2022-12-29T13:18:29Z</time>
      </trkpt>
      <trkpt lat="44.99621" lon="6.13662">
        <ele>1996.8</ele>
        <time>2022-12-29T13:18:30Z</time>
      </trkpt>
      <trkpt lat="44.99622" lon="6.13663">
        <ele>1996.8</ele>
        <time>2022-12-29T13:18:31Z</time>
      </trkpt>
      <trkpt lat="44.99622" lon="6.13663">
        <ele>1996.8</ele>
        <time>2022-12-29T13:18:32Z</time>
      </trkpt>
      <trkpt lat="44.99623" lon="6.13664">
        <ele>1996.8</ele>
        <time>2022-12-29T13:18:33Z</time>
      </trkpt>
      <trkpt lat="44.99623" lon="6.13665">
        <ele>1996.8</ele>
        <time>2022-12-29T13:18:34Z</time>
      </trkpt>
      <trkpt lat="44.99624" lon="6.13665">
        <ele>1996.8</ele>
        <time>2022-12-29T13:18:35Z</time>
      </trkpt>
      <trkpt lat="44.99625" lon="6.13666">
        <ele>1998.4</ele>
        <time>2022-12-29T13:18:36Z</time>
      </trkpt>
      <trkpt lat="44.99625" lon="6.13666">
        <ele>1998.4</ele>
        <time>2022-12-29T13:18:37Z</time>
      </trkpt>
      <trkpt lat="44.99626" lon="6.13666">
        <ele>1998.4</ele>
        <time>2022-12-29T13:18:38Z</time>
      </trkpt>
      <trkpt lat="44.99627" lon="6.13666">
        <ele>1998.4</ele>
        <time>2022-12-29T13:18:39Z</time>
      </trkpt>
      <trkpt lat="44.99627" lon="6.13666">
        <ele>1998.4</ele>
        <time>2022-12-29T13:18:40Z</time>
      </trkpt>
      <trkpt lat="44.99628" lon="6.13666">
        <ele>1998.4</ele>
        <time>2022-12-29T13:18:41Z</time>
      </trkpt>
      <trkpt lat="44.99628" lon="6.13666">
        <ele>1998.4</ele>
        <time>2022-12-29T13:18:42Z</time>
      </trkpt>
      <trkpt lat="44.99629" lon="6.13666">
        <ele>1998.4</ele>
        <time>2022-12-29T13:18:43Z</time>
      </trkpt>
      <trkpt lat="44.9963" lon="6.13666">
        <ele>1998.4</ele>
        <time>2022-12-29T13:18:44Z</time>
      </trkpt>
      <trkpt lat="44.9963" lon="6.13666">
        <ele>1998.4</ele>
        <time>2022-12-29T13:18:45Z</time>
      </trkpt>
      <trkpt lat="44.99631" lon="6.13666">
        <ele>1999.6</ele>
        <time>2022-12-29T13:18:46Z</time>
      </trkpt>
      <trkpt lat="44.99631" lon="6.13666">
        <ele>1999.6</ele>
        <time>2022-12-29T13:18:47Z</time>
      </trkpt>
      <trkpt lat="44.99633" lon="6.13666">
        <ele>1999.6</ele>
        <time>2022-12-29T13:18:48Z</time>
      </trkpt>
      <trkpt lat="44.99633" lon="6.13666">
        <ele>1999.6</ele>
        <time>2022-12-29T13:18:49Z</time>
      </trkpt>
      <trkpt lat="44.99633" lon="6.13666">
        <ele>1999.6</ele>
        <time>2022-12-29T13:18:50Z</time>
      </trkpt>
      <trkpt lat="44.99633" lon="6.13666">
        <ele>1999.6</ele>
        <time>2022-12-29T13:18:51Z</time>
      </trkpt>
      <trkpt lat="44.99633" lon="6.13666">
        <ele>1999.6</ele>
        <time>2022-12-29T13:18:52Z</time>
      </trkpt>
      <trkpt lat="44.99633" lon="6.13666">
        <ele>1999.6</ele>
        <time>2022-12-29T13:18:53Z</time>
      </trkpt>
      <trkpt lat="44.99633" lon="6.13666">
        <ele>1999.6</ele>
        <time>2022-12-29T13:18:54Z</time>
      </trkpt>
      <trkpt lat="44.99633" lon="6.13666">
        <ele>1999.6</ele>
        <time>2022-12-29T13:18:55Z</time>
      </trkpt>
      <trkpt lat="44.99633" lon="6.13666">
        <ele>2000.6</ele>
        <time>2022-12-29T13:18:56Z</time>
      </trkpt>
      <trkpt lat="44.99633" lon="6.13666">
        <ele>2000.6</ele>
        <time>2022-12-29T13:18:57Z</time>
      </trkpt>
      <trkpt lat="44.99634" lon="6.13666">
        <ele>2000.6</ele>
        <time>2022-12-29T13:18:58Z</time>
      </trkpt>
      <trkpt lat="44.99634" lon="6.13666">
        <ele>2000.6</ele>
        <time>2022-12-29T13:18:59Z</time>
      </trkpt>
      <trkpt lat="44.99634" lon="6.13667">
        <ele>2000.6</ele>
        <time>2022-12-29T13:19:00Z</time>
      </trkpt>
      <trkpt lat="44.99635" lon="6.13667">
        <ele>2000.6</ele>
        <time>2022-12-29T13:19:01Z</time>
      </trkpt>
      <trkpt lat="44.99635" lon="6.13667">
        <ele>2000.6</ele>
        <time>2022-12-29T13:19:02Z</time>
      </trkpt>
      <trkpt lat="44.99636" lon="6.13667">
        <ele>2000.6</ele>
        <time>2022-12-29T13:19:03Z</time>
      </trkpt>
      <trkpt lat="44.99636" lon="6.13667">
        <ele>2000.6</ele>
        <time>2022-12-29T13:19:04Z</time>
      </trkpt>
      <trkpt lat="44.99636" lon="6.13668">
        <ele>2000.6</ele>
        <time>2022-12-29T13:19:05Z</time>
      </trkpt>
      <trkpt lat="44.99637" lon="6.13668">
        <ele>2001.6</ele>
        <time>2022-12-29T13:19:06Z</time>
      </trkpt>
      <trkpt lat="44.99637" lon="6.13668">
        <ele>2001.6</ele>
        <time>2022-12-29T13:19:07Z</time>
      </trkpt>
      <trkpt lat="44.99638" lon="6.13668">
        <ele>2001.6</ele>
        <time>2022-12-29T13:19:08Z</time>
      </trkpt>
      <trkpt lat="44.99638" lon="6.13668">
        <ele>2001.6</ele>
        <time>2022-12-29T13:19:09Z</time>
      </trkpt>
      <trkpt lat="44.99639" lon="6.13669">
        <ele>2001.6</ele>
        <time>2022-12-29T13:19:10Z</time>
      </trkpt>
      <trkpt lat="44.99639" lon="6.13669">
        <ele>2001.6</ele>
        <time>2022-12-29T13:19:11Z</time>
      </trkpt>
      <trkpt lat="44.99639" lon="6.13669">
        <ele>2001.6</ele>
        <time>2022-12-29T13:19:12Z</time>
      </trkpt>
      <trkpt lat="44.9964" lon="6.13669">
        <ele>2001.6</ele>
        <time>2022-12-29T13:19:13Z</time>
      </trkpt>
      <trkpt lat="44.9964" lon="6.13669">
        <ele>2001.6</ele>
        <time>2022-12-29T13:19:14Z</time>
      </trkpt>
      <trkpt lat="44.99641" lon="6.1367">
        <ele>2001.6</ele>
        <time>2022-12-29T13:19:15Z</time>
      </trkpt>
      <trkpt lat="44.99641" lon="6.1367">
        <ele>2003.4</ele>
        <time>2022-12-29T13:19:16Z</time>
      </trkpt>
      <trkpt lat="44.99642" lon="6.13672">
        <ele>2003.4</ele>
        <time>2022-12-29T13:19:17Z</time>
      </trkpt>
      <trkpt lat="44.99642" lon="6.13673">
        <ele>2003.4</ele>
        <time>2022-12-29T13:19:18Z</time>
      </trkpt>
      <trkpt lat="44.99641" lon="6.13673">
        <ele>2003.4</ele>
        <time>2022-12-29T13:19:21Z</time>
      </trkpt>
      <trkpt lat="44.99641" lon="6.13673">
        <ele>2003.4</ele>
        <time>2022-12-29T13:19:22Z</time>
      </trkpt>
      <trkpt lat="44.99641" lon="6.13674">
        <ele>2003.4</ele>
        <time>2022-12-29T13:19:23Z</time>
      </trkpt>
      <trkpt lat="44.9964" lon="6.13674">
        <ele>2003.4</ele>
        <time>2022-12-29T13:19:24Z</time>
      </trkpt>
      <trkpt lat="44.9964" lon="6.13674">
        <ele>2003.4</ele>
        <time>2022-12-29T13:19:25Z</time>
      </trkpt>
      <trkpt lat="44.99639" lon="6.13675">
        <ele>2005.8</ele>
        <time>2022-12-29T13:19:26Z</time>
      </trkpt>
      <trkpt lat="44.99639" lon="6.13675">
        <ele>2005.8</ele>
        <time>2022-12-29T13:19:27Z</time>
      </trkpt>
      <trkpt lat="44.99639" lon="6.13675">
        <ele>2005.8</ele>
        <time>2022-12-29T13:19:28Z</time>
      </trkpt>
      <trkpt lat="44.99639" lon="6.13675">
        <ele>2005.8</ele>
        <time>2022-12-29T13:19:29Z</time>
      </trkpt>
      <trkpt lat="44.99638" lon="6.13677">
        <ele>2005.8</ele>
        <time>2022-12-29T13:19:30Z</time>
      </trkpt>
      <trkpt lat="44.99638" lon="6.13677">
        <ele>2005.8</ele>
        <time>2022-12-29T13:19:31Z</time>
      </trkpt>
      <trkpt lat="44.99638" lon="6.13677">
        <ele>2005.8</ele>
        <time>2022-12-29T13:19:32Z</time>
      </trkpt>
      <trkpt lat="44.99636" lon="6.13678">
        <ele>2005.8</ele>
        <time>2022-12-29T13:19:33Z</time>
      </trkpt>
      <trkpt lat="44.99636" lon="6.13678">
        <ele>2005.8</ele>
        <time>2022-12-29T13:19:34Z</time>
      </trkpt>
      <trkpt lat="44.99636" lon="6.13678">
        <ele>2005.8</ele>
        <time>2022-12-29T13:19:35Z</time>
      </trkpt>
      <trkpt lat="44.99636" lon="6.13678">
        <ele>2007</ele>
        <time>2022-12-29T13:19:36Z</time>
      </trkpt>
      <trkpt lat="44.99635" lon="6.1368">
        <ele>2007</ele>
        <time>2022-12-29T13:19:37Z</time>
      </trkpt>
      <trkpt lat="44.99635" lon="6.1368">
        <ele>2007</ele>
        <time>2022-12-29T13:19:38Z</time>
      </trkpt>
      <trkpt lat="44.99635" lon="6.1368">
        <ele>2007</ele>
        <time>2022-12-29T13:19:39Z</time>
      </trkpt>
      <trkpt lat="44.99635" lon="6.1368">
        <ele>2007</ele>
        <time>2022-12-29T13:19:40Z</time>
      </trkpt>
      <trkpt lat="44.99635" lon="6.1368">
        <ele>2007</ele>
        <time>2022-12-29T13:19:41Z</time>
      </trkpt>
      <trkpt lat="44.99635" lon="6.1368">
        <ele>2007</ele>
        <time>2022-12-29T13:19:42Z</time>
      </trkpt>
      <trkpt lat="44.99635" lon="6.1368">
        <ele>2007</ele>
        <time>2022-12-29T13:19:43Z</time>
      </trkpt>
      <trkpt lat="44.99635" lon="6.1368">
        <ele>2007</ele>
        <time>2022-12-29T13:19:44Z</time>
      </trkpt>
      <trkpt lat="44.99635" lon="6.1368">
        <ele>2007</ele>
        <time>2022-12-29T13:19:45Z</time>
      </trkpt>
      <trkpt lat="44.99635" lon="6.1368">
        <ele>2007.8</ele>
        <time>2022-12-29T13:19:46Z</time>
      </trkpt>
      <trkpt lat="44.99635" lon="6.1368">
        <ele>2007.8</ele>
        <time>2022-12-29T13:19:47Z</time>
      </trkpt>
      <trkpt lat="44.99635" lon="6.1368">
        <ele>2007.8</ele>
        <time>2022-12-29T13:19:48Z</time>
      </trkpt>
      <trkpt lat="44.99635" lon="6.1368">
        <ele>2007.8</ele>
        <time>2022-12-29T13:19:49Z</time>
      </trkpt>
      <trkpt lat="44.99635" lon="6.1368">
        <ele>2007.8</ele>
        <time>2022-12-29T13:19:50Z</time>
      </trkpt>
      <trkpt lat="44.99636" lon="6.13681">
        <ele>2007.8</ele>
        <time>2022-12-29T13:19:51Z</time>
      </trkpt>
      <trkpt lat="44.99636" lon="6.13681">
        <ele>2007.8</ele>
        <time>2022-12-29T13:19:52Z</time>
      </trkpt>
      <trkpt lat="44.99636" lon="6.13681">
        <ele>2007.8</ele>
        <time>2022-12-29T13:19:53Z</time>
      </trkpt>
      <trkpt lat="44.99636" lon="6.13681">
        <ele>2007.8</ele>
        <time>2022-12-29T13:19:54Z</time>
      </trkpt>
      <trkpt lat="44.99636" lon="6.13681">
        <ele>2007.8</ele>
        <time>2022-12-29T13:19:55Z</time>
      </trkpt>
      <trkpt lat="44.99637" lon="6.13682">
        <ele>2008.2</ele>
        <time>2022-12-29T13:19:56Z</time>
      </trkpt>
      <trkpt lat="44.99637" lon="6.13682">
        <ele>2008.2</ele>
        <time>2022-12-29T13:19:57Z</time>
      </trkpt>
      <trkpt lat="44.99637" lon="6.13682">
        <ele>2008.2</ele>
        <time>2022-12-29T13:19:58Z</time>
      </trkpt>
      <trkpt lat="44.99637" lon="6.13682">
        <ele>2008.2</ele>
        <time>2022-12-29T13:19:59Z</time>
      </trkpt>
      <trkpt lat="44.99637" lon="6.13682">
        <ele>2008.2</ele>
        <time>2022-12-29T13:20:00Z</time>
      </trkpt>
      <trkpt lat="44.99637" lon="6.13683">
        <ele>2008.2</ele>
        <time>2022-12-29T13:20:01Z</time>
      </trkpt>
      <trkpt lat="44.99638" lon="6.13683">
        <ele>2008.2</ele>
        <time>2022-12-29T13:20:02Z</time>
      </trkpt>
      <trkpt lat="44.99638" lon="6.13683">
        <ele>2008.2</ele>
        <time>2022-12-29T13:20:03Z</time>
      </trkpt>
      <trkpt lat="44.99638" lon="6.13683">
        <ele>2008.2</ele>
        <time>2022-12-29T13:20:04Z</time>
      </trkpt>
      <trkpt lat="44.99638" lon="6.13683">
        <ele>2008.2</ele>
        <time>2022-12-29T13:20:05Z</time>
      </trkpt>
      <trkpt lat="44.99638" lon="6.13684">
        <ele>2009.8</ele>
        <time>2022-12-29T13:20:06Z</time>
      </trkpt>
      <trkpt lat="44.99642" lon="6.13686">
        <ele>2009.8</ele>
        <time>2022-12-29T13:20:08Z</time>
      </trkpt>
      <trkpt lat="44.99642" lon="6.13686">
        <ele>2009.8</ele>
        <time>2022-12-29T13:20:09Z</time>
      </trkpt>
      <trkpt lat="44.99643" lon="6.13687">
        <ele>2009.8</ele>
        <time>2022-12-29T13:20:10Z</time>
      </trkpt>
      <trkpt lat="44.99644" lon="6.13687">
        <ele>2009.8</ele>
        <time>2022-12-29T13:20:11Z</time>
      </trkpt>
      <trkpt lat="44.99645" lon="6.13688">
        <ele>2009.8</ele>
        <time>2022-12-29T13:20:12Z</time>
      </trkpt>
      <trkpt lat="44.99646" lon="6.13688">
        <ele>2009.8</ele>
        <time>2022-12-29T13:20:13Z</time>
      </trkpt>
      <trkpt lat="44.99646" lon="6.13688">
        <ele>2009.8</ele>
        <time>2022-12-29T13:20:14Z</time>
      </trkpt>
      <trkpt lat="44.99647" lon="6.13689">
        <ele>2009.8</ele>
        <time>2022-12-29T13:20:15Z</time>
      </trkpt>
      <trkpt lat="44.99648" lon="6.13689">
        <ele>2011.2</ele>
        <time>2022-12-29T13:20:16Z</time>
      </trkpt>
      <trkpt lat="44.99649" lon="6.1369">
        <ele>2011.2</ele>
        <time>2022-12-29T13:20:17Z</time>
      </trkpt>
      <trkpt lat="44.99649" lon="6.1369">
        <ele>2011.2</ele>
        <time>2022-12-29T13:20:18Z</time>
      </trkpt>
      <trkpt lat="44.9965" lon="6.1369">
        <ele>2011.2</ele>
        <time>2022-12-29T13:20:19Z</time>
      </trkpt>
      <trkpt lat="44.9965" lon="6.1369">
        <ele>2011.2</ele>
        <time>2022-12-29T13:20:20Z</time>
      </trkpt>
      <trkpt lat="44.99651" lon="6.13691">
        <ele>2011.2</ele>
        <time>2022-12-29T13:20:21Z</time>
      </trkpt>
      <trkpt lat="44.99652" lon="6.13691">
        <ele>2011.2</ele>
        <time>2022-12-29T13:20:22Z</time>
      </trkpt>
      <trkpt lat="44.99652" lon="6.13691">
        <ele>2011.2</ele>
        <time>2022-12-29T13:20:23Z</time>
      </trkpt>
      <trkpt lat="44.99653" lon="6.13692">
        <ele>2011.2</ele>
        <time>2022-12-29T13:20:24Z</time>
      </trkpt>
      <trkpt lat="44.99654" lon="6.13692">
        <ele>2011.2</ele>
        <time>2022-12-29T13:20:25Z</time>
      </trkpt>
      <trkpt lat="44.99654" lon="6.13692">
        <ele>2013.2</ele>
        <time>2022-12-29T13:20:26Z</time>
      </trkpt>
      <trkpt lat="44.99655" lon="6.13693">
        <ele>2013.2</ele>
        <time>2022-12-29T13:20:27Z</time>
      </trkpt>
      <trkpt lat="44.99655" lon="6.13693">
        <ele>2013.2</ele>
        <time>2022-12-29T13:20:28Z</time>
      </trkpt>
      <trkpt lat="44.99655" lon="6.13693">
        <ele>2013.2</ele>
        <time>2022-12-29T13:20:29Z</time>
      </trkpt>
      <trkpt lat="44.99656" lon="6.13694">
        <ele>2013.2</ele>
        <time>2022-12-29T13:20:30Z</time>
      </trkpt>
      <trkpt lat="44.99656" lon="6.13694">
        <ele>2013.2</ele>
        <time>2022-12-29T13:20:31Z</time>
      </trkpt>
      <trkpt lat="44.99656" lon="6.13695">
        <ele>2013.2</ele>
        <time>2022-12-29T13:20:32Z</time>
      </trkpt>
      <trkpt lat="44.99657" lon="6.13695">
        <ele>2013.2</ele>
        <time>2022-12-29T13:20:33Z</time>
      </trkpt>
      <trkpt lat="44.99657" lon="6.13695">
        <ele>2013.2</ele>
        <time>2022-12-29T13:20:34Z</time>
      </trkpt>
      <trkpt lat="44.99658" lon="6.13696">
        <ele>2013.2</ele>
        <time>2022-12-29T13:20:35Z</time>
      </trkpt>
      <trkpt lat="44.99658" lon="6.13696">
        <ele>2014.6</ele>
        <time>2022-12-29T13:20:36Z</time>
      </trkpt>
      <trkpt lat="44.9966" lon="6.13698">
        <ele>2014.6</ele>
        <time>2022-12-29T13:20:37Z</time>
      </trkpt>
      <trkpt lat="44.9966" lon="6.13698">
        <ele>2014.6</ele>
        <time>2022-12-29T13:20:38Z</time>
      </trkpt>
      <trkpt lat="44.9966" lon="6.13699">
        <ele>2014.6</ele>
        <time>2022-12-29T13:20:39Z</time>
      </trkpt>
      <trkpt lat="44.99661" lon="6.13699">
        <ele>2014.6</ele>
        <time>2022-12-29T13:20:40Z</time>
      </trkpt>
      <trkpt lat="44.99661" lon="6.13699">
        <ele>2014.6</ele>
        <time>2022-12-29T13:20:41Z</time>
      </trkpt>
      <trkpt lat="44.99661" lon="6.137">
        <ele>2014.6</ele>
        <time>2022-12-29T13:20:42Z</time>
      </trkpt>
      <trkpt lat="44.99662" lon="6.137">
        <ele>2014.6</ele>
        <time>2022-12-29T13:20:43Z</time>
      </trkpt>
      <trkpt lat="44.99662" lon="6.137">
        <ele>2014.6</ele>
        <time>2022-12-29T13:20:44Z</time>
      </trkpt>
      <trkpt lat="44.99662" lon="6.137">
        <ele>2014.6</ele>
        <time>2022-12-29T13:20:45Z</time>
      </trkpt>
      <trkpt lat="44.99663" lon="6.13701">
        <ele>2015.6</ele>
        <time>2022-12-29T13:20:46Z</time>
      </trkpt>
      <trkpt lat="44.99663" lon="6.13701">
        <ele>2015.6</ele>
        <time>2022-12-29T13:20:47Z</time>
      </trkpt>
      <trkpt lat="44.99664" lon="6.13701">
        <ele>2015.6</ele>
        <time>2022-12-29T13:20:48Z</time>
      </trkpt>
      <trkpt lat="44.99664" lon="6.13701">
        <ele>2015.6</ele>
        <time>2022-12-29T13:20:49Z</time>
      </trkpt>
      <trkpt lat="44.99665" lon="6.13702">
        <ele>2015.6</ele>
        <time>2022-12-29T13:20:50Z</time>
      </trkpt>
      <trkpt lat="44.99665" lon="6.13702">
        <ele>2015.6</ele>
        <time>2022-12-29T13:20:51Z</time>
      </trkpt>
      <trkpt lat="44.99666" lon="6.13702">
        <ele>2015.6</ele>
        <time>2022-12-29T13:20:52Z</time>
      </trkpt>
      <trkpt lat="44.99667" lon="6.13702">
        <ele>2015.6</ele>
        <time>2022-12-29T13:20:53Z</time>
      </trkpt>
      <trkpt lat="44.99667" lon="6.13703">
        <ele>2015.6</ele>
        <time>2022-12-29T13:20:54Z</time>
      </trkpt>
      <trkpt lat="44.99668" lon="6.13703">
        <ele>2015.6</ele>
        <time>2022-12-29T13:20:55Z</time>
      </trkpt>
      <trkpt lat="44.99668" lon="6.13703">
        <ele>2016.4</ele>
        <time>2022-12-29T13:20:56Z</time>
      </trkpt>
      <trkpt lat="44.99669" lon="6.13704">
        <ele>2016.4</ele>
        <time>2022-12-29T13:20:57Z</time>
      </trkpt>
      <trkpt lat="44.99669" lon="6.13704">
        <ele>2016.4</ele>
        <time>2022-12-29T13:20:59Z</time>
      </trkpt>
      <trkpt lat="44.9967" lon="6.13704">
        <ele>2016.4</ele>
        <time>2022-12-29T13:21:00Z</time>
      </trkpt>
      <trkpt lat="44.99671" lon="6.13705">
        <ele>2016.4</ele>
        <time>2022-12-29T13:21:01Z</time>
      </trkpt>
      <trkpt lat="44.99671" lon="6.13705">
        <ele>2016.4</ele>
        <time>2022-12-29T13:21:02Z</time>
      </trkpt>
      <trkpt lat="44.99672" lon="6.13706">
        <ele>2016.4</ele>
        <time>2022-12-29T13:21:03Z</time>
      </trkpt>
      <trkpt lat="44.99672" lon="6.13706">
        <ele>2016.4</ele>
        <time>2022-12-29T13:21:04Z</time>
      </trkpt>
      <trkpt lat="44.99673" lon="6.13707">
        <ele>2016.4</ele>
        <time>2022-12-29T13:21:05Z</time>
      </trkpt>
      <trkpt lat="44.99674" lon="6.13707">
        <ele>2018.8</ele>
        <time>2022-12-29T13:21:06Z</time>
      </trkpt>
      <trkpt lat="44.99673" lon="6.13708">
        <ele>2018.8</ele>
        <time>2022-12-29T13:21:07Z</time>
      </trkpt>
      <trkpt lat="44.99673" lon="6.13708">
        <ele>2018.8</ele>
        <time>2022-12-29T13:21:08Z</time>
      </trkpt>
      <trkpt lat="44.99672" lon="6.13709">
        <ele>2018.8</ele>
        <time>2022-12-29T13:21:09Z</time>
      </trkpt>
      <trkpt lat="44.99672" lon="6.1371">
        <ele>2018.8</ele>
        <time>2022-12-29T13:21:10Z</time>
      </trkpt>
      <trkpt lat="44.99671" lon="6.1371">
        <ele>2018.8</ele>
        <time>2022-12-29T13:21:11Z</time>
      </trkpt>
      <trkpt lat="44.99671" lon="6.13711">
        <ele>2018.8</ele>
        <time>2022-12-29T13:21:12Z</time>
      </trkpt>
      <trkpt lat="44.99671" lon="6.13711">
        <ele>2018.8</ele>
        <time>2022-12-29T13:21:13Z</time>
      </trkpt>
      <trkpt lat="44.9967" lon="6.13712">
        <ele>2018.8</ele>
        <time>2022-12-29T13:21:14Z</time>
      </trkpt>
      <trkpt lat="44.9967" lon="6.13712">
        <ele>2018.8</ele>
        <time>2022-12-29T13:21:15Z</time>
      </trkpt>
      <trkpt lat="44.99669" lon="6.13713">
        <ele>2021.4</ele>
        <time>2022-12-29T13:21:16Z</time>
      </trkpt>
      <trkpt lat="44.99669" lon="6.13713">
        <ele>2021.4</ele>
        <time>2022-12-29T13:21:17Z</time>
      </trkpt>
      <trkpt lat="44.99668" lon="6.13714">
        <ele>2021.4</ele>
        <time>2022-12-29T13:21:18Z</time>
      </trkpt>
      <trkpt lat="44.99668" lon="6.13714">
        <ele>2021.4</ele>
        <time>2022-12-29T13:21:19Z</time>
      </trkpt>
      <trkpt lat="44.99667" lon="6.13715">
        <ele>2021.4</ele>
        <time>2022-12-29T13:21:20Z</time>
      </trkpt>
      <trkpt lat="44.99667" lon="6.13715">
        <ele>2021.4</ele>
        <time>2022-12-29T13:21:23Z</time>
      </trkpt>
      <trkpt lat="44.99667" lon="6.13716">
        <ele>2021.4</ele>
        <time>2022-12-29T13:21:24Z</time>
      </trkpt>
      <trkpt lat="44.99666" lon="6.13716">
        <ele>2021.4</ele>
        <time>2022-12-29T13:21:25Z</time>
      </trkpt>
      <trkpt lat="44.99666" lon="6.13716">
        <ele>2023.4</ele>
        <time>2022-12-29T13:21:26Z</time>
      </trkpt>
      <trkpt lat="44.99666" lon="6.13716">
        <ele>2023.4</ele>
        <time>2022-12-29T13:21:27Z</time>
      </trkpt>
      <trkpt lat="44.99664" lon="6.13717">
        <ele>2023.4</ele>
        <time>2022-12-29T13:21:28Z</time>
      </trkpt>
      <trkpt lat="44.99664" lon="6.13717">
        <ele>2023.4</ele>
        <time>2022-12-29T13:21:29Z</time>
      </trkpt>
      <trkpt lat="44.99664" lon="6.13717">
        <ele>2023.4</ele>
        <time>2022-12-29T13:21:30Z</time>
      </trkpt>
      <trkpt lat="44.99664" lon="6.13717">
        <ele>2023.4</ele>
        <time>2022-12-29T13:21:31Z</time>
      </trkpt>
      <trkpt lat="44.99664" lon="6.13717">
        <ele>2023.4</ele>
        <time>2022-12-29T13:21:32Z</time>
      </trkpt>
      <trkpt lat="44.99664" lon="6.13717">
        <ele>2023.4</ele>
        <time>2022-12-29T13:21:33Z</time>
      </trkpt>
      <trkpt lat="44.99664" lon="6.13717">
        <ele>2023.4</ele>
        <time>2022-12-29T13:21:34Z</time>
      </trkpt>
      <trkpt lat="44.99664" lon="6.13717">
        <ele>2023.4</ele>
        <time>2022-12-29T13:21:35Z</time>
      </trkpt>
      <trkpt lat="44.99664" lon="6.13717">
        <ele>2023.6</ele>
        <time>2022-12-29T13:21:36Z</time>
      </trkpt>
      <trkpt lat="44.99664" lon="6.13717">
        <ele>2023.6</ele>
        <time>2022-12-29T13:21:37Z</time>
      </trkpt>
      <trkpt lat="44.99663" lon="6.13717">
        <ele>2023.6</ele>
        <time>2022-12-29T13:21:38Z</time>
      </trkpt>
      <trkpt lat="44.99663" lon="6.13717">
        <ele>2023.6</ele>
        <time>2022-12-29T13:21:39Z</time>
      </trkpt>
      <trkpt lat="44.99663" lon="6.13717">
        <ele>2023.6</ele>
        <time>2022-12-29T13:21:40Z</time>
      </trkpt>
      <trkpt lat="44.99663" lon="6.13717">
        <ele>2023.6</ele>
        <time>2022-12-29T13:21:41Z</time>
      </trkpt>
      <trkpt lat="44.99663" lon="6.13718">
        <ele>2023.6</ele>
        <time>2022-12-29T13:21:42Z</time>
      </trkpt>
      <trkpt lat="44.99663" lon="6.13718">
        <ele>2023.6</ele>
        <time>2022-12-29T13:21:43Z</time>
      </trkpt>
      <trkpt lat="44.99663" lon="6.13718">
        <ele>2023.6</ele>
        <time>2022-12-29T13:21:44Z</time>
      </trkpt>
      <trkpt lat="44.99663" lon="6.13718">
        <ele>2023.6</ele>
        <time>2022-12-29T13:21:45Z</time>
      </trkpt>
      <trkpt lat="44.99662" lon="6.13718">
        <ele>2023.8</ele>
        <time>2022-12-29T13:21:46Z</time>
      </trkpt>
      <trkpt lat="44.99662" lon="6.13718">
        <ele>2023.8</ele>
        <time>2022-12-29T13:21:47Z</time>
      </trkpt>
      <trkpt lat="44.99662" lon="6.13718">
        <ele>2023.8</ele>
        <time>2022-12-29T13:21:48Z</time>
      </trkpt>
      <trkpt lat="44.99662" lon="6.13718">
        <ele>2023.8</ele>
        <time>2022-12-29T13:21:49Z</time>
      </trkpt>
      <trkpt lat="44.99662" lon="6.13718">
        <ele>2023.8</ele>
        <time>2022-12-29T13:21:50Z</time>
      </trkpt>
      <trkpt lat="44.99662" lon="6.13718">
        <ele>2023.8</ele>
        <time>2022-12-29T13:21:51Z</time>
      </trkpt>
      <trkpt lat="44.99662" lon="6.13718">
        <ele>2023.8</ele>
        <time>2022-12-29T13:21:52Z</time>
      </trkpt>
      <trkpt lat="44.99661" lon="6.13718">
        <ele>2023.8</ele>
        <time>2022-12-29T13:21:53Z</time>
      </trkpt>
      <trkpt lat="44.99661" lon="6.13718">
        <ele>2023.8</ele>
        <time>2022-12-29T13:21:54Z</time>
      </trkpt>
      <trkpt lat="44.99661" lon="6.13718">
        <ele>2023.8</ele>
        <time>2022-12-29T13:21:55Z</time>
      </trkpt>
      <trkpt lat="44.99661" lon="6.13718">
        <ele>2023.6</ele>
        <time>2022-12-29T13:21:56Z</time>
      </trkpt>
      <trkpt lat="44.99661" lon="6.13718">
        <ele>2023.6</ele>
        <time>2022-12-29T13:21:57Z</time>
      </trkpt>
      <trkpt lat="44.99661" lon="6.13718">
        <ele>2023.6</ele>
        <time>2022-12-29T13:21:58Z</time>
      </trkpt>
      <trkpt lat="44.99661" lon="6.13719">
        <ele>2023.6</ele>
        <time>2022-12-29T13:21:59Z</time>
      </trkpt>
      <trkpt lat="44.99661" lon="6.13719">
        <ele>2023.6</ele>
        <time>2022-12-29T13:22:00Z</time>
      </trkpt>
      <trkpt lat="44.9966" lon="6.13719">
        <ele>2023.6</ele>
        <time>2022-12-29T13:22:01Z</time>
      </trkpt>
      <trkpt lat="44.9966" lon="6.13719">
        <ele>2023.6</ele>
        <time>2022-12-29T13:22:02Z</time>
      </trkpt>
      <trkpt lat="44.9966" lon="6.13719">
        <ele>2023.6</ele>
        <time>2022-12-29T13:22:03Z</time>
      </trkpt>
      <trkpt lat="44.9966" lon="6.13719">
        <ele>2023.6</ele>
        <time>2022-12-29T13:22:04Z</time>
      </trkpt>
      <trkpt lat="44.9966" lon="6.13719">
        <ele>2023.6</ele>
        <time>2022-12-29T13:22:05Z</time>
      </trkpt>
      <trkpt lat="44.9966" lon="6.13719">
        <ele>2023.6</ele>
        <time>2022-12-29T13:22:06Z</time>
      </trkpt>
      <trkpt lat="44.9966" lon="6.13719">
        <ele>2023.6</ele>
        <time>2022-12-29T13:22:07Z</time>
      </trkpt>
      <trkpt lat="44.99659" lon="6.13719">
        <ele>2023.6</ele>
        <time>2022-12-29T13:22:08Z</time>
      </trkpt>
      <trkpt lat="44.99659" lon="6.13719">
        <ele>2023.6</ele>
        <time>2022-12-29T13:22:09Z</time>
      </trkpt>
      <trkpt lat="44.99659" lon="6.13719">
        <ele>2023.6</ele>
        <time>2022-12-29T13:22:10Z</time>
      </trkpt>
      <trkpt lat="44.99659" lon="6.13719">
        <ele>2023.6</ele>
        <time>2022-12-29T13:22:11Z</time>
      </trkpt>
      <trkpt lat="44.99659" lon="6.13719">
        <ele>2023.6</ele>
        <time>2022-12-29T13:22:12Z</time>
      </trkpt>
      <trkpt lat="44.99659" lon="6.13719">
        <ele>2023.6</ele>
        <time>2022-12-29T13:22:13Z</time>
      </trkpt>
      <trkpt lat="44.99659" lon="6.13719">
        <ele>2023.6</ele>
        <time>2022-12-29T13:22:14Z</time>
      </trkpt>
      <trkpt lat="44.99658" lon="6.13719">
        <ele>2023.6</ele>
        <time>2022-12-29T13:22:15Z</time>
      </trkpt>
      <trkpt lat="44.99658" lon="6.13719">
        <ele>2024.6</ele>
        <time>2022-12-29T13:22:16Z</time>
      </trkpt>
      <trkpt lat="44.99658" lon="6.1372">
        <ele>2024.6</ele>
        <time>2022-12-29T13:22:17Z</time>
      </trkpt>
      <trkpt lat="44.99658" lon="6.1372">
        <ele>2024.6</ele>
        <time>2022-12-29T13:22:18Z</time>
      </trkpt>
      <trkpt lat="44.99658" lon="6.1372">
        <ele>2024.6</ele>
        <time>2022-12-29T13:22:19Z</time>
      </trkpt>
      <trkpt lat="44.99658" lon="6.1372">
        <ele>2024.6</ele>
        <time>2022-12-29T13:22:20Z</time>
      </trkpt>
      <trkpt lat="44.99658" lon="6.1372">
        <ele>2024.6</ele>
        <time>2022-12-29T13:22:21Z</time>
      </trkpt>
      <trkpt lat="44.99658" lon="6.1372">
        <ele>2024.6</ele>
        <time>2022-12-29T13:22:22Z</time>
      </trkpt>
      <trkpt lat="44.99657" lon="6.1372">
        <ele>2024.6</ele>
        <time>2022-12-29T13:22:23Z</time>
      </trkpt>
      <trkpt lat="44.99657" lon="6.1372">
        <ele>2024.6</ele>
        <time>2022-12-29T13:22:24Z</time>
      </trkpt>
      <trkpt lat="44.99657" lon="6.1372">
        <ele>2024.6</ele>
        <time>2022-12-29T13:22:25Z</time>
      </trkpt>
      <trkpt lat="44.99657" lon="6.1372">
        <ele>2026.6</ele>
        <time>2022-12-29T13:22:26Z</time>
      </trkpt>
      <trkpt lat="44.99655" lon="6.13721">
        <ele>2026.6</ele>
        <time>2022-12-29T13:22:27Z</time>
      </trkpt>
      <trkpt lat="44.99655" lon="6.13722">
        <ele>2026.6</ele>
        <time>2022-12-29T13:22:28Z</time>
      </trkpt>
      <trkpt lat="44.99655" lon="6.13722">
        <ele>2026.6</ele>
        <time>2022-12-29T13:22:29Z</time>
      </trkpt>
      <trkpt lat="44.99655" lon="6.13722">
        <ele>2026.6</ele>
        <time>2022-12-29T13:22:30Z</time>
      </trkpt>
      <trkpt lat="44.99655" lon="6.13723">
        <ele>2026.6</ele>
        <time>2022-12-29T13:22:31Z</time>
      </trkpt>
      <trkpt lat="44.99655" lon="6.13723">
        <ele>2026.6</ele>
        <time>2022-12-29T13:22:32Z</time>
      </trkpt>
      <trkpt lat="44.99654" lon="6.13723">
        <ele>2026.6</ele>
        <time>2022-12-29T13:22:33Z</time>
      </trkpt>
      <trkpt lat="44.99654" lon="6.13724">
        <ele>2026.6</ele>
        <time>2022-12-29T13:22:34Z</time>
      </trkpt>
      <trkpt lat="44.99654" lon="6.13724">
        <ele>2026.6</ele>
        <time>2022-12-29T13:22:35Z</time>
      </trkpt>
      <trkpt lat="44.99654" lon="6.13724">
        <ele>2026.6</ele>
        <time>2022-12-29T13:22:36Z</time>
      </trkpt>
      <trkpt lat="44.99656" lon="6.13727">
        <ele>2026.6</ele>
        <time>2022-12-29T13:22:37Z</time>
      </trkpt>
      <trkpt lat="44.99656" lon="6.13727">
        <ele>2026.6</ele>
        <time>2022-12-29T13:22:38Z</time>
      </trkpt>
      <trkpt lat="44.99656" lon="6.13727">
        <ele>2026.6</ele>
        <time>2022-12-29T13:22:39Z</time>
      </trkpt>
      <trkpt lat="44.99657" lon="6.13727">
        <ele>2026.6</ele>
        <time>2022-12-29T13:22:40Z</time>
      </trkpt>
      <trkpt lat="44.99657" lon="6.13727">
        <ele>2026.6</ele>
        <time>2022-12-29T13:22:41Z</time>
      </trkpt>
      <trkpt lat="44.99658" lon="6.13728">
        <ele>2026.6</ele>
        <time>2022-12-29T13:22:42Z</time>
      </trkpt>
      <trkpt lat="44.99658" lon="6.13728">
        <ele>2026.6</ele>
        <time>2022-12-29T13:22:43Z</time>
      </trkpt>
      <trkpt lat="44.99658" lon="6.13728">
        <ele>2026.6</ele>
        <time>2022-12-29T13:22:44Z</time>
      </trkpt>
      <trkpt lat="44.99659" lon="6.13728">
        <ele>2026.6</ele>
        <time>2022-12-29T13:22:45Z</time>
      </trkpt>
      <trkpt lat="44.99659" lon="6.13728">
        <ele>2027.6</ele>
        <time>2022-12-29T13:22:46Z</time>
      </trkpt>
      <trkpt lat="44.99662" lon="6.13729">
        <ele>2027.6</ele>
        <time>2022-12-29T13:22:47Z</time>
      </trkpt>
      <trkpt lat="44.99662" lon="6.13729">
        <ele>2027.6</ele>
        <time>2022-12-29T13:22:48Z</time>
      </trkpt>
      <trkpt lat="44.99663" lon="6.1373">
        <ele>2027.6</ele>
        <time>2022-12-29T13:22:49Z</time>
      </trkpt>
      <trkpt lat="44.99663" lon="6.1373">
        <ele>2027.6</ele>
        <time>2022-12-29T13:22:50Z</time>
      </trkpt>
      <trkpt lat="44.99664" lon="6.13731">
        <ele>2027.6</ele>
        <time>2022-12-29T13:22:51Z</time>
      </trkpt>
      <trkpt lat="44.99664" lon="6.13731">
        <ele>2027.6</ele>
        <time>2022-12-29T13:22:52Z</time>
      </trkpt>
      <trkpt lat="44.99665" lon="6.13731">
        <ele>2027.6</ele>
        <time>2022-12-29T13:22:53Z</time>
      </trkpt>
      <trkpt lat="44.99665" lon="6.13732">
        <ele>2027.6</ele>
        <time>2022-12-29T13:22:54Z</time>
      </trkpt>
      <trkpt lat="44.99666" lon="6.13732">
        <ele>2027.6</ele>
        <time>2022-12-29T13:22:55Z</time>
      </trkpt>
      <trkpt lat="44.99666" lon="6.13732">
        <ele>2029.2</ele>
        <time>2022-12-29T13:22:56Z</time>
      </trkpt>
      <trkpt lat="44.99667" lon="6.13733">
        <ele>2029.2</ele>
        <time>2022-12-29T13:22:57Z</time>
      </trkpt>
      <trkpt lat="44.99667" lon="6.13733">
        <ele>2029.2</ele>
        <time>2022-12-29T13:22:58Z</time>
      </trkpt>
      <trkpt lat="44.99667" lon="6.13733">
        <ele>2029.2</ele>
        <time>2022-12-29T13:22:59Z</time>
      </trkpt>
      <trkpt lat="44.99668" lon="6.13733">
        <ele>2029.2</ele>
        <time>2022-12-29T13:23:00Z</time>
      </trkpt>
      <trkpt lat="44.99668" lon="6.13733">
        <ele>2029.2</ele>
        <time>2022-12-29T13:23:01Z</time>
      </trkpt>
      <trkpt lat="44.99668" lon="6.13734">
        <ele>2029.2</ele>
        <time>2022-12-29T13:23:02Z</time>
      </trkpt>
      <trkpt lat="44.99669" lon="6.13734">
        <ele>2029.2</ele>
        <time>2022-12-29T13:23:03Z</time>
      </trkpt>
      <trkpt lat="44.99669" lon="6.13734">
        <ele>2029.2</ele>
        <time>2022-12-29T13:23:04Z</time>
      </trkpt>
      <trkpt lat="44.99669" lon="6.13734">
        <ele>2029.2</ele>
        <time>2022-12-29T13:23:05Z</time>
      </trkpt>
      <trkpt lat="44.9967" lon="6.13735">
        <ele>2030.8</ele>
        <time>2022-12-29T13:23:06Z</time>
      </trkpt>
      <trkpt lat="44.99672" lon="6.13736">
        <ele>2030.8</ele>
        <time>2022-12-29T13:23:07Z</time>
      </trkpt>
      <trkpt lat="44.99672" lon="6.13736">
        <ele>2030.8</ele>
        <time>2022-12-29T13:23:08Z</time>
      </trkpt>
      <trkpt lat="44.99672" lon="6.13736">
        <ele>2030.8</ele>
        <time>2022-12-29T13:23:09Z</time>
      </trkpt>
      <trkpt lat="44.99672" lon="6.13736">
        <ele>2030.8</ele>
        <time>2022-12-29T13:23:10Z</time>
      </trkpt>
      <trkpt lat="44.99672" lon="6.13736">
        <ele>2030.8</ele>
        <time>2022-12-29T13:23:11Z</time>
      </trkpt>
      <trkpt lat="44.99672" lon="6.13736">
        <ele>2030.8</ele>
        <time>2022-12-29T13:23:14Z</time>
      </trkpt>
      <trkpt lat="44.99672" lon="6.13736">
        <ele>2030.8</ele>
        <time>2022-12-29T13:23:15Z</time>
      </trkpt>
      <trkpt lat="44.99672" lon="6.13736">
        <ele>2032.8</ele>
        <time>2022-12-29T13:23:16Z</time>
      </trkpt>
      <trkpt lat="44.99671" lon="6.13736">
        <ele>2032.8</ele>
        <time>2022-12-29T13:23:17Z</time>
      </trkpt>
      <trkpt lat="44.99671" lon="6.13737">
        <ele>2032.8</ele>
        <time>2022-12-29T13:23:18Z</time>
      </trkpt>
      <trkpt lat="44.99671" lon="6.13737">
        <ele>2032.8</ele>
        <time>2022-12-29T13:23:19Z</time>
      </trkpt>
      <trkpt lat="44.9967" lon="6.13738">
        <ele>2032.8</ele>
        <time>2022-12-29T13:23:20Z</time>
      </trkpt>
      <trkpt lat="44.9967" lon="6.13739">
        <ele>2032.8</ele>
        <time>2022-12-29T13:23:21Z</time>
      </trkpt>
      <trkpt lat="44.99669" lon="6.13739">
        <ele>2032.8</ele>
        <time>2022-12-29T13:23:22Z</time>
      </trkpt>
      <trkpt lat="44.99669" lon="6.1374">
        <ele>2032.8</ele>
        <time>2022-12-29T13:23:23Z</time>
      </trkpt>
      <trkpt lat="44.99669" lon="6.1374">
        <ele>2032.8</ele>
        <time>2022-12-29T13:23:24Z</time>
      </trkpt>
      <trkpt lat="44.99668" lon="6.13741">
        <ele>2032.8</ele>
        <time>2022-12-29T13:23:25Z</time>
      </trkpt>
      <trkpt lat="44.99668" lon="6.13742">
        <ele>2034.4</ele>
        <time>2022-12-29T13:23:26Z</time>
      </trkpt>
      <trkpt lat="44.99665" lon="6.13743">
        <ele>2034.4</ele>
        <time>2022-12-29T13:23:27Z</time>
      </trkpt>
      <trkpt lat="44.99665" lon="6.13743">
        <ele>2034.4</ele>
        <time>2022-12-29T13:23:28Z</time>
      </trkpt>
      <trkpt lat="44.99664" lon="6.13743">
        <ele>2034.4</ele>
        <time>2022-12-29T13:23:29Z</time>
      </trkpt>
      <trkpt lat="44.99664" lon="6.13744">
        <ele>2034.4</ele>
        <time>2022-12-29T13:23:30Z</time>
      </trkpt>
      <trkpt lat="44.99663" lon="6.13744">
        <ele>2034.4</ele>
        <time>2022-12-29T13:23:31Z</time>
      </trkpt>
      <trkpt lat="44.99663" lon="6.13744">
        <ele>2034.4</ele>
        <time>2022-12-29T13:23:32Z</time>
      </trkpt>
      <trkpt lat="44.99662" lon="6.13745">
        <ele>2034.4</ele>
        <time>2022-12-29T13:23:33Z</time>
      </trkpt>
      <trkpt lat="44.99662" lon="6.13745">
        <ele>2034.4</ele>
        <time>2022-12-29T13:23:34Z</time>
      </trkpt>
      <trkpt lat="44.99661" lon="6.13745">
        <ele>2034.4</ele>
        <time>2022-12-29T13:23:35Z</time>
      </trkpt>
      <trkpt lat="44.99661" lon="6.13746">
        <ele>2035.2</ele>
        <time>2022-12-29T13:23:36Z</time>
      </trkpt>
      <trkpt lat="44.9966" lon="6.13746">
        <ele>2035.2</ele>
        <time>2022-12-29T13:23:37Z</time>
      </trkpt>
      <trkpt lat="44.99659" lon="6.13747">
        <ele>2035.2</ele>
        <time>2022-12-29T13:23:38Z</time>
      </trkpt>
      <trkpt lat="44.99659" lon="6.13747">
        <ele>2035.2</ele>
        <time>2022-12-29T13:23:39Z</time>
      </trkpt>
      <trkpt lat="44.99658" lon="6.13748">
        <ele>2035.2</ele>
        <time>2022-12-29T13:23:40Z</time>
      </trkpt>
      <trkpt lat="44.99658" lon="6.13748">
        <ele>2035.2</ele>
        <time>2022-12-29T13:23:41Z</time>
      </trkpt>
      <trkpt lat="44.99657" lon="6.13748">
        <ele>2035.2</ele>
        <time>2022-12-29T13:23:42Z</time>
      </trkpt>
      <trkpt lat="44.99656" lon="6.13749">
        <ele>2035.2</ele>
        <time>2022-12-29T13:23:43Z</time>
      </trkpt>
      <trkpt lat="44.99656" lon="6.13749">
        <ele>2035.2</ele>
        <time>2022-12-29T13:23:44Z</time>
      </trkpt>
      <trkpt lat="44.99655" lon="6.1375">
        <ele>2035.2</ele>
        <time>2022-12-29T13:23:45Z</time>
      </trkpt>
      <trkpt lat="44.99655" lon="6.1375">
        <ele>2036.6</ele>
        <time>2022-12-29T13:23:46Z</time>
      </trkpt>
      <trkpt lat="44.99654" lon="6.13751">
        <ele>2036.6</ele>
        <time>2022-12-29T13:23:47Z</time>
      </trkpt>
      <trkpt lat="44.99654" lon="6.13751">
        <ele>2036.6</ele>
        <time>2022-12-29T13:23:48Z</time>
      </trkpt>
      <trkpt lat="44.99653" lon="6.13751">
        <ele>2036.6</ele>
        <time>2022-12-29T13:23:49Z</time>
      </trkpt>
      <trkpt lat="44.99652" lon="6.13752">
        <ele>2036.6</ele>
        <time>2022-12-29T13:23:50Z</time>
      </trkpt>
      <trkpt lat="44.99652" lon="6.13752">
        <ele>2036.6</ele>
        <time>2022-12-29T13:23:51Z</time>
      </trkpt>
      <trkpt lat="44.99651" lon="6.13753">
        <ele>2036.6</ele>
        <time>2022-12-29T13:23:52Z</time>
      </trkpt>
      <trkpt lat="44.99651" lon="6.13753">
        <ele>2036.6</ele>
        <time>2022-12-29T13:23:53Z</time>
      </trkpt>
      <trkpt lat="44.9965" lon="6.13754">
        <ele>2036.6</ele>
        <time>2022-12-29T13:23:54Z</time>
      </trkpt>
      <trkpt lat="44.9965" lon="6.13754">
        <ele>2036.6</ele>
        <time>2022-12-29T13:23:55Z</time>
      </trkpt>
      <trkpt lat="44.99649" lon="6.13754">
        <ele>2038</ele>
        <time>2022-12-29T13:23:56Z</time>
      </trkpt>
      <trkpt lat="44.99648" lon="6.13755">
        <ele>2038</ele>
        <time>2022-12-29T13:23:57Z</time>
      </trkpt>
      <trkpt lat="44.99648" lon="6.13755">
        <ele>2038</ele>
        <time>2022-12-29T13:23:58Z</time>
      </trkpt>
      <trkpt lat="44.99647" lon="6.13755">
        <ele>2038</ele>
        <time>2022-12-29T13:23:59Z</time>
      </trkpt>
      <trkpt lat="44.99647" lon="6.13756">
        <ele>2038</ele>
        <time>2022-12-29T13:24:00Z</time>
      </trkpt>
      <trkpt lat="44.99646" lon="6.13756">
        <ele>2038</ele>
        <time>2022-12-29T13:24:01Z</time>
      </trkpt>
      <trkpt lat="44.99646" lon="6.13756">
        <ele>2038</ele>
        <time>2022-12-29T13:24:02Z</time>
      </trkpt>
      <trkpt lat="44.99645" lon="6.13756">
        <ele>2038</ele>
        <time>2022-12-29T13:24:03Z</time>
      </trkpt>
      <trkpt lat="44.99644" lon="6.13757">
        <ele>2038</ele>
        <time>2022-12-29T13:24:04Z</time>
      </trkpt>
      <trkpt lat="44.99644" lon="6.13757">
        <ele>2038</ele>
        <time>2022-12-29T13:24:05Z</time>
      </trkpt>
      <trkpt lat="44.99643" lon="6.13757">
        <ele>2039.6</ele>
        <time>2022-12-29T13:24:06Z</time>
      </trkpt>
      <trkpt lat="44.99643" lon="6.13757">
        <ele>2039.6</ele>
        <time>2022-12-29T13:24:07Z</time>
      </trkpt>
      <trkpt lat="44.99643" lon="6.13757">
        <ele>2039.6</ele>
        <time>2022-12-29T13:24:08Z</time>
      </trkpt>
      <trkpt lat="44.99643" lon="6.13757">
        <ele>2039.6</ele>
        <time>2022-12-29T13:24:09Z</time>
      </trkpt>
      <trkpt lat="44.99641" lon="6.13759">
        <ele>2039.6</ele>
        <time>2022-12-29T13:24:10Z</time>
      </trkpt>
      <trkpt lat="44.99641" lon="6.13759">
        <ele>2039.6</ele>
        <time>2022-12-29T13:24:11Z</time>
      </trkpt>
      <trkpt lat="44.99641" lon="6.13759">
        <ele>2039.6</ele>
        <time>2022-12-29T13:24:12Z</time>
      </trkpt>
      <trkpt lat="44.99641" lon="6.13759">
        <ele>2039.6</ele>
        <time>2022-12-29T13:24:13Z</time>
      </trkpt>
      <trkpt lat="44.99639" lon="6.13759">
        <ele>2039.6</ele>
        <time>2022-12-29T13:24:14Z</time>
      </trkpt>
      <trkpt lat="44.99639" lon="6.13759">
        <ele>2040.8</ele>
        <time>2022-12-29T13:24:16Z</time>
      </trkpt>
      <trkpt lat="44.99636" lon="6.1376">
        <ele>2040.8</ele>
        <time>2022-12-29T13:24:17Z</time>
      </trkpt>
      <trkpt lat="44.99636" lon="6.1376">
        <ele>2040.8</ele>
        <time>2022-12-29T13:24:18Z</time>
      </trkpt>
      <trkpt lat="44.99635" lon="6.1376">
        <ele>2040.8</ele>
        <time>2022-12-29T13:24:19Z</time>
      </trkpt>
      <trkpt lat="44.99635" lon="6.13761">
        <ele>2040.8</ele>
        <time>2022-12-29T13:24:20Z</time>
      </trkpt>
      <trkpt lat="44.99634" lon="6.13761">
        <ele>2040.8</ele>
        <time>2022-12-29T13:24:21Z</time>
      </trkpt>
      <trkpt lat="44.99634" lon="6.13761">
        <ele>2040.8</ele>
        <time>2022-12-29T13:24:22Z</time>
      </trkpt>
      <trkpt lat="44.99633" lon="6.13761">
        <ele>2040.8</ele>
        <time>2022-12-29T13:24:23Z</time>
      </trkpt>
      <trkpt lat="44.99633" lon="6.13761">
        <ele>2040.8</ele>
        <time>2022-12-29T13:24:24Z</time>
      </trkpt>
      <trkpt lat="44.99633" lon="6.13762">
        <ele>2040.8</ele>
        <time>2022-12-29T13:24:25Z</time>
      </trkpt>
      <trkpt lat="44.99632" lon="6.13762">
        <ele>2042.4</ele>
        <time>2022-12-29T13:24:26Z</time>
      </trkpt>
      <trkpt lat="44.99631" lon="6.13762">
        <ele>2042.4</ele>
        <time>2022-12-29T13:24:27Z</time>
      </trkpt>
      <trkpt lat="44.99631" lon="6.13763">
        <ele>2042.4</ele>
        <time>2022-12-29T13:24:28Z</time>
      </trkpt>
      <trkpt lat="44.9963" lon="6.13763">
        <ele>2042.4</ele>
        <time>2022-12-29T13:24:29Z</time>
      </trkpt>
      <trkpt lat="44.9963" lon="6.13764">
        <ele>2042.4</ele>
        <time>2022-12-29T13:24:30Z</time>
      </trkpt>
      <trkpt lat="44.99629" lon="6.13764">
        <ele>2042.4</ele>
        <time>2022-12-29T13:24:31Z</time>
      </trkpt>
      <trkpt lat="44.99629" lon="6.13765">
        <ele>2042.4</ele>
        <time>2022-12-29T13:24:32Z</time>
      </trkpt>
      <trkpt lat="44.99628" lon="6.13765">
        <ele>2042.4</ele>
        <time>2022-12-29T13:24:33Z</time>
      </trkpt>
      <trkpt lat="44.99627" lon="6.13766">
        <ele>2042.4</ele>
        <time>2022-12-29T13:24:34Z</time>
      </trkpt>
      <trkpt lat="44.99627" lon="6.13766">
        <ele>2042.4</ele>
        <time>2022-12-29T13:24:35Z</time>
      </trkpt>
      <trkpt lat="44.99626" lon="6.13767">
        <ele>2044</ele>
        <time>2022-12-29T13:24:36Z</time>
      </trkpt>
      <trkpt lat="44.99626" lon="6.13767">
        <ele>2044</ele>
        <time>2022-12-29T13:24:37Z</time>
      </trkpt>
      <trkpt lat="44.99625" lon="6.13768">
        <ele>2044</ele>
        <time>2022-12-29T13:24:38Z</time>
      </trkpt>
      <trkpt lat="44.99625" lon="6.13768">
        <ele>2044</ele>
        <time>2022-12-29T13:24:39Z</time>
      </trkpt>
      <trkpt lat="44.99624" lon="6.13768">
        <ele>2044</ele>
        <time>2022-12-29T13:24:40Z</time>
      </trkpt>
      <trkpt lat="44.99624" lon="6.13769">
        <ele>2044</ele>
        <time>2022-12-29T13:24:41Z</time>
      </trkpt>
      <trkpt lat="44.99623" lon="6.13769">
        <ele>2044</ele>
        <time>2022-12-29T13:24:42Z</time>
      </trkpt>
      <trkpt lat="44.99623" lon="6.13769">
        <ele>2044</ele>
        <time>2022-12-29T13:24:43Z</time>
      </trkpt>
      <trkpt lat="44.99622" lon="6.1377">
        <ele>2044</ele>
        <time>2022-12-29T13:24:44Z</time>
      </trkpt>
      <trkpt lat="44.99622" lon="6.1377">
        <ele>2044</ele>
        <time>2022-12-29T13:24:45Z</time>
      </trkpt>
      <trkpt lat="44.99621" lon="6.13771">
        <ele>2045.4</ele>
        <time>2022-12-29T13:24:46Z</time>
      </trkpt>
      <trkpt lat="44.99619" lon="6.13772">
        <ele>2045.4</ele>
        <time>2022-12-29T13:24:47Z</time>
      </trkpt>
      <trkpt lat="44.99618" lon="6.13773">
        <ele>2045.4</ele>
        <time>2022-12-29T13:24:48Z</time>
      </trkpt>
      <trkpt lat="44.99618" lon="6.13773">
        <ele>2045.4</ele>
        <time>2022-12-29T13:24:49Z</time>
      </trkpt>
      <trkpt lat="44.99618" lon="6.13773">
        <ele>2045.4</ele>
        <time>2022-12-29T13:24:50Z</time>
      </trkpt>
      <trkpt lat="44.99617" lon="6.13774">
        <ele>2045.4</ele>
        <time>2022-12-29T13:24:51Z</time>
      </trkpt>
      <trkpt lat="44.99617" lon="6.13774">
        <ele>2045.4</ele>
        <time>2022-12-29T13:24:52Z</time>
      </trkpt>
      <trkpt lat="44.99616" lon="6.13775">
        <ele>2045.4</ele>
        <time>2022-12-29T13:24:53Z</time>
      </trkpt>
      <trkpt lat="44.99616" lon="6.13775">
        <ele>2045.4</ele>
        <time>2022-12-29T13:24:54Z</time>
      </trkpt>
      <trkpt lat="44.99616" lon="6.13775">
        <ele>2045.4</ele>
        <time>2022-12-29T13:24:55Z</time>
      </trkpt>
      <trkpt lat="44.99615" lon="6.13776">
        <ele>2047.8</ele>
        <time>2022-12-29T13:24:56Z</time>
      </trkpt>
      <trkpt lat="44.99615" lon="6.13776">
        <ele>2047.8</ele>
        <time>2022-12-29T13:24:57Z</time>
      </trkpt>
      <trkpt lat="44.99615" lon="6.13777">
        <ele>2047.8</ele>
        <time>2022-12-29T13:24:58Z</time>
      </trkpt>
      <trkpt lat="44.99614" lon="6.13777">
        <ele>2047.8</ele>
        <time>2022-12-29T13:24:59Z</time>
      </trkpt>
      <trkpt lat="44.99614" lon="6.13777">
        <ele>2047.8</ele>
        <time>2022-12-29T13:25:00Z</time>
      </trkpt>
      <trkpt lat="44.99613" lon="6.13778">
        <ele>2047.8</ele>
        <time>2022-12-29T13:25:01Z</time>
      </trkpt>
      <trkpt lat="44.99613" lon="6.13778">
        <ele>2047.8</ele>
        <time>2022-12-29T13:25:02Z</time>
      </trkpt>
      <trkpt lat="44.99613" lon="6.13779">
        <ele>2047.8</ele>
        <time>2022-12-29T13:25:03Z</time>
      </trkpt>
      <trkpt lat="44.99612" lon="6.13779">
        <ele>2047.8</ele>
        <time>2022-12-29T13:25:04Z</time>
      </trkpt>
      <trkpt lat="44.99612" lon="6.1378">
        <ele>2047.8</ele>
        <time>2022-12-29T13:25:05Z</time>
      </trkpt>
      <trkpt lat="44.99612" lon="6.1378">
        <ele>2049.2</ele>
        <time>2022-12-29T13:25:06Z</time>
      </trkpt>
      <trkpt lat="44.99611" lon="6.13781">
        <ele>2049.2</ele>
        <time>2022-12-29T13:25:07Z</time>
      </trkpt>
      <trkpt lat="44.99611" lon="6.13781">
        <ele>2049.2</ele>
        <time>2022-12-29T13:25:08Z</time>
      </trkpt>
      <trkpt lat="44.9961" lon="6.13782">
        <ele>2049.2</ele>
        <time>2022-12-29T13:25:09Z</time>
      </trkpt>
      <trkpt lat="44.9961" lon="6.13782">
        <ele>2049.2</ele>
        <time>2022-12-29T13:25:10Z</time>
      </trkpt>
      <trkpt lat="44.99609" lon="6.13782">
        <ele>2049.2</ele>
        <time>2022-12-29T13:25:11Z</time>
      </trkpt>
      <trkpt lat="44.99609" lon="6.13783">
        <ele>2049.2</ele>
        <time>2022-12-29T13:25:12Z</time>
      </trkpt>
      <trkpt lat="44.99608" lon="6.13783">
        <ele>2049.2</ele>
        <time>2022-12-29T13:25:13Z</time>
      </trkpt>
      <trkpt lat="44.99608" lon="6.13784">
        <ele>2049.2</ele>
        <time>2022-12-29T13:25:14Z</time>
      </trkpt>
      <trkpt lat="44.99607" lon="6.13784">
        <ele>2049.2</ele>
        <time>2022-12-29T13:25:15Z</time>
      </trkpt>
      <trkpt lat="44.99607" lon="6.13785">
        <ele>2050.8</ele>
        <time>2022-12-29T13:25:16Z</time>
      </trkpt>
      <trkpt lat="44.99606" lon="6.13785">
        <ele>2050.8</ele>
        <time>2022-12-29T13:25:17Z</time>
      </trkpt>
      <trkpt lat="44.99606" lon="6.13786">
        <ele>2050.8</ele>
        <time>2022-12-29T13:25:18Z</time>
      </trkpt>
      <trkpt lat="44.99606" lon="6.13786">
        <ele>2050.8</ele>
        <time>2022-12-29T13:25:19Z</time>
      </trkpt>
      <trkpt lat="44.99605" lon="6.13787">
        <ele>2050.8</ele>
        <time>2022-12-29T13:25:20Z</time>
      </trkpt>
      <trkpt lat="44.99605" lon="6.13787">
        <ele>2050.8</ele>
        <time>2022-12-29T13:25:21Z</time>
      </trkpt>
      <trkpt lat="44.99605" lon="6.13787">
        <ele>2050.8</ele>
        <time>2022-12-29T13:25:22Z</time>
      </trkpt>
      <trkpt lat="44.99605" lon="6.13788">
        <ele>2050.8</ele>
        <time>2022-12-29T13:25:23Z</time>
      </trkpt>
      <trkpt lat="44.99604" lon="6.13788">
        <ele>2050.8</ele>
        <time>2022-12-29T13:25:24Z</time>
      </trkpt>
      <trkpt lat="44.99604" lon="6.13789">
        <ele>2050.8</ele>
        <time>2022-12-29T13:25:25Z</time>
      </trkpt>
      <trkpt lat="44.99604" lon="6.13789">
        <ele>2052.2</ele>
        <time>2022-12-29T13:25:26Z</time>
      </trkpt>
      <trkpt lat="44.99604" lon="6.13789">
        <ele>2052.2</ele>
        <time>2022-12-29T13:25:27Z</time>
      </trkpt>
      <trkpt lat="44.99602" lon="6.13791">
        <ele>2052.2</ele>
        <time>2022-12-29T13:25:28Z</time>
      </trkpt>
      <trkpt lat="44.99602" lon="6.13791">
        <ele>2052.2</ele>
        <time>2022-12-29T13:25:29Z</time>
      </trkpt>
      <trkpt lat="44.99602" lon="6.13791">
        <ele>2052.2</ele>
        <time>2022-12-29T13:25:30Z</time>
      </trkpt>
      <trkpt lat="44.99602" lon="6.13791">
        <ele>2052.2</ele>
        <time>2022-12-29T13:25:31Z</time>
      </trkpt>
      <trkpt lat="44.99602" lon="6.13791">
        <ele>2052.2</ele>
        <time>2022-12-29T13:25:32Z</time>
      </trkpt>
      <trkpt lat="44.99602" lon="6.13791">
        <ele>2052.2</ele>
        <time>2022-12-29T13:25:33Z</time>
      </trkpt>
      <trkpt lat="44.99602" lon="6.13791">
        <ele>2052.2</ele>
        <time>2022-12-29T13:25:34Z</time>
      </trkpt>
      <trkpt lat="44.99602" lon="6.13791">
        <ele>2052.2</ele>
        <time>2022-12-29T13:25:35Z</time>
      </trkpt>
      <trkpt lat="44.99602" lon="6.13791">
        <ele>2052.8</ele>
        <time>2022-12-29T13:25:36Z</time>
      </trkpt>
      <trkpt lat="44.99602" lon="6.13791">
        <ele>2052.8</ele>
        <time>2022-12-29T13:25:37Z</time>
      </trkpt>
      <trkpt lat="44.99601" lon="6.13791">
        <ele>2052.8</ele>
        <time>2022-12-29T13:25:38Z</time>
      </trkpt>
      <trkpt lat="44.99601" lon="6.13791">
        <ele>2052.8</ele>
        <time>2022-12-29T13:25:39Z</time>
      </trkpt>
      <trkpt lat="44.99601" lon="6.13791">
        <ele>2052.8</ele>
        <time>2022-12-29T13:25:40Z</time>
      </trkpt>
      <trkpt lat="44.99601" lon="6.13792">
        <ele>2052.8</ele>
        <time>2022-12-29T13:25:41Z</time>
      </trkpt>
      <trkpt lat="44.99601" lon="6.13792">
        <ele>2052.8</ele>
        <time>2022-12-29T13:25:42Z</time>
      </trkpt>
      <trkpt lat="44.99601" lon="6.13792">
        <ele>2052.8</ele>
        <time>2022-12-29T13:25:43Z</time>
      </trkpt>
      <trkpt lat="44.99601" lon="6.13792">
        <ele>2052.8</ele>
        <time>2022-12-29T13:25:44Z</time>
      </trkpt>
      <trkpt lat="44.99601" lon="6.13792">
        <ele>2052.8</ele>
        <time>2022-12-29T13:25:45Z</time>
      </trkpt>
      <trkpt lat="44.996" lon="6.13792">
        <ele>2052.8</ele>
        <time>2022-12-29T13:25:46Z</time>
      </trkpt>
      <trkpt lat="44.996" lon="6.13792">
        <ele>2052.8</ele>
        <time>2022-12-29T13:25:47Z</time>
      </trkpt>
      <trkpt lat="44.996" lon="6.13792">
        <ele>2052.8</ele>
        <time>2022-12-29T13:25:48Z</time>
      </trkpt>
      <trkpt lat="44.996" lon="6.13792">
        <ele>2052.8</ele>
        <time>2022-12-29T13:25:49Z</time>
      </trkpt>
      <trkpt lat="44.996" lon="6.13793">
        <ele>2052.8</ele>
        <time>2022-12-29T13:25:50Z</time>
      </trkpt>
      <trkpt lat="44.996" lon="6.13793">
        <ele>2052.8</ele>
        <time>2022-12-29T13:25:51Z</time>
      </trkpt>
      <trkpt lat="44.996" lon="6.13793">
        <ele>2052.8</ele>
        <time>2022-12-29T13:25:52Z</time>
      </trkpt>
      <trkpt lat="44.996" lon="6.13793">
        <ele>2052.8</ele>
        <time>2022-12-29T13:25:53Z</time>
      </trkpt>
      <trkpt lat="44.99599" lon="6.13793">
        <ele>2052.8</ele>
        <time>2022-12-29T13:25:54Z</time>
      </trkpt>
      <trkpt lat="44.99599" lon="6.13793">
        <ele>2052.8</ele>
        <time>2022-12-29T13:25:55Z</time>
      </trkpt>
      <trkpt lat="44.99599" lon="6.13793">
        <ele>2052.8</ele>
        <time>2022-12-29T13:25:56Z</time>
      </trkpt>
      <trkpt lat="44.99599" lon="6.13793">
        <ele>2052.8</ele>
        <time>2022-12-29T13:25:57Z</time>
      </trkpt>
      <trkpt lat="44.99599" lon="6.13793">
        <ele>2052.8</ele>
        <time>2022-12-29T13:25:58Z</time>
      </trkpt>
      <trkpt lat="44.99599" lon="6.13793">
        <ele>2052.8</ele>
        <time>2022-12-29T13:25:59Z</time>
      </trkpt>
      <trkpt lat="44.99599" lon="6.13794">
        <ele>2052.8</ele>
        <time>2022-12-29T13:26:00Z</time>
      </trkpt>
      <trkpt lat="44.99599" lon="6.13794">
        <ele>2052.8</ele>
        <time>2022-12-29T13:26:01Z</time>
      </trkpt>
      <trkpt lat="44.99598" lon="6.13794">
        <ele>2052.8</ele>
        <time>2022-12-29T13:26:02Z</time>
      </trkpt>
      <trkpt lat="44.99598" lon="6.13794">
        <ele>2052.8</ele>
        <time>2022-12-29T13:26:03Z</time>
      </trkpt>
      <trkpt lat="44.99598" lon="6.13794">
        <ele>2052.8</ele>
        <time>2022-12-29T13:26:04Z</time>
      </trkpt>
      <trkpt lat="44.99598" lon="6.13794">
        <ele>2052.8</ele>
        <time>2022-12-29T13:26:05Z</time>
      </trkpt>
      <trkpt lat="44.99598" lon="6.13794">
        <ele>2053.6</ele>
        <time>2022-12-29T13:26:06Z</time>
      </trkpt>
      <trkpt lat="44.99598" lon="6.13794">
        <ele>2053.6</ele>
        <time>2022-12-29T13:26:07Z</time>
      </trkpt>
      <trkpt lat="44.99598" lon="6.13794">
        <ele>2053.6</ele>
        <time>2022-12-29T13:26:08Z</time>
      </trkpt>
      <trkpt lat="44.99598" lon="6.13795">
        <ele>2053.6</ele>
        <time>2022-12-29T13:26:09Z</time>
      </trkpt>
      <trkpt lat="44.99597" lon="6.13795">
        <ele>2053.6</ele>
        <time>2022-12-29T13:26:10Z</time>
      </trkpt>
      <trkpt lat="44.99597" lon="6.13795">
        <ele>2053.6</ele>
        <time>2022-12-29T13:26:13Z</time>
      </trkpt>
      <trkpt lat="44.99597" lon="6.13795">
        <ele>2053.6</ele>
        <time>2022-12-29T13:26:14Z</time>
      </trkpt>
      <trkpt lat="44.99597" lon="6.13795">
        <ele>2053.6</ele>
        <time>2022-12-29T13:26:15Z</time>
      </trkpt>
      <trkpt lat="44.99597" lon="6.13795">
        <ele>2054.2</ele>
        <time>2022-12-29T13:26:16Z</time>
      </trkpt>
      <trkpt lat="44.99597" lon="6.13795">
        <ele>2054.2</ele>
        <time>2022-12-29T13:26:17Z</time>
      </trkpt>
      <trkpt lat="44.99597" lon="6.13795">
        <ele>2054.2</ele>
        <time>2022-12-29T13:26:18Z</time>
      </trkpt>
      <trkpt lat="44.99597" lon="6.13795">
        <ele>2054.2</ele>
        <time>2022-12-29T13:26:19Z</time>
      </trkpt>
      <trkpt lat="44.99596" lon="6.13795">
        <ele>2054.2</ele>
        <time>2022-12-29T13:26:20Z</time>
      </trkpt>
      <trkpt lat="44.99596" lon="6.13796">
        <ele>2054.2</ele>
        <time>2022-12-29T13:26:21Z</time>
      </trkpt>
      <trkpt lat="44.99596" lon="6.13796">
        <ele>2054.2</ele>
        <time>2022-12-29T13:26:22Z</time>
      </trkpt>
      <trkpt lat="44.99596" lon="6.13796">
        <ele>2054.2</ele>
        <time>2022-12-29T13:26:23Z</time>
      </trkpt>
      <trkpt lat="44.99596" lon="6.13796">
        <ele>2054.2</ele>
        <time>2022-12-29T13:26:24Z</time>
      </trkpt>
      <trkpt lat="44.99596" lon="6.13796">
        <ele>2054.2</ele>
        <time>2022-12-29T13:26:25Z</time>
      </trkpt>
      <trkpt lat="44.99596" lon="6.13796">
        <ele>2053.8</ele>
        <time>2022-12-29T13:26:26Z</time>
      </trkpt>
      <trkpt lat="44.99596" lon="6.13796">
        <ele>2053.8</ele>
        <time>2022-12-29T13:26:27Z</time>
      </trkpt>
      <trkpt lat="44.99595" lon="6.13796">
        <ele>2053.8</ele>
        <time>2022-12-29T13:26:28Z</time>
      </trkpt>
      <trkpt lat="44.99595" lon="6.13796">
        <ele>2053.8</ele>
        <time>2022-12-29T13:26:29Z</time>
      </trkpt>
      <trkpt lat="44.99595" lon="6.13797">
        <ele>2053.8</ele>
        <time>2022-12-29T13:26:30Z</time>
      </trkpt>
      <trkpt lat="44.99595" lon="6.13797">
        <ele>2053.8</ele>
        <time>2022-12-29T13:26:31Z</time>
      </trkpt>
      <trkpt lat="44.99595" lon="6.13797">
        <ele>2053.8</ele>
        <time>2022-12-29T13:26:32Z</time>
      </trkpt>
      <trkpt lat="44.99595" lon="6.13797">
        <ele>2053.8</ele>
        <time>2022-12-29T13:26:33Z</time>
      </trkpt>
      <trkpt lat="44.99595" lon="6.13797">
        <ele>2053.8</ele>
        <time>2022-12-29T13:26:34Z</time>
      </trkpt>
      <trkpt lat="44.99595" lon="6.13797">
        <ele>2053.8</ele>
        <time>2022-12-29T13:26:35Z</time>
      </trkpt>
      <trkpt lat="44.99594" lon="6.13797">
        <ele>2052.8</ele>
        <time>2022-12-29T13:26:36Z</time>
      </trkpt>
      <trkpt lat="44.99594" lon="6.13797">
        <ele>2052.8</ele>
        <time>2022-12-29T13:26:37Z</time>
      </trkpt>
      <trkpt lat="44.99594" lon="6.13797">
        <ele>2052.8</ele>
        <time>2022-12-29T13:26:38Z</time>
      </trkpt>
      <trkpt lat="44.99594" lon="6.13798">
        <ele>2052.8</ele>
        <time>2022-12-29T13:26:39Z</time>
      </trkpt>
      <trkpt lat="44.99594" lon="6.13798">
        <ele>2052.8</ele>
        <time>2022-12-29T13:26:40Z</time>
      </trkpt>
      <trkpt lat="44.99594" lon="6.13798">
        <ele>2052.8</ele>
        <time>2022-12-29T13:26:41Z</time>
      </trkpt>
      <trkpt lat="44.99594" lon="6.13798">
        <ele>2052.8</ele>
        <time>2022-12-29T13:26:42Z</time>
      </trkpt>
      <trkpt lat="44.99594" lon="6.13798">
        <ele>2052.8</ele>
        <time>2022-12-29T13:26:43Z</time>
      </trkpt>
      <trkpt lat="44.99593" lon="6.13798">
        <ele>2052.8</ele>
        <time>2022-12-29T13:26:44Z</time>
      </trkpt>
      <trkpt lat="44.99593" lon="6.13798">
        <ele>2052.8</ele>
        <time>2022-12-29T13:26:45Z</time>
      </trkpt>
      <trkpt lat="44.99593" lon="6.13798">
        <ele>2053.2</ele>
        <time>2022-12-29T13:26:46Z</time>
      </trkpt>
      <trkpt lat="44.99593" lon="6.13798">
        <ele>2053.2</ele>
        <time>2022-12-29T13:26:47Z</time>
      </trkpt>
      <trkpt lat="44.99593" lon="6.13798">
        <ele>2053.2</ele>
        <time>2022-12-29T13:26:48Z</time>
      </trkpt>
      <trkpt lat="44.99593" lon="6.13799">
        <ele>2053.2</ele>
        <time>2022-12-29T13:26:49Z</time>
      </trkpt>
      <trkpt lat="44.99593" lon="6.13799">
        <ele>2053.2</ele>
        <time>2022-12-29T13:26:53Z</time>
      </trkpt>
      <trkpt lat="44.99593" lon="6.13799">
        <ele>2053.2</ele>
        <time>2022-12-29T13:26:54Z</time>
      </trkpt>
      <trkpt lat="44.99592" lon="6.13799">
        <ele>2053.2</ele>
        <time>2022-12-29T13:26:55Z</time>
      </trkpt>
      <trkpt lat="44.99592" lon="6.13799">
        <ele>2055</ele>
        <time>2022-12-29T13:26:56Z</time>
      </trkpt>
      <trkpt lat="44.99592" lon="6.13799">
        <ele>2055</ele>
        <time>2022-12-29T13:26:57Z</time>
      </trkpt>
      <trkpt lat="44.99592" lon="6.13799">
        <ele>2055</ele>
        <time>2022-12-29T13:26:58Z</time>
      </trkpt>
      <trkpt lat="44.99592" lon="6.13799">
        <ele>2055</ele>
        <time>2022-12-29T13:26:59Z</time>
      </trkpt>
      <trkpt lat="44.99592" lon="6.13799">
        <ele>2055</ele>
        <time>2022-12-29T13:27:00Z</time>
      </trkpt>
      <trkpt lat="44.99592" lon="6.138">
        <ele>2055</ele>
        <time>2022-12-29T13:27:01Z</time>
      </trkpt>
      <trkpt lat="44.99592" lon="6.138">
        <ele>2055</ele>
        <time>2022-12-29T13:27:02Z</time>
      </trkpt>
      <trkpt lat="44.99591" lon="6.138">
        <ele>2055</ele>
        <time>2022-12-29T13:27:03Z</time>
      </trkpt>
      <trkpt lat="44.99591" lon="6.138">
        <ele>2055</ele>
        <time>2022-12-29T13:27:04Z</time>
      </trkpt>
      <trkpt lat="44.99591" lon="6.138">
        <ele>2055</ele>
        <time>2022-12-29T13:27:05Z</time>
      </trkpt>
      <trkpt lat="44.99591" lon="6.138">
        <ele>2056.4</ele>
        <time>2022-12-29T13:27:06Z</time>
      </trkpt>
      <trkpt lat="44.99591" lon="6.138">
        <ele>2056.4</ele>
        <time>2022-12-29T13:27:08Z</time>
      </trkpt>
      <trkpt lat="44.9959" lon="6.13801">
        <ele>2056.4</ele>
        <time>2022-12-29T13:27:09Z</time>
      </trkpt>
      <trkpt lat="44.9959" lon="6.13801">
        <ele>2056.4</ele>
        <time>2022-12-29T13:27:10Z</time>
      </trkpt>
      <trkpt lat="44.99589" lon="6.13801">
        <ele>2056.4</ele>
        <time>2022-12-29T13:27:11Z</time>
      </trkpt>
      <trkpt lat="44.99589" lon="6.13801">
        <ele>2056.4</ele>
        <time>2022-12-29T13:27:12Z</time>
      </trkpt>
      <trkpt lat="44.99588" lon="6.13802">
        <ele>2056.4</ele>
        <time>2022-12-29T13:27:13Z</time>
      </trkpt>
      <trkpt lat="44.99588" lon="6.13802">
        <ele>2056.4</ele>
        <time>2022-12-29T13:27:14Z</time>
      </trkpt>
      <trkpt lat="44.99587" lon="6.13802">
        <ele>2056.4</ele>
        <time>2022-12-29T13:27:15Z</time>
      </trkpt>
      <trkpt lat="44.99587" lon="6.13802">
        <ele>2058</ele>
        <time>2022-12-29T13:27:16Z</time>
      </trkpt>
      <trkpt lat="44.99586" lon="6.13803">
        <ele>2058</ele>
        <time>2022-12-29T13:27:17Z</time>
      </trkpt>
      <trkpt lat="44.99586" lon="6.13803">
        <ele>2058</ele>
        <time>2022-12-29T13:27:18Z</time>
      </trkpt>
      <trkpt lat="44.99586" lon="6.13804">
        <ele>2058</ele>
        <time>2022-12-29T13:27:19Z</time>
      </trkpt>
      <trkpt lat="44.99585" lon="6.13804">
        <ele>2058</ele>
        <time>2022-12-29T13:27:20Z</time>
      </trkpt>
      <trkpt lat="44.99585" lon="6.13805">
        <ele>2058</ele>
        <time>2022-12-29T13:27:21Z</time>
      </trkpt>
      <trkpt lat="44.99584" lon="6.13805">
        <ele>2058</ele>
        <time>2022-12-29T13:27:22Z</time>
      </trkpt>
      <trkpt lat="44.99584" lon="6.13806">
        <ele>2058</ele>
        <time>2022-12-29T13:27:23Z</time>
      </trkpt>
      <trkpt lat="44.99583" lon="6.13806">
        <ele>2058</ele>
        <time>2022-12-29T13:27:24Z</time>
      </trkpt>
      <trkpt lat="44.99583" lon="6.13807">
        <ele>2058</ele>
        <time>2022-12-29T13:27:25Z</time>
      </trkpt>
      <trkpt lat="44.99582" lon="6.13807">
        <ele>2059.2</ele>
        <time>2022-12-29T13:27:26Z</time>
      </trkpt>
      <trkpt lat="44.99581" lon="6.13809">
        <ele>2059.2</ele>
        <time>2022-12-29T13:27:27Z</time>
      </trkpt>
      <trkpt lat="44.9958" lon="6.13809">
        <ele>2059.2</ele>
        <time>2022-12-29T13:27:28Z</time>
      </trkpt>
      <trkpt lat="44.9958" lon="6.1381">
        <ele>2059.2</ele>
        <time>2022-12-29T13:27:29Z</time>
      </trkpt>
      <trkpt lat="44.9958" lon="6.1381">
        <ele>2059.2</ele>
        <time>2022-12-29T13:27:30Z</time>
      </trkpt>
      <trkpt lat="44.9958" lon="6.1381">
        <ele>2059.2</ele>
        <time>2022-12-29T13:27:31Z</time>
      </trkpt>
      <trkpt lat="44.99579" lon="6.13811">
        <ele>2059.2</ele>
        <time>2022-12-29T13:27:32Z</time>
      </trkpt>
      <trkpt lat="44.99579" lon="6.13811">
        <ele>2059.2</ele>
        <time>2022-12-29T13:27:33Z</time>
      </trkpt>
      <trkpt lat="44.99579" lon="6.13812">
        <ele>2059.2</ele>
        <time>2022-12-29T13:27:34Z</time>
      </trkpt>
      <trkpt lat="44.99579" lon="6.13812">
        <ele>2059.2</ele>
        <time>2022-12-29T13:27:35Z</time>
      </trkpt>
      <trkpt lat="44.99578" lon="6.13813">
        <ele>2061</ele>
        <time>2022-12-29T13:27:36Z</time>
      </trkpt>
      <trkpt lat="44.99576" lon="6.13814">
        <ele>2061</ele>
        <time>2022-12-29T13:27:37Z</time>
      </trkpt>
      <trkpt lat="44.99575" lon="6.13815">
        <ele>2061</ele>
        <time>2022-12-29T13:27:38Z</time>
      </trkpt>
      <trkpt lat="44.99575" lon="6.13815">
        <ele>2061</ele>
        <time>2022-12-29T13:27:39Z</time>
      </trkpt>
      <trkpt lat="44.99574" lon="6.13815">
        <ele>2061</ele>
        <time>2022-12-29T13:27:40Z</time>
      </trkpt>
      <trkpt lat="44.99573" lon="6.13816">
        <ele>2061</ele>
        <time>2022-12-29T13:27:41Z</time>
      </trkpt>
      <trkpt lat="44.99573" lon="6.13816">
        <ele>2061</ele>
        <time>2022-12-29T13:27:42Z</time>
      </trkpt>
      <trkpt lat="44.99572" lon="6.13817">
        <ele>2061</ele>
        <time>2022-12-29T13:27:43Z</time>
      </trkpt>
      <trkpt lat="44.99572" lon="6.13817">
        <ele>2061</ele>
        <time>2022-12-29T13:27:44Z</time>
      </trkpt>
      <trkpt lat="44.99571" lon="6.13817">
        <ele>2061</ele>
        <time>2022-12-29T13:27:45Z</time>
      </trkpt>
      <trkpt lat="44.99571" lon="6.13818">
        <ele>2063</ele>
        <time>2022-12-29T13:27:46Z</time>
      </trkpt>
      <trkpt lat="44.9957" lon="6.13818">
        <ele>2063</ele>
        <time>2022-12-29T13:27:47Z</time>
      </trkpt>
      <trkpt lat="44.9957" lon="6.13819">
        <ele>2063</ele>
        <time>2022-12-29T13:27:48Z</time>
      </trkpt>
      <trkpt lat="44.99569" lon="6.13819">
        <ele>2063</ele>
        <time>2022-12-29T13:27:49Z</time>
      </trkpt>
      <trkpt lat="44.99569" lon="6.13819">
        <ele>2063</ele>
        <time>2022-12-29T13:27:50Z</time>
      </trkpt>
      <trkpt lat="44.99569" lon="6.13819">
        <ele>2063</ele>
        <time>2022-12-29T13:27:51Z</time>
      </trkpt>
      <trkpt lat="44.99568" lon="6.1382">
        <ele>2063</ele>
        <time>2022-12-29T13:27:52Z</time>
      </trkpt>
      <trkpt lat="44.99568" lon="6.1382">
        <ele>2063</ele>
        <time>2022-12-29T13:27:53Z</time>
      </trkpt>
      <trkpt lat="44.99568" lon="6.1382">
        <ele>2063</ele>
        <time>2022-12-29T13:27:54Z</time>
      </trkpt>
      <trkpt lat="44.99567" lon="6.13821">
        <ele>2063</ele>
        <time>2022-12-29T13:27:55Z</time>
      </trkpt>
      <trkpt lat="44.99567" lon="6.13821">
        <ele>2064</ele>
        <time>2022-12-29T13:27:56Z</time>
      </trkpt>
      <trkpt lat="44.99565" lon="6.13823">
        <ele>2064</ele>
        <time>2022-12-29T13:27:57Z</time>
      </trkpt>
      <trkpt lat="44.99565" lon="6.13823">
        <ele>2064</ele>
        <time>2022-12-29T13:27:58Z</time>
      </trkpt>
      <trkpt lat="44.99564" lon="6.13824">
        <ele>2064</ele>
        <time>2022-12-29T13:27:59Z</time>
      </trkpt>
      <trkpt lat="44.99564" lon="6.13824">
        <ele>2064</ele>
        <time>2022-12-29T13:28:00Z</time>
      </trkpt>
      <trkpt lat="44.99564" lon="6.13824">
        <ele>2064</ele>
        <time>2022-12-29T13:28:01Z</time>
      </trkpt>
      <trkpt lat="44.99563" lon="6.13825">
        <ele>2064</ele>
        <time>2022-12-29T13:28:02Z</time>
      </trkpt>
      <trkpt lat="44.99563" lon="6.13825">
        <ele>2064</ele>
        <time>2022-12-29T13:28:03Z</time>
      </trkpt>
      <trkpt lat="44.99563" lon="6.13825">
        <ele>2064</ele>
        <time>2022-12-29T13:28:04Z</time>
      </trkpt>
      <trkpt lat="44.99562" lon="6.13826">
        <ele>2064</ele>
        <time>2022-12-29T13:28:05Z</time>
      </trkpt>
      <trkpt lat="44.99562" lon="6.13826">
        <ele>2065.2</ele>
        <time>2022-12-29T13:28:06Z</time>
      </trkpt>
      <trkpt lat="44.99561" lon="6.13828">
        <ele>2065.2</ele>
        <time>2022-12-29T13:28:07Z</time>
      </trkpt>
      <trkpt lat="44.99561" lon="6.13828">
        <ele>2065.2</ele>
        <time>2022-12-29T13:28:08Z</time>
      </trkpt>
      <trkpt lat="44.99561" lon="6.13828">
        <ele>2065.2</ele>
        <time>2022-12-29T13:28:09Z</time>
      </trkpt>
      <trkpt lat="44.99561" lon="6.13828">
        <ele>2065.2</ele>
        <time>2022-12-29T13:28:10Z</time>
      </trkpt>
      <trkpt lat="44.99559" lon="6.1383">
        <ele>2065.2</ele>
        <time>2022-12-29T13:28:11Z</time>
      </trkpt>
      <trkpt lat="44.99559" lon="6.1383">
        <ele>2065.2</ele>
        <time>2022-12-29T13:28:12Z</time>
      </trkpt>
      <trkpt lat="44.99559" lon="6.1383">
        <ele>2065.2</ele>
        <time>2022-12-29T13:28:13Z</time>
      </trkpt>
      <trkpt lat="44.99559" lon="6.1383">
        <ele>2065.2</ele>
        <time>2022-12-29T13:28:14Z</time>
      </trkpt>
      <trkpt lat="44.99559" lon="6.1383">
        <ele>2065.2</ele>
        <time>2022-12-29T13:28:15Z</time>
      </trkpt>
      <trkpt lat="44.99559" lon="6.1383">
        <ele>2066.8</ele>
        <time>2022-12-29T13:28:16Z</time>
      </trkpt>
      <trkpt lat="44.99559" lon="6.1383">
        <ele>2066.8</ele>
        <time>2022-12-29T13:28:17Z</time>
      </trkpt>
      <trkpt lat="44.99559" lon="6.1383">
        <ele>2066.8</ele>
        <time>2022-12-29T13:28:18Z</time>
      </trkpt>
      <trkpt lat="44.99559" lon="6.1383">
        <ele>2066.8</ele>
        <time>2022-12-29T13:28:19Z</time>
      </trkpt>
      <trkpt lat="44.99559" lon="6.1383">
        <ele>2066.8</ele>
        <time>2022-12-29T13:28:20Z</time>
      </trkpt>
      <trkpt lat="44.99558" lon="6.13832">
        <ele>2066.8</ele>
        <time>2022-12-29T13:28:21Z</time>
      </trkpt>
      <trkpt lat="44.99558" lon="6.13832">
        <ele>2066.8</ele>
        <time>2022-12-29T13:28:22Z</time>
      </trkpt>
      <trkpt lat="44.99558" lon="6.13832">
        <ele>2066.8</ele>
        <time>2022-12-29T13:28:23Z</time>
      </trkpt>
      <trkpt lat="44.99558" lon="6.13832">
        <ele>2066.8</ele>
        <time>2022-12-29T13:28:24Z</time>
      </trkpt>
      <trkpt lat="44.99558" lon="6.13832">
        <ele>2066.8</ele>
        <time>2022-12-29T13:28:25Z</time>
      </trkpt>
      <trkpt lat="44.99558" lon="6.13832">
        <ele>2067</ele>
        <time>2022-12-29T13:28:26Z</time>
      </trkpt>
      <trkpt lat="44.99558" lon="6.13832">
        <ele>2067</ele>
        <time>2022-12-29T13:28:27Z</time>
      </trkpt>
      <trkpt lat="44.99558" lon="6.13832">
        <ele>2067</ele>
        <time>2022-12-29T13:28:28Z</time>
      </trkpt>
      <trkpt lat="44.99558" lon="6.13832">
        <ele>2067</ele>
        <time>2022-12-29T13:28:29Z</time>
      </trkpt>
      <trkpt lat="44.99558" lon="6.13832">
        <ele>2067</ele>
        <time>2022-12-29T13:28:30Z</time>
      </trkpt>
      <trkpt lat="44.99558" lon="6.13832">
        <ele>2067</ele>
        <time>2022-12-29T13:28:31Z</time>
      </trkpt>
      <trkpt lat="44.99558" lon="6.13832">
        <ele>2067</ele>
        <time>2022-12-29T13:28:32Z</time>
      </trkpt>
      <trkpt lat="44.99558" lon="6.13832">
        <ele>2067</ele>
        <time>2022-12-29T13:28:33Z</time>
      </trkpt>
      <trkpt lat="44.99558" lon="6.13832">
        <ele>2067</ele>
        <time>2022-12-29T13:28:34Z</time>
      </trkpt>
      <trkpt lat="44.99558" lon="6.13832">
        <ele>2067</ele>
        <time>2022-12-29T13:28:35Z</time>
      </trkpt>
      <trkpt lat="44.99558" lon="6.13832">
        <ele>2066.8</ele>
        <time>2022-12-29T13:28:36Z</time>
      </trkpt>
      <trkpt lat="44.99558" lon="6.13832">
        <ele>2066.8</ele>
        <time>2022-12-29T13:28:37Z</time>
      </trkpt>
      <trkpt lat="44.99558" lon="6.13832">
        <ele>2066.8</ele>
        <time>2022-12-29T13:28:38Z</time>
      </trkpt>
      <trkpt lat="44.99558" lon="6.13832">
        <ele>2066.8</ele>
        <time>2022-12-29T13:28:39Z</time>
      </trkpt>
      <trkpt lat="44.99558" lon="6.13832">
        <ele>2066.8</ele>
        <time>2022-12-29T13:28:40Z</time>
      </trkpt>
      <trkpt lat="44.99558" lon="6.13833">
        <ele>2066.8</ele>
        <time>2022-12-29T13:28:41Z</time>
      </trkpt>
      <trkpt lat="44.99558" lon="6.13833">
        <ele>2066.8</ele>
        <time>2022-12-29T13:28:42Z</time>
      </trkpt>
      <trkpt lat="44.99559" lon="6.13833">
        <ele>2066.8</ele>
        <time>2022-12-29T13:28:43Z</time>
      </trkpt>
      <trkpt lat="44.99559" lon="6.13833">
        <ele>2066.8</ele>
        <time>2022-12-29T13:28:44Z</time>
      </trkpt>
      <trkpt lat="44.99559" lon="6.13833">
        <ele>2066.8</ele>
        <time>2022-12-29T13:28:45Z</time>
      </trkpt>
      <trkpt lat="44.99559" lon="6.13833">
        <ele>2066.2</ele>
        <time>2022-12-29T13:28:46Z</time>
      </trkpt>
      <trkpt lat="44.99559" lon="6.13833">
        <ele>2066.2</ele>
        <time>2022-12-29T13:28:47Z</time>
      </trkpt>
      <trkpt lat="44.99559" lon="6.13833">
        <ele>2066.2</ele>
        <time>2022-12-29T13:28:48Z</time>
      </trkpt>
      <trkpt lat="44.99559" lon="6.13833">
        <ele>2066.2</ele>
        <time>2022-12-29T13:28:49Z</time>
      </trkpt>
      <trkpt lat="44.99559" lon="6.13833">
        <ele>2066.2</ele>
        <time>2022-12-29T13:28:50Z</time>
      </trkpt>
      <trkpt lat="44.99559" lon="6.13833">
        <ele>2066.2</ele>
        <time>2022-12-29T13:28:51Z</time>
      </trkpt>
      <trkpt lat="44.99559" lon="6.13833">
        <ele>2066.2</ele>
        <time>2022-12-29T13:28:52Z</time>
      </trkpt>
      <trkpt lat="44.99559" lon="6.13833">
        <ele>2066.2</ele>
        <time>2022-12-29T13:28:53Z</time>
      </trkpt>
      <trkpt lat="44.99559" lon="6.13833">
        <ele>2066.2</ele>
        <time>2022-12-29T13:28:54Z</time>
      </trkpt>
      <trkpt lat="44.99559" lon="6.13833">
        <ele>2066.2</ele>
        <time>2022-12-29T13:28:55Z</time>
      </trkpt>
      <trkpt lat="44.99559" lon="6.13833">
        <ele>2066.8</ele>
        <time>2022-12-29T13:28:56Z</time>
      </trkpt>
      <trkpt lat="44.99559" lon="6.13833">
        <ele>2066.8</ele>
        <time>2022-12-29T13:28:57Z</time>
      </trkpt>
      <trkpt lat="44.99559" lon="6.13833">
        <ele>2066.8</ele>
        <time>2022-12-29T13:28:58Z</time>
      </trkpt>
      <trkpt lat="44.99559" lon="6.13833">
        <ele>2066.8</ele>
        <time>2022-12-29T13:28:59Z</time>
      </trkpt>
      <trkpt lat="44.99559" lon="6.13833">
        <ele>2066.8</ele>
        <time>2022-12-29T13:29:00Z</time>
      </trkpt>
      <trkpt lat="44.99559" lon="6.13833">
        <ele>2066.8</ele>
        <time>2022-12-29T13:29:01Z</time>
      </trkpt>
      <trkpt lat="44.99559" lon="6.13833">
        <ele>2066.8</ele>
        <time>2022-12-29T13:29:02Z</time>
      </trkpt>
      <trkpt lat="44.99559" lon="6.13833">
        <ele>2066.8</ele>
        <time>2022-12-29T13:29:03Z</time>
      </trkpt>
      <trkpt lat="44.99559" lon="6.13833">
        <ele>2066.8</ele>
        <time>2022-12-29T13:29:04Z</time>
      </trkpt>
      <trkpt lat="44.99559" lon="6.13833">
        <ele>2066.8</ele>
        <time>2022-12-29T13:29:05Z</time>
      </trkpt>
      <trkpt lat="44.99559" lon="6.13833">
        <ele>2066.8</ele>
        <time>2022-12-29T13:29:06Z</time>
      </trkpt>
      <trkpt lat="44.9956" lon="6.13833">
        <ele>2066.8</ele>
        <time>2022-12-29T13:29:07Z</time>
      </trkpt>
      <trkpt lat="44.9956" lon="6.13833">
        <ele>2066.8</ele>
        <time>2022-12-29T13:29:08Z</time>
      </trkpt>
      <trkpt lat="44.9956" lon="6.13833">
        <ele>2066.8</ele>
        <time>2022-12-29T13:29:09Z</time>
      </trkpt>
      <trkpt lat="44.9956" lon="6.13833">
        <ele>2066.8</ele>
        <time>2022-12-29T13:29:10Z</time>
      </trkpt>
      <trkpt lat="44.9956" lon="6.13833">
        <ele>2066.8</ele>
        <time>2022-12-29T13:29:11Z</time>
      </trkpt>
      <trkpt lat="44.9956" lon="6.13833">
        <ele>2066.8</ele>
        <time>2022-12-29T13:29:12Z</time>
      </trkpt>
      <trkpt lat="44.9956" lon="6.13833">
        <ele>2066.8</ele>
        <time>2022-12-29T13:29:13Z</time>
      </trkpt>
      <trkpt lat="44.9956" lon="6.13834">
        <ele>2066.8</ele>
        <time>2022-12-29T13:29:14Z</time>
      </trkpt>
      <trkpt lat="44.9956" lon="6.13834">
        <ele>2066.8</ele>
        <time>2022-12-29T13:29:15Z</time>
      </trkpt>
      <trkpt lat="44.9956" lon="6.13834">
        <ele>2066.4</ele>
        <time>2022-12-29T13:29:16Z</time>
      </trkpt>
      <trkpt lat="44.9956" lon="6.13834">
        <ele>2066.4</ele>
        <time>2022-12-29T13:29:17Z</time>
      </trkpt>
      <trkpt lat="44.9956" lon="6.13834">
        <ele>2066.4</ele>
        <time>2022-12-29T13:29:18Z</time>
      </trkpt>
      <trkpt lat="44.9956" lon="6.13834">
        <ele>2066.4</ele>
        <time>2022-12-29T13:29:19Z</time>
      </trkpt>
      <trkpt lat="44.9956" lon="6.13834">
        <ele>2066.4</ele>
        <time>2022-12-29T13:29:20Z</time>
      </trkpt>
      <trkpt lat="44.9956" lon="6.13834">
        <ele>2066.4</ele>
        <time>2022-12-29T13:29:21Z</time>
      </trkpt>
      <trkpt lat="44.9956" lon="6.13834">
        <ele>2066.4</ele>
        <time>2022-12-29T13:29:22Z</time>
      </trkpt>
      <trkpt lat="44.9956" lon="6.13834">
        <ele>2066.4</ele>
        <time>2022-12-29T13:29:23Z</time>
      </trkpt>
      <trkpt lat="44.9956" lon="6.13834">
        <ele>2066.4</ele>
        <time>2022-12-29T13:29:24Z</time>
      </trkpt>
      <trkpt lat="44.9956" lon="6.13834">
        <ele>2066.4</ele>
        <time>2022-12-29T13:29:25Z</time>
      </trkpt>
      <trkpt lat="44.9956" lon="6.13834">
        <ele>2067</ele>
        <time>2022-12-29T13:29:26Z</time>
      </trkpt>
      <trkpt lat="44.9956" lon="6.13834">
        <ele>2067</ele>
        <time>2022-12-29T13:29:27Z</time>
      </trkpt>
      <trkpt lat="44.9956" lon="6.13834">
        <ele>2067</ele>
        <time>2022-12-29T13:29:28Z</time>
      </trkpt>
      <trkpt lat="44.9956" lon="6.13834">
        <ele>2067</ele>
        <time>2022-12-29T13:29:29Z</time>
      </trkpt>
      <trkpt lat="44.9956" lon="6.13834">
        <ele>2067</ele>
        <time>2022-12-29T13:29:30Z</time>
      </trkpt>
      <trkpt lat="44.99561" lon="6.13834">
        <ele>2067</ele>
        <time>2022-12-29T13:29:31Z</time>
      </trkpt>
      <trkpt lat="44.99561" lon="6.13834">
        <ele>2067</ele>
        <time>2022-12-29T13:29:32Z</time>
      </trkpt>
      <trkpt lat="44.99561" lon="6.13834">
        <ele>2067</ele>
        <time>2022-12-29T13:29:33Z</time>
      </trkpt>
      <trkpt lat="44.99561" lon="6.13834">
        <ele>2067</ele>
        <time>2022-12-29T13:29:34Z</time>
      </trkpt>
      <trkpt lat="44.99561" lon="6.13834">
        <ele>2067</ele>
        <time>2022-12-29T13:29:35Z</time>
      </trkpt>
      <trkpt lat="44.99561" lon="6.13834">
        <ele>2067</ele>
        <time>2022-12-29T13:29:36Z</time>
      </trkpt>
      <trkpt lat="44.99561" lon="6.13834">
        <ele>2067</ele>
        <time>2022-12-29T13:29:37Z</time>
      </trkpt>
      <trkpt lat="44.99561" lon="6.13834">
        <ele>2067</ele>
        <time>2022-12-29T13:29:38Z</time>
      </trkpt>
      <trkpt lat="44.99561" lon="6.13834">
        <ele>2067</ele>
        <time>2022-12-29T13:29:39Z</time>
      </trkpt>
      <trkpt lat="44.99561" lon="6.13834">
        <ele>2067</ele>
        <time>2022-12-29T13:29:40Z</time>
      </trkpt>
      <trkpt lat="44.99561" lon="6.13834">
        <ele>2067</ele>
        <time>2022-12-29T13:29:41Z</time>
      </trkpt>
      <trkpt lat="44.99561" lon="6.13834">
        <ele>2067</ele>
        <time>2022-12-29T13:29:42Z</time>
      </trkpt>
      <trkpt lat="44.99561" lon="6.13834">
        <ele>2067</ele>
        <time>2022-12-29T13:29:43Z</time>
      </trkpt>
      <trkpt lat="44.99561" lon="6.13834">
        <ele>2067</ele>
        <time>2022-12-29T13:29:44Z</time>
      </trkpt>
      <trkpt lat="44.99561" lon="6.13834">
        <ele>2067</ele>
        <time>2022-12-29T13:29:45Z</time>
      </trkpt>
      <trkpt lat="44.99561" lon="6.13835">
        <ele>2067.2</ele>
        <time>2022-12-29T13:29:46Z</time>
      </trkpt>
      <trkpt lat="44.99561" lon="6.13835">
        <ele>2067.2</ele>
        <time>2022-12-29T13:29:47Z</time>
      </trkpt>
      <trkpt lat="44.99561" lon="6.13835">
        <ele>2067.2</ele>
        <time>2022-12-29T13:29:48Z</time>
      </trkpt>
      <trkpt lat="44.99561" lon="6.13835">
        <ele>2067.2</ele>
        <time>2022-12-29T13:29:49Z</time>
      </trkpt>
      <trkpt lat="44.99561" lon="6.13835">
        <ele>2067.2</ele>
        <time>2022-12-29T13:29:50Z</time>
      </trkpt>
      <trkpt lat="44.99561" lon="6.13835">
        <ele>2067.2</ele>
        <time>2022-12-29T13:29:51Z</time>
      </trkpt>
      <trkpt lat="44.99561" lon="6.13835">
        <ele>2067.2</ele>
        <time>2022-12-29T13:29:52Z</time>
      </trkpt>
      <trkpt lat="44.99561" lon="6.13835">
        <ele>2067.2</ele>
        <time>2022-12-29T13:29:53Z</time>
      </trkpt>
      <trkpt lat="44.99561" lon="6.13835">
        <ele>2067.2</ele>
        <time>2022-12-29T13:29:54Z</time>
      </trkpt>
      <trkpt lat="44.99562" lon="6.13835">
        <ele>2067.2</ele>
        <time>2022-12-29T13:29:55Z</time>
      </trkpt>
      <trkpt lat="44.99562" lon="6.13835">
        <ele>2067.2</ele>
        <time>2022-12-29T13:29:56Z</time>
      </trkpt>
      <trkpt lat="44.99562" lon="6.13835">
        <ele>2067.2</ele>
        <time>2022-12-29T13:29:57Z</time>
      </trkpt>
      <trkpt lat="44.99562" lon="6.13835">
        <ele>2067.2</ele>
        <time>2022-12-29T13:29:58Z</time>
      </trkpt>
      <trkpt lat="44.99562" lon="6.13835">
        <ele>2067.2</ele>
        <time>2022-12-29T13:29:59Z</time>
      </trkpt>
      <trkpt lat="44.99562" lon="6.13835">
        <ele>2067.2</ele>
        <time>2022-12-29T13:30:00Z</time>
      </trkpt>
      <trkpt lat="44.99562" lon="6.13835">
        <ele>2067.2</ele>
        <time>2022-12-29T13:30:01Z</time>
      </trkpt>
      <trkpt lat="44.99562" lon="6.13835">
        <ele>2067.2</ele>
        <time>2022-12-29T13:30:02Z</time>
      </trkpt>
      <trkpt lat="44.99562" lon="6.13835">
        <ele>2067.2</ele>
        <time>2022-12-29T13:30:03Z</time>
      </trkpt>
      <trkpt lat="44.99562" lon="6.13835">
        <ele>2067.2</ele>
        <time>2022-12-29T13:30:04Z</time>
      </trkpt>
      <trkpt lat="44.99562" lon="6.13835">
        <ele>2067.2</ele>
        <time>2022-12-29T13:30:05Z</time>
      </trkpt>
      <trkpt lat="44.99562" lon="6.13835">
        <ele>2067</ele>
        <time>2022-12-29T13:30:06Z</time>
      </trkpt>
      <trkpt lat="44.99562" lon="6.13835">
        <ele>2067</ele>
        <time>2022-12-29T13:30:07Z</time>
      </trkpt>
      <trkpt lat="44.99562" lon="6.13835">
        <ele>2067</ele>
        <time>2022-12-29T13:30:08Z</time>
      </trkpt>
      <trkpt lat="44.99562" lon="6.13835">
        <ele>2067</ele>
        <time>2022-12-29T13:30:09Z</time>
      </trkpt>
      <trkpt lat="44.99562" lon="6.13835">
        <ele>2067</ele>
        <time>2022-12-29T13:30:10Z</time>
      </trkpt>
      <trkpt lat="44.99562" lon="6.13835">
        <ele>2067</ele>
        <time>2022-12-29T13:30:11Z</time>
      </trkpt>
      <trkpt lat="44.99562" lon="6.13835">
        <ele>2067</ele>
        <time>2022-12-29T13:30:12Z</time>
      </trkpt>
      <trkpt lat="44.99562" lon="6.13835">
        <ele>2067</ele>
        <time>2022-12-29T13:30:13Z</time>
      </trkpt>
      <trkpt lat="44.99562" lon="6.13835">
        <ele>2067</ele>
        <time>2022-12-29T13:30:14Z</time>
      </trkpt>
      <trkpt lat="44.99562" lon="6.13835">
        <ele>2067</ele>
        <time>2022-12-29T13:30:15Z</time>
      </trkpt>
      <trkpt lat="44.99562" lon="6.13835">
        <ele>2066.2</ele>
        <time>2022-12-29T13:30:16Z</time>
      </trkpt>
      <trkpt lat="44.99562" lon="6.13835">
        <ele>2066.2</ele>
        <time>2022-12-29T13:30:17Z</time>
      </trkpt>
      <trkpt lat="44.99562" lon="6.13835">
        <ele>2066.2</ele>
        <time>2022-12-29T13:30:18Z</time>
      </trkpt>
      <trkpt lat="44.99563" lon="6.13836">
        <ele>2066.2</ele>
        <time>2022-12-29T13:30:19Z</time>
      </trkpt>
      <trkpt lat="44.99563" lon="6.13836">
        <ele>2066.2</ele>
        <time>2022-12-29T13:30:20Z</time>
      </trkpt>
      <trkpt lat="44.99563" lon="6.13836">
        <ele>2066.2</ele>
        <time>2022-12-29T13:30:21Z</time>
      </trkpt>
      <trkpt lat="44.99563" lon="6.13836">
        <ele>2066.2</ele>
        <time>2022-12-29T13:30:22Z</time>
      </trkpt>
      <trkpt lat="44.99563" lon="6.13836">
        <ele>2066.2</ele>
        <time>2022-12-29T13:30:23Z</time>
      </trkpt>
      <trkpt lat="44.99563" lon="6.13836">
        <ele>2066.2</ele>
        <time>2022-12-29T13:30:24Z</time>
      </trkpt>
      <trkpt lat="44.99563" lon="6.13836">
        <ele>2066.2</ele>
        <time>2022-12-29T13:30:25Z</time>
      </trkpt>
      <trkpt lat="44.99563" lon="6.13836">
        <ele>2066</ele>
        <time>2022-12-29T13:30:26Z</time>
      </trkpt>
      <trkpt lat="44.99563" lon="6.13836">
        <ele>2066</ele>
        <time>2022-12-29T13:30:27Z</time>
      </trkpt>
      <trkpt lat="44.99563" lon="6.13836">
        <ele>2066</ele>
        <time>2022-12-29T13:30:28Z</time>
      </trkpt>
      <trkpt lat="44.99563" lon="6.13836">
        <ele>2066</ele>
        <time>2022-12-29T13:30:29Z</time>
      </trkpt>
      <trkpt lat="44.99563" lon="6.13836">
        <ele>2066</ele>
        <time>2022-12-29T13:30:30Z</time>
      </trkpt>
      <trkpt lat="44.99563" lon="6.13836">
        <ele>2066</ele>
        <time>2022-12-29T13:30:31Z</time>
      </trkpt>
      <trkpt lat="44.99563" lon="6.13836">
        <ele>2066</ele>
        <time>2022-12-29T13:30:32Z</time>
      </trkpt>
      <trkpt lat="44.99563" lon="6.13836">
        <ele>2066</ele>
        <time>2022-12-29T13:30:33Z</time>
      </trkpt>
      <trkpt lat="44.99563" lon="6.13836">
        <ele>2066</ele>
        <time>2022-12-29T13:30:34Z</time>
      </trkpt>
      <trkpt lat="44.99563" lon="6.13836">
        <ele>2066</ele>
        <time>2022-12-29T13:30:35Z</time>
      </trkpt>
      <trkpt lat="44.99563" lon="6.13836">
        <ele>2067</ele>
        <time>2022-12-29T13:30:36Z</time>
      </trkpt>
      <trkpt lat="44.99566" lon="6.13836">
        <ele>2067</ele>
        <time>2022-12-29T13:30:37Z</time>
      </trkpt>
      <trkpt lat="44.99567" lon="6.13836">
        <ele>2067</ele>
        <time>2022-12-29T13:30:38Z</time>
      </trkpt>
      <trkpt lat="44.99568" lon="6.13836">
        <ele>2067</ele>
        <time>2022-12-29T13:30:39Z</time>
      </trkpt>
      <trkpt lat="44.99569" lon="6.13836">
        <ele>2067</ele>
        <time>2022-12-29T13:30:40Z</time>
      </trkpt>
      <trkpt lat="44.99569" lon="6.13836">
        <ele>2067</ele>
        <time>2022-12-29T13:30:41Z</time>
      </trkpt>
      <trkpt lat="44.9957" lon="6.13836">
        <ele>2067</ele>
        <time>2022-12-29T13:30:42Z</time>
      </trkpt>
      <trkpt lat="44.99571" lon="6.13836">
        <ele>2067</ele>
        <time>2022-12-29T13:30:43Z</time>
      </trkpt>
      <trkpt lat="44.99572" lon="6.13836">
        <ele>2067</ele>
        <time>2022-12-29T13:30:44Z</time>
      </trkpt>
      <trkpt lat="44.99573" lon="6.13836">
        <ele>2067</ele>
        <time>2022-12-29T13:30:45Z</time>
      </trkpt>
      <trkpt lat="44.99573" lon="6.13836">
        <ele>2068.8</ele>
        <time>2022-12-29T13:30:46Z</time>
      </trkpt>
      <trkpt lat="44.99574" lon="6.13836">
        <ele>2068.8</ele>
        <time>2022-12-29T13:30:47Z</time>
      </trkpt>
      <trkpt lat="44.99574" lon="6.13836">
        <ele>2068.8</ele>
        <time>2022-12-29T13:30:48Z</time>
      </trkpt>
      <trkpt lat="44.99575" lon="6.13836">
        <ele>2068.8</ele>
        <time>2022-12-29T13:30:49Z</time>
      </trkpt>
      <trkpt lat="44.99575" lon="6.13836">
        <ele>2068.8</ele>
        <time>2022-12-29T13:30:50Z</time>
      </trkpt>
      <trkpt lat="44.99576" lon="6.13836">
        <ele>2068.8</ele>
        <time>2022-12-29T13:30:51Z</time>
      </trkpt>
      <trkpt lat="44.99576" lon="6.13836">
        <ele>2068.8</ele>
        <time>2022-12-29T13:30:52Z</time>
      </trkpt>
      <trkpt lat="44.99576" lon="6.13836">
        <ele>2068.8</ele>
        <time>2022-12-29T13:30:53Z</time>
      </trkpt>
      <trkpt lat="44.99577" lon="6.13836">
        <ele>2068.8</ele>
        <time>2022-12-29T13:30:54Z</time>
      </trkpt>
      <trkpt lat="44.99577" lon="6.13836">
        <ele>2068.8</ele>
        <time>2022-12-29T13:30:55Z</time>
      </trkpt>
      <trkpt lat="44.99578" lon="6.13836">
        <ele>2070.6</ele>
        <time>2022-12-29T13:30:56Z</time>
      </trkpt>
      <trkpt lat="44.9958" lon="6.13837">
        <ele>2070.6</ele>
        <time>2022-12-29T13:30:57Z</time>
      </trkpt>
      <trkpt lat="44.9958" lon="6.13837">
        <ele>2070.6</ele>
        <time>2022-12-29T13:30:58Z</time>
      </trkpt>
      <trkpt lat="44.99581" lon="6.13838">
        <ele>2070.6</ele>
        <time>2022-12-29T13:30:59Z</time>
      </trkpt>
      <trkpt lat="44.99581" lon="6.13838">
        <ele>2070.6</ele>
        <time>2022-12-29T13:31:00Z</time>
      </trkpt>
      <trkpt lat="44.99581" lon="6.13838">
        <ele>2070.6</ele>
        <time>2022-12-29T13:31:01Z</time>
      </trkpt>
      <trkpt lat="44.99582" lon="6.13838">
        <ele>2070.6</ele>
        <time>2022-12-29T13:31:02Z</time>
      </trkpt>
      <trkpt lat="44.99582" lon="6.13839">
        <ele>2070.6</ele>
        <time>2022-12-29T13:31:03Z</time>
      </trkpt>
      <trkpt lat="44.99583" lon="6.13839">
        <ele>2070.6</ele>
        <time>2022-12-29T13:31:04Z</time>
      </trkpt>
      <trkpt lat="44.99583" lon="6.13839">
        <ele>2070.6</ele>
        <time>2022-12-29T13:31:05Z</time>
      </trkpt>
      <trkpt lat="44.99583" lon="6.13839">
        <ele>2072.2</ele>
        <time>2022-12-29T13:31:06Z</time>
      </trkpt>
      <trkpt lat="44.99584" lon="6.13839">
        <ele>2072.2</ele>
        <time>2022-12-29T13:31:07Z</time>
      </trkpt>
      <trkpt lat="44.99585" lon="6.1384">
        <ele>2072.2</ele>
        <time>2022-12-29T13:31:08Z</time>
      </trkpt>
      <trkpt lat="44.99585" lon="6.1384">
        <ele>2072.2</ele>
        <time>2022-12-29T13:31:09Z</time>
      </trkpt>
      <trkpt lat="44.99586" lon="6.1384">
        <ele>2072.2</ele>
        <time>2022-12-29T13:31:10Z</time>
      </trkpt>
      <trkpt lat="44.99586" lon="6.1384">
        <ele>2072.2</ele>
        <time>2022-12-29T13:31:11Z</time>
      </trkpt>
      <trkpt lat="44.99587" lon="6.1384">
        <ele>2072.2</ele>
        <time>2022-12-29T13:31:12Z</time>
      </trkpt>
      <trkpt lat="44.99588" lon="6.1384">
        <ele>2072.2</ele>
        <time>2022-12-29T13:31:13Z</time>
      </trkpt>
      <trkpt lat="44.99588" lon="6.13841">
        <ele>2072.2</ele>
        <time>2022-12-29T13:31:14Z</time>
      </trkpt>
      <trkpt lat="44.99589" lon="6.13841">
        <ele>2072.2</ele>
        <time>2022-12-29T13:31:15Z</time>
      </trkpt>
      <trkpt lat="44.99589" lon="6.13841">
        <ele>2073.8</ele>
        <time>2022-12-29T13:31:16Z</time>
      </trkpt>
      <trkpt lat="44.9959" lon="6.13841">
        <ele>2073.8</ele>
        <time>2022-12-29T13:31:17Z</time>
      </trkpt>
      <trkpt lat="44.99591" lon="6.13841">
        <ele>2073.8</ele>
        <time>2022-12-29T13:31:18Z</time>
      </trkpt>
      <trkpt lat="44.99591" lon="6.13842">
        <ele>2073.8</ele>
        <time>2022-12-29T13:31:19Z</time>
      </trkpt>
      <trkpt lat="44.99592" lon="6.13842">
        <ele>2073.8</ele>
        <time>2022-12-29T13:31:20Z</time>
      </trkpt>
      <trkpt lat="44.99593" lon="6.13842">
        <ele>2073.8</ele>
        <time>2022-12-29T13:31:21Z</time>
      </trkpt>
      <trkpt lat="44.99593" lon="6.13842">
        <ele>2073.8</ele>
        <time>2022-12-29T13:31:22Z</time>
      </trkpt>
      <trkpt lat="44.99594" lon="6.13843">
        <ele>2073.8</ele>
        <time>2022-12-29T13:31:23Z</time>
      </trkpt>
      <trkpt lat="44.99594" lon="6.13843">
        <ele>2073.8</ele>
        <time>2022-12-29T13:31:24Z</time>
      </trkpt>
      <trkpt lat="44.99595" lon="6.13843">
        <ele>2073.8</ele>
        <time>2022-12-29T13:31:25Z</time>
      </trkpt>
      <trkpt lat="44.99596" lon="6.13843">
        <ele>2075.4</ele>
        <time>2022-12-29T13:31:26Z</time>
      </trkpt>
      <trkpt lat="44.99595" lon="6.13844">
        <ele>2075.4</ele>
        <time>2022-12-29T13:31:27Z</time>
      </trkpt>
      <trkpt lat="44.99595" lon="6.13844">
        <ele>2075.4</ele>
        <time>2022-12-29T13:31:28Z</time>
      </trkpt>
      <trkpt lat="44.99595" lon="6.13844">
        <ele>2075.4</ele>
        <time>2022-12-29T13:31:29Z</time>
      </trkpt>
      <trkpt lat="44.99595" lon="6.13844">
        <ele>2075.4</ele>
        <time>2022-12-29T13:31:30Z</time>
      </trkpt>
      <trkpt lat="44.99595" lon="6.13844">
        <ele>2075.4</ele>
        <time>2022-12-29T13:31:31Z</time>
      </trkpt>
      <trkpt lat="44.99595" lon="6.13844">
        <ele>2075.4</ele>
        <time>2022-12-29T13:31:32Z</time>
      </trkpt>
      <trkpt lat="44.99595" lon="6.13844">
        <ele>2075.4</ele>
        <time>2022-12-29T13:31:33Z</time>
      </trkpt>
      <trkpt lat="44.99595" lon="6.13844">
        <ele>2075.4</ele>
        <time>2022-12-29T13:31:34Z</time>
      </trkpt>
      <trkpt lat="44.99594" lon="6.13845">
        <ele>2075.4</ele>
        <time>2022-12-29T13:31:35Z</time>
      </trkpt>
      <trkpt lat="44.99594" lon="6.13845">
        <ele>2076</ele>
        <time>2022-12-29T13:31:36Z</time>
      </trkpt>
      <trkpt lat="44.99594" lon="6.13845">
        <ele>2076</ele>
        <time>2022-12-29T13:31:37Z</time>
      </trkpt>
      <trkpt lat="44.99594" lon="6.13845">
        <ele>2076</ele>
        <time>2022-12-29T13:31:38Z</time>
      </trkpt>
      <trkpt lat="44.99594" lon="6.13845">
        <ele>2076</ele>
        <time>2022-12-29T13:31:39Z</time>
      </trkpt>
      <trkpt lat="44.99594" lon="6.13845">
        <ele>2076</ele>
        <time>2022-12-29T13:31:40Z</time>
      </trkpt>
      <trkpt lat="44.99594" lon="6.13845">
        <ele>2076</ele>
        <time>2022-12-29T13:31:41Z</time>
      </trkpt>
      <trkpt lat="44.99594" lon="6.13845">
        <ele>2076</ele>
        <time>2022-12-29T13:31:42Z</time>
      </trkpt>
      <trkpt lat="44.99593" lon="6.13846">
        <ele>2076</ele>
        <time>2022-12-29T13:31:43Z</time>
      </trkpt>
      <trkpt lat="44.99593" lon="6.13846">
        <ele>2076</ele>
        <time>2022-12-29T13:31:44Z</time>
      </trkpt>
      <trkpt lat="44.99593" lon="6.13846">
        <ele>2076</ele>
        <time>2022-12-29T13:31:45Z</time>
      </trkpt>
      <trkpt lat="44.99593" lon="6.13846">
        <ele>2078.4</ele>
        <time>2022-12-29T13:31:46Z</time>
      </trkpt>
      <trkpt lat="44.99593" lon="6.13846">
        <ele>2078.4</ele>
        <time>2022-12-29T13:31:47Z</time>
      </trkpt>
      <trkpt lat="44.99593" lon="6.13846">
        <ele>2078.4</ele>
        <time>2022-12-29T13:31:48Z</time>
      </trkpt>
      <trkpt lat="44.99593" lon="6.13846">
        <ele>2078.4</ele>
        <time>2022-12-29T13:31:49Z</time>
      </trkpt>
      <trkpt lat="44.99593" lon="6.13846">
        <ele>2078.4</ele>
        <time>2022-12-29T13:31:50Z</time>
      </trkpt>
      <trkpt lat="44.99592" lon="6.13847">
        <ele>2078.4</ele>
        <time>2022-12-29T13:31:51Z</time>
      </trkpt>
      <trkpt lat="44.99592" lon="6.13847">
        <ele>2078.4</ele>
        <time>2022-12-29T13:31:52Z</time>
      </trkpt>
      <trkpt lat="44.99592" lon="6.13847">
        <ele>2078.4</ele>
        <time>2022-12-29T13:31:53Z</time>
      </trkpt>
      <trkpt lat="44.99592" lon="6.13847">
        <ele>2078.4</ele>
        <time>2022-12-29T13:31:54Z</time>
      </trkpt>
      <trkpt lat="44.99592" lon="6.13847">
        <ele>2078.4</ele>
        <time>2022-12-29T13:31:55Z</time>
      </trkpt>
      <trkpt lat="44.99592" lon="6.13847">
        <ele>2079.4</ele>
        <time>2022-12-29T13:31:56Z</time>
      </trkpt>
      <trkpt lat="44.9959" lon="6.13849">
        <ele>2079.4</ele>
        <time>2022-12-29T13:31:57Z</time>
      </trkpt>
      <trkpt lat="44.9959" lon="6.13849">
        <ele>2079.4</ele>
        <time>2022-12-29T13:31:58Z</time>
      </trkpt>
      <trkpt lat="44.99589" lon="6.13849">
        <ele>2079.4</ele>
        <time>2022-12-29T13:31:59Z</time>
      </trkpt>
      <trkpt lat="44.99589" lon="6.1385">
        <ele>2079.4</ele>
        <time>2022-12-29T13:32:02Z</time>
      </trkpt>
      <trkpt lat="44.99589" lon="6.1385">
        <ele>2079.4</ele>
        <time>2022-12-29T13:32:03Z</time>
      </trkpt>
      <trkpt lat="44.99589" lon="6.1385">
        <ele>2079.4</ele>
        <time>2022-12-29T13:32:04Z</time>
      </trkpt>
      <trkpt lat="44.99588" lon="6.1385">
        <ele>2079.4</ele>
        <time>2022-12-29T13:32:05Z</time>
      </trkpt>
      <trkpt lat="44.99588" lon="6.1385">
        <ele>2080</ele>
        <time>2022-12-29T13:32:06Z</time>
      </trkpt>
      <trkpt lat="44.99588" lon="6.1385">
        <ele>2080</ele>
        <time>2022-12-29T13:32:07Z</time>
      </trkpt>
      <trkpt lat="44.99588" lon="6.1385">
        <ele>2080</ele>
        <time>2022-12-29T13:32:08Z</time>
      </trkpt>
      <trkpt lat="44.99589" lon="6.13853">
        <ele>2080</ele>
        <time>2022-12-29T13:32:09Z</time>
      </trkpt>
      <trkpt lat="44.99589" lon="6.13853">
        <ele>2080</ele>
        <time>2022-12-29T13:32:10Z</time>
      </trkpt>
      <trkpt lat="44.99589" lon="6.13853">
        <ele>2080</ele>
        <time>2022-12-29T13:32:11Z</time>
      </trkpt>
      <trkpt lat="44.99589" lon="6.13853">
        <ele>2080</ele>
        <time>2022-12-29T13:32:12Z</time>
      </trkpt>
      <trkpt lat="44.99589" lon="6.13853">
        <ele>2080</ele>
        <time>2022-12-29T13:32:13Z</time>
      </trkpt>
      <trkpt lat="44.99589" lon="6.13853">
        <ele>2080</ele>
        <time>2022-12-29T13:32:14Z</time>
      </trkpt>
      <trkpt lat="44.99589" lon="6.13853">
        <ele>2080</ele>
        <time>2022-12-29T13:32:15Z</time>
      </trkpt>
      <trkpt lat="44.99589" lon="6.13853">
        <ele>2081.8</ele>
        <time>2022-12-29T13:32:16Z</time>
      </trkpt>
      <trkpt lat="44.99589" lon="6.13853">
        <ele>2081.8</ele>
        <time>2022-12-29T13:32:17Z</time>
      </trkpt>
      <trkpt lat="44.99589" lon="6.13853">
        <ele>2081.8</ele>
        <time>2022-12-29T13:32:18Z</time>
      </trkpt>
      <trkpt lat="44.99589" lon="6.13853">
        <ele>2081.8</ele>
        <time>2022-12-29T13:32:19Z</time>
      </trkpt>
      <trkpt lat="44.99589" lon="6.13853">
        <ele>2081.8</ele>
        <time>2022-12-29T13:32:20Z</time>
      </trkpt>
      <trkpt lat="44.99589" lon="6.13853">
        <ele>2081.8</ele>
        <time>2022-12-29T13:32:21Z</time>
      </trkpt>
      <trkpt lat="44.99589" lon="6.13853">
        <ele>2081.8</ele>
        <time>2022-12-29T13:32:22Z</time>
      </trkpt>
      <trkpt lat="44.99589" lon="6.13853">
        <ele>2081.8</ele>
        <time>2022-12-29T13:32:23Z</time>
      </trkpt>
      <trkpt lat="44.99589" lon="6.13853">
        <ele>2081.8</ele>
        <time>2022-12-29T13:32:24Z</time>
      </trkpt>
      <trkpt lat="44.99589" lon="6.13853">
        <ele>2081.8</ele>
        <time>2022-12-29T13:32:25Z</time>
      </trkpt>
      <trkpt lat="44.99589" lon="6.13856">
        <ele>2082.6</ele>
        <time>2022-12-29T13:32:26Z</time>
      </trkpt>
      <trkpt lat="44.99588" lon="6.13857">
        <ele>2082.6</ele>
        <time>2022-12-29T13:32:27Z</time>
      </trkpt>
      <trkpt lat="44.99588" lon="6.13858">
        <ele>2082.6</ele>
        <time>2022-12-29T13:32:28Z</time>
      </trkpt>
      <trkpt lat="44.99587" lon="6.13859">
        <ele>2082.6</ele>
        <time>2022-12-29T13:32:29Z</time>
      </trkpt>
      <trkpt lat="44.99586" lon="6.1386">
        <ele>2082.6</ele>
        <time>2022-12-29T13:32:30Z</time>
      </trkpt>
      <trkpt lat="44.99586" lon="6.13861">
        <ele>2082.6</ele>
        <time>2022-12-29T13:32:31Z</time>
      </trkpt>
      <trkpt lat="44.99585" lon="6.13862">
        <ele>2082.6</ele>
        <time>2022-12-29T13:32:32Z</time>
      </trkpt>
      <trkpt lat="44.99585" lon="6.13862">
        <ele>2082.6</ele>
        <time>2022-12-29T13:32:33Z</time>
      </trkpt>
      <trkpt lat="44.99584" lon="6.13863">
        <ele>2082.6</ele>
        <time>2022-12-29T13:32:34Z</time>
      </trkpt>
      <trkpt lat="44.99583" lon="6.13864">
        <ele>2082.6</ele>
        <time>2022-12-29T13:32:35Z</time>
      </trkpt>
      <trkpt lat="44.99583" lon="6.13865">
        <ele>2084.2</ele>
        <time>2022-12-29T13:32:36Z</time>
      </trkpt>
      <trkpt lat="44.99583" lon="6.13865">
        <ele>2084.2</ele>
        <time>2022-12-29T13:32:37Z</time>
      </trkpt>
      <trkpt lat="44.99583" lon="6.13865">
        <ele>2084.2</ele>
        <time>2022-12-29T13:32:38Z</time>
      </trkpt>
      <trkpt lat="44.99583" lon="6.13865">
        <ele>2084.2</ele>
        <time>2022-12-29T13:32:39Z</time>
      </trkpt>
      <trkpt lat="44.99584" lon="6.13867">
        <ele>2084.2</ele>
        <time>2022-12-29T13:32:40Z</time>
      </trkpt>
      <trkpt lat="44.99584" lon="6.13867">
        <ele>2084.2</ele>
        <time>2022-12-29T13:32:41Z</time>
      </trkpt>
      <trkpt lat="44.99584" lon="6.13867">
        <ele>2084.2</ele>
        <time>2022-12-29T13:32:42Z</time>
      </trkpt>
      <trkpt lat="44.99584" lon="6.13867">
        <ele>2084.2</ele>
        <time>2022-12-29T13:32:43Z</time>
      </trkpt>
      <trkpt lat="44.99587" lon="6.13866">
        <ele>2084.2</ele>
        <time>2022-12-29T13:32:44Z</time>
      </trkpt>
      <trkpt lat="44.99587" lon="6.13866">
        <ele>2084.2</ele>
        <time>2022-12-29T13:32:45Z</time>
      </trkpt>
      <trkpt lat="44.99587" lon="6.13866">
        <ele>2085.8</ele>
        <time>2022-12-29T13:32:46Z</time>
      </trkpt>
      <trkpt lat="44.99587" lon="6.13866">
        <ele>2085.8</ele>
        <time>2022-12-29T13:32:47Z</time>
      </trkpt>
      <trkpt lat="44.99586" lon="6.13867">
        <ele>2085.8</ele>
        <time>2022-12-29T13:32:48Z</time>
      </trkpt>
      <trkpt lat="44.99586" lon="6.13868">
        <ele>2085.8</ele>
        <time>2022-12-29T13:32:49Z</time>
      </trkpt>
      <trkpt lat="44.99586" lon="6.13869">
        <ele>2085.8</ele>
        <time>2022-12-29T13:32:50Z</time>
      </trkpt>
      <trkpt lat="44.99586" lon="6.1387">
        <ele>2085.8</ele>
        <time>2022-12-29T13:32:51Z</time>
      </trkpt>
      <trkpt lat="44.99586" lon="6.1387">
        <ele>2085.8</ele>
        <time>2022-12-29T13:32:52Z</time>
      </trkpt>
      <trkpt lat="44.99586" lon="6.13871">
        <ele>2085.8</ele>
        <time>2022-12-29T13:32:53Z</time>
      </trkpt>
      <trkpt lat="44.99586" lon="6.13872">
        <ele>2085.8</ele>
        <time>2022-12-29T13:32:54Z</time>
      </trkpt>
      <trkpt lat="44.99586" lon="6.13873">
        <ele>2085.8</ele>
        <time>2022-12-29T13:32:55Z</time>
      </trkpt>
      <trkpt lat="44.99586" lon="6.13874">
        <ele>2087.4</ele>
        <time>2022-12-29T13:32:56Z</time>
      </trkpt>
      <trkpt lat="44.99586" lon="6.13874">
        <ele>2087.4</ele>
        <time>2022-12-29T13:32:57Z</time>
      </trkpt>
      <trkpt lat="44.99585" lon="6.13875">
        <ele>2087.4</ele>
        <time>2022-12-29T13:32:58Z</time>
      </trkpt>
      <trkpt lat="44.99585" lon="6.13876">
        <ele>2087.4</ele>
        <time>2022-12-29T13:32:59Z</time>
      </trkpt>
      <trkpt lat="44.99585" lon="6.13877">
        <ele>2087.4</ele>
        <time>2022-12-29T13:33:00Z</time>
      </trkpt>
      <trkpt lat="44.99585" lon="6.13878">
        <ele>2087.4</ele>
        <time>2022-12-29T13:33:01Z</time>
      </trkpt>
      <trkpt lat="44.99585" lon="6.13878">
        <ele>2087.4</ele>
        <time>2022-12-29T13:33:02Z</time>
      </trkpt>
      <trkpt lat="44.99585" lon="6.13879">
        <ele>2087.4</ele>
        <time>2022-12-29T13:33:03Z</time>
      </trkpt>
      <trkpt lat="44.99585" lon="6.1388">
        <ele>2087.4</ele>
        <time>2022-12-29T13:33:04Z</time>
      </trkpt>
      <trkpt lat="44.99585" lon="6.13881">
        <ele>2087.4</ele>
        <time>2022-12-29T13:33:05Z</time>
      </trkpt>
      <trkpt lat="44.99585" lon="6.13882">
        <ele>2087.8</ele>
        <time>2022-12-29T13:33:06Z</time>
      </trkpt>
      <trkpt lat="44.99585" lon="6.13882">
        <ele>2087.8</ele>
        <time>2022-12-29T13:33:07Z</time>
      </trkpt>
      <trkpt lat="44.99586" lon="6.13882">
        <ele>2087.8</ele>
        <time>2022-12-29T13:33:08Z</time>
      </trkpt>
      <trkpt lat="44.99586" lon="6.13882">
        <ele>2087.8</ele>
        <time>2022-12-29T13:33:09Z</time>
      </trkpt>
      <trkpt lat="44.99587" lon="6.13883">
        <ele>2087.8</ele>
        <time>2022-12-29T13:33:10Z</time>
      </trkpt>
      <trkpt lat="44.99587" lon="6.13883">
        <ele>2087.8</ele>
        <time>2022-12-29T13:33:11Z</time>
      </trkpt>
      <trkpt lat="44.99588" lon="6.13883">
        <ele>2087.8</ele>
        <time>2022-12-29T13:33:12Z</time>
      </trkpt>
      <trkpt lat="44.99589" lon="6.13883">
        <ele>2087.8</ele>
        <time>2022-12-29T13:33:13Z</time>
      </trkpt>
      <trkpt lat="44.99589" lon="6.13883">
        <ele>2087.8</ele>
        <time>2022-12-29T13:33:14Z</time>
      </trkpt>
      <trkpt lat="44.9959" lon="6.13884">
        <ele>2087.8</ele>
        <time>2022-12-29T13:33:15Z</time>
      </trkpt>
      <trkpt lat="44.9959" lon="6.13884">
        <ele>2089.8</ele>
        <time>2022-12-29T13:33:16Z</time>
      </trkpt>
      <trkpt lat="44.9959" lon="6.13884">
        <ele>2089.8</ele>
        <time>2022-12-29T13:33:17Z</time>
      </trkpt>
      <trkpt lat="44.9959" lon="6.13884">
        <ele>2089.8</ele>
        <time>2022-12-29T13:33:18Z</time>
      </trkpt>
      <trkpt lat="44.9959" lon="6.13885">
        <ele>2089.8</ele>
        <time>2022-12-29T13:33:19Z</time>
      </trkpt>
      <trkpt lat="44.9959" lon="6.13885">
        <ele>2089.8</ele>
        <time>2022-12-29T13:33:21Z</time>
      </trkpt>
      <trkpt lat="44.9959" lon="6.13885">
        <ele>2089.8</ele>
        <time>2022-12-29T13:33:22Z</time>
      </trkpt>
      <trkpt lat="44.99589" lon="6.13886">
        <ele>2089.8</ele>
        <time>2022-12-29T13:33:23Z</time>
      </trkpt>
      <trkpt lat="44.99589" lon="6.13886">
        <ele>2089.8</ele>
        <time>2022-12-29T13:33:24Z</time>
      </trkpt>
      <trkpt lat="44.99589" lon="6.13886">
        <ele>2089.8</ele>
        <time>2022-12-29T13:33:25Z</time>
      </trkpt>
      <trkpt lat="44.99589" lon="6.13887">
        <ele>2091</ele>
        <time>2022-12-29T13:33:26Z</time>
      </trkpt>
      <trkpt lat="44.99589" lon="6.13887">
        <ele>2091</ele>
        <time>2022-12-29T13:33:27Z</time>
      </trkpt>
      <trkpt lat="44.99589" lon="6.13887">
        <ele>2091</ele>
        <time>2022-12-29T13:33:28Z</time>
      </trkpt>
      <trkpt lat="44.99589" lon="6.13887">
        <ele>2091</ele>
        <time>2022-12-29T13:33:29Z</time>
      </trkpt>
      <trkpt lat="44.99589" lon="6.13888">
        <ele>2091</ele>
        <time>2022-12-29T13:33:30Z</time>
      </trkpt>
      <trkpt lat="44.99589" lon="6.13888">
        <ele>2091</ele>
        <time>2022-12-29T13:33:31Z</time>
      </trkpt>
      <trkpt lat="44.99589" lon="6.13888">
        <ele>2091</ele>
        <time>2022-12-29T13:33:32Z</time>
      </trkpt>
      <trkpt lat="44.99588" lon="6.13889">
        <ele>2091</ele>
        <time>2022-12-29T13:33:33Z</time>
      </trkpt>
      <trkpt lat="44.99588" lon="6.13889">
        <ele>2091</ele>
        <time>2022-12-29T13:33:34Z</time>
      </trkpt>
      <trkpt lat="44.99588" lon="6.13889">
        <ele>2091</ele>
        <time>2022-12-29T13:33:35Z</time>
      </trkpt>
      <trkpt lat="44.99588" lon="6.1389">
        <ele>2091</ele>
        <time>2022-12-29T13:33:36Z</time>
      </trkpt>
      <trkpt lat="44.99588" lon="6.1389">
        <ele>2091</ele>
        <time>2022-12-29T13:33:37Z</time>
      </trkpt>
      <trkpt lat="44.99588" lon="6.1389">
        <ele>2091</ele>
        <time>2022-12-29T13:33:38Z</time>
      </trkpt>
      <trkpt lat="44.99588" lon="6.1389">
        <ele>2091</ele>
        <time>2022-12-29T13:33:39Z</time>
      </trkpt>
      <trkpt lat="44.99588" lon="6.13891">
        <ele>2091</ele>
        <time>2022-12-29T13:33:40Z</time>
      </trkpt>
      <trkpt lat="44.99588" lon="6.13891">
        <ele>2091</ele>
        <time>2022-12-29T13:33:41Z</time>
      </trkpt>
      <trkpt lat="44.99587" lon="6.13891">
        <ele>2091</ele>
        <time>2022-12-29T13:33:42Z</time>
      </trkpt>
      <trkpt lat="44.99587" lon="6.13892">
        <ele>2091</ele>
        <time>2022-12-29T13:33:43Z</time>
      </trkpt>
      <trkpt lat="44.99587" lon="6.13892">
        <ele>2091</ele>
        <time>2022-12-29T13:33:44Z</time>
      </trkpt>
      <trkpt lat="44.99587" lon="6.13892">
        <ele>2091</ele>
        <time>2022-12-29T13:33:45Z</time>
      </trkpt>
      <trkpt lat="44.99587" lon="6.13893">
        <ele>2090.4</ele>
        <time>2022-12-29T13:33:46Z</time>
      </trkpt>
      <trkpt lat="44.99587" lon="6.13893">
        <ele>2090.4</ele>
        <time>2022-12-29T13:33:47Z</time>
      </trkpt>
      <trkpt lat="44.99587" lon="6.13893">
        <ele>2090.4</ele>
        <time>2022-12-29T13:33:48Z</time>
      </trkpt>
      <trkpt lat="44.99587" lon="6.13893">
        <ele>2090.4</ele>
        <time>2022-12-29T13:33:49Z</time>
      </trkpt>
      <trkpt lat="44.99587" lon="6.13894">
        <ele>2090.4</ele>
        <time>2022-12-29T13:33:50Z</time>
      </trkpt>
      <trkpt lat="44.99587" lon="6.13894">
        <ele>2090.4</ele>
        <time>2022-12-29T13:33:51Z</time>
      </trkpt>
      <trkpt lat="44.99586" lon="6.13894">
        <ele>2090.4</ele>
        <time>2022-12-29T13:33:52Z</time>
      </trkpt>
      <trkpt lat="44.99586" lon="6.13895">
        <ele>2090.4</ele>
        <time>2022-12-29T13:33:53Z</time>
      </trkpt>
      <trkpt lat="44.99586" lon="6.13895">
        <ele>2090.4</ele>
        <time>2022-12-29T13:33:54Z</time>
      </trkpt>
      <trkpt lat="44.99586" lon="6.13895">
        <ele>2090.4</ele>
        <time>2022-12-29T13:33:55Z</time>
      </trkpt>
      <trkpt lat="44.99586" lon="6.13896">
        <ele>2090.6</ele>
        <time>2022-12-29T13:33:56Z</time>
      </trkpt>
      <trkpt lat="44.99586" lon="6.13896">
        <ele>2090.6</ele>
        <time>2022-12-29T13:33:57Z</time>
      </trkpt>
      <trkpt lat="44.99586" lon="6.13896">
        <ele>2090.6</ele>
        <time>2022-12-29T13:33:58Z</time>
      </trkpt>
      <trkpt lat="44.99586" lon="6.13896">
        <ele>2090.6</ele>
        <time>2022-12-29T13:33:59Z</time>
      </trkpt>
      <trkpt lat="44.99586" lon="6.13897">
        <ele>2090.6</ele>
        <time>2022-12-29T13:34:00Z</time>
      </trkpt>
      <trkpt lat="44.99585" lon="6.13897">
        <ele>2090.6</ele>
        <time>2022-12-29T13:34:01Z</time>
      </trkpt>
      <trkpt lat="44.99585" lon="6.13897">
        <ele>2090.6</ele>
        <time>2022-12-29T13:34:02Z</time>
      </trkpt>
      <trkpt lat="44.99585" lon="6.13898">
        <ele>2090.6</ele>
        <time>2022-12-29T13:34:03Z</time>
      </trkpt>
      <trkpt lat="44.99585" lon="6.13898">
        <ele>2090.6</ele>
        <time>2022-12-29T13:34:04Z</time>
      </trkpt>
      <trkpt lat="44.99585" lon="6.13898">
        <ele>2090.6</ele>
        <time>2022-12-29T13:34:05Z</time>
      </trkpt>
      <trkpt lat="44.99585" lon="6.13898">
        <ele>2091.6</ele>
        <time>2022-12-29T13:34:06Z</time>
      </trkpt>
      <trkpt lat="44.99585" lon="6.13899">
        <ele>2091.6</ele>
        <time>2022-12-29T13:34:07Z</time>
      </trkpt>
      <trkpt lat="44.99585" lon="6.13899">
        <ele>2091.6</ele>
        <time>2022-12-29T13:34:08Z</time>
      </trkpt>
      <trkpt lat="44.99585" lon="6.13899">
        <ele>2091.6</ele>
        <time>2022-12-29T13:34:09Z</time>
      </trkpt>
      <trkpt lat="44.99585" lon="6.139">
        <ele>2091.6</ele>
        <time>2022-12-29T13:34:10Z</time>
      </trkpt>
      <trkpt lat="44.99584" lon="6.139">
        <ele>2091.6</ele>
        <time>2022-12-29T13:34:11Z</time>
      </trkpt>
      <trkpt lat="44.99584" lon="6.139">
        <ele>2091.6</ele>
        <time>2022-12-29T13:34:12Z</time>
      </trkpt>
      <trkpt lat="44.99584" lon="6.13901">
        <ele>2091.6</ele>
        <time>2022-12-29T13:34:13Z</time>
      </trkpt>
      <trkpt lat="44.99584" lon="6.13901">
        <ele>2091.6</ele>
        <time>2022-12-29T13:34:14Z</time>
      </trkpt>
      <trkpt lat="44.99584" lon="6.13901">
        <ele>2091.6</ele>
        <time>2022-12-29T13:34:15Z</time>
      </trkpt>
      <trkpt lat="44.99584" lon="6.13901">
        <ele>2091.8</ele>
        <time>2022-12-29T13:34:16Z</time>
      </trkpt>
      <trkpt lat="44.99583" lon="6.13903">
        <ele>2091.8</ele>
        <time>2022-12-29T13:34:17Z</time>
      </trkpt>
      <trkpt lat="44.99583" lon="6.13903">
        <ele>2091.8</ele>
        <time>2022-12-29T13:34:18Z</time>
      </trkpt>
      <trkpt lat="44.99583" lon="6.13905">
        <ele>2091.8</ele>
        <time>2022-12-29T13:34:19Z</time>
      </trkpt>
      <trkpt lat="44.99583" lon="6.13905">
        <ele>2091.8</ele>
        <time>2022-12-29T13:34:20Z</time>
      </trkpt>
      <trkpt lat="44.99583" lon="6.13905">
        <ele>2091.8</ele>
        <time>2022-12-29T13:34:21Z</time>
      </trkpt>
      <trkpt lat="44.99582" lon="6.13908">
        <ele>2091.8</ele>
        <time>2022-12-29T13:34:22Z</time>
      </trkpt>
      <trkpt lat="44.99582" lon="6.13908">
        <ele>2091.8</ele>
        <time>2022-12-29T13:34:23Z</time>
      </trkpt>
      <trkpt lat="44.99582" lon="6.13908">
        <ele>2091.8</ele>
        <time>2022-12-29T13:34:24Z</time>
      </trkpt>
      <trkpt lat="44.99582" lon="6.13908">
        <ele>2091.8</ele>
        <time>2022-12-29T13:34:25Z</time>
      </trkpt>
      <trkpt lat="44.99582" lon="6.13908">
        <ele>2093</ele>
        <time>2022-12-29T13:34:26Z</time>
      </trkpt>
      <trkpt lat="44.99582" lon="6.13908">
        <ele>2093</ele>
        <time>2022-12-29T13:34:27Z</time>
      </trkpt>
      <trkpt lat="44.99582" lon="6.13908">
        <ele>2093</ele>
        <time>2022-12-29T13:34:28Z</time>
      </trkpt>
      <trkpt lat="44.99582" lon="6.13908">
        <ele>2093</ele>
        <time>2022-12-29T13:34:29Z</time>
      </trkpt>
      <trkpt lat="44.99582" lon="6.13908">
        <ele>2093</ele>
        <time>2022-12-29T13:34:30Z</time>
      </trkpt>
      <trkpt lat="44.99582" lon="6.13908">
        <ele>2093</ele>
        <time>2022-12-29T13:34:31Z</time>
      </trkpt>
      <trkpt lat="44.99582" lon="6.13908">
        <ele>2093</ele>
        <time>2022-12-29T13:34:32Z</time>
      </trkpt>
      <trkpt lat="44.99582" lon="6.13908">
        <ele>2093</ele>
        <time>2022-12-29T13:34:33Z</time>
      </trkpt>
      <trkpt lat="44.99582" lon="6.13908">
        <ele>2093</ele>
        <time>2022-12-29T13:34:34Z</time>
      </trkpt>
      <trkpt lat="44.99582" lon="6.13908">
        <ele>2093</ele>
        <time>2022-12-29T13:34:35Z</time>
      </trkpt>
      <trkpt lat="44.99582" lon="6.13908">
        <ele>2093</ele>
        <time>2022-12-29T13:34:36Z</time>
      </trkpt>
      <trkpt lat="44.99582" lon="6.13908">
        <ele>2093</ele>
        <time>2022-12-29T13:34:37Z</time>
      </trkpt>
      <trkpt lat="44.99582" lon="6.13908">
        <ele>2093</ele>
        <time>2022-12-29T13:34:38Z</time>
      </trkpt>
      <trkpt lat="44.99582" lon="6.13908">
        <ele>2093</ele>
        <time>2022-12-29T13:34:39Z</time>
      </trkpt>
      <trkpt lat="44.99582" lon="6.13908">
        <ele>2093</ele>
        <time>2022-12-29T13:34:40Z</time>
      </trkpt>
      <trkpt lat="44.99582" lon="6.13908">
        <ele>2093</ele>
        <time>2022-12-29T13:34:41Z</time>
      </trkpt>
      <trkpt lat="44.99582" lon="6.13908">
        <ele>2093</ele>
        <time>2022-12-29T13:34:42Z</time>
      </trkpt>
      <trkpt lat="44.99582" lon="6.13908">
        <ele>2093</ele>
        <time>2022-12-29T13:34:43Z</time>
      </trkpt>
      <trkpt lat="44.99582" lon="6.13908">
        <ele>2093</ele>
        <time>2022-12-29T13:34:44Z</time>
      </trkpt>
      <trkpt lat="44.99584" lon="6.13909">
        <ele>2093</ele>
        <time>2022-12-29T13:34:45Z</time>
      </trkpt>
      <trkpt lat="44.99584" lon="6.13909">
        <ele>2093.2</ele>
        <time>2022-12-29T13:34:46Z</time>
      </trkpt>
      <trkpt lat="44.99586" lon="6.13909">
        <ele>2093.2</ele>
        <time>2022-12-29T13:34:47Z</time>
      </trkpt>
      <trkpt lat="44.99587" lon="6.13909">
        <ele>2093.2</ele>
        <time>2022-12-29T13:34:48Z</time>
      </trkpt>
      <trkpt lat="44.99588" lon="6.13909">
        <ele>2093.2</ele>
        <time>2022-12-29T13:34:49Z</time>
      </trkpt>
      <trkpt lat="44.99588" lon="6.13909">
        <ele>2093.2</ele>
        <time>2022-12-29T13:34:50Z</time>
      </trkpt>
      <trkpt lat="44.99589" lon="6.13909">
        <ele>2093.2</ele>
        <time>2022-12-29T13:34:51Z</time>
      </trkpt>
      <trkpt lat="44.9959" lon="6.13909">
        <ele>2093.2</ele>
        <time>2022-12-29T13:34:52Z</time>
      </trkpt>
      <trkpt lat="44.99591" lon="6.13909">
        <ele>2093.2</ele>
        <time>2022-12-29T13:34:53Z</time>
      </trkpt>
      <trkpt lat="44.99591" lon="6.13909">
        <ele>2093.2</ele>
        <time>2022-12-29T13:34:54Z</time>
      </trkpt>
      <trkpt lat="44.99592" lon="6.13909">
        <ele>2093.2</ele>
        <time>2022-12-29T13:34:55Z</time>
      </trkpt>
      <trkpt lat="44.99593" lon="6.13909">
        <ele>2095.4</ele>
        <time>2022-12-29T13:34:56Z</time>
      </trkpt>
      <trkpt lat="44.99593" lon="6.13909">
        <ele>2095.4</ele>
        <time>2022-12-29T13:34:57Z</time>
      </trkpt>
      <trkpt lat="44.99593" lon="6.1391">
        <ele>2095.4</ele>
        <time>2022-12-29T13:34:58Z</time>
      </trkpt>
      <trkpt lat="44.99593" lon="6.13911">
        <ele>2095.4</ele>
        <time>2022-12-29T13:34:59Z</time>
      </trkpt>
      <trkpt lat="44.99593" lon="6.13911">
        <ele>2095.4</ele>
        <time>2022-12-29T13:35:00Z</time>
      </trkpt>
      <trkpt lat="44.99593" lon="6.13912">
        <ele>2095.4</ele>
        <time>2022-12-29T13:35:01Z</time>
      </trkpt>
      <trkpt lat="44.99593" lon="6.13913">
        <ele>2095.4</ele>
        <time>2022-12-29T13:35:02Z</time>
      </trkpt>
      <trkpt lat="44.99593" lon="6.13913">
        <ele>2095.4</ele>
        <time>2022-12-29T13:35:03Z</time>
      </trkpt>
      <trkpt lat="44.99593" lon="6.13914">
        <ele>2095.4</ele>
        <time>2022-12-29T13:35:04Z</time>
      </trkpt>
      <trkpt lat="44.99594" lon="6.13915">
        <ele>2095.4</ele>
        <time>2022-12-29T13:35:05Z</time>
      </trkpt>
      <trkpt lat="44.99594" lon="6.13915">
        <ele>2097.4</ele>
        <time>2022-12-29T13:35:06Z</time>
      </trkpt>
      <trkpt lat="44.99593" lon="6.13916">
        <ele>2097.4</ele>
        <time>2022-12-29T13:35:07Z</time>
      </trkpt>
      <trkpt lat="44.99592" lon="6.13916">
        <ele>2097.4</ele>
        <time>2022-12-29T13:35:08Z</time>
      </trkpt>
      <trkpt lat="44.99591" lon="6.13917">
        <ele>2097.4</ele>
        <time>2022-12-29T13:35:09Z</time>
      </trkpt>
      <trkpt lat="44.9959" lon="6.13917">
        <ele>2097.4</ele>
        <time>2022-12-29T13:35:10Z</time>
      </trkpt>
      <trkpt lat="44.99589" lon="6.13918">
        <ele>2097.4</ele>
        <time>2022-12-29T13:35:11Z</time>
      </trkpt>
      <trkpt lat="44.99588" lon="6.13919">
        <ele>2097.4</ele>
        <time>2022-12-29T13:35:12Z</time>
      </trkpt>
      <trkpt lat="44.99588" lon="6.13919">
        <ele>2097.4</ele>
        <time>2022-12-29T13:35:13Z</time>
      </trkpt>
      <trkpt lat="44.99587" lon="6.1392">
        <ele>2097.4</ele>
        <time>2022-12-29T13:35:14Z</time>
      </trkpt>
      <trkpt lat="44.99586" lon="6.1392">
        <ele>2097.4</ele>
        <time>2022-12-29T13:35:15Z</time>
      </trkpt>
      <trkpt lat="44.99585" lon="6.13921">
        <ele>2098.8</ele>
        <time>2022-12-29T13:35:16Z</time>
      </trkpt>
      <trkpt lat="44.99584" lon="6.13921">
        <ele>2098.8</ele>
        <time>2022-12-29T13:35:17Z</time>
      </trkpt>
      <trkpt lat="44.99584" lon="6.13922">
        <ele>2098.8</ele>
        <time>2022-12-29T13:35:18Z</time>
      </trkpt>
      <trkpt lat="44.99583" lon="6.13923">
        <ele>2098.8</ele>
        <time>2022-12-29T13:35:19Z</time>
      </trkpt>
      <trkpt lat="44.99582" lon="6.13923">
        <ele>2098.8</ele>
        <time>2022-12-29T13:35:20Z</time>
      </trkpt>
      <trkpt lat="44.99581" lon="6.13924">
        <ele>2098.8</ele>
        <time>2022-12-29T13:35:21Z</time>
      </trkpt>
      <trkpt lat="44.99581" lon="6.13924">
        <ele>2098.8</ele>
        <time>2022-12-29T13:35:22Z</time>
      </trkpt>
      <trkpt lat="44.9958" lon="6.13925">
        <ele>2098.8</ele>
        <time>2022-12-29T13:35:23Z</time>
      </trkpt>
      <trkpt lat="44.99579" lon="6.13925">
        <ele>2098.8</ele>
        <time>2022-12-29T13:35:24Z</time>
      </trkpt>
      <trkpt lat="44.99578" lon="6.13926">
        <ele>2098.8</ele>
        <time>2022-12-29T13:35:25Z</time>
      </trkpt>
      <trkpt lat="44.99578" lon="6.13926">
        <ele>2099.2</ele>
        <time>2022-12-29T13:35:26Z</time>
      </trkpt>
      <trkpt lat="44.99577" lon="6.13927">
        <ele>2099.2</ele>
        <time>2022-12-29T13:35:27Z</time>
      </trkpt>
      <trkpt lat="44.99576" lon="6.13928">
        <ele>2099.2</ele>
        <time>2022-12-29T13:35:28Z</time>
      </trkpt>
      <trkpt lat="44.99576" lon="6.13929">
        <ele>2099.2</ele>
        <time>2022-12-29T13:35:29Z</time>
      </trkpt>
      <trkpt lat="44.99575" lon="6.1393">
        <ele>2099.2</ele>
        <time>2022-12-29T13:35:30Z</time>
      </trkpt>
      <trkpt lat="44.99574" lon="6.13931">
        <ele>2099.2</ele>
        <time>2022-12-29T13:35:31Z</time>
      </trkpt>
      <trkpt lat="44.99574" lon="6.13932">
        <ele>2099.2</ele>
        <time>2022-12-29T13:35:32Z</time>
      </trkpt>
      <trkpt lat="44.99573" lon="6.13933">
        <ele>2099.2</ele>
        <time>2022-12-29T13:35:33Z</time>
      </trkpt>
      <trkpt lat="44.99572" lon="6.13934">
        <ele>2099.2</ele>
        <time>2022-12-29T13:35:34Z</time>
      </trkpt>
      <trkpt lat="44.99572" lon="6.13935">
        <ele>2099.2</ele>
        <time>2022-12-29T13:35:35Z</time>
      </trkpt>
      <trkpt lat="44.99571" lon="6.13936">
        <ele>2100.4</ele>
        <time>2022-12-29T13:35:36Z</time>
      </trkpt>
      <trkpt lat="44.99571" lon="6.13937">
        <ele>2100.4</ele>
        <time>2022-12-29T13:35:37Z</time>
      </trkpt>
      <trkpt lat="44.9957" lon="6.13938">
        <ele>2100.4</ele>
        <time>2022-12-29T13:35:38Z</time>
      </trkpt>
      <trkpt lat="44.9957" lon="6.13938">
        <ele>2100.4</ele>
        <time>2022-12-29T13:35:39Z</time>
      </trkpt>
      <trkpt lat="44.99569" lon="6.13939">
        <ele>2100.4</ele>
        <time>2022-12-29T13:35:40Z</time>
      </trkpt>
      <trkpt lat="44.99569" lon="6.1394">
        <ele>2100.4</ele>
        <time>2022-12-29T13:35:41Z</time>
      </trkpt>
      <trkpt lat="44.99569" lon="6.13941">
        <ele>2100.4</ele>
        <time>2022-12-29T13:35:42Z</time>
      </trkpt>
      <trkpt lat="44.99568" lon="6.13942">
        <ele>2100.4</ele>
        <time>2022-12-29T13:35:43Z</time>
      </trkpt>
      <trkpt lat="44.99568" lon="6.13943">
        <ele>2100.4</ele>
        <time>2022-12-29T13:35:44Z</time>
      </trkpt>
      <trkpt lat="44.99567" lon="6.13944">
        <ele>2100.4</ele>
        <time>2022-12-29T13:35:45Z</time>
      </trkpt>
      <trkpt lat="44.99567" lon="6.13944">
        <ele>2101.2</ele>
        <time>2022-12-29T13:35:46Z</time>
      </trkpt>
      <trkpt lat="44.99567" lon="6.13945">
        <ele>2101.2</ele>
        <time>2022-12-29T13:35:47Z</time>
      </trkpt>
      <trkpt lat="44.99567" lon="6.13946">
        <ele>2101.2</ele>
        <time>2022-12-29T13:35:48Z</time>
      </trkpt>
      <trkpt lat="44.99567" lon="6.13947">
        <ele>2101.2</ele>
        <time>2022-12-29T13:35:49Z</time>
      </trkpt>
      <trkpt lat="44.99566" lon="6.13948">
        <ele>2101.2</ele>
        <time>2022-12-29T13:35:50Z</time>
      </trkpt>
      <trkpt lat="44.99566" lon="6.13949">
        <ele>2101.2</ele>
        <time>2022-12-29T13:35:51Z</time>
      </trkpt>
      <trkpt lat="44.99566" lon="6.13949">
        <ele>2101.2</ele>
        <time>2022-12-29T13:35:52Z</time>
      </trkpt>
      <trkpt lat="44.99566" lon="6.1395">
        <ele>2101.2</ele>
        <time>2022-12-29T13:35:53Z</time>
      </trkpt>
      <trkpt lat="44.99566" lon="6.13951">
        <ele>2101.2</ele>
        <time>2022-12-29T13:35:54Z</time>
      </trkpt>
      <trkpt lat="44.99566" lon="6.13952">
        <ele>2101.2</ele>
        <time>2022-12-29T13:35:55Z</time>
      </trkpt>
      <trkpt lat="44.99565" lon="6.13953">
        <ele>2102.4</ele>
        <time>2022-12-29T13:35:56Z</time>
      </trkpt>
      <trkpt lat="44.99564" lon="6.13956">
        <ele>2102.4</ele>
        <time>2022-12-29T13:35:57Z</time>
      </trkpt>
      <trkpt lat="44.99564" lon="6.13957">
        <ele>2102.4</ele>
        <time>2022-12-29T13:35:58Z</time>
      </trkpt>
      <trkpt lat="44.99564" lon="6.13958">
        <ele>2102.4</ele>
        <time>2022-12-29T13:35:59Z</time>
      </trkpt>
      <trkpt lat="44.99563" lon="6.13958">
        <ele>2102.4</ele>
        <time>2022-12-29T13:36:00Z</time>
      </trkpt>
      <trkpt lat="44.99563" lon="6.13959">
        <ele>2102.4</ele>
        <time>2022-12-29T13:36:01Z</time>
      </trkpt>
      <trkpt lat="44.99562" lon="6.1396">
        <ele>2102.4</ele>
        <time>2022-12-29T13:36:02Z</time>
      </trkpt>
      <trkpt lat="44.99562" lon="6.1396">
        <ele>2102.4</ele>
        <time>2022-12-29T13:36:03Z</time>
      </trkpt>
      <trkpt lat="44.99562" lon="6.13961">
        <ele>2102.4</ele>
        <time>2022-12-29T13:36:04Z</time>
      </trkpt>
      <trkpt lat="44.99561" lon="6.13962">
        <ele>2102.4</ele>
        <time>2022-12-29T13:36:05Z</time>
      </trkpt>
      <trkpt lat="44.99561" lon="6.13962">
        <ele>2103</ele>
        <time>2022-12-29T13:36:06Z</time>
      </trkpt>
      <trkpt lat="44.9956" lon="6.13963">
        <ele>2103</ele>
        <time>2022-12-29T13:36:07Z</time>
      </trkpt>
      <trkpt lat="44.99559" lon="6.13964">
        <ele>2103</ele>
        <time>2022-12-29T13:36:08Z</time>
      </trkpt>
      <trkpt lat="44.99559" lon="6.13964">
        <ele>2103</ele>
        <time>2022-12-29T13:36:09Z</time>
      </trkpt>
      <trkpt lat="44.99558" lon="6.13965">
        <ele>2103</ele>
        <time>2022-12-29T13:36:10Z</time>
      </trkpt>
      <trkpt lat="44.99557" lon="6.13966">
        <ele>2103</ele>
        <time>2022-12-29T13:36:11Z</time>
      </trkpt>
      <trkpt lat="44.99557" lon="6.13966">
        <ele>2103</ele>
        <time>2022-12-29T13:36:12Z</time>
      </trkpt>
      <trkpt lat="44.99556" lon="6.13967">
        <ele>2103</ele>
        <time>2022-12-29T13:36:13Z</time>
      </trkpt>
      <trkpt lat="44.99555" lon="6.13968">
        <ele>2103</ele>
        <time>2022-12-29T13:36:14Z</time>
      </trkpt>
      <trkpt lat="44.99555" lon="6.13968">
        <ele>2103</ele>
        <time>2022-12-29T13:36:15Z</time>
      </trkpt>
      <trkpt lat="44.99554" lon="6.13969">
        <ele>2103.6</ele>
        <time>2022-12-29T13:36:16Z</time>
      </trkpt>
      <trkpt lat="44.99551" lon="6.13971">
        <ele>2103.6</ele>
        <time>2022-12-29T13:36:17Z</time>
      </trkpt>
      <trkpt lat="44.99551" lon="6.13971">
        <ele>2103.6</ele>
        <time>2022-12-29T13:36:18Z</time>
      </trkpt>
      <trkpt lat="44.9955" lon="6.13972">
        <ele>2103.6</ele>
        <time>2022-12-29T13:36:19Z</time>
      </trkpt>
      <trkpt lat="44.9955" lon="6.13972">
        <ele>2103.6</ele>
        <time>2022-12-29T13:36:20Z</time>
      </trkpt>
      <trkpt lat="44.99549" lon="6.13972">
        <ele>2103.6</ele>
        <time>2022-12-29T13:36:21Z</time>
      </trkpt>
      <trkpt lat="44.99548" lon="6.13973">
        <ele>2103.6</ele>
        <time>2022-12-29T13:36:22Z</time>
      </trkpt>
      <trkpt lat="44.99548" lon="6.13973">
        <ele>2103.6</ele>
        <time>2022-12-29T13:36:23Z</time>
      </trkpt>
      <trkpt lat="44.99547" lon="6.13974">
        <ele>2103.6</ele>
        <time>2022-12-29T13:36:24Z</time>
      </trkpt>
      <trkpt lat="44.99547" lon="6.13974">
        <ele>2103.6</ele>
        <time>2022-12-29T13:36:25Z</time>
      </trkpt>
      <trkpt lat="44.99546" lon="6.13975">
        <ele>2103.6</ele>
        <time>2022-12-29T13:36:26Z</time>
      </trkpt>
      <trkpt lat="44.99545" lon="6.13975">
        <ele>2103.6</ele>
        <time>2022-12-29T13:36:27Z</time>
      </trkpt>
      <trkpt lat="44.99545" lon="6.13976">
        <ele>2103.6</ele>
        <time>2022-12-29T13:36:28Z</time>
      </trkpt>
      <trkpt lat="44.99544" lon="6.13976">
        <ele>2103.6</ele>
        <time>2022-12-29T13:36:29Z</time>
      </trkpt>
      <trkpt lat="44.99544" lon="6.13977">
        <ele>2103.6</ele>
        <time>2022-12-29T13:36:30Z</time>
      </trkpt>
      <trkpt lat="44.99543" lon="6.13978">
        <ele>2103.6</ele>
        <time>2022-12-29T13:36:31Z</time>
      </trkpt>
      <trkpt lat="44.99542" lon="6.13978">
        <ele>2103.6</ele>
        <time>2022-12-29T13:36:32Z</time>
      </trkpt>
      <trkpt lat="44.99542" lon="6.13979">
        <ele>2103.6</ele>
        <time>2022-12-29T13:36:33Z</time>
      </trkpt>
      <trkpt lat="44.99541" lon="6.1398">
        <ele>2103.6</ele>
        <time>2022-12-29T13:36:34Z</time>
      </trkpt>
      <trkpt lat="44.9954" lon="6.1398">
        <ele>2103.6</ele>
        <time>2022-12-29T13:36:35Z</time>
      </trkpt>
      <trkpt lat="44.9954" lon="6.13981">
        <ele>2104.4</ele>
        <time>2022-12-29T13:36:36Z</time>
      </trkpt>
      <trkpt lat="44.99539" lon="6.13981">
        <ele>2104.4</ele>
        <time>2022-12-29T13:36:37Z</time>
      </trkpt>
      <trkpt lat="44.99538" lon="6.13982">
        <ele>2104.4</ele>
        <time>2022-12-29T13:36:38Z</time>
      </trkpt>
      <trkpt lat="44.99538" lon="6.13983">
        <ele>2104.4</ele>
        <time>2022-12-29T13:36:39Z</time>
      </trkpt>
      <trkpt lat="44.99537" lon="6.13983">
        <ele>2104.4</ele>
        <time>2022-12-29T13:36:40Z</time>
      </trkpt>
      <trkpt lat="44.99536" lon="6.13984">
        <ele>2104.4</ele>
        <time>2022-12-29T13:36:41Z</time>
      </trkpt>
      <trkpt lat="44.99535" lon="6.13984">
        <ele>2104.4</ele>
        <time>2022-12-29T13:36:42Z</time>
      </trkpt>
      <trkpt lat="44.99535" lon="6.13985">
        <ele>2104.4</ele>
        <time>2022-12-29T13:36:43Z</time>
      </trkpt>
      <trkpt lat="44.99534" lon="6.13986">
        <ele>2104.4</ele>
        <time>2022-12-29T13:36:44Z</time>
      </trkpt>
      <trkpt lat="44.99533" lon="6.13986">
        <ele>2104.4</ele>
        <time>2022-12-29T13:36:45Z</time>
      </trkpt>
      <trkpt lat="44.99532" lon="6.13987">
        <ele>2105.8</ele>
        <time>2022-12-29T13:36:46Z</time>
      </trkpt>
      <trkpt lat="44.99532" lon="6.13988">
        <ele>2105.8</ele>
        <time>2022-12-29T13:36:47Z</time>
      </trkpt>
      <trkpt lat="44.99531" lon="6.13988">
        <ele>2105.8</ele>
        <time>2022-12-29T13:36:48Z</time>
      </trkpt>
      <trkpt lat="44.9953" lon="6.13989">
        <ele>2105.8</ele>
        <time>2022-12-29T13:36:49Z</time>
      </trkpt>
      <trkpt lat="44.9953" lon="6.1399">
        <ele>2105.8</ele>
        <time>2022-12-29T13:36:50Z</time>
      </trkpt>
      <trkpt lat="44.99529" lon="6.13991">
        <ele>2105.8</ele>
        <time>2022-12-29T13:36:51Z</time>
      </trkpt>
      <trkpt lat="44.99529" lon="6.13991">
        <ele>2105.8</ele>
        <time>2022-12-29T13:36:52Z</time>
      </trkpt>
      <trkpt lat="44.99528" lon="6.13992">
        <ele>2105.8</ele>
        <time>2022-12-29T13:36:53Z</time>
      </trkpt>
      <trkpt lat="44.99527" lon="6.13993">
        <ele>2105.8</ele>
        <time>2022-12-29T13:36:54Z</time>
      </trkpt>
      <trkpt lat="44.99527" lon="6.13993">
        <ele>2105.8</ele>
        <time>2022-12-29T13:36:55Z</time>
      </trkpt>
      <trkpt lat="44.99526" lon="6.13994">
        <ele>2107.4</ele>
        <time>2022-12-29T13:36:56Z</time>
      </trkpt>
      <trkpt lat="44.99526" lon="6.13995">
        <ele>2107.4</ele>
        <time>2022-12-29T13:36:57Z</time>
      </trkpt>
      <trkpt lat="44.99525" lon="6.13996">
        <ele>2107.4</ele>
        <time>2022-12-29T13:36:58Z</time>
      </trkpt>
      <trkpt lat="44.99525" lon="6.13996">
        <ele>2107.4</ele>
        <time>2022-12-29T13:36:59Z</time>
      </trkpt>
      <trkpt lat="44.99524" lon="6.13997">
        <ele>2107.4</ele>
        <time>2022-12-29T13:37:00Z</time>
      </trkpt>
      <trkpt lat="44.99524" lon="6.13998">
        <ele>2107.4</ele>
        <time>2022-12-29T13:37:01Z</time>
      </trkpt>
      <trkpt lat="44.99523" lon="6.13998">
        <ele>2107.4</ele>
        <time>2022-12-29T13:37:02Z</time>
      </trkpt>
      <trkpt lat="44.99523" lon="6.13999">
        <ele>2107.4</ele>
        <time>2022-12-29T13:37:03Z</time>
      </trkpt>
      <trkpt lat="44.99522" lon="6.14">
        <ele>2107.4</ele>
        <time>2022-12-29T13:37:04Z</time>
      </trkpt>
      <trkpt lat="44.99522" lon="6.14">
        <ele>2107.4</ele>
        <time>2022-12-29T13:37:05Z</time>
      </trkpt>
      <trkpt lat="44.99521" lon="6.14001">
        <ele>2109</ele>
        <time>2022-12-29T13:37:06Z</time>
      </trkpt>
      <trkpt lat="44.9952" lon="6.14004">
        <ele>2109</ele>
        <time>2022-12-29T13:37:07Z</time>
      </trkpt>
      <trkpt lat="44.99519" lon="6.14005">
        <ele>2109</ele>
        <time>2022-12-29T13:37:08Z</time>
      </trkpt>
      <trkpt lat="44.99519" lon="6.14006">
        <ele>2109</ele>
        <time>2022-12-29T13:37:09Z</time>
      </trkpt>
      <trkpt lat="44.99518" lon="6.14006">
        <ele>2109</ele>
        <time>2022-12-29T13:37:10Z</time>
      </trkpt>
      <trkpt lat="44.99518" lon="6.14007">
        <ele>2109</ele>
        <time>2022-12-29T13:37:11Z</time>
      </trkpt>
      <trkpt lat="44.99517" lon="6.14008">
        <ele>2109</ele>
        <time>2022-12-29T13:37:12Z</time>
      </trkpt>
      <trkpt lat="44.99517" lon="6.14008">
        <ele>2109</ele>
        <time>2022-12-29T13:37:13Z</time>
      </trkpt>
      <trkpt lat="44.99516" lon="6.14009">
        <ele>2109</ele>
        <time>2022-12-29T13:37:14Z</time>
      </trkpt>
      <trkpt lat="44.99516" lon="6.1401">
        <ele>2109</ele>
        <time>2022-12-29T13:37:15Z</time>
      </trkpt>
      <trkpt lat="44.99516" lon="6.1401">
        <ele>2110.2</ele>
        <time>2022-12-29T13:37:16Z</time>
      </trkpt>
      <trkpt lat="44.99515" lon="6.14011">
        <ele>2110.2</ele>
        <time>2022-12-29T13:37:17Z</time>
      </trkpt>
      <trkpt lat="44.99515" lon="6.14012">
        <ele>2110.2</ele>
        <time>2022-12-29T13:37:18Z</time>
      </trkpt>
      <trkpt lat="44.99514" lon="6.14012">
        <ele>2110.2</ele>
        <time>2022-12-29T13:37:19Z</time>
      </trkpt>
      <trkpt lat="44.99514" lon="6.14013">
        <ele>2110.2</ele>
        <time>2022-12-29T13:37:20Z</time>
      </trkpt>
      <trkpt lat="44.99513" lon="6.14014">
        <ele>2110.2</ele>
        <time>2022-12-29T13:37:21Z</time>
      </trkpt>
      <trkpt lat="44.99513" lon="6.14014">
        <ele>2110.2</ele>
        <time>2022-12-29T13:37:22Z</time>
      </trkpt>
      <trkpt lat="44.99512" lon="6.14015">
        <ele>2110.2</ele>
        <time>2022-12-29T13:37:23Z</time>
      </trkpt>
      <trkpt lat="44.99512" lon="6.14016">
        <ele>2110.2</ele>
        <time>2022-12-29T13:37:24Z</time>
      </trkpt>
      <trkpt lat="44.99512" lon="6.14016">
        <ele>2110.2</ele>
        <time>2022-12-29T13:37:25Z</time>
      </trkpt>
      <trkpt lat="44.99511" lon="6.14017">
        <ele>2111.4</ele>
        <time>2022-12-29T13:37:26Z</time>
      </trkpt>
      <trkpt lat="44.99509" lon="6.1402">
        <ele>2111.4</ele>
        <time>2022-12-29T13:37:27Z</time>
      </trkpt>
      <trkpt lat="44.99508" lon="6.1402">
        <ele>2111.4</ele>
        <time>2022-12-29T13:37:28Z</time>
      </trkpt>
      <trkpt lat="44.99508" lon="6.14021">
        <ele>2111.4</ele>
        <time>2022-12-29T13:37:29Z</time>
      </trkpt>
      <trkpt lat="44.99507" lon="6.14022">
        <ele>2111.4</ele>
        <time>2022-12-29T13:37:30Z</time>
      </trkpt>
      <trkpt lat="44.99506" lon="6.14022">
        <ele>2111.4</ele>
        <time>2022-12-29T13:37:31Z</time>
      </trkpt>
      <trkpt lat="44.99506" lon="6.14023">
        <ele>2111.4</ele>
        <time>2022-12-29T13:37:32Z</time>
      </trkpt>
      <trkpt lat="44.99505" lon="6.14024">
        <ele>2111.4</ele>
        <time>2022-12-29T13:37:33Z</time>
      </trkpt>
      <trkpt lat="44.99505" lon="6.14024">
        <ele>2111.4</ele>
        <time>2022-12-29T13:37:34Z</time>
      </trkpt>
      <trkpt lat="44.99504" lon="6.14025">
        <ele>2111.4</ele>
        <time>2022-12-29T13:37:35Z</time>
      </trkpt>
      <trkpt lat="44.99504" lon="6.14026">
        <ele>2112.8</ele>
        <time>2022-12-29T13:37:36Z</time>
      </trkpt>
      <trkpt lat="44.99503" lon="6.14026">
        <ele>2112.8</ele>
        <time>2022-12-29T13:37:37Z</time>
      </trkpt>
      <trkpt lat="44.99503" lon="6.14027">
        <ele>2112.8</ele>
        <time>2022-12-29T13:37:38Z</time>
      </trkpt>
      <trkpt lat="44.99502" lon="6.14027">
        <ele>2112.8</ele>
        <time>2022-12-29T13:37:39Z</time>
      </trkpt>
      <trkpt lat="44.99501" lon="6.14028">
        <ele>2112.8</ele>
        <time>2022-12-29T13:37:40Z</time>
      </trkpt>
      <trkpt lat="44.99501" lon="6.14028">
        <ele>2112.8</ele>
        <time>2022-12-29T13:37:41Z</time>
      </trkpt>
      <trkpt lat="44.995" lon="6.14029">
        <ele>2112.8</ele>
        <time>2022-12-29T13:37:42Z</time>
      </trkpt>
      <trkpt lat="44.995" lon="6.14029">
        <ele>2112.8</ele>
        <time>2022-12-29T13:37:43Z</time>
      </trkpt>
      <trkpt lat="44.99499" lon="6.1403">
        <ele>2112.8</ele>
        <time>2022-12-29T13:37:44Z</time>
      </trkpt>
      <trkpt lat="44.99499" lon="6.1403">
        <ele>2112.8</ele>
        <time>2022-12-29T13:37:45Z</time>
      </trkpt>
      <trkpt lat="44.99498" lon="6.14031">
        <ele>2114</ele>
        <time>2022-12-29T13:37:46Z</time>
      </trkpt>
      <trkpt lat="44.99495" lon="6.14033">
        <ele>2114</ele>
        <time>2022-12-29T13:37:47Z</time>
      </trkpt>
      <trkpt lat="44.99495" lon="6.14034">
        <ele>2114</ele>
        <time>2022-12-29T13:37:48Z</time>
      </trkpt>
      <trkpt lat="44.99494" lon="6.14034">
        <ele>2114</ele>
        <time>2022-12-29T13:37:49Z</time>
      </trkpt>
      <trkpt lat="44.99493" lon="6.14035">
        <ele>2114</ele>
        <time>2022-12-29T13:37:50Z</time>
      </trkpt>
      <trkpt lat="44.99493" lon="6.14036">
        <ele>2114</ele>
        <time>2022-12-29T13:37:51Z</time>
      </trkpt>
      <trkpt lat="44.99492" lon="6.14036">
        <ele>2114</ele>
        <time>2022-12-29T13:37:52Z</time>
      </trkpt>
      <trkpt lat="44.99492" lon="6.14037">
        <ele>2114</ele>
        <time>2022-12-29T13:37:53Z</time>
      </trkpt>
      <trkpt lat="44.99491" lon="6.14038">
        <ele>2114</ele>
        <time>2022-12-29T13:37:54Z</time>
      </trkpt>
      <trkpt lat="44.99491" lon="6.14038">
        <ele>2114</ele>
        <time>2022-12-29T13:37:55Z</time>
      </trkpt>
      <trkpt lat="44.9949" lon="6.14039">
        <ele>2115.4</ele>
        <time>2022-12-29T13:37:56Z</time>
      </trkpt>
      <trkpt lat="44.99489" lon="6.1404">
        <ele>2115.4</ele>
        <time>2022-12-29T13:37:57Z</time>
      </trkpt>
      <trkpt lat="44.99488" lon="6.1404">
        <ele>2115.4</ele>
        <time>2022-12-29T13:37:58Z</time>
      </trkpt>
      <trkpt lat="44.99488" lon="6.14041">
        <ele>2115.4</ele>
        <time>2022-12-29T13:37:59Z</time>
      </trkpt>
      <trkpt lat="44.99487" lon="6.14041">
        <ele>2115.4</ele>
        <time>2022-12-29T13:38:00Z</time>
      </trkpt>
      <trkpt lat="44.99486" lon="6.14042">
        <ele>2115.4</ele>
        <time>2022-12-29T13:38:01Z</time>
      </trkpt>
      <trkpt lat="44.99485" lon="6.14042">
        <ele>2115.4</ele>
        <time>2022-12-29T13:38:02Z</time>
      </trkpt>
      <trkpt lat="44.99484" lon="6.14043">
        <ele>2115.4</ele>
        <time>2022-12-29T13:38:03Z</time>
      </trkpt>
      <trkpt lat="44.99484" lon="6.14043">
        <ele>2115.4</ele>
        <time>2022-12-29T13:38:04Z</time>
      </trkpt>
      <trkpt lat="44.99483" lon="6.14044">
        <ele>2115.4</ele>
        <time>2022-12-29T13:38:05Z</time>
      </trkpt>
      <trkpt lat="44.99482" lon="6.14044">
        <ele>2117</ele>
        <time>2022-12-29T13:38:06Z</time>
      </trkpt>
      <trkpt lat="44.99481" lon="6.14045">
        <ele>2117</ele>
        <time>2022-12-29T13:38:07Z</time>
      </trkpt>
      <trkpt lat="44.99481" lon="6.14045">
        <ele>2117</ele>
        <time>2022-12-29T13:38:08Z</time>
      </trkpt>
      <trkpt lat="44.99481" lon="6.14046">
        <ele>2117</ele>
        <time>2022-12-29T13:38:09Z</time>
      </trkpt>
      <trkpt lat="44.9948" lon="6.14046">
        <ele>2117</ele>
        <time>2022-12-29T13:38:10Z</time>
      </trkpt>
      <trkpt lat="44.9948" lon="6.14047">
        <ele>2117</ele>
        <time>2022-12-29T13:38:11Z</time>
      </trkpt>
      <trkpt lat="44.99479" lon="6.14047">
        <ele>2117</ele>
        <time>2022-12-29T13:38:12Z</time>
      </trkpt>
      <trkpt lat="44.99479" lon="6.14048">
        <ele>2117</ele>
        <time>2022-12-29T13:38:13Z</time>
      </trkpt>
      <trkpt lat="44.99478" lon="6.14048">
        <ele>2117</ele>
        <time>2022-12-29T13:38:14Z</time>
      </trkpt>
      <trkpt lat="44.99478" lon="6.14049">
        <ele>2117</ele>
        <time>2022-12-29T13:38:15Z</time>
      </trkpt>
      <trkpt lat="44.99477" lon="6.14049">
        <ele>2118.4</ele>
        <time>2022-12-29T13:38:16Z</time>
      </trkpt>
      <trkpt lat="44.99475" lon="6.14052">
        <ele>2118.4</ele>
        <time>2022-12-29T13:38:17Z</time>
      </trkpt>
      <trkpt lat="44.99474" lon="6.14052">
        <ele>2118.4</ele>
        <time>2022-12-29T13:38:18Z</time>
      </trkpt>
      <trkpt lat="44.99474" lon="6.14053">
        <ele>2118.4</ele>
        <time>2022-12-29T13:38:19Z</time>
      </trkpt>
      <trkpt lat="44.99473" lon="6.14053">
        <ele>2118.4</ele>
        <time>2022-12-29T13:38:20Z</time>
      </trkpt>
      <trkpt lat="44.99473" lon="6.14053">
        <ele>2118.4</ele>
        <time>2022-12-29T13:38:21Z</time>
      </trkpt>
      <trkpt lat="44.99472" lon="6.14054">
        <ele>2118.4</ele>
        <time>2022-12-29T13:38:22Z</time>
      </trkpt>
      <trkpt lat="44.99472" lon="6.14054">
        <ele>2118.4</ele>
        <time>2022-12-29T13:38:23Z</time>
      </trkpt>
      <trkpt lat="44.99471" lon="6.14055">
        <ele>2118.4</ele>
        <time>2022-12-29T13:38:24Z</time>
      </trkpt>
      <trkpt lat="44.9947" lon="6.14055">
        <ele>2118.4</ele>
        <time>2022-12-29T13:38:25Z</time>
      </trkpt>
      <trkpt lat="44.9947" lon="6.14055">
        <ele>2119.8</ele>
        <time>2022-12-29T13:38:26Z</time>
      </trkpt>
      <trkpt lat="44.99469" lon="6.14056">
        <ele>2119.8</ele>
        <time>2022-12-29T13:38:27Z</time>
      </trkpt>
      <trkpt lat="44.99468" lon="6.14056">
        <ele>2119.8</ele>
        <time>2022-12-29T13:38:28Z</time>
      </trkpt>
      <trkpt lat="44.99467" lon="6.14057">
        <ele>2119.8</ele>
        <time>2022-12-29T13:38:29Z</time>
      </trkpt>
      <trkpt lat="44.99466" lon="6.14057">
        <ele>2119.8</ele>
        <time>2022-12-29T13:38:30Z</time>
      </trkpt>
      <trkpt lat="44.99466" lon="6.14057">
        <ele>2119.8</ele>
        <time>2022-12-29T13:38:31Z</time>
      </trkpt>
      <trkpt lat="44.99465" lon="6.14058">
        <ele>2119.8</ele>
        <time>2022-12-29T13:38:32Z</time>
      </trkpt>
      <trkpt lat="44.99464" lon="6.14058">
        <ele>2119.8</ele>
        <time>2022-12-29T13:38:33Z</time>
      </trkpt>
      <trkpt lat="44.99463" lon="6.14058">
        <ele>2119.8</ele>
        <time>2022-12-29T13:38:34Z</time>
      </trkpt>
      <trkpt lat="44.99462" lon="6.14059">
        <ele>2119.8</ele>
        <time>2022-12-29T13:38:35Z</time>
      </trkpt>
      <trkpt lat="44.99461" lon="6.14059">
        <ele>2121.4</ele>
        <time>2022-12-29T13:38:36Z</time>
      </trkpt>
      <trkpt lat="44.99461" lon="6.14059">
        <ele>2121.4</ele>
        <time>2022-12-29T13:38:37Z</time>
      </trkpt>
      <trkpt lat="44.9946" lon="6.1406">
        <ele>2121.4</ele>
        <time>2022-12-29T13:38:38Z</time>
      </trkpt>
      <trkpt lat="44.99459" lon="6.1406">
        <ele>2121.4</ele>
        <time>2022-12-29T13:38:39Z</time>
      </trkpt>
      <trkpt lat="44.99458" lon="6.14061">
        <ele>2121.4</ele>
        <time>2022-12-29T13:38:40Z</time>
      </trkpt>
      <trkpt lat="44.99458" lon="6.14061">
        <ele>2121.4</ele>
        <time>2022-12-29T13:38:41Z</time>
      </trkpt>
      <trkpt lat="44.99457" lon="6.14061">
        <ele>2121.4</ele>
        <time>2022-12-29T13:38:42Z</time>
      </trkpt>
      <trkpt lat="44.99456" lon="6.14062">
        <ele>2121.4</ele>
        <time>2022-12-29T13:38:43Z</time>
      </trkpt>
      <trkpt lat="44.99455" lon="6.14062">
        <ele>2121.4</ele>
        <time>2022-12-29T13:38:44Z</time>
      </trkpt>
      <trkpt lat="44.99455" lon="6.14063">
        <ele>2121.4</ele>
        <time>2022-12-29T13:38:45Z</time>
      </trkpt>
      <trkpt lat="44.99454" lon="6.14063">
        <ele>2122.8</ele>
        <time>2022-12-29T13:38:46Z</time>
      </trkpt>
      <trkpt lat="44.99451" lon="6.14064">
        <ele>2122.8</ele>
        <time>2022-12-29T13:38:47Z</time>
      </trkpt>
      <trkpt lat="44.99451" lon="6.14065">
        <ele>2122.8</ele>
        <time>2022-12-29T13:38:48Z</time>
      </trkpt>
      <trkpt lat="44.9945" lon="6.14065">
        <ele>2122.8</ele>
        <time>2022-12-29T13:38:49Z</time>
      </trkpt>
      <trkpt lat="44.9945" lon="6.14066">
        <ele>2122.8</ele>
        <time>2022-12-29T13:38:50Z</time>
      </trkpt>
      <trkpt lat="44.99449" lon="6.14066">
        <ele>2122.8</ele>
        <time>2022-12-29T13:38:51Z</time>
      </trkpt>
      <trkpt lat="44.99448" lon="6.14067">
        <ele>2122.8</ele>
        <time>2022-12-29T13:38:52Z</time>
      </trkpt>
      <trkpt lat="44.99448" lon="6.14067">
        <ele>2122.8</ele>
        <time>2022-12-29T13:38:53Z</time>
      </trkpt>
      <trkpt lat="44.99447" lon="6.14068">
        <ele>2122.8</ele>
        <time>2022-12-29T13:38:54Z</time>
      </trkpt>
      <trkpt lat="44.99447" lon="6.14068">
        <ele>2122.8</ele>
        <time>2022-12-29T13:38:55Z</time>
      </trkpt>
      <trkpt lat="44.99446" lon="6.14069">
        <ele>2124</ele>
        <time>2022-12-29T13:38:56Z</time>
      </trkpt>
      <trkpt lat="44.99446" lon="6.14069">
        <ele>2124</ele>
        <time>2022-12-29T13:38:57Z</time>
      </trkpt>
      <trkpt lat="44.99445" lon="6.1407">
        <ele>2124</ele>
        <time>2022-12-29T13:38:58Z</time>
      </trkpt>
      <trkpt lat="44.99445" lon="6.14071">
        <ele>2124</ele>
        <time>2022-12-29T13:38:59Z</time>
      </trkpt>
      <trkpt lat="44.99444" lon="6.14071">
        <ele>2124</ele>
        <time>2022-12-29T13:39:00Z</time>
      </trkpt>
      <trkpt lat="44.99443" lon="6.14072">
        <ele>2124</ele>
        <time>2022-12-29T13:39:01Z</time>
      </trkpt>
      <trkpt lat="44.99443" lon="6.14072">
        <ele>2124</ele>
        <time>2022-12-29T13:39:02Z</time>
      </trkpt>
      <trkpt lat="44.99442" lon="6.14073">
        <ele>2124</ele>
        <time>2022-12-29T13:39:03Z</time>
      </trkpt>
      <trkpt lat="44.99441" lon="6.14073">
        <ele>2124</ele>
        <time>2022-12-29T13:39:04Z</time>
      </trkpt>
      <trkpt lat="44.99441" lon="6.14074">
        <ele>2124</ele>
        <time>2022-12-29T13:39:05Z</time>
      </trkpt>
      <trkpt lat="44.9944" lon="6.14074">
        <ele>2125.4</ele>
        <time>2022-12-29T13:39:06Z</time>
      </trkpt>
      <trkpt lat="44.99439" lon="6.14075">
        <ele>2125.4</ele>
        <time>2022-12-29T13:39:07Z</time>
      </trkpt>
      <trkpt lat="44.99439" lon="6.14075">
        <ele>2125.4</ele>
        <time>2022-12-29T13:39:08Z</time>
      </trkpt>
      <trkpt lat="44.99438" lon="6.14076">
        <ele>2125.4</ele>
        <time>2022-12-29T13:39:09Z</time>
      </trkpt>
      <trkpt lat="44.99437" lon="6.14076">
        <ele>2125.4</ele>
        <time>2022-12-29T13:39:10Z</time>
      </trkpt>
      <trkpt lat="44.99437" lon="6.14077">
        <ele>2125.4</ele>
        <time>2022-12-29T13:39:11Z</time>
      </trkpt>
      <trkpt lat="44.99436" lon="6.14077">
        <ele>2125.4</ele>
        <time>2022-12-29T13:39:12Z</time>
      </trkpt>
      <trkpt lat="44.99436" lon="6.14077">
        <ele>2125.4</ele>
        <time>2022-12-29T13:39:13Z</time>
      </trkpt>
      <trkpt lat="44.99435" lon="6.14078">
        <ele>2125.4</ele>
        <time>2022-12-29T13:39:14Z</time>
      </trkpt>
      <trkpt lat="44.99434" lon="6.14078">
        <ele>2125.4</ele>
        <time>2022-12-29T13:39:15Z</time>
      </trkpt>
      <trkpt lat="44.99434" lon="6.14079">
        <ele>2126.6</ele>
        <time>2022-12-29T13:39:16Z</time>
      </trkpt>
      <trkpt lat="44.99431" lon="6.1408">
        <ele>2126.6</ele>
        <time>2022-12-29T13:39:17Z</time>
      </trkpt>
      <trkpt lat="44.99431" lon="6.1408">
        <ele>2126.6</ele>
        <time>2022-12-29T13:39:18Z</time>
      </trkpt>
      <trkpt lat="44.9943" lon="6.14081">
        <ele>2126.6</ele>
        <time>2022-12-29T13:39:19Z</time>
      </trkpt>
      <trkpt lat="44.9943" lon="6.14081">
        <ele>2126.6</ele>
        <time>2022-12-29T13:39:20Z</time>
      </trkpt>
      <trkpt lat="44.9943" lon="6.14081">
        <ele>2126.6</ele>
        <time>2022-12-29T13:39:21Z</time>
      </trkpt>
      <trkpt lat="44.99429" lon="6.14081">
        <ele>2126.6</ele>
        <time>2022-12-29T13:39:22Z</time>
      </trkpt>
      <trkpt lat="44.99429" lon="6.14081">
        <ele>2126.6</ele>
        <time>2022-12-29T13:39:23Z</time>
      </trkpt>
      <trkpt lat="44.99428" lon="6.14082">
        <ele>2126.6</ele>
        <time>2022-12-29T13:39:24Z</time>
      </trkpt>
      <trkpt lat="44.99428" lon="6.14082">
        <ele>2126.6</ele>
        <time>2022-12-29T13:39:25Z</time>
      </trkpt>
      <trkpt lat="44.99428" lon="6.14082">
        <ele>2128.4</ele>
        <time>2022-12-29T13:39:26Z</time>
      </trkpt>
      <trkpt lat="44.99425" lon="6.14084">
        <ele>2128.4</ele>
        <time>2022-12-29T13:39:27Z</time>
      </trkpt>
      <trkpt lat="44.99425" lon="6.14084">
        <ele>2128.4</ele>
        <time>2022-12-29T13:39:28Z</time>
      </trkpt>
      <trkpt lat="44.99424" lon="6.14084">
        <ele>2128.4</ele>
        <time>2022-12-29T13:39:29Z</time>
      </trkpt>
      <trkpt lat="44.99423" lon="6.14085">
        <ele>2128.4</ele>
        <time>2022-12-29T13:39:30Z</time>
      </trkpt>
      <trkpt lat="44.99423" lon="6.14085">
        <ele>2128.4</ele>
        <time>2022-12-29T13:39:31Z</time>
      </trkpt>
      <trkpt lat="44.99422" lon="6.14086">
        <ele>2128.4</ele>
        <time>2022-12-29T13:39:32Z</time>
      </trkpt>
      <trkpt lat="44.99422" lon="6.14086">
        <ele>2128.4</ele>
        <time>2022-12-29T13:39:33Z</time>
      </trkpt>
      <trkpt lat="44.99421" lon="6.14087">
        <ele>2128.4</ele>
        <time>2022-12-29T13:39:34Z</time>
      </trkpt>
      <trkpt lat="44.99421" lon="6.14087">
        <ele>2128.4</ele>
        <time>2022-12-29T13:39:35Z</time>
      </trkpt>
      <trkpt lat="44.9942" lon="6.14088">
        <ele>2129.6</ele>
        <time>2022-12-29T13:39:36Z</time>
      </trkpt>
      <trkpt lat="44.9942" lon="6.14088">
        <ele>2129.6</ele>
        <time>2022-12-29T13:39:37Z</time>
      </trkpt>
      <trkpt lat="44.99419" lon="6.14089">
        <ele>2129.6</ele>
        <time>2022-12-29T13:39:38Z</time>
      </trkpt>
      <trkpt lat="44.99418" lon="6.14089">
        <ele>2129.6</ele>
        <time>2022-12-29T13:39:39Z</time>
      </trkpt>
      <trkpt lat="44.99418" lon="6.1409">
        <ele>2129.6</ele>
        <time>2022-12-29T13:39:40Z</time>
      </trkpt>
      <trkpt lat="44.99417" lon="6.1409">
        <ele>2129.6</ele>
        <time>2022-12-29T13:39:41Z</time>
      </trkpt>
      <trkpt lat="44.99416" lon="6.14091">
        <ele>2129.6</ele>
        <time>2022-12-29T13:39:42Z</time>
      </trkpt>
      <trkpt lat="44.99416" lon="6.14091">
        <ele>2129.6</ele>
        <time>2022-12-29T13:39:43Z</time>
      </trkpt>
      <trkpt lat="44.99415" lon="6.14092">
        <ele>2129.6</ele>
        <time>2022-12-29T13:39:44Z</time>
      </trkpt>
      <trkpt lat="44.99414" lon="6.14092">
        <ele>2129.6</ele>
        <time>2022-12-29T13:39:45Z</time>
      </trkpt>
      <trkpt lat="44.99414" lon="6.14093">
        <ele>2131.2</ele>
        <time>2022-12-29T13:39:46Z</time>
      </trkpt>
      <trkpt lat="44.99413" lon="6.14093">
        <ele>2131.2</ele>
        <time>2022-12-29T13:39:47Z</time>
      </trkpt>
      <trkpt lat="44.99413" lon="6.14093">
        <ele>2131.2</ele>
        <time>2022-12-29T13:39:48Z</time>
      </trkpt>
      <trkpt lat="44.99412" lon="6.14094">
        <ele>2131.2</ele>
        <time>2022-12-29T13:39:49Z</time>
      </trkpt>
      <trkpt lat="44.99411" lon="6.14094">
        <ele>2131.2</ele>
        <time>2022-12-29T13:39:50Z</time>
      </trkpt>
      <trkpt lat="44.99411" lon="6.14095">
        <ele>2131.2</ele>
        <time>2022-12-29T13:39:51Z</time>
      </trkpt>
      <trkpt lat="44.9941" lon="6.14095">
        <ele>2131.2</ele>
        <time>2022-12-29T13:39:52Z</time>
      </trkpt>
      <trkpt lat="44.9941" lon="6.14096">
        <ele>2131.2</ele>
        <time>2022-12-29T13:39:53Z</time>
      </trkpt>
      <trkpt lat="44.99409" lon="6.14096">
        <ele>2131.2</ele>
        <time>2022-12-29T13:39:54Z</time>
      </trkpt>
      <trkpt lat="44.99408" lon="6.14097">
        <ele>2131.2</ele>
        <time>2022-12-29T13:39:55Z</time>
      </trkpt>
      <trkpt lat="44.99408" lon="6.14097">
        <ele>2133</ele>
        <time>2022-12-29T13:39:56Z</time>
      </trkpt>
      <trkpt lat="44.99405" lon="6.14099">
        <ele>2133</ele>
        <time>2022-12-29T13:39:57Z</time>
      </trkpt>
      <trkpt lat="44.99404" lon="6.14099">
        <ele>2133</ele>
        <time>2022-12-29T13:39:58Z</time>
      </trkpt>
      <trkpt lat="44.99404" lon="6.141">
        <ele>2133</ele>
        <time>2022-12-29T13:39:59Z</time>
      </trkpt>
      <trkpt lat="44.99403" lon="6.141">
        <ele>2133</ele>
        <time>2022-12-29T13:40:00Z</time>
      </trkpt>
      <trkpt lat="44.99403" lon="6.14101">
        <ele>2133</ele>
        <time>2022-12-29T13:40:01Z</time>
      </trkpt>
      <trkpt lat="44.99402" lon="6.14101">
        <ele>2133</ele>
        <time>2022-12-29T13:40:02Z</time>
      </trkpt>
      <trkpt lat="44.99401" lon="6.14102">
        <ele>2133</ele>
        <time>2022-12-29T13:40:03Z</time>
      </trkpt>
      <trkpt lat="44.99401" lon="6.14102">
        <ele>2133</ele>
        <time>2022-12-29T13:40:04Z</time>
      </trkpt>
      <trkpt lat="44.994" lon="6.14103">
        <ele>2133</ele>
        <time>2022-12-29T13:40:05Z</time>
      </trkpt>
      <trkpt lat="44.994" lon="6.14103">
        <ele>2134.4</ele>
        <time>2022-12-29T13:40:06Z</time>
      </trkpt>
      <trkpt lat="44.99398" lon="6.14105">
        <ele>2134.4</ele>
        <time>2022-12-29T13:40:07Z</time>
      </trkpt>
      <trkpt lat="44.99397" lon="6.14106">
        <ele>2134.4</ele>
        <time>2022-12-29T13:40:08Z</time>
      </trkpt>
      <trkpt lat="44.99397" lon="6.14106">
        <ele>2134.4</ele>
        <time>2022-12-29T13:40:09Z</time>
      </trkpt>
      <trkpt lat="44.99396" lon="6.14107">
        <ele>2134.4</ele>
        <time>2022-12-29T13:40:10Z</time>
      </trkpt>
      <trkpt lat="44.99396" lon="6.14107">
        <ele>2134.4</ele>
        <time>2022-12-29T13:40:11Z</time>
      </trkpt>
      <trkpt lat="44.99396" lon="6.14108">
        <ele>2134.4</ele>
        <time>2022-12-29T13:40:12Z</time>
      </trkpt>
      <trkpt lat="44.99395" lon="6.14109">
        <ele>2134.4</ele>
        <time>2022-12-29T13:40:13Z</time>
      </trkpt>
      <trkpt lat="44.99395" lon="6.14109">
        <ele>2134.4</ele>
        <time>2022-12-29T13:40:14Z</time>
      </trkpt>
      <trkpt lat="44.99394" lon="6.1411">
        <ele>2134.4</ele>
        <time>2022-12-29T13:40:15Z</time>
      </trkpt>
      <trkpt lat="44.99394" lon="6.14111">
        <ele>2136.4</ele>
        <time>2022-12-29T13:40:16Z</time>
      </trkpt>
      <trkpt lat="44.99394" lon="6.14112">
        <ele>2136.4</ele>
        <time>2022-12-29T13:40:17Z</time>
      </trkpt>
      <trkpt lat="44.99393" lon="6.14112">
        <ele>2136.4</ele>
        <time>2022-12-29T13:40:18Z</time>
      </trkpt>
      <trkpt lat="44.99393" lon="6.14113">
        <ele>2136.4</ele>
        <time>2022-12-29T13:40:19Z</time>
      </trkpt>
      <trkpt lat="44.99393" lon="6.14114">
        <ele>2136.4</ele>
        <time>2022-12-29T13:40:20Z</time>
      </trkpt>
      <trkpt lat="44.99392" lon="6.14115">
        <ele>2136.4</ele>
        <time>2022-12-29T13:40:21Z</time>
      </trkpt>
      <trkpt lat="44.99392" lon="6.14116">
        <ele>2136.4</ele>
        <time>2022-12-29T13:40:22Z</time>
      </trkpt>
      <trkpt lat="44.99392" lon="6.14117">
        <ele>2136.4</ele>
        <time>2022-12-29T13:40:23Z</time>
      </trkpt>
      <trkpt lat="44.99391" lon="6.14117">
        <ele>2136.4</ele>
        <time>2022-12-29T13:40:24Z</time>
      </trkpt>
      <trkpt lat="44.99391" lon="6.14118">
        <ele>2136.4</ele>
        <time>2022-12-29T13:40:25Z</time>
      </trkpt>
      <trkpt lat="44.99391" lon="6.14119">
        <ele>2138</ele>
        <time>2022-12-29T13:40:26Z</time>
      </trkpt>
      <trkpt lat="44.9939" lon="6.1412">
        <ele>2138</ele>
        <time>2022-12-29T13:40:27Z</time>
      </trkpt>
      <trkpt lat="44.9939" lon="6.14121">
        <ele>2138</ele>
        <time>2022-12-29T13:40:28Z</time>
      </trkpt>
      <trkpt lat="44.9939" lon="6.14121">
        <ele>2138</ele>
        <time>2022-12-29T13:40:29Z</time>
      </trkpt>
      <trkpt lat="44.9939" lon="6.14122">
        <ele>2138</ele>
        <time>2022-12-29T13:40:30Z</time>
      </trkpt>
      <trkpt lat="44.99389" lon="6.14123">
        <ele>2138</ele>
        <time>2022-12-29T13:40:31Z</time>
      </trkpt>
      <trkpt lat="44.99389" lon="6.14124">
        <ele>2138</ele>
        <time>2022-12-29T13:40:32Z</time>
      </trkpt>
      <trkpt lat="44.99389" lon="6.14125">
        <ele>2138</ele>
        <time>2022-12-29T13:40:33Z</time>
      </trkpt>
      <trkpt lat="44.99388" lon="6.14125">
        <ele>2138</ele>
        <time>2022-12-29T13:40:34Z</time>
      </trkpt>
      <trkpt lat="44.99388" lon="6.14126">
        <ele>2138</ele>
        <time>2022-12-29T13:40:35Z</time>
      </trkpt>
      <trkpt lat="44.99388" lon="6.14127">
        <ele>2139.8</ele>
        <time>2022-12-29T13:40:36Z</time>
      </trkpt>
      <trkpt lat="44.99386" lon="6.1413">
        <ele>2139.8</ele>
        <time>2022-12-29T13:40:37Z</time>
      </trkpt>
      <trkpt lat="44.99385" lon="6.1413">
        <ele>2139.8</ele>
        <time>2022-12-29T13:40:38Z</time>
      </trkpt>
      <trkpt lat="44.99385" lon="6.14131">
        <ele>2139.8</ele>
        <time>2022-12-29T13:40:39Z</time>
      </trkpt>
      <trkpt lat="44.99384" lon="6.14132">
        <ele>2139.8</ele>
        <time>2022-12-29T13:40:40Z</time>
      </trkpt>
      <trkpt lat="44.99384" lon="6.14132">
        <ele>2139.8</ele>
        <time>2022-12-29T13:40:41Z</time>
      </trkpt>
      <trkpt lat="44.99384" lon="6.14133">
        <ele>2139.8</ele>
        <time>2022-12-29T13:40:42Z</time>
      </trkpt>
      <trkpt lat="44.99383" lon="6.14134">
        <ele>2139.8</ele>
        <time>2022-12-29T13:40:43Z</time>
      </trkpt>
      <trkpt lat="44.99383" lon="6.14135">
        <ele>2139.8</ele>
        <time>2022-12-29T13:40:44Z</time>
      </trkpt>
      <trkpt lat="44.99382" lon="6.14135">
        <ele>2139.8</ele>
        <time>2022-12-29T13:40:45Z</time>
      </trkpt>
      <trkpt lat="44.99382" lon="6.14136">
        <ele>2140.8</ele>
        <time>2022-12-29T13:40:46Z</time>
      </trkpt>
      <trkpt lat="44.9938" lon="6.14138">
        <ele>2140.8</ele>
        <time>2022-12-29T13:40:47Z</time>
      </trkpt>
      <trkpt lat="44.99379" lon="6.14139">
        <ele>2140.8</ele>
        <time>2022-12-29T13:40:48Z</time>
      </trkpt>
      <trkpt lat="44.99379" lon="6.1414">
        <ele>2140.8</ele>
        <time>2022-12-29T13:40:49Z</time>
      </trkpt>
      <trkpt lat="44.99379" lon="6.14141">
        <ele>2140.8</ele>
        <time>2022-12-29T13:40:50Z</time>
      </trkpt>
      <trkpt lat="44.99378" lon="6.14141">
        <ele>2140.8</ele>
        <time>2022-12-29T13:40:51Z</time>
      </trkpt>
      <trkpt lat="44.99378" lon="6.14142">
        <ele>2140.8</ele>
        <time>2022-12-29T13:40:52Z</time>
      </trkpt>
      <trkpt lat="44.99377" lon="6.14143">
        <ele>2140.8</ele>
        <time>2022-12-29T13:40:53Z</time>
      </trkpt>
      <trkpt lat="44.99377" lon="6.14144">
        <ele>2140.8</ele>
        <time>2022-12-29T13:40:54Z</time>
      </trkpt>
      <trkpt lat="44.99376" lon="6.14144">
        <ele>2140.8</ele>
        <time>2022-12-29T13:40:55Z</time>
      </trkpt>
      <trkpt lat="44.99376" lon="6.14145">
        <ele>2142.4</ele>
        <time>2022-12-29T13:40:56Z</time>
      </trkpt>
      <trkpt lat="44.99376" lon="6.14146">
        <ele>2142.4</ele>
        <time>2022-12-29T13:40:57Z</time>
      </trkpt>
      <trkpt lat="44.99375" lon="6.14146">
        <ele>2142.4</ele>
        <time>2022-12-29T13:40:58Z</time>
      </trkpt>
      <trkpt lat="44.99375" lon="6.14147">
        <ele>2142.4</ele>
        <time>2022-12-29T13:40:59Z</time>
      </trkpt>
      <trkpt lat="44.99374" lon="6.14147">
        <ele>2142.4</ele>
        <time>2022-12-29T13:41:00Z</time>
      </trkpt>
      <trkpt lat="44.99374" lon="6.14148">
        <ele>2142.4</ele>
        <time>2022-12-29T13:41:01Z</time>
      </trkpt>
      <trkpt lat="44.99373" lon="6.14148">
        <ele>2142.4</ele>
        <time>2022-12-29T13:41:02Z</time>
      </trkpt>
      <trkpt lat="44.99373" lon="6.14149">
        <ele>2142.4</ele>
        <time>2022-12-29T13:41:03Z</time>
      </trkpt>
      <trkpt lat="44.99372" lon="6.14149">
        <ele>2142.4</ele>
        <time>2022-12-29T13:41:04Z</time>
      </trkpt>
      <trkpt lat="44.99372" lon="6.1415">
        <ele>2142.4</ele>
        <time>2022-12-29T13:41:05Z</time>
      </trkpt>
      <trkpt lat="44.99371" lon="6.1415">
        <ele>2144.8</ele>
        <time>2022-12-29T13:41:06Z</time>
      </trkpt>
      <trkpt lat="44.99371" lon="6.1415">
        <ele>2144.8</ele>
        <time>2022-12-29T13:41:07Z</time>
      </trkpt>
      <trkpt lat="44.99371" lon="6.14153">
        <ele>2144.8</ele>
        <time>2022-12-29T13:41:08Z</time>
      </trkpt>
      <trkpt lat="44.99371" lon="6.14153">
        <ele>2144.8</ele>
        <time>2022-12-29T13:41:09Z</time>
      </trkpt>
      <trkpt lat="44.99371" lon="6.14153">
        <ele>2144.8</ele>
        <time>2022-12-29T13:41:10Z</time>
      </trkpt>
      <trkpt lat="44.99371" lon="6.14153">
        <ele>2144.8</ele>
        <time>2022-12-29T13:41:11Z</time>
      </trkpt>
      <trkpt lat="44.99371" lon="6.14153">
        <ele>2144.8</ele>
        <time>2022-12-29T13:41:12Z</time>
      </trkpt>
      <trkpt lat="44.99371" lon="6.14153">
        <ele>2144.8</ele>
        <time>2022-12-29T13:41:13Z</time>
      </trkpt>
      <trkpt lat="44.99371" lon="6.14153">
        <ele>2144.8</ele>
        <time>2022-12-29T13:41:14Z</time>
      </trkpt>
      <trkpt lat="44.99371" lon="6.14153">
        <ele>2144.8</ele>
        <time>2022-12-29T13:41:15Z</time>
      </trkpt>
      <trkpt lat="44.99371" lon="6.14153">
        <ele>2145.2</ele>
        <time>2022-12-29T13:41:16Z</time>
      </trkpt>
      <trkpt lat="44.99371" lon="6.14153">
        <ele>2145.2</ele>
        <time>2022-12-29T13:41:17Z</time>
      </trkpt>
      <trkpt lat="44.99372" lon="6.14153">
        <ele>2145.2</ele>
        <time>2022-12-29T13:41:18Z</time>
      </trkpt>
      <trkpt lat="44.99372" lon="6.14153">
        <ele>2145.2</ele>
        <time>2022-12-29T13:41:19Z</time>
      </trkpt>
      <trkpt lat="44.99372" lon="6.14154">
        <ele>2145.2</ele>
        <time>2022-12-29T13:41:20Z</time>
      </trkpt>
      <trkpt lat="44.99372" lon="6.14154">
        <ele>2145.2</ele>
        <time>2022-12-29T13:41:21Z</time>
      </trkpt>
      <trkpt lat="44.99372" lon="6.14154">
        <ele>2145.2</ele>
        <time>2022-12-29T13:41:22Z</time>
      </trkpt>
      <trkpt lat="44.99372" lon="6.14154">
        <ele>2145.2</ele>
        <time>2022-12-29T13:41:23Z</time>
      </trkpt>
      <trkpt lat="44.99373" lon="6.14155">
        <ele>2145.2</ele>
        <time>2022-12-29T13:41:24Z</time>
      </trkpt>
      <trkpt lat="44.99373" lon="6.14155">
        <ele>2145.2</ele>
        <time>2022-12-29T13:41:25Z</time>
      </trkpt>
      <trkpt lat="44.99373" lon="6.14155">
        <ele>2146</ele>
        <time>2022-12-29T13:41:26Z</time>
      </trkpt>
      <trkpt lat="44.99373" lon="6.14155">
        <ele>2146</ele>
        <time>2022-12-29T13:41:27Z</time>
      </trkpt>
      <trkpt lat="44.99373" lon="6.14155">
        <ele>2146</ele>
        <time>2022-12-29T13:41:28Z</time>
      </trkpt>
      <trkpt lat="44.99373" lon="6.14156">
        <ele>2146</ele>
        <time>2022-12-29T13:41:29Z</time>
      </trkpt>
      <trkpt lat="44.99373" lon="6.14156">
        <ele>2146</ele>
        <time>2022-12-29T13:41:30Z</time>
      </trkpt>
      <trkpt lat="44.99374" lon="6.14156">
        <ele>2146</ele>
        <time>2022-12-29T13:41:31Z</time>
      </trkpt>
      <trkpt lat="44.99374" lon="6.14156">
        <ele>2146</ele>
        <time>2022-12-29T13:41:32Z</time>
      </trkpt>
      <trkpt lat="44.99374" lon="6.14156">
        <ele>2146</ele>
        <time>2022-12-29T13:41:33Z</time>
      </trkpt>
      <trkpt lat="44.99374" lon="6.14157">
        <ele>2146</ele>
        <time>2022-12-29T13:41:34Z</time>
      </trkpt>
      <trkpt lat="44.99374" lon="6.14157">
        <ele>2146</ele>
        <time>2022-12-29T13:41:35Z</time>
      </trkpt>
      <trkpt lat="44.99374" lon="6.14157">
        <ele>2148.2</ele>
        <time>2022-12-29T13:41:36Z</time>
      </trkpt>
      <trkpt lat="44.99377" lon="6.14161">
        <ele>2148.2</ele>
        <time>2022-12-29T13:41:37Z</time>
      </trkpt>
      <trkpt lat="44.99377" lon="6.14163">
        <ele>2148.2</ele>
        <time>2022-12-29T13:41:38Z</time>
      </trkpt>
      <trkpt lat="44.99378" lon="6.14164">
        <ele>2148.2</ele>
        <time>2022-12-29T13:41:39Z</time>
      </trkpt>
      <trkpt lat="44.99378" lon="6.14165">
        <ele>2148.2</ele>
        <time>2022-12-29T13:41:40Z</time>
      </trkpt>
      <trkpt lat="44.99379" lon="6.14166">
        <ele>2148.2</ele>
        <time>2022-12-29T13:41:41Z</time>
      </trkpt>
      <trkpt lat="44.99379" lon="6.14168">
        <ele>2148.2</ele>
        <time>2022-12-29T13:41:42Z</time>
      </trkpt>
      <trkpt lat="44.9938" lon="6.14169">
        <ele>2148.2</ele>
        <time>2022-12-29T13:41:43Z</time>
      </trkpt>
      <trkpt lat="44.9938" lon="6.1417">
        <ele>2148.2</ele>
        <time>2022-12-29T13:41:44Z</time>
      </trkpt>
      <trkpt lat="44.9938" lon="6.14171">
        <ele>2148.2</ele>
        <time>2022-12-29T13:41:45Z</time>
      </trkpt>
      <trkpt lat="44.99381" lon="6.14173">
        <ele>2150.4</ele>
        <time>2022-12-29T13:41:46Z</time>
      </trkpt>
      <trkpt lat="44.99381" lon="6.14175">
        <ele>2150.4</ele>
        <time>2022-12-29T13:41:47Z</time>
      </trkpt>
      <trkpt lat="44.99382" lon="6.14176">
        <ele>2150.4</ele>
        <time>2022-12-29T13:41:48Z</time>
      </trkpt>
      <trkpt lat="44.99382" lon="6.14177">
        <ele>2150.4</ele>
        <time>2022-12-29T13:41:49Z</time>
      </trkpt>
      <trkpt lat="44.99382" lon="6.14178">
        <ele>2150.4</ele>
        <time>2022-12-29T13:41:50Z</time>
      </trkpt>
      <trkpt lat="44.99382" lon="6.14179">
        <ele>2150.4</ele>
        <time>2022-12-29T13:41:51Z</time>
      </trkpt>
      <trkpt lat="44.99382" lon="6.1418">
        <ele>2150.4</ele>
        <time>2022-12-29T13:41:52Z</time>
      </trkpt>
      <trkpt lat="44.99383" lon="6.14181">
        <ele>2150.4</ele>
        <time>2022-12-29T13:41:53Z</time>
      </trkpt>
      <trkpt lat="44.99383" lon="6.14182">
        <ele>2150.4</ele>
        <time>2022-12-29T13:41:54Z</time>
      </trkpt>
      <trkpt lat="44.99383" lon="6.14182">
        <ele>2150.4</ele>
        <time>2022-12-29T13:41:55Z</time>
      </trkpt>
      <trkpt lat="44.99383" lon="6.14183">
        <ele>2151.6</ele>
        <time>2022-12-29T13:41:56Z</time>
      </trkpt>
      <trkpt lat="44.99384" lon="6.14187">
        <ele>2151.6</ele>
        <time>2022-12-29T13:41:57Z</time>
      </trkpt>
      <trkpt lat="44.99383" lon="6.14188">
        <ele>2151.6</ele>
        <time>2022-12-29T13:41:58Z</time>
      </trkpt>
      <trkpt lat="44.99383" lon="6.14189">
        <ele>2151.6</ele>
        <time>2022-12-29T13:41:59Z</time>
      </trkpt>
      <trkpt lat="44.99383" lon="6.1419">
        <ele>2151.6</ele>
        <time>2022-12-29T13:42:00Z</time>
      </trkpt>
      <trkpt lat="44.99383" lon="6.14191">
        <ele>2151.6</ele>
        <time>2022-12-29T13:42:01Z</time>
      </trkpt>
      <trkpt lat="44.99383" lon="6.14192">
        <ele>2151.6</ele>
        <time>2022-12-29T13:42:02Z</time>
      </trkpt>
      <trkpt lat="44.99383" lon="6.14193">
        <ele>2151.6</ele>
        <time>2022-12-29T13:42:03Z</time>
      </trkpt>
      <trkpt lat="44.99382" lon="6.14193">
        <ele>2151.6</ele>
        <time>2022-12-29T13:42:04Z</time>
      </trkpt>
      <trkpt lat="44.99382" lon="6.14194">
        <ele>2151.6</ele>
        <time>2022-12-29T13:42:05Z</time>
      </trkpt>
      <trkpt lat="44.99382" lon="6.14195">
        <ele>2153</ele>
        <time>2022-12-29T13:42:06Z</time>
      </trkpt>
      <trkpt lat="44.99382" lon="6.14196">
        <ele>2153</ele>
        <time>2022-12-29T13:42:07Z</time>
      </trkpt>
      <trkpt lat="44.99382" lon="6.14197">
        <ele>2153</ele>
        <time>2022-12-29T13:42:08Z</time>
      </trkpt>
      <trkpt lat="44.99381" lon="6.14198">
        <ele>2153</ele>
        <time>2022-12-29T13:42:09Z</time>
      </trkpt>
      <trkpt lat="44.99381" lon="6.14199">
        <ele>2153</ele>
        <time>2022-12-29T13:42:10Z</time>
      </trkpt>
      <trkpt lat="44.99381" lon="6.142">
        <ele>2153</ele>
        <time>2022-12-29T13:42:11Z</time>
      </trkpt>
      <trkpt lat="44.99381" lon="6.14201">
        <ele>2153</ele>
        <time>2022-12-29T13:42:12Z</time>
      </trkpt>
      <trkpt lat="44.99381" lon="6.14202">
        <ele>2153</ele>
        <time>2022-12-29T13:42:13Z</time>
      </trkpt>
      <trkpt lat="44.9938" lon="6.14203">
        <ele>2153</ele>
        <time>2022-12-29T13:42:14Z</time>
      </trkpt>
      <trkpt lat="44.9938" lon="6.14204">
        <ele>2153</ele>
        <time>2022-12-29T13:42:15Z</time>
      </trkpt>
      <trkpt lat="44.9938" lon="6.14205">
        <ele>2154.8</ele>
        <time>2022-12-29T13:42:16Z</time>
      </trkpt>
      <trkpt lat="44.9938" lon="6.14206">
        <ele>2154.8</ele>
        <time>2022-12-29T13:42:17Z</time>
      </trkpt>
      <trkpt lat="44.99379" lon="6.14207">
        <ele>2154.8</ele>
        <time>2022-12-29T13:42:18Z</time>
      </trkpt>
      <trkpt lat="44.99379" lon="6.14208">
        <ele>2154.8</ele>
        <time>2022-12-29T13:42:19Z</time>
      </trkpt>
      <trkpt lat="44.99379" lon="6.14209">
        <ele>2154.8</ele>
        <time>2022-12-29T13:42:20Z</time>
      </trkpt>
      <trkpt lat="44.99378" lon="6.1421">
        <ele>2154.8</ele>
        <time>2022-12-29T13:42:21Z</time>
      </trkpt>
      <trkpt lat="44.99378" lon="6.14212">
        <ele>2154.8</ele>
        <time>2022-12-29T13:42:22Z</time>
      </trkpt>
      <trkpt lat="44.99378" lon="6.14213">
        <ele>2154.8</ele>
        <time>2022-12-29T13:42:23Z</time>
      </trkpt>
      <trkpt lat="44.99377" lon="6.14214">
        <ele>2154.8</ele>
        <time>2022-12-29T13:42:24Z</time>
      </trkpt>
      <trkpt lat="44.99377" lon="6.14215">
        <ele>2154.8</ele>
        <time>2022-12-29T13:42:25Z</time>
      </trkpt>
      <trkpt lat="44.99377" lon="6.14216">
        <ele>2156.4</ele>
        <time>2022-12-29T13:42:26Z</time>
      </trkpt>
      <trkpt lat="44.99376" lon="6.14217">
        <ele>2156.4</ele>
        <time>2022-12-29T13:42:27Z</time>
      </trkpt>
      <trkpt lat="44.99376" lon="6.14218">
        <ele>2156.4</ele>
        <time>2022-12-29T13:42:28Z</time>
      </trkpt>
      <trkpt lat="44.99375" lon="6.14218">
        <ele>2156.4</ele>
        <time>2022-12-29T13:42:29Z</time>
      </trkpt>
      <trkpt lat="44.99375" lon="6.14219">
        <ele>2156.4</ele>
        <time>2022-12-29T13:42:30Z</time>
      </trkpt>
      <trkpt lat="44.99375" lon="6.1422">
        <ele>2156.4</ele>
        <time>2022-12-29T13:42:31Z</time>
      </trkpt>
      <trkpt lat="44.99374" lon="6.14221">
        <ele>2156.4</ele>
        <time>2022-12-29T13:42:32Z</time>
      </trkpt>
      <trkpt lat="44.99374" lon="6.14221">
        <ele>2156.4</ele>
        <time>2022-12-29T13:42:33Z</time>
      </trkpt>
      <trkpt lat="44.99373" lon="6.14222">
        <ele>2156.4</ele>
        <time>2022-12-29T13:42:34Z</time>
      </trkpt>
      <trkpt lat="44.99373" lon="6.14223">
        <ele>2156.4</ele>
        <time>2022-12-29T13:42:35Z</time>
      </trkpt>
      <trkpt lat="44.99373" lon="6.14223">
        <ele>2157.6</ele>
        <time>2022-12-29T13:42:36Z</time>
      </trkpt>
      <trkpt lat="44.99371" lon="6.14228">
        <ele>2157.6</ele>
        <time>2022-12-29T13:42:37Z</time>
      </trkpt>
      <trkpt lat="44.99371" lon="6.14229">
        <ele>2157.6</ele>
        <time>2022-12-29T13:42:38Z</time>
      </trkpt>
      <trkpt lat="44.9937" lon="6.1423">
        <ele>2157.6</ele>
        <time>2022-12-29T13:42:39Z</time>
      </trkpt>
      <trkpt lat="44.9937" lon="6.1423">
        <ele>2157.6</ele>
        <time>2022-12-29T13:42:40Z</time>
      </trkpt>
      <trkpt lat="44.9937" lon="6.14231">
        <ele>2157.6</ele>
        <time>2022-12-29T13:42:41Z</time>
      </trkpt>
      <trkpt lat="44.99369" lon="6.14232">
        <ele>2157.6</ele>
        <time>2022-12-29T13:42:42Z</time>
      </trkpt>
      <trkpt lat="44.99369" lon="6.14233">
        <ele>2157.6</ele>
        <time>2022-12-29T13:42:43Z</time>
      </trkpt>
      <trkpt lat="44.99369" lon="6.14233">
        <ele>2157.6</ele>
        <time>2022-12-29T13:42:44Z</time>
      </trkpt>
      <trkpt lat="44.99368" lon="6.14234">
        <ele>2157.6</ele>
        <time>2022-12-29T13:42:45Z</time>
      </trkpt>
      <trkpt lat="44.99368" lon="6.14235">
        <ele>2159.4</ele>
        <time>2022-12-29T13:42:46Z</time>
      </trkpt>
      <trkpt lat="44.99368" lon="6.14236">
        <ele>2159.4</ele>
        <time>2022-12-29T13:42:47Z</time>
      </trkpt>
      <trkpt lat="44.99367" lon="6.14236">
        <ele>2159.4</ele>
        <time>2022-12-29T13:42:48Z</time>
      </trkpt>
      <trkpt lat="44.99367" lon="6.14237">
        <ele>2159.4</ele>
        <time>2022-12-29T13:42:49Z</time>
      </trkpt>
      <trkpt lat="44.99366" lon="6.14238">
        <ele>2159.4</ele>
        <time>2022-12-29T13:42:50Z</time>
      </trkpt>
      <trkpt lat="44.99366" lon="6.14238">
        <ele>2159.4</ele>
        <time>2022-12-29T13:42:51Z</time>
      </trkpt>
      <trkpt lat="44.99366" lon="6.14239">
        <ele>2159.4</ele>
        <time>2022-12-29T13:42:52Z</time>
      </trkpt>
      <trkpt lat="44.99365" lon="6.1424">
        <ele>2159.4</ele>
        <time>2022-12-29T13:42:53Z</time>
      </trkpt>
      <trkpt lat="44.99365" lon="6.14241">
        <ele>2159.4</ele>
        <time>2022-12-29T13:42:54Z</time>
      </trkpt>
      <trkpt lat="44.99364" lon="6.14241">
        <ele>2159.4</ele>
        <time>2022-12-29T13:42:55Z</time>
      </trkpt>
      <trkpt lat="44.99364" lon="6.14242">
        <ele>2160.6</ele>
        <time>2022-12-29T13:42:56Z</time>
      </trkpt>
      <trkpt lat="44.99363" lon="6.14243">
        <ele>2160.6</ele>
        <time>2022-12-29T13:42:57Z</time>
      </trkpt>
      <trkpt lat="44.99363" lon="6.14243">
        <ele>2160.6</ele>
        <time>2022-12-29T13:42:58Z</time>
      </trkpt>
      <trkpt lat="44.99363" lon="6.14244">
        <ele>2160.6</ele>
        <time>2022-12-29T13:42:59Z</time>
      </trkpt>
      <trkpt lat="44.99362" lon="6.14245">
        <ele>2160.6</ele>
        <time>2022-12-29T13:43:00Z</time>
      </trkpt>
      <trkpt lat="44.99362" lon="6.14245">
        <ele>2160.6</ele>
        <time>2022-12-29T13:43:01Z</time>
      </trkpt>
      <trkpt lat="44.99361" lon="6.14246">
        <ele>2160.6</ele>
        <time>2022-12-29T13:43:02Z</time>
      </trkpt>
      <trkpt lat="44.99361" lon="6.14247">
        <ele>2160.6</ele>
        <time>2022-12-29T13:43:03Z</time>
      </trkpt>
      <trkpt lat="44.9936" lon="6.14248">
        <ele>2160.6</ele>
        <time>2022-12-29T13:43:04Z</time>
      </trkpt>
      <trkpt lat="44.9936" lon="6.14248">
        <ele>2160.6</ele>
        <time>2022-12-29T13:43:05Z</time>
      </trkpt>
      <trkpt lat="44.99359" lon="6.14249">
        <ele>2163</ele>
        <time>2022-12-29T13:43:06Z</time>
      </trkpt>
      <trkpt lat="44.99359" lon="6.1425">
        <ele>2163</ele>
        <time>2022-12-29T13:43:07Z</time>
      </trkpt>
      <trkpt lat="44.99359" lon="6.14251">
        <ele>2163</ele>
        <time>2022-12-29T13:43:08Z</time>
      </trkpt>
      <trkpt lat="44.99359" lon="6.14252">
        <ele>2163</ele>
        <time>2022-12-29T13:43:09Z</time>
      </trkpt>
      <trkpt lat="44.99359" lon="6.14253">
        <ele>2163</ele>
        <time>2022-12-29T13:43:10Z</time>
      </trkpt>
      <trkpt lat="44.99358" lon="6.14254">
        <ele>2163</ele>
        <time>2022-12-29T13:43:11Z</time>
      </trkpt>
      <trkpt lat="44.99358" lon="6.14254">
        <ele>2163</ele>
        <time>2022-12-29T13:43:12Z</time>
      </trkpt>
      <trkpt lat="44.99358" lon="6.14255">
        <ele>2163</ele>
        <time>2022-12-29T13:43:13Z</time>
      </trkpt>
      <trkpt lat="44.99358" lon="6.14256">
        <ele>2163</ele>
        <time>2022-12-29T13:43:14Z</time>
      </trkpt>
      <trkpt lat="44.99357" lon="6.14257">
        <ele>2163</ele>
        <time>2022-12-29T13:43:15Z</time>
      </trkpt>
      <trkpt lat="44.99357" lon="6.14258">
        <ele>2164.8</ele>
        <time>2022-12-29T13:43:16Z</time>
      </trkpt>
      <trkpt lat="44.99357" lon="6.14259">
        <ele>2164.8</ele>
        <time>2022-12-29T13:43:17Z</time>
      </trkpt>
      <trkpt lat="44.99357" lon="6.1426">
        <ele>2164.8</ele>
        <time>2022-12-29T13:43:18Z</time>
      </trkpt>
      <trkpt lat="44.99356" lon="6.1426">
        <ele>2164.8</ele>
        <time>2022-12-29T13:43:19Z</time>
      </trkpt>
      <trkpt lat="44.99356" lon="6.14261">
        <ele>2164.8</ele>
        <time>2022-12-29T13:43:20Z</time>
      </trkpt>
      <trkpt lat="44.99356" lon="6.14262">
        <ele>2164.8</ele>
        <time>2022-12-29T13:43:21Z</time>
      </trkpt>
      <trkpt lat="44.99355" lon="6.14262">
        <ele>2164.8</ele>
        <time>2022-12-29T13:43:22Z</time>
      </trkpt>
      <trkpt lat="44.99355" lon="6.14263">
        <ele>2164.8</ele>
        <time>2022-12-29T13:43:23Z</time>
      </trkpt>
      <trkpt lat="44.99355" lon="6.14264">
        <ele>2164.8</ele>
        <time>2022-12-29T13:43:24Z</time>
      </trkpt>
      <trkpt lat="44.99355" lon="6.14265">
        <ele>2164.8</ele>
        <time>2022-12-29T13:43:25Z</time>
      </trkpt>
      <trkpt lat="44.99354" lon="6.14265">
        <ele>2166</ele>
        <time>2022-12-29T13:43:26Z</time>
      </trkpt>
      <trkpt lat="44.99354" lon="6.14266">
        <ele>2166</ele>
        <time>2022-12-29T13:43:27Z</time>
      </trkpt>
      <trkpt lat="44.99354" lon="6.14267">
        <ele>2166</ele>
        <time>2022-12-29T13:43:28Z</time>
      </trkpt>
      <trkpt lat="44.99354" lon="6.14268">
        <ele>2166</ele>
        <time>2022-12-29T13:43:29Z</time>
      </trkpt>
      <trkpt lat="44.99353" lon="6.14268">
        <ele>2166</ele>
        <time>2022-12-29T13:43:30Z</time>
      </trkpt>
      <trkpt lat="44.99353" lon="6.14269">
        <ele>2166</ele>
        <time>2022-12-29T13:43:31Z</time>
      </trkpt>
      <trkpt lat="44.99353" lon="6.1427">
        <ele>2166</ele>
        <time>2022-12-29T13:43:32Z</time>
      </trkpt>
      <trkpt lat="44.99353" lon="6.14271">
        <ele>2166</ele>
        <time>2022-12-29T13:43:33Z</time>
      </trkpt>
      <trkpt lat="44.99353" lon="6.14271">
        <ele>2166</ele>
        <time>2022-12-29T13:43:34Z</time>
      </trkpt>
      <trkpt lat="44.99352" lon="6.14272">
        <ele>2166</ele>
        <time>2022-12-29T13:43:35Z</time>
      </trkpt>
      <trkpt lat="44.99352" lon="6.14273">
        <ele>2168</ele>
        <time>2022-12-29T13:43:36Z</time>
      </trkpt>
      <trkpt lat="44.99351" lon="6.14276">
        <ele>2168</ele>
        <time>2022-12-29T13:43:37Z</time>
      </trkpt>
      <trkpt lat="44.99351" lon="6.14277">
        <ele>2168</ele>
        <time>2022-12-29T13:43:38Z</time>
      </trkpt>
      <trkpt lat="44.99351" lon="6.14277">
        <ele>2168</ele>
        <time>2022-12-29T13:43:39Z</time>
      </trkpt>
      <trkpt lat="44.99351" lon="6.14278">
        <ele>2168</ele>
        <time>2022-12-29T13:43:40Z</time>
      </trkpt>
      <trkpt lat="44.99351" lon="6.14279">
        <ele>2168</ele>
        <time>2022-12-29T13:43:41Z</time>
      </trkpt>
      <trkpt lat="44.99351" lon="6.14279">
        <ele>2168</ele>
        <time>2022-12-29T13:43:42Z</time>
      </trkpt>
      <trkpt lat="44.99351" lon="6.1428">
        <ele>2168</ele>
        <time>2022-12-29T13:43:43Z</time>
      </trkpt>
      <trkpt lat="44.9935" lon="6.1428">
        <ele>2168</ele>
        <time>2022-12-29T13:43:44Z</time>
      </trkpt>
      <trkpt lat="44.9935" lon="6.14281">
        <ele>2168</ele>
        <time>2022-12-29T13:43:45Z</time>
      </trkpt>
      <trkpt lat="44.9935" lon="6.14281">
        <ele>2169.2</ele>
        <time>2022-12-29T13:43:46Z</time>
      </trkpt>
      <trkpt lat="44.99349" lon="6.14285">
        <ele>2169.2</ele>
        <time>2022-12-29T13:43:47Z</time>
      </trkpt>
      <trkpt lat="44.99349" lon="6.14285">
        <ele>2169.2</ele>
        <time>2022-12-29T13:43:48Z</time>
      </trkpt>
      <trkpt lat="44.99348" lon="6.14286">
        <ele>2169.2</ele>
        <time>2022-12-29T13:43:49Z</time>
      </trkpt>
      <trkpt lat="44.99348" lon="6.14286">
        <ele>2169.2</ele>
        <time>2022-12-29T13:43:50Z</time>
      </trkpt>
      <trkpt lat="44.99348" lon="6.14287">
        <ele>2169.2</ele>
        <time>2022-12-29T13:43:51Z</time>
      </trkpt>
      <trkpt lat="44.99348" lon="6.14287">
        <ele>2169.2</ele>
        <time>2022-12-29T13:43:52Z</time>
      </trkpt>
      <trkpt lat="44.99347" lon="6.14288">
        <ele>2169.2</ele>
        <time>2022-12-29T13:43:53Z</time>
      </trkpt>
      <trkpt lat="44.99347" lon="6.14288">
        <ele>2169.2</ele>
        <time>2022-12-29T13:43:54Z</time>
      </trkpt>
      <trkpt lat="44.99347" lon="6.14289">
        <ele>2169.2</ele>
        <time>2022-12-29T13:43:55Z</time>
      </trkpt>
      <trkpt lat="44.99347" lon="6.1429">
        <ele>2171</ele>
        <time>2022-12-29T13:43:56Z</time>
      </trkpt>
      <trkpt lat="44.99346" lon="6.14294">
        <ele>2171</ele>
        <time>2022-12-29T13:43:57Z</time>
      </trkpt>
      <trkpt lat="44.99345" lon="6.14294">
        <ele>2171</ele>
        <time>2022-12-29T13:43:58Z</time>
      </trkpt>
      <trkpt lat="44.99345" lon="6.14295">
        <ele>2171</ele>
        <time>2022-12-29T13:43:59Z</time>
      </trkpt>
      <trkpt lat="44.99345" lon="6.14296">
        <ele>2171</ele>
        <time>2022-12-29T13:44:00Z</time>
      </trkpt>
      <trkpt lat="44.99345" lon="6.14297">
        <ele>2171</ele>
        <time>2022-12-29T13:44:01Z</time>
      </trkpt>
      <trkpt lat="44.99344" lon="6.14298">
        <ele>2171</ele>
        <time>2022-12-29T13:44:02Z</time>
      </trkpt>
      <trkpt lat="44.99344" lon="6.14298">
        <ele>2171</ele>
        <time>2022-12-29T13:44:03Z</time>
      </trkpt>
      <trkpt lat="44.99344" lon="6.14299">
        <ele>2171</ele>
        <time>2022-12-29T13:44:04Z</time>
      </trkpt>
      <trkpt lat="44.99343" lon="6.143">
        <ele>2171</ele>
        <time>2022-12-29T13:44:05Z</time>
      </trkpt>
      <trkpt lat="44.99343" lon="6.14301">
        <ele>2172.2</ele>
        <time>2022-12-29T13:44:06Z</time>
      </trkpt>
      <trkpt lat="44.99343" lon="6.14302">
        <ele>2172.2</ele>
        <time>2022-12-29T13:44:07Z</time>
      </trkpt>
      <trkpt lat="44.99343" lon="6.14303">
        <ele>2172.2</ele>
        <time>2022-12-29T13:44:08Z</time>
      </trkpt>
      <trkpt lat="44.99343" lon="6.14303">
        <ele>2172.2</ele>
        <time>2022-12-29T13:44:09Z</time>
      </trkpt>
      <trkpt lat="44.99342" lon="6.14304">
        <ele>2172.2</ele>
        <time>2022-12-29T13:44:10Z</time>
      </trkpt>
      <trkpt lat="44.99342" lon="6.14305">
        <ele>2172.2</ele>
        <time>2022-12-29T13:44:11Z</time>
      </trkpt>
      <trkpt lat="44.99342" lon="6.14306">
        <ele>2172.2</ele>
        <time>2022-12-29T13:44:12Z</time>
      </trkpt>
      <trkpt lat="44.99342" lon="6.14307">
        <ele>2172.2</ele>
        <time>2022-12-29T13:44:13Z</time>
      </trkpt>
      <trkpt lat="44.99342" lon="6.14308">
        <ele>2172.2</ele>
        <time>2022-12-29T13:44:14Z</time>
      </trkpt>
      <trkpt lat="44.99342" lon="6.14308">
        <ele>2172.2</ele>
        <time>2022-12-29T13:44:15Z</time>
      </trkpt>
      <trkpt lat="44.99341" lon="6.14309">
        <ele>2173.8</ele>
        <time>2022-12-29T13:44:16Z</time>
      </trkpt>
      <trkpt lat="44.99341" lon="6.1431">
        <ele>2173.8</ele>
        <time>2022-12-29T13:44:17Z</time>
      </trkpt>
      <trkpt lat="44.99341" lon="6.14311">
        <ele>2173.8</ele>
        <time>2022-12-29T13:44:18Z</time>
      </trkpt>
      <trkpt lat="44.99341" lon="6.14312">
        <ele>2173.8</ele>
        <time>2022-12-29T13:44:19Z</time>
      </trkpt>
      <trkpt lat="44.99341" lon="6.14313">
        <ele>2173.8</ele>
        <time>2022-12-29T13:44:20Z</time>
      </trkpt>
      <trkpt lat="44.99341" lon="6.14314">
        <ele>2173.8</ele>
        <time>2022-12-29T13:44:21Z</time>
      </trkpt>
      <trkpt lat="44.99341" lon="6.14315">
        <ele>2173.8</ele>
        <time>2022-12-29T13:44:22Z</time>
      </trkpt>
      <trkpt lat="44.99341" lon="6.14316">
        <ele>2173.8</ele>
        <time>2022-12-29T13:44:23Z</time>
      </trkpt>
      <trkpt lat="44.9934" lon="6.14317">
        <ele>2173.8</ele>
        <time>2022-12-29T13:44:24Z</time>
      </trkpt>
      <trkpt lat="44.9934" lon="6.14317">
        <ele>2173.8</ele>
        <time>2022-12-29T13:44:25Z</time>
      </trkpt>
      <trkpt lat="44.9934" lon="6.14318">
        <ele>2175</ele>
        <time>2022-12-29T13:44:26Z</time>
      </trkpt>
      <trkpt lat="44.9934" lon="6.14322">
        <ele>2175</ele>
        <time>2022-12-29T13:44:27Z</time>
      </trkpt>
      <trkpt lat="44.9934" lon="6.14323">
        <ele>2175</ele>
        <time>2022-12-29T13:44:28Z</time>
      </trkpt>
      <trkpt lat="44.9934" lon="6.14324">
        <ele>2175</ele>
        <time>2022-12-29T13:44:29Z</time>
      </trkpt>
      <trkpt lat="44.9934" lon="6.14325">
        <ele>2175</ele>
        <time>2022-12-29T13:44:30Z</time>
      </trkpt>
      <trkpt lat="44.99339" lon="6.14326">
        <ele>2175</ele>
        <time>2022-12-29T13:44:31Z</time>
      </trkpt>
      <trkpt lat="44.99339" lon="6.14327">
        <ele>2175</ele>
        <time>2022-12-29T13:44:32Z</time>
      </trkpt>
      <trkpt lat="44.99339" lon="6.14328">
        <ele>2175</ele>
        <time>2022-12-29T13:44:33Z</time>
      </trkpt>
      <trkpt lat="44.99339" lon="6.14329">
        <ele>2175</ele>
        <time>2022-12-29T13:44:34Z</time>
      </trkpt>
      <trkpt lat="44.99339" lon="6.1433">
        <ele>2175</ele>
        <time>2022-12-29T13:44:35Z</time>
      </trkpt>
      <trkpt lat="44.99339" lon="6.14331">
        <ele>2176</ele>
        <time>2022-12-29T13:44:36Z</time>
      </trkpt>
      <trkpt lat="44.99338" lon="6.14332">
        <ele>2176</ele>
        <time>2022-12-29T13:44:37Z</time>
      </trkpt>
      <trkpt lat="44.99338" lon="6.14333">
        <ele>2176</ele>
        <time>2022-12-29T13:44:38Z</time>
      </trkpt>
      <trkpt lat="44.99338" lon="6.14333">
        <ele>2176</ele>
        <time>2022-12-29T13:44:39Z</time>
      </trkpt>
      <trkpt lat="44.99337" lon="6.14334">
        <ele>2176</ele>
        <time>2022-12-29T13:44:40Z</time>
      </trkpt>
      <trkpt lat="44.99337" lon="6.14335">
        <ele>2176</ele>
        <time>2022-12-29T13:44:41Z</time>
      </trkpt>
      <trkpt lat="44.99337" lon="6.14336">
        <ele>2176</ele>
        <time>2022-12-29T13:44:42Z</time>
      </trkpt>
      <trkpt lat="44.99336" lon="6.14337">
        <ele>2176</ele>
        <time>2022-12-29T13:44:43Z</time>
      </trkpt>
      <trkpt lat="44.99336" lon="6.14337">
        <ele>2176</ele>
        <time>2022-12-29T13:44:44Z</time>
      </trkpt>
      <trkpt lat="44.99336" lon="6.14338">
        <ele>2176</ele>
        <time>2022-12-29T13:44:45Z</time>
      </trkpt>
      <trkpt lat="44.99335" lon="6.14339">
        <ele>2177.2</ele>
        <time>2022-12-29T13:44:46Z</time>
      </trkpt>
      <trkpt lat="44.99335" lon="6.1434">
        <ele>2177.2</ele>
        <time>2022-12-29T13:44:47Z</time>
      </trkpt>
      <trkpt lat="44.99335" lon="6.14341">
        <ele>2177.2</ele>
        <time>2022-12-29T13:44:48Z</time>
      </trkpt>
      <trkpt lat="44.99335" lon="6.14341">
        <ele>2177.2</ele>
        <time>2022-12-29T13:44:49Z</time>
      </trkpt>
      <trkpt lat="44.99335" lon="6.14342">
        <ele>2177.2</ele>
        <time>2022-12-29T13:44:50Z</time>
      </trkpt>
      <trkpt lat="44.99334" lon="6.14343">
        <ele>2177.2</ele>
        <time>2022-12-29T13:44:51Z</time>
      </trkpt>
      <trkpt lat="44.99334" lon="6.14344">
        <ele>2177.2</ele>
        <time>2022-12-29T13:44:52Z</time>
      </trkpt>
      <trkpt lat="44.99334" lon="6.14345">
        <ele>2177.2</ele>
        <time>2022-12-29T13:44:53Z</time>
      </trkpt>
      <trkpt lat="44.99334" lon="6.14345">
        <ele>2177.2</ele>
        <time>2022-12-29T13:44:54Z</time>
      </trkpt>
      <trkpt lat="44.99333" lon="6.14346">
        <ele>2177.2</ele>
        <time>2022-12-29T13:44:55Z</time>
      </trkpt>
      <trkpt lat="44.99333" lon="6.14347">
        <ele>2178.6</ele>
        <time>2022-12-29T13:44:56Z</time>
      </trkpt>
      <trkpt lat="44.99332" lon="6.1435">
        <ele>2178.6</ele>
        <time>2022-12-29T13:44:57Z</time>
      </trkpt>
      <trkpt lat="44.99332" lon="6.1435">
        <ele>2178.6</ele>
        <time>2022-12-29T13:44:58Z</time>
      </trkpt>
      <trkpt lat="44.99332" lon="6.14351">
        <ele>2178.6</ele>
        <time>2022-12-29T13:44:59Z</time>
      </trkpt>
      <trkpt lat="44.99332" lon="6.14352">
        <ele>2178.6</ele>
        <time>2022-12-29T13:45:00Z</time>
      </trkpt>
      <trkpt lat="44.99331" lon="6.14352">
        <ele>2178.6</ele>
        <time>2022-12-29T13:45:01Z</time>
      </trkpt>
      <trkpt lat="44.99331" lon="6.14353">
        <ele>2178.6</ele>
        <time>2022-12-29T13:45:02Z</time>
      </trkpt>
      <trkpt lat="44.99331" lon="6.14353">
        <ele>2178.6</ele>
        <time>2022-12-29T13:45:03Z</time>
      </trkpt>
      <trkpt lat="44.99331" lon="6.14354">
        <ele>2178.6</ele>
        <time>2022-12-29T13:45:04Z</time>
      </trkpt>
      <trkpt lat="44.99331" lon="6.14354">
        <ele>2178.6</ele>
        <time>2022-12-29T13:45:05Z</time>
      </trkpt>
      <trkpt lat="44.99331" lon="6.14355">
        <ele>2180.6</ele>
        <time>2022-12-29T13:45:06Z</time>
      </trkpt>
      <trkpt lat="44.99331" lon="6.14356">
        <ele>2180.6</ele>
        <time>2022-12-29T13:45:07Z</time>
      </trkpt>
      <trkpt lat="44.9933" lon="6.14357">
        <ele>2180.6</ele>
        <time>2022-12-29T13:45:08Z</time>
      </trkpt>
      <trkpt lat="44.9933" lon="6.14357">
        <ele>2180.6</ele>
        <time>2022-12-29T13:45:09Z</time>
      </trkpt>
      <trkpt lat="44.9933" lon="6.14358">
        <ele>2180.6</ele>
        <time>2022-12-29T13:45:10Z</time>
      </trkpt>
      <trkpt lat="44.9933" lon="6.14359">
        <ele>2180.6</ele>
        <time>2022-12-29T13:45:11Z</time>
      </trkpt>
      <trkpt lat="44.9933" lon="6.1436">
        <ele>2180.6</ele>
        <time>2022-12-29T13:45:12Z</time>
      </trkpt>
      <trkpt lat="44.9933" lon="6.14361">
        <ele>2180.6</ele>
        <time>2022-12-29T13:45:13Z</time>
      </trkpt>
      <trkpt lat="44.9933" lon="6.14362">
        <ele>2180.6</ele>
        <time>2022-12-29T13:45:14Z</time>
      </trkpt>
      <trkpt lat="44.9933" lon="6.14363">
        <ele>2180.6</ele>
        <time>2022-12-29T13:45:15Z</time>
      </trkpt>
      <trkpt lat="44.9933" lon="6.14364">
        <ele>2182.6</ele>
        <time>2022-12-29T13:45:16Z</time>
      </trkpt>
      <trkpt lat="44.99329" lon="6.14365">
        <ele>2182.6</ele>
        <time>2022-12-29T13:45:17Z</time>
      </trkpt>
      <trkpt lat="44.99329" lon="6.14365">
        <ele>2182.6</ele>
        <time>2022-12-29T13:45:18Z</time>
      </trkpt>
      <trkpt lat="44.99328" lon="6.14366">
        <ele>2182.6</ele>
        <time>2022-12-29T13:45:19Z</time>
      </trkpt>
      <trkpt lat="44.99328" lon="6.14367">
        <ele>2182.6</ele>
        <time>2022-12-29T13:45:20Z</time>
      </trkpt>
      <trkpt lat="44.99327" lon="6.14368">
        <ele>2182.6</ele>
        <time>2022-12-29T13:45:21Z</time>
      </trkpt>
      <trkpt lat="44.99327" lon="6.14369">
        <ele>2182.6</ele>
        <time>2022-12-29T13:45:22Z</time>
      </trkpt>
      <trkpt lat="44.99326" lon="6.14369">
        <ele>2182.6</ele>
        <time>2022-12-29T13:45:23Z</time>
      </trkpt>
      <trkpt lat="44.99326" lon="6.1437">
        <ele>2182.6</ele>
        <time>2022-12-29T13:45:24Z</time>
      </trkpt>
      <trkpt lat="44.99325" lon="6.14371">
        <ele>2182.6</ele>
        <time>2022-12-29T13:45:25Z</time>
      </trkpt>
      <trkpt lat="44.99325" lon="6.14372">
        <ele>2183.6</ele>
        <time>2022-12-29T13:45:26Z</time>
      </trkpt>
      <trkpt lat="44.99324" lon="6.14372">
        <ele>2183.6</ele>
        <time>2022-12-29T13:45:27Z</time>
      </trkpt>
      <trkpt lat="44.99324" lon="6.14372">
        <ele>2183.6</ele>
        <time>2022-12-29T13:45:28Z</time>
      </trkpt>
      <trkpt lat="44.99323" lon="6.14373">
        <ele>2183.6</ele>
        <time>2022-12-29T13:45:29Z</time>
      </trkpt>
      <trkpt lat="44.99323" lon="6.14373">
        <ele>2183.6</ele>
        <time>2022-12-29T13:45:30Z</time>
      </trkpt>
      <trkpt lat="44.99322" lon="6.14373">
        <ele>2183.6</ele>
        <time>2022-12-29T13:45:31Z</time>
      </trkpt>
      <trkpt lat="44.99322" lon="6.14374">
        <ele>2183.6</ele>
        <time>2022-12-29T13:45:32Z</time>
      </trkpt>
      <trkpt lat="44.99321" lon="6.14374">
        <ele>2183.6</ele>
        <time>2022-12-29T13:45:33Z</time>
      </trkpt>
      <trkpt lat="44.9932" lon="6.14375">
        <ele>2183.6</ele>
        <time>2022-12-29T13:45:34Z</time>
      </trkpt>
      <trkpt lat="44.9932" lon="6.14375">
        <ele>2183.6</ele>
        <time>2022-12-29T13:45:35Z</time>
      </trkpt>
      <trkpt lat="44.99319" lon="6.14375">
        <ele>2185</ele>
        <time>2022-12-29T13:45:36Z</time>
      </trkpt>
      <trkpt lat="44.99319" lon="6.14376">
        <ele>2185</ele>
        <time>2022-12-29T13:45:37Z</time>
      </trkpt>
      <trkpt lat="44.99318" lon="6.14376">
        <ele>2185</ele>
        <time>2022-12-29T13:45:38Z</time>
      </trkpt>
      <trkpt lat="44.99317" lon="6.14377">
        <ele>2185</ele>
        <time>2022-12-29T13:45:40Z</time>
      </trkpt>
      <trkpt lat="44.99317" lon="6.14377">
        <ele>2185</ele>
        <time>2022-12-29T13:45:41Z</time>
      </trkpt>
      <trkpt lat="44.99316" lon="6.14378">
        <ele>2185</ele>
        <time>2022-12-29T13:45:42Z</time>
      </trkpt>
      <trkpt lat="44.99316" lon="6.14379">
        <ele>2185</ele>
        <time>2022-12-29T13:45:43Z</time>
      </trkpt>
      <trkpt lat="44.99315" lon="6.14379">
        <ele>2185</ele>
        <time>2022-12-29T13:45:44Z</time>
      </trkpt>
      <trkpt lat="44.99314" lon="6.1438">
        <ele>2185</ele>
        <time>2022-12-29T13:45:45Z</time>
      </trkpt>
      <trkpt lat="44.99314" lon="6.1438">
        <ele>2187.2</ele>
        <time>2022-12-29T13:45:46Z</time>
      </trkpt>
      <trkpt lat="44.99313" lon="6.14381">
        <ele>2187.2</ele>
        <time>2022-12-29T13:45:47Z</time>
      </trkpt>
      <trkpt lat="44.99313" lon="6.14382">
        <ele>2187.2</ele>
        <time>2022-12-29T13:45:48Z</time>
      </trkpt>
      <trkpt lat="44.99313" lon="6.14382">
        <ele>2187.2</ele>
        <time>2022-12-29T13:45:49Z</time>
      </trkpt>
      <trkpt lat="44.99312" lon="6.14383">
        <ele>2187.2</ele>
        <time>2022-12-29T13:45:50Z</time>
      </trkpt>
      <trkpt lat="44.99312" lon="6.14384">
        <ele>2187.2</ele>
        <time>2022-12-29T13:45:51Z</time>
      </trkpt>
      <trkpt lat="44.99312" lon="6.14385">
        <ele>2187.2</ele>
        <time>2022-12-29T13:45:52Z</time>
      </trkpt>
      <trkpt lat="44.99311" lon="6.14385">
        <ele>2187.2</ele>
        <time>2022-12-29T13:45:53Z</time>
      </trkpt>
      <trkpt lat="44.99311" lon="6.14386">
        <ele>2187.2</ele>
        <time>2022-12-29T13:45:54Z</time>
      </trkpt>
      <trkpt lat="44.99311" lon="6.14387">
        <ele>2187.2</ele>
        <time>2022-12-29T13:45:55Z</time>
      </trkpt>
      <trkpt lat="44.9931" lon="6.14388">
        <ele>2189</ele>
        <time>2022-12-29T13:45:56Z</time>
      </trkpt>
      <trkpt lat="44.9931" lon="6.14388">
        <ele>2189</ele>
        <time>2022-12-29T13:45:57Z</time>
      </trkpt>
      <trkpt lat="44.9931" lon="6.14388">
        <ele>2189</ele>
        <time>2022-12-29T13:45:58Z</time>
      </trkpt>
      <trkpt lat="44.9931" lon="6.14388">
        <ele>2189</ele>
        <time>2022-12-29T13:45:59Z</time>
      </trkpt>
      <trkpt lat="44.99309" lon="6.1439">
        <ele>2189</ele>
        <time>2022-12-29T13:46:00Z</time>
      </trkpt>
      <trkpt lat="44.99309" lon="6.1439">
        <ele>2189</ele>
        <time>2022-12-29T13:46:01Z</time>
      </trkpt>
      <trkpt lat="44.99309" lon="6.1439">
        <ele>2189</ele>
        <time>2022-12-29T13:46:02Z</time>
      </trkpt>
      <trkpt lat="44.99309" lon="6.1439">
        <ele>2189</ele>
        <time>2022-12-29T13:46:03Z</time>
      </trkpt>
      <trkpt lat="44.9931" lon="6.14393">
        <ele>2189</ele>
        <time>2022-12-29T13:46:04Z</time>
      </trkpt>
      <trkpt lat="44.9931" lon="6.14393">
        <ele>2189</ele>
        <time>2022-12-29T13:46:05Z</time>
      </trkpt>
      <trkpt lat="44.9931" lon="6.14393">
        <ele>2190.6</ele>
        <time>2022-12-29T13:46:06Z</time>
      </trkpt>
      <trkpt lat="44.99311" lon="6.14393">
        <ele>2190.6</ele>
        <time>2022-12-29T13:46:07Z</time>
      </trkpt>
      <trkpt lat="44.99312" lon="6.14394">
        <ele>2190.6</ele>
        <time>2022-12-29T13:46:08Z</time>
      </trkpt>
      <trkpt lat="44.99312" lon="6.14394">
        <ele>2190.6</ele>
        <time>2022-12-29T13:46:09Z</time>
      </trkpt>
      <trkpt lat="44.99313" lon="6.14395">
        <ele>2190.6</ele>
        <time>2022-12-29T13:46:10Z</time>
      </trkpt>
      <trkpt lat="44.99313" lon="6.14395">
        <ele>2190.6</ele>
        <time>2022-12-29T13:46:11Z</time>
      </trkpt>
      <trkpt lat="44.99314" lon="6.14395">
        <ele>2190.6</ele>
        <time>2022-12-29T13:46:12Z</time>
      </trkpt>
      <trkpt lat="44.99314" lon="6.14396">
        <ele>2190.6</ele>
        <time>2022-12-29T13:46:13Z</time>
      </trkpt>
      <trkpt lat="44.99315" lon="6.14396">
        <ele>2190.6</ele>
        <time>2022-12-29T13:46:14Z</time>
      </trkpt>
      <trkpt lat="44.99316" lon="6.14397">
        <ele>2190.6</ele>
        <time>2022-12-29T13:46:15Z</time>
      </trkpt>
      <trkpt lat="44.99316" lon="6.14397">
        <ele>2192.2</ele>
        <time>2022-12-29T13:46:16Z</time>
      </trkpt>
      <trkpt lat="44.99319" lon="6.14399">
        <ele>2192.2</ele>
        <time>2022-12-29T13:46:17Z</time>
      </trkpt>
      <trkpt lat="44.99319" lon="6.14399">
        <ele>2192.2</ele>
        <time>2022-12-29T13:46:18Z</time>
      </trkpt>
      <trkpt lat="44.99319" lon="6.144">
        <ele>2192.2</ele>
        <time>2022-12-29T13:46:19Z</time>
      </trkpt>
      <trkpt lat="44.99319" lon="6.144">
        <ele>2192.2</ele>
        <time>2022-12-29T13:46:20Z</time>
      </trkpt>
      <trkpt lat="44.9932" lon="6.144">
        <ele>2192.2</ele>
        <time>2022-12-29T13:46:21Z</time>
      </trkpt>
      <trkpt lat="44.9932" lon="6.14401">
        <ele>2192.2</ele>
        <time>2022-12-29T13:46:22Z</time>
      </trkpt>
      <trkpt lat="44.9932" lon="6.14401">
        <ele>2192.2</ele>
        <time>2022-12-29T13:46:23Z</time>
      </trkpt>
      <trkpt lat="44.9932" lon="6.14401">
        <ele>2192.2</ele>
        <time>2022-12-29T13:46:24Z</time>
      </trkpt>
      <trkpt lat="44.99321" lon="6.14402">
        <ele>2192.2</ele>
        <time>2022-12-29T13:46:25Z</time>
      </trkpt>
      <trkpt lat="44.99321" lon="6.14402">
        <ele>2194</ele>
        <time>2022-12-29T13:46:26Z</time>
      </trkpt>
      <trkpt lat="44.99321" lon="6.14403">
        <ele>2194</ele>
        <time>2022-12-29T13:46:27Z</time>
      </trkpt>
      <trkpt lat="44.9932" lon="6.14403">
        <ele>2194</ele>
        <time>2022-12-29T13:46:28Z</time>
      </trkpt>
      <trkpt lat="44.9932" lon="6.14404">
        <ele>2194</ele>
        <time>2022-12-29T13:46:29Z</time>
      </trkpt>
      <trkpt lat="44.9932" lon="6.14404">
        <ele>2194</ele>
        <time>2022-12-29T13:46:30Z</time>
      </trkpt>
      <trkpt lat="44.9932" lon="6.14405">
        <ele>2194</ele>
        <time>2022-12-29T13:46:31Z</time>
      </trkpt>
      <trkpt lat="44.99319" lon="6.14405">
        <ele>2194</ele>
        <time>2022-12-29T13:46:32Z</time>
      </trkpt>
      <trkpt lat="44.99319" lon="6.14406">
        <ele>2194</ele>
        <time>2022-12-29T13:46:33Z</time>
      </trkpt>
      <trkpt lat="44.99319" lon="6.14406">
        <ele>2194</ele>
        <time>2022-12-29T13:46:34Z</time>
      </trkpt>
      <trkpt lat="44.99318" lon="6.14407">
        <ele>2194</ele>
        <time>2022-12-29T13:46:35Z</time>
      </trkpt>
      <trkpt lat="44.99318" lon="6.14407">
        <ele>2196.2</ele>
        <time>2022-12-29T13:46:36Z</time>
      </trkpt>
      <trkpt lat="44.99317" lon="6.14409">
        <ele>2196.2</ele>
        <time>2022-12-29T13:46:37Z</time>
      </trkpt>
      <trkpt lat="44.99317" lon="6.14409">
        <ele>2196.2</ele>
        <time>2022-12-29T13:46:38Z</time>
      </trkpt>
      <trkpt lat="44.99317" lon="6.14409">
        <ele>2196.2</ele>
        <time>2022-12-29T13:46:39Z</time>
      </trkpt>
      <trkpt lat="44.99317" lon="6.14409">
        <ele>2196.2</ele>
        <time>2022-12-29T13:46:40Z</time>
      </trkpt>
      <trkpt lat="44.99317" lon="6.14409">
        <ele>2196.2</ele>
        <time>2022-12-29T13:46:41Z</time>
      </trkpt>
      <trkpt lat="44.99317" lon="6.14409">
        <ele>2196.2</ele>
        <time>2022-12-29T13:46:42Z</time>
      </trkpt>
      <trkpt lat="44.99317" lon="6.14409">
        <ele>2196.2</ele>
        <time>2022-12-29T13:46:43Z</time>
      </trkpt>
      <trkpt lat="44.99317" lon="6.14409">
        <ele>2196.2</ele>
        <time>2022-12-29T13:46:44Z</time>
      </trkpt>
      <trkpt lat="44.99317" lon="6.14409">
        <ele>2196.2</ele>
        <time>2022-12-29T13:46:45Z</time>
      </trkpt>
      <trkpt lat="44.99317" lon="6.14409">
        <ele>2197.6</ele>
        <time>2022-12-29T13:46:46Z</time>
      </trkpt>
      <trkpt lat="44.99317" lon="6.14409">
        <ele>2197.6</ele>
        <time>2022-12-29T13:46:47Z</time>
      </trkpt>
      <trkpt lat="44.99317" lon="6.14409">
        <ele>2197.6</ele>
        <time>2022-12-29T13:46:48Z</time>
      </trkpt>
      <trkpt lat="44.99317" lon="6.14409">
        <ele>2197.6</ele>
        <time>2022-12-29T13:46:49Z</time>
      </trkpt>
      <trkpt lat="44.99317" lon="6.14409">
        <ele>2197.6</ele>
        <time>2022-12-29T13:46:50Z</time>
      </trkpt>
      <trkpt lat="44.99317" lon="6.1441">
        <ele>2197.6</ele>
        <time>2022-12-29T13:46:51Z</time>
      </trkpt>
      <trkpt lat="44.99317" lon="6.1441">
        <ele>2197.6</ele>
        <time>2022-12-29T13:46:52Z</time>
      </trkpt>
      <trkpt lat="44.99317" lon="6.1441">
        <ele>2197.6</ele>
        <time>2022-12-29T13:46:53Z</time>
      </trkpt>
      <trkpt lat="44.99317" lon="6.1441">
        <ele>2197.6</ele>
        <time>2022-12-29T13:46:54Z</time>
      </trkpt>
      <trkpt lat="44.99317" lon="6.1441">
        <ele>2197.6</ele>
        <time>2022-12-29T13:46:55Z</time>
      </trkpt>
      <trkpt lat="44.99316" lon="6.1441">
        <ele>2196.2</ele>
        <time>2022-12-29T13:46:56Z</time>
      </trkpt>
      <trkpt lat="44.99316" lon="6.1441">
        <ele>2196.2</ele>
        <time>2022-12-29T13:46:57Z</time>
      </trkpt>
      <trkpt lat="44.99316" lon="6.1441">
        <ele>2196.2</ele>
        <time>2022-12-29T13:46:58Z</time>
      </trkpt>
      <trkpt lat="44.99316" lon="6.1441">
        <ele>2196.2</ele>
        <time>2022-12-29T13:46:59Z</time>
      </trkpt>
      <trkpt lat="44.99316" lon="6.1441">
        <ele>2196.2</ele>
        <time>2022-12-29T13:47:00Z</time>
      </trkpt>
      <trkpt lat="44.99316" lon="6.14411">
        <ele>2196.2</ele>
        <time>2022-12-29T13:47:01Z</time>
      </trkpt>
      <trkpt lat="44.99316" lon="6.14411">
        <ele>2196.2</ele>
        <time>2022-12-29T13:47:02Z</time>
      </trkpt>
      <trkpt lat="44.99316" lon="6.14411">
        <ele>2196.2</ele>
        <time>2022-12-29T13:47:03Z</time>
      </trkpt>
      <trkpt lat="44.99316" lon="6.14411">
        <ele>2196.2</ele>
        <time>2022-12-29T13:47:04Z</time>
      </trkpt>
      <trkpt lat="44.99316" lon="6.14411">
        <ele>2196.2</ele>
        <time>2022-12-29T13:47:05Z</time>
      </trkpt>
      <trkpt lat="44.99316" lon="6.14411">
        <ele>2196.2</ele>
        <time>2022-12-29T13:47:06Z</time>
      </trkpt>
      <trkpt lat="44.99316" lon="6.14411">
        <ele>2196.2</ele>
        <time>2022-12-29T13:47:07Z</time>
      </trkpt>
      <trkpt lat="44.99316" lon="6.14411">
        <ele>2196.2</ele>
        <time>2022-12-29T13:47:08Z</time>
      </trkpt>
      <trkpt lat="44.99316" lon="6.14411">
        <ele>2196.2</ele>
        <time>2022-12-29T13:47:09Z</time>
      </trkpt>
      <trkpt lat="44.99316" lon="6.14412">
        <ele>2196.2</ele>
        <time>2022-12-29T13:47:10Z</time>
      </trkpt>
      <trkpt lat="44.99316" lon="6.14412">
        <ele>2196.2</ele>
        <time>2022-12-29T13:47:11Z</time>
      </trkpt>
      <trkpt lat="44.99316" lon="6.14412">
        <ele>2196.2</ele>
        <time>2022-12-29T13:47:12Z</time>
      </trkpt>
      <trkpt lat="44.99316" lon="6.14412">
        <ele>2196.2</ele>
        <time>2022-12-29T13:47:13Z</time>
      </trkpt>
      <trkpt lat="44.99316" lon="6.14412">
        <ele>2196.2</ele>
        <time>2022-12-29T13:47:14Z</time>
      </trkpt>
      <trkpt lat="44.99316" lon="6.14412">
        <ele>2196.2</ele>
        <time>2022-12-29T13:47:15Z</time>
      </trkpt>
      <trkpt lat="44.99316" lon="6.14412">
        <ele>2196.2</ele>
        <time>2022-12-29T13:47:16Z</time>
      </trkpt>
      <trkpt lat="44.99316" lon="6.14412">
        <ele>2196.2</ele>
        <time>2022-12-29T13:47:17Z</time>
      </trkpt>
      <trkpt lat="44.99316" lon="6.14412">
        <ele>2196.2</ele>
        <time>2022-12-29T13:47:18Z</time>
      </trkpt>
      <trkpt lat="44.99316" lon="6.14412">
        <ele>2196.2</ele>
        <time>2022-12-29T13:47:19Z</time>
      </trkpt>
      <trkpt lat="44.99316" lon="6.14413">
        <ele>2196.2</ele>
        <time>2022-12-29T13:47:20Z</time>
      </trkpt>
      <trkpt lat="44.99316" lon="6.14413">
        <ele>2196.2</ele>
        <time>2022-12-29T13:47:21Z</time>
      </trkpt>
      <trkpt lat="44.99315" lon="6.14413">
        <ele>2196.2</ele>
        <time>2022-12-29T13:47:22Z</time>
      </trkpt>
      <trkpt lat="44.99315" lon="6.14413">
        <ele>2196.2</ele>
        <time>2022-12-29T13:47:23Z</time>
      </trkpt>
      <trkpt lat="44.99315" lon="6.14413">
        <ele>2196.2</ele>
        <time>2022-12-29T13:47:24Z</time>
      </trkpt>
      <trkpt lat="44.99315" lon="6.14413">
        <ele>2196.2</ele>
        <time>2022-12-29T13:47:25Z</time>
      </trkpt>
      <trkpt lat="44.99315" lon="6.14413">
        <ele>2196.6</ele>
        <time>2022-12-29T13:47:26Z</time>
      </trkpt>
      <trkpt lat="44.99315" lon="6.14413">
        <ele>2196.6</ele>
        <time>2022-12-29T13:47:27Z</time>
      </trkpt>
      <trkpt lat="44.99315" lon="6.14413">
        <ele>2196.6</ele>
        <time>2022-12-29T13:47:28Z</time>
      </trkpt>
      <trkpt lat="44.99315" lon="6.14413">
        <ele>2196.6</ele>
        <time>2022-12-29T13:47:29Z</time>
      </trkpt>
      <trkpt lat="44.99315" lon="6.14414">
        <ele>2196.6</ele>
        <time>2022-12-29T13:47:30Z</time>
      </trkpt>
      <trkpt lat="44.99315" lon="6.14414">
        <ele>2196.6</ele>
        <time>2022-12-29T13:47:31Z</time>
      </trkpt>
      <trkpt lat="44.99315" lon="6.14414">
        <ele>2196.6</ele>
        <time>2022-12-29T13:47:32Z</time>
      </trkpt>
      <trkpt lat="44.99315" lon="6.14414">
        <ele>2196.6</ele>
        <time>2022-12-29T13:47:33Z</time>
      </trkpt>
      <trkpt lat="44.99315" lon="6.14414">
        <ele>2196.6</ele>
        <time>2022-12-29T13:47:34Z</time>
      </trkpt>
      <trkpt lat="44.99315" lon="6.14414">
        <ele>2196.6</ele>
        <time>2022-12-29T13:47:35Z</time>
      </trkpt>
      <trkpt lat="44.99315" lon="6.14414">
        <ele>2198.6</ele>
        <time>2022-12-29T13:47:36Z</time>
      </trkpt>
      <trkpt lat="44.99313" lon="6.14417">
        <ele>2198.6</ele>
        <time>2022-12-29T13:47:37Z</time>
      </trkpt>
      <trkpt lat="44.99314" lon="6.14417">
        <ele>2198.6</ele>
        <time>2022-12-29T13:47:38Z</time>
      </trkpt>
      <trkpt lat="44.99314" lon="6.14418">
        <ele>2198.6</ele>
        <time>2022-12-29T13:47:39Z</time>
      </trkpt>
      <trkpt lat="44.99314" lon="6.14418">
        <ele>2198.6</ele>
        <time>2022-12-29T13:47:40Z</time>
      </trkpt>
      <trkpt lat="44.99315" lon="6.14419">
        <ele>2198.6</ele>
        <time>2022-12-29T13:47:41Z</time>
      </trkpt>
      <trkpt lat="44.99315" lon="6.14419">
        <ele>2198.6</ele>
        <time>2022-12-29T13:47:42Z</time>
      </trkpt>
      <trkpt lat="44.99315" lon="6.1442">
        <ele>2198.6</ele>
        <time>2022-12-29T13:47:43Z</time>
      </trkpt>
      <trkpt lat="44.99316" lon="6.1442">
        <ele>2198.6</ele>
        <time>2022-12-29T13:47:44Z</time>
      </trkpt>
      <trkpt lat="44.99316" lon="6.14421">
        <ele>2198.6</ele>
        <time>2022-12-29T13:47:45Z</time>
      </trkpt>
      <trkpt lat="44.99316" lon="6.14421">
        <ele>2199.8</ele>
        <time>2022-12-29T13:47:46Z</time>
      </trkpt>
      <trkpt lat="44.99317" lon="6.14421">
        <ele>2199.8</ele>
        <time>2022-12-29T13:47:47Z</time>
      </trkpt>
      <trkpt lat="44.99317" lon="6.14422">
        <ele>2199.8</ele>
        <time>2022-12-29T13:47:48Z</time>
      </trkpt>
      <trkpt lat="44.99318" lon="6.14422">
        <ele>2199.8</ele>
        <time>2022-12-29T13:47:49Z</time>
      </trkpt>
      <trkpt lat="44.99319" lon="6.14422">
        <ele>2199.8</ele>
        <time>2022-12-29T13:47:50Z</time>
      </trkpt>
      <trkpt lat="44.99319" lon="6.14422">
        <ele>2199.8</ele>
        <time>2022-12-29T13:47:51Z</time>
      </trkpt>
      <trkpt lat="44.9932" lon="6.14422">
        <ele>2199.8</ele>
        <time>2022-12-29T13:47:52Z</time>
      </trkpt>
      <trkpt lat="44.99321" lon="6.14422">
        <ele>2199.8</ele>
        <time>2022-12-29T13:47:53Z</time>
      </trkpt>
      <trkpt lat="44.99321" lon="6.14422">
        <ele>2199.8</ele>
        <time>2022-12-29T13:47:54Z</time>
      </trkpt>
      <trkpt lat="44.99322" lon="6.14422">
        <ele>2199.8</ele>
        <time>2022-12-29T13:47:55Z</time>
      </trkpt>
      <trkpt lat="44.99323" lon="6.14422">
        <ele>2201.4</ele>
        <time>2022-12-29T13:47:56Z</time>
      </trkpt>
      <trkpt lat="44.99323" lon="6.14422">
        <ele>2201.4</ele>
        <time>2022-12-29T13:47:57Z</time>
      </trkpt>
      <trkpt lat="44.99324" lon="6.14422">
        <ele>2201.4</ele>
        <time>2022-12-29T13:47:58Z</time>
      </trkpt>
      <trkpt lat="44.99324" lon="6.14422">
        <ele>2201.4</ele>
        <time>2022-12-29T13:47:59Z</time>
      </trkpt>
      <trkpt lat="44.99325" lon="6.14422">
        <ele>2201.4</ele>
        <time>2022-12-29T13:48:00Z</time>
      </trkpt>
      <trkpt lat="44.99325" lon="6.14422">
        <ele>2201.4</ele>
        <time>2022-12-29T13:48:01Z</time>
      </trkpt>
      <trkpt lat="44.99326" lon="6.14422">
        <ele>2201.4</ele>
        <time>2022-12-29T13:48:02Z</time>
      </trkpt>
      <trkpt lat="44.99327" lon="6.14422">
        <ele>2201.4</ele>
        <time>2022-12-29T13:48:03Z</time>
      </trkpt>
      <trkpt lat="44.99327" lon="6.14423">
        <ele>2201.4</ele>
        <time>2022-12-29T13:48:04Z</time>
      </trkpt>
      <trkpt lat="44.99328" lon="6.14423">
        <ele>2201.4</ele>
        <time>2022-12-29T13:48:05Z</time>
      </trkpt>
      <trkpt lat="44.99328" lon="6.14423">
        <ele>2202.8</ele>
        <time>2022-12-29T13:48:06Z</time>
      </trkpt>
      <trkpt lat="44.99331" lon="6.14423">
        <ele>2202.8</ele>
        <time>2022-12-29T13:48:07Z</time>
      </trkpt>
      <trkpt lat="44.99332" lon="6.14424">
        <ele>2202.8</ele>
        <time>2022-12-29T13:48:08Z</time>
      </trkpt>
      <trkpt lat="44.99332" lon="6.14424">
        <ele>2202.8</ele>
        <time>2022-12-29T13:48:09Z</time>
      </trkpt>
      <trkpt lat="44.99333" lon="6.14424">
        <ele>2202.8</ele>
        <time>2022-12-29T13:48:10Z</time>
      </trkpt>
      <trkpt lat="44.99333" lon="6.14424">
        <ele>2202.8</ele>
        <time>2022-12-29T13:48:11Z</time>
      </trkpt>
      <trkpt lat="44.99334" lon="6.14424">
        <ele>2202.8</ele>
        <time>2022-12-29T13:48:12Z</time>
      </trkpt>
      <trkpt lat="44.99335" lon="6.14424">
        <ele>2202.8</ele>
        <time>2022-12-29T13:48:13Z</time>
      </trkpt>
      <trkpt lat="44.99335" lon="6.14424">
        <ele>2202.8</ele>
        <time>2022-12-29T13:48:14Z</time>
      </trkpt>
      <trkpt lat="44.99336" lon="6.14424">
        <ele>2202.8</ele>
        <time>2022-12-29T13:48:15Z</time>
      </trkpt>
      <trkpt lat="44.99336" lon="6.14424">
        <ele>2204.6</ele>
        <time>2022-12-29T13:48:16Z</time>
      </trkpt>
      <trkpt lat="44.99337" lon="6.14424">
        <ele>2204.6</ele>
        <time>2022-12-29T13:48:17Z</time>
      </trkpt>
      <trkpt lat="44.99338" lon="6.14425">
        <ele>2204.6</ele>
        <time>2022-12-29T13:48:18Z</time>
      </trkpt>
      <trkpt lat="44.99338" lon="6.14425">
        <ele>2204.6</ele>
        <time>2022-12-29T13:48:19Z</time>
      </trkpt>
      <trkpt lat="44.99339" lon="6.14425">
        <ele>2204.6</ele>
        <time>2022-12-29T13:48:20Z</time>
      </trkpt>
      <trkpt lat="44.99339" lon="6.14425">
        <ele>2204.6</ele>
        <time>2022-12-29T13:48:21Z</time>
      </trkpt>
      <trkpt lat="44.9934" lon="6.14426">
        <ele>2204.6</ele>
        <time>2022-12-29T13:48:22Z</time>
      </trkpt>
      <trkpt lat="44.99341" lon="6.14426">
        <ele>2204.6</ele>
        <time>2022-12-29T13:48:23Z</time>
      </trkpt>
      <trkpt lat="44.99341" lon="6.14426">
        <ele>2204.6</ele>
        <time>2022-12-29T13:48:24Z</time>
      </trkpt>
      <trkpt lat="44.99342" lon="6.14426">
        <ele>2204.6</ele>
        <time>2022-12-29T13:48:25Z</time>
      </trkpt>
      <trkpt lat="44.99342" lon="6.14426">
        <ele>2206.4</ele>
        <time>2022-12-29T13:48:26Z</time>
      </trkpt>
      <trkpt lat="44.99343" lon="6.14426">
        <ele>2206.4</ele>
        <time>2022-12-29T13:48:27Z</time>
      </trkpt>
      <trkpt lat="44.99344" lon="6.14427">
        <ele>2206.4</ele>
        <time>2022-12-29T13:48:28Z</time>
      </trkpt>
      <trkpt lat="44.99344" lon="6.14427">
        <ele>2206.4</ele>
        <time>2022-12-29T13:48:29Z</time>
      </trkpt>
      <trkpt lat="44.99345" lon="6.14427">
        <ele>2206.4</ele>
        <time>2022-12-29T13:48:30Z</time>
      </trkpt>
      <trkpt lat="44.99345" lon="6.14427">
        <ele>2206.4</ele>
        <time>2022-12-29T13:48:31Z</time>
      </trkpt>
      <trkpt lat="44.99346" lon="6.14427">
        <ele>2206.4</ele>
        <time>2022-12-29T13:48:32Z</time>
      </trkpt>
      <trkpt lat="44.99347" lon="6.14427">
        <ele>2206.4</ele>
        <time>2022-12-29T13:48:33Z</time>
      </trkpt>
      <trkpt lat="44.99347" lon="6.14427">
        <ele>2206.4</ele>
        <time>2022-12-29T13:48:34Z</time>
      </trkpt>
      <trkpt lat="44.99348" lon="6.14427">
        <ele>2206.4</ele>
        <time>2022-12-29T13:48:35Z</time>
      </trkpt>
      <trkpt lat="44.99349" lon="6.14427">
        <ele>2208</ele>
        <time>2022-12-29T13:48:36Z</time>
      </trkpt>
      <trkpt lat="44.99349" lon="6.14427">
        <ele>2208</ele>
        <time>2022-12-29T13:48:37Z</time>
      </trkpt>
      <trkpt lat="44.9935" lon="6.14428">
        <ele>2208</ele>
        <time>2022-12-29T13:48:38Z</time>
      </trkpt>
      <trkpt lat="44.9935" lon="6.14428">
        <ele>2208</ele>
        <time>2022-12-29T13:48:39Z</time>
      </trkpt>
      <trkpt lat="44.9935" lon="6.14428">
        <ele>2208</ele>
        <time>2022-12-29T13:48:40Z</time>
      </trkpt>
      <trkpt lat="44.99352" lon="6.14428">
        <ele>2208</ele>
        <time>2022-12-29T13:48:41Z</time>
      </trkpt>
      <trkpt lat="44.99352" lon="6.14428">
        <ele>2208</ele>
        <time>2022-12-29T13:48:42Z</time>
      </trkpt>
      <trkpt lat="44.99352" lon="6.14428">
        <ele>2208</ele>
        <time>2022-12-29T13:48:43Z</time>
      </trkpt>
      <trkpt lat="44.99352" lon="6.14428">
        <ele>2208</ele>
        <time>2022-12-29T13:48:44Z</time>
      </trkpt>
      <trkpt lat="44.99352" lon="6.14428">
        <ele>2208</ele>
        <time>2022-12-29T13:48:45Z</time>
      </trkpt>
      <trkpt lat="44.99352" lon="6.14428">
        <ele>2210.2</ele>
        <time>2022-12-29T13:48:46Z</time>
      </trkpt>
      <trkpt lat="44.99352" lon="6.14428">
        <ele>2210.2</ele>
        <time>2022-12-29T13:48:47Z</time>
      </trkpt>
      <trkpt lat="44.99352" lon="6.14429">
        <ele>2210.2</ele>
        <time>2022-12-29T13:48:48Z</time>
      </trkpt>
      <trkpt lat="44.99352" lon="6.14429">
        <ele>2210.2</ele>
        <time>2022-12-29T13:48:49Z</time>
      </trkpt>
      <trkpt lat="44.99352" lon="6.1443">
        <ele>2210.2</ele>
        <time>2022-12-29T13:48:50Z</time>
      </trkpt>
      <trkpt lat="44.99351" lon="6.1443">
        <ele>2210.2</ele>
        <time>2022-12-29T13:48:51Z</time>
      </trkpt>
      <trkpt lat="44.99351" lon="6.14431">
        <ele>2210.2</ele>
        <time>2022-12-29T13:48:52Z</time>
      </trkpt>
      <trkpt lat="44.99351" lon="6.14431">
        <ele>2210.2</ele>
        <time>2022-12-29T13:48:53Z</time>
      </trkpt>
      <trkpt lat="44.99351" lon="6.14431">
        <ele>2210.2</ele>
        <time>2022-12-29T13:48:54Z</time>
      </trkpt>
      <trkpt lat="44.99351" lon="6.14432">
        <ele>2210.2</ele>
        <time>2022-12-29T13:48:55Z</time>
      </trkpt>
      <trkpt lat="44.9935" lon="6.14432">
        <ele>2211.4</ele>
        <time>2022-12-29T13:48:56Z</time>
      </trkpt>
      <trkpt lat="44.9935" lon="6.14433">
        <ele>2211.4</ele>
        <time>2022-12-29T13:48:57Z</time>
      </trkpt>
      <trkpt lat="44.9935" lon="6.14434">
        <ele>2211.4</ele>
        <time>2022-12-29T13:48:58Z</time>
      </trkpt>
      <trkpt lat="44.99349" lon="6.14434">
        <ele>2211.4</ele>
        <time>2022-12-29T13:48:59Z</time>
      </trkpt>
      <trkpt lat="44.99349" lon="6.14435">
        <ele>2211.4</ele>
        <time>2022-12-29T13:49:00Z</time>
      </trkpt>
      <trkpt lat="44.99348" lon="6.14436">
        <ele>2211.4</ele>
        <time>2022-12-29T13:49:01Z</time>
      </trkpt>
      <trkpt lat="44.99348" lon="6.14436">
        <ele>2211.4</ele>
        <time>2022-12-29T13:49:02Z</time>
      </trkpt>
      <trkpt lat="44.99348" lon="6.14437">
        <ele>2211.4</ele>
        <time>2022-12-29T13:49:03Z</time>
      </trkpt>
      <trkpt lat="44.99347" lon="6.14438">
        <ele>2211.4</ele>
        <time>2022-12-29T13:49:04Z</time>
      </trkpt>
      <trkpt lat="44.99347" lon="6.14438">
        <ele>2211.4</ele>
        <time>2022-12-29T13:49:05Z</time>
      </trkpt>
      <trkpt lat="44.99346" lon="6.14439">
        <ele>2212.6</ele>
        <time>2022-12-29T13:49:06Z</time>
      </trkpt>
      <trkpt lat="44.99346" lon="6.1444">
        <ele>2212.6</ele>
        <time>2022-12-29T13:49:07Z</time>
      </trkpt>
      <trkpt lat="44.99346" lon="6.1444">
        <ele>2212.6</ele>
        <time>2022-12-29T13:49:08Z</time>
      </trkpt>
      <trkpt lat="44.99345" lon="6.14441">
        <ele>2212.6</ele>
        <time>2022-12-29T13:49:09Z</time>
      </trkpt>
      <trkpt lat="44.99345" lon="6.14441">
        <ele>2212.6</ele>
        <time>2022-12-29T13:49:10Z</time>
      </trkpt>
      <trkpt lat="44.99345" lon="6.14442">
        <ele>2212.6</ele>
        <time>2022-12-29T13:49:11Z</time>
      </trkpt>
      <trkpt lat="44.99344" lon="6.14443">
        <ele>2212.6</ele>
        <time>2022-12-29T13:49:12Z</time>
      </trkpt>
      <trkpt lat="44.99344" lon="6.14443">
        <ele>2212.6</ele>
        <time>2022-12-29T13:49:13Z</time>
      </trkpt>
      <trkpt lat="44.99344" lon="6.14444">
        <ele>2212.6</ele>
        <time>2022-12-29T13:49:14Z</time>
      </trkpt>
      <trkpt lat="44.99343" lon="6.14445">
        <ele>2212.6</ele>
        <time>2022-12-29T13:49:15Z</time>
      </trkpt>
      <trkpt lat="44.99343" lon="6.14445">
        <ele>2214.2</ele>
        <time>2022-12-29T13:49:16Z</time>
      </trkpt>
      <trkpt lat="44.99343" lon="6.14445">
        <ele>2214.2</ele>
        <time>2022-12-29T13:49:17Z</time>
      </trkpt>
      <trkpt lat="44.99343" lon="6.14445">
        <ele>2214.2</ele>
        <time>2022-12-29T13:49:18Z</time>
      </trkpt>
      <trkpt lat="44.99343" lon="6.14445">
        <ele>2214.2</ele>
        <time>2022-12-29T13:49:19Z</time>
      </trkpt>
      <trkpt lat="44.99341" lon="6.14448">
        <ele>2214.2</ele>
        <time>2022-12-29T13:49:20Z</time>
      </trkpt>
      <trkpt lat="44.99341" lon="6.14448">
        <ele>2214.2</ele>
        <time>2022-12-29T13:49:21Z</time>
      </trkpt>
      <trkpt lat="44.99341" lon="6.14448">
        <ele>2214.2</ele>
        <time>2022-12-29T13:49:22Z</time>
      </trkpt>
      <trkpt lat="44.99341" lon="6.14448">
        <ele>2214.2</ele>
        <time>2022-12-29T13:49:23Z</time>
      </trkpt>
      <trkpt lat="44.99341" lon="6.14448">
        <ele>2214.2</ele>
        <time>2022-12-29T13:49:24Z</time>
      </trkpt>
      <trkpt lat="44.99341" lon="6.14448">
        <ele>2214.2</ele>
        <time>2022-12-29T13:49:25Z</time>
      </trkpt>
      <trkpt lat="44.99341" lon="6.14448">
        <ele>2215.2</ele>
        <time>2022-12-29T13:49:26Z</time>
      </trkpt>
      <trkpt lat="44.99342" lon="6.14448">
        <ele>2215.2</ele>
        <time>2022-12-29T13:49:27Z</time>
      </trkpt>
      <trkpt lat="44.99342" lon="6.14448">
        <ele>2215.2</ele>
        <time>2022-12-29T13:49:28Z</time>
      </trkpt>
      <trkpt lat="44.99342" lon="6.14448">
        <ele>2215.2</ele>
        <time>2022-12-29T13:49:29Z</time>
      </trkpt>
      <trkpt lat="44.99343" lon="6.14448">
        <ele>2215.2</ele>
        <time>2022-12-29T13:49:30Z</time>
      </trkpt>
      <trkpt lat="44.99343" lon="6.14448">
        <ele>2215.2</ele>
        <time>2022-12-29T13:49:31Z</time>
      </trkpt>
      <trkpt lat="44.99343" lon="6.14448">
        <ele>2215.2</ele>
        <time>2022-12-29T13:49:32Z</time>
      </trkpt>
      <trkpt lat="44.99344" lon="6.14448">
        <ele>2215.2</ele>
        <time>2022-12-29T13:49:33Z</time>
      </trkpt>
      <trkpt lat="44.99344" lon="6.14448">
        <ele>2215.2</ele>
        <time>2022-12-29T13:49:34Z</time>
      </trkpt>
      <trkpt lat="44.99344" lon="6.14448">
        <ele>2215.2</ele>
        <time>2022-12-29T13:49:35Z</time>
      </trkpt>
      <trkpt lat="44.99345" lon="6.14448">
        <ele>2215.8</ele>
        <time>2022-12-29T13:49:36Z</time>
      </trkpt>
      <trkpt lat="44.99345" lon="6.14448">
        <ele>2215.8</ele>
        <time>2022-12-29T13:49:37Z</time>
      </trkpt>
      <trkpt lat="44.99345" lon="6.14448">
        <ele>2215.8</ele>
        <time>2022-12-29T13:49:38Z</time>
      </trkpt>
      <trkpt lat="44.99346" lon="6.14448">
        <ele>2215.8</ele>
        <time>2022-12-29T13:49:39Z</time>
      </trkpt>
      <trkpt lat="44.99346" lon="6.14448">
        <ele>2215.8</ele>
        <time>2022-12-29T13:49:40Z</time>
      </trkpt>
      <trkpt lat="44.99346" lon="6.14448">
        <ele>2215.8</ele>
        <time>2022-12-29T13:49:41Z</time>
      </trkpt>
      <trkpt lat="44.99347" lon="6.14448">
        <ele>2215.8</ele>
        <time>2022-12-29T13:49:42Z</time>
      </trkpt>
      <trkpt lat="44.99347" lon="6.14448">
        <ele>2215.8</ele>
        <time>2022-12-29T13:49:43Z</time>
      </trkpt>
      <trkpt lat="44.99347" lon="6.14448">
        <ele>2215.8</ele>
        <time>2022-12-29T13:49:44Z</time>
      </trkpt>
      <trkpt lat="44.99348" lon="6.14448">
        <ele>2215.8</ele>
        <time>2022-12-29T13:49:45Z</time>
      </trkpt>
      <trkpt lat="44.99348" lon="6.14448">
        <ele>2216.8</ele>
        <time>2022-12-29T13:49:46Z</time>
      </trkpt>
      <trkpt lat="44.99351" lon="6.14447">
        <ele>2216.8</ele>
        <time>2022-12-29T13:49:47Z</time>
      </trkpt>
      <trkpt lat="44.99351" lon="6.14447">
        <ele>2216.8</ele>
        <time>2022-12-29T13:49:48Z</time>
      </trkpt>
      <trkpt lat="44.99352" lon="6.14447">
        <ele>2216.8</ele>
        <time>2022-12-29T13:49:49Z</time>
      </trkpt>
      <trkpt lat="44.99353" lon="6.14447">
        <ele>2216.8</ele>
        <time>2022-12-29T13:49:50Z</time>
      </trkpt>
      <trkpt lat="44.99353" lon="6.14447">
        <ele>2216.8</ele>
        <time>2022-12-29T13:49:51Z</time>
      </trkpt>
      <trkpt lat="44.99354" lon="6.14447">
        <ele>2216.8</ele>
        <time>2022-12-29T13:49:52Z</time>
      </trkpt>
      <trkpt lat="44.99355" lon="6.14447">
        <ele>2216.8</ele>
        <time>2022-12-29T13:49:53Z</time>
      </trkpt>
      <trkpt lat="44.99355" lon="6.14447">
        <ele>2216.8</ele>
        <time>2022-12-29T13:49:54Z</time>
      </trkpt>
      <trkpt lat="44.99356" lon="6.14447">
        <ele>2216.8</ele>
        <time>2022-12-29T13:49:55Z</time>
      </trkpt>
      <trkpt lat="44.99357" lon="6.14447">
        <ele>2218</ele>
        <time>2022-12-29T13:49:56Z</time>
      </trkpt>
      <trkpt lat="44.99357" lon="6.14447">
        <ele>2218</ele>
        <time>2022-12-29T13:49:57Z</time>
      </trkpt>
      <trkpt lat="44.99358" lon="6.14447">
        <ele>2218</ele>
        <time>2022-12-29T13:49:58Z</time>
      </trkpt>
      <trkpt lat="44.99358" lon="6.14447">
        <ele>2218</ele>
        <time>2022-12-29T13:49:59Z</time>
      </trkpt>
      <trkpt lat="44.99359" lon="6.14447">
        <ele>2218</ele>
        <time>2022-12-29T13:50:00Z</time>
      </trkpt>
      <trkpt lat="44.9936" lon="6.14447">
        <ele>2218</ele>
        <time>2022-12-29T13:50:01Z</time>
      </trkpt>
      <trkpt lat="44.9936" lon="6.14447">
        <ele>2218</ele>
        <time>2022-12-29T13:50:02Z</time>
      </trkpt>
      <trkpt lat="44.99361" lon="6.14447">
        <ele>2218</ele>
        <time>2022-12-29T13:50:03Z</time>
      </trkpt>
      <trkpt lat="44.99362" lon="6.14447">
        <ele>2218</ele>
        <time>2022-12-29T13:50:04Z</time>
      </trkpt>
      <trkpt lat="44.99362" lon="6.14447">
        <ele>2218</ele>
        <time>2022-12-29T13:50:05Z</time>
      </trkpt>
      <trkpt lat="44.99363" lon="6.14447">
        <ele>2219</ele>
        <time>2022-12-29T13:50:06Z</time>
      </trkpt>
      <trkpt lat="44.99366" lon="6.14446">
        <ele>2219</ele>
        <time>2022-12-29T13:50:07Z</time>
      </trkpt>
      <trkpt lat="44.99367" lon="6.14446">
        <ele>2219</ele>
        <time>2022-12-29T13:50:08Z</time>
      </trkpt>
      <trkpt lat="44.99367" lon="6.14446">
        <ele>2219</ele>
        <time>2022-12-29T13:50:09Z</time>
      </trkpt>
      <trkpt lat="44.99368" lon="6.14446">
        <ele>2219</ele>
        <time>2022-12-29T13:50:10Z</time>
      </trkpt>
      <trkpt lat="44.99369" lon="6.14446">
        <ele>2219</ele>
        <time>2022-12-29T13:50:11Z</time>
      </trkpt>
      <trkpt lat="44.99369" lon="6.14446">
        <ele>2219</ele>
        <time>2022-12-29T13:50:12Z</time>
      </trkpt>
      <trkpt lat="44.9937" lon="6.14446">
        <ele>2219</ele>
        <time>2022-12-29T13:50:13Z</time>
      </trkpt>
      <trkpt lat="44.99371" lon="6.14446">
        <ele>2219</ele>
        <time>2022-12-29T13:50:14Z</time>
      </trkpt>
      <trkpt lat="44.99372" lon="6.14446">
        <ele>2219</ele>
        <time>2022-12-29T13:50:15Z</time>
      </trkpt>
      <trkpt lat="44.99372" lon="6.14446">
        <ele>2220</ele>
        <time>2022-12-29T13:50:16Z</time>
      </trkpt>
      <trkpt lat="44.99373" lon="6.14446">
        <ele>2220</ele>
        <time>2022-12-29T13:50:17Z</time>
      </trkpt>
      <trkpt lat="44.99373" lon="6.14446">
        <ele>2220</ele>
        <time>2022-12-29T13:50:18Z</time>
      </trkpt>
      <trkpt lat="44.99374" lon="6.14446">
        <ele>2220</ele>
        <time>2022-12-29T13:50:19Z</time>
      </trkpt>
      <trkpt lat="44.99375" lon="6.14445">
        <ele>2220</ele>
        <time>2022-12-29T13:50:20Z</time>
      </trkpt>
      <trkpt lat="44.99375" lon="6.14445">
        <ele>2220</ele>
        <time>2022-12-29T13:50:21Z</time>
      </trkpt>
      <trkpt lat="44.99376" lon="6.14445">
        <ele>2220</ele>
        <time>2022-12-29T13:50:22Z</time>
      </trkpt>
      <trkpt lat="44.99377" lon="6.14445">
        <ele>2220</ele>
        <time>2022-12-29T13:50:23Z</time>
      </trkpt>
      <trkpt lat="44.99377" lon="6.14445">
        <ele>2220</ele>
        <time>2022-12-29T13:50:24Z</time>
      </trkpt>
      <trkpt lat="44.99378" lon="6.14445">
        <ele>2220</ele>
        <time>2022-12-29T13:50:25Z</time>
      </trkpt>
      <trkpt lat="44.99379" lon="6.14445">
        <ele>2220.8</ele>
        <time>2022-12-29T13:50:26Z</time>
      </trkpt>
      <trkpt lat="44.99379" lon="6.14444">
        <ele>2220.8</ele>
        <time>2022-12-29T13:50:27Z</time>
      </trkpt>
      <trkpt lat="44.9938" lon="6.14444">
        <ele>2220.8</ele>
        <time>2022-12-29T13:50:28Z</time>
      </trkpt>
      <trkpt lat="44.99381" lon="6.14444">
        <ele>2220.8</ele>
        <time>2022-12-29T13:50:29Z</time>
      </trkpt>
      <trkpt lat="44.99381" lon="6.14444">
        <ele>2220.8</ele>
        <time>2022-12-29T13:50:30Z</time>
      </trkpt>
      <trkpt lat="44.99382" lon="6.14443">
        <ele>2220.8</ele>
        <time>2022-12-29T13:50:31Z</time>
      </trkpt>
      <trkpt lat="44.99382" lon="6.14443">
        <ele>2220.8</ele>
        <time>2022-12-29T13:50:32Z</time>
      </trkpt>
      <trkpt lat="44.99383" lon="6.14443">
        <ele>2220.8</ele>
        <time>2022-12-29T13:50:33Z</time>
      </trkpt>
      <trkpt lat="44.99384" lon="6.14443">
        <ele>2220.8</ele>
        <time>2022-12-29T13:50:34Z</time>
      </trkpt>
      <trkpt lat="44.99384" lon="6.14443">
        <ele>2220.8</ele>
        <time>2022-12-29T13:50:35Z</time>
      </trkpt>
      <trkpt lat="44.99385" lon="6.14442">
        <ele>2222.4</ele>
        <time>2022-12-29T13:50:36Z</time>
      </trkpt>
      <trkpt lat="44.99385" lon="6.14442">
        <ele>2222.4</ele>
        <time>2022-12-29T13:50:37Z</time>
      </trkpt>
      <trkpt lat="44.99385" lon="6.14442">
        <ele>2222.4</ele>
        <time>2022-12-29T13:50:38Z</time>
      </trkpt>
      <trkpt lat="44.99385" lon="6.14442">
        <ele>2222.4</ele>
        <time>2022-12-29T13:50:39Z</time>
      </trkpt>
      <trkpt lat="44.99387" lon="6.14442">
        <ele>2222.4</ele>
        <time>2022-12-29T13:50:40Z</time>
      </trkpt>
      <trkpt lat="44.99387" lon="6.14442">
        <ele>2222.4</ele>
        <time>2022-12-29T13:50:41Z</time>
      </trkpt>
      <trkpt lat="44.99387" lon="6.14442">
        <ele>2222.4</ele>
        <time>2022-12-29T13:50:42Z</time>
      </trkpt>
      <trkpt lat="44.99387" lon="6.14442">
        <ele>2222.4</ele>
        <time>2022-12-29T13:50:43Z</time>
      </trkpt>
      <trkpt lat="44.99387" lon="6.14442">
        <ele>2222.4</ele>
        <time>2022-12-29T13:50:44Z</time>
      </trkpt>
      <trkpt lat="44.99387" lon="6.14442">
        <ele>2222.4</ele>
        <time>2022-12-29T13:50:45Z</time>
      </trkpt>
      <trkpt lat="44.99387" lon="6.14442">
        <ele>2224.6</ele>
        <time>2022-12-29T13:50:46Z</time>
      </trkpt>
      <trkpt lat="44.99387" lon="6.14445">
        <ele>2224.6</ele>
        <time>2022-12-29T13:50:50Z</time>
      </trkpt>
      <trkpt lat="44.99387" lon="6.14446">
        <ele>2224.6</ele>
        <time>2022-12-29T13:50:51Z</time>
      </trkpt>
      <trkpt lat="44.99387" lon="6.14446">
        <ele>2224.6</ele>
        <time>2022-12-29T13:50:52Z</time>
      </trkpt>
      <trkpt lat="44.99387" lon="6.14447">
        <ele>2224.6</ele>
        <time>2022-12-29T13:50:53Z</time>
      </trkpt>
      <trkpt lat="44.99387" lon="6.14447">
        <ele>2224.6</ele>
        <time>2022-12-29T13:50:54Z</time>
      </trkpt>
      <trkpt lat="44.99386" lon="6.14448">
        <ele>2224.6</ele>
        <time>2022-12-29T13:50:55Z</time>
      </trkpt>
      <trkpt lat="44.99386" lon="6.14448">
        <ele>2225.6</ele>
        <time>2022-12-29T13:50:56Z</time>
      </trkpt>
      <trkpt lat="44.99386" lon="6.14451">
        <ele>2225.6</ele>
        <time>2022-12-29T13:50:57Z</time>
      </trkpt>
      <trkpt lat="44.99386" lon="6.14452">
        <ele>2225.6</ele>
        <time>2022-12-29T13:50:58Z</time>
      </trkpt>
      <trkpt lat="44.99385" lon="6.14452">
        <ele>2225.6</ele>
        <time>2022-12-29T13:50:59Z</time>
      </trkpt>
      <trkpt lat="44.99385" lon="6.14453">
        <ele>2225.6</ele>
        <time>2022-12-29T13:51:00Z</time>
      </trkpt>
      <trkpt lat="44.99385" lon="6.14454">
        <ele>2225.6</ele>
        <time>2022-12-29T13:51:01Z</time>
      </trkpt>
      <trkpt lat="44.99385" lon="6.14454">
        <ele>2225.6</ele>
        <time>2022-12-29T13:51:02Z</time>
      </trkpt>
      <trkpt lat="44.99385" lon="6.14455">
        <ele>2225.6</ele>
        <time>2022-12-29T13:51:03Z</time>
      </trkpt>
      <trkpt lat="44.99385" lon="6.14455">
        <ele>2225.6</ele>
        <time>2022-12-29T13:51:04Z</time>
      </trkpt>
      <trkpt lat="44.99385" lon="6.14456">
        <ele>2225.6</ele>
        <time>2022-12-29T13:51:05Z</time>
      </trkpt>
      <trkpt lat="44.99384" lon="6.14456">
        <ele>2226.6</ele>
        <time>2022-12-29T13:51:06Z</time>
      </trkpt>
      <trkpt lat="44.99384" lon="6.14456">
        <ele>2226.6</ele>
        <time>2022-12-29T13:51:07Z</time>
      </trkpt>
      <trkpt lat="44.99384" lon="6.14456">
        <ele>2226.6</ele>
        <time>2022-12-29T13:51:08Z</time>
      </trkpt>
      <trkpt lat="44.99384" lon="6.14456">
        <ele>2226.6</ele>
        <time>2022-12-29T13:51:09Z</time>
      </trkpt>
      <trkpt lat="44.99384" lon="6.14456">
        <ele>2226.6</ele>
        <time>2022-12-29T13:51:10Z</time>
      </trkpt>
      <trkpt lat="44.99384" lon="6.14456">
        <ele>2226.6</ele>
        <time>2022-12-29T13:51:11Z</time>
      </trkpt>
      <trkpt lat="44.99384" lon="6.14456">
        <ele>2226.6</ele>
        <time>2022-12-29T13:51:12Z</time>
      </trkpt>
      <trkpt lat="44.99384" lon="6.14456">
        <ele>2226.6</ele>
        <time>2022-12-29T13:51:13Z</time>
      </trkpt>
      <trkpt lat="44.99384" lon="6.14456">
        <ele>2226.6</ele>
        <time>2022-12-29T13:51:14Z</time>
      </trkpt>
      <trkpt lat="44.99384" lon="6.14456">
        <ele>2226.6</ele>
        <time>2022-12-29T13:51:15Z</time>
      </trkpt>
      <trkpt lat="44.99387" lon="6.14456">
        <ele>2226.8</ele>
        <time>2022-12-29T13:51:16Z</time>
      </trkpt>
      <trkpt lat="44.99387" lon="6.14456">
        <ele>2226.8</ele>
        <time>2022-12-29T13:51:17Z</time>
      </trkpt>
      <trkpt lat="44.99387" lon="6.14456">
        <ele>2226.8</ele>
        <time>2022-12-29T13:51:18Z</time>
      </trkpt>
      <trkpt lat="44.99387" lon="6.14456">
        <ele>2226.8</ele>
        <time>2022-12-29T13:51:19Z</time>
      </trkpt>
      <trkpt lat="44.99389" lon="6.14454">
        <ele>2226.8</ele>
        <time>2022-12-29T13:51:20Z</time>
      </trkpt>
      <trkpt lat="44.99389" lon="6.14454">
        <ele>2226.8</ele>
        <time>2022-12-29T13:51:21Z</time>
      </trkpt>
      <trkpt lat="44.99389" lon="6.14454">
        <ele>2226.8</ele>
        <time>2022-12-29T13:51:22Z</time>
      </trkpt>
      <trkpt lat="44.99391" lon="6.14455">
        <ele>2226.8</ele>
        <time>2022-12-29T13:51:23Z</time>
      </trkpt>
      <trkpt lat="44.99391" lon="6.14455">
        <ele>2226.8</ele>
        <time>2022-12-29T13:51:24Z</time>
      </trkpt>
      <trkpt lat="44.99391" lon="6.14455">
        <ele>2226.8</ele>
        <time>2022-12-29T13:51:25Z</time>
      </trkpt>
      <trkpt lat="44.99391" lon="6.14455">
        <ele>2228.4</ele>
        <time>2022-12-29T13:51:26Z</time>
      </trkpt>
      <trkpt lat="44.99393" lon="6.14453">
        <ele>2228.4</ele>
        <time>2022-12-29T13:51:27Z</time>
      </trkpt>
      <trkpt lat="44.99393" lon="6.14453">
        <ele>2228.4</ele>
        <time>2022-12-29T13:51:28Z</time>
      </trkpt>
      <trkpt lat="44.99393" lon="6.14453">
        <ele>2228.4</ele>
        <time>2022-12-29T13:51:29Z</time>
      </trkpt>
      <trkpt lat="44.99393" lon="6.14453">
        <ele>2228.4</ele>
        <time>2022-12-29T13:51:30Z</time>
      </trkpt>
      <trkpt lat="44.99393" lon="6.14453">
        <ele>2228.4</ele>
        <time>2022-12-29T13:51:31Z</time>
      </trkpt>
      <trkpt lat="44.99393" lon="6.14453">
        <ele>2228.4</ele>
        <time>2022-12-29T13:51:32Z</time>
      </trkpt>
      <trkpt lat="44.99393" lon="6.14453">
        <ele>2228.4</ele>
        <time>2022-12-29T13:51:33Z</time>
      </trkpt>
      <trkpt lat="44.99393" lon="6.14453">
        <ele>2228.4</ele>
        <time>2022-12-29T13:51:34Z</time>
      </trkpt>
      <trkpt lat="44.99393" lon="6.14453">
        <ele>2228.4</ele>
        <time>2022-12-29T13:51:35Z</time>
      </trkpt>
      <trkpt lat="44.99393" lon="6.14453">
        <ele>2230.2</ele>
        <time>2022-12-29T13:51:36Z</time>
      </trkpt>
      <trkpt lat="44.99393" lon="6.14454">
        <ele>2230.2</ele>
        <time>2022-12-29T13:51:37Z</time>
      </trkpt>
      <trkpt lat="44.99392" lon="6.14454">
        <ele>2230.2</ele>
        <time>2022-12-29T13:51:38Z</time>
      </trkpt>
      <trkpt lat="44.99392" lon="6.14455">
        <ele>2230.2</ele>
        <time>2022-12-29T13:51:39Z</time>
      </trkpt>
      <trkpt lat="44.99392" lon="6.14455">
        <ele>2230.2</ele>
        <time>2022-12-29T13:51:40Z</time>
      </trkpt>
      <trkpt lat="44.99392" lon="6.14456">
        <ele>2230.2</ele>
        <time>2022-12-29T13:51:41Z</time>
      </trkpt>
      <trkpt lat="44.99392" lon="6.14456">
        <ele>2230.2</ele>
        <time>2022-12-29T13:51:42Z</time>
      </trkpt>
      <trkpt lat="44.99392" lon="6.14457">
        <ele>2230.2</ele>
        <time>2022-12-29T13:51:43Z</time>
      </trkpt>
      <trkpt lat="44.99392" lon="6.14457">
        <ele>2230.2</ele>
        <time>2022-12-29T13:51:44Z</time>
      </trkpt>
      <trkpt lat="44.99391" lon="6.14458">
        <ele>2230.2</ele>
        <time>2022-12-29T13:51:45Z</time>
      </trkpt>
      <trkpt lat="44.99391" lon="6.14458">
        <ele>2231</ele>
        <time>2022-12-29T13:51:46Z</time>
      </trkpt>
      <trkpt lat="44.99391" lon="6.14459">
        <ele>2231</ele>
        <time>2022-12-29T13:51:47Z</time>
      </trkpt>
      <trkpt lat="44.99391" lon="6.14459">
        <ele>2231</ele>
        <time>2022-12-29T13:51:48Z</time>
      </trkpt>
      <trkpt lat="44.99391" lon="6.1446">
        <ele>2231</ele>
        <time>2022-12-29T13:51:49Z</time>
      </trkpt>
      <trkpt lat="44.99391" lon="6.1446">
        <ele>2231</ele>
        <time>2022-12-29T13:51:50Z</time>
      </trkpt>
      <trkpt lat="44.99391" lon="6.14461">
        <ele>2231</ele>
        <time>2022-12-29T13:51:51Z</time>
      </trkpt>
      <trkpt lat="44.9939" lon="6.14461">
        <ele>2231</ele>
        <time>2022-12-29T13:51:52Z</time>
      </trkpt>
      <trkpt lat="44.9939" lon="6.14462">
        <ele>2231</ele>
        <time>2022-12-29T13:51:53Z</time>
      </trkpt>
      <trkpt lat="44.9939" lon="6.14462">
        <ele>2231</ele>
        <time>2022-12-29T13:51:54Z</time>
      </trkpt>
      <trkpt lat="44.9939" lon="6.14463">
        <ele>2231</ele>
        <time>2022-12-29T13:51:55Z</time>
      </trkpt>
      <trkpt lat="44.9939" lon="6.14463">
        <ele>2232.6</ele>
        <time>2022-12-29T13:51:56Z</time>
      </trkpt>
      <trkpt lat="44.99389" lon="6.14464">
        <ele>2232.6</ele>
        <time>2022-12-29T13:51:57Z</time>
      </trkpt>
      <trkpt lat="44.99389" lon="6.14465">
        <ele>2232.6</ele>
        <time>2022-12-29T13:51:58Z</time>
      </trkpt>
      <trkpt lat="44.99389" lon="6.14466">
        <ele>2232.6</ele>
        <time>2022-12-29T13:51:59Z</time>
      </trkpt>
      <trkpt lat="44.99388" lon="6.14466">
        <ele>2232.6</ele>
        <time>2022-12-29T13:52:00Z</time>
      </trkpt>
      <trkpt lat="44.99388" lon="6.14467">
        <ele>2232.6</ele>
        <time>2022-12-29T13:52:01Z</time>
      </trkpt>
      <trkpt lat="44.99388" lon="6.14468">
        <ele>2232.6</ele>
        <time>2022-12-29T13:52:02Z</time>
      </trkpt>
      <trkpt lat="44.99387" lon="6.14469">
        <ele>2232.6</ele>
        <time>2022-12-29T13:52:03Z</time>
      </trkpt>
      <trkpt lat="44.99387" lon="6.1447">
        <ele>2232.6</ele>
        <time>2022-12-29T13:52:04Z</time>
      </trkpt>
      <trkpt lat="44.99387" lon="6.14471">
        <ele>2232.6</ele>
        <time>2022-12-29T13:52:05Z</time>
      </trkpt>
      <trkpt lat="44.99386" lon="6.14472">
        <ele>2235.2</ele>
        <time>2022-12-29T13:52:06Z</time>
      </trkpt>
      <trkpt lat="44.99384" lon="6.14473">
        <ele>2235.2</ele>
        <time>2022-12-29T13:52:07Z</time>
      </trkpt>
      <trkpt lat="44.99384" lon="6.14474">
        <ele>2235.2</ele>
        <time>2022-12-29T13:52:08Z</time>
      </trkpt>
      <trkpt lat="44.99383" lon="6.14474">
        <ele>2235.2</ele>
        <time>2022-12-29T13:52:09Z</time>
      </trkpt>
      <trkpt lat="44.99383" lon="6.14474">
        <ele>2235.2</ele>
        <time>2022-12-29T13:52:10Z</time>
      </trkpt>
      <trkpt lat="44.99383" lon="6.14475">
        <ele>2235.2</ele>
        <time>2022-12-29T13:52:11Z</time>
      </trkpt>
      <trkpt lat="44.99382" lon="6.14475">
        <ele>2235.2</ele>
        <time>2022-12-29T13:52:12Z</time>
      </trkpt>
      <trkpt lat="44.99382" lon="6.14475">
        <ele>2235.2</ele>
        <time>2022-12-29T13:52:13Z</time>
      </trkpt>
      <trkpt lat="44.99382" lon="6.14476">
        <ele>2235.2</ele>
        <time>2022-12-29T13:52:14Z</time>
      </trkpt>
      <trkpt lat="44.99381" lon="6.14476">
        <ele>2235.2</ele>
        <time>2022-12-29T13:52:15Z</time>
      </trkpt>
      <trkpt lat="44.99381" lon="6.14476">
        <ele>2236.6</ele>
        <time>2022-12-29T13:52:16Z</time>
      </trkpt>
      <trkpt lat="44.99381" lon="6.14476">
        <ele>2236.6</ele>
        <time>2022-12-29T13:52:17Z</time>
      </trkpt>
      <trkpt lat="44.99381" lon="6.14476">
        <ele>2236.6</ele>
        <time>2022-12-29T13:52:18Z</time>
      </trkpt>
      <trkpt lat="44.99381" lon="6.14476">
        <ele>2236.6</ele>
        <time>2022-12-29T13:52:19Z</time>
      </trkpt>
      <trkpt lat="44.99381" lon="6.14476">
        <ele>2236.6</ele>
        <time>2022-12-29T13:52:20Z</time>
      </trkpt>
      <trkpt lat="44.99381" lon="6.14476">
        <ele>2236.6</ele>
        <time>2022-12-29T13:52:21Z</time>
      </trkpt>
      <trkpt lat="44.99381" lon="6.14476">
        <ele>2236.6</ele>
        <time>2022-12-29T13:52:22Z</time>
      </trkpt>
      <trkpt lat="44.99381" lon="6.14476">
        <ele>2236.6</ele>
        <time>2022-12-29T13:52:23Z</time>
      </trkpt>
      <trkpt lat="44.99381" lon="6.14476">
        <ele>2236.6</ele>
        <time>2022-12-29T13:52:24Z</time>
      </trkpt>
      <trkpt lat="44.99381" lon="6.14476">
        <ele>2236.6</ele>
        <time>2022-12-29T13:52:25Z</time>
      </trkpt>
      <trkpt lat="44.99381" lon="6.14476">
        <ele>2237.2</ele>
        <time>2022-12-29T13:52:26Z</time>
      </trkpt>
      <trkpt lat="44.99381" lon="6.14476">
        <ele>2237.2</ele>
        <time>2022-12-29T13:52:27Z</time>
      </trkpt>
      <trkpt lat="44.99381" lon="6.14476">
        <ele>2237.2</ele>
        <time>2022-12-29T13:52:28Z</time>
      </trkpt>
      <trkpt lat="44.99381" lon="6.14476">
        <ele>2237.2</ele>
        <time>2022-12-29T13:52:29Z</time>
      </trkpt>
      <trkpt lat="44.99381" lon="6.14476">
        <ele>2237.2</ele>
        <time>2022-12-29T13:52:30Z</time>
      </trkpt>
      <trkpt lat="44.99381" lon="6.14476">
        <ele>2237.2</ele>
        <time>2022-12-29T13:52:31Z</time>
      </trkpt>
      <trkpt lat="44.99381" lon="6.14476">
        <ele>2237.2</ele>
        <time>2022-12-29T13:52:32Z</time>
      </trkpt>
      <trkpt lat="44.99381" lon="6.14476">
        <ele>2237.2</ele>
        <time>2022-12-29T13:52:33Z</time>
      </trkpt>
      <trkpt lat="44.99381" lon="6.14476">
        <ele>2237.2</ele>
        <time>2022-12-29T13:52:34Z</time>
      </trkpt>
      <trkpt lat="44.99381" lon="6.14476">
        <ele>2237.2</ele>
        <time>2022-12-29T13:52:35Z</time>
      </trkpt>
      <trkpt lat="44.99381" lon="6.14476">
        <ele>2237</ele>
        <time>2022-12-29T13:52:36Z</time>
      </trkpt>
      <trkpt lat="44.99381" lon="6.14476">
        <ele>2237</ele>
        <time>2022-12-29T13:52:37Z</time>
      </trkpt>
      <trkpt lat="44.99381" lon="6.14476">
        <ele>2237</ele>
        <time>2022-12-29T13:52:38Z</time>
      </trkpt>
      <trkpt lat="44.99381" lon="6.14476">
        <ele>2237</ele>
        <time>2022-12-29T13:52:39Z</time>
      </trkpt>
      <trkpt lat="44.99381" lon="6.14476">
        <ele>2237</ele>
        <time>2022-12-29T13:52:40Z</time>
      </trkpt>
      <trkpt lat="44.99381" lon="6.14476">
        <ele>2237</ele>
        <time>2022-12-29T13:52:41Z</time>
      </trkpt>
      <trkpt lat="44.99381" lon="6.14476">
        <ele>2237</ele>
        <time>2022-12-29T13:52:42Z</time>
      </trkpt>
      <trkpt lat="44.99381" lon="6.14476">
        <ele>2237</ele>
        <time>2022-12-29T13:52:43Z</time>
      </trkpt>
      <trkpt lat="44.99381" lon="6.14476">
        <ele>2237</ele>
        <time>2022-12-29T13:52:44Z</time>
      </trkpt>
      <trkpt lat="44.99383" lon="6.14478">
        <ele>2237</ele>
        <time>2022-12-29T13:52:45Z</time>
      </trkpt>
      <trkpt lat="44.99383" lon="6.14478">
        <ele>2237.8</ele>
        <time>2022-12-29T13:52:46Z</time>
      </trkpt>
      <trkpt lat="44.99386" lon="6.14478">
        <ele>2237.8</ele>
        <time>2022-12-29T13:52:47Z</time>
      </trkpt>
      <trkpt lat="44.99387" lon="6.14478">
        <ele>2237.8</ele>
        <time>2022-12-29T13:52:48Z</time>
      </trkpt>
      <trkpt lat="44.99388" lon="6.14478">
        <ele>2237.8</ele>
        <time>2022-12-29T13:52:49Z</time>
      </trkpt>
      <trkpt lat="44.99389" lon="6.14478">
        <ele>2237.8</ele>
        <time>2022-12-29T13:52:50Z</time>
      </trkpt>
      <trkpt lat="44.99389" lon="6.14478">
        <ele>2237.8</ele>
        <time>2022-12-29T13:52:51Z</time>
      </trkpt>
      <trkpt lat="44.9939" lon="6.14478">
        <ele>2237.8</ele>
        <time>2022-12-29T13:52:52Z</time>
      </trkpt>
      <trkpt lat="44.99391" lon="6.14478">
        <ele>2237.8</ele>
        <time>2022-12-29T13:52:53Z</time>
      </trkpt>
      <trkpt lat="44.99392" lon="6.14477">
        <ele>2237.8</ele>
        <time>2022-12-29T13:52:54Z</time>
      </trkpt>
      <trkpt lat="44.99393" lon="6.14477">
        <ele>2237.8</ele>
        <time>2022-12-29T13:52:55Z</time>
      </trkpt>
      <trkpt lat="44.99393" lon="6.14477">
        <ele>2239.2</ele>
        <time>2022-12-29T13:52:56Z</time>
      </trkpt>
      <trkpt lat="44.99395" lon="6.14477">
        <ele>2239.2</ele>
        <time>2022-12-29T13:52:57Z</time>
      </trkpt>
      <trkpt lat="44.99396" lon="6.14477">
        <ele>2239.2</ele>
        <time>2022-12-29T13:52:58Z</time>
      </trkpt>
      <trkpt lat="44.99396" lon="6.14477">
        <ele>2239.2</ele>
        <time>2022-12-29T13:52:59Z</time>
      </trkpt>
      <trkpt lat="44.99397" lon="6.14477">
        <ele>2239.2</ele>
        <time>2022-12-29T13:53:00Z</time>
      </trkpt>
      <trkpt lat="44.99397" lon="6.14477">
        <ele>2239.2</ele>
        <time>2022-12-29T13:53:01Z</time>
      </trkpt>
      <trkpt lat="44.99398" lon="6.14477">
        <ele>2239.2</ele>
        <time>2022-12-29T13:53:02Z</time>
      </trkpt>
      <trkpt lat="44.99399" lon="6.14478">
        <ele>2239.2</ele>
        <time>2022-12-29T13:53:03Z</time>
      </trkpt>
      <trkpt lat="44.99399" lon="6.14478">
        <ele>2239.2</ele>
        <time>2022-12-29T13:53:04Z</time>
      </trkpt>
      <trkpt lat="44.994" lon="6.14478">
        <ele>2239.2</ele>
        <time>2022-12-29T13:53:05Z</time>
      </trkpt>
      <trkpt lat="44.994" lon="6.14478">
        <ele>2240.2</ele>
        <time>2022-12-29T13:53:06Z</time>
      </trkpt>
      <trkpt lat="44.99401" lon="6.14478">
        <ele>2240.2</ele>
        <time>2022-12-29T13:53:07Z</time>
      </trkpt>
      <trkpt lat="44.99402" lon="6.14478">
        <ele>2240.2</ele>
        <time>2022-12-29T13:53:08Z</time>
      </trkpt>
      <trkpt lat="44.99402" lon="6.14478">
        <ele>2240.2</ele>
        <time>2022-12-29T13:53:09Z</time>
      </trkpt>
      <trkpt lat="44.99403" lon="6.14479">
        <ele>2240.2</ele>
        <time>2022-12-29T13:53:10Z</time>
      </trkpt>
      <trkpt lat="44.99403" lon="6.14479">
        <ele>2240.2</ele>
        <time>2022-12-29T13:53:11Z</time>
      </trkpt>
      <trkpt lat="44.99404" lon="6.14479">
        <ele>2240.2</ele>
        <time>2022-12-29T13:53:12Z</time>
      </trkpt>
      <trkpt lat="44.99404" lon="6.14479">
        <ele>2240.2</ele>
        <time>2022-12-29T13:53:13Z</time>
      </trkpt>
      <trkpt lat="44.99405" lon="6.1448">
        <ele>2240.2</ele>
        <time>2022-12-29T13:53:14Z</time>
      </trkpt>
      <trkpt lat="44.99406" lon="6.1448">
        <ele>2240.2</ele>
        <time>2022-12-29T13:53:15Z</time>
      </trkpt>
      <trkpt lat="44.99406" lon="6.1448">
        <ele>2242</ele>
        <time>2022-12-29T13:53:16Z</time>
      </trkpt>
      <trkpt lat="44.99407" lon="6.1448">
        <ele>2242</ele>
        <time>2022-12-29T13:53:17Z</time>
      </trkpt>
      <trkpt lat="44.99407" lon="6.1448">
        <ele>2242</ele>
        <time>2022-12-29T13:53:18Z</time>
      </trkpt>
      <trkpt lat="44.99408" lon="6.14481">
        <ele>2242</ele>
        <time>2022-12-29T13:53:19Z</time>
      </trkpt>
      <trkpt lat="44.99409" lon="6.14481">
        <ele>2242</ele>
        <time>2022-12-29T13:53:20Z</time>
      </trkpt>
      <trkpt lat="44.99409" lon="6.14481">
        <ele>2242</ele>
        <time>2022-12-29T13:53:21Z</time>
      </trkpt>
      <trkpt lat="44.9941" lon="6.14481">
        <ele>2242</ele>
        <time>2022-12-29T13:53:22Z</time>
      </trkpt>
      <trkpt lat="44.99411" lon="6.14481">
        <ele>2242</ele>
        <time>2022-12-29T13:53:23Z</time>
      </trkpt>
      <trkpt lat="44.99411" lon="6.14481">
        <ele>2242</ele>
        <time>2022-12-29T13:53:24Z</time>
      </trkpt>
      <trkpt lat="44.99412" lon="6.14482">
        <ele>2242</ele>
        <time>2022-12-29T13:53:25Z</time>
      </trkpt>
      <trkpt lat="44.99413" lon="6.14482">
        <ele>2244</ele>
        <time>2022-12-29T13:53:26Z</time>
      </trkpt>
      <trkpt lat="44.99413" lon="6.14482">
        <ele>2244</ele>
        <time>2022-12-29T13:53:27Z</time>
      </trkpt>
      <trkpt lat="44.99413" lon="6.14482">
        <ele>2244</ele>
        <time>2022-12-29T13:53:28Z</time>
      </trkpt>
      <trkpt lat="44.99414" lon="6.14482">
        <ele>2244</ele>
        <time>2022-12-29T13:53:29Z</time>
      </trkpt>
      <trkpt lat="44.99414" lon="6.14482">
        <ele>2244</ele>
        <time>2022-12-29T13:53:30Z</time>
      </trkpt>
      <trkpt lat="44.99414" lon="6.14482">
        <ele>2244</ele>
        <time>2022-12-29T13:53:31Z</time>
      </trkpt>
      <trkpt lat="44.99414" lon="6.14482">
        <ele>2244</ele>
        <time>2022-12-29T13:53:32Z</time>
      </trkpt>
      <trkpt lat="44.99414" lon="6.14482">
        <ele>2244</ele>
        <time>2022-12-29T13:53:33Z</time>
      </trkpt>
      <trkpt lat="44.99414" lon="6.14482">
        <ele>2244</ele>
        <time>2022-12-29T13:53:34Z</time>
      </trkpt>
      <trkpt lat="44.99414" lon="6.14482">
        <ele>2244</ele>
        <time>2022-12-29T13:53:35Z</time>
      </trkpt>
      <trkpt lat="44.99414" lon="6.14482">
        <ele>2244.8</ele>
        <time>2022-12-29T13:53:36Z</time>
      </trkpt>
      <trkpt lat="44.99414" lon="6.14482">
        <ele>2244.8</ele>
        <time>2022-12-29T13:53:37Z</time>
      </trkpt>
      <trkpt lat="44.99414" lon="6.14482">
        <ele>2244.8</ele>
        <time>2022-12-29T13:53:38Z</time>
      </trkpt>
      <trkpt lat="44.99413" lon="6.14483">
        <ele>2244.8</ele>
        <time>2022-12-29T13:53:39Z</time>
      </trkpt>
      <trkpt lat="44.99413" lon="6.14483">
        <ele>2244.8</ele>
        <time>2022-12-29T13:53:40Z</time>
      </trkpt>
      <trkpt lat="44.99413" lon="6.14483">
        <ele>2244.8</ele>
        <time>2022-12-29T13:53:41Z</time>
      </trkpt>
      <trkpt lat="44.99413" lon="6.14483">
        <ele>2244.8</ele>
        <time>2022-12-29T13:53:42Z</time>
      </trkpt>
      <trkpt lat="44.99413" lon="6.14483">
        <ele>2244.8</ele>
        <time>2022-12-29T13:53:43Z</time>
      </trkpt>
      <trkpt lat="44.99413" lon="6.14483">
        <ele>2244.8</ele>
        <time>2022-12-29T13:53:44Z</time>
      </trkpt>
      <trkpt lat="44.99413" lon="6.14483">
        <ele>2244.8</ele>
        <time>2022-12-29T13:53:45Z</time>
      </trkpt>
      <trkpt lat="44.99413" lon="6.14483">
        <ele>2245.2</ele>
        <time>2022-12-29T13:53:46Z</time>
      </trkpt>
      <trkpt lat="44.99414" lon="6.14483">
        <ele>2245.2</ele>
        <time>2022-12-29T13:53:47Z</time>
      </trkpt>
      <trkpt lat="44.99414" lon="6.14482">
        <ele>2245.2</ele>
        <time>2022-12-29T13:53:48Z</time>
      </trkpt>
      <trkpt lat="44.99415" lon="6.14482">
        <ele>2245.2</ele>
        <time>2022-12-29T13:53:49Z</time>
      </trkpt>
      <trkpt lat="44.99416" lon="6.14482">
        <ele>2245.2</ele>
        <time>2022-12-29T13:53:50Z</time>
      </trkpt>
      <trkpt lat="44.99416" lon="6.14482">
        <ele>2245.2</ele>
        <time>2022-12-29T13:53:51Z</time>
      </trkpt>
      <trkpt lat="44.99417" lon="6.14481">
        <ele>2245.2</ele>
        <time>2022-12-29T13:53:52Z</time>
      </trkpt>
      <trkpt lat="44.99418" lon="6.14481">
        <ele>2245.2</ele>
        <time>2022-12-29T13:53:53Z</time>
      </trkpt>
      <trkpt lat="44.99418" lon="6.14481">
        <ele>2245.2</ele>
        <time>2022-12-29T13:53:54Z</time>
      </trkpt>
      <trkpt lat="44.99419" lon="6.1448">
        <ele>2245.2</ele>
        <time>2022-12-29T13:53:55Z</time>
      </trkpt>
      <trkpt lat="44.9942" lon="6.1448">
        <ele>2246</ele>
        <time>2022-12-29T13:53:56Z</time>
      </trkpt>
      <trkpt lat="44.9942" lon="6.1448">
        <ele>2246</ele>
        <time>2022-12-29T13:53:57Z</time>
      </trkpt>
      <trkpt lat="44.99421" lon="6.14479">
        <ele>2246</ele>
        <time>2022-12-29T13:53:58Z</time>
      </trkpt>
      <trkpt lat="44.99422" lon="6.14479">
        <ele>2246</ele>
        <time>2022-12-29T13:53:59Z</time>
      </trkpt>
      <trkpt lat="44.99422" lon="6.14479">
        <ele>2246</ele>
        <time>2022-12-29T13:54:00Z</time>
      </trkpt>
      <trkpt lat="44.99423" lon="6.14478">
        <ele>2246</ele>
        <time>2022-12-29T13:54:01Z</time>
      </trkpt>
      <trkpt lat="44.99424" lon="6.14478">
        <ele>2246</ele>
        <time>2022-12-29T13:54:02Z</time>
      </trkpt>
      <trkpt lat="44.99425" lon="6.14478">
        <ele>2246</ele>
        <time>2022-12-29T13:54:03Z</time>
      </trkpt>
      <trkpt lat="44.99425" lon="6.14477">
        <ele>2246</ele>
        <time>2022-12-29T13:54:04Z</time>
      </trkpt>
      <trkpt lat="44.99426" lon="6.14477">
        <ele>2246</ele>
        <time>2022-12-29T13:54:05Z</time>
      </trkpt>
      <trkpt lat="44.99427" lon="6.14477">
        <ele>2248</ele>
        <time>2022-12-29T13:54:06Z</time>
      </trkpt>
      <trkpt lat="44.99428" lon="6.14477">
        <ele>2248</ele>
        <time>2022-12-29T13:54:07Z</time>
      </trkpt>
      <trkpt lat="44.99428" lon="6.14478">
        <ele>2248</ele>
        <time>2022-12-29T13:54:08Z</time>
      </trkpt>
      <trkpt lat="44.99428" lon="6.14478">
        <ele>2248</ele>
        <time>2022-12-29T13:54:09Z</time>
      </trkpt>
      <trkpt lat="44.99428" lon="6.14479">
        <ele>2248</ele>
        <time>2022-12-29T13:54:10Z</time>
      </trkpt>
      <trkpt lat="44.99429" lon="6.14479">
        <ele>2248</ele>
        <time>2022-12-29T13:54:11Z</time>
      </trkpt>
      <trkpt lat="44.99429" lon="6.1448">
        <ele>2248</ele>
        <time>2022-12-29T13:54:12Z</time>
      </trkpt>
      <trkpt lat="44.99429" lon="6.1448">
        <ele>2248</ele>
        <time>2022-12-29T13:54:13Z</time>
      </trkpt>
      <trkpt lat="44.99429" lon="6.14481">
        <ele>2248</ele>
        <time>2022-12-29T13:54:14Z</time>
      </trkpt>
      <trkpt lat="44.9943" lon="6.14481">
        <ele>2248</ele>
        <time>2022-12-29T13:54:15Z</time>
      </trkpt>
      <trkpt lat="44.9943" lon="6.14481">
        <ele>2250.8</ele>
        <time>2022-12-29T13:54:16Z</time>
      </trkpt>
      <trkpt lat="44.9943" lon="6.14482">
        <ele>2250.8</ele>
        <time>2022-12-29T13:54:17Z</time>
      </trkpt>
      <trkpt lat="44.9943" lon="6.14483">
        <ele>2250.8</ele>
        <time>2022-12-29T13:54:18Z</time>
      </trkpt>
      <trkpt lat="44.9943" lon="6.14484">
        <ele>2250.8</ele>
        <time>2022-12-29T13:54:19Z</time>
      </trkpt>
      <trkpt lat="44.99431" lon="6.14485">
        <ele>2250.8</ele>
        <time>2022-12-29T13:54:20Z</time>
      </trkpt>
      <trkpt lat="44.99431" lon="6.14486">
        <ele>2250.8</ele>
        <time>2022-12-29T13:54:21Z</time>
      </trkpt>
      <trkpt lat="44.99431" lon="6.14487">
        <ele>2250.8</ele>
        <time>2022-12-29T13:54:22Z</time>
      </trkpt>
      <trkpt lat="44.99431" lon="6.14487">
        <ele>2250.8</ele>
        <time>2022-12-29T13:54:23Z</time>
      </trkpt>
      <trkpt lat="44.99432" lon="6.14488">
        <ele>2250.8</ele>
        <time>2022-12-29T13:54:24Z</time>
      </trkpt>
      <trkpt lat="44.99432" lon="6.14489">
        <ele>2250.8</ele>
        <time>2022-12-29T13:54:25Z</time>
      </trkpt>
      <trkpt lat="44.99432" lon="6.1449">
        <ele>2252.4</ele>
        <time>2022-12-29T13:54:26Z</time>
      </trkpt>
      <trkpt lat="44.99432" lon="6.1449">
        <ele>2252.4</ele>
        <time>2022-12-29T13:54:27Z</time>
      </trkpt>
      <trkpt lat="44.99433" lon="6.14493">
        <ele>2252.4</ele>
        <time>2022-12-29T13:54:28Z</time>
      </trkpt>
      <trkpt lat="44.99433" lon="6.14493">
        <ele>2252.4</ele>
        <time>2022-12-29T13:54:29Z</time>
      </trkpt>
      <trkpt lat="44.99433" lon="6.14493">
        <ele>2252.4</ele>
        <time>2022-12-29T13:54:30Z</time>
      </trkpt>
      <trkpt lat="44.99433" lon="6.14493">
        <ele>2252.4</ele>
        <time>2022-12-29T13:54:31Z</time>
      </trkpt>
      <trkpt lat="44.99433" lon="6.14493">
        <ele>2252.4</ele>
        <time>2022-12-29T13:54:32Z</time>
      </trkpt>
      <trkpt lat="44.99433" lon="6.14493">
        <ele>2252.4</ele>
        <time>2022-12-29T13:54:33Z</time>
      </trkpt>
      <trkpt lat="44.99433" lon="6.14493">
        <ele>2252.4</ele>
        <time>2022-12-29T13:54:34Z</time>
      </trkpt>
      <trkpt lat="44.99433" lon="6.14493">
        <ele>2252.4</ele>
        <time>2022-12-29T13:54:35Z</time>
      </trkpt>
      <trkpt lat="44.99433" lon="6.14493">
        <ele>2253.4</ele>
        <time>2022-12-29T13:54:36Z</time>
      </trkpt>
      <trkpt lat="44.99434" lon="6.14493">
        <ele>2253.4</ele>
        <time>2022-12-29T13:54:37Z</time>
      </trkpt>
      <trkpt lat="44.99434" lon="6.14493">
        <ele>2253.4</ele>
        <time>2022-12-29T13:54:38Z</time>
      </trkpt>
      <trkpt lat="44.99435" lon="6.14493">
        <ele>2253.4</ele>
        <time>2022-12-29T13:54:39Z</time>
      </trkpt>
      <trkpt lat="44.99435" lon="6.14492">
        <ele>2253.4</ele>
        <time>2022-12-29T13:54:40Z</time>
      </trkpt>
      <trkpt lat="44.99436" lon="6.14492">
        <ele>2253.4</ele>
        <time>2022-12-29T13:54:41Z</time>
      </trkpt>
      <trkpt lat="44.99436" lon="6.14492">
        <ele>2253.4</ele>
        <time>2022-12-29T13:54:42Z</time>
      </trkpt>
      <trkpt lat="44.99436" lon="6.14492">
        <ele>2253.4</ele>
        <time>2022-12-29T13:54:43Z</time>
      </trkpt>
      <trkpt lat="44.99437" lon="6.14492">
        <ele>2253.4</ele>
        <time>2022-12-29T13:54:44Z</time>
      </trkpt>
      <trkpt lat="44.99437" lon="6.14492">
        <ele>2253.4</ele>
        <time>2022-12-29T13:54:45Z</time>
      </trkpt>
      <trkpt lat="44.99438" lon="6.14491">
        <ele>2253.8</ele>
        <time>2022-12-29T13:54:46Z</time>
      </trkpt>
      <trkpt lat="44.99438" lon="6.14491">
        <ele>2253.8</ele>
        <time>2022-12-29T13:54:47Z</time>
      </trkpt>
      <trkpt lat="44.99439" lon="6.1449">
        <ele>2253.8</ele>
        <time>2022-12-29T13:54:48Z</time>
      </trkpt>
      <trkpt lat="44.99439" lon="6.1449">
        <ele>2253.8</ele>
        <time>2022-12-29T13:54:49Z</time>
      </trkpt>
      <trkpt lat="44.9944" lon="6.14489">
        <ele>2253.8</ele>
        <time>2022-12-29T13:54:50Z</time>
      </trkpt>
      <trkpt lat="44.99441" lon="6.14489">
        <ele>2253.8</ele>
        <time>2022-12-29T13:54:51Z</time>
      </trkpt>
      <trkpt lat="44.99441" lon="6.14488">
        <ele>2253.8</ele>
        <time>2022-12-29T13:54:52Z</time>
      </trkpt>
      <trkpt lat="44.99442" lon="6.14488">
        <ele>2253.8</ele>
        <time>2022-12-29T13:54:53Z</time>
      </trkpt>
      <trkpt lat="44.99442" lon="6.14488">
        <ele>2253.8</ele>
        <time>2022-12-29T13:54:54Z</time>
      </trkpt>
      <trkpt lat="44.99443" lon="6.14487">
        <ele>2253.8</ele>
        <time>2022-12-29T13:54:55Z</time>
      </trkpt>
      <trkpt lat="44.99443" lon="6.14487">
        <ele>2255</ele>
        <time>2022-12-29T13:54:56Z</time>
      </trkpt>
      <trkpt lat="44.99443" lon="6.14487">
        <ele>2255</ele>
        <time>2022-12-29T13:54:57Z</time>
      </trkpt>
      <trkpt lat="44.99444" lon="6.14488">
        <ele>2255</ele>
        <time>2022-12-29T13:54:58Z</time>
      </trkpt>
      <trkpt lat="44.99444" lon="6.14489">
        <ele>2255</ele>
        <time>2022-12-29T13:54:59Z</time>
      </trkpt>
      <trkpt lat="44.99444" lon="6.1449">
        <ele>2255</ele>
        <time>2022-12-29T13:55:00Z</time>
      </trkpt>
      <trkpt lat="44.99444" lon="6.14491">
        <ele>2255</ele>
        <time>2022-12-29T13:55:01Z</time>
      </trkpt>
      <trkpt lat="44.99445" lon="6.14492">
        <ele>2255</ele>
        <time>2022-12-29T13:55:02Z</time>
      </trkpt>
      <trkpt lat="44.99445" lon="6.14492">
        <ele>2255</ele>
        <time>2022-12-29T13:55:03Z</time>
      </trkpt>
      <trkpt lat="44.99445" lon="6.14493">
        <ele>2255</ele>
        <time>2022-12-29T13:55:04Z</time>
      </trkpt>
      <trkpt lat="44.99445" lon="6.14494">
        <ele>2255</ele>
        <time>2022-12-29T13:55:05Z</time>
      </trkpt>
      <trkpt lat="44.99445" lon="6.14495">
        <ele>2257.6</ele>
        <time>2022-12-29T13:55:06Z</time>
      </trkpt>
      <trkpt lat="44.99446" lon="6.14498">
        <ele>2257.6</ele>
        <time>2022-12-29T13:55:07Z</time>
      </trkpt>
      <trkpt lat="44.99447" lon="6.14498">
        <ele>2257.6</ele>
        <time>2022-12-29T13:55:08Z</time>
      </trkpt>
      <trkpt lat="44.99447" lon="6.14498">
        <ele>2257.6</ele>
        <time>2022-12-29T13:55:09Z</time>
      </trkpt>
      <trkpt lat="44.99447" lon="6.14499">
        <ele>2257.6</ele>
        <time>2022-12-29T13:55:10Z</time>
      </trkpt>
      <trkpt lat="44.99448" lon="6.14499">
        <ele>2257.6</ele>
        <time>2022-12-29T13:55:11Z</time>
      </trkpt>
      <trkpt lat="44.99448" lon="6.14499">
        <ele>2257.6</ele>
        <time>2022-12-29T13:55:12Z</time>
      </trkpt>
      <trkpt lat="44.99448" lon="6.14499">
        <ele>2257.6</ele>
        <time>2022-12-29T13:55:13Z</time>
      </trkpt>
      <trkpt lat="44.99449" lon="6.14499">
        <ele>2257.6</ele>
        <time>2022-12-29T13:55:14Z</time>
      </trkpt>
      <trkpt lat="44.99449" lon="6.14499">
        <ele>2257.6</ele>
        <time>2022-12-29T13:55:15Z</time>
      </trkpt>
      <trkpt lat="44.99449" lon="6.145">
        <ele>2259.4</ele>
        <time>2022-12-29T13:55:16Z</time>
      </trkpt>
      <trkpt lat="44.9945" lon="6.14499">
        <ele>2259.4</ele>
        <time>2022-12-29T13:55:17Z</time>
      </trkpt>
      <trkpt lat="44.9945" lon="6.14499">
        <ele>2259.4</ele>
        <time>2022-12-29T13:55:18Z</time>
      </trkpt>
      <trkpt lat="44.9945" lon="6.14499">
        <ele>2259.4</ele>
        <time>2022-12-29T13:55:19Z</time>
      </trkpt>
      <trkpt lat="44.99451" lon="6.14498">
        <ele>2259.4</ele>
        <time>2022-12-29T13:55:20Z</time>
      </trkpt>
      <trkpt lat="44.99451" lon="6.14498">
        <ele>2259.4</ele>
        <time>2022-12-29T13:55:21Z</time>
      </trkpt>
      <trkpt lat="44.99452" lon="6.14497">
        <ele>2259.4</ele>
        <time>2022-12-29T13:55:22Z</time>
      </trkpt>
      <trkpt lat="44.99452" lon="6.14497">
        <ele>2259.4</ele>
        <time>2022-12-29T13:55:23Z</time>
      </trkpt>
      <trkpt lat="44.99452" lon="6.14497">
        <ele>2259.4</ele>
        <time>2022-12-29T13:55:24Z</time>
      </trkpt>
      <trkpt lat="44.99453" lon="6.14496">
        <ele>2259.4</ele>
        <time>2022-12-29T13:55:25Z</time>
      </trkpt>
      <trkpt lat="44.99453" lon="6.14496">
        <ele>2261</ele>
        <time>2022-12-29T13:55:26Z</time>
      </trkpt>
      <trkpt lat="44.99453" lon="6.14496">
        <ele>2261</ele>
        <time>2022-12-29T13:55:27Z</time>
      </trkpt>
      <trkpt lat="44.99453" lon="6.14496">
        <ele>2261</ele>
        <time>2022-12-29T13:55:28Z</time>
      </trkpt>
      <trkpt lat="44.99453" lon="6.14496">
        <ele>2261</ele>
        <time>2022-12-29T13:55:29Z</time>
      </trkpt>
      <trkpt lat="44.99453" lon="6.14496">
        <ele>2261</ele>
        <time>2022-12-29T13:55:30Z</time>
      </trkpt>
      <trkpt lat="44.99453" lon="6.14496">
        <ele>2261</ele>
        <time>2022-12-29T13:55:31Z</time>
      </trkpt>
      <trkpt lat="44.99453" lon="6.14496">
        <ele>2261</ele>
        <time>2022-12-29T13:55:32Z</time>
      </trkpt>
      <trkpt lat="44.99453" lon="6.14496">
        <ele>2261</ele>
        <time>2022-12-29T13:55:33Z</time>
      </trkpt>
      <trkpt lat="44.99453" lon="6.14496">
        <ele>2261</ele>
        <time>2022-12-29T13:55:34Z</time>
      </trkpt>
      <trkpt lat="44.99453" lon="6.14496">
        <ele>2261</ele>
        <time>2022-12-29T13:55:35Z</time>
      </trkpt>
      <trkpt lat="44.99453" lon="6.14496">
        <ele>2261.8</ele>
        <time>2022-12-29T13:55:36Z</time>
      </trkpt>
      <trkpt lat="44.99453" lon="6.14496">
        <ele>2261.8</ele>
        <time>2022-12-29T13:55:38Z</time>
      </trkpt>
      <trkpt lat="44.99453" lon="6.14496">
        <ele>2261.8</ele>
        <time>2022-12-29T13:55:39Z</time>
      </trkpt>
      <trkpt lat="44.99453" lon="6.14496">
        <ele>2261.8</ele>
        <time>2022-12-29T13:55:40Z</time>
      </trkpt>
      <trkpt lat="44.99453" lon="6.14496">
        <ele>2261.8</ele>
        <time>2022-12-29T13:55:41Z</time>
      </trkpt>
      <trkpt lat="44.99453" lon="6.14496">
        <ele>2261.8</ele>
        <time>2022-12-29T13:55:42Z</time>
      </trkpt>
      <trkpt lat="44.99453" lon="6.14496">
        <ele>2261.8</ele>
        <time>2022-12-29T13:55:43Z</time>
      </trkpt>
      <trkpt lat="44.99453" lon="6.14496">
        <ele>2261.8</ele>
        <time>2022-12-29T13:55:44Z</time>
      </trkpt>
      <trkpt lat="44.99453" lon="6.14496">
        <ele>2261.8</ele>
        <time>2022-12-29T13:55:45Z</time>
      </trkpt>
      <trkpt lat="44.99454" lon="6.14499">
        <ele>2262.8</ele>
        <time>2022-12-29T13:55:46Z</time>
      </trkpt>
      <trkpt lat="44.99455" lon="6.145">
        <ele>2262.8</ele>
        <time>2022-12-29T13:55:47Z</time>
      </trkpt>
      <trkpt lat="44.99455" lon="6.14501">
        <ele>2262.8</ele>
        <time>2022-12-29T13:55:48Z</time>
      </trkpt>
      <trkpt lat="44.99455" lon="6.14501">
        <ele>2262.8</ele>
        <time>2022-12-29T13:55:49Z</time>
      </trkpt>
      <trkpt lat="44.99455" lon="6.14502">
        <ele>2262.8</ele>
        <time>2022-12-29T13:55:50Z</time>
      </trkpt>
      <trkpt lat="44.99456" lon="6.14503">
        <ele>2262.8</ele>
        <time>2022-12-29T13:55:51Z</time>
      </trkpt>
      <trkpt lat="44.99456" lon="6.14504">
        <ele>2262.8</ele>
        <time>2022-12-29T13:55:52Z</time>
      </trkpt>
      <trkpt lat="44.99456" lon="6.14505">
        <ele>2262.8</ele>
        <time>2022-12-29T13:55:53Z</time>
      </trkpt>
      <trkpt lat="44.99456" lon="6.14506">
        <ele>2262.8</ele>
        <time>2022-12-29T13:55:54Z</time>
      </trkpt>
      <trkpt lat="44.99456" lon="6.14506">
        <ele>2262.8</ele>
        <time>2022-12-29T13:55:55Z</time>
      </trkpt>
      <trkpt lat="44.99457" lon="6.14507">
        <ele>2264.4</ele>
        <time>2022-12-29T13:55:56Z</time>
      </trkpt>
      <trkpt lat="44.99457" lon="6.14507">
        <ele>2264.4</ele>
        <time>2022-12-29T13:55:57Z</time>
      </trkpt>
      <trkpt lat="44.99458" lon="6.14506">
        <ele>2264.4</ele>
        <time>2022-12-29T13:55:58Z</time>
      </trkpt>
      <trkpt lat="44.99458" lon="6.14506">
        <ele>2264.4</ele>
        <time>2022-12-29T13:55:59Z</time>
      </trkpt>
      <trkpt lat="44.99459" lon="6.14505">
        <ele>2264.4</ele>
        <time>2022-12-29T13:56:00Z</time>
      </trkpt>
      <trkpt lat="44.99459" lon="6.14505">
        <ele>2264.4</ele>
        <time>2022-12-29T13:56:01Z</time>
      </trkpt>
      <trkpt lat="44.9946" lon="6.14504">
        <ele>2264.4</ele>
        <time>2022-12-29T13:56:02Z</time>
      </trkpt>
      <trkpt lat="44.9946" lon="6.14504">
        <ele>2264.4</ele>
        <time>2022-12-29T13:56:03Z</time>
      </trkpt>
      <trkpt lat="44.99461" lon="6.14503">
        <ele>2264.4</ele>
        <time>2022-12-29T13:56:04Z</time>
      </trkpt>
      <trkpt lat="44.99461" lon="6.14503">
        <ele>2264.4</ele>
        <time>2022-12-29T13:56:05Z</time>
      </trkpt>
      <trkpt lat="44.99461" lon="6.14503">
        <ele>2265.2</ele>
        <time>2022-12-29T13:56:06Z</time>
      </trkpt>
      <trkpt lat="44.99461" lon="6.14503">
        <ele>2265.2</ele>
        <time>2022-12-29T13:56:07Z</time>
      </trkpt>
      <trkpt lat="44.99463" lon="6.14501">
        <ele>2265.2</ele>
        <time>2022-12-29T13:56:08Z</time>
      </trkpt>
      <trkpt lat="44.99463" lon="6.14501">
        <ele>2265.2</ele>
        <time>2022-12-29T13:56:09Z</time>
      </trkpt>
      <trkpt lat="44.99463" lon="6.14501">
        <ele>2265.2</ele>
        <time>2022-12-29T13:56:10Z</time>
      </trkpt>
      <trkpt lat="44.99463" lon="6.14501">
        <ele>2265.2</ele>
        <time>2022-12-29T13:56:11Z</time>
      </trkpt>
      <trkpt lat="44.99463" lon="6.14501">
        <ele>2265.2</ele>
        <time>2022-12-29T13:56:12Z</time>
      </trkpt>
      <trkpt lat="44.99465" lon="6.14501">
        <ele>2265.2</ele>
        <time>2022-12-29T13:56:13Z</time>
      </trkpt>
      <trkpt lat="44.99465" lon="6.14501">
        <ele>2268.2</ele>
        <time>2022-12-29T13:56:16Z</time>
      </trkpt>
      <trkpt lat="44.99466" lon="6.14503">
        <ele>2268.2</ele>
        <time>2022-12-29T13:56:18Z</time>
      </trkpt>
      <trkpt lat="44.99466" lon="6.14503">
        <ele>2268.2</ele>
        <time>2022-12-29T13:56:19Z</time>
      </trkpt>
      <trkpt lat="44.99466" lon="6.14503">
        <ele>2268.2</ele>
        <time>2022-12-29T13:56:20Z</time>
      </trkpt>
      <trkpt lat="44.99466" lon="6.14503">
        <ele>2268.2</ele>
        <time>2022-12-29T13:56:21Z</time>
      </trkpt>
      <trkpt lat="44.99466" lon="6.14503">
        <ele>2268.2</ele>
        <time>2022-12-29T13:56:22Z</time>
      </trkpt>
      <trkpt lat="44.99468" lon="6.14505">
        <ele>2268.2</ele>
        <time>2022-12-29T13:56:23Z</time>
      </trkpt>
      <trkpt lat="44.99468" lon="6.14505">
        <ele>2268.2</ele>
        <time>2022-12-29T13:56:24Z</time>
      </trkpt>
      <trkpt lat="44.99468" lon="6.14505">
        <ele>2268.2</ele>
        <time>2022-12-29T13:56:25Z</time>
      </trkpt>
      <trkpt lat="44.99468" lon="6.14505">
        <ele>2270</ele>
        <time>2022-12-29T13:56:26Z</time>
      </trkpt>
      <trkpt lat="44.99468" lon="6.14505">
        <ele>2270</ele>
        <time>2022-12-29T13:56:27Z</time>
      </trkpt>
      <trkpt lat="44.99468" lon="6.14505">
        <ele>2270</ele>
        <time>2022-12-29T13:56:28Z</time>
      </trkpt>
      <trkpt lat="44.99468" lon="6.14508">
        <ele>2270</ele>
        <time>2022-12-29T13:56:29Z</time>
      </trkpt>
      <trkpt lat="44.99468" lon="6.14508">
        <ele>2270</ele>
        <time>2022-12-29T13:56:30Z</time>
      </trkpt>
      <trkpt lat="44.99468" lon="6.14508">
        <ele>2270</ele>
        <time>2022-12-29T13:56:31Z</time>
      </trkpt>
      <trkpt lat="44.99468" lon="6.14508">
        <ele>2270</ele>
        <time>2022-12-29T13:56:32Z</time>
      </trkpt>
      <trkpt lat="44.99468" lon="6.14508">
        <ele>2270</ele>
        <time>2022-12-29T13:56:33Z</time>
      </trkpt>
      <trkpt lat="44.99468" lon="6.14508">
        <ele>2270</ele>
        <time>2022-12-29T13:56:34Z</time>
      </trkpt>
      <trkpt lat="44.99468" lon="6.14508">
        <ele>2270</ele>
        <time>2022-12-29T13:56:35Z</time>
      </trkpt>
      <trkpt lat="44.99468" lon="6.14508">
        <ele>2271.6</ele>
        <time>2022-12-29T13:56:36Z</time>
      </trkpt>
      <trkpt lat="44.99468" lon="6.14508">
        <ele>2271.6</ele>
        <time>2022-12-29T13:56:37Z</time>
      </trkpt>
      <trkpt lat="44.99468" lon="6.14507">
        <ele>2271.6</ele>
        <time>2022-12-29T13:56:38Z</time>
      </trkpt>
      <trkpt lat="44.99469" lon="6.14507">
        <ele>2271.6</ele>
        <time>2022-12-29T13:56:39Z</time>
      </trkpt>
      <trkpt lat="44.99469" lon="6.14507">
        <ele>2271.6</ele>
        <time>2022-12-29T13:56:40Z</time>
      </trkpt>
      <trkpt lat="44.99469" lon="6.14506">
        <ele>2271.6</ele>
        <time>2022-12-29T13:56:41Z</time>
      </trkpt>
      <trkpt lat="44.99469" lon="6.14506">
        <ele>2271.6</ele>
        <time>2022-12-29T13:56:42Z</time>
      </trkpt>
      <trkpt lat="44.99469" lon="6.14506">
        <ele>2271.6</ele>
        <time>2022-12-29T13:56:43Z</time>
      </trkpt>
      <trkpt lat="44.99469" lon="6.14506">
        <ele>2271.6</ele>
        <time>2022-12-29T13:56:44Z</time>
      </trkpt>
      <trkpt lat="44.99469" lon="6.14505">
        <ele>2271.6</ele>
        <time>2022-12-29T13:56:45Z</time>
      </trkpt>
      <trkpt lat="44.99469" lon="6.14505">
        <ele>2271.8</ele>
        <time>2022-12-29T13:56:46Z</time>
      </trkpt>
      <trkpt lat="44.9947" lon="6.14505">
        <ele>2271.8</ele>
        <time>2022-12-29T13:56:47Z</time>
      </trkpt>
      <trkpt lat="44.9947" lon="6.14504">
        <ele>2271.8</ele>
        <time>2022-12-29T13:56:48Z</time>
      </trkpt>
      <trkpt lat="44.9947" lon="6.14504">
        <ele>2271.8</ele>
        <time>2022-12-29T13:56:49Z</time>
      </trkpt>
      <trkpt lat="44.9947" lon="6.14504">
        <ele>2271.8</ele>
        <time>2022-12-29T13:56:50Z</time>
      </trkpt>
      <trkpt lat="44.9947" lon="6.14503">
        <ele>2271.8</ele>
        <time>2022-12-29T13:56:51Z</time>
      </trkpt>
      <trkpt lat="44.9947" lon="6.14503">
        <ele>2271.8</ele>
        <time>2022-12-29T13:56:52Z</time>
      </trkpt>
      <trkpt lat="44.9947" lon="6.14503">
        <ele>2271.8</ele>
        <time>2022-12-29T13:56:53Z</time>
      </trkpt>
      <trkpt lat="44.9947" lon="6.14502">
        <ele>2271.8</ele>
        <time>2022-12-29T13:56:54Z</time>
      </trkpt>
      <trkpt lat="44.9947" lon="6.14502">
        <ele>2271.8</ele>
        <time>2022-12-29T13:56:55Z</time>
      </trkpt>
      <trkpt lat="44.99471" lon="6.14502">
        <ele>2271.4</ele>
        <time>2022-12-29T13:56:56Z</time>
      </trkpt>
      <trkpt lat="44.99471" lon="6.14501">
        <ele>2271.4</ele>
        <time>2022-12-29T13:56:57Z</time>
      </trkpt>
      <trkpt lat="44.99471" lon="6.14501">
        <ele>2271.4</ele>
        <time>2022-12-29T13:56:58Z</time>
      </trkpt>
      <trkpt lat="44.99471" lon="6.14501">
        <ele>2271.4</ele>
        <time>2022-12-29T13:56:59Z</time>
      </trkpt>
      <trkpt lat="44.99471" lon="6.145">
        <ele>2271.4</ele>
        <time>2022-12-29T13:57:00Z</time>
      </trkpt>
      <trkpt lat="44.99471" lon="6.145">
        <ele>2271.4</ele>
        <time>2022-12-29T13:57:01Z</time>
      </trkpt>
      <trkpt lat="44.99471" lon="6.145">
        <ele>2271.4</ele>
        <time>2022-12-29T13:57:02Z</time>
      </trkpt>
      <trkpt lat="44.99471" lon="6.14499">
        <ele>2271.4</ele>
        <time>2022-12-29T13:57:03Z</time>
      </trkpt>
      <trkpt lat="44.99472" lon="6.14499">
        <ele>2271.4</ele>
        <time>2022-12-29T13:57:04Z</time>
      </trkpt>
      <trkpt lat="44.99472" lon="6.14499">
        <ele>2271.4</ele>
        <time>2022-12-29T13:57:05Z</time>
      </trkpt>
      <trkpt lat="44.99472" lon="6.14499">
        <ele>2272.4</ele>
        <time>2022-12-29T13:57:06Z</time>
      </trkpt>
      <trkpt lat="44.99472" lon="6.14498">
        <ele>2272.4</ele>
        <time>2022-12-29T13:57:07Z</time>
      </trkpt>
      <trkpt lat="44.99472" lon="6.14498">
        <ele>2272.4</ele>
        <time>2022-12-29T13:57:08Z</time>
      </trkpt>
      <trkpt lat="44.99472" lon="6.14498">
        <ele>2272.4</ele>
        <time>2022-12-29T13:57:09Z</time>
      </trkpt>
      <trkpt lat="44.99472" lon="6.14497">
        <ele>2272.4</ele>
        <time>2022-12-29T13:57:10Z</time>
      </trkpt>
      <trkpt lat="44.99472" lon="6.14497">
        <ele>2272.4</ele>
        <time>2022-12-29T13:57:11Z</time>
      </trkpt>
      <trkpt lat="44.99473" lon="6.14497">
        <ele>2272.4</ele>
        <time>2022-12-29T13:57:12Z</time>
      </trkpt>
      <trkpt lat="44.99473" lon="6.14496">
        <ele>2272.4</ele>
        <time>2022-12-29T13:57:13Z</time>
      </trkpt>
      <trkpt lat="44.99473" lon="6.14496">
        <ele>2272.4</ele>
        <time>2022-12-29T13:57:14Z</time>
      </trkpt>
      <trkpt lat="44.99473" lon="6.14496">
        <ele>2272.4</ele>
        <time>2022-12-29T13:57:15Z</time>
      </trkpt>
      <trkpt lat="44.99473" lon="6.14495">
        <ele>2274.2</ele>
        <time>2022-12-29T13:57:16Z</time>
      </trkpt>
      <trkpt lat="44.99473" lon="6.14495">
        <ele>2274.2</ele>
        <time>2022-12-29T13:57:17Z</time>
      </trkpt>
      <trkpt lat="44.99474" lon="6.14495">
        <ele>2274.2</ele>
        <time>2022-12-29T13:57:18Z</time>
      </trkpt>
      <trkpt lat="44.99474" lon="6.14495">
        <ele>2274.2</ele>
        <time>2022-12-29T13:57:19Z</time>
      </trkpt>
      <trkpt lat="44.99475" lon="6.14495">
        <ele>2274.2</ele>
        <time>2022-12-29T13:57:20Z</time>
      </trkpt>
      <trkpt lat="44.99475" lon="6.14496">
        <ele>2274.2</ele>
        <time>2022-12-29T13:57:21Z</time>
      </trkpt>
      <trkpt lat="44.99476" lon="6.14496">
        <ele>2274.2</ele>
        <time>2022-12-29T13:57:22Z</time>
      </trkpt>
      <trkpt lat="44.99476" lon="6.14496">
        <ele>2274.2</ele>
        <time>2022-12-29T13:57:23Z</time>
      </trkpt>
      <trkpt lat="44.99476" lon="6.14496">
        <ele>2274.2</ele>
        <time>2022-12-29T13:57:24Z</time>
      </trkpt>
      <trkpt lat="44.99477" lon="6.14496">
        <ele>2274.2</ele>
        <time>2022-12-29T13:57:25Z</time>
      </trkpt>
      <trkpt lat="44.99477" lon="6.14496">
        <ele>2277.6</ele>
        <time>2022-12-29T13:57:26Z</time>
      </trkpt>
      <trkpt lat="44.99477" lon="6.14496">
        <ele>2277.6</ele>
        <time>2022-12-29T13:57:27Z</time>
      </trkpt>
      <trkpt lat="44.99478" lon="6.14497">
        <ele>2277.6</ele>
        <time>2022-12-29T13:57:28Z</time>
      </trkpt>
      <trkpt lat="44.99478" lon="6.14497">
        <ele>2277.6</ele>
        <time>2022-12-29T13:57:29Z</time>
      </trkpt>
      <trkpt lat="44.99478" lon="6.14498">
        <ele>2277.6</ele>
        <time>2022-12-29T13:57:30Z</time>
      </trkpt>
      <trkpt lat="44.99478" lon="6.14498">
        <ele>2277.6</ele>
        <time>2022-12-29T13:57:31Z</time>
      </trkpt>
      <trkpt lat="44.99479" lon="6.14498">
        <ele>2277.6</ele>
        <time>2022-12-29T13:57:32Z</time>
      </trkpt>
      <trkpt lat="44.99479" lon="6.14499">
        <ele>2277.6</ele>
        <time>2022-12-29T13:57:33Z</time>
      </trkpt>
      <trkpt lat="44.99479" lon="6.14499">
        <ele>2277.6</ele>
        <time>2022-12-29T13:57:34Z</time>
      </trkpt>
      <trkpt lat="44.99479" lon="6.145">
        <ele>2277.6</ele>
        <time>2022-12-29T13:57:35Z</time>
      </trkpt>
      <trkpt lat="44.99479" lon="6.145">
        <ele>2279.2</ele>
        <time>2022-12-29T13:57:36Z</time>
      </trkpt>
      <trkpt lat="44.99482" lon="6.14501">
        <ele>2279.2</ele>
        <time>2022-12-29T13:57:37Z</time>
      </trkpt>
      <trkpt lat="44.99482" lon="6.14501">
        <ele>2279.2</ele>
        <time>2022-12-29T13:57:38Z</time>
      </trkpt>
      <trkpt lat="44.99483" lon="6.14501">
        <ele>2279.2</ele>
        <time>2022-12-29T13:57:39Z</time>
      </trkpt>
      <trkpt lat="44.99483" lon="6.14501">
        <ele>2279.2</ele>
        <time>2022-12-29T13:57:40Z</time>
      </trkpt>
      <trkpt lat="44.99484" lon="6.14501">
        <ele>2279.2</ele>
        <time>2022-12-29T13:57:41Z</time>
      </trkpt>
      <trkpt lat="44.99484" lon="6.14501">
        <ele>2279.2</ele>
        <time>2022-12-29T13:57:42Z</time>
      </trkpt>
      <trkpt lat="44.99484" lon="6.14501">
        <ele>2279.2</ele>
        <time>2022-12-29T13:57:43Z</time>
      </trkpt>
      <trkpt lat="44.99485" lon="6.14501">
        <ele>2279.2</ele>
        <time>2022-12-29T13:57:44Z</time>
      </trkpt>
      <trkpt lat="44.99485" lon="6.14501">
        <ele>2279.2</ele>
        <time>2022-12-29T13:57:45Z</time>
      </trkpt>
      <trkpt lat="44.99485" lon="6.14501">
        <ele>2280.8</ele>
        <time>2022-12-29T13:57:46Z</time>
      </trkpt>
      <trkpt lat="44.99486" lon="6.14502">
        <ele>2280.8</ele>
        <time>2022-12-29T13:57:47Z</time>
      </trkpt>
      <trkpt lat="44.99486" lon="6.14502">
        <ele>2280.8</ele>
        <time>2022-12-29T13:57:48Z</time>
      </trkpt>
      <trkpt lat="44.99487" lon="6.14502">
        <ele>2280.8</ele>
        <time>2022-12-29T13:57:49Z</time>
      </trkpt>
      <trkpt lat="44.99487" lon="6.14503">
        <ele>2280.8</ele>
        <time>2022-12-29T13:57:50Z</time>
      </trkpt>
      <trkpt lat="44.99487" lon="6.14503">
        <ele>2280.8</ele>
        <time>2022-12-29T13:57:51Z</time>
      </trkpt>
      <trkpt lat="44.99488" lon="6.14504">
        <ele>2280.8</ele>
        <time>2022-12-29T13:57:52Z</time>
      </trkpt>
      <trkpt lat="44.99488" lon="6.14504">
        <ele>2280.8</ele>
        <time>2022-12-29T13:57:53Z</time>
      </trkpt>
      <trkpt lat="44.99489" lon="6.14505">
        <ele>2280.8</ele>
        <time>2022-12-29T13:57:54Z</time>
      </trkpt>
      <trkpt lat="44.99489" lon="6.14505">
        <ele>2280.8</ele>
        <time>2022-12-29T13:57:55Z</time>
      </trkpt>
      <trkpt lat="44.99489" lon="6.14505">
        <ele>2283.4</ele>
        <time>2022-12-29T13:57:56Z</time>
      </trkpt>
      <trkpt lat="44.99489" lon="6.14508">
        <ele>2283.4</ele>
        <time>2022-12-29T13:57:57Z</time>
      </trkpt>
      <trkpt lat="44.99489" lon="6.14508">
        <ele>2283.4</ele>
        <time>2022-12-29T13:57:58Z</time>
      </trkpt>
      <trkpt lat="44.99489" lon="6.14508">
        <ele>2283.4</ele>
        <time>2022-12-29T13:57:59Z</time>
      </trkpt>
      <trkpt lat="44.99489" lon="6.14508">
        <ele>2283.4</ele>
        <time>2022-12-29T13:58:00Z</time>
      </trkpt>
      <trkpt lat="44.99489" lon="6.14508">
        <ele>2283.4</ele>
        <time>2022-12-29T13:58:01Z</time>
      </trkpt>
      <trkpt lat="44.99489" lon="6.14508">
        <ele>2283.4</ele>
        <time>2022-12-29T13:58:02Z</time>
      </trkpt>
      <trkpt lat="44.99491" lon="6.1451">
        <ele>2283.4</ele>
        <time>2022-12-29T13:58:03Z</time>
      </trkpt>
      <trkpt lat="44.99491" lon="6.1451">
        <ele>2283.4</ele>
        <time>2022-12-29T13:58:04Z</time>
      </trkpt>
      <trkpt lat="44.99491" lon="6.1451">
        <ele>2283.4</ele>
        <time>2022-12-29T13:58:05Z</time>
      </trkpt>
      <trkpt lat="44.99491" lon="6.1451">
        <ele>2285</ele>
        <time>2022-12-29T13:58:06Z</time>
      </trkpt>
      <trkpt lat="44.99493" lon="6.14512">
        <ele>2285</ele>
        <time>2022-12-29T13:58:07Z</time>
      </trkpt>
      <trkpt lat="44.99493" lon="6.14512">
        <ele>2285</ele>
        <time>2022-12-29T13:58:08Z</time>
      </trkpt>
      <trkpt lat="44.99493" lon="6.14513">
        <ele>2285</ele>
        <time>2022-12-29T13:58:09Z</time>
      </trkpt>
      <trkpt lat="44.99493" lon="6.14513">
        <ele>2285</ele>
        <time>2022-12-29T13:58:10Z</time>
      </trkpt>
      <trkpt lat="44.99493" lon="6.14514">
        <ele>2285</ele>
        <time>2022-12-29T13:58:11Z</time>
      </trkpt>
      <trkpt lat="44.99494" lon="6.14514">
        <ele>2285</ele>
        <time>2022-12-29T13:58:12Z</time>
      </trkpt>
      <trkpt lat="44.99494" lon="6.14515">
        <ele>2285</ele>
        <time>2022-12-29T13:58:13Z</time>
      </trkpt>
      <trkpt lat="44.99494" lon="6.14515">
        <ele>2285</ele>
        <time>2022-12-29T13:58:14Z</time>
      </trkpt>
      <trkpt lat="44.99494" lon="6.14516">
        <ele>2285</ele>
        <time>2022-12-29T13:58:15Z</time>
      </trkpt>
      <trkpt lat="44.99494" lon="6.14516">
        <ele>2287.8</ele>
        <time>2022-12-29T13:58:16Z</time>
      </trkpt>
      <trkpt lat="44.99494" lon="6.1452">
        <ele>2287.8</ele>
        <time>2022-12-29T13:58:17Z</time>
      </trkpt>
      <trkpt lat="44.99494" lon="6.1452">
        <ele>2287.8</ele>
        <time>2022-12-29T13:58:19Z</time>
      </trkpt>
      <trkpt lat="44.99494" lon="6.14521">
        <ele>2287.8</ele>
        <time>2022-12-29T13:58:20Z</time>
      </trkpt>
      <trkpt lat="44.99494" lon="6.14522">
        <ele>2287.8</ele>
        <time>2022-12-29T13:58:21Z</time>
      </trkpt>
      <trkpt lat="44.99494" lon="6.14522">
        <ele>2287.8</ele>
        <time>2022-12-29T13:58:22Z</time>
      </trkpt>
      <trkpt lat="44.99494" lon="6.14523">
        <ele>2287.8</ele>
        <time>2022-12-29T13:58:23Z</time>
      </trkpt>
      <trkpt lat="44.99494" lon="6.14524">
        <ele>2287.8</ele>
        <time>2022-12-29T13:58:24Z</time>
      </trkpt>
      <trkpt lat="44.99494" lon="6.14524">
        <ele>2287.8</ele>
        <time>2022-12-29T13:58:25Z</time>
      </trkpt>
      <trkpt lat="44.99494" lon="6.14525">
        <ele>2289.4</ele>
        <time>2022-12-29T13:58:26Z</time>
      </trkpt>
      <trkpt lat="44.99494" lon="6.14525">
        <ele>2289.4</ele>
        <time>2022-12-29T13:58:27Z</time>
      </trkpt>
      <trkpt lat="44.99495" lon="6.14526">
        <ele>2289.4</ele>
        <time>2022-12-29T13:58:28Z</time>
      </trkpt>
      <trkpt lat="44.99495" lon="6.14526">
        <ele>2289.4</ele>
        <time>2022-12-29T13:58:29Z</time>
      </trkpt>
      <trkpt lat="44.99496" lon="6.14526">
        <ele>2289.4</ele>
        <time>2022-12-29T13:58:30Z</time>
      </trkpt>
      <trkpt lat="44.99496" lon="6.14526">
        <ele>2289.4</ele>
        <time>2022-12-29T13:58:31Z</time>
      </trkpt>
      <trkpt lat="44.99496" lon="6.14527">
        <ele>2289.4</ele>
        <time>2022-12-29T13:58:32Z</time>
      </trkpt>
      <trkpt lat="44.99497" lon="6.14527">
        <ele>2289.4</ele>
        <time>2022-12-29T13:58:33Z</time>
      </trkpt>
      <trkpt lat="44.99497" lon="6.14527">
        <ele>2289.4</ele>
        <time>2022-12-29T13:58:34Z</time>
      </trkpt>
      <trkpt lat="44.99497" lon="6.14528">
        <ele>2289.4</ele>
        <time>2022-12-29T13:58:35Z</time>
      </trkpt>
      <trkpt lat="44.99498" lon="6.14528">
        <ele>2290.8</ele>
        <time>2022-12-29T13:58:36Z</time>
      </trkpt>
      <trkpt lat="44.99498" lon="6.14528">
        <ele>2290.8</ele>
        <time>2022-12-29T13:58:37Z</time>
      </trkpt>
      <trkpt lat="44.99498" lon="6.14528">
        <ele>2290.8</ele>
        <time>2022-12-29T13:58:38Z</time>
      </trkpt>
      <trkpt lat="44.99498" lon="6.14531">
        <ele>2290.8</ele>
        <time>2022-12-29T13:58:40Z</time>
      </trkpt>
      <trkpt lat="44.99498" lon="6.14531">
        <ele>2290.8</ele>
        <time>2022-12-29T13:58:41Z</time>
      </trkpt>
      <trkpt lat="44.99498" lon="6.14531">
        <ele>2290.8</ele>
        <time>2022-12-29T13:58:42Z</time>
      </trkpt>
      <trkpt lat="44.99498" lon="6.14531">
        <ele>2290.8</ele>
        <time>2022-12-29T13:58:43Z</time>
      </trkpt>
      <trkpt lat="44.99498" lon="6.14534">
        <ele>2290.8</ele>
        <time>2022-12-29T13:58:44Z</time>
      </trkpt>
      <trkpt lat="44.99498" lon="6.14534">
        <ele>2290.8</ele>
        <time>2022-12-29T13:58:45Z</time>
      </trkpt>
      <trkpt lat="44.99498" lon="6.14534">
        <ele>2293.6</ele>
        <time>2022-12-29T13:58:46Z</time>
      </trkpt>
      <trkpt lat="44.99497" lon="6.14537">
        <ele>2293.6</ele>
        <time>2022-12-29T13:58:47Z</time>
      </trkpt>
      <trkpt lat="44.99497" lon="6.14538">
        <ele>2293.6</ele>
        <time>2022-12-29T13:58:48Z</time>
      </trkpt>
      <trkpt lat="44.99497" lon="6.14538">
        <ele>2293.6</ele>
        <time>2022-12-29T13:58:49Z</time>
      </trkpt>
      <trkpt lat="44.99497" lon="6.14539">
        <ele>2293.6</ele>
        <time>2022-12-29T13:58:50Z</time>
      </trkpt>
      <trkpt lat="44.99497" lon="6.14539">
        <ele>2293.6</ele>
        <time>2022-12-29T13:58:51Z</time>
      </trkpt>
      <trkpt lat="44.99497" lon="6.1454">
        <ele>2293.6</ele>
        <time>2022-12-29T13:58:52Z</time>
      </trkpt>
      <trkpt lat="44.99497" lon="6.1454">
        <ele>2293.6</ele>
        <time>2022-12-29T13:58:53Z</time>
      </trkpt>
      <trkpt lat="44.99496" lon="6.14541">
        <ele>2293.6</ele>
        <time>2022-12-29T13:58:54Z</time>
      </trkpt>
      <trkpt lat="44.99496" lon="6.14541">
        <ele>2293.6</ele>
        <time>2022-12-29T13:58:55Z</time>
      </trkpt>
      <trkpt lat="44.99496" lon="6.14542">
        <ele>2295.6</ele>
        <time>2022-12-29T13:58:56Z</time>
      </trkpt>
      <trkpt lat="44.99496" lon="6.14543">
        <ele>2295.6</ele>
        <time>2022-12-29T13:58:57Z</time>
      </trkpt>
      <trkpt lat="44.99496" lon="6.14544">
        <ele>2295.6</ele>
        <time>2022-12-29T13:58:58Z</time>
      </trkpt>
      <trkpt lat="44.99496" lon="6.14544">
        <ele>2295.6</ele>
        <time>2022-12-29T13:58:59Z</time>
      </trkpt>
      <trkpt lat="44.99495" lon="6.14545">
        <ele>2295.6</ele>
        <time>2022-12-29T13:59:00Z</time>
      </trkpt>
      <trkpt lat="44.99495" lon="6.14546">
        <ele>2295.6</ele>
        <time>2022-12-29T13:59:01Z</time>
      </trkpt>
      <trkpt lat="44.99495" lon="6.14547">
        <ele>2295.6</ele>
        <time>2022-12-29T13:59:02Z</time>
      </trkpt>
      <trkpt lat="44.99495" lon="6.14548">
        <ele>2295.6</ele>
        <time>2022-12-29T13:59:03Z</time>
      </trkpt>
      <trkpt lat="44.99495" lon="6.14549">
        <ele>2295.6</ele>
        <time>2022-12-29T13:59:04Z</time>
      </trkpt>
      <trkpt lat="44.99495" lon="6.1455">
        <ele>2295.6</ele>
        <time>2022-12-29T13:59:05Z</time>
      </trkpt>
      <trkpt lat="44.99494" lon="6.1455">
        <ele>2297.2</ele>
        <time>2022-12-29T13:59:06Z</time>
      </trkpt>
      <trkpt lat="44.99494" lon="6.14551">
        <ele>2297.2</ele>
        <time>2022-12-29T13:59:07Z</time>
      </trkpt>
      <trkpt lat="44.99494" lon="6.14552">
        <ele>2297.2</ele>
        <time>2022-12-29T13:59:08Z</time>
      </trkpt>
      <trkpt lat="44.99494" lon="6.14553">
        <ele>2297.2</ele>
        <time>2022-12-29T13:59:09Z</time>
      </trkpt>
      <trkpt lat="44.99494" lon="6.14554">
        <ele>2297.2</ele>
        <time>2022-12-29T13:59:10Z</time>
      </trkpt>
      <trkpt lat="44.99493" lon="6.14554">
        <ele>2297.2</ele>
        <time>2022-12-29T13:59:11Z</time>
      </trkpt>
      <trkpt lat="44.99493" lon="6.14555">
        <ele>2297.2</ele>
        <time>2022-12-29T13:59:12Z</time>
      </trkpt>
      <trkpt lat="44.99493" lon="6.14556">
        <ele>2297.2</ele>
        <time>2022-12-29T13:59:13Z</time>
      </trkpt>
      <trkpt lat="44.99493" lon="6.14557">
        <ele>2297.2</ele>
        <time>2022-12-29T13:59:14Z</time>
      </trkpt>
      <trkpt lat="44.99492" lon="6.14558">
        <ele>2297.2</ele>
        <time>2022-12-29T13:59:15Z</time>
      </trkpt>
      <trkpt lat="44.99492" lon="6.14559">
        <ele>2298.2</ele>
        <time>2022-12-29T13:59:16Z</time>
      </trkpt>
      <trkpt lat="44.99492" lon="6.14559">
        <ele>2298.2</ele>
        <time>2022-12-29T13:59:17Z</time>
      </trkpt>
      <trkpt lat="44.99492" lon="6.1456">
        <ele>2298.2</ele>
        <time>2022-12-29T13:59:18Z</time>
      </trkpt>
      <trkpt lat="44.99492" lon="6.14561">
        <ele>2298.2</ele>
        <time>2022-12-29T13:59:19Z</time>
      </trkpt>
      <trkpt lat="44.99492" lon="6.14561">
        <ele>2298.2</ele>
        <time>2022-12-29T13:59:20Z</time>
      </trkpt>
      <trkpt lat="44.99492" lon="6.14562">
        <ele>2298.2</ele>
        <time>2022-12-29T13:59:21Z</time>
      </trkpt>
      <trkpt lat="44.99491" lon="6.14563">
        <ele>2298.2</ele>
        <time>2022-12-29T13:59:22Z</time>
      </trkpt>
      <trkpt lat="44.99491" lon="6.14563">
        <ele>2298.2</ele>
        <time>2022-12-29T13:59:23Z</time>
      </trkpt>
      <trkpt lat="44.99491" lon="6.14564">
        <ele>2298.2</ele>
        <time>2022-12-29T13:59:24Z</time>
      </trkpt>
      <trkpt lat="44.99491" lon="6.14565">
        <ele>2298.2</ele>
        <time>2022-12-29T13:59:25Z</time>
      </trkpt>
      <trkpt lat="44.99491" lon="6.14565">
        <ele>2299.8</ele>
        <time>2022-12-29T13:59:26Z</time>
      </trkpt>
      <trkpt lat="44.9949" lon="6.14568">
        <ele>2299.8</ele>
        <time>2022-12-29T13:59:27Z</time>
      </trkpt>
      <trkpt lat="44.9949" lon="6.14569">
        <ele>2299.8</ele>
        <time>2022-12-29T13:59:28Z</time>
      </trkpt>
      <trkpt lat="44.9949" lon="6.14569">
        <ele>2299.8</ele>
        <time>2022-12-29T13:59:29Z</time>
      </trkpt>
      <trkpt lat="44.99489" lon="6.14569">
        <ele>2299.8</ele>
        <time>2022-12-29T13:59:30Z</time>
      </trkpt>
      <trkpt lat="44.99489" lon="6.1457">
        <ele>2299.8</ele>
        <time>2022-12-29T13:59:31Z</time>
      </trkpt>
      <trkpt lat="44.99489" lon="6.1457">
        <ele>2299.8</ele>
        <time>2022-12-29T13:59:32Z</time>
      </trkpt>
      <trkpt lat="44.99488" lon="6.14571">
        <ele>2299.8</ele>
        <time>2022-12-29T13:59:33Z</time>
      </trkpt>
      <trkpt lat="44.99488" lon="6.14571">
        <ele>2299.8</ele>
        <time>2022-12-29T13:59:34Z</time>
      </trkpt>
      <trkpt lat="44.99488" lon="6.14572">
        <ele>2299.8</ele>
        <time>2022-12-29T13:59:35Z</time>
      </trkpt>
      <trkpt lat="44.99488" lon="6.14572">
        <ele>2300.8</ele>
        <time>2022-12-29T13:59:36Z</time>
      </trkpt>
      <trkpt lat="44.99488" lon="6.14573">
        <ele>2300.8</ele>
        <time>2022-12-29T13:59:37Z</time>
      </trkpt>
      <trkpt lat="44.99488" lon="6.14574">
        <ele>2300.8</ele>
        <time>2022-12-29T13:59:38Z</time>
      </trkpt>
      <trkpt lat="44.99488" lon="6.14575">
        <ele>2300.8</ele>
        <time>2022-12-29T13:59:39Z</time>
      </trkpt>
      <trkpt lat="44.99488" lon="6.14575">
        <ele>2300.8</ele>
        <time>2022-12-29T13:59:40Z</time>
      </trkpt>
      <trkpt lat="44.99488" lon="6.14576">
        <ele>2300.8</ele>
        <time>2022-12-29T13:59:41Z</time>
      </trkpt>
      <trkpt lat="44.99488" lon="6.14577">
        <ele>2300.8</ele>
        <time>2022-12-29T13:59:42Z</time>
      </trkpt>
      <trkpt lat="44.99488" lon="6.14578">
        <ele>2300.8</ele>
        <time>2022-12-29T13:59:43Z</time>
      </trkpt>
      <trkpt lat="44.99488" lon="6.14579">
        <ele>2300.8</ele>
        <time>2022-12-29T13:59:44Z</time>
      </trkpt>
      <trkpt lat="44.99488" lon="6.1458">
        <ele>2300.8</ele>
        <time>2022-12-29T13:59:45Z</time>
      </trkpt>
      <trkpt lat="44.99488" lon="6.1458">
        <ele>2302.6</ele>
        <time>2022-12-29T13:59:46Z</time>
      </trkpt>
      <trkpt lat="44.99488" lon="6.1458">
        <ele>2302.6</ele>
        <time>2022-12-29T13:59:47Z</time>
      </trkpt>
      <trkpt lat="44.99488" lon="6.1458">
        <ele>2302.6</ele>
        <time>2022-12-29T13:59:48Z</time>
      </trkpt>
      <trkpt lat="44.99488" lon="6.14583">
        <ele>2302.6</ele>
        <time>2022-12-29T13:59:49Z</time>
      </trkpt>
      <trkpt lat="44.99488" lon="6.14583">
        <ele>2302.6</ele>
        <time>2022-12-29T13:59:50Z</time>
      </trkpt>
      <trkpt lat="44.99488" lon="6.14583">
        <ele>2302.6</ele>
        <time>2022-12-29T13:59:51Z</time>
      </trkpt>
      <trkpt lat="44.99488" lon="6.14583">
        <ele>2302.6</ele>
        <time>2022-12-29T13:59:52Z</time>
      </trkpt>
      <trkpt lat="44.99488" lon="6.14583">
        <ele>2302.6</ele>
        <time>2022-12-29T13:59:53Z</time>
      </trkpt>
      <trkpt lat="44.99489" lon="6.14586">
        <ele>2302.6</ele>
        <time>2022-12-29T13:59:54Z</time>
      </trkpt>
      <trkpt lat="44.99489" lon="6.14586">
        <ele>2302.6</ele>
        <time>2022-12-29T13:59:55Z</time>
      </trkpt>
      <trkpt lat="44.99489" lon="6.14586">
        <ele>2303.8</ele>
        <time>2022-12-29T13:59:56Z</time>
      </trkpt>
      <trkpt lat="44.99489" lon="6.14587">
        <ele>2303.8</ele>
        <time>2022-12-29T13:59:57Z</time>
      </trkpt>
      <trkpt lat="44.99489" lon="6.14588">
        <ele>2303.8</ele>
        <time>2022-12-29T13:59:58Z</time>
      </trkpt>
      <trkpt lat="44.99489" lon="6.14589">
        <ele>2303.8</ele>
        <time>2022-12-29T13:59:59Z</time>
      </trkpt>
      <trkpt lat="44.99489" lon="6.1459">
        <ele>2303.8</ele>
        <time>2022-12-29T14:00:00Z</time>
      </trkpt>
      <trkpt lat="44.99489" lon="6.14591">
        <ele>2303.8</ele>
        <time>2022-12-29T14:00:01Z</time>
      </trkpt>
      <trkpt lat="44.9949" lon="6.14592">
        <ele>2303.8</ele>
        <time>2022-12-29T14:00:02Z</time>
      </trkpt>
      <trkpt lat="44.9949" lon="6.14593">
        <ele>2303.8</ele>
        <time>2022-12-29T14:00:03Z</time>
      </trkpt>
      <trkpt lat="44.9949" lon="6.14593">
        <ele>2303.8</ele>
        <time>2022-12-29T14:00:04Z</time>
      </trkpt>
      <trkpt lat="44.9949" lon="6.14594">
        <ele>2303.8</ele>
        <time>2022-12-29T14:00:05Z</time>
      </trkpt>
      <trkpt lat="44.9949" lon="6.14595">
        <ele>2305</ele>
        <time>2022-12-29T14:00:06Z</time>
      </trkpt>
      <trkpt lat="44.9949" lon="6.14599">
        <ele>2305</ele>
        <time>2022-12-29T14:00:07Z</time>
      </trkpt>
      <trkpt lat="44.9949" lon="6.146">
        <ele>2305</ele>
        <time>2022-12-29T14:00:08Z</time>
      </trkpt>
      <trkpt lat="44.9949" lon="6.146">
        <ele>2305</ele>
        <time>2022-12-29T14:00:09Z</time>
      </trkpt>
      <trkpt lat="44.99491" lon="6.14601">
        <ele>2305</ele>
        <time>2022-12-29T14:00:10Z</time>
      </trkpt>
      <trkpt lat="44.99491" lon="6.14601">
        <ele>2305</ele>
        <time>2022-12-29T14:00:11Z</time>
      </trkpt>
      <trkpt lat="44.99491" lon="6.14602">
        <ele>2305</ele>
        <time>2022-12-29T14:00:12Z</time>
      </trkpt>
      <trkpt lat="44.99491" lon="6.14603">
        <ele>2305</ele>
        <time>2022-12-29T14:00:13Z</time>
      </trkpt>
      <trkpt lat="44.99491" lon="6.14603">
        <ele>2305</ele>
        <time>2022-12-29T14:00:14Z</time>
      </trkpt>
      <trkpt lat="44.99491" lon="6.14604">
        <ele>2305</ele>
        <time>2022-12-29T14:00:15Z</time>
      </trkpt>
      <trkpt lat="44.99491" lon="6.14604">
        <ele>2306.8</ele>
        <time>2022-12-29T14:00:16Z</time>
      </trkpt>
      <trkpt lat="44.99492" lon="6.14607">
        <ele>2306.8</ele>
        <time>2022-12-29T14:00:17Z</time>
      </trkpt>
      <trkpt lat="44.99492" lon="6.14607">
        <ele>2306.8</ele>
        <time>2022-12-29T14:00:18Z</time>
      </trkpt>
      <trkpt lat="44.99492" lon="6.14607">
        <ele>2306.8</ele>
        <time>2022-12-29T14:00:19Z</time>
      </trkpt>
      <trkpt lat="44.99493" lon="6.14608">
        <ele>2306.8</ele>
        <time>2022-12-29T14:00:20Z</time>
      </trkpt>
      <trkpt lat="44.99493" lon="6.14608">
        <ele>2306.8</ele>
        <time>2022-12-29T14:00:21Z</time>
      </trkpt>
      <trkpt lat="44.99494" lon="6.14608">
        <ele>2306.8</ele>
        <time>2022-12-29T14:00:22Z</time>
      </trkpt>
      <trkpt lat="44.99494" lon="6.14608">
        <ele>2306.8</ele>
        <time>2022-12-29T14:00:23Z</time>
      </trkpt>
      <trkpt lat="44.99495" lon="6.14608">
        <ele>2306.8</ele>
        <time>2022-12-29T14:00:24Z</time>
      </trkpt>
      <trkpt lat="44.99495" lon="6.14608">
        <ele>2306.8</ele>
        <time>2022-12-29T14:00:25Z</time>
      </trkpt>
      <trkpt lat="44.99495" lon="6.14608">
        <ele>2307.8</ele>
        <time>2022-12-29T14:00:26Z</time>
      </trkpt>
      <trkpt lat="44.99498" lon="6.14608">
        <ele>2307.8</ele>
        <time>2022-12-29T14:00:27Z</time>
      </trkpt>
      <trkpt lat="44.99498" lon="6.14608">
        <ele>2307.8</ele>
        <time>2022-12-29T14:00:28Z</time>
      </trkpt>
      <trkpt lat="44.99498" lon="6.14607">
        <ele>2307.8</ele>
        <time>2022-12-29T14:00:29Z</time>
      </trkpt>
      <trkpt lat="44.99499" lon="6.14607">
        <ele>2307.8</ele>
        <time>2022-12-29T14:00:30Z</time>
      </trkpt>
      <trkpt lat="44.99499" lon="6.14607">
        <ele>2307.8</ele>
        <time>2022-12-29T14:00:31Z</time>
      </trkpt>
      <trkpt lat="44.99499" lon="6.14607">
        <ele>2307.8</ele>
        <time>2022-12-29T14:00:32Z</time>
      </trkpt>
      <trkpt lat="44.995" lon="6.14606">
        <ele>2307.8</ele>
        <time>2022-12-29T14:00:33Z</time>
      </trkpt>
      <trkpt lat="44.995" lon="6.14606">
        <ele>2307.8</ele>
        <time>2022-12-29T14:00:34Z</time>
      </trkpt>
      <trkpt lat="44.995" lon="6.14606">
        <ele>2307.8</ele>
        <time>2022-12-29T14:00:35Z</time>
      </trkpt>
      <trkpt lat="44.99501" lon="6.14606">
        <ele>2309.4</ele>
        <time>2022-12-29T14:00:36Z</time>
      </trkpt>
      <trkpt lat="44.99501" lon="6.14606">
        <ele>2309.4</ele>
        <time>2022-12-29T14:00:37Z</time>
      </trkpt>
      <trkpt lat="44.99502" lon="6.14605">
        <ele>2309.4</ele>
        <time>2022-12-29T14:00:38Z</time>
      </trkpt>
      <trkpt lat="44.99503" lon="6.14605">
        <ele>2309.4</ele>
        <time>2022-12-29T14:00:39Z</time>
      </trkpt>
      <trkpt lat="44.99503" lon="6.14605">
        <ele>2309.4</ele>
        <time>2022-12-29T14:00:40Z</time>
      </trkpt>
      <trkpt lat="44.99504" lon="6.14605">
        <ele>2309.4</ele>
        <time>2022-12-29T14:00:41Z</time>
      </trkpt>
      <trkpt lat="44.99504" lon="6.14604">
        <ele>2309.4</ele>
        <time>2022-12-29T14:00:42Z</time>
      </trkpt>
      <trkpt lat="44.99505" lon="6.14604">
        <ele>2309.4</ele>
        <time>2022-12-29T14:00:43Z</time>
      </trkpt>
      <trkpt lat="44.99506" lon="6.14604">
        <ele>2309.4</ele>
        <time>2022-12-29T14:00:44Z</time>
      </trkpt>
      <trkpt lat="44.99506" lon="6.14604">
        <ele>2309.4</ele>
        <time>2022-12-29T14:00:45Z</time>
      </trkpt>
      <trkpt lat="44.99507" lon="6.14604">
        <ele>2311.2</ele>
        <time>2022-12-29T14:00:46Z</time>
      </trkpt>
      <trkpt lat="44.99507" lon="6.14604">
        <ele>2311.2</ele>
        <time>2022-12-29T14:00:47Z</time>
      </trkpt>
      <trkpt lat="44.99507" lon="6.14604">
        <ele>2311.2</ele>
        <time>2022-12-29T14:00:48Z</time>
      </trkpt>
      <trkpt lat="44.99507" lon="6.14604">
        <ele>2311.2</ele>
        <time>2022-12-29T14:00:49Z</time>
      </trkpt>
      <trkpt lat="44.99508" lon="6.14606">
        <ele>2311.2</ele>
        <time>2022-12-29T14:00:50Z</time>
      </trkpt>
      <trkpt lat="44.99508" lon="6.14606">
        <ele>2311.2</ele>
        <time>2022-12-29T14:00:51Z</time>
      </trkpt>
      <trkpt lat="44.99508" lon="6.14606">
        <ele>2311.2</ele>
        <time>2022-12-29T14:00:52Z</time>
      </trkpt>
      <trkpt lat="44.99508" lon="6.14606">
        <ele>2311.2</ele>
        <time>2022-12-29T14:00:53Z</time>
      </trkpt>
      <trkpt lat="44.99509" lon="6.14608">
        <ele>2311.2</ele>
        <time>2022-12-29T14:00:54Z</time>
      </trkpt>
      <trkpt lat="44.99509" lon="6.14608">
        <ele>2311.2</ele>
        <time>2022-12-29T14:00:55Z</time>
      </trkpt>
      <trkpt lat="44.99509" lon="6.14608">
        <ele>2313.4</ele>
        <time>2022-12-29T14:00:56Z</time>
      </trkpt>
      <trkpt lat="44.9951" lon="6.14611">
        <ele>2313.4</ele>
        <time>2022-12-29T14:00:57Z</time>
      </trkpt>
      <trkpt lat="44.9951" lon="6.14612">
        <ele>2313.4</ele>
        <time>2022-12-29T14:00:58Z</time>
      </trkpt>
      <trkpt lat="44.9951" lon="6.14612">
        <ele>2313.4</ele>
        <time>2022-12-29T14:00:59Z</time>
      </trkpt>
      <trkpt lat="44.9951" lon="6.14613">
        <ele>2313.4</ele>
        <time>2022-12-29T14:01:00Z</time>
      </trkpt>
      <trkpt lat="44.99511" lon="6.14613">
        <ele>2313.4</ele>
        <time>2022-12-29T14:01:01Z</time>
      </trkpt>
      <trkpt lat="44.99511" lon="6.14614">
        <ele>2313.4</ele>
        <time>2022-12-29T14:01:02Z</time>
      </trkpt>
      <trkpt lat="44.99511" lon="6.14614">
        <ele>2313.4</ele>
        <time>2022-12-29T14:01:03Z</time>
      </trkpt>
      <trkpt lat="44.99511" lon="6.14615">
        <ele>2313.4</ele>
        <time>2022-12-29T14:01:04Z</time>
      </trkpt>
      <trkpt lat="44.99511" lon="6.14616">
        <ele>2313.4</ele>
        <time>2022-12-29T14:01:05Z</time>
      </trkpt>
      <trkpt lat="44.99511" lon="6.14616">
        <ele>2314.4</ele>
        <time>2022-12-29T14:01:06Z</time>
      </trkpt>
      <trkpt lat="44.99512" lon="6.14617">
        <ele>2314.4</ele>
        <time>2022-12-29T14:01:07Z</time>
      </trkpt>
      <trkpt lat="44.99512" lon="6.14618">
        <ele>2314.4</ele>
        <time>2022-12-29T14:01:08Z</time>
      </trkpt>
      <trkpt lat="44.99512" lon="6.14619">
        <ele>2314.4</ele>
        <time>2022-12-29T14:01:09Z</time>
      </trkpt>
      <trkpt lat="44.99512" lon="6.1462">
        <ele>2314.4</ele>
        <time>2022-12-29T14:01:10Z</time>
      </trkpt>
      <trkpt lat="44.99512" lon="6.14621">
        <ele>2314.4</ele>
        <time>2022-12-29T14:01:11Z</time>
      </trkpt>
      <trkpt lat="44.99512" lon="6.14622">
        <ele>2314.4</ele>
        <time>2022-12-29T14:01:12Z</time>
      </trkpt>
      <trkpt lat="44.99512" lon="6.14622">
        <ele>2314.4</ele>
        <time>2022-12-29T14:01:13Z</time>
      </trkpt>
      <trkpt lat="44.99512" lon="6.14623">
        <ele>2314.4</ele>
        <time>2022-12-29T14:01:14Z</time>
      </trkpt>
      <trkpt lat="44.99513" lon="6.14624">
        <ele>2314.4</ele>
        <time>2022-12-29T14:01:15Z</time>
      </trkpt>
      <trkpt lat="44.99513" lon="6.14625">
        <ele>2316.4</ele>
        <time>2022-12-29T14:01:16Z</time>
      </trkpt>
      <trkpt lat="44.99513" lon="6.14626">
        <ele>2316.4</ele>
        <time>2022-12-29T14:01:17Z</time>
      </trkpt>
      <trkpt lat="44.99513" lon="6.14626">
        <ele>2316.4</ele>
        <time>2022-12-29T14:01:18Z</time>
      </trkpt>
      <trkpt lat="44.99514" lon="6.14626">
        <ele>2316.4</ele>
        <time>2022-12-29T14:01:19Z</time>
      </trkpt>
      <trkpt lat="44.99514" lon="6.14627">
        <ele>2316.4</ele>
        <time>2022-12-29T14:01:20Z</time>
      </trkpt>
      <trkpt lat="44.99514" lon="6.14627">
        <ele>2316.4</ele>
        <time>2022-12-29T14:01:21Z</time>
      </trkpt>
      <trkpt lat="44.99514" lon="6.14627">
        <ele>2316.4</ele>
        <time>2022-12-29T14:01:22Z</time>
      </trkpt>
      <trkpt lat="44.99515" lon="6.14628">
        <ele>2316.4</ele>
        <time>2022-12-29T14:01:23Z</time>
      </trkpt>
      <trkpt lat="44.99515" lon="6.14628">
        <ele>2316.4</ele>
        <time>2022-12-29T14:01:24Z</time>
      </trkpt>
      <trkpt lat="44.99515" lon="6.14628">
        <ele>2316.4</ele>
        <time>2022-12-29T14:01:25Z</time>
      </trkpt>
      <trkpt lat="44.99516" lon="6.14629">
        <ele>2318.2</ele>
        <time>2022-12-29T14:01:26Z</time>
      </trkpt>
      <trkpt lat="44.99516" lon="6.14629">
        <ele>2318.2</ele>
        <time>2022-12-29T14:01:27Z</time>
      </trkpt>
      <trkpt lat="44.99517" lon="6.14628">
        <ele>2318.2</ele>
        <time>2022-12-29T14:01:28Z</time>
      </trkpt>
      <trkpt lat="44.99517" lon="6.14628">
        <ele>2318.2</ele>
        <time>2022-12-29T14:01:29Z</time>
      </trkpt>
      <trkpt lat="44.99518" lon="6.14628">
        <ele>2318.2</ele>
        <time>2022-12-29T14:01:30Z</time>
      </trkpt>
      <trkpt lat="44.99519" lon="6.14628">
        <ele>2318.2</ele>
        <time>2022-12-29T14:01:31Z</time>
      </trkpt>
      <trkpt lat="44.99519" lon="6.14628">
        <ele>2318.2</ele>
        <time>2022-12-29T14:01:32Z</time>
      </trkpt>
      <trkpt lat="44.9952" lon="6.14628">
        <ele>2318.2</ele>
        <time>2022-12-29T14:01:33Z</time>
      </trkpt>
      <trkpt lat="44.99521" lon="6.14628">
        <ele>2318.2</ele>
        <time>2022-12-29T14:01:34Z</time>
      </trkpt>
      <trkpt lat="44.99521" lon="6.14628">
        <ele>2318.2</ele>
        <time>2022-12-29T14:01:35Z</time>
      </trkpt>
      <trkpt lat="44.99522" lon="6.14628">
        <ele>2319.2</ele>
        <time>2022-12-29T14:01:36Z</time>
      </trkpt>
      <trkpt lat="44.99522" lon="6.14628">
        <ele>2319.2</ele>
        <time>2022-12-29T14:01:37Z</time>
      </trkpt>
      <trkpt lat="44.99523" lon="6.14629">
        <ele>2319.2</ele>
        <time>2022-12-29T14:01:38Z</time>
      </trkpt>
      <trkpt lat="44.99523" lon="6.1463">
        <ele>2319.2</ele>
        <time>2022-12-29T14:01:39Z</time>
      </trkpt>
      <trkpt lat="44.99523" lon="6.1463">
        <ele>2319.2</ele>
        <time>2022-12-29T14:01:40Z</time>
      </trkpt>
      <trkpt lat="44.99524" lon="6.14631">
        <ele>2319.2</ele>
        <time>2022-12-29T14:01:41Z</time>
      </trkpt>
      <trkpt lat="44.99524" lon="6.14631">
        <ele>2319.2</ele>
        <time>2022-12-29T14:01:42Z</time>
      </trkpt>
      <trkpt lat="44.99524" lon="6.14632">
        <ele>2319.2</ele>
        <time>2022-12-29T14:01:43Z</time>
      </trkpt>
      <trkpt lat="44.99525" lon="6.14633">
        <ele>2319.2</ele>
        <time>2022-12-29T14:01:44Z</time>
      </trkpt>
      <trkpt lat="44.99525" lon="6.14633">
        <ele>2319.2</ele>
        <time>2022-12-29T14:01:45Z</time>
      </trkpt>
      <trkpt lat="44.99525" lon="6.14634">
        <ele>2322</ele>
        <time>2022-12-29T14:01:46Z</time>
      </trkpt>
      <trkpt lat="44.99525" lon="6.14634">
        <ele>2322</ele>
        <time>2022-12-29T14:01:47Z</time>
      </trkpt>
      <trkpt lat="44.99525" lon="6.14635">
        <ele>2322</ele>
        <time>2022-12-29T14:01:48Z</time>
      </trkpt>
      <trkpt lat="44.99525" lon="6.14636">
        <ele>2322</ele>
        <time>2022-12-29T14:01:49Z</time>
      </trkpt>
      <trkpt lat="44.99525" lon="6.14636">
        <ele>2322</ele>
        <time>2022-12-29T14:01:50Z</time>
      </trkpt>
      <trkpt lat="44.99525" lon="6.14637">
        <ele>2322</ele>
        <time>2022-12-29T14:01:51Z</time>
      </trkpt>
      <trkpt lat="44.99525" lon="6.14637">
        <ele>2322</ele>
        <time>2022-12-29T14:01:52Z</time>
      </trkpt>
      <trkpt lat="44.99525" lon="6.14638">
        <ele>2322</ele>
        <time>2022-12-29T14:01:53Z</time>
      </trkpt>
      <trkpt lat="44.99525" lon="6.14639">
        <ele>2322</ele>
        <time>2022-12-29T14:01:54Z</time>
      </trkpt>
      <trkpt lat="44.99525" lon="6.14639">
        <ele>2322</ele>
        <time>2022-12-29T14:01:55Z</time>
      </trkpt>
      <trkpt lat="44.99525" lon="6.1464">
        <ele>2323.8</ele>
        <time>2022-12-29T14:01:56Z</time>
      </trkpt>
      <trkpt lat="44.99526" lon="6.14643">
        <ele>2323.8</ele>
        <time>2022-12-29T14:01:57Z</time>
      </trkpt>
      <trkpt lat="44.99525" lon="6.14644">
        <ele>2323.8</ele>
        <time>2022-12-29T14:01:58Z</time>
      </trkpt>
      <trkpt lat="44.99525" lon="6.14645">
        <ele>2323.8</ele>
        <time>2022-12-29T14:01:59Z</time>
      </trkpt>
      <trkpt lat="44.99525" lon="6.14645">
        <ele>2323.8</ele>
        <time>2022-12-29T14:02:00Z</time>
      </trkpt>
      <trkpt lat="44.99525" lon="6.14646">
        <ele>2323.8</ele>
        <time>2022-12-29T14:02:01Z</time>
      </trkpt>
      <trkpt lat="44.99524" lon="6.14647">
        <ele>2323.8</ele>
        <time>2022-12-29T14:02:02Z</time>
      </trkpt>
      <trkpt lat="44.99524" lon="6.14648">
        <ele>2323.8</ele>
        <time>2022-12-29T14:02:03Z</time>
      </trkpt>
      <trkpt lat="44.99524" lon="6.14648">
        <ele>2323.8</ele>
        <time>2022-12-29T14:02:04Z</time>
      </trkpt>
      <trkpt lat="44.99524" lon="6.14649">
        <ele>2323.8</ele>
        <time>2022-12-29T14:02:05Z</time>
      </trkpt>
      <trkpt lat="44.99523" lon="6.1465">
        <ele>2325.6</ele>
        <time>2022-12-29T14:02:06Z</time>
      </trkpt>
      <trkpt lat="44.99521" lon="6.14652">
        <ele>2325.6</ele>
        <time>2022-12-29T14:02:07Z</time>
      </trkpt>
      <trkpt lat="44.99521" lon="6.14652">
        <ele>2325.6</ele>
        <time>2022-12-29T14:02:08Z</time>
      </trkpt>
      <trkpt lat="44.9952" lon="6.14653">
        <ele>2325.6</ele>
        <time>2022-12-29T14:02:09Z</time>
      </trkpt>
      <trkpt lat="44.9952" lon="6.14653">
        <ele>2325.6</ele>
        <time>2022-12-29T14:02:10Z</time>
      </trkpt>
      <trkpt lat="44.99519" lon="6.14654">
        <ele>2325.6</ele>
        <time>2022-12-29T14:02:11Z</time>
      </trkpt>
      <trkpt lat="44.99519" lon="6.14654">
        <ele>2325.6</ele>
        <time>2022-12-29T14:02:12Z</time>
      </trkpt>
      <trkpt lat="44.99519" lon="6.14655">
        <ele>2325.6</ele>
        <time>2022-12-29T14:02:13Z</time>
      </trkpt>
      <trkpt lat="44.99518" lon="6.14655">
        <ele>2325.6</ele>
        <time>2022-12-29T14:02:14Z</time>
      </trkpt>
      <trkpt lat="44.99518" lon="6.14656">
        <ele>2325.6</ele>
        <time>2022-12-29T14:02:15Z</time>
      </trkpt>
      <trkpt lat="44.99517" lon="6.14657">
        <ele>2326.8</ele>
        <time>2022-12-29T14:02:16Z</time>
      </trkpt>
      <trkpt lat="44.99517" lon="6.14657">
        <ele>2326.8</ele>
        <time>2022-12-29T14:02:17Z</time>
      </trkpt>
      <trkpt lat="44.99516" lon="6.14658">
        <ele>2326.8</ele>
        <time>2022-12-29T14:02:18Z</time>
      </trkpt>
      <trkpt lat="44.99516" lon="6.14659">
        <ele>2326.8</ele>
        <time>2022-12-29T14:02:19Z</time>
      </trkpt>
      <trkpt lat="44.99516" lon="6.14659">
        <ele>2326.8</ele>
        <time>2022-12-29T14:02:20Z</time>
      </trkpt>
      <trkpt lat="44.99515" lon="6.1466">
        <ele>2326.8</ele>
        <time>2022-12-29T14:02:21Z</time>
      </trkpt>
      <trkpt lat="44.99515" lon="6.14661">
        <ele>2326.8</ele>
        <time>2022-12-29T14:02:22Z</time>
      </trkpt>
      <trkpt lat="44.99514" lon="6.14661">
        <ele>2326.8</ele>
        <time>2022-12-29T14:02:23Z</time>
      </trkpt>
      <trkpt lat="44.99514" lon="6.14662">
        <ele>2326.8</ele>
        <time>2022-12-29T14:02:24Z</time>
      </trkpt>
      <trkpt lat="44.99513" lon="6.14663">
        <ele>2326.8</ele>
        <time>2022-12-29T14:02:25Z</time>
      </trkpt>
      <trkpt lat="44.99513" lon="6.14663">
        <ele>2328</ele>
        <time>2022-12-29T14:02:26Z</time>
      </trkpt>
      <trkpt lat="44.99513" lon="6.14664">
        <ele>2328</ele>
        <time>2022-12-29T14:02:27Z</time>
      </trkpt>
      <trkpt lat="44.99512" lon="6.14664">
        <ele>2328</ele>
        <time>2022-12-29T14:02:28Z</time>
      </trkpt>
      <trkpt lat="44.99512" lon="6.14665">
        <ele>2328</ele>
        <time>2022-12-29T14:02:29Z</time>
      </trkpt>
      <trkpt lat="44.99511" lon="6.14665">
        <ele>2328</ele>
        <time>2022-12-29T14:02:30Z</time>
      </trkpt>
      <trkpt lat="44.99511" lon="6.14666">
        <ele>2328</ele>
        <time>2022-12-29T14:02:31Z</time>
      </trkpt>
      <trkpt lat="44.9951" lon="6.14666">
        <ele>2328</ele>
        <time>2022-12-29T14:02:32Z</time>
      </trkpt>
      <trkpt lat="44.9951" lon="6.14667">
        <ele>2328</ele>
        <time>2022-12-29T14:02:33Z</time>
      </trkpt>
      <trkpt lat="44.99509" lon="6.14667">
        <ele>2328</ele>
        <time>2022-12-29T14:02:34Z</time>
      </trkpt>
      <trkpt lat="44.99509" lon="6.14668">
        <ele>2328</ele>
        <time>2022-12-29T14:02:35Z</time>
      </trkpt>
      <trkpt lat="44.99508" lon="6.14669">
        <ele>2329</ele>
        <time>2022-12-29T14:02:36Z</time>
      </trkpt>
      <trkpt lat="44.99508" lon="6.14669">
        <ele>2329</ele>
        <time>2022-12-29T14:02:37Z</time>
      </trkpt>
      <trkpt lat="44.99508" lon="6.1467">
        <ele>2329</ele>
        <time>2022-12-29T14:02:38Z</time>
      </trkpt>
      <trkpt lat="44.99507" lon="6.1467">
        <ele>2329</ele>
        <time>2022-12-29T14:02:39Z</time>
      </trkpt>
      <trkpt lat="44.99507" lon="6.1467">
        <ele>2329</ele>
        <time>2022-12-29T14:02:40Z</time>
      </trkpt>
      <trkpt lat="44.99507" lon="6.14671">
        <ele>2329</ele>
        <time>2022-12-29T14:02:41Z</time>
      </trkpt>
      <trkpt lat="44.99506" lon="6.14671">
        <ele>2329</ele>
        <time>2022-12-29T14:02:42Z</time>
      </trkpt>
      <trkpt lat="44.99506" lon="6.14672">
        <ele>2329</ele>
        <time>2022-12-29T14:02:43Z</time>
      </trkpt>
      <trkpt lat="44.99506" lon="6.14672">
        <ele>2329</ele>
        <time>2022-12-29T14:02:44Z</time>
      </trkpt>
      <trkpt lat="44.99505" lon="6.14673">
        <ele>2329</ele>
        <time>2022-12-29T14:02:45Z</time>
      </trkpt>
      <trkpt lat="44.99505" lon="6.14673">
        <ele>2330.4</ele>
        <time>2022-12-29T14:02:46Z</time>
      </trkpt>
      <trkpt lat="44.99505" lon="6.14673">
        <ele>2330.4</ele>
        <time>2022-12-29T14:02:47Z</time>
      </trkpt>
      <trkpt lat="44.99505" lon="6.14673">
        <ele>2330.4</ele>
        <time>2022-12-29T14:02:48Z</time>
      </trkpt>
      <trkpt lat="44.99505" lon="6.14673">
        <ele>2330.4</ele>
        <time>2022-12-29T14:02:49Z</time>
      </trkpt>
      <trkpt lat="44.99504" lon="6.14675">
        <ele>2330.4</ele>
        <time>2022-12-29T14:02:50Z</time>
      </trkpt>
      <trkpt lat="44.99504" lon="6.14675">
        <ele>2330.4</ele>
        <time>2022-12-29T14:02:51Z</time>
      </trkpt>
      <trkpt lat="44.99504" lon="6.14675">
        <ele>2330.4</ele>
        <time>2022-12-29T14:02:52Z</time>
      </trkpt>
      <trkpt lat="44.99504" lon="6.14675">
        <ele>2330.4</ele>
        <time>2022-12-29T14:02:53Z</time>
      </trkpt>
      <trkpt lat="44.99504" lon="6.14675">
        <ele>2330.4</ele>
        <time>2022-12-29T14:02:54Z</time>
      </trkpt>
      <trkpt lat="44.99504" lon="6.14675">
        <ele>2330.4</ele>
        <time>2022-12-29T14:02:55Z</time>
      </trkpt>
      <trkpt lat="44.99503" lon="6.14678">
        <ele>2332</ele>
        <time>2022-12-29T14:02:56Z</time>
      </trkpt>
      <trkpt lat="44.99503" lon="6.14678">
        <ele>2332</ele>
        <time>2022-12-29T14:02:57Z</time>
      </trkpt>
      <trkpt lat="44.99503" lon="6.14678">
        <ele>2332</ele>
        <time>2022-12-29T14:02:58Z</time>
      </trkpt>
      <trkpt lat="44.99503" lon="6.14678">
        <ele>2332</ele>
        <time>2022-12-29T14:02:59Z</time>
      </trkpt>
      <trkpt lat="44.99503" lon="6.14678">
        <ele>2332</ele>
        <time>2022-12-29T14:03:00Z</time>
      </trkpt>
      <trkpt lat="44.99503" lon="6.14678">
        <ele>2332</ele>
        <time>2022-12-29T14:03:01Z</time>
      </trkpt>
      <trkpt lat="44.99503" lon="6.14678">
        <ele>2332</ele>
        <time>2022-12-29T14:03:02Z</time>
      </trkpt>
      <trkpt lat="44.99504" lon="6.14678">
        <ele>2332</ele>
        <time>2022-12-29T14:03:03Z</time>
      </trkpt>
      <trkpt lat="44.99504" lon="6.14678">
        <ele>2332</ele>
        <time>2022-12-29T14:03:04Z</time>
      </trkpt>
      <trkpt lat="44.99504" lon="6.14678">
        <ele>2332</ele>
        <time>2022-12-29T14:03:05Z</time>
      </trkpt>
      <trkpt lat="44.99504" lon="6.14678">
        <ele>2332.4</ele>
        <time>2022-12-29T14:03:06Z</time>
      </trkpt>
      <trkpt lat="44.99504" lon="6.14678">
        <ele>2332.4</ele>
        <time>2022-12-29T14:03:07Z</time>
      </trkpt>
      <trkpt lat="44.99504" lon="6.14678">
        <ele>2332.4</ele>
        <time>2022-12-29T14:03:08Z</time>
      </trkpt>
      <trkpt lat="44.99504" lon="6.14678">
        <ele>2332.4</ele>
        <time>2022-12-29T14:03:09Z</time>
      </trkpt>
      <trkpt lat="44.99504" lon="6.14678">
        <ele>2332.4</ele>
        <time>2022-12-29T14:03:10Z</time>
      </trkpt>
      <trkpt lat="44.99504" lon="6.14678">
        <ele>2332.4</ele>
        <time>2022-12-29T14:03:11Z</time>
      </trkpt>
      <trkpt lat="44.99504" lon="6.14678">
        <ele>2332.4</ele>
        <time>2022-12-29T14:03:12Z</time>
      </trkpt>
      <trkpt lat="44.99505" lon="6.14678">
        <ele>2332.4</ele>
        <time>2022-12-29T14:03:13Z</time>
      </trkpt>
      <trkpt lat="44.99505" lon="6.14678">
        <ele>2332.4</ele>
        <time>2022-12-29T14:03:14Z</time>
      </trkpt>
      <trkpt lat="44.99505" lon="6.14678">
        <ele>2332.4</ele>
        <time>2022-12-29T14:03:15Z</time>
      </trkpt>
      <trkpt lat="44.99505" lon="6.14678">
        <ele>2332.2</ele>
        <time>2022-12-29T14:03:16Z</time>
      </trkpt>
      <trkpt lat="44.99505" lon="6.14678">
        <ele>2332.2</ele>
        <time>2022-12-29T14:03:17Z</time>
      </trkpt>
      <trkpt lat="44.99505" lon="6.14678">
        <ele>2332.2</ele>
        <time>2022-12-29T14:03:18Z</time>
      </trkpt>
      <trkpt lat="44.99505" lon="6.14678">
        <ele>2332.2</ele>
        <time>2022-12-29T14:03:19Z</time>
      </trkpt>
      <trkpt lat="44.99505" lon="6.14678">
        <ele>2332.2</ele>
        <time>2022-12-29T14:03:20Z</time>
      </trkpt>
      <trkpt lat="44.99505" lon="6.14678">
        <ele>2332.2</ele>
        <time>2022-12-29T14:03:21Z</time>
      </trkpt>
      <trkpt lat="44.99506" lon="6.14678">
        <ele>2332.2</ele>
        <time>2022-12-29T14:03:22Z</time>
      </trkpt>
      <trkpt lat="44.99506" lon="6.14679">
        <ele>2332.2</ele>
        <time>2022-12-29T14:03:23Z</time>
      </trkpt>
      <trkpt lat="44.99506" lon="6.14679">
        <ele>2332.2</ele>
        <time>2022-12-29T14:03:24Z</time>
      </trkpt>
      <trkpt lat="44.99506" lon="6.14679">
        <ele>2332.4</ele>
        <time>2022-12-29T14:03:26Z</time>
      </trkpt>
      <trkpt lat="44.99506" lon="6.14679">
        <ele>2332.4</ele>
        <time>2022-12-29T14:03:29Z</time>
      </trkpt>
      <trkpt lat="44.99506" lon="6.14679">
        <ele>2332.4</ele>
        <time>2022-12-29T14:03:30Z</time>
      </trkpt>
      <trkpt lat="44.99506" lon="6.14679">
        <ele>2332.4</ele>
        <time>2022-12-29T14:03:33Z</time>
      </trkpt>
      <trkpt lat="44.99506" lon="6.14679">
        <ele>2332.4</ele>
        <time>2022-12-29T14:03:34Z</time>
      </trkpt>
      <trkpt lat="44.99506" lon="6.14679">
        <ele>2332.4</ele>
        <time>2022-12-29T14:03:35Z</time>
      </trkpt>
      <trkpt lat="44.99507" lon="6.14679">
        <ele>2332.4</ele>
        <time>2022-12-29T14:03:36Z</time>
      </trkpt>
      <trkpt lat="44.99507" lon="6.14679">
        <ele>2332.4</ele>
        <time>2022-12-29T14:03:37Z</time>
      </trkpt>
      <trkpt lat="44.99507" lon="6.14679">
        <ele>2332.4</ele>
        <time>2022-12-29T14:03:38Z</time>
      </trkpt>
      <trkpt lat="44.99507" lon="6.14679">
        <ele>2332.4</ele>
        <time>2022-12-29T14:03:39Z</time>
      </trkpt>
      <trkpt lat="44.99507" lon="6.14679">
        <ele>2332.4</ele>
        <time>2022-12-29T14:03:40Z</time>
      </trkpt>
      <trkpt lat="44.99507" lon="6.14679">
        <ele>2332.4</ele>
        <time>2022-12-29T14:03:41Z</time>
      </trkpt>
      <trkpt lat="44.99507" lon="6.14679">
        <ele>2332.4</ele>
        <time>2022-12-29T14:03:42Z</time>
      </trkpt>
      <trkpt lat="44.99507" lon="6.14679">
        <ele>2332.4</ele>
        <time>2022-12-29T14:03:43Z</time>
      </trkpt>
      <trkpt lat="44.99507" lon="6.14679">
        <ele>2332.4</ele>
        <time>2022-12-29T14:03:44Z</time>
      </trkpt>
      <trkpt lat="44.99507" lon="6.14679">
        <ele>2332.4</ele>
        <time>2022-12-29T14:03:45Z</time>
      </trkpt>
      <trkpt lat="44.99508" lon="6.14679">
        <ele>2333.6</ele>
        <time>2022-12-29T14:03:46Z</time>
      </trkpt>
      <trkpt lat="44.99509" lon="6.14679">
        <ele>2333.6</ele>
        <time>2022-12-29T14:03:47Z</time>
      </trkpt>
      <trkpt lat="44.9951" lon="6.14679">
        <ele>2333.6</ele>
        <time>2022-12-29T14:03:48Z</time>
      </trkpt>
      <trkpt lat="44.99511" lon="6.1468">
        <ele>2333.6</ele>
        <time>2022-12-29T14:03:49Z</time>
      </trkpt>
      <trkpt lat="44.99512" lon="6.1468">
        <ele>2333.6</ele>
        <time>2022-12-29T14:03:50Z</time>
      </trkpt>
      <trkpt lat="44.99513" lon="6.1468">
        <ele>2333.6</ele>
        <time>2022-12-29T14:03:51Z</time>
      </trkpt>
      <trkpt lat="44.99515" lon="6.1468">
        <ele>2333.6</ele>
        <time>2022-12-29T14:03:52Z</time>
      </trkpt>
      <trkpt lat="44.99516" lon="6.1468">
        <ele>2333.6</ele>
        <time>2022-12-29T14:03:53Z</time>
      </trkpt>
      <trkpt lat="44.99517" lon="6.1468">
        <ele>2333.6</ele>
        <time>2022-12-29T14:03:54Z</time>
      </trkpt>
      <trkpt lat="44.99518" lon="6.14681">
        <ele>2333.6</ele>
        <time>2022-12-29T14:03:55Z</time>
      </trkpt>
      <trkpt lat="44.99519" lon="6.14681">
        <ele>2335.8</ele>
        <time>2022-12-29T14:03:56Z</time>
      </trkpt>
      <trkpt lat="44.99521" lon="6.14681">
        <ele>2335.8</ele>
        <time>2022-12-29T14:03:57Z</time>
      </trkpt>
      <trkpt lat="44.99522" lon="6.14681">
        <ele>2335.8</ele>
        <time>2022-12-29T14:03:58Z</time>
      </trkpt>
      <trkpt lat="44.99522" lon="6.14681">
        <ele>2335.8</ele>
        <time>2022-12-29T14:03:59Z</time>
      </trkpt>
      <trkpt lat="44.99522" lon="6.14681">
        <ele>2335.8</ele>
        <time>2022-12-29T14:04:00Z</time>
      </trkpt>
      <trkpt lat="44.99523" lon="6.14681">
        <ele>2335.8</ele>
        <time>2022-12-29T14:04:01Z</time>
      </trkpt>
      <trkpt lat="44.99523" lon="6.14681">
        <ele>2335.8</ele>
        <time>2022-12-29T14:04:02Z</time>
      </trkpt>
      <trkpt lat="44.99524" lon="6.14681">
        <ele>2335.8</ele>
        <time>2022-12-29T14:04:03Z</time>
      </trkpt>
      <trkpt lat="44.99524" lon="6.14681">
        <ele>2335.8</ele>
        <time>2022-12-29T14:04:04Z</time>
      </trkpt>
      <trkpt lat="44.99525" lon="6.14681">
        <ele>2335.8</ele>
        <time>2022-12-29T14:04:05Z</time>
      </trkpt>
      <trkpt lat="44.99525" lon="6.14681">
        <ele>2337.2</ele>
        <time>2022-12-29T14:04:06Z</time>
      </trkpt>
      <trkpt lat="44.99525" lon="6.14681">
        <ele>2337.2</ele>
        <time>2022-12-29T14:04:07Z</time>
      </trkpt>
      <trkpt lat="44.99525" lon="6.14681">
        <ele>2337.2</ele>
        <time>2022-12-29T14:04:08Z</time>
      </trkpt>
      <trkpt lat="44.99525" lon="6.14682">
        <ele>2337.2</ele>
        <time>2022-12-29T14:04:09Z</time>
      </trkpt>
      <trkpt lat="44.99525" lon="6.14682">
        <ele>2337.2</ele>
        <time>2022-12-29T14:04:10Z</time>
      </trkpt>
      <trkpt lat="44.99525" lon="6.14682">
        <ele>2337.2</ele>
        <time>2022-12-29T14:04:11Z</time>
      </trkpt>
      <trkpt lat="44.99525" lon="6.14683">
        <ele>2337.2</ele>
        <time>2022-12-29T14:04:12Z</time>
      </trkpt>
      <trkpt lat="44.99525" lon="6.14683">
        <ele>2337.2</ele>
        <time>2022-12-29T14:04:13Z</time>
      </trkpt>
      <trkpt lat="44.99525" lon="6.14683">
        <ele>2337.2</ele>
        <time>2022-12-29T14:04:14Z</time>
      </trkpt>
      <trkpt lat="44.99525" lon="6.14684">
        <ele>2337.2</ele>
        <time>2022-12-29T14:04:15Z</time>
      </trkpt>
      <trkpt lat="44.99525" lon="6.14684">
        <ele>2337.8</ele>
        <time>2022-12-29T14:04:16Z</time>
      </trkpt>
      <trkpt lat="44.99525" lon="6.14685">
        <ele>2337.8</ele>
        <time>2022-12-29T14:04:17Z</time>
      </trkpt>
      <trkpt lat="44.99525" lon="6.14685">
        <ele>2337.8</ele>
        <time>2022-12-29T14:04:18Z</time>
      </trkpt>
      <trkpt lat="44.99524" lon="6.14685">
        <ele>2337.8</ele>
        <time>2022-12-29T14:04:19Z</time>
      </trkpt>
      <trkpt lat="44.99524" lon="6.14686">
        <ele>2337.8</ele>
        <time>2022-12-29T14:04:20Z</time>
      </trkpt>
      <trkpt lat="44.99524" lon="6.14686">
        <ele>2337.8</ele>
        <time>2022-12-29T14:04:21Z</time>
      </trkpt>
      <trkpt lat="44.99524" lon="6.14686">
        <ele>2337.8</ele>
        <time>2022-12-29T14:04:22Z</time>
      </trkpt>
      <trkpt lat="44.99524" lon="6.14687">
        <ele>2337.8</ele>
        <time>2022-12-29T14:04:23Z</time>
      </trkpt>
      <trkpt lat="44.99524" lon="6.14687">
        <ele>2337.8</ele>
        <time>2022-12-29T14:04:24Z</time>
      </trkpt>
      <trkpt lat="44.99524" lon="6.14687">
        <ele>2337.8</ele>
        <time>2022-12-29T14:04:25Z</time>
      </trkpt>
      <trkpt lat="44.99524" lon="6.14688">
        <ele>2338.2</ele>
        <time>2022-12-29T14:04:26Z</time>
      </trkpt>
      <trkpt lat="44.99524" lon="6.14688">
        <ele>2338.2</ele>
        <time>2022-12-29T14:04:27Z</time>
      </trkpt>
      <trkpt lat="44.99524" lon="6.14689">
        <ele>2338.2</ele>
        <time>2022-12-29T14:04:28Z</time>
      </trkpt>
      <trkpt lat="44.99524" lon="6.14689">
        <ele>2338.2</ele>
        <time>2022-12-29T14:04:29Z</time>
      </trkpt>
      <trkpt lat="44.99524" lon="6.14689">
        <ele>2338.2</ele>
        <time>2022-12-29T14:04:30Z</time>
      </trkpt>
      <trkpt lat="44.99524" lon="6.1469">
        <ele>2338.2</ele>
        <time>2022-12-29T14:04:31Z</time>
      </trkpt>
      <trkpt lat="44.99524" lon="6.1469">
        <ele>2338.2</ele>
        <time>2022-12-29T14:04:32Z</time>
      </trkpt>
      <trkpt lat="44.99524" lon="6.1469">
        <ele>2341</ele>
        <time>2022-12-29T14:04:36Z</time>
      </trkpt>
      <trkpt lat="44.99524" lon="6.14691">
        <ele>2341</ele>
        <time>2022-12-29T14:04:37Z</time>
      </trkpt>
      <trkpt lat="44.99524" lon="6.14691">
        <ele>2341</ele>
        <time>2022-12-29T14:04:38Z</time>
      </trkpt>
      <trkpt lat="44.99524" lon="6.14691">
        <ele>2341</ele>
        <time>2022-12-29T14:04:39Z</time>
      </trkpt>
      <trkpt lat="44.99523" lon="6.14692">
        <ele>2341</ele>
        <time>2022-12-29T14:04:40Z</time>
      </trkpt>
      <trkpt lat="44.99523" lon="6.14692">
        <ele>2341</ele>
        <time>2022-12-29T14:04:41Z</time>
      </trkpt>
      <trkpt lat="44.99523" lon="6.14693">
        <ele>2341</ele>
        <time>2022-12-29T14:04:42Z</time>
      </trkpt>
      <trkpt lat="44.99523" lon="6.14693">
        <ele>2341</ele>
        <time>2022-12-29T14:04:43Z</time>
      </trkpt>
      <trkpt lat="44.99523" lon="6.14693">
        <ele>2341</ele>
        <time>2022-12-29T14:04:44Z</time>
      </trkpt>
      <trkpt lat="44.99523" lon="6.14694">
        <ele>2341</ele>
        <time>2022-12-29T14:04:45Z</time>
      </trkpt>
      <trkpt lat="44.99523" lon="6.14694">
        <ele>2342</ele>
        <time>2022-12-29T14:04:46Z</time>
      </trkpt>
      <trkpt lat="44.99523" lon="6.14694">
        <ele>2342</ele>
        <time>2022-12-29T14:04:47Z</time>
      </trkpt>
      <trkpt lat="44.99523" lon="6.14695">
        <ele>2342</ele>
        <time>2022-12-29T14:04:48Z</time>
      </trkpt>
      <trkpt lat="44.99523" lon="6.14695">
        <ele>2342</ele>
        <time>2022-12-29T14:04:49Z</time>
      </trkpt>
      <trkpt lat="44.99523" lon="6.14695">
        <ele>2342</ele>
        <time>2022-12-29T14:04:50Z</time>
      </trkpt>
      <trkpt lat="44.99523" lon="6.14696">
        <ele>2342</ele>
        <time>2022-12-29T14:04:51Z</time>
      </trkpt>
      <trkpt lat="44.99523" lon="6.14696">
        <ele>2342</ele>
        <time>2022-12-29T14:04:52Z</time>
      </trkpt>
      <trkpt lat="44.99523" lon="6.14697">
        <ele>2342</ele>
        <time>2022-12-29T14:04:53Z</time>
      </trkpt>
      <trkpt lat="44.99523" lon="6.14697">
        <ele>2342</ele>
        <time>2022-12-29T14:04:54Z</time>
      </trkpt>
      <trkpt lat="44.99523" lon="6.14697">
        <ele>2342</ele>
        <time>2022-12-29T14:04:55Z</time>
      </trkpt>
      <trkpt lat="44.99523" lon="6.14698">
        <ele>2343.6</ele>
        <time>2022-12-29T14:04:56Z</time>
      </trkpt>
      <trkpt lat="44.99522" lon="6.14699">
        <ele>2343.6</ele>
        <time>2022-12-29T14:04:57Z</time>
      </trkpt>
      <trkpt lat="44.99521" lon="6.147">
        <ele>2343.6</ele>
        <time>2022-12-29T14:04:58Z</time>
      </trkpt>
      <trkpt lat="44.99521" lon="6.147">
        <ele>2343.6</ele>
        <time>2022-12-29T14:04:59Z</time>
      </trkpt>
      <trkpt lat="44.99521" lon="6.14701">
        <ele>2343.6</ele>
        <time>2022-12-29T14:05:00Z</time>
      </trkpt>
      <trkpt lat="44.99521" lon="6.14701">
        <ele>2343.6</ele>
        <time>2022-12-29T14:05:01Z</time>
      </trkpt>
      <trkpt lat="44.9952" lon="6.14701">
        <ele>2343.6</ele>
        <time>2022-12-29T14:05:02Z</time>
      </trkpt>
      <trkpt lat="44.9952" lon="6.14702">
        <ele>2343.6</ele>
        <time>2022-12-29T14:05:03Z</time>
      </trkpt>
      <trkpt lat="44.9952" lon="6.14702">
        <ele>2343.6</ele>
        <time>2022-12-29T14:05:04Z</time>
      </trkpt>
      <trkpt lat="44.99519" lon="6.14703">
        <ele>2343.6</ele>
        <time>2022-12-29T14:05:05Z</time>
      </trkpt>
      <trkpt lat="44.99519" lon="6.14703">
        <ele>2345</ele>
        <time>2022-12-29T14:05:06Z</time>
      </trkpt>
      <trkpt lat="44.99517" lon="6.14705">
        <ele>2345</ele>
        <time>2022-12-29T14:05:07Z</time>
      </trkpt>
      <trkpt lat="44.99517" lon="6.14705">
        <ele>2345</ele>
        <time>2022-12-29T14:05:08Z</time>
      </trkpt>
      <trkpt lat="44.99516" lon="6.14706">
        <ele>2345</ele>
        <time>2022-12-29T14:05:09Z</time>
      </trkpt>
      <trkpt lat="44.99516" lon="6.14706">
        <ele>2345</ele>
        <time>2022-12-29T14:05:10Z</time>
      </trkpt>
      <trkpt lat="44.99516" lon="6.14707">
        <ele>2345</ele>
        <time>2022-12-29T14:05:11Z</time>
      </trkpt>
      <trkpt lat="44.99515" lon="6.14707">
        <ele>2345</ele>
        <time>2022-12-29T14:05:12Z</time>
      </trkpt>
      <trkpt lat="44.99515" lon="6.14708">
        <ele>2345</ele>
        <time>2022-12-29T14:05:13Z</time>
      </trkpt>
      <trkpt lat="44.99515" lon="6.14708">
        <ele>2345</ele>
        <time>2022-12-29T14:05:14Z</time>
      </trkpt>
      <trkpt lat="44.99514" lon="6.14709">
        <ele>2345</ele>
        <time>2022-12-29T14:05:15Z</time>
      </trkpt>
      <trkpt lat="44.99514" lon="6.14709">
        <ele>2346.8</ele>
        <time>2022-12-29T14:05:16Z</time>
      </trkpt>
      <trkpt lat="44.99514" lon="6.14709">
        <ele>2346.8</ele>
        <time>2022-12-29T14:05:17Z</time>
      </trkpt>
      <trkpt lat="44.99513" lon="6.1471">
        <ele>2346.8</ele>
        <time>2022-12-29T14:05:18Z</time>
      </trkpt>
      <trkpt lat="44.99513" lon="6.1471">
        <ele>2346.8</ele>
        <time>2022-12-29T14:05:19Z</time>
      </trkpt>
      <trkpt lat="44.99513" lon="6.14711">
        <ele>2346.8</ele>
        <time>2022-12-29T14:05:20Z</time>
      </trkpt>
      <trkpt lat="44.99513" lon="6.14711">
        <ele>2346.8</ele>
        <time>2022-12-29T14:05:21Z</time>
      </trkpt>
      <trkpt lat="44.99512" lon="6.14712">
        <ele>2346.8</ele>
        <time>2022-12-29T14:05:22Z</time>
      </trkpt>
      <trkpt lat="44.99512" lon="6.14712">
        <ele>2346.8</ele>
        <time>2022-12-29T14:05:23Z</time>
      </trkpt>
      <trkpt lat="44.99512" lon="6.14713">
        <ele>2346.8</ele>
        <time>2022-12-29T14:05:24Z</time>
      </trkpt>
      <trkpt lat="44.99511" lon="6.14713">
        <ele>2346.8</ele>
        <time>2022-12-29T14:05:25Z</time>
      </trkpt>
      <trkpt lat="44.99511" lon="6.14714">
        <ele>2348.6</ele>
        <time>2022-12-29T14:05:26Z</time>
      </trkpt>
      <trkpt lat="44.99511" lon="6.14714">
        <ele>2348.6</ele>
        <time>2022-12-29T14:05:27Z</time>
      </trkpt>
      <trkpt lat="44.9951" lon="6.14715">
        <ele>2348.6</ele>
        <time>2022-12-29T14:05:28Z</time>
      </trkpt>
      <trkpt lat="44.9951" lon="6.14715">
        <ele>2348.6</ele>
        <time>2022-12-29T14:05:29Z</time>
      </trkpt>
      <trkpt lat="44.9951" lon="6.14716">
        <ele>2348.6</ele>
        <time>2022-12-29T14:05:30Z</time>
      </trkpt>
      <trkpt lat="44.99509" lon="6.14716">
        <ele>2348.6</ele>
        <time>2022-12-29T14:05:31Z</time>
      </trkpt>
      <trkpt lat="44.99509" lon="6.14717">
        <ele>2348.6</ele>
        <time>2022-12-29T14:05:32Z</time>
      </trkpt>
      <trkpt lat="44.99508" lon="6.14718">
        <ele>2348.6</ele>
        <time>2022-12-29T14:05:33Z</time>
      </trkpt>
      <trkpt lat="44.99508" lon="6.14718">
        <ele>2348.6</ele>
        <time>2022-12-29T14:05:34Z</time>
      </trkpt>
      <trkpt lat="44.99508" lon="6.14719">
        <ele>2348.6</ele>
        <time>2022-12-29T14:05:35Z</time>
      </trkpt>
      <trkpt lat="44.99507" lon="6.14719">
        <ele>2350</ele>
        <time>2022-12-29T14:05:36Z</time>
      </trkpt>
      <trkpt lat="44.99507" lon="6.1472">
        <ele>2350</ele>
        <time>2022-12-29T14:05:37Z</time>
      </trkpt>
      <trkpt lat="44.99507" lon="6.1472">
        <ele>2350</ele>
        <time>2022-12-29T14:05:38Z</time>
      </trkpt>
      <trkpt lat="44.99507" lon="6.14721">
        <ele>2350</ele>
        <time>2022-12-29T14:05:39Z</time>
      </trkpt>
      <trkpt lat="44.99507" lon="6.14721">
        <ele>2350</ele>
        <time>2022-12-29T14:05:40Z</time>
      </trkpt>
      <trkpt lat="44.99507" lon="6.14722">
        <ele>2350</ele>
        <time>2022-12-29T14:05:41Z</time>
      </trkpt>
      <trkpt lat="44.99507" lon="6.14722">
        <ele>2350</ele>
        <time>2022-12-29T14:05:42Z</time>
      </trkpt>
      <trkpt lat="44.99507" lon="6.14723">
        <ele>2350</ele>
        <time>2022-12-29T14:05:43Z</time>
      </trkpt>
      <trkpt lat="44.99508" lon="6.14723">
        <ele>2350</ele>
        <time>2022-12-29T14:05:44Z</time>
      </trkpt>
      <trkpt lat="44.99508" lon="6.14724">
        <ele>2350</ele>
        <time>2022-12-29T14:05:45Z</time>
      </trkpt>
      <trkpt lat="44.99508" lon="6.14724">
        <ele>2350.8</ele>
        <time>2022-12-29T14:05:46Z</time>
      </trkpt>
      <trkpt lat="44.99508" lon="6.14725">
        <ele>2350.8</ele>
        <time>2022-12-29T14:05:47Z</time>
      </trkpt>
      <trkpt lat="44.99509" lon="6.14725">
        <ele>2350.8</ele>
        <time>2022-12-29T14:05:48Z</time>
      </trkpt>
      <trkpt lat="44.99509" lon="6.14725">
        <ele>2350.8</ele>
        <time>2022-12-29T14:05:49Z</time>
      </trkpt>
      <trkpt lat="44.9951" lon="6.14725">
        <ele>2350.8</ele>
        <time>2022-12-29T14:05:50Z</time>
      </trkpt>
      <trkpt lat="44.9951" lon="6.14726">
        <ele>2350.8</ele>
        <time>2022-12-29T14:05:51Z</time>
      </trkpt>
      <trkpt lat="44.99511" lon="6.14726">
        <ele>2350.8</ele>
        <time>2022-12-29T14:05:52Z</time>
      </trkpt>
      <trkpt lat="44.99512" lon="6.14726">
        <ele>2350.8</ele>
        <time>2022-12-29T14:05:53Z</time>
      </trkpt>
      <trkpt lat="44.99512" lon="6.14727">
        <ele>2350.8</ele>
        <time>2022-12-29T14:05:54Z</time>
      </trkpt>
      <trkpt lat="44.99513" lon="6.14727">
        <ele>2350.8</ele>
        <time>2022-12-29T14:05:55Z</time>
      </trkpt>
      <trkpt lat="44.99513" lon="6.14727">
        <ele>2352.4</ele>
        <time>2022-12-29T14:05:56Z</time>
      </trkpt>
      <trkpt lat="44.99514" lon="6.14727">
        <ele>2352.4</ele>
        <time>2022-12-29T14:05:57Z</time>
      </trkpt>
      <trkpt lat="44.99515" lon="6.14727">
        <ele>2352.4</ele>
        <time>2022-12-29T14:05:58Z</time>
      </trkpt>
      <trkpt lat="44.99515" lon="6.14728">
        <ele>2352.4</ele>
        <time>2022-12-29T14:05:59Z</time>
      </trkpt>
      <trkpt lat="44.99516" lon="6.14728">
        <ele>2352.4</ele>
        <time>2022-12-29T14:06:00Z</time>
      </trkpt>
      <trkpt lat="44.99516" lon="6.14728">
        <ele>2352.4</ele>
        <time>2022-12-29T14:06:01Z</time>
      </trkpt>
      <trkpt lat="44.99517" lon="6.14728">
        <ele>2352.4</ele>
        <time>2022-12-29T14:06:02Z</time>
      </trkpt>
      <trkpt lat="44.99518" lon="6.14728">
        <ele>2352.4</ele>
        <time>2022-12-29T14:06:03Z</time>
      </trkpt>
      <trkpt lat="44.99518" lon="6.14728">
        <ele>2352.4</ele>
        <time>2022-12-29T14:06:04Z</time>
      </trkpt>
      <trkpt lat="44.99519" lon="6.14728">
        <ele>2352.4</ele>
        <time>2022-12-29T14:06:05Z</time>
      </trkpt>
      <trkpt lat="44.99519" lon="6.14729">
        <ele>2353.8</ele>
        <time>2022-12-29T14:06:06Z</time>
      </trkpt>
      <trkpt lat="44.9952" lon="6.14729">
        <ele>2353.8</ele>
        <time>2022-12-29T14:06:07Z</time>
      </trkpt>
      <trkpt lat="44.99521" lon="6.14729">
        <ele>2353.8</ele>
        <time>2022-12-29T14:06:08Z</time>
      </trkpt>
      <trkpt lat="44.99521" lon="6.14729">
        <ele>2353.8</ele>
        <time>2022-12-29T14:06:09Z</time>
      </trkpt>
      <trkpt lat="44.99522" lon="6.14729">
        <ele>2353.8</ele>
        <time>2022-12-29T14:06:10Z</time>
      </trkpt>
      <trkpt lat="44.99522" lon="6.14729">
        <ele>2353.8</ele>
        <time>2022-12-29T14:06:11Z</time>
      </trkpt>
      <trkpt lat="44.99523" lon="6.14729">
        <ele>2353.8</ele>
        <time>2022-12-29T14:06:12Z</time>
      </trkpt>
      <trkpt lat="44.99524" lon="6.14729">
        <ele>2353.8</ele>
        <time>2022-12-29T14:06:13Z</time>
      </trkpt>
      <trkpt lat="44.99524" lon="6.14729">
        <ele>2353.8</ele>
        <time>2022-12-29T14:06:14Z</time>
      </trkpt>
      <trkpt lat="44.99525" lon="6.14729">
        <ele>2353.8</ele>
        <time>2022-12-29T14:06:15Z</time>
      </trkpt>
      <trkpt lat="44.99525" lon="6.14729">
        <ele>2355</ele>
        <time>2022-12-29T14:06:16Z</time>
      </trkpt>
      <trkpt lat="44.99526" lon="6.14729">
        <ele>2355</ele>
        <time>2022-12-29T14:06:17Z</time>
      </trkpt>
      <trkpt lat="44.99527" lon="6.14729">
        <ele>2355</ele>
        <time>2022-12-29T14:06:18Z</time>
      </trkpt>
      <trkpt lat="44.99527" lon="6.14729">
        <ele>2355</ele>
        <time>2022-12-29T14:06:19Z</time>
      </trkpt>
      <trkpt lat="44.99528" lon="6.14729">
        <ele>2355</ele>
        <time>2022-12-29T14:06:20Z</time>
      </trkpt>
      <trkpt lat="44.99529" lon="6.14729">
        <ele>2355</ele>
        <time>2022-12-29T14:06:21Z</time>
      </trkpt>
      <trkpt lat="44.99529" lon="6.14729">
        <ele>2355</ele>
        <time>2022-12-29T14:06:22Z</time>
      </trkpt>
      <trkpt lat="44.9953" lon="6.14729">
        <ele>2355</ele>
        <time>2022-12-29T14:06:23Z</time>
      </trkpt>
      <trkpt lat="44.99531" lon="6.14729">
        <ele>2355</ele>
        <time>2022-12-29T14:06:24Z</time>
      </trkpt>
      <trkpt lat="44.99531" lon="6.14729">
        <ele>2355</ele>
        <time>2022-12-29T14:06:25Z</time>
      </trkpt>
      <trkpt lat="44.99532" lon="6.14729">
        <ele>2357.6</ele>
        <time>2022-12-29T14:06:26Z</time>
      </trkpt>
      <trkpt lat="44.99532" lon="6.14729">
        <ele>2357.6</ele>
        <time>2022-12-29T14:06:27Z</time>
      </trkpt>
      <trkpt lat="44.99533" lon="6.14729">
        <ele>2357.6</ele>
        <time>2022-12-29T14:06:28Z</time>
      </trkpt>
      <trkpt lat="44.99534" lon="6.14729">
        <ele>2357.6</ele>
        <time>2022-12-29T14:06:29Z</time>
      </trkpt>
      <trkpt lat="44.99534" lon="6.14729">
        <ele>2357.6</ele>
        <time>2022-12-29T14:06:30Z</time>
      </trkpt>
      <trkpt lat="44.99535" lon="6.14729">
        <ele>2357.6</ele>
        <time>2022-12-29T14:06:31Z</time>
      </trkpt>
      <trkpt lat="44.99535" lon="6.14729">
        <ele>2357.6</ele>
        <time>2022-12-29T14:06:32Z</time>
      </trkpt>
      <trkpt lat="44.99536" lon="6.14729">
        <ele>2357.6</ele>
        <time>2022-12-29T14:06:33Z</time>
      </trkpt>
      <trkpt lat="44.99537" lon="6.14729">
        <ele>2357.6</ele>
        <time>2022-12-29T14:06:34Z</time>
      </trkpt>
      <trkpt lat="44.99537" lon="6.14729">
        <ele>2357.6</ele>
        <time>2022-12-29T14:06:35Z</time>
      </trkpt>
      <trkpt lat="44.99538" lon="6.14729">
        <ele>2360</ele>
        <time>2022-12-29T14:06:36Z</time>
      </trkpt>
      <trkpt lat="44.99538" lon="6.14729">
        <ele>2360</ele>
        <time>2022-12-29T14:06:37Z</time>
      </trkpt>
      <trkpt lat="44.99538" lon="6.14729">
        <ele>2360</ele>
        <time>2022-12-29T14:06:38Z</time>
      </trkpt>
      <trkpt lat="44.99538" lon="6.14729">
        <ele>2360</ele>
        <time>2022-12-29T14:06:39Z</time>
      </trkpt>
      <trkpt lat="44.9954" lon="6.14729">
        <ele>2360</ele>
        <time>2022-12-29T14:06:40Z</time>
      </trkpt>
      <trkpt lat="44.9954" lon="6.14729">
        <ele>2360</ele>
        <time>2022-12-29T14:06:41Z</time>
      </trkpt>
      <trkpt lat="44.9954" lon="6.14729">
        <ele>2360</ele>
        <time>2022-12-29T14:06:42Z</time>
      </trkpt>
      <trkpt lat="44.9954" lon="6.14729">
        <ele>2360</ele>
        <time>2022-12-29T14:06:43Z</time>
      </trkpt>
      <trkpt lat="44.99542" lon="6.14728">
        <ele>2360</ele>
        <time>2022-12-29T14:06:44Z</time>
      </trkpt>
      <trkpt lat="44.99542" lon="6.14728">
        <ele>2360</ele>
        <time>2022-12-29T14:06:45Z</time>
      </trkpt>
      <trkpt lat="44.99542" lon="6.14728">
        <ele>2361.6</ele>
        <time>2022-12-29T14:06:46Z</time>
      </trkpt>
      <trkpt lat="44.99542" lon="6.14728">
        <ele>2361.6</ele>
        <time>2022-12-29T14:06:47Z</time>
      </trkpt>
      <trkpt lat="44.99543" lon="6.14728">
        <ele>2361.6</ele>
        <time>2022-12-29T14:06:48Z</time>
      </trkpt>
      <trkpt lat="44.99544" lon="6.14728">
        <ele>2361.6</ele>
        <time>2022-12-29T14:06:49Z</time>
      </trkpt>
      <trkpt lat="44.99544" lon="6.14728">
        <ele>2361.6</ele>
        <time>2022-12-29T14:06:50Z</time>
      </trkpt>
      <trkpt lat="44.99545" lon="6.14728">
        <ele>2361.6</ele>
        <time>2022-12-29T14:06:51Z</time>
      </trkpt>
      <trkpt lat="44.99545" lon="6.14728">
        <ele>2361.6</ele>
        <time>2022-12-29T14:06:52Z</time>
      </trkpt>
      <trkpt lat="44.99546" lon="6.14728">
        <ele>2361.6</ele>
        <time>2022-12-29T14:06:53Z</time>
      </trkpt>
      <trkpt lat="44.99546" lon="6.14728">
        <ele>2361.6</ele>
        <time>2022-12-29T14:06:54Z</time>
      </trkpt>
      <trkpt lat="44.99547" lon="6.14728">
        <ele>2361.6</ele>
        <time>2022-12-29T14:06:55Z</time>
      </trkpt>
      <trkpt lat="44.99548" lon="6.14728">
        <ele>2364</ele>
        <time>2022-12-29T14:06:56Z</time>
      </trkpt>
      <trkpt lat="44.9955" lon="6.14729">
        <ele>2364</ele>
        <time>2022-12-29T14:06:57Z</time>
      </trkpt>
      <trkpt lat="44.9955" lon="6.14729">
        <ele>2364</ele>
        <time>2022-12-29T14:06:58Z</time>
      </trkpt>
      <trkpt lat="44.99551" lon="6.14729">
        <ele>2364</ele>
        <time>2022-12-29T14:06:59Z</time>
      </trkpt>
      <trkpt lat="44.99551" lon="6.1473">
        <ele>2364</ele>
        <time>2022-12-29T14:07:00Z</time>
      </trkpt>
      <trkpt lat="44.99552" lon="6.1473">
        <ele>2364</ele>
        <time>2022-12-29T14:07:01Z</time>
      </trkpt>
      <trkpt lat="44.99552" lon="6.1473">
        <ele>2364</ele>
        <time>2022-12-29T14:07:02Z</time>
      </trkpt>
      <trkpt lat="44.99552" lon="6.1473">
        <ele>2364</ele>
        <time>2022-12-29T14:07:03Z</time>
      </trkpt>
      <trkpt lat="44.99553" lon="6.1473">
        <ele>2364</ele>
        <time>2022-12-29T14:07:04Z</time>
      </trkpt>
      <trkpt lat="44.99553" lon="6.14731">
        <ele>2364</ele>
        <time>2022-12-29T14:07:05Z</time>
      </trkpt>
      <trkpt lat="44.99554" lon="6.14731">
        <ele>2365.8</ele>
        <time>2022-12-29T14:07:06Z</time>
      </trkpt>
      <trkpt lat="44.99554" lon="6.14732">
        <ele>2365.8</ele>
        <time>2022-12-29T14:07:07Z</time>
      </trkpt>
      <trkpt lat="44.99554" lon="6.14732">
        <ele>2365.8</ele>
        <time>2022-12-29T14:07:08Z</time>
      </trkpt>
      <trkpt lat="44.99555" lon="6.14733">
        <ele>2365.8</ele>
        <time>2022-12-29T14:07:09Z</time>
      </trkpt>
      <trkpt lat="44.99555" lon="6.14734">
        <ele>2365.8</ele>
        <time>2022-12-29T14:07:10Z</time>
      </trkpt>
      <trkpt lat="44.99555" lon="6.14735">
        <ele>2365.8</ele>
        <time>2022-12-29T14:07:11Z</time>
      </trkpt>
      <trkpt lat="44.99556" lon="6.14735">
        <ele>2365.8</ele>
        <time>2022-12-29T14:07:12Z</time>
      </trkpt>
      <trkpt lat="44.99556" lon="6.14736">
        <ele>2365.8</ele>
        <time>2022-12-29T14:07:13Z</time>
      </trkpt>
      <trkpt lat="44.99556" lon="6.14737">
        <ele>2365.8</ele>
        <time>2022-12-29T14:07:14Z</time>
      </trkpt>
      <trkpt lat="44.99557" lon="6.14737">
        <ele>2365.8</ele>
        <time>2022-12-29T14:07:15Z</time>
      </trkpt>
      <trkpt lat="44.99557" lon="6.14738">
        <ele>2367.4</ele>
        <time>2022-12-29T14:07:16Z</time>
      </trkpt>
      <trkpt lat="44.99557" lon="6.14739">
        <ele>2367.4</ele>
        <time>2022-12-29T14:07:17Z</time>
      </trkpt>
      <trkpt lat="44.99557" lon="6.14739">
        <ele>2367.4</ele>
        <time>2022-12-29T14:07:18Z</time>
      </trkpt>
      <trkpt lat="44.99557" lon="6.1474">
        <ele>2367.4</ele>
        <time>2022-12-29T14:07:19Z</time>
      </trkpt>
      <trkpt lat="44.99557" lon="6.14741">
        <ele>2367.4</ele>
        <time>2022-12-29T14:07:20Z</time>
      </trkpt>
      <trkpt lat="44.99557" lon="6.14741">
        <ele>2367.4</ele>
        <time>2022-12-29T14:07:21Z</time>
      </trkpt>
      <trkpt lat="44.99557" lon="6.14742">
        <ele>2367.4</ele>
        <time>2022-12-29T14:07:22Z</time>
      </trkpt>
      <trkpt lat="44.99557" lon="6.14742">
        <ele>2367.4</ele>
        <time>2022-12-29T14:07:23Z</time>
      </trkpt>
      <trkpt lat="44.99557" lon="6.14743">
        <ele>2367.4</ele>
        <time>2022-12-29T14:07:24Z</time>
      </trkpt>
      <trkpt lat="44.99557" lon="6.14744">
        <ele>2367.4</ele>
        <time>2022-12-29T14:07:25Z</time>
      </trkpt>
      <trkpt lat="44.99557" lon="6.14744">
        <ele>2369.4</ele>
        <time>2022-12-29T14:07:26Z</time>
      </trkpt>
      <trkpt lat="44.99557" lon="6.14744">
        <ele>2369.4</ele>
        <time>2022-12-29T14:07:27Z</time>
      </trkpt>
      <trkpt lat="44.99557" lon="6.14744">
        <ele>2369.4</ele>
        <time>2022-12-29T14:07:28Z</time>
      </trkpt>
      <trkpt lat="44.99557" lon="6.14744">
        <ele>2369.4</ele>
        <time>2022-12-29T14:07:29Z</time>
      </trkpt>
      <trkpt lat="44.99557" lon="6.14744">
        <ele>2369.4</ele>
        <time>2022-12-29T14:07:30Z</time>
      </trkpt>
      <trkpt lat="44.99559" lon="6.14746">
        <ele>2369.4</ele>
        <time>2022-12-29T14:07:31Z</time>
      </trkpt>
      <trkpt lat="44.99559" lon="6.14746">
        <ele>2369.4</ele>
        <time>2022-12-29T14:07:32Z</time>
      </trkpt>
      <trkpt lat="44.99559" lon="6.14746">
        <ele>2369.4</ele>
        <time>2022-12-29T14:07:33Z</time>
      </trkpt>
      <trkpt lat="44.99559" lon="6.14746">
        <ele>2369.4</ele>
        <time>2022-12-29T14:07:34Z</time>
      </trkpt>
      <trkpt lat="44.99559" lon="6.14746">
        <ele>2369.4</ele>
        <time>2022-12-29T14:07:35Z</time>
      </trkpt>
      <trkpt lat="44.99559" lon="6.14746">
        <ele>2371</ele>
        <time>2022-12-29T14:07:36Z</time>
      </trkpt>
      <trkpt lat="44.99559" lon="6.14746">
        <ele>2371</ele>
        <time>2022-12-29T14:07:37Z</time>
      </trkpt>
      <trkpt lat="44.99559" lon="6.14746">
        <ele>2371</ele>
        <time>2022-12-29T14:07:38Z</time>
      </trkpt>
      <trkpt lat="44.99559" lon="6.14747">
        <ele>2371</ele>
        <time>2022-12-29T14:07:39Z</time>
      </trkpt>
      <trkpt lat="44.99559" lon="6.14747">
        <ele>2371</ele>
        <time>2022-12-29T14:07:40Z</time>
      </trkpt>
      <trkpt lat="44.99559" lon="6.14747">
        <ele>2371</ele>
        <time>2022-12-29T14:07:41Z</time>
      </trkpt>
      <trkpt lat="44.99559" lon="6.14747">
        <ele>2371</ele>
        <time>2022-12-29T14:07:42Z</time>
      </trkpt>
      <trkpt lat="44.9956" lon="6.14748">
        <ele>2371</ele>
        <time>2022-12-29T14:07:43Z</time>
      </trkpt>
      <trkpt lat="44.9956" lon="6.14748">
        <ele>2371</ele>
        <time>2022-12-29T14:07:44Z</time>
      </trkpt>
      <trkpt lat="44.9956" lon="6.14748">
        <ele>2371</ele>
        <time>2022-12-29T14:07:45Z</time>
      </trkpt>
      <trkpt lat="44.9956" lon="6.14748">
        <ele>2371.2</ele>
        <time>2022-12-29T14:07:46Z</time>
      </trkpt>
      <trkpt lat="44.9956" lon="6.14749">
        <ele>2371.2</ele>
        <time>2022-12-29T14:07:47Z</time>
      </trkpt>
      <trkpt lat="44.9956" lon="6.14749">
        <ele>2371.2</ele>
        <time>2022-12-29T14:07:48Z</time>
      </trkpt>
      <trkpt lat="44.9956" lon="6.14749">
        <ele>2371.2</ele>
        <time>2022-12-29T14:07:49Z</time>
      </trkpt>
      <trkpt lat="44.9956" lon="6.14749">
        <ele>2371.2</ele>
        <time>2022-12-29T14:07:50Z</time>
      </trkpt>
      <trkpt lat="44.9956" lon="6.1475">
        <ele>2371.2</ele>
        <time>2022-12-29T14:07:51Z</time>
      </trkpt>
      <trkpt lat="44.9956" lon="6.1475">
        <ele>2371.2</ele>
        <time>2022-12-29T14:07:52Z</time>
      </trkpt>
      <trkpt lat="44.9956" lon="6.1475">
        <ele>2371.2</ele>
        <time>2022-12-29T14:07:53Z</time>
      </trkpt>
      <trkpt lat="44.9956" lon="6.14751">
        <ele>2371.2</ele>
        <time>2022-12-29T14:07:54Z</time>
      </trkpt>
      <trkpt lat="44.9956" lon="6.14751">
        <ele>2371.2</ele>
        <time>2022-12-29T14:07:55Z</time>
      </trkpt>
      <trkpt lat="44.9956" lon="6.14751">
        <ele>2371.4</ele>
        <time>2022-12-29T14:07:56Z</time>
      </trkpt>
      <trkpt lat="44.9956" lon="6.14751">
        <ele>2371.4</ele>
        <time>2022-12-29T14:07:57Z</time>
      </trkpt>
      <trkpt lat="44.9956" lon="6.14752">
        <ele>2371.4</ele>
        <time>2022-12-29T14:07:58Z</time>
      </trkpt>
      <trkpt lat="44.99561" lon="6.14752">
        <ele>2371.4</ele>
        <time>2022-12-29T14:07:59Z</time>
      </trkpt>
      <trkpt lat="44.99561" lon="6.14752">
        <ele>2371.4</ele>
        <time>2022-12-29T14:08:00Z</time>
      </trkpt>
      <trkpt lat="44.99561" lon="6.14752">
        <ele>2371.4</ele>
        <time>2022-12-29T14:08:01Z</time>
      </trkpt>
      <trkpt lat="44.99561" lon="6.14753">
        <ele>2371.4</ele>
        <time>2022-12-29T14:08:02Z</time>
      </trkpt>
      <trkpt lat="44.99561" lon="6.14753">
        <ele>2371.4</ele>
        <time>2022-12-29T14:08:03Z</time>
      </trkpt>
      <trkpt lat="44.99561" lon="6.14753">
        <ele>2371.4</ele>
        <time>2022-12-29T14:08:04Z</time>
      </trkpt>
      <trkpt lat="44.99561" lon="6.14753">
        <ele>2371.4</ele>
        <time>2022-12-29T14:08:05Z</time>
      </trkpt>
      <trkpt lat="44.99561" lon="6.14754">
        <ele>2372.4</ele>
        <time>2022-12-29T14:08:06Z</time>
      </trkpt>
      <trkpt lat="44.99561" lon="6.14755">
        <ele>2372.4</ele>
        <time>2022-12-29T14:08:07Z</time>
      </trkpt>
      <trkpt lat="44.99562" lon="6.14757">
        <ele>2372.4</ele>
        <time>2022-12-29T14:08:08Z</time>
      </trkpt>
      <trkpt lat="44.99562" lon="6.14758">
        <ele>2372.4</ele>
        <time>2022-12-29T14:08:09Z</time>
      </trkpt>
      <trkpt lat="44.99562" lon="6.1476">
        <ele>2372.4</ele>
        <time>2022-12-29T14:08:10Z</time>
      </trkpt>
      <trkpt lat="44.99563" lon="6.14761">
        <ele>2372.4</ele>
        <time>2022-12-29T14:08:11Z</time>
      </trkpt>
      <trkpt lat="44.99563" lon="6.14762">
        <ele>2372.4</ele>
        <time>2022-12-29T14:08:12Z</time>
      </trkpt>
      <trkpt lat="44.99563" lon="6.14764">
        <ele>2372.4</ele>
        <time>2022-12-29T14:08:13Z</time>
      </trkpt>
      <trkpt lat="44.99564" lon="6.14765">
        <ele>2372.4</ele>
        <time>2022-12-29T14:08:14Z</time>
      </trkpt>
      <trkpt lat="44.99564" lon="6.14767">
        <ele>2372.4</ele>
        <time>2022-12-29T14:08:15Z</time>
      </trkpt>
      <trkpt lat="44.99565" lon="6.14768">
        <ele>2374.4</ele>
        <time>2022-12-29T14:08:16Z</time>
      </trkpt>
      <trkpt lat="44.99564" lon="6.14769">
        <ele>2374.4</ele>
        <time>2022-12-29T14:08:17Z</time>
      </trkpt>
      <trkpt lat="44.99564" lon="6.1477">
        <ele>2374.4</ele>
        <time>2022-12-29T14:08:18Z</time>
      </trkpt>
      <trkpt lat="44.99564" lon="6.14771">
        <ele>2374.4</ele>
        <time>2022-12-29T14:08:19Z</time>
      </trkpt>
      <trkpt lat="44.99564" lon="6.14772">
        <ele>2374.4</ele>
        <time>2022-12-29T14:08:20Z</time>
      </trkpt>
      <trkpt lat="44.99564" lon="6.14773">
        <ele>2374.4</ele>
        <time>2022-12-29T14:08:21Z</time>
      </trkpt>
      <trkpt lat="44.99564" lon="6.14774">
        <ele>2374.4</ele>
        <time>2022-12-29T14:08:22Z</time>
      </trkpt>
      <trkpt lat="44.99564" lon="6.14775">
        <ele>2374.4</ele>
        <time>2022-12-29T14:08:23Z</time>
      </trkpt>
      <trkpt lat="44.99564" lon="6.14776">
        <ele>2374.4</ele>
        <time>2022-12-29T14:08:24Z</time>
      </trkpt>
      <trkpt lat="44.99564" lon="6.14777">
        <ele>2374.4</ele>
        <time>2022-12-29T14:08:25Z</time>
      </trkpt>
      <trkpt lat="44.99564" lon="6.14778">
        <ele>2377.4</ele>
        <time>2022-12-29T14:08:26Z</time>
      </trkpt>
      <trkpt lat="44.99564" lon="6.14778">
        <ele>2377.4</ele>
        <time>2022-12-29T14:08:27Z</time>
      </trkpt>
      <trkpt lat="44.99564" lon="6.14779">
        <ele>2377.4</ele>
        <time>2022-12-29T14:08:28Z</time>
      </trkpt>
      <trkpt lat="44.99564" lon="6.1478">
        <ele>2377.4</ele>
        <time>2022-12-29T14:08:29Z</time>
      </trkpt>
      <trkpt lat="44.99564" lon="6.1478">
        <ele>2377.4</ele>
        <time>2022-12-29T14:08:30Z</time>
      </trkpt>
      <trkpt lat="44.99564" lon="6.14781">
        <ele>2377.4</ele>
        <time>2022-12-29T14:08:31Z</time>
      </trkpt>
      <trkpt lat="44.99564" lon="6.14782">
        <ele>2377.4</ele>
        <time>2022-12-29T14:08:32Z</time>
      </trkpt>
      <trkpt lat="44.99564" lon="6.14782">
        <ele>2377.4</ele>
        <time>2022-12-29T14:08:33Z</time>
      </trkpt>
      <trkpt lat="44.99564" lon="6.14783">
        <ele>2377.4</ele>
        <time>2022-12-29T14:08:34Z</time>
      </trkpt>
      <trkpt lat="44.99564" lon="6.14784">
        <ele>2377.4</ele>
        <time>2022-12-29T14:08:35Z</time>
      </trkpt>
      <trkpt lat="44.99564" lon="6.14784">
        <ele>2379.2</ele>
        <time>2022-12-29T14:08:36Z</time>
      </trkpt>
      <trkpt lat="44.99564" lon="6.14788">
        <ele>2379.2</ele>
        <time>2022-12-29T14:08:37Z</time>
      </trkpt>
      <trkpt lat="44.99564" lon="6.14789">
        <ele>2379.2</ele>
        <time>2022-12-29T14:08:38Z</time>
      </trkpt>
      <trkpt lat="44.99564" lon="6.14789">
        <ele>2379.2</ele>
        <time>2022-12-29T14:08:39Z</time>
      </trkpt>
      <trkpt lat="44.99564" lon="6.1479">
        <ele>2379.2</ele>
        <time>2022-12-29T14:08:40Z</time>
      </trkpt>
      <trkpt lat="44.99564" lon="6.14791">
        <ele>2379.2</ele>
        <time>2022-12-29T14:08:41Z</time>
      </trkpt>
      <trkpt lat="44.99564" lon="6.14791">
        <ele>2379.2</ele>
        <time>2022-12-29T14:08:42Z</time>
      </trkpt>
      <trkpt lat="44.99564" lon="6.14792">
        <ele>2379.2</ele>
        <time>2022-12-29T14:08:43Z</time>
      </trkpt>
      <trkpt lat="44.99564" lon="6.14793">
        <ele>2379.2</ele>
        <time>2022-12-29T14:08:44Z</time>
      </trkpt>
      <trkpt lat="44.99564" lon="6.14793">
        <ele>2379.2</ele>
        <time>2022-12-29T14:08:45Z</time>
      </trkpt>
      <trkpt lat="44.99564" lon="6.14794">
        <ele>2381.2</ele>
        <time>2022-12-29T14:08:46Z</time>
      </trkpt>
      <trkpt lat="44.99565" lon="6.14796">
        <ele>2381.2</ele>
        <time>2022-12-29T14:08:47Z</time>
      </trkpt>
      <trkpt lat="44.99565" lon="6.14797">
        <ele>2381.2</ele>
        <time>2022-12-29T14:08:48Z</time>
      </trkpt>
      <trkpt lat="44.99565" lon="6.14797">
        <ele>2381.2</ele>
        <time>2022-12-29T14:08:49Z</time>
      </trkpt>
      <trkpt lat="44.99565" lon="6.14797">
        <ele>2381.2</ele>
        <time>2022-12-29T14:08:50Z</time>
      </trkpt>
      <trkpt lat="44.99565" lon="6.14797">
        <ele>2381.2</ele>
        <time>2022-12-29T14:08:51Z</time>
      </trkpt>
      <trkpt lat="44.99565" lon="6.14798">
        <ele>2381.2</ele>
        <time>2022-12-29T14:08:52Z</time>
      </trkpt>
      <trkpt lat="44.99565" lon="6.14798">
        <ele>2381.2</ele>
        <time>2022-12-29T14:08:53Z</time>
      </trkpt>
      <trkpt lat="44.99565" lon="6.14798">
        <ele>2381.2</ele>
        <time>2022-12-29T14:08:54Z</time>
      </trkpt>
      <trkpt lat="44.99565" lon="6.14798">
        <ele>2381.2</ele>
        <time>2022-12-29T14:08:55Z</time>
      </trkpt>
      <trkpt lat="44.99565" lon="6.14799">
        <ele>2381.8</ele>
        <time>2022-12-29T14:08:56Z</time>
      </trkpt>
      <trkpt lat="44.99565" lon="6.14799">
        <ele>2381.8</ele>
        <time>2022-12-29T14:08:57Z</time>
      </trkpt>
      <trkpt lat="44.99565" lon="6.14799">
        <ele>2381.8</ele>
        <time>2022-12-29T14:08:58Z</time>
      </trkpt>
      <trkpt lat="44.99565" lon="6.14799">
        <ele>2381.8</ele>
        <time>2022-12-29T14:08:59Z</time>
      </trkpt>
      <trkpt lat="44.99565" lon="6.14799">
        <ele>2381.8</ele>
        <time>2022-12-29T14:09:00Z</time>
      </trkpt>
      <trkpt lat="44.99565" lon="6.14799">
        <ele>2381.8</ele>
        <time>2022-12-29T14:09:01Z</time>
      </trkpt>
      <trkpt lat="44.99565" lon="6.14799">
        <ele>2381.8</ele>
        <time>2022-12-29T14:09:02Z</time>
      </trkpt>
      <trkpt lat="44.99565" lon="6.14799">
        <ele>2381.8</ele>
        <time>2022-12-29T14:09:03Z</time>
      </trkpt>
      <trkpt lat="44.99565" lon="6.14799">
        <ele>2381.8</ele>
        <time>2022-12-29T14:09:04Z</time>
      </trkpt>
      <trkpt lat="44.99565" lon="6.14802">
        <ele>2381.8</ele>
        <time>2022-12-29T14:09:05Z</time>
      </trkpt>
      <trkpt lat="44.99565" lon="6.14802">
        <ele>2382.4</ele>
        <time>2022-12-29T14:09:06Z</time>
      </trkpt>
      <trkpt lat="44.99565" lon="6.14802">
        <ele>2382.4</ele>
        <time>2022-12-29T14:09:07Z</time>
      </trkpt>
      <trkpt lat="44.99565" lon="6.14802">
        <ele>2382.4</ele>
        <time>2022-12-29T14:09:08Z</time>
      </trkpt>
      <trkpt lat="44.99565" lon="6.14801">
        <ele>2382.4</ele>
        <time>2022-12-29T14:09:09Z</time>
      </trkpt>
      <trkpt lat="44.99565" lon="6.14801">
        <ele>2382.4</ele>
        <time>2022-12-29T14:09:10Z</time>
      </trkpt>
      <trkpt lat="44.99565" lon="6.14801">
        <ele>2382.4</ele>
        <time>2022-12-29T14:09:11Z</time>
      </trkpt>
      <trkpt lat="44.99565" lon="6.14801">
        <ele>2382.4</ele>
        <time>2022-12-29T14:09:12Z</time>
      </trkpt>
      <trkpt lat="44.99565" lon="6.14801">
        <ele>2382.4</ele>
        <time>2022-12-29T14:09:13Z</time>
      </trkpt>
      <trkpt lat="44.99565" lon="6.14801">
        <ele>2382.4</ele>
        <time>2022-12-29T14:09:14Z</time>
      </trkpt>
      <trkpt lat="44.99565" lon="6.14801">
        <ele>2382.4</ele>
        <time>2022-12-29T14:09:15Z</time>
      </trkpt>
      <trkpt lat="44.99565" lon="6.14801">
        <ele>2383</ele>
        <time>2022-12-29T14:09:16Z</time>
      </trkpt>
      <trkpt lat="44.99565" lon="6.14801">
        <ele>2383</ele>
        <time>2022-12-29T14:09:17Z</time>
      </trkpt>
      <trkpt lat="44.99565" lon="6.14801">
        <ele>2383</ele>
        <time>2022-12-29T14:09:18Z</time>
      </trkpt>
      <trkpt lat="44.99565" lon="6.14801">
        <ele>2383</ele>
        <time>2022-12-29T14:09:19Z</time>
      </trkpt>
      <trkpt lat="44.99565" lon="6.14801">
        <ele>2383</ele>
        <time>2022-12-29T14:09:20Z</time>
      </trkpt>
      <trkpt lat="44.99565" lon="6.14801">
        <ele>2383</ele>
        <time>2022-12-29T14:09:21Z</time>
      </trkpt>
      <trkpt lat="44.99565" lon="6.14801">
        <ele>2383</ele>
        <time>2022-12-29T14:09:22Z</time>
      </trkpt>
      <trkpt lat="44.99565" lon="6.14801">
        <ele>2383</ele>
        <time>2022-12-29T14:09:23Z</time>
      </trkpt>
      <trkpt lat="44.99565" lon="6.14801">
        <ele>2383</ele>
        <time>2022-12-29T14:09:24Z</time>
      </trkpt>
      <trkpt lat="44.99565" lon="6.14801">
        <ele>2383</ele>
        <time>2022-12-29T14:09:25Z</time>
      </trkpt>
      <trkpt lat="44.99565" lon="6.14801">
        <ele>2383</ele>
        <time>2022-12-29T14:09:26Z</time>
      </trkpt>
      <trkpt lat="44.99565" lon="6.14801">
        <ele>2383</ele>
        <time>2022-12-29T14:09:27Z</time>
      </trkpt>
      <trkpt lat="44.99565" lon="6.14801">
        <ele>2383</ele>
        <time>2022-12-29T14:09:28Z</time>
      </trkpt>
      <trkpt lat="44.99565" lon="6.14801">
        <ele>2383</ele>
        <time>2022-12-29T14:09:29Z</time>
      </trkpt>
      <trkpt lat="44.99565" lon="6.14801">
        <ele>2383</ele>
        <time>2022-12-29T14:09:30Z</time>
      </trkpt>
      <trkpt lat="44.99565" lon="6.14801">
        <ele>2383</ele>
        <time>2022-12-29T14:09:31Z</time>
      </trkpt>
      <trkpt lat="44.99565" lon="6.14801">
        <ele>2383</ele>
        <time>2022-12-29T14:09:32Z</time>
      </trkpt>
      <trkpt lat="44.99565" lon="6.14801">
        <ele>2383</ele>
        <time>2022-12-29T14:09:33Z</time>
      </trkpt>
      <trkpt lat="44.99565" lon="6.14801">
        <ele>2383</ele>
        <time>2022-12-29T14:09:34Z</time>
      </trkpt>
      <trkpt lat="44.99565" lon="6.14801">
        <ele>2383</ele>
        <time>2022-12-29T14:09:35Z</time>
      </trkpt>
      <trkpt lat="44.99565" lon="6.14801">
        <ele>2383</ele>
        <time>2022-12-29T14:09:36Z</time>
      </trkpt>
      <trkpt lat="44.99565" lon="6.14801">
        <ele>2383</ele>
        <time>2022-12-29T14:09:37Z</time>
      </trkpt>
      <trkpt lat="44.99565" lon="6.14801">
        <ele>2383</ele>
        <time>2022-12-29T14:09:38Z</time>
      </trkpt>
      <trkpt lat="44.99565" lon="6.14801">
        <ele>2383</ele>
        <time>2022-12-29T14:09:39Z</time>
      </trkpt>
      <trkpt lat="44.99565" lon="6.14801">
        <ele>2383</ele>
        <time>2022-12-29T14:09:40Z</time>
      </trkpt>
      <trkpt lat="44.99565" lon="6.14801">
        <ele>2383</ele>
        <time>2022-12-29T14:09:41Z</time>
      </trkpt>
      <trkpt lat="44.99565" lon="6.14801">
        <ele>2383</ele>
        <time>2022-12-29T14:09:42Z</time>
      </trkpt>
      <trkpt lat="44.99565" lon="6.14801">
        <ele>2383</ele>
        <time>2022-12-29T14:09:43Z</time>
      </trkpt>
      <trkpt lat="44.99565" lon="6.14801">
        <ele>2383</ele>
        <time>2022-12-29T14:09:44Z</time>
      </trkpt>
      <trkpt lat="44.99565" lon="6.14801">
        <ele>2383</ele>
        <time>2022-12-29T14:09:45Z</time>
      </trkpt>
      <trkpt lat="44.99564" lon="6.14801">
        <ele>2383</ele>
        <time>2022-12-29T14:09:46Z</time>
      </trkpt>
      <trkpt lat="44.99564" lon="6.14801">
        <ele>2383</ele>
        <time>2022-12-29T14:09:47Z</time>
      </trkpt>
      <trkpt lat="44.99564" lon="6.14801">
        <ele>2383</ele>
        <time>2022-12-29T14:09:48Z</time>
      </trkpt>
      <trkpt lat="44.99564" lon="6.14801">
        <ele>2383</ele>
        <time>2022-12-29T14:09:49Z</time>
      </trkpt>
      <trkpt lat="44.99564" lon="6.14801">
        <ele>2383</ele>
        <time>2022-12-29T14:09:50Z</time>
      </trkpt>
      <trkpt lat="44.99564" lon="6.14801">
        <ele>2383</ele>
        <time>2022-12-29T14:09:51Z</time>
      </trkpt>
      <trkpt lat="44.99564" lon="6.14801">
        <ele>2383</ele>
        <time>2022-12-29T14:09:52Z</time>
      </trkpt>
      <trkpt lat="44.99564" lon="6.14801">
        <ele>2383</ele>
        <time>2022-12-29T14:09:53Z</time>
      </trkpt>
      <trkpt lat="44.99564" lon="6.148">
        <ele>2383</ele>
        <time>2022-12-29T14:09:54Z</time>
      </trkpt>
      <trkpt lat="44.99564" lon="6.148">
        <ele>2383</ele>
        <time>2022-12-29T14:09:55Z</time>
      </trkpt>
      <trkpt lat="44.99564" lon="6.148">
        <ele>2383</ele>
        <time>2022-12-29T14:09:56Z</time>
      </trkpt>
      <trkpt lat="44.99564" lon="6.148">
        <ele>2383</ele>
        <time>2022-12-29T14:09:57Z</time>
      </trkpt>
      <trkpt lat="44.99564" lon="6.148">
        <ele>2383</ele>
        <time>2022-12-29T14:09:58Z</time>
      </trkpt>
      <trkpt lat="44.99564" lon="6.148">
        <ele>2383</ele>
        <time>2022-12-29T14:09:59Z</time>
      </trkpt>
      <trkpt lat="44.99564" lon="6.148">
        <ele>2383</ele>
        <time>2022-12-29T14:10:00Z</time>
      </trkpt>
      <trkpt lat="44.99564" lon="6.148">
        <ele>2383</ele>
        <time>2022-12-29T14:10:01Z</time>
      </trkpt>
      <trkpt lat="44.99564" lon="6.148">
        <ele>2383</ele>
        <time>2022-12-29T14:10:02Z</time>
      </trkpt>
      <trkpt lat="44.99564" lon="6.148">
        <ele>2383</ele>
        <time>2022-12-29T14:10:03Z</time>
      </trkpt>
      <trkpt lat="44.99564" lon="6.148">
        <ele>2383</ele>
        <time>2022-12-29T14:10:04Z</time>
      </trkpt>
      <trkpt lat="44.99564" lon="6.148">
        <ele>2383</ele>
        <time>2022-12-29T14:10:05Z</time>
      </trkpt>
      <trkpt lat="44.99564" lon="6.148">
        <ele>2383.2</ele>
        <time>2022-12-29T14:10:06Z</time>
      </trkpt>
      <trkpt lat="44.99564" lon="6.148">
        <ele>2383.2</ele>
        <time>2022-12-29T14:10:07Z</time>
      </trkpt>
      <trkpt lat="44.99564" lon="6.148">
        <ele>2383.2</ele>
        <time>2022-12-29T14:10:08Z</time>
      </trkpt>
      <trkpt lat="44.99564" lon="6.148">
        <ele>2383.2</ele>
        <time>2022-12-29T14:10:09Z</time>
      </trkpt>
      <trkpt lat="44.99564" lon="6.148">
        <ele>2383.2</ele>
        <time>2022-12-29T14:10:10Z</time>
      </trkpt>
      <trkpt lat="44.99564" lon="6.148">
        <ele>2383.2</ele>
        <time>2022-12-29T14:10:11Z</time>
      </trkpt>
      <trkpt lat="44.99564" lon="6.148">
        <ele>2383.2</ele>
        <time>2022-12-29T14:10:12Z</time>
      </trkpt>
      <trkpt lat="44.99564" lon="6.148">
        <ele>2383.2</ele>
        <time>2022-12-29T14:10:13Z</time>
      </trkpt>
      <trkpt lat="44.99564" lon="6.148">
        <ele>2383.2</ele>
        <time>2022-12-29T14:10:14Z</time>
      </trkpt>
      <trkpt lat="44.99564" lon="6.148">
        <ele>2383.2</ele>
        <time>2022-12-29T14:10:15Z</time>
      </trkpt>
      <trkpt lat="44.99564" lon="6.148">
        <ele>2383.4</ele>
        <time>2022-12-29T14:10:16Z</time>
      </trkpt>
      <trkpt lat="44.99564" lon="6.148">
        <ele>2383.4</ele>
        <time>2022-12-29T14:10:17Z</time>
      </trkpt>
      <trkpt lat="44.99564" lon="6.148">
        <ele>2383.4</ele>
        <time>2022-12-29T14:10:18Z</time>
      </trkpt>
      <trkpt lat="44.99564" lon="6.148">
        <ele>2383.4</ele>
        <time>2022-12-29T14:10:19Z</time>
      </trkpt>
      <trkpt lat="44.99564" lon="6.148">
        <ele>2383.4</ele>
        <time>2022-12-29T14:10:20Z</time>
      </trkpt>
      <trkpt lat="44.99564" lon="6.148">
        <ele>2383.4</ele>
        <time>2022-12-29T14:10:21Z</time>
      </trkpt>
      <trkpt lat="44.99564" lon="6.148">
        <ele>2383.4</ele>
        <time>2022-12-29T14:10:22Z</time>
      </trkpt>
      <trkpt lat="44.99564" lon="6.148">
        <ele>2383.4</ele>
        <time>2022-12-29T14:10:23Z</time>
      </trkpt>
      <trkpt lat="44.99564" lon="6.148">
        <ele>2383.4</ele>
        <time>2022-12-29T14:10:24Z</time>
      </trkpt>
      <trkpt lat="44.99564" lon="6.148">
        <ele>2383.4</ele>
        <time>2022-12-29T14:10:25Z</time>
      </trkpt>
      <trkpt lat="44.99563" lon="6.148">
        <ele>2383</ele>
        <time>2022-12-29T14:10:26Z</time>
      </trkpt>
      <trkpt lat="44.99563" lon="6.148">
        <ele>2383</ele>
        <time>2022-12-29T14:10:27Z</time>
      </trkpt>
      <trkpt lat="44.99563" lon="6.148">
        <ele>2383</ele>
        <time>2022-12-29T14:10:28Z</time>
      </trkpt>
      <trkpt lat="44.99563" lon="6.148">
        <ele>2383</ele>
        <time>2022-12-29T14:10:29Z</time>
      </trkpt>
      <trkpt lat="44.99563" lon="6.148">
        <ele>2383</ele>
        <time>2022-12-29T14:10:30Z</time>
      </trkpt>
      <trkpt lat="44.99563" lon="6.148">
        <ele>2383</ele>
        <time>2022-12-29T14:10:31Z</time>
      </trkpt>
      <trkpt lat="44.99563" lon="6.148">
        <ele>2383</ele>
        <time>2022-12-29T14:10:32Z</time>
      </trkpt>
      <trkpt lat="44.99563" lon="6.148">
        <ele>2383</ele>
        <time>2022-12-29T14:10:33Z</time>
      </trkpt>
      <trkpt lat="44.99563" lon="6.148">
        <ele>2383</ele>
        <time>2022-12-29T14:10:34Z</time>
      </trkpt>
      <trkpt lat="44.99563" lon="6.148">
        <ele>2383</ele>
        <time>2022-12-29T14:10:35Z</time>
      </trkpt>
      <trkpt lat="44.99563" lon="6.148">
        <ele>2383.4</ele>
        <time>2022-12-29T14:10:36Z</time>
      </trkpt>
      <trkpt lat="44.99563" lon="6.148">
        <ele>2383.4</ele>
        <time>2022-12-29T14:10:37Z</time>
      </trkpt>
      <trkpt lat="44.99563" lon="6.14799">
        <ele>2383.4</ele>
        <time>2022-12-29T14:10:38Z</time>
      </trkpt>
      <trkpt lat="44.99563" lon="6.14799">
        <ele>2383.4</ele>
        <time>2022-12-29T14:10:39Z</time>
      </trkpt>
      <trkpt lat="44.99563" lon="6.14799">
        <ele>2383.4</ele>
        <time>2022-12-29T14:10:40Z</time>
      </trkpt>
      <trkpt lat="44.99563" lon="6.14799">
        <ele>2383.4</ele>
        <time>2022-12-29T14:10:41Z</time>
      </trkpt>
      <trkpt lat="44.99563" lon="6.14799">
        <ele>2383.4</ele>
        <time>2022-12-29T14:10:42Z</time>
      </trkpt>
      <trkpt lat="44.99563" lon="6.14799">
        <ele>2383.4</ele>
        <time>2022-12-29T14:10:43Z</time>
      </trkpt>
      <trkpt lat="44.99563" lon="6.14799">
        <ele>2383.4</ele>
        <time>2022-12-29T14:10:44Z</time>
      </trkpt>
      <trkpt lat="44.99563" lon="6.14799">
        <ele>2383.4</ele>
        <time>2022-12-29T14:10:45Z</time>
      </trkpt>
      <trkpt lat="44.99563" lon="6.14799">
        <ele>2383.8</ele>
        <time>2022-12-29T14:10:46Z</time>
      </trkpt>
      <trkpt lat="44.99563" lon="6.14799">
        <ele>2383.8</ele>
        <time>2022-12-29T14:10:47Z</time>
      </trkpt>
      <trkpt lat="44.99563" lon="6.14799">
        <ele>2383.8</ele>
        <time>2022-12-29T14:10:48Z</time>
      </trkpt>
      <trkpt lat="44.99563" lon="6.14799">
        <ele>2383.8</ele>
        <time>2022-12-29T14:10:49Z</time>
      </trkpt>
      <trkpt lat="44.99563" lon="6.14799">
        <ele>2383.8</ele>
        <time>2022-12-29T14:10:50Z</time>
      </trkpt>
      <trkpt lat="44.99563" lon="6.14799">
        <ele>2383.8</ele>
        <time>2022-12-29T14:10:51Z</time>
      </trkpt>
      <trkpt lat="44.99563" lon="6.14799">
        <ele>2383.8</ele>
        <time>2022-12-29T14:10:52Z</time>
      </trkpt>
      <trkpt lat="44.99563" lon="6.14799">
        <ele>2383.8</ele>
        <time>2022-12-29T14:10:53Z</time>
      </trkpt>
      <trkpt lat="44.99563" lon="6.14799">
        <ele>2383.8</ele>
        <time>2022-12-29T14:10:54Z</time>
      </trkpt>
      <trkpt lat="44.99563" lon="6.14799">
        <ele>2383.8</ele>
        <time>2022-12-29T14:10:55Z</time>
      </trkpt>
      <trkpt lat="44.99563" lon="6.14799">
        <ele>2383.6</ele>
        <time>2022-12-29T14:10:56Z</time>
      </trkpt>
      <trkpt lat="44.99563" lon="6.14799">
        <ele>2383.6</ele>
        <time>2022-12-29T14:10:57Z</time>
      </trkpt>
      <trkpt lat="44.99563" lon="6.14799">
        <ele>2383.6</ele>
        <time>2022-12-29T14:10:58Z</time>
      </trkpt>
      <trkpt lat="44.99563" lon="6.14799">
        <ele>2383.6</ele>
        <time>2022-12-29T14:10:59Z</time>
      </trkpt>
      <trkpt lat="44.99563" lon="6.14799">
        <ele>2383.6</ele>
        <time>2022-12-29T14:11:00Z</time>
      </trkpt>
      <trkpt lat="44.99563" lon="6.14799">
        <ele>2383.6</ele>
        <time>2022-12-29T14:11:01Z</time>
      </trkpt>
      <trkpt lat="44.99563" lon="6.14799">
        <ele>2383.6</ele>
        <time>2022-12-29T14:11:02Z</time>
      </trkpt>
      <trkpt lat="44.99563" lon="6.14799">
        <ele>2383.6</ele>
        <time>2022-12-29T14:11:03Z</time>
      </trkpt>
      <trkpt lat="44.99563" lon="6.14799">
        <ele>2383.6</ele>
        <time>2022-12-29T14:11:04Z</time>
      </trkpt>
      <trkpt lat="44.99562" lon="6.14799">
        <ele>2383.6</ele>
        <time>2022-12-29T14:11:05Z</time>
      </trkpt>
      <trkpt lat="44.99562" lon="6.14799">
        <ele>2383.4</ele>
        <time>2022-12-29T14:11:06Z</time>
      </trkpt>
      <trkpt lat="44.99562" lon="6.14799">
        <ele>2383.4</ele>
        <time>2022-12-29T14:11:07Z</time>
      </trkpt>
      <trkpt lat="44.99562" lon="6.14799">
        <ele>2383.4</ele>
        <time>2022-12-29T14:11:08Z</time>
      </trkpt>
      <trkpt lat="44.99562" lon="6.14799">
        <ele>2383.4</ele>
        <time>2022-12-29T14:11:09Z</time>
      </trkpt>
      <trkpt lat="44.99562" lon="6.14799">
        <ele>2383.4</ele>
        <time>2022-12-29T14:11:10Z</time>
      </trkpt>
      <trkpt lat="44.99562" lon="6.14799">
        <ele>2383.4</ele>
        <time>2022-12-29T14:11:11Z</time>
      </trkpt>
      <trkpt lat="44.99562" lon="6.14799">
        <ele>2383.4</ele>
        <time>2022-12-29T14:11:12Z</time>
      </trkpt>
      <trkpt lat="44.99562" lon="6.14799">
        <ele>2383.4</ele>
        <time>2022-12-29T14:11:13Z</time>
      </trkpt>
      <trkpt lat="44.99562" lon="6.14799">
        <ele>2383.4</ele>
        <time>2022-12-29T14:11:14Z</time>
      </trkpt>
      <trkpt lat="44.99562" lon="6.14799">
        <ele>2383.4</ele>
        <time>2022-12-29T14:11:15Z</time>
      </trkpt>
      <trkpt lat="44.99562" lon="6.14799">
        <ele>2383.4</ele>
        <time>2022-12-29T14:11:16Z</time>
      </trkpt>
      <trkpt lat="44.99562" lon="6.14799">
        <ele>2383.4</ele>
        <time>2022-12-29T14:11:17Z</time>
      </trkpt>
      <trkpt lat="44.99562" lon="6.14799">
        <ele>2383.4</ele>
        <time>2022-12-29T14:11:18Z</time>
      </trkpt>
      <trkpt lat="44.99562" lon="6.14799">
        <ele>2383.4</ele>
        <time>2022-12-29T14:11:19Z</time>
      </trkpt>
      <trkpt lat="44.99562" lon="6.14799">
        <ele>2383.4</ele>
        <time>2022-12-29T14:11:20Z</time>
      </trkpt>
      <trkpt lat="44.99562" lon="6.14799">
        <ele>2383.4</ele>
        <time>2022-12-29T14:11:21Z</time>
      </trkpt>
      <trkpt lat="44.99562" lon="6.14798">
        <ele>2383.4</ele>
        <time>2022-12-29T14:11:22Z</time>
      </trkpt>
      <trkpt lat="44.99562" lon="6.14798">
        <ele>2383.4</ele>
        <time>2022-12-29T14:11:23Z</time>
      </trkpt>
      <trkpt lat="44.99562" lon="6.14798">
        <ele>2383.4</ele>
        <time>2022-12-29T14:11:24Z</time>
      </trkpt>
      <trkpt lat="44.99562" lon="6.14798">
        <ele>2383.4</ele>
        <time>2022-12-29T14:11:25Z</time>
      </trkpt>
      <trkpt lat="44.99562" lon="6.14798">
        <ele>2384</ele>
        <time>2022-12-29T14:11:26Z</time>
      </trkpt>
      <trkpt lat="44.99561" lon="6.14803">
        <ele>2384</ele>
        <time>2022-12-29T14:11:27Z</time>
      </trkpt>
      <trkpt lat="44.9956" lon="6.14804">
        <ele>2384</ele>
        <time>2022-12-29T14:11:28Z</time>
      </trkpt>
      <trkpt lat="44.9956" lon="6.14805">
        <ele>2384</ele>
        <time>2022-12-29T14:11:29Z</time>
      </trkpt>
      <trkpt lat="44.99559" lon="6.14806">
        <ele>2384</ele>
        <time>2022-12-29T14:11:30Z</time>
      </trkpt>
      <trkpt lat="44.99559" lon="6.14807">
        <ele>2384</ele>
        <time>2022-12-29T14:11:31Z</time>
      </trkpt>
      <trkpt lat="44.99558" lon="6.14808">
        <ele>2384</ele>
        <time>2022-12-29T14:11:32Z</time>
      </trkpt>
      <trkpt lat="44.99558" lon="6.14809">
        <ele>2384</ele>
        <time>2022-12-29T14:11:33Z</time>
      </trkpt>
      <trkpt lat="44.99557" lon="6.1481">
        <ele>2384</ele>
        <time>2022-12-29T14:11:34Z</time>
      </trkpt>
      <trkpt lat="44.99556" lon="6.14811">
        <ele>2384</ele>
        <time>2022-12-29T14:11:35Z</time>
      </trkpt>
      <trkpt lat="44.99556" lon="6.14812">
        <ele>2386.4</ele>
        <time>2022-12-29T14:11:36Z</time>
      </trkpt>
      <trkpt lat="44.99555" lon="6.14812">
        <ele>2386.4</ele>
        <time>2022-12-29T14:11:37Z</time>
      </trkpt>
      <trkpt lat="44.99555" lon="6.14813">
        <ele>2386.4</ele>
        <time>2022-12-29T14:11:38Z</time>
      </trkpt>
      <trkpt lat="44.99554" lon="6.14813">
        <ele>2386.4</ele>
        <time>2022-12-29T14:11:39Z</time>
      </trkpt>
      <trkpt lat="44.99553" lon="6.14813">
        <ele>2386.4</ele>
        <time>2022-12-29T14:11:40Z</time>
      </trkpt>
      <trkpt lat="44.99553" lon="6.14814">
        <ele>2386.4</ele>
        <time>2022-12-29T14:11:41Z</time>
      </trkpt>
      <trkpt lat="44.99552" lon="6.14814">
        <ele>2386.4</ele>
        <time>2022-12-29T14:11:42Z</time>
      </trkpt>
      <trkpt lat="44.99552" lon="6.14815">
        <ele>2386.4</ele>
        <time>2022-12-29T14:11:43Z</time>
      </trkpt>
      <trkpt lat="44.99551" lon="6.14815">
        <ele>2386.4</ele>
        <time>2022-12-29T14:11:44Z</time>
      </trkpt>
      <trkpt lat="44.9955" lon="6.14815">
        <ele>2386.4</ele>
        <time>2022-12-29T14:11:45Z</time>
      </trkpt>
      <trkpt lat="44.9955" lon="6.14816">
        <ele>2388</ele>
        <time>2022-12-29T14:11:46Z</time>
      </trkpt>
      <trkpt lat="44.99549" lon="6.14816">
        <ele>2388</ele>
        <time>2022-12-29T14:11:47Z</time>
      </trkpt>
      <trkpt lat="44.99549" lon="6.14817">
        <ele>2388</ele>
        <time>2022-12-29T14:11:48Z</time>
      </trkpt>
      <trkpt lat="44.99548" lon="6.14817">
        <ele>2388</ele>
        <time>2022-12-29T14:11:49Z</time>
      </trkpt>
      <trkpt lat="44.99547" lon="6.14817">
        <ele>2388</ele>
        <time>2022-12-29T14:11:50Z</time>
      </trkpt>
      <trkpt lat="44.99547" lon="6.14818">
        <ele>2388</ele>
        <time>2022-12-29T14:11:51Z</time>
      </trkpt>
      <trkpt lat="44.99546" lon="6.14818">
        <ele>2388</ele>
        <time>2022-12-29T14:11:52Z</time>
      </trkpt>
      <trkpt lat="44.99546" lon="6.14818">
        <ele>2388</ele>
        <time>2022-12-29T14:11:53Z</time>
      </trkpt>
      <trkpt lat="44.99545" lon="6.14819">
        <ele>2388</ele>
        <time>2022-12-29T14:11:54Z</time>
      </trkpt>
      <trkpt lat="44.99544" lon="6.14819">
        <ele>2388</ele>
        <time>2022-12-29T14:11:55Z</time>
      </trkpt>
      <trkpt lat="44.99544" lon="6.14819">
        <ele>2389.8</ele>
        <time>2022-12-29T14:11:56Z</time>
      </trkpt>
      <trkpt lat="44.99541" lon="6.1482">
        <ele>2389.8</ele>
        <time>2022-12-29T14:11:57Z</time>
      </trkpt>
      <trkpt lat="44.99541" lon="6.1482">
        <ele>2389.8</ele>
        <time>2022-12-29T14:11:58Z</time>
      </trkpt>
      <trkpt lat="44.9954" lon="6.1482">
        <ele>2389.8</ele>
        <time>2022-12-29T14:11:59Z</time>
      </trkpt>
      <trkpt lat="44.99539" lon="6.1482">
        <ele>2389.8</ele>
        <time>2022-12-29T14:12:00Z</time>
      </trkpt>
      <trkpt lat="44.99539" lon="6.14821">
        <ele>2389.8</ele>
        <time>2022-12-29T14:12:01Z</time>
      </trkpt>
      <trkpt lat="44.99538" lon="6.14821">
        <ele>2389.8</ele>
        <time>2022-12-29T14:12:02Z</time>
      </trkpt>
      <trkpt lat="44.99538" lon="6.14821">
        <ele>2389.8</ele>
        <time>2022-12-29T14:12:03Z</time>
      </trkpt>
      <trkpt lat="44.99537" lon="6.14822">
        <ele>2389.8</ele>
        <time>2022-12-29T14:12:04Z</time>
      </trkpt>
      <trkpt lat="44.99536" lon="6.14822">
        <ele>2389.8</ele>
        <time>2022-12-29T14:12:05Z</time>
      </trkpt>
      <trkpt lat="44.99536" lon="6.14822">
        <ele>2391.2</ele>
        <time>2022-12-29T14:12:06Z</time>
      </trkpt>
      <trkpt lat="44.99535" lon="6.14822">
        <ele>2391.2</ele>
        <time>2022-12-29T14:12:08Z</time>
      </trkpt>
      <trkpt lat="44.99534" lon="6.14823">
        <ele>2391.2</ele>
        <time>2022-12-29T14:12:09Z</time>
      </trkpt>
      <trkpt lat="44.99534" lon="6.14823">
        <ele>2391.2</ele>
        <time>2022-12-29T14:12:10Z</time>
      </trkpt>
      <trkpt lat="44.99533" lon="6.14824">
        <ele>2391.2</ele>
        <time>2022-12-29T14:12:11Z</time>
      </trkpt>
      <trkpt lat="44.99533" lon="6.14824">
        <ele>2391.2</ele>
        <time>2022-12-29T14:12:12Z</time>
      </trkpt>
      <trkpt lat="44.99532" lon="6.14825">
        <ele>2391.2</ele>
        <time>2022-12-29T14:12:13Z</time>
      </trkpt>
      <trkpt lat="44.99531" lon="6.14825">
        <ele>2391.2</ele>
        <time>2022-12-29T14:12:14Z</time>
      </trkpt>
      <trkpt lat="44.99531" lon="6.14825">
        <ele>2391.2</ele>
        <time>2022-12-29T14:12:15Z</time>
      </trkpt>
      <trkpt lat="44.9953" lon="6.14826">
        <ele>2392.8</ele>
        <time>2022-12-29T14:12:16Z</time>
      </trkpt>
      <trkpt lat="44.9953" lon="6.14826">
        <ele>2392.8</ele>
        <time>2022-12-29T14:12:17Z</time>
      </trkpt>
      <trkpt lat="44.99529" lon="6.14826">
        <ele>2392.8</ele>
        <time>2022-12-29T14:12:18Z</time>
      </trkpt>
      <trkpt lat="44.99529" lon="6.14826">
        <ele>2392.8</ele>
        <time>2022-12-29T14:12:19Z</time>
      </trkpt>
      <trkpt lat="44.99528" lon="6.14826">
        <ele>2392.8</ele>
        <time>2022-12-29T14:12:20Z</time>
      </trkpt>
      <trkpt lat="44.99528" lon="6.14827">
        <ele>2392.8</ele>
        <time>2022-12-29T14:12:21Z</time>
      </trkpt>
      <trkpt lat="44.99528" lon="6.14827">
        <ele>2392.8</ele>
        <time>2022-12-29T14:12:22Z</time>
      </trkpt>
      <trkpt lat="44.99527" lon="6.14827">
        <ele>2392.8</ele>
        <time>2022-12-29T14:12:23Z</time>
      </trkpt>
      <trkpt lat="44.99527" lon="6.14827">
        <ele>2392.8</ele>
        <time>2022-12-29T14:12:24Z</time>
      </trkpt>
      <trkpt lat="44.99527" lon="6.14827">
        <ele>2392.8</ele>
        <time>2022-12-29T14:12:25Z</time>
      </trkpt>
      <trkpt lat="44.99526" lon="6.14828">
        <ele>2395</ele>
        <time>2022-12-29T14:12:26Z</time>
      </trkpt>
      <trkpt lat="44.99524" lon="6.1483">
        <ele>2395</ele>
        <time>2022-12-29T14:12:27Z</time>
      </trkpt>
      <trkpt lat="44.99524" lon="6.1483">
        <ele>2395</ele>
        <time>2022-12-29T14:12:28Z</time>
      </trkpt>
      <trkpt lat="44.99524" lon="6.1483">
        <ele>2395</ele>
        <time>2022-12-29T14:12:29Z</time>
      </trkpt>
      <trkpt lat="44.99523" lon="6.1483">
        <ele>2395</ele>
        <time>2022-12-29T14:12:30Z</time>
      </trkpt>
      <trkpt lat="44.99523" lon="6.1483">
        <ele>2395</ele>
        <time>2022-12-29T14:12:31Z</time>
      </trkpt>
      <trkpt lat="44.99523" lon="6.1483">
        <ele>2395</ele>
        <time>2022-12-29T14:12:32Z</time>
      </trkpt>
      <trkpt lat="44.99523" lon="6.1483">
        <ele>2395</ele>
        <time>2022-12-29T14:12:33Z</time>
      </trkpt>
      <trkpt lat="44.99522" lon="6.1483">
        <ele>2395</ele>
        <time>2022-12-29T14:12:34Z</time>
      </trkpt>
      <trkpt lat="44.99522" lon="6.1483">
        <ele>2395</ele>
        <time>2022-12-29T14:12:35Z</time>
      </trkpt>
      <trkpt lat="44.99522" lon="6.14831">
        <ele>2397.2</ele>
        <time>2022-12-29T14:12:36Z</time>
      </trkpt>
      <trkpt lat="44.9952" lon="6.14832">
        <ele>2397.2</ele>
        <time>2022-12-29T14:12:37Z</time>
      </trkpt>
      <trkpt lat="44.99519" lon="6.14832">
        <ele>2397.2</ele>
        <time>2022-12-29T14:12:38Z</time>
      </trkpt>
      <trkpt lat="44.99519" lon="6.14832">
        <ele>2397.2</ele>
        <time>2022-12-29T14:12:39Z</time>
      </trkpt>
      <trkpt lat="44.99519" lon="6.14832">
        <ele>2397.2</ele>
        <time>2022-12-29T14:12:40Z</time>
      </trkpt>
      <trkpt lat="44.99518" lon="6.14832">
        <ele>2397.2</ele>
        <time>2022-12-29T14:12:41Z</time>
      </trkpt>
      <trkpt lat="44.99518" lon="6.14832">
        <ele>2397.2</ele>
        <time>2022-12-29T14:12:42Z</time>
      </trkpt>
      <trkpt lat="44.99517" lon="6.14832">
        <ele>2397.2</ele>
        <time>2022-12-29T14:12:43Z</time>
      </trkpt>
      <trkpt lat="44.99517" lon="6.14832">
        <ele>2397.2</ele>
        <time>2022-12-29T14:12:44Z</time>
      </trkpt>
      <trkpt lat="44.99517" lon="6.14832">
        <ele>2397.2</ele>
        <time>2022-12-29T14:12:45Z</time>
      </trkpt>
      <trkpt lat="44.99516" lon="6.14832">
        <ele>2399.2</ele>
        <time>2022-12-29T14:12:46Z</time>
      </trkpt>
      <trkpt lat="44.99514" lon="6.14834">
        <ele>2399.2</ele>
        <time>2022-12-29T14:12:47Z</time>
      </trkpt>
      <trkpt lat="44.99513" lon="6.14834">
        <ele>2399.2</ele>
        <time>2022-12-29T14:12:48Z</time>
      </trkpt>
      <trkpt lat="44.99513" lon="6.14834">
        <ele>2399.2</ele>
        <time>2022-12-29T14:12:49Z</time>
      </trkpt>
      <trkpt lat="44.99513" lon="6.14834">
        <ele>2399.2</ele>
        <time>2022-12-29T14:12:50Z</time>
      </trkpt>
      <trkpt lat="44.99512" lon="6.14834">
        <ele>2399.2</ele>
        <time>2022-12-29T14:12:51Z</time>
      </trkpt>
      <trkpt lat="44.99512" lon="6.14834">
        <ele>2399.2</ele>
        <time>2022-12-29T14:12:52Z</time>
      </trkpt>
      <trkpt lat="44.99511" lon="6.14834">
        <ele>2399.2</ele>
        <time>2022-12-29T14:12:53Z</time>
      </trkpt>
      <trkpt lat="44.99511" lon="6.14834">
        <ele>2399.2</ele>
        <time>2022-12-29T14:12:54Z</time>
      </trkpt>
      <trkpt lat="44.99511" lon="6.14835">
        <ele>2399.2</ele>
        <time>2022-12-29T14:12:55Z</time>
      </trkpt>
      <trkpt lat="44.9951" lon="6.14835">
        <ele>2401.4</ele>
        <time>2022-12-29T14:12:56Z</time>
      </trkpt>
      <trkpt lat="44.9951" lon="6.14835">
        <ele>2401.4</ele>
        <time>2022-12-29T14:12:57Z</time>
      </trkpt>
      <trkpt lat="44.99509" lon="6.14835">
        <ele>2401.4</ele>
        <time>2022-12-29T14:12:58Z</time>
      </trkpt>
      <trkpt lat="44.99509" lon="6.14835">
        <ele>2401.4</ele>
        <time>2022-12-29T14:12:59Z</time>
      </trkpt>
      <trkpt lat="44.99508" lon="6.14836">
        <ele>2401.4</ele>
        <time>2022-12-29T14:13:00Z</time>
      </trkpt>
      <trkpt lat="44.99508" lon="6.14836">
        <ele>2401.4</ele>
        <time>2022-12-29T14:13:01Z</time>
      </trkpt>
      <trkpt lat="44.99508" lon="6.14836">
        <ele>2401.4</ele>
        <time>2022-12-29T14:13:02Z</time>
      </trkpt>
      <trkpt lat="44.99507" lon="6.14836">
        <ele>2401.4</ele>
        <time>2022-12-29T14:13:03Z</time>
      </trkpt>
      <trkpt lat="44.99507" lon="6.14836">
        <ele>2401.4</ele>
        <time>2022-12-29T14:13:04Z</time>
      </trkpt>
      <trkpt lat="44.99506" lon="6.14836">
        <ele>2401.4</ele>
        <time>2022-12-29T14:13:05Z</time>
      </trkpt>
      <trkpt lat="44.99506" lon="6.14837">
        <ele>2403.6</ele>
        <time>2022-12-29T14:13:06Z</time>
      </trkpt>
      <trkpt lat="44.99504" lon="6.14838">
        <ele>2403.6</ele>
        <time>2022-12-29T14:13:07Z</time>
      </trkpt>
      <trkpt lat="44.99503" lon="6.14839">
        <ele>2403.6</ele>
        <time>2022-12-29T14:13:08Z</time>
      </trkpt>
      <trkpt lat="44.99503" lon="6.14839">
        <ele>2403.6</ele>
        <time>2022-12-29T14:13:09Z</time>
      </trkpt>
      <trkpt lat="44.99503" lon="6.1484">
        <ele>2403.6</ele>
        <time>2022-12-29T14:13:10Z</time>
      </trkpt>
      <trkpt lat="44.99502" lon="6.1484">
        <ele>2403.6</ele>
        <time>2022-12-29T14:13:11Z</time>
      </trkpt>
      <trkpt lat="44.99502" lon="6.1484">
        <ele>2403.6</ele>
        <time>2022-12-29T14:13:12Z</time>
      </trkpt>
      <trkpt lat="44.99501" lon="6.14841">
        <ele>2403.6</ele>
        <time>2022-12-29T14:13:13Z</time>
      </trkpt>
      <trkpt lat="44.99501" lon="6.14841">
        <ele>2403.6</ele>
        <time>2022-12-29T14:13:14Z</time>
      </trkpt>
      <trkpt lat="44.99501" lon="6.14841">
        <ele>2403.6</ele>
        <time>2022-12-29T14:13:15Z</time>
      </trkpt>
      <trkpt lat="44.995" lon="6.14842">
        <ele>2405.4</ele>
        <time>2022-12-29T14:13:16Z</time>
      </trkpt>
      <trkpt lat="44.995" lon="6.14842">
        <ele>2405.4</ele>
        <time>2022-12-29T14:13:17Z</time>
      </trkpt>
      <trkpt lat="44.99499" lon="6.14842">
        <ele>2405.4</ele>
        <time>2022-12-29T14:13:18Z</time>
      </trkpt>
      <trkpt lat="44.99498" lon="6.14842">
        <ele>2405.4</ele>
        <time>2022-12-29T14:13:19Z</time>
      </trkpt>
      <trkpt lat="44.99498" lon="6.14843">
        <ele>2405.4</ele>
        <time>2022-12-29T14:13:20Z</time>
      </trkpt>
      <trkpt lat="44.99497" lon="6.14843">
        <ele>2405.4</ele>
        <time>2022-12-29T14:13:21Z</time>
      </trkpt>
      <trkpt lat="44.99497" lon="6.14843">
        <ele>2405.4</ele>
        <time>2022-12-29T14:13:22Z</time>
      </trkpt>
      <trkpt lat="44.99496" lon="6.14844">
        <ele>2405.4</ele>
        <time>2022-12-29T14:13:23Z</time>
      </trkpt>
      <trkpt lat="44.99495" lon="6.14844">
        <ele>2405.4</ele>
        <time>2022-12-29T14:13:24Z</time>
      </trkpt>
      <trkpt lat="44.99495" lon="6.14844">
        <ele>2405.4</ele>
        <time>2022-12-29T14:13:25Z</time>
      </trkpt>
      <trkpt lat="44.99494" lon="6.14844">
        <ele>2407.8</ele>
        <time>2022-12-29T14:13:26Z</time>
      </trkpt>
      <trkpt lat="44.99494" lon="6.14845">
        <ele>2407.8</ele>
        <time>2022-12-29T14:13:27Z</time>
      </trkpt>
      <trkpt lat="44.99493" lon="6.14845">
        <ele>2407.8</ele>
        <time>2022-12-29T14:13:28Z</time>
      </trkpt>
      <trkpt lat="44.99493" lon="6.14845">
        <ele>2407.8</ele>
        <time>2022-12-29T14:13:29Z</time>
      </trkpt>
      <trkpt lat="44.99493" lon="6.14846">
        <ele>2407.8</ele>
        <time>2022-12-29T14:13:30Z</time>
      </trkpt>
      <trkpt lat="44.99492" lon="6.14846">
        <ele>2407.8</ele>
        <time>2022-12-29T14:13:31Z</time>
      </trkpt>
      <trkpt lat="44.99492" lon="6.14847">
        <ele>2407.8</ele>
        <time>2022-12-29T14:13:32Z</time>
      </trkpt>
      <trkpt lat="44.99491" lon="6.14847">
        <ele>2407.8</ele>
        <time>2022-12-29T14:13:33Z</time>
      </trkpt>
      <trkpt lat="44.99491" lon="6.14847">
        <ele>2407.8</ele>
        <time>2022-12-29T14:13:34Z</time>
      </trkpt>
      <trkpt lat="44.99491" lon="6.14848">
        <ele>2407.8</ele>
        <time>2022-12-29T14:13:35Z</time>
      </trkpt>
      <trkpt lat="44.9949" lon="6.14848">
        <ele>2409.6</ele>
        <time>2022-12-29T14:13:36Z</time>
      </trkpt>
      <trkpt lat="44.9949" lon="6.14848">
        <ele>2409.6</ele>
        <time>2022-12-29T14:13:37Z</time>
      </trkpt>
      <trkpt lat="44.9949" lon="6.14848">
        <ele>2409.6</ele>
        <time>2022-12-29T14:13:38Z</time>
      </trkpt>
      <trkpt lat="44.9949" lon="6.14848">
        <ele>2409.6</ele>
        <time>2022-12-29T14:13:39Z</time>
      </trkpt>
      <trkpt lat="44.9949" lon="6.14848">
        <ele>2409.6</ele>
        <time>2022-12-29T14:13:40Z</time>
      </trkpt>
      <trkpt lat="44.99489" lon="6.1485">
        <ele>2409.6</ele>
        <time>2022-12-29T14:13:41Z</time>
      </trkpt>
      <trkpt lat="44.99489" lon="6.1485">
        <ele>2409.6</ele>
        <time>2022-12-29T14:13:42Z</time>
      </trkpt>
      <trkpt lat="44.99489" lon="6.1485">
        <ele>2409.6</ele>
        <time>2022-12-29T14:13:43Z</time>
      </trkpt>
      <trkpt lat="44.99489" lon="6.1485">
        <ele>2409.6</ele>
        <time>2022-12-29T14:13:44Z</time>
      </trkpt>
      <trkpt lat="44.99489" lon="6.1485">
        <ele>2409.6</ele>
        <time>2022-12-29T14:13:45Z</time>
      </trkpt>
      <trkpt lat="44.99487" lon="6.14852">
        <ele>2411.8</ele>
        <time>2022-12-29T14:13:46Z</time>
      </trkpt>
      <trkpt lat="44.99487" lon="6.14852">
        <ele>2411.8</ele>
        <time>2022-12-29T14:13:47Z</time>
      </trkpt>
      <trkpt lat="44.99487" lon="6.14852">
        <ele>2411.8</ele>
        <time>2022-12-29T14:13:48Z</time>
      </trkpt>
      <trkpt lat="44.99486" lon="6.14853">
        <ele>2411.8</ele>
        <time>2022-12-29T14:13:49Z</time>
      </trkpt>
      <trkpt lat="44.99486" lon="6.14853">
        <ele>2411.8</ele>
        <time>2022-12-29T14:13:50Z</time>
      </trkpt>
      <trkpt lat="44.99485" lon="6.14853">
        <ele>2411.8</ele>
        <time>2022-12-29T14:13:51Z</time>
      </trkpt>
      <trkpt lat="44.99485" lon="6.14853">
        <ele>2411.8</ele>
        <time>2022-12-29T14:13:52Z</time>
      </trkpt>
      <trkpt lat="44.99484" lon="6.14854">
        <ele>2411.8</ele>
        <time>2022-12-29T14:13:53Z</time>
      </trkpt>
      <trkpt lat="44.99484" lon="6.14854">
        <ele>2411.8</ele>
        <time>2022-12-29T14:13:54Z</time>
      </trkpt>
      <trkpt lat="44.99484" lon="6.14854">
        <ele>2411.8</ele>
        <time>2022-12-29T14:13:55Z</time>
      </trkpt>
      <trkpt lat="44.99483" lon="6.14854">
        <ele>2414.2</ele>
        <time>2022-12-29T14:13:56Z</time>
      </trkpt>
      <trkpt lat="44.99483" lon="6.14855">
        <ele>2414.2</ele>
        <time>2022-12-29T14:13:57Z</time>
      </trkpt>
      <trkpt lat="44.99482" lon="6.14855">
        <ele>2414.2</ele>
        <time>2022-12-29T14:13:58Z</time>
      </trkpt>
      <trkpt lat="44.99482" lon="6.14856">
        <ele>2414.2</ele>
        <time>2022-12-29T14:13:59Z</time>
      </trkpt>
      <trkpt lat="44.99481" lon="6.14856">
        <ele>2414.2</ele>
        <time>2022-12-29T14:14:00Z</time>
      </trkpt>
      <trkpt lat="44.9948" lon="6.14856">
        <ele>2414.2</ele>
        <time>2022-12-29T14:14:01Z</time>
      </trkpt>
      <trkpt lat="44.9948" lon="6.14857">
        <ele>2414.2</ele>
        <time>2022-12-29T14:14:02Z</time>
      </trkpt>
      <trkpt lat="44.99479" lon="6.14857">
        <ele>2414.2</ele>
        <time>2022-12-29T14:14:03Z</time>
      </trkpt>
      <trkpt lat="44.99479" lon="6.14858">
        <ele>2414.2</ele>
        <time>2022-12-29T14:14:04Z</time>
      </trkpt>
      <trkpt lat="44.99478" lon="6.14858">
        <ele>2414.2</ele>
        <time>2022-12-29T14:14:05Z</time>
      </trkpt>
      <trkpt lat="44.99477" lon="6.14859">
        <ele>2416.2</ele>
        <time>2022-12-29T14:14:06Z</time>
      </trkpt>
      <trkpt lat="44.99477" lon="6.14859">
        <ele>2416.2</ele>
        <time>2022-12-29T14:14:07Z</time>
      </trkpt>
      <trkpt lat="44.99477" lon="6.14859">
        <ele>2416.2</ele>
        <time>2022-12-29T14:14:08Z</time>
      </trkpt>
      <trkpt lat="44.99476" lon="6.14861">
        <ele>2416.2</ele>
        <time>2022-12-29T14:14:09Z</time>
      </trkpt>
      <trkpt lat="44.99476" lon="6.14861">
        <ele>2416.2</ele>
        <time>2022-12-29T14:14:10Z</time>
      </trkpt>
      <trkpt lat="44.99476" lon="6.14861">
        <ele>2416.2</ele>
        <time>2022-12-29T14:14:11Z</time>
      </trkpt>
      <trkpt lat="44.99476" lon="6.14861">
        <ele>2416.2</ele>
        <time>2022-12-29T14:14:12Z</time>
      </trkpt>
      <trkpt lat="44.99476" lon="6.14861">
        <ele>2416.2</ele>
        <time>2022-12-29T14:14:13Z</time>
      </trkpt>
      <trkpt lat="44.99476" lon="6.14861">
        <ele>2416.2</ele>
        <time>2022-12-29T14:14:14Z</time>
      </trkpt>
      <trkpt lat="44.99476" lon="6.14861">
        <ele>2416.2</ele>
        <time>2022-12-29T14:14:15Z</time>
      </trkpt>
      <trkpt lat="44.99476" lon="6.14861">
        <ele>2417.8</ele>
        <time>2022-12-29T14:14:16Z</time>
      </trkpt>
      <trkpt lat="44.99475" lon="6.14861">
        <ele>2417.8</ele>
        <time>2022-12-29T14:14:17Z</time>
      </trkpt>
      <trkpt lat="44.99475" lon="6.14861">
        <ele>2417.8</ele>
        <time>2022-12-29T14:14:18Z</time>
      </trkpt>
      <trkpt lat="44.99475" lon="6.14861">
        <ele>2417.8</ele>
        <time>2022-12-29T14:14:19Z</time>
      </trkpt>
      <trkpt lat="44.99475" lon="6.14861">
        <ele>2417.8</ele>
        <time>2022-12-29T14:14:20Z</time>
      </trkpt>
      <trkpt lat="44.99475" lon="6.14861">
        <ele>2417.8</ele>
        <time>2022-12-29T14:14:21Z</time>
      </trkpt>
      <trkpt lat="44.99475" lon="6.14861">
        <ele>2417.8</ele>
        <time>2022-12-29T14:14:22Z</time>
      </trkpt>
      <trkpt lat="44.99475" lon="6.14861">
        <ele>2417.8</ele>
        <time>2022-12-29T14:14:23Z</time>
      </trkpt>
      <trkpt lat="44.99475" lon="6.14861">
        <ele>2417.8</ele>
        <time>2022-12-29T14:14:24Z</time>
      </trkpt>
      <trkpt lat="44.99474" lon="6.14862">
        <ele>2417.8</ele>
        <time>2022-12-29T14:14:25Z</time>
      </trkpt>
      <trkpt lat="44.99474" lon="6.14862">
        <ele>2418</ele>
        <time>2022-12-29T14:14:26Z</time>
      </trkpt>
      <trkpt lat="44.99474" lon="6.14862">
        <ele>2418</ele>
        <time>2022-12-29T14:14:27Z</time>
      </trkpt>
      <trkpt lat="44.99474" lon="6.14862">
        <ele>2418</ele>
        <time>2022-12-29T14:14:28Z</time>
      </trkpt>
      <trkpt lat="44.99474" lon="6.14862">
        <ele>2418</ele>
        <time>2022-12-29T14:14:29Z</time>
      </trkpt>
      <trkpt lat="44.99474" lon="6.14862">
        <ele>2418</ele>
        <time>2022-12-29T14:14:30Z</time>
      </trkpt>
      <trkpt lat="44.99474" lon="6.14862">
        <ele>2418</ele>
        <time>2022-12-29T14:14:31Z</time>
      </trkpt>
      <trkpt lat="44.99474" lon="6.14862">
        <ele>2418</ele>
        <time>2022-12-29T14:14:32Z</time>
      </trkpt>
      <trkpt lat="44.99474" lon="6.14862">
        <ele>2417.6</ele>
        <time>2022-12-29T14:14:36Z</time>
      </trkpt>
      <trkpt lat="44.99473" lon="6.14862">
        <ele>2417.6</ele>
        <time>2022-12-29T14:14:37Z</time>
      </trkpt>
      <trkpt lat="44.99473" lon="6.14863">
        <ele>2417.6</ele>
        <time>2022-12-29T14:14:38Z</time>
      </trkpt>
      <trkpt lat="44.99473" lon="6.14863">
        <ele>2417.6</ele>
        <time>2022-12-29T14:14:39Z</time>
      </trkpt>
      <trkpt lat="44.99473" lon="6.14863">
        <ele>2417.6</ele>
        <time>2022-12-29T14:14:40Z</time>
      </trkpt>
      <trkpt lat="44.99473" lon="6.14863">
        <ele>2417.6</ele>
        <time>2022-12-29T14:14:41Z</time>
      </trkpt>
      <trkpt lat="44.99473" lon="6.14863">
        <ele>2417.6</ele>
        <time>2022-12-29T14:14:42Z</time>
      </trkpt>
      <trkpt lat="44.99473" lon="6.14863">
        <ele>2417.6</ele>
        <time>2022-12-29T14:14:43Z</time>
      </trkpt>
      <trkpt lat="44.99473" lon="6.14863">
        <ele>2417.6</ele>
        <time>2022-12-29T14:14:44Z</time>
      </trkpt>
      <trkpt lat="44.99472" lon="6.14863">
        <ele>2417.6</ele>
        <time>2022-12-29T14:14:45Z</time>
      </trkpt>
      <trkpt lat="44.99472" lon="6.14863">
        <ele>2419</ele>
        <time>2022-12-29T14:14:46Z</time>
      </trkpt>
      <trkpt lat="44.99472" lon="6.14864">
        <ele>2419</ele>
        <time>2022-12-29T14:14:47Z</time>
      </trkpt>
      <trkpt lat="44.99472" lon="6.14864">
        <ele>2419</ele>
        <time>2022-12-29T14:14:48Z</time>
      </trkpt>
      <trkpt lat="44.99472" lon="6.14864">
        <ele>2419</ele>
        <time>2022-12-29T14:14:49Z</time>
      </trkpt>
      <trkpt lat="44.99472" lon="6.14864">
        <ele>2419</ele>
        <time>2022-12-29T14:14:50Z</time>
      </trkpt>
      <trkpt lat="44.99472" lon="6.14864">
        <ele>2419</ele>
        <time>2022-12-29T14:14:51Z</time>
      </trkpt>
      <trkpt lat="44.99472" lon="6.14864">
        <ele>2419</ele>
        <time>2022-12-29T14:14:52Z</time>
      </trkpt>
      <trkpt lat="44.99471" lon="6.14864">
        <ele>2419</ele>
        <time>2022-12-29T14:14:53Z</time>
      </trkpt>
      <trkpt lat="44.99471" lon="6.14864">
        <ele>2419</ele>
        <time>2022-12-29T14:14:54Z</time>
      </trkpt>
      <trkpt lat="44.99471" lon="6.14864">
        <ele>2419</ele>
        <time>2022-12-29T14:14:55Z</time>
      </trkpt>
      <trkpt lat="44.99471" lon="6.14865">
        <ele>2420.8</ele>
        <time>2022-12-29T14:14:56Z</time>
      </trkpt>
      <trkpt lat="44.9947" lon="6.14865">
        <ele>2420.8</ele>
        <time>2022-12-29T14:14:57Z</time>
      </trkpt>
      <trkpt lat="44.99469" lon="6.14866">
        <ele>2420.8</ele>
        <time>2022-12-29T14:14:58Z</time>
      </trkpt>
      <trkpt lat="44.99469" lon="6.14867">
        <ele>2420.8</ele>
        <time>2022-12-29T14:14:59Z</time>
      </trkpt>
      <trkpt lat="44.99468" lon="6.14867">
        <ele>2420.8</ele>
        <time>2022-12-29T14:15:00Z</time>
      </trkpt>
      <trkpt lat="44.99467" lon="6.14868">
        <ele>2420.8</ele>
        <time>2022-12-29T14:15:01Z</time>
      </trkpt>
      <trkpt lat="44.99466" lon="6.14869">
        <ele>2420.8</ele>
        <time>2022-12-29T14:15:02Z</time>
      </trkpt>
      <trkpt lat="44.99465" lon="6.14869">
        <ele>2420.8</ele>
        <time>2022-12-29T14:15:03Z</time>
      </trkpt>
      <trkpt lat="44.99464" lon="6.1487">
        <ele>2420.8</ele>
        <time>2022-12-29T14:15:04Z</time>
      </trkpt>
      <trkpt lat="44.99463" lon="6.14871">
        <ele>2420.8</ele>
        <time>2022-12-29T14:15:05Z</time>
      </trkpt>
      <trkpt lat="44.99462" lon="6.14871">
        <ele>2423</ele>
        <time>2022-12-29T14:15:06Z</time>
      </trkpt>
      <trkpt lat="44.9946" lon="6.14873">
        <ele>2423</ele>
        <time>2022-12-29T14:15:07Z</time>
      </trkpt>
      <trkpt lat="44.9946" lon="6.14873">
        <ele>2423</ele>
        <time>2022-12-29T14:15:08Z</time>
      </trkpt>
      <trkpt lat="44.9946" lon="6.14873">
        <ele>2423</ele>
        <time>2022-12-29T14:15:09Z</time>
      </trkpt>
      <trkpt lat="44.9946" lon="6.14873">
        <ele>2423</ele>
        <time>2022-12-29T14:15:10Z</time>
      </trkpt>
      <trkpt lat="44.9946" lon="6.14873">
        <ele>2423</ele>
        <time>2022-12-29T14:15:11Z</time>
      </trkpt>
      <trkpt lat="44.99459" lon="6.14873">
        <ele>2423</ele>
        <time>2022-12-29T14:15:12Z</time>
      </trkpt>
      <trkpt lat="44.99459" lon="6.14873">
        <ele>2423</ele>
        <time>2022-12-29T14:15:13Z</time>
      </trkpt>
      <trkpt lat="44.99459" lon="6.14873">
        <ele>2423</ele>
        <time>2022-12-29T14:15:14Z</time>
      </trkpt>
      <trkpt lat="44.99459" lon="6.14874">
        <ele>2423</ele>
        <time>2022-12-29T14:15:15Z</time>
      </trkpt>
      <trkpt lat="44.99459" lon="6.14874">
        <ele>2426</ele>
        <time>2022-12-29T14:15:16Z</time>
      </trkpt>
      <trkpt lat="44.99456" lon="6.14875">
        <ele>2426</ele>
        <time>2022-12-29T14:15:17Z</time>
      </trkpt>
      <trkpt lat="44.99456" lon="6.14876">
        <ele>2426</ele>
        <time>2022-12-29T14:15:18Z</time>
      </trkpt>
      <trkpt lat="44.99455" lon="6.14876">
        <ele>2426</ele>
        <time>2022-12-29T14:15:19Z</time>
      </trkpt>
      <trkpt lat="44.99455" lon="6.14876">
        <ele>2426</ele>
        <time>2022-12-29T14:15:20Z</time>
      </trkpt>
      <trkpt lat="44.99455" lon="6.14877">
        <ele>2426</ele>
        <time>2022-12-29T14:15:21Z</time>
      </trkpt>
      <trkpt lat="44.99454" lon="6.14877">
        <ele>2426</ele>
        <time>2022-12-29T14:15:22Z</time>
      </trkpt>
      <trkpt lat="44.99454" lon="6.14877">
        <ele>2426</ele>
        <time>2022-12-29T14:15:23Z</time>
      </trkpt>
      <trkpt lat="44.99453" lon="6.14877">
        <ele>2426</ele>
        <time>2022-12-29T14:15:24Z</time>
      </trkpt>
      <trkpt lat="44.99453" lon="6.14878">
        <ele>2426</ele>
        <time>2022-12-29T14:15:25Z</time>
      </trkpt>
      <trkpt lat="44.99453" lon="6.14878">
        <ele>2427.8</ele>
        <time>2022-12-29T14:15:26Z</time>
      </trkpt>
      <trkpt lat="44.99452" lon="6.14878">
        <ele>2427.8</ele>
        <time>2022-12-29T14:15:27Z</time>
      </trkpt>
      <trkpt lat="44.99452" lon="6.14879">
        <ele>2427.8</ele>
        <time>2022-12-29T14:15:28Z</time>
      </trkpt>
      <trkpt lat="44.99451" lon="6.14879">
        <ele>2427.8</ele>
        <time>2022-12-29T14:15:29Z</time>
      </trkpt>
      <trkpt lat="44.99451" lon="6.14879">
        <ele>2427.8</ele>
        <time>2022-12-29T14:15:30Z</time>
      </trkpt>
      <trkpt lat="44.9945" lon="6.1488">
        <ele>2427.8</ele>
        <time>2022-12-29T14:15:31Z</time>
      </trkpt>
      <trkpt lat="44.9945" lon="6.1488">
        <ele>2427.8</ele>
        <time>2022-12-29T14:15:32Z</time>
      </trkpt>
      <trkpt lat="44.9945" lon="6.1488">
        <ele>2427.8</ele>
        <time>2022-12-29T14:15:33Z</time>
      </trkpt>
      <trkpt lat="44.99449" lon="6.14881">
        <ele>2427.8</ele>
        <time>2022-12-29T14:15:34Z</time>
      </trkpt>
      <trkpt lat="44.99449" lon="6.14881">
        <ele>2427.8</ele>
        <time>2022-12-29T14:15:35Z</time>
      </trkpt>
      <trkpt lat="44.99448" lon="6.14881">
        <ele>2430.2</ele>
        <time>2022-12-29T14:15:36Z</time>
      </trkpt>
      <trkpt lat="44.99448" lon="6.14881">
        <ele>2430.2</ele>
        <time>2022-12-29T14:15:37Z</time>
      </trkpt>
      <trkpt lat="44.99448" lon="6.14882">
        <ele>2430.2</ele>
        <time>2022-12-29T14:15:38Z</time>
      </trkpt>
      <trkpt lat="44.99447" lon="6.14882">
        <ele>2430.2</ele>
        <time>2022-12-29T14:15:39Z</time>
      </trkpt>
      <trkpt lat="44.99447" lon="6.14882">
        <ele>2430.2</ele>
        <time>2022-12-29T14:15:40Z</time>
      </trkpt>
      <trkpt lat="44.99446" lon="6.14882">
        <ele>2430.2</ele>
        <time>2022-12-29T14:15:41Z</time>
      </trkpt>
      <trkpt lat="44.99446" lon="6.14882">
        <ele>2430.2</ele>
        <time>2022-12-29T14:15:42Z</time>
      </trkpt>
      <trkpt lat="44.99445" lon="6.14882">
        <ele>2430.2</ele>
        <time>2022-12-29T14:15:43Z</time>
      </trkpt>
      <trkpt lat="44.99445" lon="6.14883">
        <ele>2430.2</ele>
        <time>2022-12-29T14:15:44Z</time>
      </trkpt>
      <trkpt lat="44.99445" lon="6.14883">
        <ele>2430.2</ele>
        <time>2022-12-29T14:15:45Z</time>
      </trkpt>
      <trkpt lat="44.99444" lon="6.14883">
        <ele>2432.2</ele>
        <time>2022-12-29T14:15:46Z</time>
      </trkpt>
      <trkpt lat="44.99444" lon="6.14883">
        <ele>2432.2</ele>
        <time>2022-12-29T14:15:47Z</time>
      </trkpt>
      <trkpt lat="44.99443" lon="6.14883">
        <ele>2432.2</ele>
        <time>2022-12-29T14:15:48Z</time>
      </trkpt>
      <trkpt lat="44.99442" lon="6.14883">
        <ele>2432.2</ele>
        <time>2022-12-29T14:15:49Z</time>
      </trkpt>
      <trkpt lat="44.99442" lon="6.14884">
        <ele>2432.2</ele>
        <time>2022-12-29T14:15:50Z</time>
      </trkpt>
      <trkpt lat="44.99441" lon="6.14884">
        <ele>2432.2</ele>
        <time>2022-12-29T14:15:51Z</time>
      </trkpt>
      <trkpt lat="44.9944" lon="6.14884">
        <ele>2432.2</ele>
        <time>2022-12-29T14:15:52Z</time>
      </trkpt>
      <trkpt lat="44.9944" lon="6.14884">
        <ele>2432.2</ele>
        <time>2022-12-29T14:15:53Z</time>
      </trkpt>
      <trkpt lat="44.99439" lon="6.14884">
        <ele>2432.2</ele>
        <time>2022-12-29T14:15:54Z</time>
      </trkpt>
      <trkpt lat="44.99438" lon="6.14884">
        <ele>2432.2</ele>
        <time>2022-12-29T14:15:55Z</time>
      </trkpt>
      <trkpt lat="44.99438" lon="6.14885">
        <ele>2434.4</ele>
        <time>2022-12-29T14:15:56Z</time>
      </trkpt>
      <trkpt lat="44.99438" lon="6.14885">
        <ele>2434.4</ele>
        <time>2022-12-29T14:15:57Z</time>
      </trkpt>
      <trkpt lat="44.99438" lon="6.14885">
        <ele>2434.4</ele>
        <time>2022-12-29T14:15:58Z</time>
      </trkpt>
      <trkpt lat="44.99436" lon="6.14886">
        <ele>2434.4</ele>
        <time>2022-12-29T14:15:59Z</time>
      </trkpt>
      <trkpt lat="44.99436" lon="6.14886">
        <ele>2434.4</ele>
        <time>2022-12-29T14:16:00Z</time>
      </trkpt>
      <trkpt lat="44.99436" lon="6.14886">
        <ele>2434.4</ele>
        <time>2022-12-29T14:16:01Z</time>
      </trkpt>
      <trkpt lat="44.99436" lon="6.14886">
        <ele>2434.4</ele>
        <time>2022-12-29T14:16:02Z</time>
      </trkpt>
      <trkpt lat="44.99436" lon="6.14886">
        <ele>2434.4</ele>
        <time>2022-12-29T14:16:03Z</time>
      </trkpt>
      <trkpt lat="44.99435" lon="6.14887">
        <ele>2434.4</ele>
        <time>2022-12-29T14:16:04Z</time>
      </trkpt>
      <trkpt lat="44.99435" lon="6.14887">
        <ele>2434.4</ele>
        <time>2022-12-29T14:16:05Z</time>
      </trkpt>
      <trkpt lat="44.99435" lon="6.14887">
        <ele>2436.6</ele>
        <time>2022-12-29T14:16:06Z</time>
      </trkpt>
      <trkpt lat="44.99434" lon="6.14888">
        <ele>2436.6</ele>
        <time>2022-12-29T14:16:07Z</time>
      </trkpt>
      <trkpt lat="44.99434" lon="6.14888">
        <ele>2436.6</ele>
        <time>2022-12-29T14:16:08Z</time>
      </trkpt>
      <trkpt lat="44.99433" lon="6.14889">
        <ele>2436.6</ele>
        <time>2022-12-29T14:16:09Z</time>
      </trkpt>
      <trkpt lat="44.99433" lon="6.14889">
        <ele>2436.6</ele>
        <time>2022-12-29T14:16:10Z</time>
      </trkpt>
      <trkpt lat="44.99432" lon="6.14889">
        <ele>2436.6</ele>
        <time>2022-12-29T14:16:11Z</time>
      </trkpt>
      <trkpt lat="44.99432" lon="6.1489">
        <ele>2436.6</ele>
        <time>2022-12-29T14:16:12Z</time>
      </trkpt>
      <trkpt lat="44.99431" lon="6.1489">
        <ele>2436.6</ele>
        <time>2022-12-29T14:16:13Z</time>
      </trkpt>
      <trkpt lat="44.99431" lon="6.14891">
        <ele>2436.6</ele>
        <time>2022-12-29T14:16:14Z</time>
      </trkpt>
      <trkpt lat="44.9943" lon="6.14891">
        <ele>2436.6</ele>
        <time>2022-12-29T14:16:15Z</time>
      </trkpt>
      <trkpt lat="44.99429" lon="6.14892">
        <ele>2438.6</ele>
        <time>2022-12-29T14:16:16Z</time>
      </trkpt>
      <trkpt lat="44.99429" lon="6.14892">
        <ele>2438.6</ele>
        <time>2022-12-29T14:16:17Z</time>
      </trkpt>
      <trkpt lat="44.99429" lon="6.14892">
        <ele>2438.6</ele>
        <time>2022-12-29T14:16:18Z</time>
      </trkpt>
      <trkpt lat="44.99428" lon="6.14892">
        <ele>2438.6</ele>
        <time>2022-12-29T14:16:19Z</time>
      </trkpt>
      <trkpt lat="44.99428" lon="6.14892">
        <ele>2438.6</ele>
        <time>2022-12-29T14:16:20Z</time>
      </trkpt>
      <trkpt lat="44.99428" lon="6.14893">
        <ele>2438.6</ele>
        <time>2022-12-29T14:16:21Z</time>
      </trkpt>
      <trkpt lat="44.99427" lon="6.14893">
        <ele>2438.6</ele>
        <time>2022-12-29T14:16:22Z</time>
      </trkpt>
      <trkpt lat="44.99427" lon="6.14893">
        <ele>2438.6</ele>
        <time>2022-12-29T14:16:23Z</time>
      </trkpt>
      <trkpt lat="44.99426" lon="6.14893">
        <ele>2438.6</ele>
        <time>2022-12-29T14:16:24Z</time>
      </trkpt>
      <trkpt lat="44.99426" lon="6.14894">
        <ele>2438.6</ele>
        <time>2022-12-29T14:16:25Z</time>
      </trkpt>
      <trkpt lat="44.99426" lon="6.14894">
        <ele>2440.4</ele>
        <time>2022-12-29T14:16:26Z</time>
      </trkpt>
      <trkpt lat="44.99423" lon="6.14896">
        <ele>2440.4</ele>
        <time>2022-12-29T14:16:27Z</time>
      </trkpt>
      <trkpt lat="44.99423" lon="6.14896">
        <ele>2440.4</ele>
        <time>2022-12-29T14:16:28Z</time>
      </trkpt>
      <trkpt lat="44.99422" lon="6.14896">
        <ele>2440.4</ele>
        <time>2022-12-29T14:16:29Z</time>
      </trkpt>
      <trkpt lat="44.99422" lon="6.14896">
        <ele>2440.4</ele>
        <time>2022-12-29T14:16:30Z</time>
      </trkpt>
      <trkpt lat="44.99421" lon="6.14896">
        <ele>2440.4</ele>
        <time>2022-12-29T14:16:31Z</time>
      </trkpt>
      <trkpt lat="44.99421" lon="6.14897">
        <ele>2440.4</ele>
        <time>2022-12-29T14:16:32Z</time>
      </trkpt>
      <trkpt lat="44.9942" lon="6.14897">
        <ele>2440.4</ele>
        <time>2022-12-29T14:16:33Z</time>
      </trkpt>
      <trkpt lat="44.9942" lon="6.14897">
        <ele>2440.4</ele>
        <time>2022-12-29T14:16:34Z</time>
      </trkpt>
      <trkpt lat="44.99419" lon="6.14897">
        <ele>2440.4</ele>
        <time>2022-12-29T14:16:35Z</time>
      </trkpt>
      <trkpt lat="44.99419" lon="6.14898">
        <ele>2442.2</ele>
        <time>2022-12-29T14:16:36Z</time>
      </trkpt>
      <trkpt lat="44.99418" lon="6.14898">
        <ele>2442.2</ele>
        <time>2022-12-29T14:16:37Z</time>
      </trkpt>
      <trkpt lat="44.99417" lon="6.14898">
        <ele>2442.2</ele>
        <time>2022-12-29T14:16:38Z</time>
      </trkpt>
      <trkpt lat="44.99417" lon="6.14899">
        <ele>2442.2</ele>
        <time>2022-12-29T14:16:39Z</time>
      </trkpt>
      <trkpt lat="44.99416" lon="6.14899">
        <ele>2442.2</ele>
        <time>2022-12-29T14:16:40Z</time>
      </trkpt>
      <trkpt lat="44.99415" lon="6.14899">
        <ele>2442.2</ele>
        <time>2022-12-29T14:16:41Z</time>
      </trkpt>
      <trkpt lat="44.99415" lon="6.149">
        <ele>2442.2</ele>
        <time>2022-12-29T14:16:42Z</time>
      </trkpt>
      <trkpt lat="44.99414" lon="6.149">
        <ele>2442.2</ele>
        <time>2022-12-29T14:16:43Z</time>
      </trkpt>
      <trkpt lat="44.99413" lon="6.149">
        <ele>2442.2</ele>
        <time>2022-12-29T14:16:44Z</time>
      </trkpt>
      <trkpt lat="44.99412" lon="6.14901">
        <ele>2442.2</ele>
        <time>2022-12-29T14:16:45Z</time>
      </trkpt>
      <trkpt lat="44.99412" lon="6.14901">
        <ele>2443.4</ele>
        <time>2022-12-29T14:16:46Z</time>
      </trkpt>
      <trkpt lat="44.99411" lon="6.14902">
        <ele>2443.4</ele>
        <time>2022-12-29T14:16:47Z</time>
      </trkpt>
      <trkpt lat="44.9941" lon="6.14902">
        <ele>2443.4</ele>
        <time>2022-12-29T14:16:48Z</time>
      </trkpt>
      <trkpt lat="44.99409" lon="6.14902">
        <ele>2443.4</ele>
        <time>2022-12-29T14:16:49Z</time>
      </trkpt>
      <trkpt lat="44.99408" lon="6.14903">
        <ele>2443.4</ele>
        <time>2022-12-29T14:16:50Z</time>
      </trkpt>
      <trkpt lat="44.99407" lon="6.14903">
        <ele>2443.4</ele>
        <time>2022-12-29T14:16:51Z</time>
      </trkpt>
      <trkpt lat="44.99406" lon="6.14903">
        <ele>2443.4</ele>
        <time>2022-12-29T14:16:52Z</time>
      </trkpt>
      <trkpt lat="44.99405" lon="6.14904">
        <ele>2443.4</ele>
        <time>2022-12-29T14:16:53Z</time>
      </trkpt>
      <trkpt lat="44.99404" lon="6.14904">
        <ele>2443.4</ele>
        <time>2022-12-29T14:16:54Z</time>
      </trkpt>
      <trkpt lat="44.99404" lon="6.14904">
        <ele>2443.4</ele>
        <time>2022-12-29T14:16:55Z</time>
      </trkpt>
      <trkpt lat="44.99403" lon="6.14905">
        <ele>2444.2</ele>
        <time>2022-12-29T14:16:56Z</time>
      </trkpt>
      <trkpt lat="44.99402" lon="6.14905">
        <ele>2444.2</ele>
        <time>2022-12-29T14:16:57Z</time>
      </trkpt>
      <trkpt lat="44.99401" lon="6.14905">
        <ele>2444.2</ele>
        <time>2022-12-29T14:16:58Z</time>
      </trkpt>
      <trkpt lat="44.994" lon="6.14906">
        <ele>2444.2</ele>
        <time>2022-12-29T14:16:59Z</time>
      </trkpt>
      <trkpt lat="44.99399" lon="6.14906">
        <ele>2444.2</ele>
        <time>2022-12-29T14:17:00Z</time>
      </trkpt>
      <trkpt lat="44.99398" lon="6.14906">
        <ele>2444.2</ele>
        <time>2022-12-29T14:17:01Z</time>
      </trkpt>
      <trkpt lat="44.99397" lon="6.14907">
        <ele>2444.2</ele>
        <time>2022-12-29T14:17:02Z</time>
      </trkpt>
      <trkpt lat="44.99397" lon="6.14907">
        <ele>2444.2</ele>
        <time>2022-12-29T14:17:03Z</time>
      </trkpt>
      <trkpt lat="44.99396" lon="6.14907">
        <ele>2444.2</ele>
        <time>2022-12-29T14:17:04Z</time>
      </trkpt>
      <trkpt lat="44.99395" lon="6.14908">
        <ele>2444.2</ele>
        <time>2022-12-29T14:17:05Z</time>
      </trkpt>
      <trkpt lat="44.99394" lon="6.14908">
        <ele>2445</ele>
        <time>2022-12-29T14:17:06Z</time>
      </trkpt>
      <trkpt lat="44.99392" lon="6.1491">
        <ele>2445</ele>
        <time>2022-12-29T14:17:07Z</time>
      </trkpt>
      <trkpt lat="44.99391" lon="6.14911">
        <ele>2445</ele>
        <time>2022-12-29T14:17:08Z</time>
      </trkpt>
      <trkpt lat="44.9939" lon="6.14911">
        <ele>2445</ele>
        <time>2022-12-29T14:17:09Z</time>
      </trkpt>
      <trkpt lat="44.9939" lon="6.14912">
        <ele>2445</ele>
        <time>2022-12-29T14:17:10Z</time>
      </trkpt>
      <trkpt lat="44.99389" lon="6.14913">
        <ele>2445</ele>
        <time>2022-12-29T14:17:11Z</time>
      </trkpt>
      <trkpt lat="44.99388" lon="6.14913">
        <ele>2445</ele>
        <time>2022-12-29T14:17:12Z</time>
      </trkpt>
      <trkpt lat="44.99388" lon="6.14914">
        <ele>2445</ele>
        <time>2022-12-29T14:17:13Z</time>
      </trkpt>
      <trkpt lat="44.99387" lon="6.14914">
        <ele>2445</ele>
        <time>2022-12-29T14:17:14Z</time>
      </trkpt>
      <trkpt lat="44.99386" lon="6.14915">
        <ele>2445</ele>
        <time>2022-12-29T14:17:15Z</time>
      </trkpt>
      <trkpt lat="44.99385" lon="6.14916">
        <ele>2445.8</ele>
        <time>2022-12-29T14:17:16Z</time>
      </trkpt>
      <trkpt lat="44.99384" lon="6.14916">
        <ele>2445.8</ele>
        <time>2022-12-29T14:17:17Z</time>
      </trkpt>
      <trkpt lat="44.99383" lon="6.14916">
        <ele>2445.8</ele>
        <time>2022-12-29T14:17:18Z</time>
      </trkpt>
      <trkpt lat="44.99383" lon="6.14917">
        <ele>2445.8</ele>
        <time>2022-12-29T14:17:19Z</time>
      </trkpt>
      <trkpt lat="44.99382" lon="6.14918">
        <ele>2445.8</ele>
        <time>2022-12-29T14:17:20Z</time>
      </trkpt>
      <trkpt lat="44.99382" lon="6.14918">
        <ele>2445.8</ele>
        <time>2022-12-29T14:17:21Z</time>
      </trkpt>
      <trkpt lat="44.99381" lon="6.14919">
        <ele>2445.8</ele>
        <time>2022-12-29T14:17:22Z</time>
      </trkpt>
      <trkpt lat="44.99381" lon="6.1492">
        <ele>2445.8</ele>
        <time>2022-12-29T14:17:23Z</time>
      </trkpt>
      <trkpt lat="44.9938" lon="6.1492">
        <ele>2445.8</ele>
        <time>2022-12-29T14:17:24Z</time>
      </trkpt>
      <trkpt lat="44.99379" lon="6.14921">
        <ele>2445.8</ele>
        <time>2022-12-29T14:17:25Z</time>
      </trkpt>
      <trkpt lat="44.99379" lon="6.14921">
        <ele>2446.2</ele>
        <time>2022-12-29T14:17:26Z</time>
      </trkpt>
      <trkpt lat="44.99376" lon="6.14922">
        <ele>2446.2</ele>
        <time>2022-12-29T14:17:27Z</time>
      </trkpt>
      <trkpt lat="44.99376" lon="6.14923">
        <ele>2446.2</ele>
        <time>2022-12-29T14:17:28Z</time>
      </trkpt>
      <trkpt lat="44.99375" lon="6.14923">
        <ele>2446.2</ele>
        <time>2022-12-29T14:17:29Z</time>
      </trkpt>
      <trkpt lat="44.99374" lon="6.14923">
        <ele>2446.2</ele>
        <time>2022-12-29T14:17:30Z</time>
      </trkpt>
      <trkpt lat="44.99374" lon="6.14924">
        <ele>2446.2</ele>
        <time>2022-12-29T14:17:31Z</time>
      </trkpt>
      <trkpt lat="44.99373" lon="6.14924">
        <ele>2446.2</ele>
        <time>2022-12-29T14:17:32Z</time>
      </trkpt>
      <trkpt lat="44.99372" lon="6.14924">
        <ele>2446.2</ele>
        <time>2022-12-29T14:17:33Z</time>
      </trkpt>
      <trkpt lat="44.99372" lon="6.14924">
        <ele>2446.2</ele>
        <time>2022-12-29T14:17:34Z</time>
      </trkpt>
      <trkpt lat="44.99371" lon="6.14925">
        <ele>2446.2</ele>
        <time>2022-12-29T14:17:35Z</time>
      </trkpt>
      <trkpt lat="44.9937" lon="6.14925">
        <ele>2447</ele>
        <time>2022-12-29T14:17:36Z</time>
      </trkpt>
      <trkpt lat="44.99369" lon="6.14926">
        <ele>2447</ele>
        <time>2022-12-29T14:17:37Z</time>
      </trkpt>
      <trkpt lat="44.99368" lon="6.14927">
        <ele>2447</ele>
        <time>2022-12-29T14:17:38Z</time>
      </trkpt>
      <trkpt lat="44.99368" lon="6.14928">
        <ele>2447</ele>
        <time>2022-12-29T14:17:39Z</time>
      </trkpt>
      <trkpt lat="44.99367" lon="6.14929">
        <ele>2447</ele>
        <time>2022-12-29T14:17:40Z</time>
      </trkpt>
      <trkpt lat="44.99367" lon="6.14929">
        <ele>2447</ele>
        <time>2022-12-29T14:17:41Z</time>
      </trkpt>
      <trkpt lat="44.99366" lon="6.1493">
        <ele>2447</ele>
        <time>2022-12-29T14:17:42Z</time>
      </trkpt>
      <trkpt lat="44.99366" lon="6.14931">
        <ele>2447</ele>
        <time>2022-12-29T14:17:43Z</time>
      </trkpt>
      <trkpt lat="44.99365" lon="6.14932">
        <ele>2447</ele>
        <time>2022-12-29T14:17:44Z</time>
      </trkpt>
      <trkpt lat="44.99364" lon="6.14933">
        <ele>2447</ele>
        <time>2022-12-29T14:17:45Z</time>
      </trkpt>
      <trkpt lat="44.99364" lon="6.14934">
        <ele>2448.2</ele>
        <time>2022-12-29T14:17:46Z</time>
      </trkpt>
      <trkpt lat="44.99363" lon="6.14934">
        <ele>2448.2</ele>
        <time>2022-12-29T14:17:47Z</time>
      </trkpt>
      <trkpt lat="44.99363" lon="6.14935">
        <ele>2448.2</ele>
        <time>2022-12-29T14:17:48Z</time>
      </trkpt>
      <trkpt lat="44.99362" lon="6.14935">
        <ele>2448.2</ele>
        <time>2022-12-29T14:17:49Z</time>
      </trkpt>
      <trkpt lat="44.99362" lon="6.14936">
        <ele>2448.2</ele>
        <time>2022-12-29T14:17:50Z</time>
      </trkpt>
      <trkpt lat="44.99361" lon="6.14936">
        <ele>2448.2</ele>
        <time>2022-12-29T14:17:51Z</time>
      </trkpt>
      <trkpt lat="44.99361" lon="6.14937">
        <ele>2448.2</ele>
        <time>2022-12-29T14:17:52Z</time>
      </trkpt>
      <trkpt lat="44.9936" lon="6.14937">
        <ele>2448.2</ele>
        <time>2022-12-29T14:17:53Z</time>
      </trkpt>
      <trkpt lat="44.9936" lon="6.14938">
        <ele>2448.2</ele>
        <time>2022-12-29T14:17:54Z</time>
      </trkpt>
      <trkpt lat="44.99359" lon="6.14938">
        <ele>2448.2</ele>
        <time>2022-12-29T14:17:55Z</time>
      </trkpt>
      <trkpt lat="44.99359" lon="6.14939">
        <ele>2448.8</ele>
        <time>2022-12-29T14:17:56Z</time>
      </trkpt>
      <trkpt lat="44.99357" lon="6.14941">
        <ele>2448.8</ele>
        <time>2022-12-29T14:17:57Z</time>
      </trkpt>
      <trkpt lat="44.99356" lon="6.14942">
        <ele>2448.8</ele>
        <time>2022-12-29T14:17:58Z</time>
      </trkpt>
      <trkpt lat="44.99356" lon="6.14942">
        <ele>2448.8</ele>
        <time>2022-12-29T14:17:59Z</time>
      </trkpt>
      <trkpt lat="44.99355" lon="6.14943">
        <ele>2448.8</ele>
        <time>2022-12-29T14:18:00Z</time>
      </trkpt>
      <trkpt lat="44.99355" lon="6.14943">
        <ele>2448.8</ele>
        <time>2022-12-29T14:18:01Z</time>
      </trkpt>
      <trkpt lat="44.99354" lon="6.14944">
        <ele>2448.8</ele>
        <time>2022-12-29T14:18:02Z</time>
      </trkpt>
      <trkpt lat="44.99354" lon="6.14944">
        <ele>2448.8</ele>
        <time>2022-12-29T14:18:03Z</time>
      </trkpt>
      <trkpt lat="44.99353" lon="6.14945">
        <ele>2448.8</ele>
        <time>2022-12-29T14:18:04Z</time>
      </trkpt>
      <trkpt lat="44.99353" lon="6.14945">
        <ele>2448.8</ele>
        <time>2022-12-29T14:18:05Z</time>
      </trkpt>
      <trkpt lat="44.99352" lon="6.14946">
        <ele>2449.8</ele>
        <time>2022-12-29T14:18:06Z</time>
      </trkpt>
      <trkpt lat="44.99351" lon="6.14946">
        <ele>2449.8</ele>
        <time>2022-12-29T14:18:07Z</time>
      </trkpt>
      <trkpt lat="44.99351" lon="6.14946">
        <ele>2449.8</ele>
        <time>2022-12-29T14:18:08Z</time>
      </trkpt>
      <trkpt lat="44.9935" lon="6.14947">
        <ele>2449.8</ele>
        <time>2022-12-29T14:18:09Z</time>
      </trkpt>
      <trkpt lat="44.9935" lon="6.14947">
        <ele>2449.8</ele>
        <time>2022-12-29T14:18:10Z</time>
      </trkpt>
      <trkpt lat="44.99349" lon="6.14948">
        <ele>2449.8</ele>
        <time>2022-12-29T14:18:11Z</time>
      </trkpt>
      <trkpt lat="44.99349" lon="6.14948">
        <ele>2449.8</ele>
        <time>2022-12-29T14:18:12Z</time>
      </trkpt>
      <trkpt lat="44.99348" lon="6.14949">
        <ele>2449.8</ele>
        <time>2022-12-29T14:18:13Z</time>
      </trkpt>
      <trkpt lat="44.99347" lon="6.14949">
        <ele>2449.8</ele>
        <time>2022-12-29T14:18:14Z</time>
      </trkpt>
      <trkpt lat="44.99347" lon="6.1495">
        <ele>2449.8</ele>
        <time>2022-12-29T14:18:15Z</time>
      </trkpt>
      <trkpt lat="44.99346" lon="6.1495">
        <ele>2451.2</ele>
        <time>2022-12-29T14:18:16Z</time>
      </trkpt>
      <trkpt lat="44.99344" lon="6.14952">
        <ele>2451.2</ele>
        <time>2022-12-29T14:18:17Z</time>
      </trkpt>
      <trkpt lat="44.99343" lon="6.14952">
        <ele>2451.2</ele>
        <time>2022-12-29T14:18:18Z</time>
      </trkpt>
      <trkpt lat="44.99343" lon="6.14953">
        <ele>2451.2</ele>
        <time>2022-12-29T14:18:19Z</time>
      </trkpt>
      <trkpt lat="44.99342" lon="6.14953">
        <ele>2451.2</ele>
        <time>2022-12-29T14:18:20Z</time>
      </trkpt>
      <trkpt lat="44.99342" lon="6.14954">
        <ele>2451.2</ele>
        <time>2022-12-29T14:18:21Z</time>
      </trkpt>
      <trkpt lat="44.99341" lon="6.14954">
        <ele>2451.2</ele>
        <time>2022-12-29T14:18:22Z</time>
      </trkpt>
      <trkpt lat="44.99341" lon="6.14955">
        <ele>2451.2</ele>
        <time>2022-12-29T14:18:23Z</time>
      </trkpt>
      <trkpt lat="44.9934" lon="6.14955">
        <ele>2451.2</ele>
        <time>2022-12-29T14:18:24Z</time>
      </trkpt>
      <trkpt lat="44.9934" lon="6.14956">
        <ele>2451.2</ele>
        <time>2022-12-29T14:18:25Z</time>
      </trkpt>
      <trkpt lat="44.99339" lon="6.14956">
        <ele>2453.4</ele>
        <time>2022-12-29T14:18:26Z</time>
      </trkpt>
      <trkpt lat="44.99339" lon="6.14957">
        <ele>2453.4</ele>
        <time>2022-12-29T14:18:27Z</time>
      </trkpt>
      <trkpt lat="44.99338" lon="6.14957">
        <ele>2453.4</ele>
        <time>2022-12-29T14:18:28Z</time>
      </trkpt>
      <trkpt lat="44.99337" lon="6.14958">
        <ele>2453.4</ele>
        <time>2022-12-29T14:18:29Z</time>
      </trkpt>
      <trkpt lat="44.99337" lon="6.14958">
        <ele>2453.4</ele>
        <time>2022-12-29T14:18:30Z</time>
      </trkpt>
      <trkpt lat="44.99336" lon="6.14958">
        <ele>2453.4</ele>
        <time>2022-12-29T14:18:31Z</time>
      </trkpt>
      <trkpt lat="44.99336" lon="6.14959">
        <ele>2453.4</ele>
        <time>2022-12-29T14:18:32Z</time>
      </trkpt>
      <trkpt lat="44.99335" lon="6.14959">
        <ele>2453.4</ele>
        <time>2022-12-29T14:18:33Z</time>
      </trkpt>
      <trkpt lat="44.99334" lon="6.14959">
        <ele>2453.4</ele>
        <time>2022-12-29T14:18:34Z</time>
      </trkpt>
      <trkpt lat="44.99334" lon="6.1496">
        <ele>2453.4</ele>
        <time>2022-12-29T14:18:35Z</time>
      </trkpt>
      <trkpt lat="44.99333" lon="6.1496">
        <ele>2455</ele>
        <time>2022-12-29T14:18:36Z</time>
      </trkpt>
      <trkpt lat="44.9933" lon="6.14962">
        <ele>2455</ele>
        <time>2022-12-29T14:18:37Z</time>
      </trkpt>
      <trkpt lat="44.9933" lon="6.14962">
        <ele>2455</ele>
        <time>2022-12-29T14:18:38Z</time>
      </trkpt>
      <trkpt lat="44.99329" lon="6.14962">
        <ele>2455</ele>
        <time>2022-12-29T14:18:39Z</time>
      </trkpt>
      <trkpt lat="44.99328" lon="6.14963">
        <ele>2455</ele>
        <time>2022-12-29T14:18:40Z</time>
      </trkpt>
      <trkpt lat="44.99328" lon="6.14963">
        <ele>2455</ele>
        <time>2022-12-29T14:18:41Z</time>
      </trkpt>
      <trkpt lat="44.99327" lon="6.14964">
        <ele>2455</ele>
        <time>2022-12-29T14:18:42Z</time>
      </trkpt>
      <trkpt lat="44.99327" lon="6.14964">
        <ele>2455</ele>
        <time>2022-12-29T14:18:43Z</time>
      </trkpt>
      <trkpt lat="44.99326" lon="6.14964">
        <ele>2455</ele>
        <time>2022-12-29T14:18:44Z</time>
      </trkpt>
      <trkpt lat="44.99326" lon="6.14965">
        <ele>2455</ele>
        <time>2022-12-29T14:18:45Z</time>
      </trkpt>
      <trkpt lat="44.99325" lon="6.14965">
        <ele>2456.6</ele>
        <time>2022-12-29T14:18:46Z</time>
      </trkpt>
      <trkpt lat="44.99325" lon="6.14966">
        <ele>2456.6</ele>
        <time>2022-12-29T14:18:47Z</time>
      </trkpt>
      <trkpt lat="44.99324" lon="6.14966">
        <ele>2456.6</ele>
        <time>2022-12-29T14:18:48Z</time>
      </trkpt>
      <trkpt lat="44.99323" lon="6.14967">
        <ele>2456.6</ele>
        <time>2022-12-29T14:18:49Z</time>
      </trkpt>
      <trkpt lat="44.99323" lon="6.14967">
        <ele>2456.6</ele>
        <time>2022-12-29T14:18:50Z</time>
      </trkpt>
      <trkpt lat="44.99322" lon="6.14967">
        <ele>2456.6</ele>
        <time>2022-12-29T14:18:51Z</time>
      </trkpt>
      <trkpt lat="44.99322" lon="6.14968">
        <ele>2456.6</ele>
        <time>2022-12-29T14:18:52Z</time>
      </trkpt>
      <trkpt lat="44.99321" lon="6.14968">
        <ele>2456.6</ele>
        <time>2022-12-29T14:18:53Z</time>
      </trkpt>
      <trkpt lat="44.9932" lon="6.14969">
        <ele>2456.6</ele>
        <time>2022-12-29T14:18:54Z</time>
      </trkpt>
      <trkpt lat="44.9932" lon="6.14969">
        <ele>2456.6</ele>
        <time>2022-12-29T14:18:55Z</time>
      </trkpt>
      <trkpt lat="44.99319" lon="6.1497">
        <ele>2458.4</ele>
        <time>2022-12-29T14:18:56Z</time>
      </trkpt>
      <trkpt lat="44.99317" lon="6.14971">
        <ele>2458.4</ele>
        <time>2022-12-29T14:18:57Z</time>
      </trkpt>
      <trkpt lat="44.99317" lon="6.14972">
        <ele>2458.4</ele>
        <time>2022-12-29T14:18:58Z</time>
      </trkpt>
      <trkpt lat="44.99317" lon="6.14972">
        <ele>2458.4</ele>
        <time>2022-12-29T14:18:59Z</time>
      </trkpt>
      <trkpt lat="44.99316" lon="6.14972">
        <ele>2458.4</ele>
        <time>2022-12-29T14:19:00Z</time>
      </trkpt>
      <trkpt lat="44.99316" lon="6.14973">
        <ele>2458.4</ele>
        <time>2022-12-29T14:19:01Z</time>
      </trkpt>
      <trkpt lat="44.99316" lon="6.14973">
        <ele>2458.4</ele>
        <time>2022-12-29T14:19:02Z</time>
      </trkpt>
      <trkpt lat="44.99315" lon="6.14973">
        <ele>2458.4</ele>
        <time>2022-12-29T14:19:03Z</time>
      </trkpt>
      <trkpt lat="44.99315" lon="6.14974">
        <ele>2458.4</ele>
        <time>2022-12-29T14:19:04Z</time>
      </trkpt>
      <trkpt lat="44.99315" lon="6.14974">
        <ele>2458.4</ele>
        <time>2022-12-29T14:19:05Z</time>
      </trkpt>
      <trkpt lat="44.99315" lon="6.14974">
        <ele>2460.2</ele>
        <time>2022-12-29T14:19:06Z</time>
      </trkpt>
      <trkpt lat="44.99313" lon="6.14977">
        <ele>2460.2</ele>
        <time>2022-12-29T14:19:07Z</time>
      </trkpt>
      <trkpt lat="44.99312" lon="6.14978">
        <ele>2460.2</ele>
        <time>2022-12-29T14:19:08Z</time>
      </trkpt>
      <trkpt lat="44.99312" lon="6.14979">
        <ele>2460.2</ele>
        <time>2022-12-29T14:19:09Z</time>
      </trkpt>
      <trkpt lat="44.99311" lon="6.14979">
        <ele>2460.2</ele>
        <time>2022-12-29T14:19:10Z</time>
      </trkpt>
      <trkpt lat="44.99311" lon="6.1498">
        <ele>2460.2</ele>
        <time>2022-12-29T14:19:11Z</time>
      </trkpt>
      <trkpt lat="44.9931" lon="6.1498">
        <ele>2460.2</ele>
        <time>2022-12-29T14:19:12Z</time>
      </trkpt>
      <trkpt lat="44.9931" lon="6.14981">
        <ele>2460.2</ele>
        <time>2022-12-29T14:19:13Z</time>
      </trkpt>
      <trkpt lat="44.99309" lon="6.14982">
        <ele>2460.2</ele>
        <time>2022-12-29T14:19:14Z</time>
      </trkpt>
      <trkpt lat="44.99309" lon="6.14982">
        <ele>2460.2</ele>
        <time>2022-12-29T14:19:15Z</time>
      </trkpt>
      <trkpt lat="44.99308" lon="6.14983">
        <ele>2462.4</ele>
        <time>2022-12-29T14:19:16Z</time>
      </trkpt>
      <trkpt lat="44.99308" lon="6.14983">
        <ele>2462.4</ele>
        <time>2022-12-29T14:19:17Z</time>
      </trkpt>
      <trkpt lat="44.99307" lon="6.14984">
        <ele>2462.4</ele>
        <time>2022-12-29T14:19:18Z</time>
      </trkpt>
      <trkpt lat="44.99307" lon="6.14984">
        <ele>2462.4</ele>
        <time>2022-12-29T14:19:19Z</time>
      </trkpt>
      <trkpt lat="44.99306" lon="6.14985">
        <ele>2462.4</ele>
        <time>2022-12-29T14:19:20Z</time>
      </trkpt>
      <trkpt lat="44.99306" lon="6.14985">
        <ele>2462.4</ele>
        <time>2022-12-29T14:19:21Z</time>
      </trkpt>
      <trkpt lat="44.99305" lon="6.14986">
        <ele>2462.4</ele>
        <time>2022-12-29T14:19:22Z</time>
      </trkpt>
      <trkpt lat="44.99305" lon="6.14986">
        <ele>2462.4</ele>
        <time>2022-12-29T14:19:23Z</time>
      </trkpt>
      <trkpt lat="44.99304" lon="6.14987">
        <ele>2462.4</ele>
        <time>2022-12-29T14:19:24Z</time>
      </trkpt>
      <trkpt lat="44.99304" lon="6.14987">
        <ele>2462.4</ele>
        <time>2022-12-29T14:19:25Z</time>
      </trkpt>
      <trkpt lat="44.99303" lon="6.14988">
        <ele>2464.2</ele>
        <time>2022-12-29T14:19:26Z</time>
      </trkpt>
      <trkpt lat="44.99303" lon="6.14988">
        <ele>2464.2</ele>
        <time>2022-12-29T14:19:27Z</time>
      </trkpt>
      <trkpt lat="44.99302" lon="6.14989">
        <ele>2464.2</ele>
        <time>2022-12-29T14:19:28Z</time>
      </trkpt>
      <trkpt lat="44.99302" lon="6.14989">
        <ele>2464.2</ele>
        <time>2022-12-29T14:19:29Z</time>
      </trkpt>
      <trkpt lat="44.99301" lon="6.1499">
        <ele>2464.2</ele>
        <time>2022-12-29T14:19:30Z</time>
      </trkpt>
      <trkpt lat="44.99301" lon="6.1499">
        <ele>2464.2</ele>
        <time>2022-12-29T14:19:31Z</time>
      </trkpt>
      <trkpt lat="44.993" lon="6.14991">
        <ele>2464.2</ele>
        <time>2022-12-29T14:19:32Z</time>
      </trkpt>
      <trkpt lat="44.993" lon="6.14991">
        <ele>2464.2</ele>
        <time>2022-12-29T14:19:33Z</time>
      </trkpt>
      <trkpt lat="44.99299" lon="6.14992">
        <ele>2464.2</ele>
        <time>2022-12-29T14:19:34Z</time>
      </trkpt>
      <trkpt lat="44.99299" lon="6.14992">
        <ele>2464.2</ele>
        <time>2022-12-29T14:19:35Z</time>
      </trkpt>
      <trkpt lat="44.99298" lon="6.14993">
        <ele>2465.8</ele>
        <time>2022-12-29T14:19:36Z</time>
      </trkpt>
      <trkpt lat="44.99298" lon="6.14993">
        <ele>2465.8</ele>
        <time>2022-12-29T14:19:37Z</time>
      </trkpt>
      <trkpt lat="44.99297" lon="6.14994">
        <ele>2465.8</ele>
        <time>2022-12-29T14:19:38Z</time>
      </trkpt>
      <trkpt lat="44.99297" lon="6.14994">
        <ele>2465.8</ele>
        <time>2022-12-29T14:19:39Z</time>
      </trkpt>
      <trkpt lat="44.99296" lon="6.14995">
        <ele>2465.8</ele>
        <time>2022-12-29T14:19:40Z</time>
      </trkpt>
      <trkpt lat="44.99296" lon="6.14995">
        <ele>2465.8</ele>
        <time>2022-12-29T14:19:41Z</time>
      </trkpt>
      <trkpt lat="44.99296" lon="6.14996">
        <ele>2465.8</ele>
        <time>2022-12-29T14:19:42Z</time>
      </trkpt>
      <trkpt lat="44.99295" lon="6.14996">
        <ele>2465.8</ele>
        <time>2022-12-29T14:19:43Z</time>
      </trkpt>
      <trkpt lat="44.99295" lon="6.14996">
        <ele>2465.8</ele>
        <time>2022-12-29T14:19:44Z</time>
      </trkpt>
      <trkpt lat="44.99294" lon="6.14997">
        <ele>2465.8</ele>
        <time>2022-12-29T14:19:45Z</time>
      </trkpt>
      <trkpt lat="44.99294" lon="6.14997">
        <ele>2467.8</ele>
        <time>2022-12-29T14:19:46Z</time>
      </trkpt>
      <trkpt lat="44.99292" lon="6.14999">
        <ele>2467.8</ele>
        <time>2022-12-29T14:19:47Z</time>
      </trkpt>
      <trkpt lat="44.99291" lon="6.15">
        <ele>2467.8</ele>
        <time>2022-12-29T14:19:48Z</time>
      </trkpt>
      <trkpt lat="44.99291" lon="6.15">
        <ele>2467.8</ele>
        <time>2022-12-29T14:19:49Z</time>
      </trkpt>
      <trkpt lat="44.99291" lon="6.15">
        <ele>2467.8</ele>
        <time>2022-12-29T14:19:50Z</time>
      </trkpt>
      <trkpt lat="44.9929" lon="6.15001">
        <ele>2467.8</ele>
        <time>2022-12-29T14:19:51Z</time>
      </trkpt>
      <trkpt lat="44.9929" lon="6.15001">
        <ele>2467.8</ele>
        <time>2022-12-29T14:19:52Z</time>
      </trkpt>
      <trkpt lat="44.9929" lon="6.15002">
        <ele>2467.8</ele>
        <time>2022-12-29T14:19:53Z</time>
      </trkpt>
      <trkpt lat="44.99289" lon="6.15002">
        <ele>2467.8</ele>
        <time>2022-12-29T14:19:54Z</time>
      </trkpt>
      <trkpt lat="44.99289" lon="6.15002">
        <ele>2467.8</ele>
        <time>2022-12-29T14:19:55Z</time>
      </trkpt>
      <trkpt lat="44.99289" lon="6.15003">
        <ele>2469.6</ele>
        <time>2022-12-29T14:19:56Z</time>
      </trkpt>
      <trkpt lat="44.99287" lon="6.15005">
        <ele>2469.6</ele>
        <time>2022-12-29T14:19:57Z</time>
      </trkpt>
      <trkpt lat="44.99286" lon="6.15005">
        <ele>2469.6</ele>
        <time>2022-12-29T14:19:58Z</time>
      </trkpt>
      <trkpt lat="44.99286" lon="6.15006">
        <ele>2469.6</ele>
        <time>2022-12-29T14:19:59Z</time>
      </trkpt>
      <trkpt lat="44.99286" lon="6.15006">
        <ele>2469.6</ele>
        <time>2022-12-29T14:20:00Z</time>
      </trkpt>
      <trkpt lat="44.99285" lon="6.15006">
        <ele>2469.6</ele>
        <time>2022-12-29T14:20:01Z</time>
      </trkpt>
      <trkpt lat="44.99285" lon="6.15007">
        <ele>2469.6</ele>
        <time>2022-12-29T14:20:02Z</time>
      </trkpt>
      <trkpt lat="44.99285" lon="6.15007">
        <ele>2469.6</ele>
        <time>2022-12-29T14:20:03Z</time>
      </trkpt>
      <trkpt lat="44.99285" lon="6.15007">
        <ele>2469.6</ele>
        <time>2022-12-29T14:20:04Z</time>
      </trkpt>
      <trkpt lat="44.99284" lon="6.15008">
        <ele>2469.6</ele>
        <time>2022-12-29T14:20:05Z</time>
      </trkpt>
      <trkpt lat="44.99284" lon="6.15008">
        <ele>2471.8</ele>
        <time>2022-12-29T14:20:06Z</time>
      </trkpt>
      <trkpt lat="44.99282" lon="6.15011">
        <ele>2471.8</ele>
        <time>2022-12-29T14:20:07Z</time>
      </trkpt>
      <trkpt lat="44.99282" lon="6.15011">
        <ele>2471.8</ele>
        <time>2022-12-29T14:20:08Z</time>
      </trkpt>
      <trkpt lat="44.99282" lon="6.15011">
        <ele>2471.8</ele>
        <time>2022-12-29T14:20:09Z</time>
      </trkpt>
      <trkpt lat="44.99281" lon="6.15012">
        <ele>2471.8</ele>
        <time>2022-12-29T14:20:10Z</time>
      </trkpt>
      <trkpt lat="44.99281" lon="6.15012">
        <ele>2471.8</ele>
        <time>2022-12-29T14:20:11Z</time>
      </trkpt>
      <trkpt lat="44.99281" lon="6.15013">
        <ele>2471.8</ele>
        <time>2022-12-29T14:20:12Z</time>
      </trkpt>
      <trkpt lat="44.9928" lon="6.15013">
        <ele>2471.8</ele>
        <time>2022-12-29T14:20:13Z</time>
      </trkpt>
      <trkpt lat="44.9928" lon="6.15013">
        <ele>2471.8</ele>
        <time>2022-12-29T14:20:14Z</time>
      </trkpt>
      <trkpt lat="44.9928" lon="6.15014">
        <ele>2471.8</ele>
        <time>2022-12-29T14:20:15Z</time>
      </trkpt>
      <trkpt lat="44.99279" lon="6.15014">
        <ele>2474.2</ele>
        <time>2022-12-29T14:20:16Z</time>
      </trkpt>
      <trkpt lat="44.99279" lon="6.15015">
        <ele>2474.2</ele>
        <time>2022-12-29T14:20:17Z</time>
      </trkpt>
      <trkpt lat="44.99278" lon="6.15015">
        <ele>2474.2</ele>
        <time>2022-12-29T14:20:18Z</time>
      </trkpt>
      <trkpt lat="44.99278" lon="6.15016">
        <ele>2474.2</ele>
        <time>2022-12-29T14:20:19Z</time>
      </trkpt>
      <trkpt lat="44.99277" lon="6.15017">
        <ele>2474.2</ele>
        <time>2022-12-29T14:20:20Z</time>
      </trkpt>
      <trkpt lat="44.99277" lon="6.15017">
        <ele>2474.2</ele>
        <time>2022-12-29T14:20:21Z</time>
      </trkpt>
      <trkpt lat="44.99277" lon="6.15018">
        <ele>2474.2</ele>
        <time>2022-12-29T14:20:22Z</time>
      </trkpt>
      <trkpt lat="44.99276" lon="6.15019">
        <ele>2474.2</ele>
        <time>2022-12-29T14:20:23Z</time>
      </trkpt>
      <trkpt lat="44.99276" lon="6.15019">
        <ele>2474.2</ele>
        <time>2022-12-29T14:20:24Z</time>
      </trkpt>
      <trkpt lat="44.99275" lon="6.1502">
        <ele>2474.2</ele>
        <time>2022-12-29T14:20:25Z</time>
      </trkpt>
      <trkpt lat="44.99275" lon="6.15021">
        <ele>2476.4</ele>
        <time>2022-12-29T14:20:26Z</time>
      </trkpt>
      <trkpt lat="44.99274" lon="6.15021">
        <ele>2476.4</ele>
        <time>2022-12-29T14:20:27Z</time>
      </trkpt>
      <trkpt lat="44.99274" lon="6.15022">
        <ele>2476.4</ele>
        <time>2022-12-29T14:20:28Z</time>
      </trkpt>
      <trkpt lat="44.99274" lon="6.15022">
        <ele>2476.4</ele>
        <time>2022-12-29T14:20:29Z</time>
      </trkpt>
      <trkpt lat="44.99273" lon="6.15023">
        <ele>2476.4</ele>
        <time>2022-12-29T14:20:30Z</time>
      </trkpt>
      <trkpt lat="44.99273" lon="6.15023">
        <ele>2476.4</ele>
        <time>2022-12-29T14:20:31Z</time>
      </trkpt>
      <trkpt lat="44.99273" lon="6.15024">
        <ele>2476.4</ele>
        <time>2022-12-29T14:20:32Z</time>
      </trkpt>
      <trkpt lat="44.99273" lon="6.15024">
        <ele>2476.4</ele>
        <time>2022-12-29T14:20:33Z</time>
      </trkpt>
      <trkpt lat="44.99272" lon="6.15025">
        <ele>2476.4</ele>
        <time>2022-12-29T14:20:34Z</time>
      </trkpt>
      <trkpt lat="44.99272" lon="6.15025">
        <ele>2476.4</ele>
        <time>2022-12-29T14:20:35Z</time>
      </trkpt>
      <trkpt lat="44.99272" lon="6.15026">
        <ele>2478.2</ele>
        <time>2022-12-29T14:20:36Z</time>
      </trkpt>
      <trkpt lat="44.99271" lon="6.15028">
        <ele>2478.2</ele>
        <time>2022-12-29T14:20:37Z</time>
      </trkpt>
      <trkpt lat="44.99271" lon="6.15028">
        <ele>2478.2</ele>
        <time>2022-12-29T14:20:38Z</time>
      </trkpt>
      <trkpt lat="44.9927" lon="6.15029">
        <ele>2478.2</ele>
        <time>2022-12-29T14:20:39Z</time>
      </trkpt>
      <trkpt lat="44.9927" lon="6.15029">
        <ele>2478.2</ele>
        <time>2022-12-29T14:20:40Z</time>
      </trkpt>
      <trkpt lat="44.9927" lon="6.15029">
        <ele>2478.2</ele>
        <time>2022-12-29T14:20:41Z</time>
      </trkpt>
      <trkpt lat="44.9927" lon="6.1503">
        <ele>2478.2</ele>
        <time>2022-12-29T14:20:42Z</time>
      </trkpt>
      <trkpt lat="44.9927" lon="6.1503">
        <ele>2478.2</ele>
        <time>2022-12-29T14:20:43Z</time>
      </trkpt>
      <trkpt lat="44.9927" lon="6.1503">
        <ele>2478.2</ele>
        <time>2022-12-29T14:20:44Z</time>
      </trkpt>
      <trkpt lat="44.9927" lon="6.15031">
        <ele>2478.2</ele>
        <time>2022-12-29T14:20:45Z</time>
      </trkpt>
      <trkpt lat="44.9927" lon="6.15031">
        <ele>2480.2</ele>
        <time>2022-12-29T14:20:46Z</time>
      </trkpt>
      <trkpt lat="44.99269" lon="6.15033">
        <ele>2480.2</ele>
        <time>2022-12-29T14:20:47Z</time>
      </trkpt>
      <trkpt lat="44.99269" lon="6.15033">
        <ele>2480.2</ele>
        <time>2022-12-29T14:20:48Z</time>
      </trkpt>
      <trkpt lat="44.99269" lon="6.15033">
        <ele>2480.2</ele>
        <time>2022-12-29T14:20:49Z</time>
      </trkpt>
      <trkpt lat="44.99269" lon="6.15033">
        <ele>2480.2</ele>
        <time>2022-12-29T14:20:50Z</time>
      </trkpt>
      <trkpt lat="44.99269" lon="6.15033">
        <ele>2480.2</ele>
        <time>2022-12-29T14:20:51Z</time>
      </trkpt>
      <trkpt lat="44.99267" lon="6.15035">
        <ele>2480.2</ele>
        <time>2022-12-29T14:20:52Z</time>
      </trkpt>
      <trkpt lat="44.99267" lon="6.15035">
        <ele>2480.2</ele>
        <time>2022-12-29T14:20:53Z</time>
      </trkpt>
      <trkpt lat="44.99267" lon="6.15035">
        <ele>2480.2</ele>
        <time>2022-12-29T14:20:54Z</time>
      </trkpt>
      <trkpt lat="44.99267" lon="6.15035">
        <ele>2480.2</ele>
        <time>2022-12-29T14:20:55Z</time>
      </trkpt>
      <trkpt lat="44.99267" lon="6.15035">
        <ele>2481</ele>
        <time>2022-12-29T14:20:56Z</time>
      </trkpt>
      <trkpt lat="44.99267" lon="6.15035">
        <ele>2481</ele>
        <time>2022-12-29T14:20:57Z</time>
      </trkpt>
      <trkpt lat="44.99267" lon="6.15035">
        <ele>2481</ele>
        <time>2022-12-29T14:20:58Z</time>
      </trkpt>
      <trkpt lat="44.99267" lon="6.15035">
        <ele>2481</ele>
        <time>2022-12-29T14:20:59Z</time>
      </trkpt>
      <trkpt lat="44.99267" lon="6.15035">
        <ele>2481</ele>
        <time>2022-12-29T14:21:00Z</time>
      </trkpt>
      <trkpt lat="44.99267" lon="6.15035">
        <ele>2481</ele>
        <time>2022-12-29T14:21:01Z</time>
      </trkpt>
      <trkpt lat="44.99267" lon="6.15035">
        <ele>2481</ele>
        <time>2022-12-29T14:21:02Z</time>
      </trkpt>
      <trkpt lat="44.99267" lon="6.15035">
        <ele>2481</ele>
        <time>2022-12-29T14:21:03Z</time>
      </trkpt>
      <trkpt lat="44.99267" lon="6.15035">
        <ele>2481</ele>
        <time>2022-12-29T14:21:04Z</time>
      </trkpt>
      <trkpt lat="44.99267" lon="6.15035">
        <ele>2481</ele>
        <time>2022-12-29T14:21:05Z</time>
      </trkpt>
      <trkpt lat="44.99267" lon="6.15035">
        <ele>2480.6</ele>
        <time>2022-12-29T14:21:06Z</time>
      </trkpt>
      <trkpt lat="44.99267" lon="6.15035">
        <ele>2480.6</ele>
        <time>2022-12-29T14:21:07Z</time>
      </trkpt>
      <trkpt lat="44.99267" lon="6.15035">
        <ele>2480.6</ele>
        <time>2022-12-29T14:21:08Z</time>
      </trkpt>
      <trkpt lat="44.99267" lon="6.15035">
        <ele>2480.6</ele>
        <time>2022-12-29T14:21:09Z</time>
      </trkpt>
      <trkpt lat="44.99267" lon="6.15035">
        <ele>2480.6</ele>
        <time>2022-12-29T14:21:10Z</time>
      </trkpt>
      <trkpt lat="44.99267" lon="6.15035">
        <ele>2480.6</ele>
        <time>2022-12-29T14:21:11Z</time>
      </trkpt>
      <trkpt lat="44.99267" lon="6.15035">
        <ele>2480.6</ele>
        <time>2022-12-29T14:21:12Z</time>
      </trkpt>
      <trkpt lat="44.99267" lon="6.15035">
        <ele>2480.6</ele>
        <time>2022-12-29T14:21:13Z</time>
      </trkpt>
      <trkpt lat="44.99267" lon="6.15035">
        <ele>2480.6</ele>
        <time>2022-12-29T14:21:14Z</time>
      </trkpt>
      <trkpt lat="44.99267" lon="6.15035">
        <ele>2480.6</ele>
        <time>2022-12-29T14:21:15Z</time>
      </trkpt>
      <trkpt lat="44.99267" lon="6.15035">
        <ele>2480.6</ele>
        <time>2022-12-29T14:21:16Z</time>
      </trkpt>
      <trkpt lat="44.99267" lon="6.15035">
        <ele>2480.6</ele>
        <time>2022-12-29T14:21:17Z</time>
      </trkpt>
      <trkpt lat="44.99267" lon="6.15035">
        <ele>2480.6</ele>
        <time>2022-12-29T14:21:18Z</time>
      </trkpt>
      <trkpt lat="44.99267" lon="6.15035">
        <ele>2480.6</ele>
        <time>2022-12-29T14:21:19Z</time>
      </trkpt>
      <trkpt lat="44.99267" lon="6.15035">
        <ele>2480.6</ele>
        <time>2022-12-29T14:21:20Z</time>
      </trkpt>
      <trkpt lat="44.99267" lon="6.15035">
        <ele>2480.6</ele>
        <time>2022-12-29T14:21:21Z</time>
      </trkpt>
      <trkpt lat="44.99267" lon="6.15035">
        <ele>2480.6</ele>
        <time>2022-12-29T14:21:22Z</time>
      </trkpt>
      <trkpt lat="44.99267" lon="6.15035">
        <ele>2480.6</ele>
        <time>2022-12-29T14:21:23Z</time>
      </trkpt>
      <trkpt lat="44.99267" lon="6.15035">
        <ele>2480.6</ele>
        <time>2022-12-29T14:21:24Z</time>
      </trkpt>
      <trkpt lat="44.99267" lon="6.15035">
        <ele>2480.6</ele>
        <time>2022-12-29T14:21:25Z</time>
      </trkpt>
      <trkpt lat="44.99266" lon="6.15038">
        <ele>2482</ele>
        <time>2022-12-29T14:21:26Z</time>
      </trkpt>
      <trkpt lat="44.99266" lon="6.15039">
        <ele>2482</ele>
        <time>2022-12-29T14:21:27Z</time>
      </trkpt>
      <trkpt lat="44.99266" lon="6.1504">
        <ele>2482</ele>
        <time>2022-12-29T14:21:28Z</time>
      </trkpt>
      <trkpt lat="44.99267" lon="6.15042">
        <ele>2482</ele>
        <time>2022-12-29T14:21:29Z</time>
      </trkpt>
      <trkpt lat="44.99267" lon="6.15043">
        <ele>2482</ele>
        <time>2022-12-29T14:21:30Z</time>
      </trkpt>
      <trkpt lat="44.99267" lon="6.15044">
        <ele>2482</ele>
        <time>2022-12-29T14:21:31Z</time>
      </trkpt>
      <trkpt lat="44.99267" lon="6.15045">
        <ele>2482</ele>
        <time>2022-12-29T14:21:32Z</time>
      </trkpt>
      <trkpt lat="44.99267" lon="6.15047">
        <ele>2482</ele>
        <time>2022-12-29T14:21:33Z</time>
      </trkpt>
      <trkpt lat="44.99268" lon="6.15048">
        <ele>2482</ele>
        <time>2022-12-29T14:21:34Z</time>
      </trkpt>
      <trkpt lat="44.99268" lon="6.15049">
        <ele>2482</ele>
        <time>2022-12-29T14:21:35Z</time>
      </trkpt>
      <trkpt lat="44.99268" lon="6.1505">
        <ele>2484.6</ele>
        <time>2022-12-29T14:21:36Z</time>
      </trkpt>
      <trkpt lat="44.99268" lon="6.15051">
        <ele>2484.6</ele>
        <time>2022-12-29T14:21:37Z</time>
      </trkpt>
      <trkpt lat="44.99269" lon="6.15052">
        <ele>2484.6</ele>
        <time>2022-12-29T14:21:38Z</time>
      </trkpt>
      <trkpt lat="44.99269" lon="6.15053">
        <ele>2484.6</ele>
        <time>2022-12-29T14:21:39Z</time>
      </trkpt>
      <trkpt lat="44.9927" lon="6.15054">
        <ele>2484.6</ele>
        <time>2022-12-29T14:21:40Z</time>
      </trkpt>
      <trkpt lat="44.9927" lon="6.15055">
        <ele>2484.6</ele>
        <time>2022-12-29T14:21:41Z</time>
      </trkpt>
      <trkpt lat="44.99271" lon="6.15056">
        <ele>2484.6</ele>
        <time>2022-12-29T14:21:42Z</time>
      </trkpt>
      <trkpt lat="44.99271" lon="6.15057">
        <ele>2484.6</ele>
        <time>2022-12-29T14:21:43Z</time>
      </trkpt>
      <trkpt lat="44.99272" lon="6.15058">
        <ele>2484.6</ele>
        <time>2022-12-29T14:21:44Z</time>
      </trkpt>
      <trkpt lat="44.99272" lon="6.15059">
        <ele>2484.6</ele>
        <time>2022-12-29T14:21:45Z</time>
      </trkpt>
      <trkpt lat="44.99273" lon="6.1506">
        <ele>2485.6</ele>
        <time>2022-12-29T14:21:46Z</time>
      </trkpt>
      <trkpt lat="44.99273" lon="6.15061">
        <ele>2485.6</ele>
        <time>2022-12-29T14:21:47Z</time>
      </trkpt>
      <trkpt lat="44.99274" lon="6.15061">
        <ele>2485.6</ele>
        <time>2022-12-29T14:21:48Z</time>
      </trkpt>
      <trkpt lat="44.99275" lon="6.15062">
        <ele>2485.6</ele>
        <time>2022-12-29T14:21:49Z</time>
      </trkpt>
      <trkpt lat="44.99275" lon="6.15063">
        <ele>2485.6</ele>
        <time>2022-12-29T14:21:50Z</time>
      </trkpt>
      <trkpt lat="44.99276" lon="6.15063">
        <ele>2485.6</ele>
        <time>2022-12-29T14:21:51Z</time>
      </trkpt>
      <trkpt lat="44.99277" lon="6.15064">
        <ele>2485.6</ele>
        <time>2022-12-29T14:21:52Z</time>
      </trkpt>
      <trkpt lat="44.99277" lon="6.15065">
        <ele>2485.6</ele>
        <time>2022-12-29T14:21:53Z</time>
      </trkpt>
      <trkpt lat="44.99278" lon="6.15065">
        <ele>2485.6</ele>
        <time>2022-12-29T14:21:54Z</time>
      </trkpt>
      <trkpt lat="44.99278" lon="6.15066">
        <ele>2485.6</ele>
        <time>2022-12-29T14:21:55Z</time>
      </trkpt>
      <trkpt lat="44.99279" lon="6.15067">
        <ele>2486.8</ele>
        <time>2022-12-29T14:21:56Z</time>
      </trkpt>
      <trkpt lat="44.9928" lon="6.15067">
        <ele>2486.8</ele>
        <time>2022-12-29T14:21:57Z</time>
      </trkpt>
      <trkpt lat="44.9928" lon="6.15067">
        <ele>2486.8</ele>
        <time>2022-12-29T14:21:58Z</time>
      </trkpt>
      <trkpt lat="44.99281" lon="6.15067">
        <ele>2486.8</ele>
        <time>2022-12-29T14:21:59Z</time>
      </trkpt>
      <trkpt lat="44.99282" lon="6.15068">
        <ele>2486.8</ele>
        <time>2022-12-29T14:22:00Z</time>
      </trkpt>
      <trkpt lat="44.99282" lon="6.15068">
        <ele>2486.8</ele>
        <time>2022-12-29T14:22:01Z</time>
      </trkpt>
      <trkpt lat="44.99283" lon="6.15068">
        <ele>2486.8</ele>
        <time>2022-12-29T14:22:02Z</time>
      </trkpt>
      <trkpt lat="44.99284" lon="6.15068">
        <ele>2486.8</ele>
        <time>2022-12-29T14:22:03Z</time>
      </trkpt>
      <trkpt lat="44.99284" lon="6.15069">
        <ele>2486.8</ele>
        <time>2022-12-29T14:22:04Z</time>
      </trkpt>
      <trkpt lat="44.99285" lon="6.15069">
        <ele>2486.8</ele>
        <time>2022-12-29T14:22:05Z</time>
      </trkpt>
      <trkpt lat="44.99286" lon="6.15069">
        <ele>2487.4</ele>
        <time>2022-12-29T14:22:06Z</time>
      </trkpt>
      <trkpt lat="44.99289" lon="6.15069">
        <ele>2487.4</ele>
        <time>2022-12-29T14:22:07Z</time>
      </trkpt>
      <trkpt lat="44.9929" lon="6.15069">
        <ele>2487.4</ele>
        <time>2022-12-29T14:22:08Z</time>
      </trkpt>
      <trkpt lat="44.9929" lon="6.15069">
        <ele>2487.4</ele>
        <time>2022-12-29T14:22:09Z</time>
      </trkpt>
      <trkpt lat="44.99291" lon="6.1507">
        <ele>2487.4</ele>
        <time>2022-12-29T14:22:10Z</time>
      </trkpt>
      <trkpt lat="44.99292" lon="6.1507">
        <ele>2487.4</ele>
        <time>2022-12-29T14:22:11Z</time>
      </trkpt>
      <trkpt lat="44.99293" lon="6.1507">
        <ele>2487.4</ele>
        <time>2022-12-29T14:22:12Z</time>
      </trkpt>
      <trkpt lat="44.99293" lon="6.1507">
        <ele>2487.4</ele>
        <time>2022-12-29T14:22:13Z</time>
      </trkpt>
      <trkpt lat="44.99294" lon="6.1507">
        <ele>2487.4</ele>
        <time>2022-12-29T14:22:14Z</time>
      </trkpt>
      <trkpt lat="44.99295" lon="6.1507">
        <ele>2487.4</ele>
        <time>2022-12-29T14:22:15Z</time>
      </trkpt>
      <trkpt lat="44.99295" lon="6.15071">
        <ele>2488.2</ele>
        <time>2022-12-29T14:22:16Z</time>
      </trkpt>
      <trkpt lat="44.99296" lon="6.15071">
        <ele>2488.2</ele>
        <time>2022-12-29T14:22:17Z</time>
      </trkpt>
      <trkpt lat="44.99297" lon="6.15071">
        <ele>2488.2</ele>
        <time>2022-12-29T14:22:18Z</time>
      </trkpt>
      <trkpt lat="44.99298" lon="6.15071">
        <ele>2488.2</ele>
        <time>2022-12-29T14:22:19Z</time>
      </trkpt>
      <trkpt lat="44.99299" lon="6.15072">
        <ele>2488.2</ele>
        <time>2022-12-29T14:22:20Z</time>
      </trkpt>
      <trkpt lat="44.99299" lon="6.15072">
        <ele>2488.2</ele>
        <time>2022-12-29T14:22:21Z</time>
      </trkpt>
      <trkpt lat="44.993" lon="6.15072">
        <ele>2488.2</ele>
        <time>2022-12-29T14:22:22Z</time>
      </trkpt>
      <trkpt lat="44.99301" lon="6.15072">
        <ele>2488.2</ele>
        <time>2022-12-29T14:22:23Z</time>
      </trkpt>
      <trkpt lat="44.99302" lon="6.15073">
        <ele>2488.2</ele>
        <time>2022-12-29T14:22:24Z</time>
      </trkpt>
      <trkpt lat="44.99303" lon="6.15073">
        <ele>2488.2</ele>
        <time>2022-12-29T14:22:25Z</time>
      </trkpt>
      <trkpt lat="44.99303" lon="6.15073">
        <ele>2489.2</ele>
        <time>2022-12-29T14:22:26Z</time>
      </trkpt>
      <trkpt lat="44.99304" lon="6.15073">
        <ele>2489.2</ele>
        <time>2022-12-29T14:22:27Z</time>
      </trkpt>
      <trkpt lat="44.99305" lon="6.15073">
        <ele>2489.2</ele>
        <time>2022-12-29T14:22:28Z</time>
      </trkpt>
      <trkpt lat="44.99305" lon="6.15073">
        <ele>2489.2</ele>
        <time>2022-12-29T14:22:29Z</time>
      </trkpt>
      <trkpt lat="44.99306" lon="6.15073">
        <ele>2489.2</ele>
        <time>2022-12-29T14:22:30Z</time>
      </trkpt>
      <trkpt lat="44.99307" lon="6.15073">
        <ele>2489.2</ele>
        <time>2022-12-29T14:22:31Z</time>
      </trkpt>
      <trkpt lat="44.99307" lon="6.15073">
        <ele>2489.2</ele>
        <time>2022-12-29T14:22:32Z</time>
      </trkpt>
      <trkpt lat="44.99308" lon="6.15073">
        <ele>2489.2</ele>
        <time>2022-12-29T14:22:33Z</time>
      </trkpt>
      <trkpt lat="44.99309" lon="6.15073">
        <ele>2489.2</ele>
        <time>2022-12-29T14:22:34Z</time>
      </trkpt>
      <trkpt lat="44.99309" lon="6.15073">
        <ele>2489.2</ele>
        <time>2022-12-29T14:22:35Z</time>
      </trkpt>
      <trkpt lat="44.9931" lon="6.15073">
        <ele>2490.4</ele>
        <time>2022-12-29T14:22:36Z</time>
      </trkpt>
      <trkpt lat="44.99312" lon="6.15074">
        <ele>2490.4</ele>
        <time>2022-12-29T14:22:37Z</time>
      </trkpt>
      <trkpt lat="44.99313" lon="6.15074">
        <ele>2490.4</ele>
        <time>2022-12-29T14:22:38Z</time>
      </trkpt>
      <trkpt lat="44.99314" lon="6.15074">
        <ele>2490.4</ele>
        <time>2022-12-29T14:22:39Z</time>
      </trkpt>
      <trkpt lat="44.99315" lon="6.15074">
        <ele>2490.4</ele>
        <time>2022-12-29T14:22:40Z</time>
      </trkpt>
      <trkpt lat="44.99315" lon="6.15074">
        <ele>2490.4</ele>
        <time>2022-12-29T14:22:41Z</time>
      </trkpt>
      <trkpt lat="44.99316" lon="6.15074">
        <ele>2490.4</ele>
        <time>2022-12-29T14:22:42Z</time>
      </trkpt>
      <trkpt lat="44.99317" lon="6.15074">
        <ele>2490.4</ele>
        <time>2022-12-29T14:22:43Z</time>
      </trkpt>
      <trkpt lat="44.99317" lon="6.15074">
        <ele>2490.4</ele>
        <time>2022-12-29T14:22:44Z</time>
      </trkpt>
      <trkpt lat="44.99318" lon="6.15074">
        <ele>2490.4</ele>
        <time>2022-12-29T14:22:45Z</time>
      </trkpt>
      <trkpt lat="44.99319" lon="6.15074">
        <ele>2491.6</ele>
        <time>2022-12-29T14:22:46Z</time>
      </trkpt>
      <trkpt lat="44.9932" lon="6.15074">
        <ele>2491.6</ele>
        <time>2022-12-29T14:22:47Z</time>
      </trkpt>
      <trkpt lat="44.9932" lon="6.15074">
        <ele>2491.6</ele>
        <time>2022-12-29T14:22:48Z</time>
      </trkpt>
      <trkpt lat="44.99321" lon="6.15074">
        <ele>2491.6</ele>
        <time>2022-12-29T14:22:49Z</time>
      </trkpt>
      <trkpt lat="44.99322" lon="6.15074">
        <ele>2491.6</ele>
        <time>2022-12-29T14:22:50Z</time>
      </trkpt>
      <trkpt lat="44.99323" lon="6.15074">
        <ele>2491.6</ele>
        <time>2022-12-29T14:22:51Z</time>
      </trkpt>
      <trkpt lat="44.99323" lon="6.15074">
        <ele>2491.6</ele>
        <time>2022-12-29T14:22:52Z</time>
      </trkpt>
      <trkpt lat="44.99324" lon="6.15074">
        <ele>2491.6</ele>
        <time>2022-12-29T14:22:53Z</time>
      </trkpt>
      <trkpt lat="44.99325" lon="6.15074">
        <ele>2491.6</ele>
        <time>2022-12-29T14:22:54Z</time>
      </trkpt>
      <trkpt lat="44.99326" lon="6.15074">
        <ele>2491.6</ele>
        <time>2022-12-29T14:22:55Z</time>
      </trkpt>
      <trkpt lat="44.99326" lon="6.15075">
        <ele>2492.4</ele>
        <time>2022-12-29T14:22:56Z</time>
      </trkpt>
      <trkpt lat="44.99327" lon="6.15074">
        <ele>2492.4</ele>
        <time>2022-12-29T14:22:57Z</time>
      </trkpt>
      <trkpt lat="44.99328" lon="6.15074">
        <ele>2492.4</ele>
        <time>2022-12-29T14:22:58Z</time>
      </trkpt>
      <trkpt lat="44.99329" lon="6.15074">
        <ele>2492.4</ele>
        <time>2022-12-29T14:22:59Z</time>
      </trkpt>
      <trkpt lat="44.99329" lon="6.15074">
        <ele>2492.4</ele>
        <time>2022-12-29T14:23:01Z</time>
      </trkpt>
      <trkpt lat="44.9933" lon="6.15073">
        <ele>2492.4</ele>
        <time>2022-12-29T14:23:02Z</time>
      </trkpt>
      <trkpt lat="44.99331" lon="6.15073">
        <ele>2492.4</ele>
        <time>2022-12-29T14:23:03Z</time>
      </trkpt>
      <trkpt lat="44.99331" lon="6.15073">
        <ele>2492.4</ele>
        <time>2022-12-29T14:23:04Z</time>
      </trkpt>
      <trkpt lat="44.99332" lon="6.15073">
        <ele>2492.4</ele>
        <time>2022-12-29T14:23:05Z</time>
      </trkpt>
      <trkpt lat="44.99333" lon="6.15073">
        <ele>2493.2</ele>
        <time>2022-12-29T14:23:06Z</time>
      </trkpt>
      <trkpt lat="44.99336" lon="6.15072">
        <ele>2493.2</ele>
        <time>2022-12-29T14:23:07Z</time>
      </trkpt>
      <trkpt lat="44.99336" lon="6.15072">
        <ele>2493.2</ele>
        <time>2022-12-29T14:23:08Z</time>
      </trkpt>
      <trkpt lat="44.99337" lon="6.15072">
        <ele>2493.2</ele>
        <time>2022-12-29T14:23:09Z</time>
      </trkpt>
      <trkpt lat="44.99338" lon="6.15072">
        <ele>2493.2</ele>
        <time>2022-12-29T14:23:10Z</time>
      </trkpt>
      <trkpt lat="44.99338" lon="6.15072">
        <ele>2493.2</ele>
        <time>2022-12-29T14:23:11Z</time>
      </trkpt>
      <trkpt lat="44.99339" lon="6.15071">
        <ele>2493.2</ele>
        <time>2022-12-29T14:23:12Z</time>
      </trkpt>
      <trkpt lat="44.9934" lon="6.15071">
        <ele>2493.2</ele>
        <time>2022-12-29T14:23:13Z</time>
      </trkpt>
      <trkpt lat="44.9934" lon="6.15071">
        <ele>2493.2</ele>
        <time>2022-12-29T14:23:14Z</time>
      </trkpt>
      <trkpt lat="44.99341" lon="6.15071">
        <ele>2493.2</ele>
        <time>2022-12-29T14:23:15Z</time>
      </trkpt>
      <trkpt lat="44.99341" lon="6.15071">
        <ele>2494.8</ele>
        <time>2022-12-29T14:23:16Z</time>
      </trkpt>
      <trkpt lat="44.99342" lon="6.15071">
        <ele>2494.8</ele>
        <time>2022-12-29T14:23:17Z</time>
      </trkpt>
      <trkpt lat="44.99343" lon="6.15071">
        <ele>2494.8</ele>
        <time>2022-12-29T14:23:18Z</time>
      </trkpt>
      <trkpt lat="44.99344" lon="6.15071">
        <ele>2494.8</ele>
        <time>2022-12-29T14:23:19Z</time>
      </trkpt>
      <trkpt lat="44.99344" lon="6.15071">
        <ele>2494.8</ele>
        <time>2022-12-29T14:23:20Z</time>
      </trkpt>
      <trkpt lat="44.99345" lon="6.15071">
        <ele>2494.8</ele>
        <time>2022-12-29T14:23:21Z</time>
      </trkpt>
      <trkpt lat="44.99346" lon="6.15072">
        <ele>2494.8</ele>
        <time>2022-12-29T14:23:22Z</time>
      </trkpt>
      <trkpt lat="44.99346" lon="6.15072">
        <ele>2494.8</ele>
        <time>2022-12-29T14:23:23Z</time>
      </trkpt>
      <trkpt lat="44.99347" lon="6.15072">
        <ele>2494.8</ele>
        <time>2022-12-29T14:23:24Z</time>
      </trkpt>
      <trkpt lat="44.99348" lon="6.15072">
        <ele>2494.8</ele>
        <time>2022-12-29T14:23:25Z</time>
      </trkpt>
      <trkpt lat="44.99348" lon="6.15072">
        <ele>2496.2</ele>
        <time>2022-12-29T14:23:26Z</time>
      </trkpt>
      <trkpt lat="44.99349" lon="6.15072">
        <ele>2496.2</ele>
        <time>2022-12-29T14:23:27Z</time>
      </trkpt>
      <trkpt lat="44.99349" lon="6.15073">
        <ele>2496.2</ele>
        <time>2022-12-29T14:23:28Z</time>
      </trkpt>
      <trkpt lat="44.9935" lon="6.15073">
        <ele>2496.2</ele>
        <time>2022-12-29T14:23:29Z</time>
      </trkpt>
      <trkpt lat="44.99351" lon="6.15073">
        <ele>2496.2</ele>
        <time>2022-12-29T14:23:30Z</time>
      </trkpt>
      <trkpt lat="44.99351" lon="6.15074">
        <ele>2496.2</ele>
        <time>2022-12-29T14:23:31Z</time>
      </trkpt>
      <trkpt lat="44.99352" lon="6.15074">
        <ele>2496.2</ele>
        <time>2022-12-29T14:23:32Z</time>
      </trkpt>
      <trkpt lat="44.99352" lon="6.15074">
        <ele>2496.2</ele>
        <time>2022-12-29T14:23:33Z</time>
      </trkpt>
      <trkpt lat="44.99353" lon="6.15075">
        <ele>2496.2</ele>
        <time>2022-12-29T14:23:34Z</time>
      </trkpt>
      <trkpt lat="44.99354" lon="6.15075">
        <ele>2496.2</ele>
        <time>2022-12-29T14:23:35Z</time>
      </trkpt>
      <trkpt lat="44.99354" lon="6.15075">
        <ele>2497.8</ele>
        <time>2022-12-29T14:23:36Z</time>
      </trkpt>
      <trkpt lat="44.99354" lon="6.15075">
        <ele>2497.8</ele>
        <time>2022-12-29T14:23:37Z</time>
      </trkpt>
      <trkpt lat="44.99354" lon="6.15075">
        <ele>2497.8</ele>
        <time>2022-12-29T14:23:38Z</time>
      </trkpt>
      <trkpt lat="44.99355" lon="6.15078">
        <ele>2497.8</ele>
        <time>2022-12-29T14:23:39Z</time>
      </trkpt>
      <trkpt lat="44.99355" lon="6.15078">
        <ele>2497.8</ele>
        <time>2022-12-29T14:23:40Z</time>
      </trkpt>
      <trkpt lat="44.99355" lon="6.15078">
        <ele>2497.8</ele>
        <time>2022-12-29T14:23:41Z</time>
      </trkpt>
      <trkpt lat="44.99355" lon="6.15078">
        <ele>2497.8</ele>
        <time>2022-12-29T14:23:42Z</time>
      </trkpt>
      <trkpt lat="44.99355" lon="6.15078">
        <ele>2497.8</ele>
        <time>2022-12-29T14:23:43Z</time>
      </trkpt>
      <trkpt lat="44.99355" lon="6.15078">
        <ele>2497.8</ele>
        <time>2022-12-29T14:23:44Z</time>
      </trkpt>
      <trkpt lat="44.99355" lon="6.15078">
        <ele>2497.8</ele>
        <time>2022-12-29T14:23:45Z</time>
      </trkpt>
      <trkpt lat="44.99355" lon="6.15078">
        <ele>2499</ele>
        <time>2022-12-29T14:23:46Z</time>
      </trkpt>
      <trkpt lat="44.99357" lon="6.15079">
        <ele>2499</ele>
        <time>2022-12-29T14:23:47Z</time>
      </trkpt>
      <trkpt lat="44.99358" lon="6.15079">
        <ele>2499</ele>
        <time>2022-12-29T14:23:48Z</time>
      </trkpt>
      <trkpt lat="44.99358" lon="6.15079">
        <ele>2499</ele>
        <time>2022-12-29T14:23:49Z</time>
      </trkpt>
      <trkpt lat="44.99359" lon="6.1508">
        <ele>2499</ele>
        <time>2022-12-29T14:23:50Z</time>
      </trkpt>
      <trkpt lat="44.99359" lon="6.1508">
        <ele>2499</ele>
        <time>2022-12-29T14:23:51Z</time>
      </trkpt>
      <trkpt lat="44.99359" lon="6.1508">
        <ele>2499</ele>
        <time>2022-12-29T14:23:52Z</time>
      </trkpt>
      <trkpt lat="44.9936" lon="6.1508">
        <ele>2499</ele>
        <time>2022-12-29T14:23:53Z</time>
      </trkpt>
      <trkpt lat="44.9936" lon="6.15081">
        <ele>2499</ele>
        <time>2022-12-29T14:23:54Z</time>
      </trkpt>
      <trkpt lat="44.99361" lon="6.15081">
        <ele>2499</ele>
        <time>2022-12-29T14:23:55Z</time>
      </trkpt>
      <trkpt lat="44.99361" lon="6.15081">
        <ele>2499.8</ele>
        <time>2022-12-29T14:23:56Z</time>
      </trkpt>
      <trkpt lat="44.99364" lon="6.15082">
        <ele>2499.8</ele>
        <time>2022-12-29T14:23:57Z</time>
      </trkpt>
      <trkpt lat="44.99365" lon="6.15082">
        <ele>2499.8</ele>
        <time>2022-12-29T14:23:58Z</time>
      </trkpt>
      <trkpt lat="44.99366" lon="6.15082">
        <ele>2499.8</ele>
        <time>2022-12-29T14:23:59Z</time>
      </trkpt>
      <trkpt lat="44.99366" lon="6.15082">
        <ele>2499.8</ele>
        <time>2022-12-29T14:24:00Z</time>
      </trkpt>
      <trkpt lat="44.99367" lon="6.15082">
        <ele>2499.8</ele>
        <time>2022-12-29T14:24:01Z</time>
      </trkpt>
      <trkpt lat="44.99368" lon="6.15082">
        <ele>2499.8</ele>
        <time>2022-12-29T14:24:02Z</time>
      </trkpt>
      <trkpt lat="44.99369" lon="6.15082">
        <ele>2499.8</ele>
        <time>2022-12-29T14:24:03Z</time>
      </trkpt>
      <trkpt lat="44.9937" lon="6.15082">
        <ele>2499.8</ele>
        <time>2022-12-29T14:24:04Z</time>
      </trkpt>
      <trkpt lat="44.9937" lon="6.15083">
        <ele>2499.8</ele>
        <time>2022-12-29T14:24:05Z</time>
      </trkpt>
      <trkpt lat="44.99371" lon="6.15083">
        <ele>2501.6</ele>
        <time>2022-12-29T14:24:06Z</time>
      </trkpt>
      <trkpt lat="44.99372" lon="6.15083">
        <ele>2501.6</ele>
        <time>2022-12-29T14:24:07Z</time>
      </trkpt>
      <trkpt lat="44.99373" lon="6.15083">
        <ele>2501.6</ele>
        <time>2022-12-29T14:24:08Z</time>
      </trkpt>
      <trkpt lat="44.99373" lon="6.15083">
        <ele>2501.6</ele>
        <time>2022-12-29T14:24:09Z</time>
      </trkpt>
      <trkpt lat="44.99374" lon="6.15083">
        <ele>2501.6</ele>
        <time>2022-12-29T14:24:10Z</time>
      </trkpt>
      <trkpt lat="44.99375" lon="6.15084">
        <ele>2501.6</ele>
        <time>2022-12-29T14:24:11Z</time>
      </trkpt>
      <trkpt lat="44.99376" lon="6.15084">
        <ele>2501.6</ele>
        <time>2022-12-29T14:24:12Z</time>
      </trkpt>
      <trkpt lat="44.99376" lon="6.15084">
        <ele>2501.6</ele>
        <time>2022-12-29T14:24:13Z</time>
      </trkpt>
      <trkpt lat="44.99377" lon="6.15084">
        <ele>2501.6</ele>
        <time>2022-12-29T14:24:14Z</time>
      </trkpt>
      <trkpt lat="44.99378" lon="6.15084">
        <ele>2501.6</ele>
        <time>2022-12-29T14:24:15Z</time>
      </trkpt>
      <trkpt lat="44.99379" lon="6.15084">
        <ele>2503</ele>
        <time>2022-12-29T14:24:16Z</time>
      </trkpt>
      <trkpt lat="44.99379" lon="6.15084">
        <ele>2503</ele>
        <time>2022-12-29T14:24:17Z</time>
      </trkpt>
      <trkpt lat="44.9938" lon="6.15084">
        <ele>2503</ele>
        <time>2022-12-29T14:24:18Z</time>
      </trkpt>
      <trkpt lat="44.9938" lon="6.15084">
        <ele>2503</ele>
        <time>2022-12-29T14:24:19Z</time>
      </trkpt>
      <trkpt lat="44.9938" lon="6.15084">
        <ele>2503</ele>
        <time>2022-12-29T14:24:20Z</time>
      </trkpt>
      <trkpt lat="44.99381" lon="6.15084">
        <ele>2503</ele>
        <time>2022-12-29T14:24:21Z</time>
      </trkpt>
      <trkpt lat="44.99381" lon="6.15084">
        <ele>2503</ele>
        <time>2022-12-29T14:24:22Z</time>
      </trkpt>
      <trkpt lat="44.99382" lon="6.15084">
        <ele>2503</ele>
        <time>2022-12-29T14:24:23Z</time>
      </trkpt>
      <trkpt lat="44.99382" lon="6.15084">
        <ele>2503</ele>
        <time>2022-12-29T14:24:24Z</time>
      </trkpt>
      <trkpt lat="44.99383" lon="6.15084">
        <ele>2503</ele>
        <time>2022-12-29T14:24:25Z</time>
      </trkpt>
      <trkpt lat="44.99383" lon="6.15084">
        <ele>2504.6</ele>
        <time>2022-12-29T14:24:26Z</time>
      </trkpt>
      <trkpt lat="44.99383" lon="6.15084">
        <ele>2504.6</ele>
        <time>2022-12-29T14:24:27Z</time>
      </trkpt>
      <trkpt lat="44.99383" lon="6.15084">
        <ele>2504.6</ele>
        <time>2022-12-29T14:24:28Z</time>
      </trkpt>
      <trkpt lat="44.99383" lon="6.15084">
        <ele>2504.6</ele>
        <time>2022-12-29T14:24:29Z</time>
      </trkpt>
      <trkpt lat="44.99383" lon="6.15084">
        <ele>2504.6</ele>
        <time>2022-12-29T14:24:30Z</time>
      </trkpt>
      <trkpt lat="44.99383" lon="6.15084">
        <ele>2504.6</ele>
        <time>2022-12-29T14:24:31Z</time>
      </trkpt>
      <trkpt lat="44.99383" lon="6.15084">
        <ele>2504.6</ele>
        <time>2022-12-29T14:24:32Z</time>
      </trkpt>
      <trkpt lat="44.99385" lon="6.15085">
        <ele>2504.6</ele>
        <time>2022-12-29T14:24:33Z</time>
      </trkpt>
      <trkpt lat="44.99385" lon="6.15085">
        <ele>2504.6</ele>
        <time>2022-12-29T14:24:34Z</time>
      </trkpt>
      <trkpt lat="44.99385" lon="6.15085">
        <ele>2504.6</ele>
        <time>2022-12-29T14:24:35Z</time>
      </trkpt>
      <trkpt lat="44.99385" lon="6.15085">
        <ele>2505.2</ele>
        <time>2022-12-29T14:24:36Z</time>
      </trkpt>
      <trkpt lat="44.99385" lon="6.15088">
        <ele>2505.2</ele>
        <time>2022-12-29T14:24:37Z</time>
      </trkpt>
      <trkpt lat="44.99385" lon="6.15088">
        <ele>2505.2</ele>
        <time>2022-12-29T14:24:38Z</time>
      </trkpt>
      <trkpt lat="44.99385" lon="6.15088">
        <ele>2505.2</ele>
        <time>2022-12-29T14:24:39Z</time>
      </trkpt>
      <trkpt lat="44.99385" lon="6.15088">
        <ele>2505.2</ele>
        <time>2022-12-29T14:24:40Z</time>
      </trkpt>
      <trkpt lat="44.99385" lon="6.15088">
        <ele>2505.2</ele>
        <time>2022-12-29T14:24:41Z</time>
      </trkpt>
      <trkpt lat="44.99385" lon="6.15088">
        <ele>2505.2</ele>
        <time>2022-12-29T14:24:42Z</time>
      </trkpt>
      <trkpt lat="44.99385" lon="6.15088">
        <ele>2505.2</ele>
        <time>2022-12-29T14:24:43Z</time>
      </trkpt>
      <trkpt lat="44.99385" lon="6.15088">
        <ele>2505.2</ele>
        <time>2022-12-29T14:24:44Z</time>
      </trkpt>
      <trkpt lat="44.99385" lon="6.15088">
        <ele>2505.2</ele>
        <time>2022-12-29T14:24:45Z</time>
      </trkpt>
      <trkpt lat="44.99385" lon="6.15088">
        <ele>2506</ele>
        <time>2022-12-29T14:24:46Z</time>
      </trkpt>
      <trkpt lat="44.99385" lon="6.15088">
        <ele>2506</ele>
        <time>2022-12-29T14:24:47Z</time>
      </trkpt>
      <trkpt lat="44.99385" lon="6.15088">
        <ele>2506</ele>
        <time>2022-12-29T14:24:48Z</time>
      </trkpt>
      <trkpt lat="44.99385" lon="6.15088">
        <ele>2506</ele>
        <time>2022-12-29T14:24:49Z</time>
      </trkpt>
      <trkpt lat="44.99385" lon="6.15088">
        <ele>2506</ele>
        <time>2022-12-29T14:24:50Z</time>
      </trkpt>
      <trkpt lat="44.99385" lon="6.15088">
        <ele>2506</ele>
        <time>2022-12-29T14:24:51Z</time>
      </trkpt>
      <trkpt lat="44.99385" lon="6.15088">
        <ele>2506</ele>
        <time>2022-12-29T14:24:52Z</time>
      </trkpt>
      <trkpt lat="44.99385" lon="6.15088">
        <ele>2506</ele>
        <time>2022-12-29T14:24:53Z</time>
      </trkpt>
      <trkpt lat="44.99385" lon="6.15088">
        <ele>2506</ele>
        <time>2022-12-29T14:24:54Z</time>
      </trkpt>
      <trkpt lat="44.99385" lon="6.15088">
        <ele>2506</ele>
        <time>2022-12-29T14:24:55Z</time>
      </trkpt>
      <trkpt lat="44.99385" lon="6.15088">
        <ele>2506.8</ele>
        <time>2022-12-29T14:24:56Z</time>
      </trkpt>
      <trkpt lat="44.99385" lon="6.15088">
        <ele>2506.8</ele>
        <time>2022-12-29T14:24:57Z</time>
      </trkpt>
      <trkpt lat="44.99385" lon="6.15088">
        <ele>2506.8</ele>
        <time>2022-12-29T14:24:58Z</time>
      </trkpt>
      <trkpt lat="44.99385" lon="6.15088">
        <ele>2506.8</ele>
        <time>2022-12-29T14:24:59Z</time>
      </trkpt>
      <trkpt lat="44.99385" lon="6.15088">
        <ele>2506.8</ele>
        <time>2022-12-29T14:25:00Z</time>
      </trkpt>
      <trkpt lat="44.99385" lon="6.15088">
        <ele>2506.8</ele>
        <time>2022-12-29T14:25:01Z</time>
      </trkpt>
      <trkpt lat="44.99385" lon="6.15088">
        <ele>2506.8</ele>
        <time>2022-12-29T14:25:02Z</time>
      </trkpt>
      <trkpt lat="44.99385" lon="6.15088">
        <ele>2506.8</ele>
        <time>2022-12-29T14:25:03Z</time>
      </trkpt>
      <trkpt lat="44.99386" lon="6.15091">
        <ele>2506.8</ele>
        <time>2022-12-29T14:25:04Z</time>
      </trkpt>
      <trkpt lat="44.99386" lon="6.15091">
        <ele>2506.8</ele>
        <time>2022-12-29T14:25:05Z</time>
      </trkpt>
      <trkpt lat="44.99386" lon="6.15091">
        <ele>2507.8</ele>
        <time>2022-12-29T14:25:06Z</time>
      </trkpt>
      <trkpt lat="44.99386" lon="6.15091">
        <ele>2507.8</ele>
        <time>2022-12-29T14:25:07Z</time>
      </trkpt>
      <trkpt lat="44.99386" lon="6.15092">
        <ele>2507.8</ele>
        <time>2022-12-29T14:25:08Z</time>
      </trkpt>
      <trkpt lat="44.99386" lon="6.15092">
        <ele>2507.8</ele>
        <time>2022-12-29T14:25:09Z</time>
      </trkpt>
      <trkpt lat="44.99386" lon="6.15092">
        <ele>2507.8</ele>
        <time>2022-12-29T14:25:10Z</time>
      </trkpt>
      <trkpt lat="44.99386" lon="6.15092">
        <ele>2507.8</ele>
        <time>2022-12-29T14:25:11Z</time>
      </trkpt>
      <trkpt lat="44.99386" lon="6.15092">
        <ele>2507.8</ele>
        <time>2022-12-29T14:25:12Z</time>
      </trkpt>
      <trkpt lat="44.99386" lon="6.15092">
        <ele>2507.8</ele>
        <time>2022-12-29T14:25:13Z</time>
      </trkpt>
      <trkpt lat="44.99386" lon="6.15092">
        <ele>2507.8</ele>
        <time>2022-12-29T14:25:14Z</time>
      </trkpt>
      <trkpt lat="44.99386" lon="6.15092">
        <ele>2507.8</ele>
        <time>2022-12-29T14:25:15Z</time>
      </trkpt>
      <trkpt lat="44.99386" lon="6.15092">
        <ele>2508.4</ele>
        <time>2022-12-29T14:25:16Z</time>
      </trkpt>
      <trkpt lat="44.99386" lon="6.15093">
        <ele>2508.4</ele>
        <time>2022-12-29T14:25:17Z</time>
      </trkpt>
      <trkpt lat="44.99387" lon="6.15093">
        <ele>2508.4</ele>
        <time>2022-12-29T14:25:18Z</time>
      </trkpt>
      <trkpt lat="44.99387" lon="6.15093">
        <ele>2508.4</ele>
        <time>2022-12-29T14:25:19Z</time>
      </trkpt>
      <trkpt lat="44.99387" lon="6.15093">
        <ele>2508.4</ele>
        <time>2022-12-29T14:25:20Z</time>
      </trkpt>
      <trkpt lat="44.99387" lon="6.15093">
        <ele>2508.4</ele>
        <time>2022-12-29T14:25:21Z</time>
      </trkpt>
      <trkpt lat="44.99387" lon="6.15093">
        <ele>2508.4</ele>
        <time>2022-12-29T14:25:22Z</time>
      </trkpt>
      <trkpt lat="44.99387" lon="6.15093">
        <ele>2508.4</ele>
        <time>2022-12-29T14:25:23Z</time>
      </trkpt>
      <trkpt lat="44.99387" lon="6.15093">
        <ele>2508.4</ele>
        <time>2022-12-29T14:25:24Z</time>
      </trkpt>
      <trkpt lat="44.99387" lon="6.15093">
        <ele>2508.4</ele>
        <time>2022-12-29T14:25:25Z</time>
      </trkpt>
      <trkpt lat="44.99387" lon="6.15093">
        <ele>2507.8</ele>
        <time>2022-12-29T14:25:26Z</time>
      </trkpt>
      <trkpt lat="44.99387" lon="6.15094">
        <ele>2507.8</ele>
        <time>2022-12-29T14:25:27Z</time>
      </trkpt>
      <trkpt lat="44.99387" lon="6.15094">
        <ele>2507.8</ele>
        <time>2022-12-29T14:25:28Z</time>
      </trkpt>
      <trkpt lat="44.99387" lon="6.15094">
        <ele>2507.8</ele>
        <time>2022-12-29T14:25:29Z</time>
      </trkpt>
      <trkpt lat="44.99387" lon="6.15094">
        <ele>2507.8</ele>
        <time>2022-12-29T14:25:30Z</time>
      </trkpt>
      <trkpt lat="44.99387" lon="6.15094">
        <ele>2507.8</ele>
        <time>2022-12-29T14:25:31Z</time>
      </trkpt>
      <trkpt lat="44.99387" lon="6.15094">
        <ele>2507.8</ele>
        <time>2022-12-29T14:25:32Z</time>
      </trkpt>
      <trkpt lat="44.99387" lon="6.15094">
        <ele>2507.8</ele>
        <time>2022-12-29T14:25:33Z</time>
      </trkpt>
      <trkpt lat="44.99387" lon="6.15094">
        <ele>2507.8</ele>
        <time>2022-12-29T14:25:34Z</time>
      </trkpt>
      <trkpt lat="44.99387" lon="6.15094">
        <ele>2507.8</ele>
        <time>2022-12-29T14:25:35Z</time>
      </trkpt>
      <trkpt lat="44.99387" lon="6.15094">
        <ele>2508.2</ele>
        <time>2022-12-29T14:25:36Z</time>
      </trkpt>
      <trkpt lat="44.99387" lon="6.15095">
        <ele>2508.2</ele>
        <time>2022-12-29T14:25:37Z</time>
      </trkpt>
      <trkpt lat="44.99387" lon="6.15095">
        <ele>2508.2</ele>
        <time>2022-12-29T14:25:38Z</time>
      </trkpt>
      <trkpt lat="44.99387" lon="6.15095">
        <ele>2508.2</ele>
        <time>2022-12-29T14:25:39Z</time>
      </trkpt>
      <trkpt lat="44.99388" lon="6.15095">
        <ele>2508.2</ele>
        <time>2022-12-29T14:25:40Z</time>
      </trkpt>
      <trkpt lat="44.99388" lon="6.15095">
        <ele>2508.2</ele>
        <time>2022-12-29T14:25:41Z</time>
      </trkpt>
      <trkpt lat="44.99388" lon="6.15095">
        <ele>2508.2</ele>
        <time>2022-12-29T14:25:42Z</time>
      </trkpt>
      <trkpt lat="44.99388" lon="6.15095">
        <ele>2508.2</ele>
        <time>2022-12-29T14:25:43Z</time>
      </trkpt>
      <trkpt lat="44.99388" lon="6.15095">
        <ele>2508.2</ele>
        <time>2022-12-29T14:25:44Z</time>
      </trkpt>
      <trkpt lat="44.99388" lon="6.15095">
        <ele>2508.2</ele>
        <time>2022-12-29T14:25:45Z</time>
      </trkpt>
      <trkpt lat="44.99388" lon="6.15096">
        <ele>2509.4</ele>
        <time>2022-12-29T14:25:46Z</time>
      </trkpt>
      <trkpt lat="44.99388" lon="6.15096">
        <ele>2509.4</ele>
        <time>2022-12-29T14:25:47Z</time>
      </trkpt>
      <trkpt lat="44.99388" lon="6.15096">
        <ele>2509.4</ele>
        <time>2022-12-29T14:25:50Z</time>
      </trkpt>
      <trkpt lat="44.99388" lon="6.15096">
        <ele>2509.4</ele>
        <time>2022-12-29T14:25:51Z</time>
      </trkpt>
      <trkpt lat="44.99388" lon="6.15096">
        <ele>2509.4</ele>
        <time>2022-12-29T14:25:52Z</time>
      </trkpt>
      <trkpt lat="44.99388" lon="6.15096">
        <ele>2509.4</ele>
        <time>2022-12-29T14:25:53Z</time>
      </trkpt>
      <trkpt lat="44.99388" lon="6.15096">
        <ele>2509.4</ele>
        <time>2022-12-29T14:25:54Z</time>
      </trkpt>
      <trkpt lat="44.99388" lon="6.15096">
        <ele>2509.4</ele>
        <time>2022-12-29T14:25:55Z</time>
      </trkpt>
      <trkpt lat="44.99388" lon="6.15096">
        <ele>2508.4</ele>
        <time>2022-12-29T14:25:56Z</time>
      </trkpt>
      <trkpt lat="44.99388" lon="6.15096">
        <ele>2508.4</ele>
        <time>2022-12-29T14:25:57Z</time>
      </trkpt>
      <trkpt lat="44.99388" lon="6.15097">
        <ele>2508.4</ele>
        <time>2022-12-29T14:25:58Z</time>
      </trkpt>
      <trkpt lat="44.99388" lon="6.15097">
        <ele>2508.4</ele>
        <time>2022-12-29T14:25:59Z</time>
      </trkpt>
      <trkpt lat="44.99388" lon="6.15097">
        <ele>2508.4</ele>
        <time>2022-12-29T14:26:00Z</time>
      </trkpt>
      <trkpt lat="44.99388" lon="6.15097">
        <ele>2508.4</ele>
        <time>2022-12-29T14:26:01Z</time>
      </trkpt>
      <trkpt lat="44.99388" lon="6.15097">
        <ele>2508.4</ele>
        <time>2022-12-29T14:26:02Z</time>
      </trkpt>
      <trkpt lat="44.99389" lon="6.15097">
        <ele>2508.4</ele>
        <time>2022-12-29T14:26:03Z</time>
      </trkpt>
      <trkpt lat="44.99389" lon="6.15097">
        <ele>2508.4</ele>
        <time>2022-12-29T14:26:04Z</time>
      </trkpt>
      <trkpt lat="44.99389" lon="6.15097">
        <ele>2508.4</ele>
        <time>2022-12-29T14:26:05Z</time>
      </trkpt>
      <trkpt lat="44.99389" lon="6.15097">
        <ele>2508.4</ele>
        <time>2022-12-29T14:26:06Z</time>
      </trkpt>
      <trkpt lat="44.99389" lon="6.15098">
        <ele>2508.4</ele>
        <time>2022-12-29T14:26:07Z</time>
      </trkpt>
      <trkpt lat="44.99389" lon="6.15098">
        <ele>2508.4</ele>
        <time>2022-12-29T14:26:08Z</time>
      </trkpt>
      <trkpt lat="44.99389" lon="6.15098">
        <ele>2508.4</ele>
        <time>2022-12-29T14:26:09Z</time>
      </trkpt>
      <trkpt lat="44.99389" lon="6.15098">
        <ele>2508.4</ele>
        <time>2022-12-29T14:26:12Z</time>
      </trkpt>
      <trkpt lat="44.99389" lon="6.15098">
        <ele>2508.4</ele>
        <time>2022-12-29T14:26:13Z</time>
      </trkpt>
      <trkpt lat="44.99389" lon="6.15098">
        <ele>2508.4</ele>
        <time>2022-12-29T14:26:14Z</time>
      </trkpt>
      <trkpt lat="44.99389" lon="6.15098">
        <ele>2508.4</ele>
        <time>2022-12-29T14:26:15Z</time>
      </trkpt>
      <trkpt lat="44.99389" lon="6.15098">
        <ele>2508.8</ele>
        <time>2022-12-29T14:26:16Z</time>
      </trkpt>
      <trkpt lat="44.99389" lon="6.15098">
        <ele>2508.8</ele>
        <time>2022-12-29T14:26:17Z</time>
      </trkpt>
      <trkpt lat="44.99389" lon="6.15098">
        <ele>2508.8</ele>
        <time>2022-12-29T14:26:18Z</time>
      </trkpt>
      <trkpt lat="44.99389" lon="6.15099">
        <ele>2508.8</ele>
        <time>2022-12-29T14:26:19Z</time>
      </trkpt>
      <trkpt lat="44.99389" lon="6.15099">
        <ele>2508.8</ele>
        <time>2022-12-29T14:26:20Z</time>
      </trkpt>
      <trkpt lat="44.99389" lon="6.15099">
        <ele>2508.8</ele>
        <time>2022-12-29T14:26:24Z</time>
      </trkpt>
      <trkpt lat="44.99389" lon="6.15099">
        <ele>2508.8</ele>
        <time>2022-12-29T14:26:25Z</time>
      </trkpt>
      <trkpt lat="44.99389" lon="6.15099">
        <ele>2510.2</ele>
        <time>2022-12-29T14:26:26Z</time>
      </trkpt>
      <trkpt lat="44.99389" lon="6.15099">
        <ele>2510.2</ele>
        <time>2022-12-29T14:26:27Z</time>
      </trkpt>
      <trkpt lat="44.99389" lon="6.15099">
        <ele>2510.2</ele>
        <time>2022-12-29T14:26:28Z</time>
      </trkpt>
      <trkpt lat="44.99389" lon="6.15099">
        <ele>2510.2</ele>
        <time>2022-12-29T14:26:32Z</time>
      </trkpt>
      <trkpt lat="44.9939" lon="6.15099">
        <ele>2510.2</ele>
        <time>2022-12-29T14:26:33Z</time>
      </trkpt>
      <trkpt lat="44.9939" lon="6.15099">
        <ele>2510.2</ele>
        <time>2022-12-29T14:26:34Z</time>
      </trkpt>
      <trkpt lat="44.9939" lon="6.151">
        <ele>2510.2</ele>
        <time>2022-12-29T14:26:35Z</time>
      </trkpt>
      <trkpt lat="44.9939" lon="6.151">
        <ele>2510.8</ele>
        <time>2022-12-29T14:26:36Z</time>
      </trkpt>
      <trkpt lat="44.9939" lon="6.151">
        <ele>2510.8</ele>
        <time>2022-12-29T14:26:37Z</time>
      </trkpt>
      <trkpt lat="44.9939" lon="6.151">
        <ele>2510.8</ele>
        <time>2022-12-29T14:26:38Z</time>
      </trkpt>
      <trkpt lat="44.9939" lon="6.151">
        <ele>2510.8</ele>
        <time>2022-12-29T14:26:39Z</time>
      </trkpt>
      <trkpt lat="44.9939" lon="6.151">
        <ele>2510.8</ele>
        <time>2022-12-29T14:26:40Z</time>
      </trkpt>
      <trkpt lat="44.9939" lon="6.151">
        <ele>2510.8</ele>
        <time>2022-12-29T14:26:41Z</time>
      </trkpt>
      <trkpt lat="44.9939" lon="6.151">
        <ele>2510.8</ele>
        <time>2022-12-29T14:26:42Z</time>
      </trkpt>
      <trkpt lat="44.9939" lon="6.151">
        <ele>2510.8</ele>
        <time>2022-12-29T14:26:43Z</time>
      </trkpt>
      <trkpt lat="44.9939" lon="6.15101">
        <ele>2510.8</ele>
        <time>2022-12-29T14:26:44Z</time>
      </trkpt>
      <trkpt lat="44.9939" lon="6.15101">
        <ele>2510.8</ele>
        <time>2022-12-29T14:26:45Z</time>
      </trkpt>
      <trkpt lat="44.9939" lon="6.15101">
        <ele>2512</ele>
        <time>2022-12-29T14:26:46Z</time>
      </trkpt>
      <trkpt lat="44.9939" lon="6.15101">
        <ele>2512</ele>
        <time>2022-12-29T14:26:47Z</time>
      </trkpt>
      <trkpt lat="44.9939" lon="6.15104">
        <ele>2512</ele>
        <time>2022-12-29T14:26:48Z</time>
      </trkpt>
      <trkpt lat="44.9939" lon="6.15104">
        <ele>2512</ele>
        <time>2022-12-29T14:26:49Z</time>
      </trkpt>
      <trkpt lat="44.9939" lon="6.15104">
        <ele>2512</ele>
        <time>2022-12-29T14:26:50Z</time>
      </trkpt>
      <trkpt lat="44.9939" lon="6.15107">
        <ele>2512</ele>
        <time>2022-12-29T14:26:51Z</time>
      </trkpt>
      <trkpt lat="44.9939" lon="6.15107">
        <ele>2512</ele>
        <time>2022-12-29T14:26:52Z</time>
      </trkpt>
      <trkpt lat="44.9939" lon="6.15107">
        <ele>2512</ele>
        <time>2022-12-29T14:26:53Z</time>
      </trkpt>
      <trkpt lat="44.9939" lon="6.15107">
        <ele>2512</ele>
        <time>2022-12-29T14:26:54Z</time>
      </trkpt>
      <trkpt lat="44.9939" lon="6.15107">
        <ele>2512</ele>
        <time>2022-12-29T14:26:55Z</time>
      </trkpt>
      <trkpt lat="44.9939" lon="6.15107">
        <ele>2511.2</ele>
        <time>2022-12-29T14:26:56Z</time>
      </trkpt>
      <trkpt lat="44.9939" lon="6.15107">
        <ele>2511.2</ele>
        <time>2022-12-29T14:26:57Z</time>
      </trkpt>
      <trkpt lat="44.99391" lon="6.15105">
        <ele>2511.2</ele>
        <time>2022-12-29T14:26:58Z</time>
      </trkpt>
      <trkpt lat="44.99391" lon="6.15105">
        <ele>2511.2</ele>
        <time>2022-12-29T14:26:59Z</time>
      </trkpt>
      <trkpt lat="44.99391" lon="6.15105">
        <ele>2511.2</ele>
        <time>2022-12-29T14:27:00Z</time>
      </trkpt>
      <trkpt lat="44.99391" lon="6.15105">
        <ele>2511.2</ele>
        <time>2022-12-29T14:27:01Z</time>
      </trkpt>
      <trkpt lat="44.99391" lon="6.15105">
        <ele>2511.2</ele>
        <time>2022-12-29T14:27:02Z</time>
      </trkpt>
      <trkpt lat="44.99391" lon="6.15105">
        <ele>2511.2</ele>
        <time>2022-12-29T14:27:03Z</time>
      </trkpt>
      <trkpt lat="44.99391" lon="6.15105">
        <ele>2511.2</ele>
        <time>2022-12-29T14:27:04Z</time>
      </trkpt>
      <trkpt lat="44.99391" lon="6.15105">
        <ele>2511.2</ele>
        <time>2022-12-29T14:27:05Z</time>
      </trkpt>
      <trkpt lat="44.99391" lon="6.15105">
        <ele>2511.4</ele>
        <time>2022-12-29T14:27:06Z</time>
      </trkpt>
      <trkpt lat="44.99391" lon="6.15105">
        <ele>2511.4</ele>
        <time>2022-12-29T14:27:07Z</time>
      </trkpt>
      <trkpt lat="44.99391" lon="6.15105">
        <ele>2511.4</ele>
        <time>2022-12-29T14:27:08Z</time>
      </trkpt>
      <trkpt lat="44.99391" lon="6.15105">
        <ele>2511.4</ele>
        <time>2022-12-29T14:27:09Z</time>
      </trkpt>
      <trkpt lat="44.99392" lon="6.15105">
        <ele>2511.4</ele>
        <time>2022-12-29T14:27:10Z</time>
      </trkpt>
      <trkpt lat="44.99392" lon="6.15105">
        <ele>2511.4</ele>
        <time>2022-12-29T14:27:11Z</time>
      </trkpt>
      <trkpt lat="44.99392" lon="6.15104">
        <ele>2511.4</ele>
        <time>2022-12-29T14:27:12Z</time>
      </trkpt>
      <trkpt lat="44.99392" lon="6.15104">
        <ele>2511.4</ele>
        <time>2022-12-29T14:27:13Z</time>
      </trkpt>
      <trkpt lat="44.99392" lon="6.15104">
        <ele>2511.4</ele>
        <time>2022-12-29T14:27:14Z</time>
      </trkpt>
      <trkpt lat="44.99392" lon="6.15104">
        <ele>2511.4</ele>
        <time>2022-12-29T14:27:15Z</time>
      </trkpt>
      <trkpt lat="44.99392" lon="6.15104">
        <ele>2511.6</ele>
        <time>2022-12-29T14:27:16Z</time>
      </trkpt>
      <trkpt lat="44.99392" lon="6.15104">
        <ele>2511.6</ele>
        <time>2022-12-29T14:27:17Z</time>
      </trkpt>
      <trkpt lat="44.99393" lon="6.15104">
        <ele>2511.6</ele>
        <time>2022-12-29T14:27:18Z</time>
      </trkpt>
      <trkpt lat="44.99393" lon="6.15104">
        <ele>2511.6</ele>
        <time>2022-12-29T14:27:19Z</time>
      </trkpt>
      <trkpt lat="44.99393" lon="6.15104">
        <ele>2511.6</ele>
        <time>2022-12-29T14:27:20Z</time>
      </trkpt>
      <trkpt lat="44.99393" lon="6.15104">
        <ele>2511.6</ele>
        <time>2022-12-29T14:27:21Z</time>
      </trkpt>
      <trkpt lat="44.99393" lon="6.15104">
        <ele>2511.6</ele>
        <time>2022-12-29T14:27:22Z</time>
      </trkpt>
      <trkpt lat="44.99393" lon="6.15103">
        <ele>2511.6</ele>
        <time>2022-12-29T14:27:23Z</time>
      </trkpt>
      <trkpt lat="44.99393" lon="6.15103">
        <ele>2511.6</ele>
        <time>2022-12-29T14:27:24Z</time>
      </trkpt>
      <trkpt lat="44.99393" lon="6.15103">
        <ele>2511.6</ele>
        <time>2022-12-29T14:27:25Z</time>
      </trkpt>
      <trkpt lat="44.99394" lon="6.15103">
        <ele>2513.2</ele>
        <time>2022-12-29T14:27:26Z</time>
      </trkpt>
      <trkpt lat="44.99394" lon="6.15103">
        <ele>2513.2</ele>
        <time>2022-12-29T14:27:27Z</time>
      </trkpt>
      <trkpt lat="44.99394" lon="6.15103">
        <ele>2513.2</ele>
        <time>2022-12-29T14:27:28Z</time>
      </trkpt>
      <trkpt lat="44.99394" lon="6.15103">
        <ele>2513.2</ele>
        <time>2022-12-29T14:27:29Z</time>
      </trkpt>
      <trkpt lat="44.99394" lon="6.15103">
        <ele>2513.2</ele>
        <time>2022-12-29T14:27:30Z</time>
      </trkpt>
      <trkpt lat="44.99394" lon="6.15103">
        <ele>2513.2</ele>
        <time>2022-12-29T14:27:31Z</time>
      </trkpt>
      <trkpt lat="44.99394" lon="6.15103">
        <ele>2513.2</ele>
        <time>2022-12-29T14:27:32Z</time>
      </trkpt>
      <trkpt lat="44.99395" lon="6.15103">
        <ele>2513.2</ele>
        <time>2022-12-29T14:27:33Z</time>
      </trkpt>
      <trkpt lat="44.99395" lon="6.15102">
        <ele>2513.2</ele>
        <time>2022-12-29T14:27:34Z</time>
      </trkpt>
      <trkpt lat="44.99395" lon="6.15102">
        <ele>2513.2</ele>
        <time>2022-12-29T14:27:35Z</time>
      </trkpt>
      <trkpt lat="44.99395" lon="6.15102">
        <ele>2513.6</ele>
        <time>2022-12-29T14:27:36Z</time>
      </trkpt>
      <trkpt lat="44.99395" lon="6.15102">
        <ele>2513.6</ele>
        <time>2022-12-29T14:27:37Z</time>
      </trkpt>
      <trkpt lat="44.99395" lon="6.15102">
        <ele>2513.6</ele>
        <time>2022-12-29T14:27:38Z</time>
      </trkpt>
      <trkpt lat="44.99395" lon="6.15102">
        <ele>2513.6</ele>
        <time>2022-12-29T14:27:39Z</time>
      </trkpt>
      <trkpt lat="44.99395" lon="6.15102">
        <ele>2513.6</ele>
        <time>2022-12-29T14:27:40Z</time>
      </trkpt>
      <trkpt lat="44.99396" lon="6.15102">
        <ele>2513.6</ele>
        <time>2022-12-29T14:27:41Z</time>
      </trkpt>
      <trkpt lat="44.99396" lon="6.15102">
        <ele>2513.6</ele>
        <time>2022-12-29T14:27:42Z</time>
      </trkpt>
      <trkpt lat="44.99396" lon="6.15102">
        <ele>2513.6</ele>
        <time>2022-12-29T14:27:45Z</time>
      </trkpt>
      <trkpt lat="44.99396" lon="6.15101">
        <ele>2516.2</ele>
        <time>2022-12-29T14:27:46Z</time>
      </trkpt>
      <trkpt lat="44.99396" lon="6.15101">
        <ele>2516.2</ele>
        <time>2022-12-29T14:27:47Z</time>
      </trkpt>
      <trkpt lat="44.99396" lon="6.15101">
        <ele>2516.2</ele>
        <time>2022-12-29T14:27:48Z</time>
      </trkpt>
      <trkpt lat="44.99396" lon="6.15101">
        <ele>2516.2</ele>
        <time>2022-12-29T14:27:49Z</time>
      </trkpt>
      <trkpt lat="44.99396" lon="6.15101">
        <ele>2516.2</ele>
        <time>2022-12-29T14:27:50Z</time>
      </trkpt>
      <trkpt lat="44.99397" lon="6.15101">
        <ele>2516.2</ele>
        <time>2022-12-29T14:27:51Z</time>
      </trkpt>
      <trkpt lat="44.99397" lon="6.15101">
        <ele>2516.2</ele>
        <time>2022-12-29T14:27:52Z</time>
      </trkpt>
      <trkpt lat="44.99397" lon="6.15101">
        <ele>2516.2</ele>
        <time>2022-12-29T14:27:53Z</time>
      </trkpt>
      <trkpt lat="44.99397" lon="6.15101">
        <ele>2516.2</ele>
        <time>2022-12-29T14:27:54Z</time>
      </trkpt>
      <trkpt lat="44.99397" lon="6.15101">
        <ele>2516.2</ele>
        <time>2022-12-29T14:27:55Z</time>
      </trkpt>
      <trkpt lat="44.99397" lon="6.15101">
        <ele>2517.6</ele>
        <time>2022-12-29T14:27:56Z</time>
      </trkpt>
      <trkpt lat="44.99397" lon="6.15102">
        <ele>2517.6</ele>
        <time>2022-12-29T14:27:57Z</time>
      </trkpt>
      <trkpt lat="44.99397" lon="6.15102">
        <ele>2517.6</ele>
        <time>2022-12-29T14:27:58Z</time>
      </trkpt>
      <trkpt lat="44.99397" lon="6.15103">
        <ele>2517.6</ele>
        <time>2022-12-29T14:27:59Z</time>
      </trkpt>
      <trkpt lat="44.99397" lon="6.15104">
        <ele>2517.6</ele>
        <time>2022-12-29T14:28:00Z</time>
      </trkpt>
      <trkpt lat="44.99397" lon="6.15105">
        <ele>2517.6</ele>
        <time>2022-12-29T14:28:01Z</time>
      </trkpt>
      <trkpt lat="44.99397" lon="6.15106">
        <ele>2517.6</ele>
        <time>2022-12-29T14:28:02Z</time>
      </trkpt>
      <trkpt lat="44.99396" lon="6.15107">
        <ele>2517.6</ele>
        <time>2022-12-29T14:28:03Z</time>
      </trkpt>
      <trkpt lat="44.99396" lon="6.15108">
        <ele>2517.6</ele>
        <time>2022-12-29T14:28:04Z</time>
      </trkpt>
      <trkpt lat="44.99396" lon="6.15109">
        <ele>2517.6</ele>
        <time>2022-12-29T14:28:05Z</time>
      </trkpt>
      <trkpt lat="44.99396" lon="6.1511">
        <ele>2518.6</ele>
        <time>2022-12-29T14:28:06Z</time>
      </trkpt>
      <trkpt lat="44.99396" lon="6.1511">
        <ele>2518.6</ele>
        <time>2022-12-29T14:28:07Z</time>
      </trkpt>
      <trkpt lat="44.99396" lon="6.1511">
        <ele>2518.6</ele>
        <time>2022-12-29T14:28:08Z</time>
      </trkpt>
      <trkpt lat="44.99396" lon="6.15111">
        <ele>2518.6</ele>
        <time>2022-12-29T14:28:09Z</time>
      </trkpt>
      <trkpt lat="44.99396" lon="6.15111">
        <ele>2518.6</ele>
        <time>2022-12-29T14:28:10Z</time>
      </trkpt>
      <trkpt lat="44.99396" lon="6.15111">
        <ele>2518.6</ele>
        <time>2022-12-29T14:28:11Z</time>
      </trkpt>
      <trkpt lat="44.99396" lon="6.15111">
        <ele>2518.6</ele>
        <time>2022-12-29T14:28:14Z</time>
      </trkpt>
      <trkpt lat="44.99396" lon="6.15111">
        <ele>2518.6</ele>
        <time>2022-12-29T14:28:15Z</time>
      </trkpt>
      <trkpt lat="44.99396" lon="6.15111">
        <ele>2518.6</ele>
        <time>2022-12-29T14:28:16Z</time>
      </trkpt>
      <trkpt lat="44.99396" lon="6.15111">
        <ele>2518.6</ele>
        <time>2022-12-29T14:28:17Z</time>
      </trkpt>
      <trkpt lat="44.99396" lon="6.15112">
        <ele>2518.6</ele>
        <time>2022-12-29T14:28:18Z</time>
      </trkpt>
      <trkpt lat="44.99396" lon="6.15112">
        <ele>2518.6</ele>
        <time>2022-12-29T14:28:19Z</time>
      </trkpt>
      <trkpt lat="44.99396" lon="6.15112">
        <ele>2518.6</ele>
        <time>2022-12-29T14:28:20Z</time>
      </trkpt>
      <trkpt lat="44.99396" lon="6.15112">
        <ele>2518.6</ele>
        <time>2022-12-29T14:28:21Z</time>
      </trkpt>
      <trkpt lat="44.99396" lon="6.15112">
        <ele>2518.6</ele>
        <time>2022-12-29T14:28:22Z</time>
      </trkpt>
      <trkpt lat="44.99396" lon="6.15112">
        <ele>2518.6</ele>
        <time>2022-12-29T14:28:23Z</time>
      </trkpt>
      <trkpt lat="44.99396" lon="6.15112">
        <ele>2518.6</ele>
        <time>2022-12-29T14:28:24Z</time>
      </trkpt>
      <trkpt lat="44.99396" lon="6.15113">
        <ele>2518.6</ele>
        <time>2022-12-29T14:28:25Z</time>
      </trkpt>
      <trkpt lat="44.99396" lon="6.15113">
        <ele>2518.8</ele>
        <time>2022-12-29T14:28:26Z</time>
      </trkpt>
      <trkpt lat="44.99396" lon="6.15113">
        <ele>2518.8</ele>
        <time>2022-12-29T14:28:27Z</time>
      </trkpt>
      <trkpt lat="44.99396" lon="6.15113">
        <ele>2518.8</ele>
        <time>2022-12-29T14:28:28Z</time>
      </trkpt>
      <trkpt lat="44.99396" lon="6.15113">
        <ele>2518.8</ele>
        <time>2022-12-29T14:28:29Z</time>
      </trkpt>
      <trkpt lat="44.99396" lon="6.15113">
        <ele>2518.8</ele>
        <time>2022-12-29T14:28:30Z</time>
      </trkpt>
      <trkpt lat="44.99396" lon="6.15113">
        <ele>2518.8</ele>
        <time>2022-12-29T14:28:31Z</time>
      </trkpt>
      <trkpt lat="44.99396" lon="6.15113">
        <ele>2518.8</ele>
        <time>2022-12-29T14:28:32Z</time>
      </trkpt>
      <trkpt lat="44.99396" lon="6.15114">
        <ele>2518.8</ele>
        <time>2022-12-29T14:28:33Z</time>
      </trkpt>
      <trkpt lat="44.99396" lon="6.15114">
        <ele>2518.8</ele>
        <time>2022-12-29T14:28:34Z</time>
      </trkpt>
      <trkpt lat="44.99396" lon="6.15114">
        <ele>2518.8</ele>
        <time>2022-12-29T14:28:35Z</time>
      </trkpt>
      <trkpt lat="44.99396" lon="6.15114">
        <ele>2518.6</ele>
        <time>2022-12-29T14:28:36Z</time>
      </trkpt>
      <trkpt lat="44.99396" lon="6.15114">
        <ele>2518.6</ele>
        <time>2022-12-29T14:28:37Z</time>
      </trkpt>
      <trkpt lat="44.99396" lon="6.15114">
        <ele>2518.6</ele>
        <time>2022-12-29T14:28:38Z</time>
      </trkpt>
      <trkpt lat="44.99396" lon="6.15114">
        <ele>2518.6</ele>
        <time>2022-12-29T14:28:39Z</time>
      </trkpt>
      <trkpt lat="44.99396" lon="6.15115">
        <ele>2518.6</ele>
        <time>2022-12-29T14:28:40Z</time>
      </trkpt>
      <trkpt lat="44.99396" lon="6.15115">
        <ele>2518.6</ele>
        <time>2022-12-29T14:28:41Z</time>
      </trkpt>
      <trkpt lat="44.99396" lon="6.15115">
        <ele>2518.6</ele>
        <time>2022-12-29T14:28:42Z</time>
      </trkpt>
      <trkpt lat="44.99396" lon="6.15115">
        <ele>2518.6</ele>
        <time>2022-12-29T14:28:43Z</time>
      </trkpt>
      <trkpt lat="44.99396" lon="6.15115">
        <ele>2518.6</ele>
        <time>2022-12-29T14:28:44Z</time>
      </trkpt>
      <trkpt lat="44.99396" lon="6.15115">
        <ele>2518.6</ele>
        <time>2022-12-29T14:28:45Z</time>
      </trkpt>
      <trkpt lat="44.99396" lon="6.15115">
        <ele>2518.6</ele>
        <time>2022-12-29T14:28:46Z</time>
      </trkpt>
      <trkpt lat="44.99396" lon="6.15115">
        <ele>2518.6</ele>
        <time>2022-12-29T14:28:47Z</time>
      </trkpt>
      <trkpt lat="44.99396" lon="6.15116">
        <ele>2518.6</ele>
        <time>2022-12-29T14:28:48Z</time>
      </trkpt>
      <trkpt lat="44.99396" lon="6.15116">
        <ele>2518.6</ele>
        <time>2022-12-29T14:28:49Z</time>
      </trkpt>
      <trkpt lat="44.99396" lon="6.15116">
        <ele>2518.6</ele>
        <time>2022-12-29T14:28:50Z</time>
      </trkpt>
      <trkpt lat="44.99396" lon="6.15116">
        <ele>2518.6</ele>
        <time>2022-12-29T14:28:51Z</time>
      </trkpt>
      <trkpt lat="44.99396" lon="6.15116">
        <ele>2518.6</ele>
        <time>2022-12-29T14:28:52Z</time>
      </trkpt>
      <trkpt lat="44.99396" lon="6.15116">
        <ele>2518.6</ele>
        <time>2022-12-29T14:28:53Z</time>
      </trkpt>
      <trkpt lat="44.99396" lon="6.15116">
        <ele>2518.6</ele>
        <time>2022-12-29T14:28:54Z</time>
      </trkpt>
      <trkpt lat="44.99396" lon="6.15117">
        <ele>2518.6</ele>
        <time>2022-12-29T14:28:55Z</time>
      </trkpt>
      <trkpt lat="44.99396" lon="6.15117">
        <ele>2519.2</ele>
        <time>2022-12-29T14:28:56Z</time>
      </trkpt>
      <trkpt lat="44.99396" lon="6.15117">
        <ele>2519.2</ele>
        <time>2022-12-29T14:28:57Z</time>
      </trkpt>
      <trkpt lat="44.99396" lon="6.15117">
        <ele>2519.2</ele>
        <time>2022-12-29T14:28:58Z</time>
      </trkpt>
      <trkpt lat="44.99396" lon="6.15117">
        <ele>2519.2</ele>
        <time>2022-12-29T14:29:01Z</time>
      </trkpt>
      <trkpt lat="44.99396" lon="6.15117">
        <ele>2519.2</ele>
        <time>2022-12-29T14:29:02Z</time>
      </trkpt>
      <trkpt lat="44.99396" lon="6.15117">
        <ele>2519.2</ele>
        <time>2022-12-29T14:29:03Z</time>
      </trkpt>
      <trkpt lat="44.99396" lon="6.15117">
        <ele>2519.2</ele>
        <time>2022-12-29T14:29:04Z</time>
      </trkpt>
      <trkpt lat="44.99396" lon="6.15118">
        <ele>2519.4</ele>
        <time>2022-12-29T14:29:06Z</time>
      </trkpt>
      <trkpt lat="44.99396" lon="6.15118">
        <ele>2519.4</ele>
        <time>2022-12-29T14:29:07Z</time>
      </trkpt>
      <trkpt lat="44.99396" lon="6.15118">
        <ele>2519.4</ele>
        <time>2022-12-29T14:29:10Z</time>
      </trkpt>
      <trkpt lat="44.99396" lon="6.15118">
        <ele>2519.4</ele>
        <time>2022-12-29T14:29:11Z</time>
      </trkpt>
      <trkpt lat="44.99396" lon="6.15118">
        <ele>2519.4</ele>
        <time>2022-12-29T14:29:12Z</time>
      </trkpt>
      <trkpt lat="44.99396" lon="6.15118">
        <ele>2519.4</ele>
        <time>2022-12-29T14:29:13Z</time>
      </trkpt>
      <trkpt lat="44.99396" lon="6.15118">
        <ele>2519.4</ele>
        <time>2022-12-29T14:29:14Z</time>
      </trkpt>
      <trkpt lat="44.99396" lon="6.15119">
        <ele>2519.4</ele>
        <time>2022-12-29T14:29:15Z</time>
      </trkpt>
      <trkpt lat="44.99396" lon="6.15119">
        <ele>2520.2</ele>
        <time>2022-12-29T14:29:16Z</time>
      </trkpt>
      <trkpt lat="44.99396" lon="6.15119">
        <ele>2520.2</ele>
        <time>2022-12-29T14:29:17Z</time>
      </trkpt>
      <trkpt lat="44.99396" lon="6.15119">
        <ele>2520.2</ele>
        <time>2022-12-29T14:29:18Z</time>
      </trkpt>
      <trkpt lat="44.99396" lon="6.15119">
        <ele>2520.2</ele>
        <time>2022-12-29T14:29:19Z</time>
      </trkpt>
      <trkpt lat="44.99396" lon="6.15119">
        <ele>2520.2</ele>
        <time>2022-12-29T14:29:20Z</time>
      </trkpt>
      <trkpt lat="44.99396" lon="6.15119">
        <ele>2520.2</ele>
        <time>2022-12-29T14:29:21Z</time>
      </trkpt>
      <trkpt lat="44.99396" lon="6.1512">
        <ele>2520.2</ele>
        <time>2022-12-29T14:29:22Z</time>
      </trkpt>
      <trkpt lat="44.99396" lon="6.1512">
        <ele>2520.2</ele>
        <time>2022-12-29T14:29:23Z</time>
      </trkpt>
      <trkpt lat="44.99396" lon="6.1512">
        <ele>2520.2</ele>
        <time>2022-12-29T14:29:24Z</time>
      </trkpt>
      <trkpt lat="44.99396" lon="6.1512">
        <ele>2520.2</ele>
        <time>2022-12-29T14:29:25Z</time>
      </trkpt>
      <trkpt lat="44.99396" lon="6.1512">
        <ele>2521</ele>
        <time>2022-12-29T14:29:26Z</time>
      </trkpt>
      <trkpt lat="44.99396" lon="6.15121">
        <ele>2521</ele>
        <time>2022-12-29T14:29:27Z</time>
      </trkpt>
      <trkpt lat="44.99396" lon="6.15121">
        <ele>2521</ele>
        <time>2022-12-29T14:29:28Z</time>
      </trkpt>
      <trkpt lat="44.99396" lon="6.15121">
        <ele>2521</ele>
        <time>2022-12-29T14:29:29Z</time>
      </trkpt>
      <trkpt lat="44.99396" lon="6.15122">
        <ele>2521</ele>
        <time>2022-12-29T14:29:30Z</time>
      </trkpt>
      <trkpt lat="44.99396" lon="6.15122">
        <ele>2521</ele>
        <time>2022-12-29T14:29:31Z</time>
      </trkpt>
      <trkpt lat="44.99395" lon="6.15123">
        <ele>2521</ele>
        <time>2022-12-29T14:29:32Z</time>
      </trkpt>
      <trkpt lat="44.99395" lon="6.15123">
        <ele>2521</ele>
        <time>2022-12-29T14:29:33Z</time>
      </trkpt>
      <trkpt lat="44.99395" lon="6.15124">
        <ele>2521</ele>
        <time>2022-12-29T14:29:34Z</time>
      </trkpt>
      <trkpt lat="44.99395" lon="6.15124">
        <ele>2521</ele>
        <time>2022-12-29T14:29:35Z</time>
      </trkpt>
      <trkpt lat="44.99395" lon="6.15125">
        <ele>2520.8</ele>
        <time>2022-12-29T14:29:36Z</time>
      </trkpt>
      <trkpt lat="44.99395" lon="6.15125">
        <ele>2520.8</ele>
        <time>2022-12-29T14:29:37Z</time>
      </trkpt>
      <trkpt lat="44.99395" lon="6.15126">
        <ele>2520.8</ele>
        <time>2022-12-29T14:29:38Z</time>
      </trkpt>
      <trkpt lat="44.99395" lon="6.15126">
        <ele>2520.8</ele>
        <time>2022-12-29T14:29:39Z</time>
      </trkpt>
      <trkpt lat="44.99394" lon="6.15127">
        <ele>2520.8</ele>
        <time>2022-12-29T14:29:42Z</time>
      </trkpt>
      <trkpt lat="44.99394" lon="6.15127">
        <ele>2520.8</ele>
        <time>2022-12-29T14:29:43Z</time>
      </trkpt>
      <trkpt lat="44.99394" lon="6.15128">
        <ele>2520.8</ele>
        <time>2022-12-29T14:29:44Z</time>
      </trkpt>
      <trkpt lat="44.99394" lon="6.15128">
        <ele>2520.8</ele>
        <time>2022-12-29T14:29:45Z</time>
      </trkpt>
      <trkpt lat="44.99394" lon="6.15129">
        <ele>2522.4</ele>
        <time>2022-12-29T14:29:46Z</time>
      </trkpt>
      <trkpt lat="44.99393" lon="6.15133">
        <ele>2522.4</ele>
        <time>2022-12-29T14:29:47Z</time>
      </trkpt>
      <trkpt lat="44.99393" lon="6.15134">
        <ele>2522.4</ele>
        <time>2022-12-29T14:29:48Z</time>
      </trkpt>
      <trkpt lat="44.99393" lon="6.15134">
        <ele>2522.4</ele>
        <time>2022-12-29T14:29:49Z</time>
      </trkpt>
      <trkpt lat="44.99392" lon="6.15135">
        <ele>2522.4</ele>
        <time>2022-12-29T14:29:50Z</time>
      </trkpt>
      <trkpt lat="44.99392" lon="6.15136">
        <ele>2522.4</ele>
        <time>2022-12-29T14:29:51Z</time>
      </trkpt>
      <trkpt lat="44.99392" lon="6.15136">
        <ele>2522.4</ele>
        <time>2022-12-29T14:29:52Z</time>
      </trkpt>
      <trkpt lat="44.99392" lon="6.15137">
        <ele>2522.4</ele>
        <time>2022-12-29T14:29:53Z</time>
      </trkpt>
      <trkpt lat="44.99392" lon="6.15138">
        <ele>2522.4</ele>
        <time>2022-12-29T14:29:54Z</time>
      </trkpt>
      <trkpt lat="44.99392" lon="6.15139">
        <ele>2522.4</ele>
        <time>2022-12-29T14:29:55Z</time>
      </trkpt>
      <trkpt lat="44.99392" lon="6.15139">
        <ele>2524</ele>
        <time>2022-12-29T14:29:56Z</time>
      </trkpt>
      <trkpt lat="44.99392" lon="6.15139">
        <ele>2524</ele>
        <time>2022-12-29T14:29:57Z</time>
      </trkpt>
      <trkpt lat="44.99392" lon="6.15139">
        <ele>2524</ele>
        <time>2022-12-29T14:29:58Z</time>
      </trkpt>
      <trkpt lat="44.99392" lon="6.15139">
        <ele>2524</ele>
        <time>2022-12-29T14:29:59Z</time>
      </trkpt>
      <trkpt lat="44.99392" lon="6.15139">
        <ele>2524</ele>
        <time>2022-12-29T14:30:00Z</time>
      </trkpt>
      <trkpt lat="44.99392" lon="6.15139">
        <ele>2524</ele>
        <time>2022-12-29T14:30:01Z</time>
      </trkpt>
      <trkpt lat="44.99392" lon="6.15139">
        <ele>2524</ele>
        <time>2022-12-29T14:30:02Z</time>
      </trkpt>
      <trkpt lat="44.99392" lon="6.15139">
        <ele>2524</ele>
        <time>2022-12-29T14:30:03Z</time>
      </trkpt>
      <trkpt lat="44.99392" lon="6.15139">
        <ele>2524</ele>
        <time>2022-12-29T14:30:04Z</time>
      </trkpt>
      <trkpt lat="44.99392" lon="6.15139">
        <ele>2524</ele>
        <time>2022-12-29T14:30:05Z</time>
      </trkpt>
      <trkpt lat="44.99392" lon="6.15139">
        <ele>2524.6</ele>
        <time>2022-12-29T14:30:06Z</time>
      </trkpt>
      <trkpt lat="44.99392" lon="6.15139">
        <ele>2524.6</ele>
        <time>2022-12-29T14:30:07Z</time>
      </trkpt>
      <trkpt lat="44.99392" lon="6.15139">
        <ele>2524.6</ele>
        <time>2022-12-29T14:30:08Z</time>
      </trkpt>
      <trkpt lat="44.99392" lon="6.15139">
        <ele>2524.6</ele>
        <time>2022-12-29T14:30:09Z</time>
      </trkpt>
      <trkpt lat="44.99392" lon="6.15139">
        <ele>2524.6</ele>
        <time>2022-12-29T14:30:10Z</time>
      </trkpt>
      <trkpt lat="44.99392" lon="6.15139">
        <ele>2524.6</ele>
        <time>2022-12-29T14:30:11Z</time>
      </trkpt>
      <trkpt lat="44.99392" lon="6.15139">
        <ele>2524.6</ele>
        <time>2022-12-29T14:30:12Z</time>
      </trkpt>
      <trkpt lat="44.99392" lon="6.15139">
        <ele>2524.6</ele>
        <time>2022-12-29T14:30:13Z</time>
      </trkpt>
      <trkpt lat="44.99392" lon="6.15139">
        <ele>2524.6</ele>
        <time>2022-12-29T14:30:14Z</time>
      </trkpt>
      <trkpt lat="44.99392" lon="6.15139">
        <ele>2524.6</ele>
        <time>2022-12-29T14:30:15Z</time>
      </trkpt>
      <trkpt lat="44.99392" lon="6.15139">
        <ele>2524.6</ele>
        <time>2022-12-29T14:30:16Z</time>
      </trkpt>
      <trkpt lat="44.99392" lon="6.1514">
        <ele>2524.6</ele>
        <time>2022-12-29T14:30:17Z</time>
      </trkpt>
      <trkpt lat="44.99392" lon="6.1514">
        <ele>2524.6</ele>
        <time>2022-12-29T14:30:18Z</time>
      </trkpt>
      <trkpt lat="44.99392" lon="6.1514">
        <ele>2524.6</ele>
        <time>2022-12-29T14:30:19Z</time>
      </trkpt>
      <trkpt lat="44.99392" lon="6.1514">
        <ele>2524.6</ele>
        <time>2022-12-29T14:30:20Z</time>
      </trkpt>
      <trkpt lat="44.99392" lon="6.1514">
        <ele>2524.6</ele>
        <time>2022-12-29T14:30:21Z</time>
      </trkpt>
      <trkpt lat="44.99392" lon="6.1514">
        <ele>2524.6</ele>
        <time>2022-12-29T14:30:22Z</time>
      </trkpt>
      <trkpt lat="44.99392" lon="6.1514">
        <ele>2524.6</ele>
        <time>2022-12-29T14:30:23Z</time>
      </trkpt>
      <trkpt lat="44.99392" lon="6.1514">
        <ele>2524.6</ele>
        <time>2022-12-29T14:30:24Z</time>
      </trkpt>
      <trkpt lat="44.99392" lon="6.1514">
        <ele>2524.6</ele>
        <time>2022-12-29T14:30:25Z</time>
      </trkpt>
      <trkpt lat="44.99392" lon="6.1514">
        <ele>2524.8</ele>
        <time>2022-12-29T14:30:26Z</time>
      </trkpt>
      <trkpt lat="44.99392" lon="6.1514">
        <ele>2524.8</ele>
        <time>2022-12-29T14:30:27Z</time>
      </trkpt>
      <trkpt lat="44.99392" lon="6.1514">
        <ele>2524.8</ele>
        <time>2022-12-29T14:30:28Z</time>
      </trkpt>
      <trkpt lat="44.99392" lon="6.1514">
        <ele>2524.8</ele>
        <time>2022-12-29T14:30:29Z</time>
      </trkpt>
      <trkpt lat="44.99392" lon="6.1514">
        <ele>2524.8</ele>
        <time>2022-12-29T14:30:30Z</time>
      </trkpt>
      <trkpt lat="44.99392" lon="6.1514">
        <ele>2524.8</ele>
        <time>2022-12-29T14:30:31Z</time>
      </trkpt>
      <trkpt lat="44.99392" lon="6.1514">
        <ele>2524.8</ele>
        <time>2022-12-29T14:30:32Z</time>
      </trkpt>
      <trkpt lat="44.99392" lon="6.1514">
        <ele>2524.8</ele>
        <time>2022-12-29T14:30:33Z</time>
      </trkpt>
      <trkpt lat="44.99392" lon="6.1514">
        <ele>2524.8</ele>
        <time>2022-12-29T14:30:34Z</time>
      </trkpt>
      <trkpt lat="44.99392" lon="6.1514">
        <ele>2524.8</ele>
        <time>2022-12-29T14:30:35Z</time>
      </trkpt>
      <trkpt lat="44.99392" lon="6.1514">
        <ele>2524.8</ele>
        <time>2022-12-29T14:30:36Z</time>
      </trkpt>
      <trkpt lat="44.99392" lon="6.1514">
        <ele>2524.8</ele>
        <time>2022-12-29T14:30:37Z</time>
      </trkpt>
      <trkpt lat="44.99392" lon="6.1514">
        <ele>2524.8</ele>
        <time>2022-12-29T14:30:38Z</time>
      </trkpt>
      <trkpt lat="44.99392" lon="6.1514">
        <ele>2524.8</ele>
        <time>2022-12-29T14:30:39Z</time>
      </trkpt>
      <trkpt lat="44.99392" lon="6.1514">
        <ele>2524.8</ele>
        <time>2022-12-29T14:30:40Z</time>
      </trkpt>
      <trkpt lat="44.99392" lon="6.1514">
        <ele>2524.8</ele>
        <time>2022-12-29T14:30:41Z</time>
      </trkpt>
      <trkpt lat="44.99392" lon="6.1514">
        <ele>2524.8</ele>
        <time>2022-12-29T14:30:42Z</time>
      </trkpt>
      <trkpt lat="44.99392" lon="6.1514">
        <ele>2524.8</ele>
        <time>2022-12-29T14:30:46Z</time>
      </trkpt>
      <trkpt lat="44.99392" lon="6.1514">
        <ele>2524.8</ele>
        <time>2022-12-29T14:30:47Z</time>
      </trkpt>
      <trkpt lat="44.99392" lon="6.1514">
        <ele>2524.8</ele>
        <time>2022-12-29T14:30:48Z</time>
      </trkpt>
      <trkpt lat="44.99392" lon="6.1514">
        <ele>2524.8</ele>
        <time>2022-12-29T14:30:49Z</time>
      </trkpt>
      <trkpt lat="44.99392" lon="6.1514">
        <ele>2524.8</ele>
        <time>2022-12-29T14:30:50Z</time>
      </trkpt>
      <trkpt lat="44.99392" lon="6.1514">
        <ele>2524.8</ele>
        <time>2022-12-29T14:30:51Z</time>
      </trkpt>
      <trkpt lat="44.99392" lon="6.1514">
        <ele>2524.8</ele>
        <time>2022-12-29T14:30:52Z</time>
      </trkpt>
      <trkpt lat="44.99392" lon="6.1514">
        <ele>2524.8</ele>
        <time>2022-12-29T14:30:53Z</time>
      </trkpt>
      <trkpt lat="44.99392" lon="6.1514">
        <ele>2524.8</ele>
        <time>2022-12-29T14:30:54Z</time>
      </trkpt>
      <trkpt lat="44.99392" lon="6.1514">
        <ele>2524.8</ele>
        <time>2022-12-29T14:30:55Z</time>
      </trkpt>
      <trkpt lat="44.99392" lon="6.1514">
        <ele>2524.2</ele>
        <time>2022-12-29T14:30:56Z</time>
      </trkpt>
      <trkpt lat="44.99392" lon="6.1514">
        <ele>2524.2</ele>
        <time>2022-12-29T14:30:57Z</time>
      </trkpt>
      <trkpt lat="44.99392" lon="6.1514">
        <ele>2524.2</ele>
        <time>2022-12-29T14:30:58Z</time>
      </trkpt>
      <trkpt lat="44.99392" lon="6.1514">
        <ele>2524.2</ele>
        <time>2022-12-29T14:30:59Z</time>
      </trkpt>
      <trkpt lat="44.99392" lon="6.1514">
        <ele>2524.2</ele>
        <time>2022-12-29T14:31:00Z</time>
      </trkpt>
      <trkpt lat="44.99392" lon="6.1514">
        <ele>2524.2</ele>
        <time>2022-12-29T14:31:01Z</time>
      </trkpt>
      <trkpt lat="44.99392" lon="6.1514">
        <ele>2524.2</ele>
        <time>2022-12-29T14:31:02Z</time>
      </trkpt>
      <trkpt lat="44.99392" lon="6.1514">
        <ele>2524.2</ele>
        <time>2022-12-29T14:31:03Z</time>
      </trkpt>
      <trkpt lat="44.99392" lon="6.1514">
        <ele>2524.2</ele>
        <time>2022-12-29T14:31:04Z</time>
      </trkpt>
      <trkpt lat="44.99392" lon="6.1514">
        <ele>2524.2</ele>
        <time>2022-12-29T14:31:05Z</time>
      </trkpt>
      <trkpt lat="44.99392" lon="6.1514">
        <ele>2523.8</ele>
        <time>2022-12-29T14:31:06Z</time>
      </trkpt>
      <trkpt lat="44.99392" lon="6.1514">
        <ele>2523.8</ele>
        <time>2022-12-29T14:31:10Z</time>
      </trkpt>
      <trkpt lat="44.99392" lon="6.1514">
        <ele>2523.8</ele>
        <time>2022-12-29T14:31:11Z</time>
      </trkpt>
      <trkpt lat="44.99392" lon="6.1514">
        <ele>2523.8</ele>
        <time>2022-12-29T14:31:12Z</time>
      </trkpt>
      <trkpt lat="44.99392" lon="6.1514">
        <ele>2523.8</ele>
        <time>2022-12-29T14:31:13Z</time>
      </trkpt>
      <trkpt lat="44.99392" lon="6.1514">
        <ele>2523.8</ele>
        <time>2022-12-29T14:31:14Z</time>
      </trkpt>
      <trkpt lat="44.99392" lon="6.1514">
        <ele>2523.8</ele>
        <time>2022-12-29T14:31:15Z</time>
      </trkpt>
      <trkpt lat="44.99392" lon="6.1514">
        <ele>2524.2</ele>
        <time>2022-12-29T14:31:16Z</time>
      </trkpt>
      <trkpt lat="44.99392" lon="6.1514">
        <ele>2524.2</ele>
        <time>2022-12-29T14:31:17Z</time>
      </trkpt>
      <trkpt lat="44.99392" lon="6.1514">
        <ele>2524.2</ele>
        <time>2022-12-29T14:31:18Z</time>
      </trkpt>
      <trkpt lat="44.99392" lon="6.1514">
        <ele>2524.2</ele>
        <time>2022-12-29T14:31:21Z</time>
      </trkpt>
      <trkpt lat="44.99392" lon="6.1514">
        <ele>2524.2</ele>
        <time>2022-12-29T14:31:22Z</time>
      </trkpt>
      <trkpt lat="44.99392" lon="6.1514">
        <ele>2524.2</ele>
        <time>2022-12-29T14:31:23Z</time>
      </trkpt>
      <trkpt lat="44.99392" lon="6.1514">
        <ele>2524.2</ele>
        <time>2022-12-29T14:31:24Z</time>
      </trkpt>
      <trkpt lat="44.99392" lon="6.1514">
        <ele>2524.2</ele>
        <time>2022-12-29T14:31:25Z</time>
      </trkpt>
      <trkpt lat="44.99392" lon="6.1514">
        <ele>2523.4</ele>
        <time>2022-12-29T14:31:26Z</time>
      </trkpt>
      <trkpt lat="44.99392" lon="6.1514">
        <ele>2523.4</ele>
        <time>2022-12-29T14:31:27Z</time>
      </trkpt>
      <trkpt lat="44.99392" lon="6.1514">
        <ele>2523.4</ele>
        <time>2022-12-29T14:31:28Z</time>
      </trkpt>
      <trkpt lat="44.99392" lon="6.1514">
        <ele>2523.4</ele>
        <time>2022-12-29T14:31:29Z</time>
      </trkpt>
      <trkpt lat="44.99392" lon="6.1514">
        <ele>2523.4</ele>
        <time>2022-12-29T14:31:30Z</time>
      </trkpt>
      <trkpt lat="44.99392" lon="6.1514">
        <ele>2523.4</ele>
        <time>2022-12-29T14:31:31Z</time>
      </trkpt>
      <trkpt lat="44.99392" lon="6.1514">
        <ele>2523.4</ele>
        <time>2022-12-29T14:31:32Z</time>
      </trkpt>
      <trkpt lat="44.99392" lon="6.1514">
        <ele>2523.4</ele>
        <time>2022-12-29T14:31:33Z</time>
      </trkpt>
      <trkpt lat="44.99392" lon="6.15141">
        <ele>2523.4</ele>
        <time>2022-12-29T14:31:34Z</time>
      </trkpt>
      <trkpt lat="44.99392" lon="6.15141">
        <ele>2523.4</ele>
        <time>2022-12-29T14:31:35Z</time>
      </trkpt>
      <trkpt lat="44.99392" lon="6.15141">
        <ele>2523.8</ele>
        <time>2022-12-29T14:31:36Z</time>
      </trkpt>
      <trkpt lat="44.99392" lon="6.15141">
        <ele>2523.8</ele>
        <time>2022-12-29T14:31:37Z</time>
      </trkpt>
      <trkpt lat="44.99392" lon="6.15141">
        <ele>2523.8</ele>
        <time>2022-12-29T14:31:38Z</time>
      </trkpt>
      <trkpt lat="44.99392" lon="6.15141">
        <ele>2523.8</ele>
        <time>2022-12-29T14:31:39Z</time>
      </trkpt>
      <trkpt lat="44.99392" lon="6.15141">
        <ele>2523.8</ele>
        <time>2022-12-29T14:31:40Z</time>
      </trkpt>
      <trkpt lat="44.99392" lon="6.15141">
        <ele>2523.8</ele>
        <time>2022-12-29T14:31:41Z</time>
      </trkpt>
      <trkpt lat="44.99392" lon="6.15141">
        <ele>2523.8</ele>
        <time>2022-12-29T14:31:42Z</time>
      </trkpt>
      <trkpt lat="44.99392" lon="6.15141">
        <ele>2523.8</ele>
        <time>2022-12-29T14:31:43Z</time>
      </trkpt>
      <trkpt lat="44.99392" lon="6.15141">
        <ele>2523.8</ele>
        <time>2022-12-29T14:31:44Z</time>
      </trkpt>
      <trkpt lat="44.99392" lon="6.15141">
        <ele>2523.8</ele>
        <time>2022-12-29T14:31:45Z</time>
      </trkpt>
      <trkpt lat="44.99392" lon="6.15141">
        <ele>2523.8</ele>
        <time>2022-12-29T14:31:46Z</time>
      </trkpt>
      <trkpt lat="44.99392" lon="6.15141">
        <ele>2523.8</ele>
        <time>2022-12-29T14:31:47Z</time>
      </trkpt>
      <trkpt lat="44.99392" lon="6.15141">
        <ele>2523.8</ele>
        <time>2022-12-29T14:31:48Z</time>
      </trkpt>
      <trkpt lat="44.99392" lon="6.15141">
        <ele>2523.8</ele>
        <time>2022-12-29T14:31:49Z</time>
      </trkpt>
      <trkpt lat="44.99392" lon="6.15141">
        <ele>2523.8</ele>
        <time>2022-12-29T14:31:50Z</time>
      </trkpt>
      <trkpt lat="44.99392" lon="6.15141">
        <ele>2523.8</ele>
        <time>2022-12-29T14:31:51Z</time>
      </trkpt>
      <trkpt lat="44.99392" lon="6.15141">
        <ele>2523.8</ele>
        <time>2022-12-29T14:31:52Z</time>
      </trkpt>
      <trkpt lat="44.99392" lon="6.15141">
        <ele>2523.8</ele>
        <time>2022-12-29T14:31:53Z</time>
      </trkpt>
      <trkpt lat="44.99392" lon="6.15141">
        <ele>2523.8</ele>
        <time>2022-12-29T14:31:54Z</time>
      </trkpt>
      <trkpt lat="44.99392" lon="6.15141">
        <ele>2523.8</ele>
        <time>2022-12-29T14:31:55Z</time>
      </trkpt>
      <trkpt lat="44.99392" lon="6.15141">
        <ele>2522.8</ele>
        <time>2022-12-29T14:31:56Z</time>
      </trkpt>
      <trkpt lat="44.99392" lon="6.15141">
        <ele>2522.8</ele>
        <time>2022-12-29T14:31:57Z</time>
      </trkpt>
      <trkpt lat="44.99392" lon="6.15141">
        <ele>2522.8</ele>
        <time>2022-12-29T14:31:58Z</time>
      </trkpt>
      <trkpt lat="44.99392" lon="6.15141">
        <ele>2522.8</ele>
        <time>2022-12-29T14:31:59Z</time>
      </trkpt>
      <trkpt lat="44.99392" lon="6.15141">
        <ele>2522.8</ele>
        <time>2022-12-29T14:32:00Z</time>
      </trkpt>
      <trkpt lat="44.99392" lon="6.15141">
        <ele>2522.8</ele>
        <time>2022-12-29T14:32:01Z</time>
      </trkpt>
      <trkpt lat="44.99392" lon="6.15141">
        <ele>2522.8</ele>
        <time>2022-12-29T14:32:02Z</time>
      </trkpt>
      <trkpt lat="44.99392" lon="6.15141">
        <ele>2522.8</ele>
        <time>2022-12-29T14:32:03Z</time>
      </trkpt>
      <trkpt lat="44.99392" lon="6.15141">
        <ele>2522.8</ele>
        <time>2022-12-29T14:32:04Z</time>
      </trkpt>
      <trkpt lat="44.99392" lon="6.15141">
        <ele>2522.8</ele>
        <time>2022-12-29T14:32:05Z</time>
      </trkpt>
      <trkpt lat="44.99392" lon="6.15141">
        <ele>2523.8</ele>
        <time>2022-12-29T14:32:06Z</time>
      </trkpt>
      <trkpt lat="44.99392" lon="6.15141">
        <ele>2523.8</ele>
        <time>2022-12-29T14:32:07Z</time>
      </trkpt>
      <trkpt lat="44.99392" lon="6.15141">
        <ele>2523.8</ele>
        <time>2022-12-29T14:32:08Z</time>
      </trkpt>
      <trkpt lat="44.99392" lon="6.15141">
        <ele>2523.8</ele>
        <time>2022-12-29T14:32:09Z</time>
      </trkpt>
      <trkpt lat="44.99392" lon="6.15141">
        <ele>2523.8</ele>
        <time>2022-12-29T14:32:10Z</time>
      </trkpt>
      <trkpt lat="44.99392" lon="6.15141">
        <ele>2523.8</ele>
        <time>2022-12-29T14:32:11Z</time>
      </trkpt>
      <trkpt lat="44.99392" lon="6.15141">
        <ele>2523.8</ele>
        <time>2022-12-29T14:32:12Z</time>
      </trkpt>
      <trkpt lat="44.99392" lon="6.15141">
        <ele>2523.8</ele>
        <time>2022-12-29T14:32:13Z</time>
      </trkpt>
      <trkpt lat="44.99392" lon="6.15141">
        <ele>2523.8</ele>
        <time>2022-12-29T14:32:14Z</time>
      </trkpt>
      <trkpt lat="44.99392" lon="6.15141">
        <ele>2523.8</ele>
        <time>2022-12-29T14:32:15Z</time>
      </trkpt>
      <trkpt lat="44.99392" lon="6.15141">
        <ele>2523.4</ele>
        <time>2022-12-29T14:32:16Z</time>
      </trkpt>
      <trkpt lat="44.99392" lon="6.15141">
        <ele>2523.4</ele>
        <time>2022-12-29T14:32:17Z</time>
      </trkpt>
      <trkpt lat="44.99392" lon="6.15141">
        <ele>2523.4</ele>
        <time>2022-12-29T14:32:18Z</time>
      </trkpt>
      <trkpt lat="44.99392" lon="6.15141">
        <ele>2523.4</ele>
        <time>2022-12-29T14:32:19Z</time>
      </trkpt>
      <trkpt lat="44.99392" lon="6.15141">
        <ele>2523.4</ele>
        <time>2022-12-29T14:32:20Z</time>
      </trkpt>
      <trkpt lat="44.99392" lon="6.15141">
        <ele>2523.4</ele>
        <time>2022-12-29T14:32:21Z</time>
      </trkpt>
      <trkpt lat="44.99392" lon="6.15141">
        <ele>2523.4</ele>
        <time>2022-12-29T14:32:22Z</time>
      </trkpt>
      <trkpt lat="44.99392" lon="6.15141">
        <ele>2523.4</ele>
        <time>2022-12-29T14:32:23Z</time>
      </trkpt>
      <trkpt lat="44.99392" lon="6.15141">
        <ele>2523.4</ele>
        <time>2022-12-29T14:32:24Z</time>
      </trkpt>
      <trkpt lat="44.99392" lon="6.15141">
        <ele>2523.4</ele>
        <time>2022-12-29T14:32:25Z</time>
      </trkpt>
      <trkpt lat="44.99392" lon="6.15141">
        <ele>2522</ele>
        <time>2022-12-29T14:32:26Z</time>
      </trkpt>
      <trkpt lat="44.99392" lon="6.15141">
        <ele>2522</ele>
        <time>2022-12-29T14:32:27Z</time>
      </trkpt>
      <trkpt lat="44.99392" lon="6.15141">
        <ele>2522</ele>
        <time>2022-12-29T14:32:28Z</time>
      </trkpt>
      <trkpt lat="44.99392" lon="6.15141">
        <ele>2522</ele>
        <time>2022-12-29T14:32:29Z</time>
      </trkpt>
      <trkpt lat="44.99392" lon="6.15141">
        <ele>2522</ele>
        <time>2022-12-29T14:32:30Z</time>
      </trkpt>
      <trkpt lat="44.99392" lon="6.15141">
        <ele>2522</ele>
        <time>2022-12-29T14:32:31Z</time>
      </trkpt>
      <trkpt lat="44.99392" lon="6.15141">
        <ele>2522</ele>
        <time>2022-12-29T14:32:32Z</time>
      </trkpt>
      <trkpt lat="44.99392" lon="6.15141">
        <ele>2522</ele>
        <time>2022-12-29T14:32:33Z</time>
      </trkpt>
      <trkpt lat="44.99392" lon="6.15141">
        <ele>2522</ele>
        <time>2022-12-29T14:32:34Z</time>
      </trkpt>
      <trkpt lat="44.99392" lon="6.15141">
        <ele>2522</ele>
        <time>2022-12-29T14:32:35Z</time>
      </trkpt>
      <trkpt lat="44.99392" lon="6.15141">
        <ele>2522.2</ele>
        <time>2022-12-29T14:32:36Z</time>
      </trkpt>
      <trkpt lat="44.99392" lon="6.15141">
        <ele>2522.2</ele>
        <time>2022-12-29T14:32:37Z</time>
      </trkpt>
      <trkpt lat="44.99392" lon="6.15141">
        <ele>2522.2</ele>
        <time>2022-12-29T14:32:38Z</time>
      </trkpt>
      <trkpt lat="44.99392" lon="6.15141">
        <ele>2522.2</ele>
        <time>2022-12-29T14:32:39Z</time>
      </trkpt>
      <trkpt lat="44.99392" lon="6.15141">
        <ele>2522.2</ele>
        <time>2022-12-29T14:32:40Z</time>
      </trkpt>
      <trkpt lat="44.99392" lon="6.15141">
        <ele>2522.2</ele>
        <time>2022-12-29T14:32:41Z</time>
      </trkpt>
      <trkpt lat="44.99392" lon="6.15141">
        <ele>2522.2</ele>
        <time>2022-12-29T14:32:42Z</time>
      </trkpt>
      <trkpt lat="44.99392" lon="6.15142">
        <ele>2522.2</ele>
        <time>2022-12-29T14:32:45Z</time>
      </trkpt>
      <trkpt lat="44.99392" lon="6.15142">
        <ele>2523</ele>
        <time>2022-12-29T14:32:46Z</time>
      </trkpt>
      <trkpt lat="44.99392" lon="6.15142">
        <ele>2523</ele>
        <time>2022-12-29T14:32:47Z</time>
      </trkpt>
      <trkpt lat="44.99392" lon="6.15142">
        <ele>2523</ele>
        <time>2022-12-29T14:32:48Z</time>
      </trkpt>
      <trkpt lat="44.99392" lon="6.15142">
        <ele>2523</ele>
        <time>2022-12-29T14:32:49Z</time>
      </trkpt>
      <trkpt lat="44.99392" lon="6.15142">
        <ele>2523</ele>
        <time>2022-12-29T14:32:50Z</time>
      </trkpt>
      <trkpt lat="44.99392" lon="6.15142">
        <ele>2523</ele>
        <time>2022-12-29T14:32:51Z</time>
      </trkpt>
      <trkpt lat="44.99392" lon="6.15142">
        <ele>2523</ele>
        <time>2022-12-29T14:32:52Z</time>
      </trkpt>
      <trkpt lat="44.99392" lon="6.15142">
        <ele>2523</ele>
        <time>2022-12-29T14:32:53Z</time>
      </trkpt>
      <trkpt lat="44.99392" lon="6.15142">
        <ele>2523</ele>
        <time>2022-12-29T14:32:54Z</time>
      </trkpt>
      <trkpt lat="44.99392" lon="6.15142">
        <ele>2523</ele>
        <time>2022-12-29T14:32:55Z</time>
      </trkpt>
      <trkpt lat="44.99392" lon="6.15142">
        <ele>2523.6</ele>
        <time>2022-12-29T14:32:56Z</time>
      </trkpt>
      <trkpt lat="44.99392" lon="6.15142">
        <ele>2523.6</ele>
        <time>2022-12-29T14:32:57Z</time>
      </trkpt>
      <trkpt lat="44.99392" lon="6.15142">
        <ele>2523.6</ele>
        <time>2022-12-29T14:32:58Z</time>
      </trkpt>
      <trkpt lat="44.99392" lon="6.15142">
        <ele>2523.6</ele>
        <time>2022-12-29T14:32:59Z</time>
      </trkpt>
      <trkpt lat="44.99392" lon="6.15142">
        <ele>2523.6</ele>
        <time>2022-12-29T14:33:00Z</time>
      </trkpt>
      <trkpt lat="44.99392" lon="6.15142">
        <ele>2523.6</ele>
        <time>2022-12-29T14:33:01Z</time>
      </trkpt>
      <trkpt lat="44.99392" lon="6.15142">
        <ele>2523.6</ele>
        <time>2022-12-29T14:33:02Z</time>
      </trkpt>
      <trkpt lat="44.99392" lon="6.15142">
        <ele>2523.6</ele>
        <time>2022-12-29T14:33:03Z</time>
      </trkpt>
      <trkpt lat="44.99392" lon="6.15142">
        <ele>2523.6</ele>
        <time>2022-12-29T14:33:04Z</time>
      </trkpt>
      <trkpt lat="44.99392" lon="6.15142">
        <ele>2523.6</ele>
        <time>2022-12-29T14:33:05Z</time>
      </trkpt>
      <trkpt lat="44.99392" lon="6.15142">
        <ele>2522.2</ele>
        <time>2022-12-29T14:33:06Z</time>
      </trkpt>
      <trkpt lat="44.99392" lon="6.15142">
        <ele>2522.2</ele>
        <time>2022-12-29T14:33:07Z</time>
      </trkpt>
      <trkpt lat="44.99392" lon="6.15142">
        <ele>2522.2</ele>
        <time>2022-12-29T14:33:08Z</time>
      </trkpt>
      <trkpt lat="44.99392" lon="6.15142">
        <ele>2522.2</ele>
        <time>2022-12-29T14:33:09Z</time>
      </trkpt>
      <trkpt lat="44.99392" lon="6.15142">
        <ele>2522.2</ele>
        <time>2022-12-29T14:33:10Z</time>
      </trkpt>
      <trkpt lat="44.99392" lon="6.15142">
        <ele>2522.2</ele>
        <time>2022-12-29T14:33:11Z</time>
      </trkpt>
      <trkpt lat="44.99392" lon="6.15142">
        <ele>2522.2</ele>
        <time>2022-12-29T14:33:12Z</time>
      </trkpt>
      <trkpt lat="44.99392" lon="6.15142">
        <ele>2522.2</ele>
        <time>2022-12-29T14:33:13Z</time>
      </trkpt>
      <trkpt lat="44.99392" lon="6.15142">
        <ele>2522.2</ele>
        <time>2022-12-29T14:33:14Z</time>
      </trkpt>
      <trkpt lat="44.99392" lon="6.15142">
        <ele>2522.2</ele>
        <time>2022-12-29T14:33:15Z</time>
      </trkpt>
      <trkpt lat="44.99392" lon="6.15142">
        <ele>2522.2</ele>
        <time>2022-12-29T14:33:16Z</time>
      </trkpt>
      <trkpt lat="44.99392" lon="6.15142">
        <ele>2522.2</ele>
        <time>2022-12-29T14:33:17Z</time>
      </trkpt>
      <trkpt lat="44.99392" lon="6.15142">
        <ele>2522.2</ele>
        <time>2022-12-29T14:33:18Z</time>
      </trkpt>
      <trkpt lat="44.99392" lon="6.15142">
        <ele>2522.2</ele>
        <time>2022-12-29T14:33:19Z</time>
      </trkpt>
      <trkpt lat="44.99392" lon="6.15142">
        <ele>2522.2</ele>
        <time>2022-12-29T14:33:20Z</time>
      </trkpt>
      <trkpt lat="44.99392" lon="6.15142">
        <ele>2522.2</ele>
        <time>2022-12-29T14:33:21Z</time>
      </trkpt>
      <trkpt lat="44.99392" lon="6.15142">
        <ele>2522.2</ele>
        <time>2022-12-29T14:33:22Z</time>
      </trkpt>
      <trkpt lat="44.99392" lon="6.15142">
        <ele>2522.2</ele>
        <time>2022-12-29T14:33:23Z</time>
      </trkpt>
      <trkpt lat="44.99392" lon="6.15142">
        <ele>2522.2</ele>
        <time>2022-12-29T14:33:24Z</time>
      </trkpt>
      <trkpt lat="44.99392" lon="6.15142">
        <ele>2522.2</ele>
        <time>2022-12-29T14:33:25Z</time>
      </trkpt>
      <trkpt lat="44.99392" lon="6.15142">
        <ele>2522.2</ele>
        <time>2022-12-29T14:33:26Z</time>
      </trkpt>
      <trkpt lat="44.99392" lon="6.15142">
        <ele>2522.2</ele>
        <time>2022-12-29T14:33:27Z</time>
      </trkpt>
      <trkpt lat="44.99392" lon="6.15142">
        <ele>2522.2</ele>
        <time>2022-12-29T14:33:28Z</time>
      </trkpt>
      <trkpt lat="44.99392" lon="6.15142">
        <ele>2522.2</ele>
        <time>2022-12-29T14:33:29Z</time>
      </trkpt>
      <trkpt lat="44.99392" lon="6.15142">
        <ele>2522.2</ele>
        <time>2022-12-29T14:33:30Z</time>
      </trkpt>
      <trkpt lat="44.99392" lon="6.15142">
        <ele>2522.2</ele>
        <time>2022-12-29T14:33:31Z</time>
      </trkpt>
      <trkpt lat="44.99392" lon="6.15142">
        <ele>2522.2</ele>
        <time>2022-12-29T14:33:32Z</time>
      </trkpt>
      <trkpt lat="44.99392" lon="6.15142">
        <ele>2522.2</ele>
        <time>2022-12-29T14:33:33Z</time>
      </trkpt>
      <trkpt lat="44.99392" lon="6.15142">
        <ele>2522.2</ele>
        <time>2022-12-29T14:33:34Z</time>
      </trkpt>
      <trkpt lat="44.99392" lon="6.15142">
        <ele>2522.2</ele>
        <time>2022-12-29T14:33:35Z</time>
      </trkpt>
      <trkpt lat="44.99392" lon="6.15142">
        <ele>2522.4</ele>
        <time>2022-12-29T14:33:36Z</time>
      </trkpt>
      <trkpt lat="44.99392" lon="6.15142">
        <ele>2522.4</ele>
        <time>2022-12-29T14:33:37Z</time>
      </trkpt>
      <trkpt lat="44.99392" lon="6.15142">
        <ele>2522.4</ele>
        <time>2022-12-29T14:33:38Z</time>
      </trkpt>
      <trkpt lat="44.99392" lon="6.15142">
        <ele>2522.4</ele>
        <time>2022-12-29T14:33:39Z</time>
      </trkpt>
      <trkpt lat="44.99392" lon="6.15142">
        <ele>2522.4</ele>
        <time>2022-12-29T14:33:40Z</time>
      </trkpt>
      <trkpt lat="44.99392" lon="6.15142">
        <ele>2522.4</ele>
        <time>2022-12-29T14:33:41Z</time>
      </trkpt>
      <trkpt lat="44.99392" lon="6.15142">
        <ele>2522.4</ele>
        <time>2022-12-29T14:33:42Z</time>
      </trkpt>
      <trkpt lat="44.99392" lon="6.15142">
        <ele>2522.4</ele>
        <time>2022-12-29T14:33:43Z</time>
      </trkpt>
      <trkpt lat="44.99392" lon="6.15142">
        <ele>2522.4</ele>
        <time>2022-12-29T14:33:44Z</time>
      </trkpt>
      <trkpt lat="44.99392" lon="6.15142">
        <ele>2522.4</ele>
        <time>2022-12-29T14:33:45Z</time>
      </trkpt>
      <trkpt lat="44.99392" lon="6.15142">
        <ele>2523.8</ele>
        <time>2022-12-29T14:33:46Z</time>
      </trkpt>
      <trkpt lat="44.99392" lon="6.15142">
        <ele>2523.8</ele>
        <time>2022-12-29T14:33:47Z</time>
      </trkpt>
      <trkpt lat="44.99392" lon="6.15142">
        <ele>2523.8</ele>
        <time>2022-12-29T14:33:48Z</time>
      </trkpt>
      <trkpt lat="44.99392" lon="6.15142">
        <ele>2523.8</ele>
        <time>2022-12-29T14:33:49Z</time>
      </trkpt>
      <trkpt lat="44.99392" lon="6.15142">
        <ele>2523.8</ele>
        <time>2022-12-29T14:33:50Z</time>
      </trkpt>
      <trkpt lat="44.99392" lon="6.15142">
        <ele>2523.8</ele>
        <time>2022-12-29T14:33:51Z</time>
      </trkpt>
      <trkpt lat="44.99392" lon="6.15142">
        <ele>2523.8</ele>
        <time>2022-12-29T14:33:52Z</time>
      </trkpt>
      <trkpt lat="44.99392" lon="6.15142">
        <ele>2523.8</ele>
        <time>2022-12-29T14:33:53Z</time>
      </trkpt>
      <trkpt lat="44.99392" lon="6.15142">
        <ele>2523.8</ele>
        <time>2022-12-29T14:33:54Z</time>
      </trkpt>
      <trkpt lat="44.99392" lon="6.15143">
        <ele>2523.8</ele>
        <time>2022-12-29T14:33:55Z</time>
      </trkpt>
      <trkpt lat="44.99392" lon="6.15143">
        <ele>2524</ele>
        <time>2022-12-29T14:33:56Z</time>
      </trkpt>
      <trkpt lat="44.99392" lon="6.15143">
        <ele>2524</ele>
        <time>2022-12-29T14:33:57Z</time>
      </trkpt>
      <trkpt lat="44.99392" lon="6.15142">
        <ele>2524</ele>
        <time>2022-12-29T14:33:58Z</time>
      </trkpt>
      <trkpt lat="44.99392" lon="6.15142">
        <ele>2524</ele>
        <time>2022-12-29T14:33:59Z</time>
      </trkpt>
      <trkpt lat="44.99392" lon="6.15142">
        <ele>2524</ele>
        <time>2022-12-29T14:34:00Z</time>
      </trkpt>
      <trkpt lat="44.99392" lon="6.15142">
        <ele>2524</ele>
        <time>2022-12-29T14:34:01Z</time>
      </trkpt>
      <trkpt lat="44.99392" lon="6.15142">
        <ele>2524</ele>
        <time>2022-12-29T14:34:02Z</time>
      </trkpt>
      <trkpt lat="44.99392" lon="6.15142">
        <ele>2524</ele>
        <time>2022-12-29T14:34:03Z</time>
      </trkpt>
      <trkpt lat="44.99392" lon="6.15142">
        <ele>2524</ele>
        <time>2022-12-29T14:34:04Z</time>
      </trkpt>
      <trkpt lat="44.99392" lon="6.15142">
        <ele>2524</ele>
        <time>2022-12-29T14:34:05Z</time>
      </trkpt>
      <trkpt lat="44.99392" lon="6.15142">
        <ele>2524.2</ele>
        <time>2022-12-29T14:34:06Z</time>
      </trkpt>
      <trkpt lat="44.99392" lon="6.15142">
        <ele>2524.2</ele>
        <time>2022-12-29T14:34:07Z</time>
      </trkpt>
      <trkpt lat="44.99392" lon="6.15142">
        <ele>2524.2</ele>
        <time>2022-12-29T14:34:10Z</time>
      </trkpt>
      <trkpt lat="44.99392" lon="6.15142">
        <ele>2524.2</ele>
        <time>2022-12-29T14:34:11Z</time>
      </trkpt>
      <trkpt lat="44.99392" lon="6.15142">
        <ele>2524.2</ele>
        <time>2022-12-29T14:34:12Z</time>
      </trkpt>
      <trkpt lat="44.99392" lon="6.15142">
        <ele>2524.2</ele>
        <time>2022-12-29T14:34:13Z</time>
      </trkpt>
      <trkpt lat="44.99392" lon="6.15142">
        <ele>2524.2</ele>
        <time>2022-12-29T14:34:14Z</time>
      </trkpt>
      <trkpt lat="44.99392" lon="6.15142">
        <ele>2524.2</ele>
        <time>2022-12-29T14:34:15Z</time>
      </trkpt>
      <trkpt lat="44.99392" lon="6.15142">
        <ele>2523.6</ele>
        <time>2022-12-29T14:34:16Z</time>
      </trkpt>
      <trkpt lat="44.99392" lon="6.15142">
        <ele>2523.6</ele>
        <time>2022-12-29T14:34:17Z</time>
      </trkpt>
      <trkpt lat="44.99392" lon="6.15142">
        <ele>2523.6</ele>
        <time>2022-12-29T14:34:18Z</time>
      </trkpt>
      <trkpt lat="44.99392" lon="6.15142">
        <ele>2523.6</ele>
        <time>2022-12-29T14:34:19Z</time>
      </trkpt>
      <trkpt lat="44.99392" lon="6.15142">
        <ele>2523.6</ele>
        <time>2022-12-29T14:34:20Z</time>
      </trkpt>
      <trkpt lat="44.99392" lon="6.15142">
        <ele>2523.6</ele>
        <time>2022-12-29T14:34:21Z</time>
      </trkpt>
      <trkpt lat="44.99392" lon="6.15142">
        <ele>2523.6</ele>
        <time>2022-12-29T14:34:22Z</time>
      </trkpt>
      <trkpt lat="44.99392" lon="6.15142">
        <ele>2523.6</ele>
        <time>2022-12-29T14:34:23Z</time>
      </trkpt>
      <trkpt lat="44.99392" lon="6.15142">
        <ele>2523.6</ele>
        <time>2022-12-29T14:34:24Z</time>
      </trkpt>
      <trkpt lat="44.99392" lon="6.15142">
        <ele>2523.6</ele>
        <time>2022-12-29T14:34:25Z</time>
      </trkpt>
      <trkpt lat="44.99392" lon="6.15142">
        <ele>2524.8</ele>
        <time>2022-12-29T14:34:26Z</time>
      </trkpt>
      <trkpt lat="44.99392" lon="6.15142">
        <ele>2524.8</ele>
        <time>2022-12-29T14:34:27Z</time>
      </trkpt>
      <trkpt lat="44.99392" lon="6.15142">
        <ele>2524.8</ele>
        <time>2022-12-29T14:34:28Z</time>
      </trkpt>
      <trkpt lat="44.99392" lon="6.15142">
        <ele>2524.8</ele>
        <time>2022-12-29T14:34:29Z</time>
      </trkpt>
      <trkpt lat="44.99392" lon="6.15142">
        <ele>2524.8</ele>
        <time>2022-12-29T14:34:30Z</time>
      </trkpt>
      <trkpt lat="44.99392" lon="6.15142">
        <ele>2524.8</ele>
        <time>2022-12-29T14:34:31Z</time>
      </trkpt>
      <trkpt lat="44.99392" lon="6.15142">
        <ele>2524.8</ele>
        <time>2022-12-29T14:34:33Z</time>
      </trkpt>
      <trkpt lat="44.99392" lon="6.15142">
        <ele>2524.8</ele>
        <time>2022-12-29T14:34:34Z</time>
      </trkpt>
      <trkpt lat="44.99392" lon="6.15142">
        <ele>2524.8</ele>
        <time>2022-12-29T14:34:35Z</time>
      </trkpt>
      <trkpt lat="44.99392" lon="6.15142">
        <ele>2524.6</ele>
        <time>2022-12-29T14:34:36Z</time>
      </trkpt>
      <trkpt lat="44.99392" lon="6.15142">
        <ele>2524.6</ele>
        <time>2022-12-29T14:34:37Z</time>
      </trkpt>
      <trkpt lat="44.99392" lon="6.15142">
        <ele>2524.6</ele>
        <time>2022-12-29T14:34:38Z</time>
      </trkpt>
      <trkpt lat="44.99392" lon="6.15142">
        <ele>2524.6</ele>
        <time>2022-12-29T14:34:39Z</time>
      </trkpt>
      <trkpt lat="44.99392" lon="6.15142">
        <ele>2524.6</ele>
        <time>2022-12-29T14:34:40Z</time>
      </trkpt>
      <trkpt lat="44.99392" lon="6.15142">
        <ele>2524.6</ele>
        <time>2022-12-29T14:34:41Z</time>
      </trkpt>
      <trkpt lat="44.99391" lon="6.15142">
        <ele>2524.6</ele>
        <time>2022-12-29T14:34:42Z</time>
      </trkpt>
      <trkpt lat="44.99391" lon="6.15142">
        <ele>2524.6</ele>
        <time>2022-12-29T14:34:43Z</time>
      </trkpt>
      <trkpt lat="44.99391" lon="6.15141">
        <ele>2524.6</ele>
        <time>2022-12-29T14:34:44Z</time>
      </trkpt>
      <trkpt lat="44.99391" lon="6.15141">
        <ele>2524.6</ele>
        <time>2022-12-29T14:34:45Z</time>
      </trkpt>
      <trkpt lat="44.99391" lon="6.15141">
        <ele>2524.8</ele>
        <time>2022-12-29T14:34:46Z</time>
      </trkpt>
      <trkpt lat="44.99391" lon="6.15141">
        <ele>2524.8</ele>
        <time>2022-12-29T14:34:47Z</time>
      </trkpt>
      <trkpt lat="44.99391" lon="6.15141">
        <ele>2524.8</ele>
        <time>2022-12-29T14:34:48Z</time>
      </trkpt>
      <trkpt lat="44.99391" lon="6.15141">
        <ele>2524.8</ele>
        <time>2022-12-29T14:34:49Z</time>
      </trkpt>
      <trkpt lat="44.99391" lon="6.15141">
        <ele>2524.8</ele>
        <time>2022-12-29T14:34:50Z</time>
      </trkpt>
      <trkpt lat="44.99391" lon="6.15141">
        <ele>2524.8</ele>
        <time>2022-12-29T14:34:51Z</time>
      </trkpt>
      <trkpt lat="44.99391" lon="6.15141">
        <ele>2524.8</ele>
        <time>2022-12-29T14:34:52Z</time>
      </trkpt>
      <trkpt lat="44.99391" lon="6.15141">
        <ele>2524.8</ele>
        <time>2022-12-29T14:34:53Z</time>
      </trkpt>
      <trkpt lat="44.99391" lon="6.15141">
        <ele>2524.8</ele>
        <time>2022-12-29T14:34:54Z</time>
      </trkpt>
      <trkpt lat="44.99391" lon="6.15141">
        <ele>2524.8</ele>
        <time>2022-12-29T14:34:55Z</time>
      </trkpt>
      <trkpt lat="44.99391" lon="6.15141">
        <ele>2524.4</ele>
        <time>2022-12-29T14:34:56Z</time>
      </trkpt>
      <trkpt lat="44.99391" lon="6.15141">
        <ele>2524.4</ele>
        <time>2022-12-29T14:34:57Z</time>
      </trkpt>
      <trkpt lat="44.99391" lon="6.15141">
        <ele>2524.4</ele>
        <time>2022-12-29T14:34:58Z</time>
      </trkpt>
      <trkpt lat="44.99391" lon="6.15141">
        <ele>2524.4</ele>
        <time>2022-12-29T14:34:59Z</time>
      </trkpt>
      <trkpt lat="44.99391" lon="6.15141">
        <ele>2524.4</ele>
        <time>2022-12-29T14:35:00Z</time>
      </trkpt>
      <trkpt lat="44.99391" lon="6.15141">
        <ele>2524.4</ele>
        <time>2022-12-29T14:35:01Z</time>
      </trkpt>
      <trkpt lat="44.99391" lon="6.15141">
        <ele>2524.4</ele>
        <time>2022-12-29T14:35:02Z</time>
      </trkpt>
      <trkpt lat="44.99391" lon="6.15141">
        <ele>2524.4</ele>
        <time>2022-12-29T14:35:03Z</time>
      </trkpt>
      <trkpt lat="44.99391" lon="6.15141">
        <ele>2524.4</ele>
        <time>2022-12-29T14:35:04Z</time>
      </trkpt>
      <trkpt lat="44.99391" lon="6.15141">
        <ele>2524.4</ele>
        <time>2022-12-29T14:35:05Z</time>
      </trkpt>
      <trkpt lat="44.99391" lon="6.15141">
        <ele>2522.6</ele>
        <time>2022-12-29T14:35:06Z</time>
      </trkpt>
      <trkpt lat="44.99391" lon="6.15141">
        <ele>2522.6</ele>
        <time>2022-12-29T14:35:07Z</time>
      </trkpt>
      <trkpt lat="44.99391" lon="6.15141">
        <ele>2522.6</ele>
        <time>2022-12-29T14:35:08Z</time>
      </trkpt>
      <trkpt lat="44.99391" lon="6.15141">
        <ele>2522.6</ele>
        <time>2022-12-29T14:35:09Z</time>
      </trkpt>
      <trkpt lat="44.99391" lon="6.15141">
        <ele>2522.6</ele>
        <time>2022-12-29T14:35:10Z</time>
      </trkpt>
      <trkpt lat="44.99391" lon="6.15141">
        <ele>2522.6</ele>
        <time>2022-12-29T14:35:11Z</time>
      </trkpt>
      <trkpt lat="44.99391" lon="6.15141">
        <ele>2522.6</ele>
        <time>2022-12-29T14:35:12Z</time>
      </trkpt>
      <trkpt lat="44.99391" lon="6.15141">
        <ele>2522.6</ele>
        <time>2022-12-29T14:35:13Z</time>
      </trkpt>
      <trkpt lat="44.99391" lon="6.15141">
        <ele>2522.6</ele>
        <time>2022-12-29T14:35:14Z</time>
      </trkpt>
      <trkpt lat="44.99391" lon="6.15141">
        <ele>2522.6</ele>
        <time>2022-12-29T14:35:15Z</time>
      </trkpt>
      <trkpt lat="44.99391" lon="6.15141">
        <ele>2522.6</ele>
        <time>2022-12-29T14:35:16Z</time>
      </trkpt>
      <trkpt lat="44.99391" lon="6.15141">
        <ele>2522.6</ele>
        <time>2022-12-29T14:35:17Z</time>
      </trkpt>
      <trkpt lat="44.99391" lon="6.15141">
        <ele>2522.6</ele>
        <time>2022-12-29T14:35:18Z</time>
      </trkpt>
      <trkpt lat="44.99391" lon="6.15141">
        <ele>2522.6</ele>
        <time>2022-12-29T14:35:19Z</time>
      </trkpt>
      <trkpt lat="44.99391" lon="6.15141">
        <ele>2522.6</ele>
        <time>2022-12-29T14:35:20Z</time>
      </trkpt>
      <trkpt lat="44.99391" lon="6.15141">
        <ele>2522.6</ele>
        <time>2022-12-29T14:35:21Z</time>
      </trkpt>
      <trkpt lat="44.99391" lon="6.15141">
        <ele>2522.6</ele>
        <time>2022-12-29T14:35:22Z</time>
      </trkpt>
      <trkpt lat="44.99391" lon="6.15141">
        <ele>2522.6</ele>
        <time>2022-12-29T14:35:23Z</time>
      </trkpt>
      <trkpt lat="44.99391" lon="6.15141">
        <ele>2522.6</ele>
        <time>2022-12-29T14:35:24Z</time>
      </trkpt>
      <trkpt lat="44.99391" lon="6.15141">
        <ele>2522.6</ele>
        <time>2022-12-29T14:35:25Z</time>
      </trkpt>
      <trkpt lat="44.99391" lon="6.1514">
        <ele>2522.6</ele>
        <time>2022-12-29T14:35:26Z</time>
      </trkpt>
      <trkpt lat="44.99391" lon="6.1514">
        <ele>2522.6</ele>
        <time>2022-12-29T14:35:27Z</time>
      </trkpt>
      <trkpt lat="44.99391" lon="6.1514">
        <ele>2522.6</ele>
        <time>2022-12-29T14:35:28Z</time>
      </trkpt>
      <trkpt lat="44.99391" lon="6.1514">
        <ele>2522.6</ele>
        <time>2022-12-29T14:35:29Z</time>
      </trkpt>
      <trkpt lat="44.99391" lon="6.1514">
        <ele>2522.6</ele>
        <time>2022-12-29T14:35:30Z</time>
      </trkpt>
      <trkpt lat="44.99391" lon="6.1514">
        <ele>2522.6</ele>
        <time>2022-12-29T14:35:31Z</time>
      </trkpt>
      <trkpt lat="44.9939" lon="6.1514">
        <ele>2522.6</ele>
        <time>2022-12-29T14:35:35Z</time>
      </trkpt>
      <trkpt lat="44.9939" lon="6.1514">
        <ele>2524.2</ele>
        <time>2022-12-29T14:35:36Z</time>
      </trkpt>
      <trkpt lat="44.9939" lon="6.1514">
        <ele>2524.2</ele>
        <time>2022-12-29T14:35:37Z</time>
      </trkpt>
      <trkpt lat="44.9939" lon="6.1514">
        <ele>2524.2</ele>
        <time>2022-12-29T14:35:38Z</time>
      </trkpt>
      <trkpt lat="44.9939" lon="6.1514">
        <ele>2524.2</ele>
        <time>2022-12-29T14:35:39Z</time>
      </trkpt>
      <trkpt lat="44.9939" lon="6.1514">
        <ele>2524.2</ele>
        <time>2022-12-29T14:35:40Z</time>
      </trkpt>
      <trkpt lat="44.9939" lon="6.1514">
        <ele>2524.2</ele>
        <time>2022-12-29T14:35:41Z</time>
      </trkpt>
      <trkpt lat="44.9939" lon="6.1514">
        <ele>2524.2</ele>
        <time>2022-12-29T14:35:42Z</time>
      </trkpt>
      <trkpt lat="44.9939" lon="6.1514">
        <ele>2524.2</ele>
        <time>2022-12-29T14:35:43Z</time>
      </trkpt>
      <trkpt lat="44.9939" lon="6.1514">
        <ele>2524.2</ele>
        <time>2022-12-29T14:35:44Z</time>
      </trkpt>
      <trkpt lat="44.9939" lon="6.1514">
        <ele>2524.2</ele>
        <time>2022-12-29T14:35:45Z</time>
      </trkpt>
      <trkpt lat="44.9939" lon="6.1514">
        <ele>2523</ele>
        <time>2022-12-29T14:35:46Z</time>
      </trkpt>
      <trkpt lat="44.9939" lon="6.1514">
        <ele>2523</ele>
        <time>2022-12-29T14:35:47Z</time>
      </trkpt>
      <trkpt lat="44.9939" lon="6.1514">
        <ele>2523</ele>
        <time>2022-12-29T14:35:48Z</time>
      </trkpt>
      <trkpt lat="44.9939" lon="6.1514">
        <ele>2523</ele>
        <time>2022-12-29T14:35:49Z</time>
      </trkpt>
      <trkpt lat="44.9939" lon="6.1514">
        <ele>2523</ele>
        <time>2022-12-29T14:35:50Z</time>
      </trkpt>
      <trkpt lat="44.9939" lon="6.1514">
        <ele>2523</ele>
        <time>2022-12-29T14:35:51Z</time>
      </trkpt>
      <trkpt lat="44.9939" lon="6.1514">
        <ele>2523</ele>
        <time>2022-12-29T14:35:52Z</time>
      </trkpt>
      <trkpt lat="44.9939" lon="6.1514">
        <ele>2523</ele>
        <time>2022-12-29T14:35:53Z</time>
      </trkpt>
      <trkpt lat="44.9939" lon="6.1514">
        <ele>2523</ele>
        <time>2022-12-29T14:35:54Z</time>
      </trkpt>
      <trkpt lat="44.9939" lon="6.1514">
        <ele>2523</ele>
        <time>2022-12-29T14:35:55Z</time>
      </trkpt>
      <trkpt lat="44.9939" lon="6.1514">
        <ele>2522.6</ele>
        <time>2022-12-29T14:35:56Z</time>
      </trkpt>
      <trkpt lat="44.9939" lon="6.1514">
        <ele>2522.6</ele>
        <time>2022-12-29T14:35:57Z</time>
      </trkpt>
      <trkpt lat="44.9939" lon="6.1514">
        <ele>2522.6</ele>
        <time>2022-12-29T14:35:58Z</time>
      </trkpt>
      <trkpt lat="44.9939" lon="6.1514">
        <ele>2522.6</ele>
        <time>2022-12-29T14:35:59Z</time>
      </trkpt>
      <trkpt lat="44.9939" lon="6.1514">
        <ele>2522.6</ele>
        <time>2022-12-29T14:36:00Z</time>
      </trkpt>
      <trkpt lat="44.9939" lon="6.1514">
        <ele>2522.6</ele>
        <time>2022-12-29T14:36:01Z</time>
      </trkpt>
      <trkpt lat="44.9939" lon="6.1514">
        <ele>2522.6</ele>
        <time>2022-12-29T14:36:02Z</time>
      </trkpt>
      <trkpt lat="44.9939" lon="6.1514">
        <ele>2522.6</ele>
        <time>2022-12-29T14:36:03Z</time>
      </trkpt>
      <trkpt lat="44.9939" lon="6.1514">
        <ele>2522.6</ele>
        <time>2022-12-29T14:36:04Z</time>
      </trkpt>
      <trkpt lat="44.9939" lon="6.1514">
        <ele>2522.6</ele>
        <time>2022-12-29T14:36:05Z</time>
      </trkpt>
      <trkpt lat="44.9939" lon="6.1514">
        <ele>2523</ele>
        <time>2022-12-29T14:36:06Z</time>
      </trkpt>
      <trkpt lat="44.9939" lon="6.1514">
        <ele>2523</ele>
        <time>2022-12-29T14:36:07Z</time>
      </trkpt>
      <trkpt lat="44.9939" lon="6.1514">
        <ele>2523</ele>
        <time>2022-12-29T14:36:08Z</time>
      </trkpt>
      <trkpt lat="44.9939" lon="6.1514">
        <ele>2523</ele>
        <time>2022-12-29T14:36:09Z</time>
      </trkpt>
      <trkpt lat="44.9939" lon="6.1514">
        <ele>2523</ele>
        <time>2022-12-29T14:36:10Z</time>
      </trkpt>
      <trkpt lat="44.9939" lon="6.1514">
        <ele>2523</ele>
        <time>2022-12-29T14:36:11Z</time>
      </trkpt>
      <trkpt lat="44.9939" lon="6.15139">
        <ele>2523</ele>
        <time>2022-12-29T14:36:12Z</time>
      </trkpt>
      <trkpt lat="44.9939" lon="6.15139">
        <ele>2523</ele>
        <time>2022-12-29T14:36:13Z</time>
      </trkpt>
      <trkpt lat="44.9939" lon="6.15139">
        <ele>2523</ele>
        <time>2022-12-29T14:36:14Z</time>
      </trkpt>
      <trkpt lat="44.9939" lon="6.15139">
        <ele>2523</ele>
        <time>2022-12-29T14:36:15Z</time>
      </trkpt>
      <trkpt lat="44.9939" lon="6.15139">
        <ele>2524</ele>
        <time>2022-12-29T14:36:16Z</time>
      </trkpt>
      <trkpt lat="44.9939" lon="6.15139">
        <ele>2524</ele>
        <time>2022-12-29T14:36:17Z</time>
      </trkpt>
      <trkpt lat="44.9939" lon="6.15139">
        <ele>2524</ele>
        <time>2022-12-29T14:36:18Z</time>
      </trkpt>
      <trkpt lat="44.9939" lon="6.15139">
        <ele>2524</ele>
        <time>2022-12-29T14:36:19Z</time>
      </trkpt>
      <trkpt lat="44.9939" lon="6.15139">
        <ele>2524</ele>
        <time>2022-12-29T14:36:20Z</time>
      </trkpt>
      <trkpt lat="44.9939" lon="6.15139">
        <ele>2524</ele>
        <time>2022-12-29T14:36:21Z</time>
      </trkpt>
      <trkpt lat="44.9939" lon="6.15139">
        <ele>2524</ele>
        <time>2022-12-29T14:36:25Z</time>
      </trkpt>
      <trkpt lat="44.9939" lon="6.15139">
        <ele>2523.6</ele>
        <time>2022-12-29T14:36:26Z</time>
      </trkpt>
      <trkpt lat="44.99389" lon="6.15139">
        <ele>2523.6</ele>
        <time>2022-12-29T14:36:27Z</time>
      </trkpt>
      <trkpt lat="44.99389" lon="6.15139">
        <ele>2523.6</ele>
        <time>2022-12-29T14:36:28Z</time>
      </trkpt>
      <trkpt lat="44.99389" lon="6.15139">
        <ele>2523.6</ele>
        <time>2022-12-29T14:36:29Z</time>
      </trkpt>
      <trkpt lat="44.99389" lon="6.15139">
        <ele>2523.6</ele>
        <time>2022-12-29T14:36:30Z</time>
      </trkpt>
      <trkpt lat="44.99389" lon="6.15139">
        <ele>2523.6</ele>
        <time>2022-12-29T14:36:31Z</time>
      </trkpt>
      <trkpt lat="44.99389" lon="6.15139">
        <ele>2523.6</ele>
        <time>2022-12-29T14:36:32Z</time>
      </trkpt>
      <trkpt lat="44.99389" lon="6.15139">
        <ele>2523.6</ele>
        <time>2022-12-29T14:36:33Z</time>
      </trkpt>
      <trkpt lat="44.99389" lon="6.15139">
        <ele>2523.6</ele>
        <time>2022-12-29T14:36:34Z</time>
      </trkpt>
      <trkpt lat="44.99389" lon="6.15139">
        <ele>2523.6</ele>
        <time>2022-12-29T14:36:35Z</time>
      </trkpt>
      <trkpt lat="44.99389" lon="6.15139">
        <ele>2523.6</ele>
        <time>2022-12-29T14:36:36Z</time>
      </trkpt>
      <trkpt lat="44.99389" lon="6.15139">
        <ele>2523.6</ele>
        <time>2022-12-29T14:36:37Z</time>
      </trkpt>
      <trkpt lat="44.99389" lon="6.15139">
        <ele>2523.6</ele>
        <time>2022-12-29T14:36:41Z</time>
      </trkpt>
      <trkpt lat="44.99389" lon="6.15139">
        <ele>2523.6</ele>
        <time>2022-12-29T14:36:42Z</time>
      </trkpt>
      <trkpt lat="44.99389" lon="6.15139">
        <ele>2523.6</ele>
        <time>2022-12-29T14:36:43Z</time>
      </trkpt>
      <trkpt lat="44.99389" lon="6.15139">
        <ele>2523.6</ele>
        <time>2022-12-29T14:36:44Z</time>
      </trkpt>
      <trkpt lat="44.99389" lon="6.15139">
        <ele>2523.6</ele>
        <time>2022-12-29T14:36:45Z</time>
      </trkpt>
      <trkpt lat="44.99389" lon="6.15139">
        <ele>2522</ele>
        <time>2022-12-29T14:36:46Z</time>
      </trkpt>
      <trkpt lat="44.99389" lon="6.15127">
        <ele>2522</ele>
        <time>2022-12-29T14:36:47Z</time>
      </trkpt>
      <trkpt lat="44.99389" lon="6.15121">
        <ele>2522</ele>
        <time>2022-12-29T14:36:48Z</time>
      </trkpt>
      <trkpt lat="44.99389" lon="6.15116">
        <ele>2522</ele>
        <time>2022-12-29T14:36:49Z</time>
      </trkpt>
      <trkpt lat="44.99389" lon="6.1511">
        <ele>2522</ele>
        <time>2022-12-29T14:36:50Z</time>
      </trkpt>
      <trkpt lat="44.99389" lon="6.15104">
        <ele>2522</ele>
        <time>2022-12-29T14:36:51Z</time>
      </trkpt>
      <trkpt lat="44.99389" lon="6.15098">
        <ele>2522</ele>
        <time>2022-12-29T14:36:52Z</time>
      </trkpt>
      <trkpt lat="44.99389" lon="6.15092">
        <ele>2522</ele>
        <time>2022-12-29T14:36:53Z</time>
      </trkpt>
      <trkpt lat="44.99389" lon="6.15086">
        <ele>2522</ele>
        <time>2022-12-29T14:36:54Z</time>
      </trkpt>
      <trkpt lat="44.99388" lon="6.15081">
        <ele>2522</ele>
        <time>2022-12-29T14:36:55Z</time>
      </trkpt>
      <trkpt lat="44.99388" lon="6.15075">
        <ele>2511.8</ele>
        <time>2022-12-29T14:36:56Z</time>
      </trkpt>
      <trkpt lat="44.99387" lon="6.15066">
        <ele>2511.8</ele>
        <time>2022-12-29T14:36:57Z</time>
      </trkpt>
      <trkpt lat="44.99386" lon="6.15064">
        <ele>2511.8</ele>
        <time>2022-12-29T14:36:58Z</time>
      </trkpt>
      <trkpt lat="44.99384" lon="6.15062">
        <ele>2511.8</ele>
        <time>2022-12-29T14:36:59Z</time>
      </trkpt>
      <trkpt lat="44.99383" lon="6.15059">
        <ele>2511.8</ele>
        <time>2022-12-29T14:37:00Z</time>
      </trkpt>
      <trkpt lat="44.99381" lon="6.15057">
        <ele>2511.8</ele>
        <time>2022-12-29T14:37:01Z</time>
      </trkpt>
      <trkpt lat="44.9938" lon="6.15055">
        <ele>2511.8</ele>
        <time>2022-12-29T14:37:02Z</time>
      </trkpt>
      <trkpt lat="44.99379" lon="6.15053">
        <ele>2511.8</ele>
        <time>2022-12-29T14:37:03Z</time>
      </trkpt>
      <trkpt lat="44.99377" lon="6.1505">
        <ele>2511.8</ele>
        <time>2022-12-29T14:37:04Z</time>
      </trkpt>
      <trkpt lat="44.99376" lon="6.15048">
        <ele>2511.8</ele>
        <time>2022-12-29T14:37:05Z</time>
      </trkpt>
      <trkpt lat="44.99375" lon="6.15046">
        <ele>2500</ele>
        <time>2022-12-29T14:37:06Z</time>
      </trkpt>
      <trkpt lat="44.99375" lon="6.15046">
        <ele>2500</ele>
        <time>2022-12-29T14:37:07Z</time>
      </trkpt>
      <trkpt lat="44.99375" lon="6.15046">
        <ele>2500</ele>
        <time>2022-12-29T14:37:08Z</time>
      </trkpt>
      <trkpt lat="44.99375" lon="6.15046">
        <ele>2500</ele>
        <time>2022-12-29T14:37:09Z</time>
      </trkpt>
      <trkpt lat="44.99375" lon="6.15046">
        <ele>2500</ele>
        <time>2022-12-29T14:37:10Z</time>
      </trkpt>
      <trkpt lat="44.99375" lon="6.15046">
        <ele>2500</ele>
        <time>2022-12-29T14:37:11Z</time>
      </trkpt>
      <trkpt lat="44.99375" lon="6.15046">
        <ele>2500</ele>
        <time>2022-12-29T14:37:12Z</time>
      </trkpt>
      <trkpt lat="44.99375" lon="6.15046">
        <ele>2500</ele>
        <time>2022-12-29T14:37:13Z</time>
      </trkpt>
      <trkpt lat="44.99375" lon="6.15046">
        <ele>2500</ele>
        <time>2022-12-29T14:37:14Z</time>
      </trkpt>
      <trkpt lat="44.99375" lon="6.15046">
        <ele>2500</ele>
        <time>2022-12-29T14:37:15Z</time>
      </trkpt>
      <trkpt lat="44.99375" lon="6.15046">
        <ele>2497.8</ele>
        <time>2022-12-29T14:37:16Z</time>
      </trkpt>
      <trkpt lat="44.99375" lon="6.15043">
        <ele>2497.8</ele>
        <time>2022-12-29T14:37:17Z</time>
      </trkpt>
      <trkpt lat="44.99375" lon="6.15043">
        <ele>2497.8</ele>
        <time>2022-12-29T14:37:19Z</time>
      </trkpt>
      <trkpt lat="44.99375" lon="6.15043">
        <ele>2497.8</ele>
        <time>2022-12-29T14:37:20Z</time>
      </trkpt>
      <trkpt lat="44.99375" lon="6.15043">
        <ele>2497.8</ele>
        <time>2022-12-29T14:37:21Z</time>
      </trkpt>
      <trkpt lat="44.99375" lon="6.15043">
        <ele>2497.8</ele>
        <time>2022-12-29T14:37:22Z</time>
      </trkpt>
      <trkpt lat="44.99375" lon="6.15043">
        <ele>2497.8</ele>
        <time>2022-12-29T14:37:23Z</time>
      </trkpt>
      <trkpt lat="44.99375" lon="6.15043">
        <ele>2497.8</ele>
        <time>2022-12-29T14:37:24Z</time>
      </trkpt>
      <trkpt lat="44.99375" lon="6.15043">
        <ele>2497.8</ele>
        <time>2022-12-29T14:37:25Z</time>
      </trkpt>
      <trkpt lat="44.99375" lon="6.15043">
        <ele>2498.2</ele>
        <time>2022-12-29T14:37:26Z</time>
      </trkpt>
      <trkpt lat="44.99375" lon="6.15043">
        <ele>2498.2</ele>
        <time>2022-12-29T14:37:27Z</time>
      </trkpt>
      <trkpt lat="44.99374" lon="6.15043">
        <ele>2498.2</ele>
        <time>2022-12-29T14:37:28Z</time>
      </trkpt>
      <trkpt lat="44.99374" lon="6.15043">
        <ele>2498.2</ele>
        <time>2022-12-29T14:37:29Z</time>
      </trkpt>
      <trkpt lat="44.99374" lon="6.15043">
        <ele>2498.2</ele>
        <time>2022-12-29T14:37:30Z</time>
      </trkpt>
      <trkpt lat="44.99374" lon="6.15043">
        <ele>2498.2</ele>
        <time>2022-12-29T14:37:31Z</time>
      </trkpt>
      <trkpt lat="44.99373" lon="6.15043">
        <ele>2498.2</ele>
        <time>2022-12-29T14:37:32Z</time>
      </trkpt>
      <trkpt lat="44.99373" lon="6.15043">
        <ele>2498.2</ele>
        <time>2022-12-29T14:37:33Z</time>
      </trkpt>
      <trkpt lat="44.99373" lon="6.15043">
        <ele>2498.2</ele>
        <time>2022-12-29T14:37:34Z</time>
      </trkpt>
      <trkpt lat="44.99373" lon="6.15043">
        <ele>2498.2</ele>
        <time>2022-12-29T14:37:35Z</time>
      </trkpt>
      <trkpt lat="44.99372" lon="6.15043">
        <ele>2497.8</ele>
        <time>2022-12-29T14:37:36Z</time>
      </trkpt>
      <trkpt lat="44.99372" lon="6.15043">
        <ele>2497.8</ele>
        <time>2022-12-29T14:37:37Z</time>
      </trkpt>
      <trkpt lat="44.99372" lon="6.15044">
        <ele>2497.8</ele>
        <time>2022-12-29T14:37:38Z</time>
      </trkpt>
      <trkpt lat="44.99372" lon="6.15044">
        <ele>2497.8</ele>
        <time>2022-12-29T14:37:39Z</time>
      </trkpt>
      <trkpt lat="44.99372" lon="6.15044">
        <ele>2497.8</ele>
        <time>2022-12-29T14:37:40Z</time>
      </trkpt>
      <trkpt lat="44.99371" lon="6.15044">
        <ele>2497.8</ele>
        <time>2022-12-29T14:37:41Z</time>
      </trkpt>
      <trkpt lat="44.99371" lon="6.15044">
        <ele>2497.8</ele>
        <time>2022-12-29T14:37:42Z</time>
      </trkpt>
      <trkpt lat="44.99371" lon="6.15044">
        <ele>2497.8</ele>
        <time>2022-12-29T14:37:43Z</time>
      </trkpt>
      <trkpt lat="44.99371" lon="6.15044">
        <ele>2497.8</ele>
        <time>2022-12-29T14:37:44Z</time>
      </trkpt>
      <trkpt lat="44.9937" lon="6.15044">
        <ele>2497.8</ele>
        <time>2022-12-29T14:37:45Z</time>
      </trkpt>
      <trkpt lat="44.9937" lon="6.15044">
        <ele>2497.4</ele>
        <time>2022-12-29T14:37:46Z</time>
      </trkpt>
      <trkpt lat="44.9937" lon="6.15044">
        <ele>2497.4</ele>
        <time>2022-12-29T14:37:47Z</time>
      </trkpt>
      <trkpt lat="44.9937" lon="6.15044">
        <ele>2497.4</ele>
        <time>2022-12-29T14:37:48Z</time>
      </trkpt>
      <trkpt lat="44.99369" lon="6.15044">
        <ele>2497.4</ele>
        <time>2022-12-29T14:37:49Z</time>
      </trkpt>
      <trkpt lat="44.99369" lon="6.15044">
        <ele>2497.4</ele>
        <time>2022-12-29T14:37:50Z</time>
      </trkpt>
      <trkpt lat="44.99369" lon="6.15044">
        <ele>2497.4</ele>
        <time>2022-12-29T14:37:51Z</time>
      </trkpt>
      <trkpt lat="44.99369" lon="6.15044">
        <ele>2497.4</ele>
        <time>2022-12-29T14:37:52Z</time>
      </trkpt>
      <trkpt lat="44.99369" lon="6.15044">
        <ele>2497.4</ele>
        <time>2022-12-29T14:37:53Z</time>
      </trkpt>
      <trkpt lat="44.99368" lon="6.15044">
        <ele>2497.4</ele>
        <time>2022-12-29T14:37:54Z</time>
      </trkpt>
      <trkpt lat="44.99368" lon="6.15044">
        <ele>2497.4</ele>
        <time>2022-12-29T14:37:55Z</time>
      </trkpt>
      <trkpt lat="44.99368" lon="6.15044">
        <ele>2497.2</ele>
        <time>2022-12-29T14:37:56Z</time>
      </trkpt>
      <trkpt lat="44.99368" lon="6.15044">
        <ele>2497.2</ele>
        <time>2022-12-29T14:37:57Z</time>
      </trkpt>
      <trkpt lat="44.99367" lon="6.15044">
        <ele>2497.2</ele>
        <time>2022-12-29T14:37:58Z</time>
      </trkpt>
      <trkpt lat="44.99367" lon="6.15044">
        <ele>2497.2</ele>
        <time>2022-12-29T14:37:59Z</time>
      </trkpt>
      <trkpt lat="44.99367" lon="6.15044">
        <ele>2497.2</ele>
        <time>2022-12-29T14:38:00Z</time>
      </trkpt>
      <trkpt lat="44.99367" lon="6.15044">
        <ele>2497.2</ele>
        <time>2022-12-29T14:38:01Z</time>
      </trkpt>
      <trkpt lat="44.99366" lon="6.15044">
        <ele>2497.2</ele>
        <time>2022-12-29T14:38:02Z</time>
      </trkpt>
      <trkpt lat="44.99366" lon="6.15044">
        <ele>2497.2</ele>
        <time>2022-12-29T14:38:03Z</time>
      </trkpt>
      <trkpt lat="44.99366" lon="6.15044">
        <ele>2497.2</ele>
        <time>2022-12-29T14:38:04Z</time>
      </trkpt>
      <trkpt lat="44.99366" lon="6.15044">
        <ele>2497.2</ele>
        <time>2022-12-29T14:38:05Z</time>
      </trkpt>
      <trkpt lat="44.99366" lon="6.15044">
        <ele>2496.8</ele>
        <time>2022-12-29T14:38:06Z</time>
      </trkpt>
      <trkpt lat="44.99365" lon="6.15045">
        <ele>2496.8</ele>
        <time>2022-12-29T14:38:07Z</time>
      </trkpt>
      <trkpt lat="44.99365" lon="6.15045">
        <ele>2496.8</ele>
        <time>2022-12-29T14:38:08Z</time>
      </trkpt>
      <trkpt lat="44.99365" lon="6.15045">
        <ele>2496.8</ele>
        <time>2022-12-29T14:38:09Z</time>
      </trkpt>
      <trkpt lat="44.99365" lon="6.15045">
        <ele>2496.8</ele>
        <time>2022-12-29T14:38:10Z</time>
      </trkpt>
      <trkpt lat="44.99364" lon="6.15045">
        <ele>2496.8</ele>
        <time>2022-12-29T14:38:11Z</time>
      </trkpt>
      <trkpt lat="44.99364" lon="6.15045">
        <ele>2496.8</ele>
        <time>2022-12-29T14:38:12Z</time>
      </trkpt>
      <trkpt lat="44.99364" lon="6.15045">
        <ele>2496.8</ele>
        <time>2022-12-29T14:38:13Z</time>
      </trkpt>
      <trkpt lat="44.99364" lon="6.15045">
        <ele>2496.8</ele>
        <time>2022-12-29T14:38:14Z</time>
      </trkpt>
      <trkpt lat="44.99363" lon="6.15045">
        <ele>2496.8</ele>
        <time>2022-12-29T14:38:15Z</time>
      </trkpt>
      <trkpt lat="44.99363" lon="6.15045">
        <ele>2496.4</ele>
        <time>2022-12-29T14:38:16Z</time>
      </trkpt>
      <trkpt lat="44.99363" lon="6.15045">
        <ele>2496.4</ele>
        <time>2022-12-29T14:38:17Z</time>
      </trkpt>
      <trkpt lat="44.99363" lon="6.15045">
        <ele>2496.4</ele>
        <time>2022-12-29T14:38:18Z</time>
      </trkpt>
      <trkpt lat="44.99363" lon="6.15045">
        <ele>2496.4</ele>
        <time>2022-12-29T14:38:19Z</time>
      </trkpt>
      <trkpt lat="44.99362" lon="6.15045">
        <ele>2496.4</ele>
        <time>2022-12-29T14:38:20Z</time>
      </trkpt>
      <trkpt lat="44.99362" lon="6.15045">
        <ele>2496.4</ele>
        <time>2022-12-29T14:38:21Z</time>
      </trkpt>
      <trkpt lat="44.99362" lon="6.15045">
        <ele>2496.4</ele>
        <time>2022-12-29T14:38:22Z</time>
      </trkpt>
      <trkpt lat="44.99362" lon="6.15045">
        <ele>2496.4</ele>
        <time>2022-12-29T14:38:23Z</time>
      </trkpt>
      <trkpt lat="44.99361" lon="6.15045">
        <ele>2496.4</ele>
        <time>2022-12-29T14:38:24Z</time>
      </trkpt>
      <trkpt lat="44.99361" lon="6.15045">
        <ele>2496.4</ele>
        <time>2022-12-29T14:38:25Z</time>
      </trkpt>
      <trkpt lat="44.99361" lon="6.15045">
        <ele>2497.8</ele>
        <time>2022-12-29T14:38:26Z</time>
      </trkpt>
      <trkpt lat="44.99361" lon="6.15045">
        <ele>2497.8</ele>
        <time>2022-12-29T14:38:27Z</time>
      </trkpt>
      <trkpt lat="44.9936" lon="6.15045">
        <ele>2497.8</ele>
        <time>2022-12-29T14:38:28Z</time>
      </trkpt>
      <trkpt lat="44.9936" lon="6.15045">
        <ele>2497.8</ele>
        <time>2022-12-29T14:38:29Z</time>
      </trkpt>
      <trkpt lat="44.9936" lon="6.15045">
        <ele>2497.8</ele>
        <time>2022-12-29T14:38:30Z</time>
      </trkpt>
      <trkpt lat="44.9936" lon="6.15045">
        <ele>2497.8</ele>
        <time>2022-12-29T14:38:31Z</time>
      </trkpt>
      <trkpt lat="44.9936" lon="6.15045">
        <ele>2497.8</ele>
        <time>2022-12-29T14:38:32Z</time>
      </trkpt>
      <trkpt lat="44.99359" lon="6.15045">
        <ele>2497.8</ele>
        <time>2022-12-29T14:38:33Z</time>
      </trkpt>
      <trkpt lat="44.99359" lon="6.15045">
        <ele>2497.8</ele>
        <time>2022-12-29T14:38:34Z</time>
      </trkpt>
      <trkpt lat="44.99359" lon="6.15045">
        <ele>2497.8</ele>
        <time>2022-12-29T14:38:35Z</time>
      </trkpt>
      <trkpt lat="44.99359" lon="6.15046">
        <ele>2498.4</ele>
        <time>2022-12-29T14:38:36Z</time>
      </trkpt>
      <trkpt lat="44.99358" lon="6.15046">
        <ele>2498.4</ele>
        <time>2022-12-29T14:38:37Z</time>
      </trkpt>
      <trkpt lat="44.99358" lon="6.15046">
        <ele>2498.4</ele>
        <time>2022-12-29T14:38:38Z</time>
      </trkpt>
      <trkpt lat="44.99358" lon="6.15046">
        <ele>2498.4</ele>
        <time>2022-12-29T14:38:39Z</time>
      </trkpt>
      <trkpt lat="44.99358" lon="6.15046">
        <ele>2498.4</ele>
        <time>2022-12-29T14:38:40Z</time>
      </trkpt>
      <trkpt lat="44.99357" lon="6.15046">
        <ele>2498.4</ele>
        <time>2022-12-29T14:38:41Z</time>
      </trkpt>
      <trkpt lat="44.99357" lon="6.15046">
        <ele>2498.4</ele>
        <time>2022-12-29T14:38:42Z</time>
      </trkpt>
      <trkpt lat="44.99357" lon="6.15046">
        <ele>2498.4</ele>
        <time>2022-12-29T14:38:43Z</time>
      </trkpt>
      <trkpt lat="44.99357" lon="6.15046">
        <ele>2498.4</ele>
        <time>2022-12-29T14:38:44Z</time>
      </trkpt>
      <trkpt lat="44.99357" lon="6.15046">
        <ele>2498.4</ele>
        <time>2022-12-29T14:38:45Z</time>
      </trkpt>
      <trkpt lat="44.99356" lon="6.15046">
        <ele>2497.4</ele>
        <time>2022-12-29T14:38:46Z</time>
      </trkpt>
      <trkpt lat="44.99356" lon="6.15046">
        <ele>2497.4</ele>
        <time>2022-12-29T14:38:47Z</time>
      </trkpt>
      <trkpt lat="44.99356" lon="6.15046">
        <ele>2497.4</ele>
        <time>2022-12-29T14:38:48Z</time>
      </trkpt>
      <trkpt lat="44.99356" lon="6.15046">
        <ele>2497.4</ele>
        <time>2022-12-29T14:38:49Z</time>
      </trkpt>
      <trkpt lat="44.99355" lon="6.15046">
        <ele>2497.4</ele>
        <time>2022-12-29T14:38:50Z</time>
      </trkpt>
      <trkpt lat="44.99355" lon="6.15046">
        <ele>2497.4</ele>
        <time>2022-12-29T14:38:51Z</time>
      </trkpt>
      <trkpt lat="44.99355" lon="6.15046">
        <ele>2497.4</ele>
        <time>2022-12-29T14:38:52Z</time>
      </trkpt>
      <trkpt lat="44.99355" lon="6.15046">
        <ele>2497.4</ele>
        <time>2022-12-29T14:38:53Z</time>
      </trkpt>
      <trkpt lat="44.99354" lon="6.15046">
        <ele>2497.4</ele>
        <time>2022-12-29T14:38:54Z</time>
      </trkpt>
      <trkpt lat="44.99354" lon="6.15046">
        <ele>2497.4</ele>
        <time>2022-12-29T14:38:55Z</time>
      </trkpt>
      <trkpt lat="44.99354" lon="6.15046">
        <ele>2497.4</ele>
        <time>2022-12-29T14:38:56Z</time>
      </trkpt>
      <trkpt lat="44.99354" lon="6.15046">
        <ele>2497.4</ele>
        <time>2022-12-29T14:38:57Z</time>
      </trkpt>
      <trkpt lat="44.99354" lon="6.15046">
        <ele>2497.4</ele>
        <time>2022-12-29T14:38:58Z</time>
      </trkpt>
      <trkpt lat="44.99353" lon="6.15046">
        <ele>2497.4</ele>
        <time>2022-12-29T14:38:59Z</time>
      </trkpt>
      <trkpt lat="44.99353" lon="6.15046">
        <ele>2496.6</ele>
        <time>2022-12-29T14:39:06Z</time>
      </trkpt>
      <trkpt lat="44.99353" lon="6.15046">
        <ele>2496.6</ele>
        <time>2022-12-29T14:39:09Z</time>
      </trkpt>
      <trkpt lat="44.99353" lon="6.15046">
        <ele>2496.6</ele>
        <time>2022-12-29T14:39:10Z</time>
      </trkpt>
      <trkpt lat="44.99352" lon="6.15046">
        <ele>2496.6</ele>
        <time>2022-12-29T14:39:11Z</time>
      </trkpt>
      <trkpt lat="44.99352" lon="6.15046">
        <ele>2496.6</ele>
        <time>2022-12-29T14:39:12Z</time>
      </trkpt>
      <trkpt lat="44.99352" lon="6.15047">
        <ele>2496.6</ele>
        <time>2022-12-29T14:39:13Z</time>
      </trkpt>
      <trkpt lat="44.99352" lon="6.15047">
        <ele>2496.6</ele>
        <time>2022-12-29T14:39:14Z</time>
      </trkpt>
      <trkpt lat="44.99351" lon="6.15047">
        <ele>2496.6</ele>
        <time>2022-12-29T14:39:15Z</time>
      </trkpt>
      <trkpt lat="44.99351" lon="6.15047">
        <ele>2497</ele>
        <time>2022-12-29T14:39:16Z</time>
      </trkpt>
      <trkpt lat="44.99351" lon="6.15047">
        <ele>2497</ele>
        <time>2022-12-29T14:39:17Z</time>
      </trkpt>
      <trkpt lat="44.99351" lon="6.15047">
        <ele>2497</ele>
        <time>2022-12-29T14:39:18Z</time>
      </trkpt>
      <trkpt lat="44.99351" lon="6.15047">
        <ele>2497</ele>
        <time>2022-12-29T14:39:19Z</time>
      </trkpt>
      <trkpt lat="44.9935" lon="6.15047">
        <ele>2497</ele>
        <time>2022-12-29T14:39:20Z</time>
      </trkpt>
      <trkpt lat="44.9935" lon="6.15047">
        <ele>2497</ele>
        <time>2022-12-29T14:39:21Z</time>
      </trkpt>
      <trkpt lat="44.9935" lon="6.15047">
        <ele>2497</ele>
        <time>2022-12-29T14:39:22Z</time>
      </trkpt>
      <trkpt lat="44.9935" lon="6.15047">
        <ele>2497</ele>
        <time>2022-12-29T14:39:23Z</time>
      </trkpt>
      <trkpt lat="44.99349" lon="6.15047">
        <ele>2497</ele>
        <time>2022-12-29T14:39:24Z</time>
      </trkpt>
      <trkpt lat="44.99349" lon="6.15047">
        <ele>2497</ele>
        <time>2022-12-29T14:39:25Z</time>
      </trkpt>
      <trkpt lat="44.99349" lon="6.15047">
        <ele>2497.2</ele>
        <time>2022-12-29T14:39:26Z</time>
      </trkpt>
      <trkpt lat="44.99349" lon="6.15047">
        <ele>2497.2</ele>
        <time>2022-12-29T14:39:27Z</time>
      </trkpt>
      <trkpt lat="44.99348" lon="6.15047">
        <ele>2497.2</ele>
        <time>2022-12-29T14:39:28Z</time>
      </trkpt>
      <trkpt lat="44.99348" lon="6.15047">
        <ele>2497.2</ele>
        <time>2022-12-29T14:39:29Z</time>
      </trkpt>
      <trkpt lat="44.99348" lon="6.15047">
        <ele>2497.2</ele>
        <time>2022-12-29T14:39:30Z</time>
      </trkpt>
      <trkpt lat="44.99348" lon="6.15047">
        <ele>2497.2</ele>
        <time>2022-12-29T14:39:31Z</time>
      </trkpt>
      <trkpt lat="44.99347" lon="6.15047">
        <ele>2497.2</ele>
        <time>2022-12-29T14:39:32Z</time>
      </trkpt>
      <trkpt lat="44.99347" lon="6.15047">
        <ele>2497.2</ele>
        <time>2022-12-29T14:39:33Z</time>
      </trkpt>
      <trkpt lat="44.99347" lon="6.15047">
        <ele>2497.2</ele>
        <time>2022-12-29T14:39:34Z</time>
      </trkpt>
      <trkpt lat="44.99347" lon="6.15047">
        <ele>2497.2</ele>
        <time>2022-12-29T14:39:35Z</time>
      </trkpt>
      <trkpt lat="44.99347" lon="6.15047">
        <ele>2497.2</ele>
        <time>2022-12-29T14:39:36Z</time>
      </trkpt>
      <trkpt lat="44.99346" lon="6.15047">
        <ele>2497.2</ele>
        <time>2022-12-29T14:39:37Z</time>
      </trkpt>
      <trkpt lat="44.99346" lon="6.15047">
        <ele>2497.2</ele>
        <time>2022-12-29T14:39:38Z</time>
      </trkpt>
      <trkpt lat="44.99346" lon="6.15047">
        <ele>2497.2</ele>
        <time>2022-12-29T14:39:39Z</time>
      </trkpt>
      <trkpt lat="44.99346" lon="6.15047">
        <ele>2497.2</ele>
        <time>2022-12-29T14:39:40Z</time>
      </trkpt>
      <trkpt lat="44.99345" lon="6.15047">
        <ele>2497.2</ele>
        <time>2022-12-29T14:39:41Z</time>
      </trkpt>
      <trkpt lat="44.99345" lon="6.15048">
        <ele>2497.2</ele>
        <time>2022-12-29T14:39:42Z</time>
      </trkpt>
      <trkpt lat="44.99345" lon="6.15048">
        <ele>2497.2</ele>
        <time>2022-12-29T14:39:43Z</time>
      </trkpt>
      <trkpt lat="44.99345" lon="6.15048">
        <ele>2497.2</ele>
        <time>2022-12-29T14:39:44Z</time>
      </trkpt>
      <trkpt lat="44.99344" lon="6.15048">
        <ele>2497.2</ele>
        <time>2022-12-29T14:39:45Z</time>
      </trkpt>
      <trkpt lat="44.99344" lon="6.15048">
        <ele>2497.8</ele>
        <time>2022-12-29T14:39:46Z</time>
      </trkpt>
      <trkpt lat="44.99344" lon="6.15048">
        <ele>2497.8</ele>
        <time>2022-12-29T14:39:47Z</time>
      </trkpt>
      <trkpt lat="44.99344" lon="6.15048">
        <ele>2497.8</ele>
        <time>2022-12-29T14:39:48Z</time>
      </trkpt>
      <trkpt lat="44.99344" lon="6.15048">
        <ele>2497.8</ele>
        <time>2022-12-29T14:39:49Z</time>
      </trkpt>
      <trkpt lat="44.99343" lon="6.15048">
        <ele>2497.8</ele>
        <time>2022-12-29T14:39:50Z</time>
      </trkpt>
      <trkpt lat="44.99343" lon="6.15048">
        <ele>2497.8</ele>
        <time>2022-12-29T14:39:51Z</time>
      </trkpt>
      <trkpt lat="44.99343" lon="6.15048">
        <ele>2497.8</ele>
        <time>2022-12-29T14:39:52Z</time>
      </trkpt>
      <trkpt lat="44.99343" lon="6.15048">
        <ele>2497.8</ele>
        <time>2022-12-29T14:39:53Z</time>
      </trkpt>
      <trkpt lat="44.99342" lon="6.15048">
        <ele>2497.8</ele>
        <time>2022-12-29T14:39:54Z</time>
      </trkpt>
      <trkpt lat="44.99342" lon="6.15048">
        <ele>2497.8</ele>
        <time>2022-12-29T14:39:55Z</time>
      </trkpt>
      <trkpt lat="44.99342" lon="6.15048">
        <ele>2497.2</ele>
        <time>2022-12-29T14:39:56Z</time>
      </trkpt>
      <trkpt lat="44.99342" lon="6.15048">
        <ele>2497.2</ele>
        <time>2022-12-29T14:39:57Z</time>
      </trkpt>
      <trkpt lat="44.99341" lon="6.15048">
        <ele>2497.2</ele>
        <time>2022-12-29T14:39:58Z</time>
      </trkpt>
      <trkpt lat="44.99341" lon="6.15048">
        <ele>2497.2</ele>
        <time>2022-12-29T14:39:59Z</time>
      </trkpt>
      <trkpt lat="44.99341" lon="6.15048">
        <ele>2497.2</ele>
        <time>2022-12-29T14:40:00Z</time>
      </trkpt>
      <trkpt lat="44.99341" lon="6.15048">
        <ele>2497.2</ele>
        <time>2022-12-29T14:40:01Z</time>
      </trkpt>
      <trkpt lat="44.99341" lon="6.15048">
        <ele>2497.2</ele>
        <time>2022-12-29T14:40:02Z</time>
      </trkpt>
      <trkpt lat="44.9934" lon="6.15048">
        <ele>2497.2</ele>
        <time>2022-12-29T14:40:03Z</time>
      </trkpt>
      <trkpt lat="44.9934" lon="6.15048">
        <ele>2497.2</ele>
        <time>2022-12-29T14:40:04Z</time>
      </trkpt>
      <trkpt lat="44.9934" lon="6.15048">
        <ele>2497.2</ele>
        <time>2022-12-29T14:40:05Z</time>
      </trkpt>
      <trkpt lat="44.9934" lon="6.15048">
        <ele>2497</ele>
        <time>2022-12-29T14:40:06Z</time>
      </trkpt>
      <trkpt lat="44.99339" lon="6.15048">
        <ele>2497</ele>
        <time>2022-12-29T14:40:07Z</time>
      </trkpt>
      <trkpt lat="44.99339" lon="6.15048">
        <ele>2497</ele>
        <time>2022-12-29T14:40:08Z</time>
      </trkpt>
      <trkpt lat="44.99339" lon="6.15048">
        <ele>2497</ele>
        <time>2022-12-29T14:40:09Z</time>
      </trkpt>
      <trkpt lat="44.99339" lon="6.15049">
        <ele>2497</ele>
        <time>2022-12-29T14:40:10Z</time>
      </trkpt>
      <trkpt lat="44.99338" lon="6.15049">
        <ele>2497</ele>
        <time>2022-12-29T14:40:11Z</time>
      </trkpt>
      <trkpt lat="44.99338" lon="6.15049">
        <ele>2497</ele>
        <time>2022-12-29T14:40:12Z</time>
      </trkpt>
      <trkpt lat="44.99338" lon="6.15049">
        <ele>2497</ele>
        <time>2022-12-29T14:40:13Z</time>
      </trkpt>
      <trkpt lat="44.99338" lon="6.15049">
        <ele>2497</ele>
        <time>2022-12-29T14:40:14Z</time>
      </trkpt>
      <trkpt lat="44.99338" lon="6.15049">
        <ele>2497</ele>
        <time>2022-12-29T14:40:15Z</time>
      </trkpt>
      <trkpt lat="44.99337" lon="6.15049">
        <ele>2493.4</ele>
        <time>2022-12-29T14:40:16Z</time>
      </trkpt>
      <trkpt lat="44.99327" lon="6.15049">
        <ele>2493.4</ele>
        <time>2022-12-29T14:40:17Z</time>
      </trkpt>
      <trkpt lat="44.99322" lon="6.15049">
        <ele>2493.4</ele>
        <time>2022-12-29T14:40:18Z</time>
      </trkpt>
      <trkpt lat="44.99318" lon="6.15049">
        <ele>2493.4</ele>
        <time>2022-12-29T14:40:19Z</time>
      </trkpt>
      <trkpt lat="44.99313" lon="6.15049">
        <ele>2493.4</ele>
        <time>2022-12-29T14:40:20Z</time>
      </trkpt>
      <trkpt lat="44.99309" lon="6.15049">
        <ele>2493.4</ele>
        <time>2022-12-29T14:40:21Z</time>
      </trkpt>
      <trkpt lat="44.99304" lon="6.15049">
        <ele>2493.4</ele>
        <time>2022-12-29T14:40:22Z</time>
      </trkpt>
      <trkpt lat="44.99299" lon="6.15049">
        <ele>2493.4</ele>
        <time>2022-12-29T14:40:23Z</time>
      </trkpt>
      <trkpt lat="44.99295" lon="6.15049">
        <ele>2493.4</ele>
        <time>2022-12-29T14:40:24Z</time>
      </trkpt>
      <trkpt lat="44.9929" lon="6.15049">
        <ele>2493.4</ele>
        <time>2022-12-29T14:40:25Z</time>
      </trkpt>
      <trkpt lat="44.99286" lon="6.15049">
        <ele>2484.8</ele>
        <time>2022-12-29T14:40:26Z</time>
      </trkpt>
      <trkpt lat="44.99284" lon="6.15039">
        <ele>2484.8</ele>
        <time>2022-12-29T14:40:27Z</time>
      </trkpt>
      <trkpt lat="44.99288" lon="6.15034">
        <ele>2484.8</ele>
        <time>2022-12-29T14:40:28Z</time>
      </trkpt>
      <trkpt lat="44.99291" lon="6.15028">
        <ele>2484.8</ele>
        <time>2022-12-29T14:40:29Z</time>
      </trkpt>
      <trkpt lat="44.99295" lon="6.15023">
        <ele>2484.8</ele>
        <time>2022-12-29T14:40:30Z</time>
      </trkpt>
      <trkpt lat="44.99298" lon="6.15017">
        <ele>2484.8</ele>
        <time>2022-12-29T14:40:31Z</time>
      </trkpt>
      <trkpt lat="44.99301" lon="6.15012">
        <ele>2484.8</ele>
        <time>2022-12-29T14:40:32Z</time>
      </trkpt>
      <trkpt lat="44.99305" lon="6.15006">
        <ele>2484.8</ele>
        <time>2022-12-29T14:40:33Z</time>
      </trkpt>
      <trkpt lat="44.99308" lon="6.15001">
        <ele>2484.8</ele>
        <time>2022-12-29T14:40:34Z</time>
      </trkpt>
      <trkpt lat="44.99312" lon="6.14995">
        <ele>2484.8</ele>
        <time>2022-12-29T14:40:35Z</time>
      </trkpt>
      <trkpt lat="44.99315" lon="6.1499">
        <ele>2467.4</ele>
        <time>2022-12-29T14:40:36Z</time>
      </trkpt>
      <trkpt lat="44.99327" lon="6.14981">
        <ele>2467.4</ele>
        <time>2022-12-29T14:40:37Z</time>
      </trkpt>
      <trkpt lat="44.99333" lon="6.14976">
        <ele>2467.4</ele>
        <time>2022-12-29T14:40:38Z</time>
      </trkpt>
      <trkpt lat="44.99339" lon="6.14971">
        <ele>2467.4</ele>
        <time>2022-12-29T14:40:39Z</time>
      </trkpt>
      <trkpt lat="44.99345" lon="6.14965">
        <ele>2467.4</ele>
        <time>2022-12-29T14:40:40Z</time>
      </trkpt>
      <trkpt lat="44.99351" lon="6.1496">
        <ele>2467.4</ele>
        <time>2022-12-29T14:40:41Z</time>
      </trkpt>
      <trkpt lat="44.99356" lon="6.14955">
        <ele>2467.4</ele>
        <time>2022-12-29T14:40:42Z</time>
      </trkpt>
      <trkpt lat="44.99362" lon="6.1495">
        <ele>2467.4</ele>
        <time>2022-12-29T14:40:43Z</time>
      </trkpt>
      <trkpt lat="44.99368" lon="6.14945">
        <ele>2467.4</ele>
        <time>2022-12-29T14:40:44Z</time>
      </trkpt>
      <trkpt lat="44.99374" lon="6.1494">
        <ele>2467.4</ele>
        <time>2022-12-29T14:40:45Z</time>
      </trkpt>
      <trkpt lat="44.99379" lon="6.14935">
        <ele>2448.6</ele>
        <time>2022-12-29T14:40:46Z</time>
      </trkpt>
      <trkpt lat="44.9939" lon="6.14929">
        <ele>2448.6</ele>
        <time>2022-12-29T14:40:47Z</time>
      </trkpt>
      <trkpt lat="44.99394" lon="6.14927">
        <ele>2448.6</ele>
        <time>2022-12-29T14:40:48Z</time>
      </trkpt>
      <trkpt lat="44.99398" lon="6.14925">
        <ele>2448.6</ele>
        <time>2022-12-29T14:40:49Z</time>
      </trkpt>
      <trkpt lat="44.99402" lon="6.14923">
        <ele>2448.6</ele>
        <time>2022-12-29T14:40:50Z</time>
      </trkpt>
      <trkpt lat="44.99406" lon="6.14921">
        <ele>2448.6</ele>
        <time>2022-12-29T14:40:51Z</time>
      </trkpt>
      <trkpt lat="44.9941" lon="6.14918">
        <ele>2448.6</ele>
        <time>2022-12-29T14:40:52Z</time>
      </trkpt>
      <trkpt lat="44.99413" lon="6.14916">
        <ele>2448.6</ele>
        <time>2022-12-29T14:40:53Z</time>
      </trkpt>
      <trkpt lat="44.99417" lon="6.14914">
        <ele>2448.6</ele>
        <time>2022-12-29T14:40:54Z</time>
      </trkpt>
      <trkpt lat="44.99421" lon="6.14912">
        <ele>2448.6</ele>
        <time>2022-12-29T14:40:55Z</time>
      </trkpt>
      <trkpt lat="44.99425" lon="6.1491">
        <ele>2441.2</ele>
        <time>2022-12-29T14:40:56Z</time>
      </trkpt>
      <trkpt lat="44.99432" lon="6.14908">
        <ele>2441.2</ele>
        <time>2022-12-29T14:40:57Z</time>
      </trkpt>
      <trkpt lat="44.99435" lon="6.14906">
        <ele>2441.2</ele>
        <time>2022-12-29T14:40:58Z</time>
      </trkpt>
      <trkpt lat="44.99439" lon="6.14903">
        <ele>2441.2</ele>
        <time>2022-12-29T14:40:59Z</time>
      </trkpt>
      <trkpt lat="44.99443" lon="6.149">
        <ele>2441.2</ele>
        <time>2022-12-29T14:41:00Z</time>
      </trkpt>
      <trkpt lat="44.99446" lon="6.14898">
        <ele>2441.2</ele>
        <time>2022-12-29T14:41:01Z</time>
      </trkpt>
      <trkpt lat="44.9945" lon="6.14895">
        <ele>2441.2</ele>
        <time>2022-12-29T14:41:02Z</time>
      </trkpt>
      <trkpt lat="44.99453" lon="6.14893">
        <ele>2441.2</ele>
        <time>2022-12-29T14:41:03Z</time>
      </trkpt>
      <trkpt lat="44.99457" lon="6.1489">
        <ele>2441.2</ele>
        <time>2022-12-29T14:41:04Z</time>
      </trkpt>
      <trkpt lat="44.9946" lon="6.14888">
        <ele>2441.2</ele>
        <time>2022-12-29T14:41:05Z</time>
      </trkpt>
      <trkpt lat="44.99464" lon="6.14885">
        <ele>2429.2</ele>
        <time>2022-12-29T14:41:06Z</time>
      </trkpt>
      <trkpt lat="44.99473" lon="6.1488">
        <ele>2429.2</ele>
        <time>2022-12-29T14:41:07Z</time>
      </trkpt>
      <trkpt lat="44.99478" lon="6.14877">
        <ele>2429.2</ele>
        <time>2022-12-29T14:41:08Z</time>
      </trkpt>
      <trkpt lat="44.99482" lon="6.14875">
        <ele>2429.2</ele>
        <time>2022-12-29T14:41:09Z</time>
      </trkpt>
      <trkpt lat="44.99487" lon="6.14873">
        <ele>2429.2</ele>
        <time>2022-12-29T14:41:10Z</time>
      </trkpt>
      <trkpt lat="44.99492" lon="6.14871">
        <ele>2429.2</ele>
        <time>2022-12-29T14:41:11Z</time>
      </trkpt>
      <trkpt lat="44.99496" lon="6.14869">
        <ele>2429.2</ele>
        <time>2022-12-29T14:41:12Z</time>
      </trkpt>
      <trkpt lat="44.99501" lon="6.14866">
        <ele>2429.2</ele>
        <time>2022-12-29T14:41:13Z</time>
      </trkpt>
      <trkpt lat="44.99506" lon="6.14864">
        <ele>2429.2</ele>
        <time>2022-12-29T14:41:14Z</time>
      </trkpt>
      <trkpt lat="44.9951" lon="6.14862">
        <ele>2429.2</ele>
        <time>2022-12-29T14:41:15Z</time>
      </trkpt>
      <trkpt lat="44.99515" lon="6.1486">
        <ele>2411</ele>
        <time>2022-12-29T14:41:16Z</time>
      </trkpt>
      <trkpt lat="44.99521" lon="6.14856">
        <ele>2411</ele>
        <time>2022-12-29T14:41:17Z</time>
      </trkpt>
      <trkpt lat="44.99529" lon="6.1485">
        <ele>2411</ele>
        <time>2022-12-29T14:41:18Z</time>
      </trkpt>
      <trkpt lat="44.99535" lon="6.14846">
        <ele>2411</ele>
        <time>2022-12-29T14:41:19Z</time>
      </trkpt>
      <trkpt lat="44.99544" lon="6.14844">
        <ele>2411</ele>
        <time>2022-12-29T14:41:20Z</time>
      </trkpt>
      <trkpt lat="44.99553" lon="6.1484">
        <ele>2411</ele>
        <time>2022-12-29T14:41:21Z</time>
      </trkpt>
      <trkpt lat="44.99562" lon="6.14835">
        <ele>2411</ele>
        <time>2022-12-29T14:41:22Z</time>
      </trkpt>
      <trkpt lat="44.99571" lon="6.1483">
        <ele>2411</ele>
        <time>2022-12-29T14:41:23Z</time>
      </trkpt>
      <trkpt lat="44.99581" lon="6.14826">
        <ele>2411</ele>
        <time>2022-12-29T14:41:24Z</time>
      </trkpt>
      <trkpt lat="44.9959" lon="6.14822">
        <ele>2411</ele>
        <time>2022-12-29T14:41:25Z</time>
      </trkpt>
      <trkpt lat="44.99599" lon="6.14818">
        <ele>2385.2</ele>
        <time>2022-12-29T14:41:26Z</time>
      </trkpt>
      <trkpt lat="44.99612" lon="6.14814">
        <ele>2385.2</ele>
        <time>2022-12-29T14:41:27Z</time>
      </trkpt>
      <trkpt lat="44.99617" lon="6.14813">
        <ele>2385.2</ele>
        <time>2022-12-29T14:41:28Z</time>
      </trkpt>
      <trkpt lat="44.99621" lon="6.14812">
        <ele>2385.2</ele>
        <time>2022-12-29T14:41:29Z</time>
      </trkpt>
      <trkpt lat="44.99625" lon="6.14811">
        <ele>2385.2</ele>
        <time>2022-12-29T14:41:30Z</time>
      </trkpt>
      <trkpt lat="44.9963" lon="6.14811">
        <ele>2385.2</ele>
        <time>2022-12-29T14:41:31Z</time>
      </trkpt>
      <trkpt lat="44.99634" lon="6.1481">
        <ele>2385.2</ele>
        <time>2022-12-29T14:41:32Z</time>
      </trkpt>
      <trkpt lat="44.99639" lon="6.14809">
        <ele>2385.2</ele>
        <time>2022-12-29T14:41:33Z</time>
      </trkpt>
      <trkpt lat="44.99643" lon="6.14808">
        <ele>2385.2</ele>
        <time>2022-12-29T14:41:34Z</time>
      </trkpt>
      <trkpt lat="44.99647" lon="6.14808">
        <ele>2385.2</ele>
        <time>2022-12-29T14:41:35Z</time>
      </trkpt>
      <trkpt lat="44.99652" lon="6.14807">
        <ele>2381</ele>
        <time>2022-12-29T14:41:36Z</time>
      </trkpt>
      <trkpt lat="44.99653" lon="6.14804">
        <ele>2381</ele>
        <time>2022-12-29T14:41:37Z</time>
      </trkpt>
      <trkpt lat="44.99653" lon="6.14802">
        <ele>2381</ele>
        <time>2022-12-29T14:41:38Z</time>
      </trkpt>
      <trkpt lat="44.99654" lon="6.14801">
        <ele>2381</ele>
        <time>2022-12-29T14:41:39Z</time>
      </trkpt>
      <trkpt lat="44.99654" lon="6.14799">
        <ele>2381</ele>
        <time>2022-12-29T14:41:40Z</time>
      </trkpt>
      <trkpt lat="44.99654" lon="6.14797">
        <ele>2381</ele>
        <time>2022-12-29T14:41:41Z</time>
      </trkpt>
      <trkpt lat="44.99655" lon="6.14795">
        <ele>2381</ele>
        <time>2022-12-29T14:41:42Z</time>
      </trkpt>
      <trkpt lat="44.99655" lon="6.14793">
        <ele>2381</ele>
        <time>2022-12-29T14:41:43Z</time>
      </trkpt>
      <trkpt lat="44.99655" lon="6.14791">
        <ele>2381</ele>
        <time>2022-12-29T14:41:44Z</time>
      </trkpt>
      <trkpt lat="44.99656" lon="6.14789">
        <ele>2381</ele>
        <time>2022-12-29T14:41:45Z</time>
      </trkpt>
      <trkpt lat="44.99656" lon="6.14787">
        <ele>2381.2</ele>
        <time>2022-12-29T14:41:46Z</time>
      </trkpt>
      <trkpt lat="44.99657" lon="6.14781">
        <ele>2381.2</ele>
        <time>2022-12-29T14:41:47Z</time>
      </trkpt>
      <trkpt lat="44.99658" lon="6.14778">
        <ele>2381.2</ele>
        <time>2022-12-29T14:41:48Z</time>
      </trkpt>
      <trkpt lat="44.99658" lon="6.14775">
        <ele>2381.2</ele>
        <time>2022-12-29T14:41:49Z</time>
      </trkpt>
      <trkpt lat="44.99659" lon="6.14772">
        <ele>2381.2</ele>
        <time>2022-12-29T14:41:50Z</time>
      </trkpt>
      <trkpt lat="44.9966" lon="6.14769">
        <ele>2381.2</ele>
        <time>2022-12-29T14:41:51Z</time>
      </trkpt>
      <trkpt lat="44.9966" lon="6.14766">
        <ele>2381.2</ele>
        <time>2022-12-29T14:41:52Z</time>
      </trkpt>
      <trkpt lat="44.99661" lon="6.14763">
        <ele>2381.2</ele>
        <time>2022-12-29T14:41:53Z</time>
      </trkpt>
      <trkpt lat="44.99662" lon="6.1476">
        <ele>2381.2</ele>
        <time>2022-12-29T14:41:54Z</time>
      </trkpt>
      <trkpt lat="44.99662" lon="6.14757">
        <ele>2381.2</ele>
        <time>2022-12-29T14:41:55Z</time>
      </trkpt>
      <trkpt lat="44.99663" lon="6.14754">
        <ele>2380.4</ele>
        <time>2022-12-29T14:41:56Z</time>
      </trkpt>
      <trkpt lat="44.99664" lon="6.14749">
        <ele>2380.4</ele>
        <time>2022-12-29T14:41:57Z</time>
      </trkpt>
      <trkpt lat="44.99665" lon="6.14747">
        <ele>2380.4</ele>
        <time>2022-12-29T14:41:58Z</time>
      </trkpt>
      <trkpt lat="44.99666" lon="6.14745">
        <ele>2380.4</ele>
        <time>2022-12-29T14:41:59Z</time>
      </trkpt>
      <trkpt lat="44.99666" lon="6.14742">
        <ele>2380.4</ele>
        <time>2022-12-29T14:42:00Z</time>
      </trkpt>
      <trkpt lat="44.99667" lon="6.1474">
        <ele>2380.4</ele>
        <time>2022-12-29T14:42:01Z</time>
      </trkpt>
      <trkpt lat="44.99668" lon="6.14737">
        <ele>2380.4</ele>
        <time>2022-12-29T14:42:02Z</time>
      </trkpt>
      <trkpt lat="44.99669" lon="6.14735">
        <ele>2380.4</ele>
        <time>2022-12-29T14:42:03Z</time>
      </trkpt>
      <trkpt lat="44.9967" lon="6.14732">
        <ele>2380.4</ele>
        <time>2022-12-29T14:42:04Z</time>
      </trkpt>
      <trkpt lat="44.9967" lon="6.1473">
        <ele>2380.4</ele>
        <time>2022-12-29T14:42:05Z</time>
      </trkpt>
      <trkpt lat="44.99671" lon="6.14727">
        <ele>2379.8</ele>
        <time>2022-12-29T14:42:06Z</time>
      </trkpt>
      <trkpt lat="44.99673" lon="6.14724">
        <ele>2379.8</ele>
        <time>2022-12-29T14:42:07Z</time>
      </trkpt>
      <trkpt lat="44.99675" lon="6.14722">
        <ele>2379.8</ele>
        <time>2022-12-29T14:42:08Z</time>
      </trkpt>
      <trkpt lat="44.99676" lon="6.14721">
        <ele>2379.8</ele>
        <time>2022-12-29T14:42:09Z</time>
      </trkpt>
      <trkpt lat="44.99677" lon="6.1472">
        <ele>2379.8</ele>
        <time>2022-12-29T14:42:10Z</time>
      </trkpt>
      <trkpt lat="44.99678" lon="6.14718">
        <ele>2379.8</ele>
        <time>2022-12-29T14:42:11Z</time>
      </trkpt>
      <trkpt lat="44.99679" lon="6.14717">
        <ele>2379.8</ele>
        <time>2022-12-29T14:42:12Z</time>
      </trkpt>
      <trkpt lat="44.9968" lon="6.14716">
        <ele>2379.8</ele>
        <time>2022-12-29T14:42:13Z</time>
      </trkpt>
      <trkpt lat="44.99681" lon="6.14715">
        <ele>2379.8</ele>
        <time>2022-12-29T14:42:14Z</time>
      </trkpt>
      <trkpt lat="44.99682" lon="6.14713">
        <ele>2379.8</ele>
        <time>2022-12-29T14:42:15Z</time>
      </trkpt>
      <trkpt lat="44.99683" lon="6.14712">
        <ele>2379.2</ele>
        <time>2022-12-29T14:42:16Z</time>
      </trkpt>
      <trkpt lat="44.99686" lon="6.14711">
        <ele>2379.2</ele>
        <time>2022-12-29T14:42:17Z</time>
      </trkpt>
      <trkpt lat="44.99688" lon="6.14711">
        <ele>2379.2</ele>
        <time>2022-12-29T14:42:18Z</time>
      </trkpt>
      <trkpt lat="44.9969" lon="6.14711">
        <ele>2379.2</ele>
        <time>2022-12-29T14:42:19Z</time>
      </trkpt>
      <trkpt lat="44.99691" lon="6.1471">
        <ele>2379.2</ele>
        <time>2022-12-29T14:42:20Z</time>
      </trkpt>
      <trkpt lat="44.99693" lon="6.1471">
        <ele>2379.2</ele>
        <time>2022-12-29T14:42:21Z</time>
      </trkpt>
      <trkpt lat="44.99695" lon="6.1471">
        <ele>2379.2</ele>
        <time>2022-12-29T14:42:22Z</time>
      </trkpt>
      <trkpt lat="44.99696" lon="6.1471">
        <ele>2379.2</ele>
        <time>2022-12-29T14:42:23Z</time>
      </trkpt>
      <trkpt lat="44.99698" lon="6.1471">
        <ele>2379.2</ele>
        <time>2022-12-29T14:42:24Z</time>
      </trkpt>
      <trkpt lat="44.997" lon="6.14709">
        <ele>2379.2</ele>
        <time>2022-12-29T14:42:25Z</time>
      </trkpt>
      <trkpt lat="44.99701" lon="6.14709">
        <ele>2378.8</ele>
        <time>2022-12-29T14:42:26Z</time>
      </trkpt>
      <trkpt lat="44.99709" lon="6.14707">
        <ele>2378.8</ele>
        <time>2022-12-29T14:42:27Z</time>
      </trkpt>
      <trkpt lat="44.99713" lon="6.14706">
        <ele>2378.8</ele>
        <time>2022-12-29T14:42:28Z</time>
      </trkpt>
      <trkpt lat="44.99717" lon="6.14705">
        <ele>2378.8</ele>
        <time>2022-12-29T14:42:29Z</time>
      </trkpt>
      <trkpt lat="44.99722" lon="6.14704">
        <ele>2378.8</ele>
        <time>2022-12-29T14:42:30Z</time>
      </trkpt>
      <trkpt lat="44.99726" lon="6.14702">
        <ele>2378.8</ele>
        <time>2022-12-29T14:42:31Z</time>
      </trkpt>
      <trkpt lat="44.9973" lon="6.14701">
        <ele>2378.8</ele>
        <time>2022-12-29T14:42:32Z</time>
      </trkpt>
      <trkpt lat="44.99735" lon="6.147">
        <ele>2378.8</ele>
        <time>2022-12-29T14:42:33Z</time>
      </trkpt>
      <trkpt lat="44.99739" lon="6.14698">
        <ele>2378.8</ele>
        <time>2022-12-29T14:42:34Z</time>
      </trkpt>
      <trkpt lat="44.99743" lon="6.14697">
        <ele>2378.8</ele>
        <time>2022-12-29T14:42:35Z</time>
      </trkpt>
      <trkpt lat="44.99748" lon="6.14696">
        <ele>2375.6</ele>
        <time>2022-12-29T14:42:36Z</time>
      </trkpt>
      <trkpt lat="44.99759" lon="6.14696">
        <ele>2375.6</ele>
        <time>2022-12-29T14:42:37Z</time>
      </trkpt>
      <trkpt lat="44.99765" lon="6.14698">
        <ele>2375.6</ele>
        <time>2022-12-29T14:42:38Z</time>
      </trkpt>
      <trkpt lat="44.99771" lon="6.14699">
        <ele>2375.6</ele>
        <time>2022-12-29T14:42:39Z</time>
      </trkpt>
      <trkpt lat="44.99777" lon="6.147">
        <ele>2375.6</ele>
        <time>2022-12-29T14:42:40Z</time>
      </trkpt>
      <trkpt lat="44.99782" lon="6.14701">
        <ele>2375.6</ele>
        <time>2022-12-29T14:42:41Z</time>
      </trkpt>
      <trkpt lat="44.99788" lon="6.14702">
        <ele>2375.6</ele>
        <time>2022-12-29T14:42:42Z</time>
      </trkpt>
      <trkpt lat="44.99794" lon="6.14703">
        <ele>2375.6</ele>
        <time>2022-12-29T14:42:43Z</time>
      </trkpt>
      <trkpt lat="44.99799" lon="6.14704">
        <ele>2375.6</ele>
        <time>2022-12-29T14:42:44Z</time>
      </trkpt>
      <trkpt lat="44.99805" lon="6.14706">
        <ele>2375.6</ele>
        <time>2022-12-29T14:42:45Z</time>
      </trkpt>
      <trkpt lat="44.99811" lon="6.14707">
        <ele>2371</ele>
        <time>2022-12-29T14:42:46Z</time>
      </trkpt>
      <trkpt lat="44.99825" lon="6.14709">
        <ele>2371</ele>
        <time>2022-12-29T14:42:47Z</time>
      </trkpt>
      <trkpt lat="44.99833" lon="6.14711">
        <ele>2371</ele>
        <time>2022-12-29T14:42:48Z</time>
      </trkpt>
      <trkpt lat="44.9984" lon="6.14712">
        <ele>2371</ele>
        <time>2022-12-29T14:42:49Z</time>
      </trkpt>
      <trkpt lat="44.99847" lon="6.14714">
        <ele>2371</ele>
        <time>2022-12-29T14:42:50Z</time>
      </trkpt>
      <trkpt lat="44.99855" lon="6.14716">
        <ele>2371</ele>
        <time>2022-12-29T14:42:51Z</time>
      </trkpt>
      <trkpt lat="44.99862" lon="6.14717">
        <ele>2371</ele>
        <time>2022-12-29T14:42:52Z</time>
      </trkpt>
      <trkpt lat="44.9987" lon="6.14719">
        <ele>2371</ele>
        <time>2022-12-29T14:42:53Z</time>
      </trkpt>
      <trkpt lat="44.99877" lon="6.14721">
        <ele>2371</ele>
        <time>2022-12-29T14:42:54Z</time>
      </trkpt>
      <trkpt lat="44.99884" lon="6.14722">
        <ele>2371</ele>
        <time>2022-12-29T14:42:55Z</time>
      </trkpt>
      <trkpt lat="44.99892" lon="6.14724">
        <ele>2363.8</ele>
        <time>2022-12-29T14:42:56Z</time>
      </trkpt>
      <trkpt lat="44.99908" lon="6.14727">
        <ele>2363.8</ele>
        <time>2022-12-29T14:42:57Z</time>
      </trkpt>
      <trkpt lat="44.99915" lon="6.14728">
        <ele>2363.8</ele>
        <time>2022-12-29T14:42:58Z</time>
      </trkpt>
      <trkpt lat="44.99922" lon="6.14729">
        <ele>2363.8</ele>
        <time>2022-12-29T14:42:59Z</time>
      </trkpt>
      <trkpt lat="44.9993" lon="6.1473">
        <ele>2363.8</ele>
        <time>2022-12-29T14:43:00Z</time>
      </trkpt>
      <trkpt lat="44.99937" lon="6.14731">
        <ele>2363.8</ele>
        <time>2022-12-29T14:43:01Z</time>
      </trkpt>
      <trkpt lat="44.99945" lon="6.14732">
        <ele>2363.8</ele>
        <time>2022-12-29T14:43:02Z</time>
      </trkpt>
      <trkpt lat="44.99952" lon="6.14733">
        <ele>2363.8</ele>
        <time>2022-12-29T14:43:03Z</time>
      </trkpt>
      <trkpt lat="44.99959" lon="6.14734">
        <ele>2363.8</ele>
        <time>2022-12-29T14:43:04Z</time>
      </trkpt>
      <trkpt lat="44.99967" lon="6.14735">
        <ele>2363.8</ele>
        <time>2022-12-29T14:43:05Z</time>
      </trkpt>
      <trkpt lat="44.99974" lon="6.14736">
        <ele>2356.4</ele>
        <time>2022-12-29T14:43:06Z</time>
      </trkpt>
      <trkpt lat="44.99989" lon="6.14734">
        <ele>2356.4</ele>
        <time>2022-12-29T14:43:07Z</time>
      </trkpt>
      <trkpt lat="44.99996" lon="6.14732">
        <ele>2356.4</ele>
        <time>2022-12-29T14:43:08Z</time>
      </trkpt>
      <trkpt lat="45.00003" lon="6.1473">
        <ele>2356.4</ele>
        <time>2022-12-29T14:43:09Z</time>
      </trkpt>
      <trkpt lat="45.00009" lon="6.14727">
        <ele>2356.4</ele>
        <time>2022-12-29T14:43:10Z</time>
      </trkpt>
      <trkpt lat="45.00016" lon="6.14725">
        <ele>2356.4</ele>
        <time>2022-12-29T14:43:11Z</time>
      </trkpt>
      <trkpt lat="45.00023" lon="6.14723">
        <ele>2356.4</ele>
        <time>2022-12-29T14:43:12Z</time>
      </trkpt>
      <trkpt lat="45.00029" lon="6.14721">
        <ele>2356.4</ele>
        <time>2022-12-29T14:43:13Z</time>
      </trkpt>
      <trkpt lat="45.00036" lon="6.14718">
        <ele>2356.4</ele>
        <time>2022-12-29T14:43:14Z</time>
      </trkpt>
      <trkpt lat="45.00043" lon="6.14716">
        <ele>2356.4</ele>
        <time>2022-12-29T14:43:15Z</time>
      </trkpt>
      <trkpt lat="45.00049" lon="6.14714">
        <ele>2348.6</ele>
        <time>2022-12-29T14:43:16Z</time>
      </trkpt>
      <trkpt lat="45.00058" lon="6.14698">
        <ele>2348.6</ele>
        <time>2022-12-29T14:43:17Z</time>
      </trkpt>
      <trkpt lat="45.00061" lon="6.1469">
        <ele>2348.6</ele>
        <time>2022-12-29T14:43:18Z</time>
      </trkpt>
      <trkpt lat="45.00063" lon="6.14682">
        <ele>2348.6</ele>
        <time>2022-12-29T14:43:19Z</time>
      </trkpt>
      <trkpt lat="45.00066" lon="6.14674">
        <ele>2348.6</ele>
        <time>2022-12-29T14:43:20Z</time>
      </trkpt>
      <trkpt lat="45.00068" lon="6.14666">
        <ele>2348.6</ele>
        <time>2022-12-29T14:43:21Z</time>
      </trkpt>
      <trkpt lat="45.00071" lon="6.14657">
        <ele>2348.6</ele>
        <time>2022-12-29T14:43:22Z</time>
      </trkpt>
      <trkpt lat="45.00074" lon="6.14649">
        <ele>2348.6</ele>
        <time>2022-12-29T14:43:23Z</time>
      </trkpt>
      <trkpt lat="45.00076" lon="6.14641">
        <ele>2348.6</ele>
        <time>2022-12-29T14:43:24Z</time>
      </trkpt>
      <trkpt lat="45.00079" lon="6.14633">
        <ele>2348.6</ele>
        <time>2022-12-29T14:43:25Z</time>
      </trkpt>
      <trkpt lat="45.00081" lon="6.14624">
        <ele>2342.4</ele>
        <time>2022-12-29T14:43:26Z</time>
      </trkpt>
      <trkpt lat="45.00091" lon="6.14613">
        <ele>2342.4</ele>
        <time>2022-12-29T14:43:27Z</time>
      </trkpt>
      <trkpt lat="45.00096" lon="6.14609">
        <ele>2342.4</ele>
        <time>2022-12-29T14:43:28Z</time>
      </trkpt>
      <trkpt lat="45.00101" lon="6.14606">
        <ele>2342.4</ele>
        <time>2022-12-29T14:43:29Z</time>
      </trkpt>
      <trkpt lat="45.00107" lon="6.14603">
        <ele>2342.4</ele>
        <time>2022-12-29T14:43:30Z</time>
      </trkpt>
      <trkpt lat="45.00112" lon="6.14599">
        <ele>2342.4</ele>
        <time>2022-12-29T14:43:31Z</time>
      </trkpt>
      <trkpt lat="45.00117" lon="6.14596">
        <ele>2342.4</ele>
        <time>2022-12-29T14:43:32Z</time>
      </trkpt>
      <trkpt lat="45.00123" lon="6.14593">
        <ele>2342.4</ele>
        <time>2022-12-29T14:43:33Z</time>
      </trkpt>
      <trkpt lat="45.00128" lon="6.14589">
        <ele>2342.4</ele>
        <time>2022-12-29T14:43:34Z</time>
      </trkpt>
      <trkpt lat="45.00133" lon="6.14586">
        <ele>2342.4</ele>
        <time>2022-12-29T14:43:35Z</time>
      </trkpt>
      <trkpt lat="45.00139" lon="6.14583">
        <ele>2333</ele>
        <time>2022-12-29T14:43:36Z</time>
      </trkpt>
      <trkpt lat="45.0015" lon="6.14577">
        <ele>2333</ele>
        <time>2022-12-29T14:43:37Z</time>
      </trkpt>
      <trkpt lat="45.00155" lon="6.14574">
        <ele>2333</ele>
        <time>2022-12-29T14:43:38Z</time>
      </trkpt>
      <trkpt lat="45.00161" lon="6.14572">
        <ele>2333</ele>
        <time>2022-12-29T14:43:39Z</time>
      </trkpt>
      <trkpt lat="45.00166" lon="6.1457">
        <ele>2333</ele>
        <time>2022-12-29T14:43:40Z</time>
      </trkpt>
      <trkpt lat="45.00171" lon="6.14567">
        <ele>2333</ele>
        <time>2022-12-29T14:43:41Z</time>
      </trkpt>
      <trkpt lat="45.00176" lon="6.14565">
        <ele>2333</ele>
        <time>2022-12-29T14:43:42Z</time>
      </trkpt>
      <trkpt lat="45.00181" lon="6.14563">
        <ele>2333</ele>
        <time>2022-12-29T14:43:43Z</time>
      </trkpt>
      <trkpt lat="45.00186" lon="6.1456">
        <ele>2333</ele>
        <time>2022-12-29T14:43:44Z</time>
      </trkpt>
      <trkpt lat="45.00191" lon="6.14558">
        <ele>2333</ele>
        <time>2022-12-29T14:43:45Z</time>
      </trkpt>
      <trkpt lat="45.00196" lon="6.14556">
        <ele>2326.6</ele>
        <time>2022-12-29T14:43:46Z</time>
      </trkpt>
      <trkpt lat="45.00207" lon="6.14552">
        <ele>2326.6</ele>
        <time>2022-12-29T14:43:47Z</time>
      </trkpt>
      <trkpt lat="45.00213" lon="6.14549">
        <ele>2326.6</ele>
        <time>2022-12-29T14:43:48Z</time>
      </trkpt>
      <trkpt lat="45.00219" lon="6.14547">
        <ele>2326.6</ele>
        <time>2022-12-29T14:43:49Z</time>
      </trkpt>
      <trkpt lat="45.00225" lon="6.14544">
        <ele>2326.6</ele>
        <time>2022-12-29T14:43:50Z</time>
      </trkpt>
      <trkpt lat="45.00231" lon="6.14542">
        <ele>2326.6</ele>
        <time>2022-12-29T14:43:51Z</time>
      </trkpt>
      <trkpt lat="45.00237" lon="6.14539">
        <ele>2326.6</ele>
        <time>2022-12-29T14:43:52Z</time>
      </trkpt>
      <trkpt lat="45.00243" lon="6.14537">
        <ele>2326.6</ele>
        <time>2022-12-29T14:43:53Z</time>
      </trkpt>
      <trkpt lat="45.00249" lon="6.14534">
        <ele>2326.6</ele>
        <time>2022-12-29T14:43:54Z</time>
      </trkpt>
      <trkpt lat="45.00255" lon="6.14532">
        <ele>2326.6</ele>
        <time>2022-12-29T14:43:55Z</time>
      </trkpt>
      <trkpt lat="45.00261" lon="6.14529">
        <ele>2318</ele>
        <time>2022-12-29T14:43:56Z</time>
      </trkpt>
      <trkpt lat="45.00274" lon="6.14528">
        <ele>2318</ele>
        <time>2022-12-29T14:43:57Z</time>
      </trkpt>
      <trkpt lat="45.0028" lon="6.14528">
        <ele>2318</ele>
        <time>2022-12-29T14:43:58Z</time>
      </trkpt>
      <trkpt lat="45.00286" lon="6.14528">
        <ele>2318</ele>
        <time>2022-12-29T14:43:59Z</time>
      </trkpt>
      <trkpt lat="45.00292" lon="6.14527">
        <ele>2318</ele>
        <time>2022-12-29T14:44:00Z</time>
      </trkpt>
      <trkpt lat="45.00298" lon="6.14527">
        <ele>2318</ele>
        <time>2022-12-29T14:44:01Z</time>
      </trkpt>
      <trkpt lat="45.00304" lon="6.14527">
        <ele>2318</ele>
        <time>2022-12-29T14:44:02Z</time>
      </trkpt>
      <trkpt lat="45.0031" lon="6.14527">
        <ele>2318</ele>
        <time>2022-12-29T14:44:03Z</time>
      </trkpt>
      <trkpt lat="45.00316" lon="6.14526">
        <ele>2318</ele>
        <time>2022-12-29T14:44:04Z</time>
      </trkpt>
      <trkpt lat="45.00322" lon="6.14526">
        <ele>2318</ele>
        <time>2022-12-29T14:44:05Z</time>
      </trkpt>
      <trkpt lat="45.00328" lon="6.14526">
        <ele>2307.2</ele>
        <time>2022-12-29T14:44:06Z</time>
      </trkpt>
      <trkpt lat="45.00339" lon="6.14524">
        <ele>2307.2</ele>
        <time>2022-12-29T14:44:07Z</time>
      </trkpt>
      <trkpt lat="45.00344" lon="6.14523">
        <ele>2307.2</ele>
        <time>2022-12-29T14:44:08Z</time>
      </trkpt>
      <trkpt lat="45.00349" lon="6.14523">
        <ele>2307.2</ele>
        <time>2022-12-29T14:44:09Z</time>
      </trkpt>
      <trkpt lat="45.00354" lon="6.14522">
        <ele>2307.2</ele>
        <time>2022-12-29T14:44:10Z</time>
      </trkpt>
      <trkpt lat="45.00359" lon="6.14521">
        <ele>2307.2</ele>
        <time>2022-12-29T14:44:11Z</time>
      </trkpt>
      <trkpt lat="45.00364" lon="6.1452">
        <ele>2307.2</ele>
        <time>2022-12-29T14:44:12Z</time>
      </trkpt>
      <trkpt lat="45.00369" lon="6.1452">
        <ele>2307.2</ele>
        <time>2022-12-29T14:44:13Z</time>
      </trkpt>
      <trkpt lat="45.00374" lon="6.14519">
        <ele>2307.2</ele>
        <time>2022-12-29T14:44:14Z</time>
      </trkpt>
      <trkpt lat="45.00379" lon="6.14518">
        <ele>2307.2</ele>
        <time>2022-12-29T14:44:15Z</time>
      </trkpt>
      <trkpt lat="45.00384" lon="6.14517">
        <ele>2297.6</ele>
        <time>2022-12-29T14:44:16Z</time>
      </trkpt>
      <trkpt lat="45.00391" lon="6.14519">
        <ele>2297.6</ele>
        <time>2022-12-29T14:44:17Z</time>
      </trkpt>
      <trkpt lat="45.00393" lon="6.1452">
        <ele>2297.6</ele>
        <time>2022-12-29T14:44:18Z</time>
      </trkpt>
      <trkpt lat="45.00395" lon="6.14521">
        <ele>2297.6</ele>
        <time>2022-12-29T14:44:19Z</time>
      </trkpt>
      <trkpt lat="45.00397" lon="6.14522">
        <ele>2297.6</ele>
        <time>2022-12-29T14:44:20Z</time>
      </trkpt>
      <trkpt lat="45.00399" lon="6.14523">
        <ele>2297.6</ele>
        <time>2022-12-29T14:44:21Z</time>
      </trkpt>
      <trkpt lat="45.00401" lon="6.14524">
        <ele>2297.6</ele>
        <time>2022-12-29T14:44:22Z</time>
      </trkpt>
      <trkpt lat="45.00403" lon="6.14524">
        <ele>2297.6</ele>
        <time>2022-12-29T14:44:23Z</time>
      </trkpt>
      <trkpt lat="45.00405" lon="6.14525">
        <ele>2297.6</ele>
        <time>2022-12-29T14:44:24Z</time>
      </trkpt>
      <trkpt lat="45.00408" lon="6.14526">
        <ele>2297.6</ele>
        <time>2022-12-29T14:44:25Z</time>
      </trkpt>
      <trkpt lat="45.0041" lon="6.14527">
        <ele>2292.4</ele>
        <time>2022-12-29T14:44:26Z</time>
      </trkpt>
      <trkpt lat="45.00411" lon="6.14528">
        <ele>2292.4</ele>
        <time>2022-12-29T14:44:27Z</time>
      </trkpt>
      <trkpt lat="45.00411" lon="6.14528">
        <ele>2292.4</ele>
        <time>2022-12-29T14:44:28Z</time>
      </trkpt>
      <trkpt lat="45.00411" lon="6.14528">
        <ele>2292.4</ele>
        <time>2022-12-29T14:44:29Z</time>
      </trkpt>
      <trkpt lat="45.00411" lon="6.14528">
        <ele>2292.4</ele>
        <time>2022-12-29T14:44:30Z</time>
      </trkpt>
      <trkpt lat="45.00411" lon="6.14528">
        <ele>2292.4</ele>
        <time>2022-12-29T14:44:31Z</time>
      </trkpt>
      <trkpt lat="45.00411" lon="6.14528">
        <ele>2292.4</ele>
        <time>2022-12-29T14:44:32Z</time>
      </trkpt>
      <trkpt lat="45.00411" lon="6.14528">
        <ele>2292.4</ele>
        <time>2022-12-29T14:44:33Z</time>
      </trkpt>
      <trkpt lat="45.00411" lon="6.14528">
        <ele>2292.4</ele>
        <time>2022-12-29T14:44:34Z</time>
      </trkpt>
      <trkpt lat="45.00411" lon="6.14528">
        <ele>2292.4</ele>
        <time>2022-12-29T14:44:35Z</time>
      </trkpt>
      <trkpt lat="45.00412" lon="6.14525">
        <ele>2292.8</ele>
        <time>2022-12-29T14:44:36Z</time>
      </trkpt>
      <trkpt lat="45.00415" lon="6.14523">
        <ele>2292.8</ele>
        <time>2022-12-29T14:44:37Z</time>
      </trkpt>
      <trkpt lat="45.00418" lon="6.14521">
        <ele>2292.8</ele>
        <time>2022-12-29T14:44:38Z</time>
      </trkpt>
      <trkpt lat="45.00421" lon="6.14519">
        <ele>2292.8</ele>
        <time>2022-12-29T14:44:39Z</time>
      </trkpt>
      <trkpt lat="45.00424" lon="6.14517">
        <ele>2292.8</ele>
        <time>2022-12-29T14:44:40Z</time>
      </trkpt>
      <trkpt lat="45.00427" lon="6.14515">
        <ele>2292.8</ele>
        <time>2022-12-29T14:44:41Z</time>
      </trkpt>
      <trkpt lat="45.00431" lon="6.14513">
        <ele>2292.8</ele>
        <time>2022-12-29T14:44:42Z</time>
      </trkpt>
      <trkpt lat="45.00434" lon="6.14511">
        <ele>2292.8</ele>
        <time>2022-12-29T14:44:43Z</time>
      </trkpt>
      <trkpt lat="45.00437" lon="6.14509">
        <ele>2292.8</ele>
        <time>2022-12-29T14:44:44Z</time>
      </trkpt>
      <trkpt lat="45.0044" lon="6.14507">
        <ele>2292.8</ele>
        <time>2022-12-29T14:44:45Z</time>
      </trkpt>
      <trkpt lat="45.00443" lon="6.14505">
        <ele>2284.8</ele>
        <time>2022-12-29T14:44:46Z</time>
      </trkpt>
      <trkpt lat="45.0045" lon="6.14501">
        <ele>2284.8</ele>
        <time>2022-12-29T14:44:47Z</time>
      </trkpt>
      <trkpt lat="45.00454" lon="6.145">
        <ele>2284.8</ele>
        <time>2022-12-29T14:44:48Z</time>
      </trkpt>
      <trkpt lat="45.00458" lon="6.14498">
        <ele>2284.8</ele>
        <time>2022-12-29T14:44:49Z</time>
      </trkpt>
      <trkpt lat="45.00461" lon="6.14497">
        <ele>2284.8</ele>
        <time>2022-12-29T14:44:50Z</time>
      </trkpt>
      <trkpt lat="45.00465" lon="6.14495">
        <ele>2284.8</ele>
        <time>2022-12-29T14:44:51Z</time>
      </trkpt>
      <trkpt lat="45.00468" lon="6.14494">
        <ele>2284.8</ele>
        <time>2022-12-29T14:44:52Z</time>
      </trkpt>
      <trkpt lat="45.00472" lon="6.14493">
        <ele>2284.8</ele>
        <time>2022-12-29T14:44:53Z</time>
      </trkpt>
      <trkpt lat="45.00476" lon="6.14491">
        <ele>2284.8</ele>
        <time>2022-12-29T14:44:54Z</time>
      </trkpt>
      <trkpt lat="45.00479" lon="6.1449">
        <ele>2284.8</ele>
        <time>2022-12-29T14:44:55Z</time>
      </trkpt>
      <trkpt lat="45.00483" lon="6.14488">
        <ele>2269.8</ele>
        <time>2022-12-29T14:44:56Z</time>
      </trkpt>
      <trkpt lat="45.00487" lon="6.14489">
        <ele>2269.8</ele>
        <time>2022-12-29T14:44:57Z</time>
      </trkpt>
      <trkpt lat="45.0049" lon="6.14488">
        <ele>2269.8</ele>
        <time>2022-12-29T14:44:58Z</time>
      </trkpt>
      <trkpt lat="45.00493" lon="6.14488">
        <ele>2269.8</ele>
        <time>2022-12-29T14:44:59Z</time>
      </trkpt>
      <trkpt lat="45.00497" lon="6.14487">
        <ele>2269.8</ele>
        <time>2022-12-29T14:45:00Z</time>
      </trkpt>
      <trkpt lat="45.005" lon="6.14487">
        <ele>2269.8</ele>
        <time>2022-12-29T14:45:01Z</time>
      </trkpt>
      <trkpt lat="45.00503" lon="6.14487">
        <ele>2269.8</ele>
        <time>2022-12-29T14:45:02Z</time>
      </trkpt>
      <trkpt lat="45.00506" lon="6.14486">
        <ele>2269.8</ele>
        <time>2022-12-29T14:45:03Z</time>
      </trkpt>
      <trkpt lat="45.00509" lon="6.14486">
        <ele>2269.8</ele>
        <time>2022-12-29T14:45:04Z</time>
      </trkpt>
      <trkpt lat="45.00512" lon="6.14486">
        <ele>2269.8</ele>
        <time>2022-12-29T14:45:05Z</time>
      </trkpt>
      <trkpt lat="45.00515" lon="6.14485">
        <ele>2262.2</ele>
        <time>2022-12-29T14:45:06Z</time>
      </trkpt>
      <trkpt lat="45.00522" lon="6.14486">
        <ele>2262.2</ele>
        <time>2022-12-29T14:45:07Z</time>
      </trkpt>
      <trkpt lat="45.00525" lon="6.14486">
        <ele>2262.2</ele>
        <time>2022-12-29T14:45:08Z</time>
      </trkpt>
      <trkpt lat="45.00529" lon="6.14486">
        <ele>2262.2</ele>
        <time>2022-12-29T14:45:09Z</time>
      </trkpt>
      <trkpt lat="45.00532" lon="6.14486">
        <ele>2262.2</ele>
        <time>2022-12-29T14:45:10Z</time>
      </trkpt>
      <trkpt lat="45.00535" lon="6.14486">
        <ele>2262.2</ele>
        <time>2022-12-29T14:45:11Z</time>
      </trkpt>
      <trkpt lat="45.00538" lon="6.14486">
        <ele>2262.2</ele>
        <time>2022-12-29T14:45:12Z</time>
      </trkpt>
      <trkpt lat="45.00541" lon="6.14487">
        <ele>2262.2</ele>
        <time>2022-12-29T14:45:13Z</time>
      </trkpt>
      <trkpt lat="45.00545" lon="6.14487">
        <ele>2262.2</ele>
        <time>2022-12-29T14:45:14Z</time>
      </trkpt>
      <trkpt lat="45.00548" lon="6.14487">
        <ele>2262.2</ele>
        <time>2022-12-29T14:45:15Z</time>
      </trkpt>
      <trkpt lat="45.00551" lon="6.14487">
        <ele>2255.2</ele>
        <time>2022-12-29T14:45:16Z</time>
      </trkpt>
      <trkpt lat="45.00557" lon="6.14487">
        <ele>2255.2</ele>
        <time>2022-12-29T14:45:17Z</time>
      </trkpt>
      <trkpt lat="45.0056" lon="6.14488">
        <ele>2255.2</ele>
        <time>2022-12-29T14:45:18Z</time>
      </trkpt>
      <trkpt lat="45.00562" lon="6.14488">
        <ele>2255.2</ele>
        <time>2022-12-29T14:45:19Z</time>
      </trkpt>
      <trkpt lat="45.00565" lon="6.14488">
        <ele>2255.2</ele>
        <time>2022-12-29T14:45:20Z</time>
      </trkpt>
      <trkpt lat="45.00568" lon="6.14488">
        <ele>2255.2</ele>
        <time>2022-12-29T14:45:21Z</time>
      </trkpt>
      <trkpt lat="45.00571" lon="6.14488">
        <ele>2255.2</ele>
        <time>2022-12-29T14:45:22Z</time>
      </trkpt>
      <trkpt lat="45.00573" lon="6.14488">
        <ele>2255.2</ele>
        <time>2022-12-29T14:45:23Z</time>
      </trkpt>
      <trkpt lat="45.00576" lon="6.14488">
        <ele>2255.2</ele>
        <time>2022-12-29T14:45:24Z</time>
      </trkpt>
      <trkpt lat="45.00579" lon="6.14489">
        <ele>2255.2</ele>
        <time>2022-12-29T14:45:25Z</time>
      </trkpt>
      <trkpt lat="45.00581" lon="6.14489">
        <ele>2248.4</ele>
        <time>2022-12-29T14:45:26Z</time>
      </trkpt>
      <trkpt lat="45.00588" lon="6.14489">
        <ele>2248.4</ele>
        <time>2022-12-29T14:45:27Z</time>
      </trkpt>
      <trkpt lat="45.00592" lon="6.14487">
        <ele>2248.4</ele>
        <time>2022-12-29T14:45:28Z</time>
      </trkpt>
      <trkpt lat="45.00595" lon="6.14486">
        <ele>2248.4</ele>
        <time>2022-12-29T14:45:29Z</time>
      </trkpt>
      <trkpt lat="45.00598" lon="6.14484">
        <ele>2248.4</ele>
        <time>2022-12-29T14:45:30Z</time>
      </trkpt>
      <trkpt lat="45.00601" lon="6.14483">
        <ele>2248.4</ele>
        <time>2022-12-29T14:45:31Z</time>
      </trkpt>
      <trkpt lat="45.00604" lon="6.14481">
        <ele>2248.4</ele>
        <time>2022-12-29T14:45:32Z</time>
      </trkpt>
      <trkpt lat="45.00607" lon="6.1448">
        <ele>2248.4</ele>
        <time>2022-12-29T14:45:33Z</time>
      </trkpt>
      <trkpt lat="45.0061" lon="6.14478">
        <ele>2248.4</ele>
        <time>2022-12-29T14:45:34Z</time>
      </trkpt>
      <trkpt lat="45.00613" lon="6.14477">
        <ele>2248.4</ele>
        <time>2022-12-29T14:45:35Z</time>
      </trkpt>
      <trkpt lat="45.00616" lon="6.14475">
        <ele>2238.6</ele>
        <time>2022-12-29T14:45:36Z</time>
      </trkpt>
      <trkpt lat="45.00622" lon="6.1447">
        <ele>2238.6</ele>
        <time>2022-12-29T14:45:37Z</time>
      </trkpt>
      <trkpt lat="45.00625" lon="6.14468">
        <ele>2238.6</ele>
        <time>2022-12-29T14:45:38Z</time>
      </trkpt>
      <trkpt lat="45.00628" lon="6.14466">
        <ele>2238.6</ele>
        <time>2022-12-29T14:45:39Z</time>
      </trkpt>
      <trkpt lat="45.00631" lon="6.14464">
        <ele>2238.6</ele>
        <time>2022-12-29T14:45:40Z</time>
      </trkpt>
      <trkpt lat="45.00634" lon="6.14462">
        <ele>2238.6</ele>
        <time>2022-12-29T14:45:41Z</time>
      </trkpt>
      <trkpt lat="45.00637" lon="6.14461">
        <ele>2238.6</ele>
        <time>2022-12-29T14:45:42Z</time>
      </trkpt>
      <trkpt lat="45.0064" lon="6.14459">
        <ele>2238.6</ele>
        <time>2022-12-29T14:45:43Z</time>
      </trkpt>
      <trkpt lat="45.00643" lon="6.14457">
        <ele>2238.6</ele>
        <time>2022-12-29T14:45:44Z</time>
      </trkpt>
      <trkpt lat="45.00646" lon="6.14455">
        <ele>2238.6</ele>
        <time>2022-12-29T14:45:45Z</time>
      </trkpt>
      <trkpt lat="45.00649" lon="6.14453">
        <ele>2227.2</ele>
        <time>2022-12-29T14:45:46Z</time>
      </trkpt>
      <trkpt lat="45.00655" lon="6.14448">
        <ele>2227.2</ele>
        <time>2022-12-29T14:45:47Z</time>
      </trkpt>
      <trkpt lat="45.00657" lon="6.14446">
        <ele>2227.2</ele>
        <time>2022-12-29T14:45:48Z</time>
      </trkpt>
      <trkpt lat="45.0066" lon="6.14443">
        <ele>2227.2</ele>
        <time>2022-12-29T14:45:49Z</time>
      </trkpt>
      <trkpt lat="45.00663" lon="6.14441">
        <ele>2227.2</ele>
        <time>2022-12-29T14:45:50Z</time>
      </trkpt>
      <trkpt lat="45.00666" lon="6.14438">
        <ele>2227.2</ele>
        <time>2022-12-29T14:45:51Z</time>
      </trkpt>
      <trkpt lat="45.00668" lon="6.14436">
        <ele>2227.2</ele>
        <time>2022-12-29T14:45:52Z</time>
      </trkpt>
      <trkpt lat="45.00671" lon="6.14433">
        <ele>2227.2</ele>
        <time>2022-12-29T14:45:53Z</time>
      </trkpt>
      <trkpt lat="45.00674" lon="6.14431">
        <ele>2227.2</ele>
        <time>2022-12-29T14:45:54Z</time>
      </trkpt>
      <trkpt lat="45.00677" lon="6.14428">
        <ele>2227.2</ele>
        <time>2022-12-29T14:45:55Z</time>
      </trkpt>
      <trkpt lat="45.00679" lon="6.14426">
        <ele>2216.8</ele>
        <time>2022-12-29T14:45:56Z</time>
      </trkpt>
      <trkpt lat="45.00684" lon="6.14415">
        <ele>2216.8</ele>
        <time>2022-12-29T14:45:57Z</time>
      </trkpt>
      <trkpt lat="45.00687" lon="6.14412">
        <ele>2216.8</ele>
        <time>2022-12-29T14:45:58Z</time>
      </trkpt>
      <trkpt lat="45.0069" lon="6.14409">
        <ele>2216.8</ele>
        <time>2022-12-29T14:45:59Z</time>
      </trkpt>
      <trkpt lat="45.00693" lon="6.14405">
        <ele>2216.8</ele>
        <time>2022-12-29T14:46:00Z</time>
      </trkpt>
      <trkpt lat="45.00697" lon="6.14402">
        <ele>2216.8</ele>
        <time>2022-12-29T14:46:01Z</time>
      </trkpt>
      <trkpt lat="45.007" lon="6.14399">
        <ele>2216.8</ele>
        <time>2022-12-29T14:46:02Z</time>
      </trkpt>
      <trkpt lat="45.00703" lon="6.14395">
        <ele>2216.8</ele>
        <time>2022-12-29T14:46:03Z</time>
      </trkpt>
      <trkpt lat="45.00706" lon="6.14392">
        <ele>2216.8</ele>
        <time>2022-12-29T14:46:04Z</time>
      </trkpt>
      <trkpt lat="45.00709" lon="6.14388">
        <ele>2216.8</ele>
        <time>2022-12-29T14:46:05Z</time>
      </trkpt>
      <trkpt lat="45.00712" lon="6.14385">
        <ele>2205.2</ele>
        <time>2022-12-29T14:46:06Z</time>
      </trkpt>
      <trkpt lat="45.0072" lon="6.14379">
        <ele>2205.2</ele>
        <time>2022-12-29T14:46:07Z</time>
      </trkpt>
      <trkpt lat="45.00723" lon="6.14377">
        <ele>2205.2</ele>
        <time>2022-12-29T14:46:08Z</time>
      </trkpt>
      <trkpt lat="45.00727" lon="6.14375">
        <ele>2205.2</ele>
        <time>2022-12-29T14:46:09Z</time>
      </trkpt>
      <trkpt lat="45.0073" lon="6.14373">
        <ele>2205.2</ele>
        <time>2022-12-29T14:46:10Z</time>
      </trkpt>
      <trkpt lat="45.00734" lon="6.14371">
        <ele>2205.2</ele>
        <time>2022-12-29T14:46:11Z</time>
      </trkpt>
      <trkpt lat="45.00737" lon="6.14369">
        <ele>2205.2</ele>
        <time>2022-12-29T14:46:12Z</time>
      </trkpt>
      <trkpt lat="45.00741" lon="6.14367">
        <ele>2205.2</ele>
        <time>2022-12-29T14:46:13Z</time>
      </trkpt>
      <trkpt lat="45.00744" lon="6.14365">
        <ele>2205.2</ele>
        <time>2022-12-29T14:46:14Z</time>
      </trkpt>
      <trkpt lat="45.00747" lon="6.14363">
        <ele>2205.2</ele>
        <time>2022-12-29T14:46:15Z</time>
      </trkpt>
      <trkpt lat="45.00751" lon="6.14361">
        <ele>2194.8</ele>
        <time>2022-12-29T14:46:16Z</time>
      </trkpt>
      <trkpt lat="45.00759" lon="6.14356">
        <ele>2194.8</ele>
        <time>2022-12-29T14:46:17Z</time>
      </trkpt>
      <trkpt lat="45.00763" lon="6.14353">
        <ele>2194.8</ele>
        <time>2022-12-29T14:46:18Z</time>
      </trkpt>
      <trkpt lat="45.00767" lon="6.14351">
        <ele>2194.8</ele>
        <time>2022-12-29T14:46:19Z</time>
      </trkpt>
      <trkpt lat="45.00771" lon="6.14348">
        <ele>2194.8</ele>
        <time>2022-12-29T14:46:20Z</time>
      </trkpt>
      <trkpt lat="45.00775" lon="6.14346">
        <ele>2194.8</ele>
        <time>2022-12-29T14:46:21Z</time>
      </trkpt>
      <trkpt lat="45.00779" lon="6.14343">
        <ele>2194.8</ele>
        <time>2022-12-29T14:46:22Z</time>
      </trkpt>
      <trkpt lat="45.00783" lon="6.14341">
        <ele>2194.8</ele>
        <time>2022-12-29T14:46:23Z</time>
      </trkpt>
      <trkpt lat="45.00788" lon="6.14338">
        <ele>2194.8</ele>
        <time>2022-12-29T14:46:24Z</time>
      </trkpt>
      <trkpt lat="45.00792" lon="6.14336">
        <ele>2194.8</ele>
        <time>2022-12-29T14:46:25Z</time>
      </trkpt>
      <trkpt lat="45.00796" lon="6.14333">
        <ele>2186.4</ele>
        <time>2022-12-29T14:46:26Z</time>
      </trkpt>
      <trkpt lat="45.00804" lon="6.14327">
        <ele>2186.4</ele>
        <time>2022-12-29T14:46:27Z</time>
      </trkpt>
      <trkpt lat="45.00807" lon="6.14324">
        <ele>2186.4</ele>
        <time>2022-12-29T14:46:28Z</time>
      </trkpt>
      <trkpt lat="45.0081" lon="6.14321">
        <ele>2186.4</ele>
        <time>2022-12-29T14:46:29Z</time>
      </trkpt>
      <trkpt lat="45.00814" lon="6.14319">
        <ele>2186.4</ele>
        <time>2022-12-29T14:46:30Z</time>
      </trkpt>
      <trkpt lat="45.00817" lon="6.14316">
        <ele>2186.4</ele>
        <time>2022-12-29T14:46:31Z</time>
      </trkpt>
      <trkpt lat="45.0082" lon="6.14313">
        <ele>2186.4</ele>
        <time>2022-12-29T14:46:32Z</time>
      </trkpt>
      <trkpt lat="45.00824" lon="6.14311">
        <ele>2186.4</ele>
        <time>2022-12-29T14:46:33Z</time>
      </trkpt>
      <trkpt lat="45.00827" lon="6.14308">
        <ele>2186.4</ele>
        <time>2022-12-29T14:46:34Z</time>
      </trkpt>
      <trkpt lat="45.0083" lon="6.14305">
        <ele>2186.4</ele>
        <time>2022-12-29T14:46:35Z</time>
      </trkpt>
      <trkpt lat="45.00834" lon="6.14303">
        <ele>2180.6</ele>
        <time>2022-12-29T14:46:36Z</time>
      </trkpt>
      <trkpt lat="45.0084" lon="6.14295">
        <ele>2180.6</ele>
        <time>2022-12-29T14:46:37Z</time>
      </trkpt>
      <trkpt lat="45.00843" lon="6.14291">
        <ele>2180.6</ele>
        <time>2022-12-29T14:46:38Z</time>
      </trkpt>
      <trkpt lat="45.00847" lon="6.14287">
        <ele>2180.6</ele>
        <time>2022-12-29T14:46:39Z</time>
      </trkpt>
      <trkpt lat="45.0085" lon="6.14284">
        <ele>2180.6</ele>
        <time>2022-12-29T14:46:40Z</time>
      </trkpt>
      <trkpt lat="45.00853" lon="6.1428">
        <ele>2180.6</ele>
        <time>2022-12-29T14:46:41Z</time>
      </trkpt>
      <trkpt lat="45.00857" lon="6.14276">
        <ele>2180.6</ele>
        <time>2022-12-29T14:46:42Z</time>
      </trkpt>
      <trkpt lat="45.0086" lon="6.14273">
        <ele>2180.6</ele>
        <time>2022-12-29T14:46:43Z</time>
      </trkpt>
      <trkpt lat="45.00864" lon="6.14269">
        <ele>2180.6</ele>
        <time>2022-12-29T14:46:44Z</time>
      </trkpt>
      <trkpt lat="45.00867" lon="6.14265">
        <ele>2180.6</ele>
        <time>2022-12-29T14:46:45Z</time>
      </trkpt>
      <trkpt lat="45.0087" lon="6.14262">
        <ele>2173.4</ele>
        <time>2022-12-29T14:46:46Z</time>
      </trkpt>
      <trkpt lat="45.00879" lon="6.14256">
        <ele>2173.4</ele>
        <time>2022-12-29T14:46:47Z</time>
      </trkpt>
      <trkpt lat="45.00883" lon="6.14253">
        <ele>2173.4</ele>
        <time>2022-12-29T14:46:48Z</time>
      </trkpt>
      <trkpt lat="45.00888" lon="6.1425">
        <ele>2173.4</ele>
        <time>2022-12-29T14:46:49Z</time>
      </trkpt>
      <trkpt lat="45.00892" lon="6.14247">
        <ele>2173.4</ele>
        <time>2022-12-29T14:46:50Z</time>
      </trkpt>
      <trkpt lat="45.00896" lon="6.14245">
        <ele>2173.4</ele>
        <time>2022-12-29T14:46:51Z</time>
      </trkpt>
      <trkpt lat="45.00901" lon="6.14242">
        <ele>2173.4</ele>
        <time>2022-12-29T14:46:52Z</time>
      </trkpt>
      <trkpt lat="45.00905" lon="6.14239">
        <ele>2173.4</ele>
        <time>2022-12-29T14:46:53Z</time>
      </trkpt>
      <trkpt lat="45.00909" lon="6.14237">
        <ele>2173.4</ele>
        <time>2022-12-29T14:46:54Z</time>
      </trkpt>
      <trkpt lat="45.00913" lon="6.14234">
        <ele>2173.4</ele>
        <time>2022-12-29T14:46:55Z</time>
      </trkpt>
      <trkpt lat="45.00918" lon="6.14231">
        <ele>2165.6</ele>
        <time>2022-12-29T14:46:56Z</time>
      </trkpt>
      <trkpt lat="45.00924" lon="6.14225">
        <ele>2165.6</ele>
        <time>2022-12-29T14:46:57Z</time>
      </trkpt>
      <trkpt lat="45.00926" lon="6.14221">
        <ele>2165.6</ele>
        <time>2022-12-29T14:46:58Z</time>
      </trkpt>
      <trkpt lat="45.00929" lon="6.14217">
        <ele>2165.6</ele>
        <time>2022-12-29T14:46:59Z</time>
      </trkpt>
      <trkpt lat="45.00931" lon="6.14213">
        <ele>2165.6</ele>
        <time>2022-12-29T14:47:00Z</time>
      </trkpt>
      <trkpt lat="45.00933" lon="6.14209">
        <ele>2165.6</ele>
        <time>2022-12-29T14:47:01Z</time>
      </trkpt>
      <trkpt lat="45.00936" lon="6.14204">
        <ele>2165.6</ele>
        <time>2022-12-29T14:47:02Z</time>
      </trkpt>
      <trkpt lat="45.00938" lon="6.142">
        <ele>2165.6</ele>
        <time>2022-12-29T14:47:03Z</time>
      </trkpt>
      <trkpt lat="45.00941" lon="6.14196">
        <ele>2165.6</ele>
        <time>2022-12-29T14:47:04Z</time>
      </trkpt>
      <trkpt lat="45.00943" lon="6.14192">
        <ele>2165.6</ele>
        <time>2022-12-29T14:47:05Z</time>
      </trkpt>
      <trkpt lat="45.00946" lon="6.14188">
        <ele>2159.4</ele>
        <time>2022-12-29T14:47:06Z</time>
      </trkpt>
      <trkpt lat="45.00949" lon="6.14177">
        <ele>2159.4</ele>
        <time>2022-12-29T14:47:07Z</time>
      </trkpt>
      <trkpt lat="45.00951" lon="6.14172">
        <ele>2159.4</ele>
        <time>2022-12-29T14:47:08Z</time>
      </trkpt>
      <trkpt lat="45.00953" lon="6.14167">
        <ele>2159.4</ele>
        <time>2022-12-29T14:47:09Z</time>
      </trkpt>
      <trkpt lat="45.00955" lon="6.14162">
        <ele>2159.4</ele>
        <time>2022-12-29T14:47:10Z</time>
      </trkpt>
      <trkpt lat="45.00956" lon="6.14157">
        <ele>2159.4</ele>
        <time>2022-12-29T14:47:11Z</time>
      </trkpt>
      <trkpt lat="45.00958" lon="6.14152">
        <ele>2159.4</ele>
        <time>2022-12-29T14:47:12Z</time>
      </trkpt>
      <trkpt lat="45.0096" lon="6.14147">
        <ele>2159.4</ele>
        <time>2022-12-29T14:47:13Z</time>
      </trkpt>
      <trkpt lat="45.00962" lon="6.14142">
        <ele>2159.4</ele>
        <time>2022-12-29T14:47:14Z</time>
      </trkpt>
      <trkpt lat="45.00964" lon="6.14137">
        <ele>2159.4</ele>
        <time>2022-12-29T14:47:15Z</time>
      </trkpt>
      <trkpt lat="45.00965" lon="6.14132">
        <ele>2151.6</ele>
        <time>2022-12-29T14:47:16Z</time>
      </trkpt>
      <trkpt lat="45.00968" lon="6.14123">
        <ele>2151.6</ele>
        <time>2022-12-29T14:47:17Z</time>
      </trkpt>
      <trkpt lat="45.0097" lon="6.14119">
        <ele>2151.6</ele>
        <time>2022-12-29T14:47:18Z</time>
      </trkpt>
      <trkpt lat="45.00971" lon="6.14115">
        <ele>2151.6</ele>
        <time>2022-12-29T14:47:19Z</time>
      </trkpt>
      <trkpt lat="45.00973" lon="6.14111">
        <ele>2151.6</ele>
        <time>2022-12-29T14:47:20Z</time>
      </trkpt>
      <trkpt lat="45.00974" lon="6.14107">
        <ele>2151.6</ele>
        <time>2022-12-29T14:47:21Z</time>
      </trkpt>
      <trkpt lat="45.00975" lon="6.14103">
        <ele>2151.6</ele>
        <time>2022-12-29T14:47:22Z</time>
      </trkpt>
      <trkpt lat="45.00977" lon="6.14099">
        <ele>2151.6</ele>
        <time>2022-12-29T14:47:23Z</time>
      </trkpt>
      <trkpt lat="45.00978" lon="6.14095">
        <ele>2151.6</ele>
        <time>2022-12-29T14:47:24Z</time>
      </trkpt>
      <trkpt lat="45.0098" lon="6.14091">
        <ele>2151.6</ele>
        <time>2022-12-29T14:47:25Z</time>
      </trkpt>
      <trkpt lat="45.00981" lon="6.14086">
        <ele>2146</ele>
        <time>2022-12-29T14:47:26Z</time>
      </trkpt>
      <trkpt lat="45.0098" lon="6.14079">
        <ele>2146</ele>
        <time>2022-12-29T14:47:27Z</time>
      </trkpt>
      <trkpt lat="45.00979" lon="6.14076">
        <ele>2146</ele>
        <time>2022-12-29T14:47:28Z</time>
      </trkpt>
      <trkpt lat="45.00979" lon="6.14072">
        <ele>2146</ele>
        <time>2022-12-29T14:47:29Z</time>
      </trkpt>
      <trkpt lat="45.00978" lon="6.14068">
        <ele>2146</ele>
        <time>2022-12-29T14:47:30Z</time>
      </trkpt>
      <trkpt lat="45.00977" lon="6.14065">
        <ele>2146</ele>
        <time>2022-12-29T14:47:31Z</time>
      </trkpt>
      <trkpt lat="45.00976" lon="6.14061">
        <ele>2146</ele>
        <time>2022-12-29T14:47:32Z</time>
      </trkpt>
      <trkpt lat="45.00975" lon="6.14058">
        <ele>2146</ele>
        <time>2022-12-29T14:47:33Z</time>
      </trkpt>
      <trkpt lat="45.00974" lon="6.14054">
        <ele>2146</ele>
        <time>2022-12-29T14:47:34Z</time>
      </trkpt>
      <trkpt lat="45.00973" lon="6.14051">
        <ele>2146</ele>
        <time>2022-12-29T14:47:35Z</time>
      </trkpt>
      <trkpt lat="45.00973" lon="6.14047">
        <ele>2140.8</ele>
        <time>2022-12-29T14:47:36Z</time>
      </trkpt>
      <trkpt lat="45.00967" lon="6.14043">
        <ele>2140.8</ele>
        <time>2022-12-29T14:47:37Z</time>
      </trkpt>
      <trkpt lat="45.00964" lon="6.14041">
        <ele>2140.8</ele>
        <time>2022-12-29T14:47:38Z</time>
      </trkpt>
      <trkpt lat="45.00961" lon="6.14038">
        <ele>2140.8</ele>
        <time>2022-12-29T14:47:39Z</time>
      </trkpt>
      <trkpt lat="45.00957" lon="6.14036">
        <ele>2140.8</ele>
        <time>2022-12-29T14:47:40Z</time>
      </trkpt>
      <trkpt lat="45.00954" lon="6.14033">
        <ele>2140.8</ele>
        <time>2022-12-29T14:47:41Z</time>
      </trkpt>
      <trkpt lat="45.00951" lon="6.14031">
        <ele>2140.8</ele>
        <time>2022-12-29T14:47:42Z</time>
      </trkpt>
      <trkpt lat="45.00948" lon="6.14029">
        <ele>2140.8</ele>
        <time>2022-12-29T14:47:43Z</time>
      </trkpt>
      <trkpt lat="45.00945" lon="6.14026">
        <ele>2140.8</ele>
        <time>2022-12-29T14:47:44Z</time>
      </trkpt>
      <trkpt lat="45.00942" lon="6.14024">
        <ele>2140.8</ele>
        <time>2022-12-29T14:47:45Z</time>
      </trkpt>
      <trkpt lat="45.00939" lon="6.14021">
        <ele>2134.8</ele>
        <time>2022-12-29T14:47:46Z</time>
      </trkpt>
      <trkpt lat="45.00931" lon="6.14017">
        <ele>2134.8</ele>
        <time>2022-12-29T14:47:47Z</time>
      </trkpt>
      <trkpt lat="45.00928" lon="6.14015">
        <ele>2134.8</ele>
        <time>2022-12-29T14:47:48Z</time>
      </trkpt>
      <trkpt lat="45.00925" lon="6.14013">
        <ele>2134.8</ele>
        <time>2022-12-29T14:47:49Z</time>
      </trkpt>
      <trkpt lat="45.00921" lon="6.14011">
        <ele>2134.8</ele>
        <time>2022-12-29T14:47:50Z</time>
      </trkpt>
      <trkpt lat="45.00918" lon="6.14009">
        <ele>2134.8</ele>
        <time>2022-12-29T14:47:51Z</time>
      </trkpt>
      <trkpt lat="45.00915" lon="6.14007">
        <ele>2134.8</ele>
        <time>2022-12-29T14:47:52Z</time>
      </trkpt>
      <trkpt lat="45.00911" lon="6.14005">
        <ele>2134.8</ele>
        <time>2022-12-29T14:47:53Z</time>
      </trkpt>
      <trkpt lat="45.00908" lon="6.14003">
        <ele>2134.8</ele>
        <time>2022-12-29T14:47:54Z</time>
      </trkpt>
      <trkpt lat="45.00905" lon="6.14001">
        <ele>2134.8</ele>
        <time>2022-12-29T14:47:55Z</time>
      </trkpt>
      <trkpt lat="45.00901" lon="6.13999">
        <ele>2127.2</ele>
        <time>2022-12-29T14:47:56Z</time>
      </trkpt>
      <trkpt lat="45.00894" lon="6.13996">
        <ele>2127.2</ele>
        <time>2022-12-29T14:47:57Z</time>
      </trkpt>
      <trkpt lat="45.00892" lon="6.13994">
        <ele>2127.2</ele>
        <time>2022-12-29T14:47:58Z</time>
      </trkpt>
      <trkpt lat="45.00889" lon="6.13992">
        <ele>2127.2</ele>
        <time>2022-12-29T14:47:59Z</time>
      </trkpt>
      <trkpt lat="45.00886" lon="6.1399">
        <ele>2127.2</ele>
        <time>2022-12-29T14:48:00Z</time>
      </trkpt>
      <trkpt lat="45.00883" lon="6.13987">
        <ele>2127.2</ele>
        <time>2022-12-29T14:48:01Z</time>
      </trkpt>
      <trkpt lat="45.0088" lon="6.13985">
        <ele>2127.2</ele>
        <time>2022-12-29T14:48:02Z</time>
      </trkpt>
      <trkpt lat="45.00877" lon="6.13983">
        <ele>2127.2</ele>
        <time>2022-12-29T14:48:03Z</time>
      </trkpt>
      <trkpt lat="45.00874" lon="6.13981">
        <ele>2127.2</ele>
        <time>2022-12-29T14:48:04Z</time>
      </trkpt>
      <trkpt lat="45.00872" lon="6.13979">
        <ele>2127.2</ele>
        <time>2022-12-29T14:48:05Z</time>
      </trkpt>
      <trkpt lat="45.00869" lon="6.13977">
        <ele>2118.8</ele>
        <time>2022-12-29T14:48:06Z</time>
      </trkpt>
      <trkpt lat="45.00863" lon="6.13972">
        <ele>2118.8</ele>
        <time>2022-12-29T14:48:07Z</time>
      </trkpt>
      <trkpt lat="45.00861" lon="6.13969">
        <ele>2118.8</ele>
        <time>2022-12-29T14:48:08Z</time>
      </trkpt>
      <trkpt lat="45.00859" lon="6.13967">
        <ele>2118.8</ele>
        <time>2022-12-29T14:48:09Z</time>
      </trkpt>
      <trkpt lat="45.00856" lon="6.13964">
        <ele>2118.8</ele>
        <time>2022-12-29T14:48:10Z</time>
      </trkpt>
      <trkpt lat="45.00854" lon="6.13961">
        <ele>2118.8</ele>
        <time>2022-12-29T14:48:11Z</time>
      </trkpt>
      <trkpt lat="45.00852" lon="6.13959">
        <ele>2118.8</ele>
        <time>2022-12-29T14:48:12Z</time>
      </trkpt>
      <trkpt lat="45.00849" lon="6.13956">
        <ele>2118.8</ele>
        <time>2022-12-29T14:48:13Z</time>
      </trkpt>
      <trkpt lat="45.00847" lon="6.13954">
        <ele>2118.8</ele>
        <time>2022-12-29T14:48:14Z</time>
      </trkpt>
      <trkpt lat="45.00844" lon="6.13951">
        <ele>2118.8</ele>
        <time>2022-12-29T14:48:15Z</time>
      </trkpt>
      <trkpt lat="45.00842" lon="6.13948">
        <ele>2112</ele>
        <time>2022-12-29T14:48:16Z</time>
      </trkpt>
      <trkpt lat="45.00836" lon="6.13947">
        <ele>2112</ele>
        <time>2022-12-29T14:48:17Z</time>
      </trkpt>
      <trkpt lat="45.00833" lon="6.13947">
        <ele>2112</ele>
        <time>2022-12-29T14:48:18Z</time>
      </trkpt>
      <trkpt lat="45.00831" lon="6.13946">
        <ele>2112</ele>
        <time>2022-12-29T14:48:19Z</time>
      </trkpt>
      <trkpt lat="45.00828" lon="6.13946">
        <ele>2112</ele>
        <time>2022-12-29T14:48:20Z</time>
      </trkpt>
      <trkpt lat="45.00825" lon="6.13945">
        <ele>2112</ele>
        <time>2022-12-29T14:48:21Z</time>
      </trkpt>
      <trkpt lat="45.00822" lon="6.13945">
        <ele>2112</ele>
        <time>2022-12-29T14:48:22Z</time>
      </trkpt>
      <trkpt lat="45.0082" lon="6.13944">
        <ele>2112</ele>
        <time>2022-12-29T14:48:23Z</time>
      </trkpt>
      <trkpt lat="45.00817" lon="6.13944">
        <ele>2112</ele>
        <time>2022-12-29T14:48:24Z</time>
      </trkpt>
      <trkpt lat="45.00814" lon="6.13943">
        <ele>2112</ele>
        <time>2022-12-29T14:48:25Z</time>
      </trkpt>
      <trkpt lat="45.00811" lon="6.13943">
        <ele>2103.6</ele>
        <time>2022-12-29T14:48:26Z</time>
      </trkpt>
      <trkpt lat="45.00806" lon="6.13944">
        <ele>2103.6</ele>
        <time>2022-12-29T14:48:27Z</time>
      </trkpt>
      <trkpt lat="45.00803" lon="6.13943">
        <ele>2103.6</ele>
        <time>2022-12-29T14:48:28Z</time>
      </trkpt>
      <trkpt lat="45.00801" lon="6.13942">
        <ele>2103.6</ele>
        <time>2022-12-29T14:48:29Z</time>
      </trkpt>
      <trkpt lat="45.00798" lon="6.13941">
        <ele>2103.6</ele>
        <time>2022-12-29T14:48:30Z</time>
      </trkpt>
      <trkpt lat="45.00795" lon="6.13941">
        <ele>2103.6</ele>
        <time>2022-12-29T14:48:31Z</time>
      </trkpt>
      <trkpt lat="45.00793" lon="6.1394">
        <ele>2103.6</ele>
        <time>2022-12-29T14:48:32Z</time>
      </trkpt>
      <trkpt lat="45.0079" lon="6.13939">
        <ele>2103.6</ele>
        <time>2022-12-29T14:48:33Z</time>
      </trkpt>
      <trkpt lat="45.00788" lon="6.13938">
        <ele>2103.6</ele>
        <time>2022-12-29T14:48:34Z</time>
      </trkpt>
      <trkpt lat="45.00785" lon="6.13937">
        <ele>2103.6</ele>
        <time>2022-12-29T14:48:35Z</time>
      </trkpt>
      <trkpt lat="45.00782" lon="6.13936">
        <ele>2095.4</ele>
        <time>2022-12-29T14:48:36Z</time>
      </trkpt>
      <trkpt lat="45.00776" lon="6.13935">
        <ele>2095.4</ele>
        <time>2022-12-29T14:48:37Z</time>
      </trkpt>
      <trkpt lat="45.00773" lon="6.13934">
        <ele>2095.4</ele>
        <time>2022-12-29T14:48:38Z</time>
      </trkpt>
      <trkpt lat="45.0077" lon="6.13933">
        <ele>2095.4</ele>
        <time>2022-12-29T14:48:39Z</time>
      </trkpt>
      <trkpt lat="45.00767" lon="6.13932">
        <ele>2095.4</ele>
        <time>2022-12-29T14:48:40Z</time>
      </trkpt>
      <trkpt lat="45.00765" lon="6.13931">
        <ele>2095.4</ele>
        <time>2022-12-29T14:48:41Z</time>
      </trkpt>
      <trkpt lat="45.00762" lon="6.1393">
        <ele>2095.4</ele>
        <time>2022-12-29T14:48:42Z</time>
      </trkpt>
      <trkpt lat="45.00759" lon="6.13929">
        <ele>2095.4</ele>
        <time>2022-12-29T14:48:43Z</time>
      </trkpt>
      <trkpt lat="45.00756" lon="6.13928">
        <ele>2095.4</ele>
        <time>2022-12-29T14:48:44Z</time>
      </trkpt>
      <trkpt lat="45.00753" lon="6.13926">
        <ele>2095.4</ele>
        <time>2022-12-29T14:48:45Z</time>
      </trkpt>
      <trkpt lat="45.0075" lon="6.13925">
        <ele>2086.2</ele>
        <time>2022-12-29T14:48:46Z</time>
      </trkpt>
      <trkpt lat="45.00743" lon="6.13921">
        <ele>2086.2</ele>
        <time>2022-12-29T14:48:47Z</time>
      </trkpt>
      <trkpt lat="45.0074" lon="6.13919">
        <ele>2086.2</ele>
        <time>2022-12-29T14:48:48Z</time>
      </trkpt>
      <trkpt lat="45.00736" lon="6.13918">
        <ele>2086.2</ele>
        <time>2022-12-29T14:48:49Z</time>
      </trkpt>
      <trkpt lat="45.00733" lon="6.13916">
        <ele>2086.2</ele>
        <time>2022-12-29T14:48:50Z</time>
      </trkpt>
      <trkpt lat="45.00729" lon="6.13914">
        <ele>2086.2</ele>
        <time>2022-12-29T14:48:51Z</time>
      </trkpt>
      <trkpt lat="45.00726" lon="6.13912">
        <ele>2086.2</ele>
        <time>2022-12-29T14:48:52Z</time>
      </trkpt>
      <trkpt lat="45.00722" lon="6.13911">
        <ele>2086.2</ele>
        <time>2022-12-29T14:48:53Z</time>
      </trkpt>
      <trkpt lat="45.00719" lon="6.13909">
        <ele>2086.2</ele>
        <time>2022-12-29T14:48:54Z</time>
      </trkpt>
      <trkpt lat="45.00715" lon="6.13907">
        <ele>2086.2</ele>
        <time>2022-12-29T14:48:55Z</time>
      </trkpt>
      <trkpt lat="45.00712" lon="6.13905">
        <ele>2075.6</ele>
        <time>2022-12-29T14:48:56Z</time>
      </trkpt>
      <trkpt lat="45.00704" lon="6.13906">
        <ele>2075.6</ele>
        <time>2022-12-29T14:48:57Z</time>
      </trkpt>
      <trkpt lat="45.007" lon="6.13909">
        <ele>2075.6</ele>
        <time>2022-12-29T14:48:58Z</time>
      </trkpt>
      <trkpt lat="45.00696" lon="6.13911">
        <ele>2075.6</ele>
        <time>2022-12-29T14:48:59Z</time>
      </trkpt>
      <trkpt lat="45.00692" lon="6.13913">
        <ele>2075.6</ele>
        <time>2022-12-29T14:49:00Z</time>
      </trkpt>
      <trkpt lat="45.00688" lon="6.13915">
        <ele>2075.6</ele>
        <time>2022-12-29T14:49:01Z</time>
      </trkpt>
      <trkpt lat="45.00684" lon="6.13917">
        <ele>2075.6</ele>
        <time>2022-12-29T14:49:02Z</time>
      </trkpt>
      <trkpt lat="45.0068" lon="6.13919">
        <ele>2075.6</ele>
        <time>2022-12-29T14:49:03Z</time>
      </trkpt>
      <trkpt lat="45.00676" lon="6.13921">
        <ele>2075.6</ele>
        <time>2022-12-29T14:49:04Z</time>
      </trkpt>
      <trkpt lat="45.00672" lon="6.13923">
        <ele>2075.6</ele>
        <time>2022-12-29T14:49:05Z</time>
      </trkpt>
      <trkpt lat="45.00668" lon="6.13925">
        <ele>2066.8</ele>
        <time>2022-12-29T14:49:06Z</time>
      </trkpt>
      <trkpt lat="45.00659" lon="6.13931">
        <ele>2066.8</ele>
        <time>2022-12-29T14:49:07Z</time>
      </trkpt>
      <trkpt lat="45.00655" lon="6.13933">
        <ele>2066.8</ele>
        <time>2022-12-29T14:49:08Z</time>
      </trkpt>
      <trkpt lat="45.0065" lon="6.13935">
        <ele>2066.8</ele>
        <time>2022-12-29T14:49:09Z</time>
      </trkpt>
      <trkpt lat="45.00645" lon="6.13937">
        <ele>2066.8</ele>
        <time>2022-12-29T14:49:10Z</time>
      </trkpt>
      <trkpt lat="45.00641" lon="6.13938">
        <ele>2066.8</ele>
        <time>2022-12-29T14:49:11Z</time>
      </trkpt>
      <trkpt lat="45.00636" lon="6.1394">
        <ele>2066.8</ele>
        <time>2022-12-29T14:49:12Z</time>
      </trkpt>
      <trkpt lat="45.00632" lon="6.13942">
        <ele>2066.8</ele>
        <time>2022-12-29T14:49:13Z</time>
      </trkpt>
      <trkpt lat="45.00627" lon="6.13943">
        <ele>2066.8</ele>
        <time>2022-12-29T14:49:14Z</time>
      </trkpt>
      <trkpt lat="45.00622" lon="6.13945">
        <ele>2066.8</ele>
        <time>2022-12-29T14:49:15Z</time>
      </trkpt>
      <trkpt lat="45.00618" lon="6.13947">
        <ele>2060.2</ele>
        <time>2022-12-29T14:49:16Z</time>
      </trkpt>
      <trkpt lat="45.00609" lon="6.13942">
        <ele>2060.2</ele>
        <time>2022-12-29T14:49:17Z</time>
      </trkpt>
      <trkpt lat="45.00605" lon="6.13941">
        <ele>2060.2</ele>
        <time>2022-12-29T14:49:18Z</time>
      </trkpt>
      <trkpt lat="45.00602" lon="6.13939">
        <ele>2060.2</ele>
        <time>2022-12-29T14:49:19Z</time>
      </trkpt>
      <trkpt lat="45.00598" lon="6.13938">
        <ele>2060.2</ele>
        <time>2022-12-29T14:49:20Z</time>
      </trkpt>
      <trkpt lat="45.00594" lon="6.13936">
        <ele>2060.2</ele>
        <time>2022-12-29T14:49:21Z</time>
      </trkpt>
      <trkpt lat="45.0059" lon="6.13935">
        <ele>2060.2</ele>
        <time>2022-12-29T14:49:22Z</time>
      </trkpt>
      <trkpt lat="45.00586" lon="6.13933">
        <ele>2060.2</ele>
        <time>2022-12-29T14:49:23Z</time>
      </trkpt>
      <trkpt lat="45.00582" lon="6.13932">
        <ele>2060.2</ele>
        <time>2022-12-29T14:49:24Z</time>
      </trkpt>
      <trkpt lat="45.00579" lon="6.1393">
        <ele>2060.2</ele>
        <time>2022-12-29T14:49:25Z</time>
      </trkpt>
      <trkpt lat="45.00575" lon="6.13929">
        <ele>2055.8</ele>
        <time>2022-12-29T14:49:26Z</time>
      </trkpt>
      <trkpt lat="45.00566" lon="6.13927">
        <ele>2055.8</ele>
        <time>2022-12-29T14:49:27Z</time>
      </trkpt>
      <trkpt lat="45.00561" lon="6.13927">
        <ele>2055.8</ele>
        <time>2022-12-29T14:49:28Z</time>
      </trkpt>
      <trkpt lat="45.00557" lon="6.13928">
        <ele>2055.8</ele>
        <time>2022-12-29T14:49:29Z</time>
      </trkpt>
      <trkpt lat="45.00552" lon="6.13928">
        <ele>2055.8</ele>
        <time>2022-12-29T14:49:30Z</time>
      </trkpt>
      <trkpt lat="45.00548" lon="6.13929">
        <ele>2055.8</ele>
        <time>2022-12-29T14:49:31Z</time>
      </trkpt>
      <trkpt lat="45.00543" lon="6.13929">
        <ele>2055.8</ele>
        <time>2022-12-29T14:49:32Z</time>
      </trkpt>
      <trkpt lat="45.00539" lon="6.1393">
        <ele>2055.8</ele>
        <time>2022-12-29T14:49:33Z</time>
      </trkpt>
      <trkpt lat="45.00534" lon="6.1393">
        <ele>2055.8</ele>
        <time>2022-12-29T14:49:34Z</time>
      </trkpt>
      <trkpt lat="45.0053" lon="6.13931">
        <ele>2055.8</ele>
        <time>2022-12-29T14:49:35Z</time>
      </trkpt>
      <trkpt lat="45.00525" lon="6.13931">
        <ele>2048.8</ele>
        <time>2022-12-29T14:49:36Z</time>
      </trkpt>
      <trkpt lat="45.00517" lon="6.13934">
        <ele>2048.8</ele>
        <time>2022-12-29T14:49:37Z</time>
      </trkpt>
      <trkpt lat="45.00513" lon="6.13935">
        <ele>2048.8</ele>
        <time>2022-12-29T14:49:38Z</time>
      </trkpt>
      <trkpt lat="45.00509" lon="6.13937">
        <ele>2048.8</ele>
        <time>2022-12-29T14:49:39Z</time>
      </trkpt>
      <trkpt lat="45.00505" lon="6.13938">
        <ele>2048.8</ele>
        <time>2022-12-29T14:49:40Z</time>
      </trkpt>
      <trkpt lat="45.00501" lon="6.13939">
        <ele>2048.8</ele>
        <time>2022-12-29T14:49:41Z</time>
      </trkpt>
      <trkpt lat="45.00497" lon="6.1394">
        <ele>2048.8</ele>
        <time>2022-12-29T14:49:42Z</time>
      </trkpt>
      <trkpt lat="45.00493" lon="6.13941">
        <ele>2048.8</ele>
        <time>2022-12-29T14:49:43Z</time>
      </trkpt>
      <trkpt lat="45.00489" lon="6.13942">
        <ele>2048.8</ele>
        <time>2022-12-29T14:49:44Z</time>
      </trkpt>
      <trkpt lat="45.00485" lon="6.13944">
        <ele>2048.8</ele>
        <time>2022-12-29T14:49:45Z</time>
      </trkpt>
      <trkpt lat="45.00481" lon="6.13945">
        <ele>2039.6</ele>
        <time>2022-12-29T14:49:46Z</time>
      </trkpt>
      <trkpt lat="45.00473" lon="6.13941">
        <ele>2039.6</ele>
        <time>2022-12-29T14:49:47Z</time>
      </trkpt>
      <trkpt lat="45.00469" lon="6.13938">
        <ele>2039.6</ele>
        <time>2022-12-29T14:49:48Z</time>
      </trkpt>
      <trkpt lat="45.00466" lon="6.13934">
        <ele>2039.6</ele>
        <time>2022-12-29T14:49:49Z</time>
      </trkpt>
      <trkpt lat="45.00463" lon="6.1393">
        <ele>2039.6</ele>
        <time>2022-12-29T14:49:50Z</time>
      </trkpt>
      <trkpt lat="45.0046" lon="6.13927">
        <ele>2039.6</ele>
        <time>2022-12-29T14:49:51Z</time>
      </trkpt>
      <trkpt lat="45.00457" lon="6.13923">
        <ele>2039.6</ele>
        <time>2022-12-29T14:49:52Z</time>
      </trkpt>
      <trkpt lat="45.00453" lon="6.13919">
        <ele>2039.6</ele>
        <time>2022-12-29T14:49:53Z</time>
      </trkpt>
      <trkpt lat="45.0045" lon="6.13915">
        <ele>2039.6</ele>
        <time>2022-12-29T14:49:54Z</time>
      </trkpt>
      <trkpt lat="45.00447" lon="6.13912">
        <ele>2039.6</ele>
        <time>2022-12-29T14:49:55Z</time>
      </trkpt>
      <trkpt lat="45.00444" lon="6.13908">
        <ele>2029.8</ele>
        <time>2022-12-29T14:49:56Z</time>
      </trkpt>
      <trkpt lat="45.0044" lon="6.13899">
        <ele>2029.8</ele>
        <time>2022-12-29T14:49:57Z</time>
      </trkpt>
      <trkpt lat="45.00439" lon="6.13895">
        <ele>2029.8</ele>
        <time>2022-12-29T14:49:58Z</time>
      </trkpt>
      <trkpt lat="45.00438" lon="6.1389">
        <ele>2029.8</ele>
        <time>2022-12-29T14:49:59Z</time>
      </trkpt>
      <trkpt lat="45.00437" lon="6.13886">
        <ele>2029.8</ele>
        <time>2022-12-29T14:50:00Z</time>
      </trkpt>
      <trkpt lat="45.00435" lon="6.13881">
        <ele>2029.8</ele>
        <time>2022-12-29T14:50:01Z</time>
      </trkpt>
      <trkpt lat="45.00434" lon="6.13877">
        <ele>2029.8</ele>
        <time>2022-12-29T14:50:02Z</time>
      </trkpt>
      <trkpt lat="45.00433" lon="6.13872">
        <ele>2029.8</ele>
        <time>2022-12-29T14:50:03Z</time>
      </trkpt>
      <trkpt lat="45.00431" lon="6.13868">
        <ele>2029.8</ele>
        <time>2022-12-29T14:50:04Z</time>
      </trkpt>
      <trkpt lat="45.0043" lon="6.13864">
        <ele>2029.8</ele>
        <time>2022-12-29T14:50:05Z</time>
      </trkpt>
      <trkpt lat="45.00429" lon="6.13859">
        <ele>2019.2</ele>
        <time>2022-12-29T14:50:06Z</time>
      </trkpt>
      <trkpt lat="45.00428" lon="6.13848">
        <ele>2019.2</ele>
        <time>2022-12-29T14:50:07Z</time>
      </trkpt>
      <trkpt lat="45.00427" lon="6.13843">
        <ele>2019.2</ele>
        <time>2022-12-29T14:50:08Z</time>
      </trkpt>
      <trkpt lat="45.00426" lon="6.13839">
        <ele>2019.2</ele>
        <time>2022-12-29T14:50:09Z</time>
      </trkpt>
      <trkpt lat="45.00425" lon="6.13834">
        <ele>2019.2</ele>
        <time>2022-12-29T14:50:10Z</time>
      </trkpt>
      <trkpt lat="45.00425" lon="6.13829">
        <ele>2019.2</ele>
        <time>2022-12-29T14:50:11Z</time>
      </trkpt>
      <trkpt lat="45.00424" lon="6.13824">
        <ele>2019.2</ele>
        <time>2022-12-29T14:50:12Z</time>
      </trkpt>
      <trkpt lat="45.00423" lon="6.1382">
        <ele>2019.2</ele>
        <time>2022-12-29T14:50:13Z</time>
      </trkpt>
      <trkpt lat="45.00423" lon="6.13815">
        <ele>2019.2</ele>
        <time>2022-12-29T14:50:14Z</time>
      </trkpt>
      <trkpt lat="45.00422" lon="6.1381">
        <ele>2019.2</ele>
        <time>2022-12-29T14:50:15Z</time>
      </trkpt>
      <trkpt lat="45.00421" lon="6.13805">
        <ele>2007.4</ele>
        <time>2022-12-29T14:50:16Z</time>
      </trkpt>
      <trkpt lat="45.0042" lon="6.13796">
        <ele>2007.4</ele>
        <time>2022-12-29T14:50:17Z</time>
      </trkpt>
      <trkpt lat="45.00419" lon="6.13791">
        <ele>2007.4</ele>
        <time>2022-12-29T14:50:18Z</time>
      </trkpt>
      <trkpt lat="45.00418" lon="6.13787">
        <ele>2007.4</ele>
        <time>2022-12-29T14:50:19Z</time>
      </trkpt>
      <trkpt lat="45.00417" lon="6.13783">
        <ele>2007.4</ele>
        <time>2022-12-29T14:50:20Z</time>
      </trkpt>
      <trkpt lat="45.00415" lon="6.13778">
        <ele>2007.4</ele>
        <time>2022-12-29T14:50:21Z</time>
      </trkpt>
      <trkpt lat="45.00414" lon="6.13774">
        <ele>2007.4</ele>
        <time>2022-12-29T14:50:22Z</time>
      </trkpt>
      <trkpt lat="45.00413" lon="6.13769">
        <ele>2007.4</ele>
        <time>2022-12-29T14:50:23Z</time>
      </trkpt>
      <trkpt lat="45.00412" lon="6.13765">
        <ele>2007.4</ele>
        <time>2022-12-29T14:50:24Z</time>
      </trkpt>
      <trkpt lat="45.00411" lon="6.13761">
        <ele>2007.4</ele>
        <time>2022-12-29T14:50:25Z</time>
      </trkpt>
      <trkpt lat="45.0041" lon="6.13756">
        <ele>1996</ele>
        <time>2022-12-29T14:50:26Z</time>
      </trkpt>
      <trkpt lat="45.00408" lon="6.13747">
        <ele>1996</ele>
        <time>2022-12-29T14:50:27Z</time>
      </trkpt>
      <trkpt lat="45.00408" lon="6.13743">
        <ele>1996</ele>
        <time>2022-12-29T14:50:28Z</time>
      </trkpt>
      <trkpt lat="45.00407" lon="6.13738">
        <ele>1996</ele>
        <time>2022-12-29T14:50:29Z</time>
      </trkpt>
      <trkpt lat="45.00407" lon="6.13733">
        <ele>1996</ele>
        <time>2022-12-29T14:50:30Z</time>
      </trkpt>
      <trkpt lat="45.00406" lon="6.13729">
        <ele>1996</ele>
        <time>2022-12-29T14:50:31Z</time>
      </trkpt>
      <trkpt lat="45.00406" lon="6.13724">
        <ele>1996</ele>
        <time>2022-12-29T14:50:32Z</time>
      </trkpt>
      <trkpt lat="45.00406" lon="6.13719">
        <ele>1996</ele>
        <time>2022-12-29T14:50:33Z</time>
      </trkpt>
      <trkpt lat="45.00405" lon="6.13714">
        <ele>1996</ele>
        <time>2022-12-29T14:50:34Z</time>
      </trkpt>
      <trkpt lat="45.00405" lon="6.1371">
        <ele>1996</ele>
        <time>2022-12-29T14:50:35Z</time>
      </trkpt>
      <trkpt lat="45.00404" lon="6.13705">
        <ele>1985.8</ele>
        <time>2022-12-29T14:50:36Z</time>
      </trkpt>
      <trkpt lat="45.00408" lon="6.13698">
        <ele>1985.8</ele>
        <time>2022-12-29T14:50:37Z</time>
      </trkpt>
      <trkpt lat="45.00411" lon="6.13696">
        <ele>1985.8</ele>
        <time>2022-12-29T14:50:38Z</time>
      </trkpt>
      <trkpt lat="45.00414" lon="6.13694">
        <ele>1985.8</ele>
        <time>2022-12-29T14:50:39Z</time>
      </trkpt>
      <trkpt lat="45.00416" lon="6.13692">
        <ele>1985.8</ele>
        <time>2022-12-29T14:50:40Z</time>
      </trkpt>
      <trkpt lat="45.00419" lon="6.1369">
        <ele>1985.8</ele>
        <time>2022-12-29T14:50:41Z</time>
      </trkpt>
      <trkpt lat="45.00422" lon="6.13688">
        <ele>1985.8</ele>
        <time>2022-12-29T14:50:42Z</time>
      </trkpt>
      <trkpt lat="45.00424" lon="6.13686">
        <ele>1985.8</ele>
        <time>2022-12-29T14:50:43Z</time>
      </trkpt>
      <trkpt lat="45.00427" lon="6.13684">
        <ele>1985.8</ele>
        <time>2022-12-29T14:50:44Z</time>
      </trkpt>
      <trkpt lat="45.00429" lon="6.13682">
        <ele>1985.8</ele>
        <time>2022-12-29T14:50:45Z</time>
      </trkpt>
      <trkpt lat="45.00432" lon="6.1368">
        <ele>1977</ele>
        <time>2022-12-29T14:50:46Z</time>
      </trkpt>
      <trkpt lat="45.00437" lon="6.13682">
        <ele>1977</ele>
        <time>2022-12-29T14:50:47Z</time>
      </trkpt>
      <trkpt lat="45.00439" lon="6.13683">
        <ele>1977</ele>
        <time>2022-12-29T14:50:48Z</time>
      </trkpt>
      <trkpt lat="45.00441" lon="6.13684">
        <ele>1977</ele>
        <time>2022-12-29T14:50:49Z</time>
      </trkpt>
      <trkpt lat="45.00443" lon="6.13685">
        <ele>1977</ele>
        <time>2022-12-29T14:50:50Z</time>
      </trkpt>
      <trkpt lat="45.00445" lon="6.13686">
        <ele>1977</ele>
        <time>2022-12-29T14:50:51Z</time>
      </trkpt>
      <trkpt lat="45.00447" lon="6.13687">
        <ele>1977</ele>
        <time>2022-12-29T14:50:52Z</time>
      </trkpt>
      <trkpt lat="45.00449" lon="6.13688">
        <ele>1977</ele>
        <time>2022-12-29T14:50:53Z</time>
      </trkpt>
      <trkpt lat="45.00451" lon="6.13689">
        <ele>1977</ele>
        <time>2022-12-29T14:50:54Z</time>
      </trkpt>
      <trkpt lat="45.00452" lon="6.1369">
        <ele>1977</ele>
        <time>2022-12-29T14:50:55Z</time>
      </trkpt>
      <trkpt lat="45.00454" lon="6.13691">
        <ele>1969.8</ele>
        <time>2022-12-29T14:50:56Z</time>
      </trkpt>
      <trkpt lat="45.00458" lon="6.13694">
        <ele>1969.8</ele>
        <time>2022-12-29T14:50:57Z</time>
      </trkpt>
      <trkpt lat="45.0046" lon="6.13695">
        <ele>1969.8</ele>
        <time>2022-12-29T14:50:58Z</time>
      </trkpt>
      <trkpt lat="45.00461" lon="6.13697">
        <ele>1969.8</ele>
        <time>2022-12-29T14:50:59Z</time>
      </trkpt>
      <trkpt lat="45.00463" lon="6.13698">
        <ele>1969.8</ele>
        <time>2022-12-29T14:51:00Z</time>
      </trkpt>
      <trkpt lat="45.00465" lon="6.13699">
        <ele>1969.8</ele>
        <time>2022-12-29T14:51:01Z</time>
      </trkpt>
      <trkpt lat="45.00467" lon="6.13701">
        <ele>1969.8</ele>
        <time>2022-12-29T14:51:02Z</time>
      </trkpt>
      <trkpt lat="45.00468" lon="6.13702">
        <ele>1969.8</ele>
        <time>2022-12-29T14:51:03Z</time>
      </trkpt>
      <trkpt lat="45.0047" lon="6.13704">
        <ele>1969.8</ele>
        <time>2022-12-29T14:51:04Z</time>
      </trkpt>
      <trkpt lat="45.00472" lon="6.13705">
        <ele>1969.8</ele>
        <time>2022-12-29T14:51:05Z</time>
      </trkpt>
      <trkpt lat="45.00473" lon="6.13707">
        <ele>1964.4</ele>
        <time>2022-12-29T14:51:06Z</time>
      </trkpt>
      <trkpt lat="45.00477" lon="6.13711">
        <ele>1964.4</ele>
        <time>2022-12-29T14:51:07Z</time>
      </trkpt>
      <trkpt lat="45.00479" lon="6.13713">
        <ele>1964.4</ele>
        <time>2022-12-29T14:51:08Z</time>
      </trkpt>
      <trkpt lat="45.00481" lon="6.13716">
        <ele>1964.4</ele>
        <time>2022-12-29T14:51:09Z</time>
      </trkpt>
      <trkpt lat="45.00483" lon="6.13718">
        <ele>1964.4</ele>
        <time>2022-12-29T14:51:10Z</time>
      </trkpt>
      <trkpt lat="45.00485" lon="6.1372">
        <ele>1964.4</ele>
        <time>2022-12-29T14:51:11Z</time>
      </trkpt>
      <trkpt lat="45.00487" lon="6.13722">
        <ele>1964.4</ele>
        <time>2022-12-29T14:51:12Z</time>
      </trkpt>
      <trkpt lat="45.00489" lon="6.13725">
        <ele>1964.4</ele>
        <time>2022-12-29T14:51:13Z</time>
      </trkpt>
      <trkpt lat="45.00491" lon="6.13727">
        <ele>1964.4</ele>
        <time>2022-12-29T14:51:14Z</time>
      </trkpt>
      <trkpt lat="45.00493" lon="6.13729">
        <ele>1964.4</ele>
        <time>2022-12-29T14:51:15Z</time>
      </trkpt>
      <trkpt lat="45.00495" lon="6.13731">
        <ele>1958.4</ele>
        <time>2022-12-29T14:51:16Z</time>
      </trkpt>
      <trkpt lat="45.005" lon="6.13728">
        <ele>1958.4</ele>
        <time>2022-12-29T14:51:17Z</time>
      </trkpt>
      <trkpt lat="45.00502" lon="6.13725">
        <ele>1958.4</ele>
        <time>2022-12-29T14:51:18Z</time>
      </trkpt>
      <trkpt lat="45.00504" lon="6.13723">
        <ele>1958.4</ele>
        <time>2022-12-29T14:51:19Z</time>
      </trkpt>
      <trkpt lat="45.00506" lon="6.1372">
        <ele>1958.4</ele>
        <time>2022-12-29T14:51:20Z</time>
      </trkpt>
      <trkpt lat="45.00508" lon="6.13718">
        <ele>1958.4</ele>
        <time>2022-12-29T14:51:21Z</time>
      </trkpt>
      <trkpt lat="45.0051" lon="6.13715">
        <ele>1958.4</ele>
        <time>2022-12-29T14:51:22Z</time>
      </trkpt>
      <trkpt lat="45.00512" lon="6.13713">
        <ele>1958.4</ele>
        <time>2022-12-29T14:51:23Z</time>
      </trkpt>
      <trkpt lat="45.00514" lon="6.1371">
        <ele>1958.4</ele>
        <time>2022-12-29T14:51:24Z</time>
      </trkpt>
      <trkpt lat="45.00516" lon="6.13708">
        <ele>1958.4</ele>
        <time>2022-12-29T14:51:25Z</time>
      </trkpt>
      <trkpt lat="45.00518" lon="6.13705">
        <ele>1950</ele>
        <time>2022-12-29T14:51:26Z</time>
      </trkpt>
      <trkpt lat="45.00523" lon="6.13698">
        <ele>1950</ele>
        <time>2022-12-29T14:51:27Z</time>
      </trkpt>
      <trkpt lat="45.00526" lon="6.13695">
        <ele>1950</ele>
        <time>2022-12-29T14:51:28Z</time>
      </trkpt>
      <trkpt lat="45.00529" lon="6.13692">
        <ele>1950</ele>
        <time>2022-12-29T14:51:29Z</time>
      </trkpt>
      <trkpt lat="45.00531" lon="6.13689">
        <ele>1950</ele>
        <time>2022-12-29T14:51:30Z</time>
      </trkpt>
      <trkpt lat="45.00534" lon="6.13686">
        <ele>1950</ele>
        <time>2022-12-29T14:51:31Z</time>
      </trkpt>
      <trkpt lat="45.00537" lon="6.13683">
        <ele>1950</ele>
        <time>2022-12-29T14:51:32Z</time>
      </trkpt>
      <trkpt lat="45.00539" lon="6.1368">
        <ele>1950</ele>
        <time>2022-12-29T14:51:33Z</time>
      </trkpt>
      <trkpt lat="45.00542" lon="6.13677">
        <ele>1950</ele>
        <time>2022-12-29T14:51:34Z</time>
      </trkpt>
      <trkpt lat="45.00545" lon="6.13673">
        <ele>1950</ele>
        <time>2022-12-29T14:51:35Z</time>
      </trkpt>
      <trkpt lat="45.00547" lon="6.1367">
        <ele>1939.4</ele>
        <time>2022-12-29T14:51:36Z</time>
      </trkpt>
      <trkpt lat="45.00553" lon="6.13666">
        <ele>1939.4</ele>
        <time>2022-12-29T14:51:37Z</time>
      </trkpt>
      <trkpt lat="45.00556" lon="6.13665">
        <ele>1939.4</ele>
        <time>2022-12-29T14:51:38Z</time>
      </trkpt>
      <trkpt lat="45.00558" lon="6.13663">
        <ele>1939.4</ele>
        <time>2022-12-29T14:51:39Z</time>
      </trkpt>
      <trkpt lat="45.00561" lon="6.13662">
        <ele>1939.4</ele>
        <time>2022-12-29T14:51:40Z</time>
      </trkpt>
      <trkpt lat="45.00564" lon="6.13661">
        <ele>1939.4</ele>
        <time>2022-12-29T14:51:41Z</time>
      </trkpt>
      <trkpt lat="45.00566" lon="6.13659">
        <ele>1939.4</ele>
        <time>2022-12-29T14:51:42Z</time>
      </trkpt>
      <trkpt lat="45.00569" lon="6.13658">
        <ele>1939.4</ele>
        <time>2022-12-29T14:51:43Z</time>
      </trkpt>
      <trkpt lat="45.00572" lon="6.13657">
        <ele>1939.4</ele>
        <time>2022-12-29T14:51:44Z</time>
      </trkpt>
      <trkpt lat="45.00574" lon="6.13655">
        <ele>1939.4</ele>
        <time>2022-12-29T14:51:45Z</time>
      </trkpt>
      <trkpt lat="45.00577" lon="6.13654">
        <ele>1929.2</ele>
        <time>2022-12-29T14:51:46Z</time>
      </trkpt>
      <trkpt lat="45.00581" lon="6.13652">
        <ele>1929.2</ele>
        <time>2022-12-29T14:51:47Z</time>
      </trkpt>
      <trkpt lat="45.00584" lon="6.13651">
        <ele>1929.2</ele>
        <time>2022-12-29T14:51:48Z</time>
      </trkpt>
      <trkpt lat="45.00586" lon="6.1365">
        <ele>1929.2</ele>
        <time>2022-12-29T14:51:49Z</time>
      </trkpt>
      <trkpt lat="45.00588" lon="6.13648">
        <ele>1929.2</ele>
        <time>2022-12-29T14:51:50Z</time>
      </trkpt>
      <trkpt lat="45.0059" lon="6.13647">
        <ele>1929.2</ele>
        <time>2022-12-29T14:51:51Z</time>
      </trkpt>
      <trkpt lat="45.00592" lon="6.13646">
        <ele>1929.2</ele>
        <time>2022-12-29T14:51:52Z</time>
      </trkpt>
      <trkpt lat="45.00594" lon="6.13644">
        <ele>1929.2</ele>
        <time>2022-12-29T14:51:53Z</time>
      </trkpt>
      <trkpt lat="45.00597" lon="6.13643">
        <ele>1929.2</ele>
        <time>2022-12-29T14:51:54Z</time>
      </trkpt>
      <trkpt lat="45.00599" lon="6.13642">
        <ele>1929.2</ele>
        <time>2022-12-29T14:51:55Z</time>
      </trkpt>
      <trkpt lat="45.00601" lon="6.1364">
        <ele>1920.4</ele>
        <time>2022-12-29T14:51:56Z</time>
      </trkpt>
      <trkpt lat="45.00603" lon="6.13634">
        <ele>1920.4</ele>
        <time>2022-12-29T14:51:57Z</time>
      </trkpt>
      <trkpt lat="45.00604" lon="6.13631">
        <ele>1920.4</ele>
        <time>2022-12-29T14:51:58Z</time>
      </trkpt>
      <trkpt lat="45.00605" lon="6.13628">
        <ele>1920.4</ele>
        <time>2022-12-29T14:51:59Z</time>
      </trkpt>
      <trkpt lat="45.00606" lon="6.13625">
        <ele>1920.4</ele>
        <time>2022-12-29T14:52:00Z</time>
      </trkpt>
      <trkpt lat="45.00607" lon="6.13622">
        <ele>1920.4</ele>
        <time>2022-12-29T14:52:01Z</time>
      </trkpt>
      <trkpt lat="45.00607" lon="6.13618">
        <ele>1920.4</ele>
        <time>2022-12-29T14:52:02Z</time>
      </trkpt>
      <trkpt lat="45.00608" lon="6.13615">
        <ele>1920.4</ele>
        <time>2022-12-29T14:52:03Z</time>
      </trkpt>
      <trkpt lat="45.00609" lon="6.13612">
        <ele>1920.4</ele>
        <time>2022-12-29T14:52:04Z</time>
      </trkpt>
      <trkpt lat="45.0061" lon="6.13609">
        <ele>1920.4</ele>
        <time>2022-12-29T14:52:05Z</time>
      </trkpt>
      <trkpt lat="45.00611" lon="6.13606">
        <ele>1911.8</ele>
        <time>2022-12-29T14:52:06Z</time>
      </trkpt>
      <trkpt lat="45.00613" lon="6.13597">
        <ele>1911.8</ele>
        <time>2022-12-29T14:52:07Z</time>
      </trkpt>
      <trkpt lat="45.00615" lon="6.13592">
        <ele>1911.8</ele>
        <time>2022-12-29T14:52:08Z</time>
      </trkpt>
      <trkpt lat="45.00617" lon="6.13588">
        <ele>1911.8</ele>
        <time>2022-12-29T14:52:09Z</time>
      </trkpt>
      <trkpt lat="45.00619" lon="6.13583">
        <ele>1911.8</ele>
        <time>2022-12-29T14:52:10Z</time>
      </trkpt>
      <trkpt lat="45.00621" lon="6.13579">
        <ele>1911.8</ele>
        <time>2022-12-29T14:52:11Z</time>
      </trkpt>
      <trkpt lat="45.00622" lon="6.13575">
        <ele>1911.8</ele>
        <time>2022-12-29T14:52:12Z</time>
      </trkpt>
      <trkpt lat="45.00624" lon="6.1357">
        <ele>1911.8</ele>
        <time>2022-12-29T14:52:13Z</time>
      </trkpt>
      <trkpt lat="45.00626" lon="6.13566">
        <ele>1911.8</ele>
        <time>2022-12-29T14:52:14Z</time>
      </trkpt>
      <trkpt lat="45.00628" lon="6.13561">
        <ele>1911.8</ele>
        <time>2022-12-29T14:52:15Z</time>
      </trkpt>
      <trkpt lat="45.00629" lon="6.13557">
        <ele>1903.4</ele>
        <time>2022-12-29T14:52:16Z</time>
      </trkpt>
      <trkpt lat="45.00634" lon="6.13546">
        <ele>1903.4</ele>
        <time>2022-12-29T14:52:17Z</time>
      </trkpt>
      <trkpt lat="45.00636" lon="6.13542">
        <ele>1903.4</ele>
        <time>2022-12-29T14:52:18Z</time>
      </trkpt>
      <trkpt lat="45.00639" lon="6.13537">
        <ele>1903.4</ele>
        <time>2022-12-29T14:52:19Z</time>
      </trkpt>
      <trkpt lat="45.00641" lon="6.13533">
        <ele>1903.4</ele>
        <time>2022-12-29T14:52:20Z</time>
      </trkpt>
      <trkpt lat="45.00643" lon="6.13528">
        <ele>1903.4</ele>
        <time>2022-12-29T14:52:21Z</time>
      </trkpt>
      <trkpt lat="45.00646" lon="6.13524">
        <ele>1903.4</ele>
        <time>2022-12-29T14:52:22Z</time>
      </trkpt>
      <trkpt lat="45.00648" lon="6.13519">
        <ele>1903.4</ele>
        <time>2022-12-29T14:52:23Z</time>
      </trkpt>
      <trkpt lat="45.00651" lon="6.13515">
        <ele>1903.4</ele>
        <time>2022-12-29T14:52:24Z</time>
      </trkpt>
      <trkpt lat="45.00653" lon="6.1351">
        <ele>1903.4</ele>
        <time>2022-12-29T14:52:25Z</time>
      </trkpt>
      <trkpt lat="45.00655" lon="6.13506">
        <ele>1894.6</ele>
        <time>2022-12-29T14:52:26Z</time>
      </trkpt>
      <trkpt lat="45.00662" lon="6.13499">
        <ele>1894.6</ele>
        <time>2022-12-29T14:52:27Z</time>
      </trkpt>
      <trkpt lat="45.00665" lon="6.13496">
        <ele>1894.6</ele>
        <time>2022-12-29T14:52:28Z</time>
      </trkpt>
      <trkpt lat="45.00668" lon="6.13493">
        <ele>1894.6</ele>
        <time>2022-12-29T14:52:29Z</time>
      </trkpt>
      <trkpt lat="45.00671" lon="6.13489">
        <ele>1894.6</ele>
        <time>2022-12-29T14:52:30Z</time>
      </trkpt>
      <trkpt lat="45.00674" lon="6.13486">
        <ele>1894.6</ele>
        <time>2022-12-29T14:52:31Z</time>
      </trkpt>
      <trkpt lat="45.00677" lon="6.13483">
        <ele>1894.6</ele>
        <time>2022-12-29T14:52:32Z</time>
      </trkpt>
      <trkpt lat="45.0068" lon="6.1348">
        <ele>1894.6</ele>
        <time>2022-12-29T14:52:33Z</time>
      </trkpt>
      <trkpt lat="45.00683" lon="6.13477">
        <ele>1894.6</ele>
        <time>2022-12-29T14:52:34Z</time>
      </trkpt>
      <trkpt lat="45.00686" lon="6.13474">
        <ele>1894.6</ele>
        <time>2022-12-29T14:52:35Z</time>
      </trkpt>
      <trkpt lat="45.00689" lon="6.13471">
        <ele>1885</ele>
        <time>2022-12-29T14:52:36Z</time>
      </trkpt>
      <trkpt lat="45.00694" lon="6.13464">
        <ele>1885</ele>
        <time>2022-12-29T14:52:37Z</time>
      </trkpt>
      <trkpt lat="45.00697" lon="6.13462">
        <ele>1885</ele>
        <time>2022-12-29T14:52:38Z</time>
      </trkpt>
      <trkpt lat="45.007" lon="6.13459">
        <ele>1885</ele>
        <time>2022-12-29T14:52:39Z</time>
      </trkpt>
      <trkpt lat="45.00702" lon="6.13456">
        <ele>1885</ele>
        <time>2022-12-29T14:52:40Z</time>
      </trkpt>
      <trkpt lat="45.00705" lon="6.13454">
        <ele>1885</ele>
        <time>2022-12-29T14:52:41Z</time>
      </trkpt>
      <trkpt lat="45.00707" lon="6.13451">
        <ele>1885</ele>
        <time>2022-12-29T14:52:42Z</time>
      </trkpt>
      <trkpt lat="45.0071" lon="6.13449">
        <ele>1885</ele>
        <time>2022-12-29T14:52:43Z</time>
      </trkpt>
      <trkpt lat="45.00712" lon="6.13446">
        <ele>1885</ele>
        <time>2022-12-29T14:52:44Z</time>
      </trkpt>
      <trkpt lat="45.00715" lon="6.13443">
        <ele>1885</ele>
        <time>2022-12-29T14:52:45Z</time>
      </trkpt>
      <trkpt lat="45.00717" lon="6.13441">
        <ele>1875.6</ele>
        <time>2022-12-29T14:52:46Z</time>
      </trkpt>
      <trkpt lat="45.00723" lon="6.13437">
        <ele>1875.6</ele>
        <time>2022-12-29T14:52:47Z</time>
      </trkpt>
      <trkpt lat="45.00726" lon="6.13434">
        <ele>1875.6</ele>
        <time>2022-12-29T14:52:48Z</time>
      </trkpt>
      <trkpt lat="45.00728" lon="6.13432">
        <ele>1875.6</ele>
        <time>2022-12-29T14:52:49Z</time>
      </trkpt>
      <trkpt lat="45.00731" lon="6.13429">
        <ele>1875.6</ele>
        <time>2022-12-29T14:52:50Z</time>
      </trkpt>
      <trkpt lat="45.00734" lon="6.13426">
        <ele>1875.6</ele>
        <time>2022-12-29T14:52:51Z</time>
      </trkpt>
      <trkpt lat="45.00736" lon="6.13423">
        <ele>1875.6</ele>
        <time>2022-12-29T14:52:52Z</time>
      </trkpt>
      <trkpt lat="45.00739" lon="6.1342">
        <ele>1875.6</ele>
        <time>2022-12-29T14:52:53Z</time>
      </trkpt>
      <trkpt lat="45.00741" lon="6.13417">
        <ele>1875.6</ele>
        <time>2022-12-29T14:52:54Z</time>
      </trkpt>
      <trkpt lat="45.00744" lon="6.13414">
        <ele>1875.6</ele>
        <time>2022-12-29T14:52:55Z</time>
      </trkpt>
      <trkpt lat="45.00747" lon="6.13411">
        <ele>1865.8</ele>
        <time>2022-12-29T14:52:56Z</time>
      </trkpt>
      <trkpt lat="45.00753" lon="6.13404">
        <ele>1865.8</ele>
        <time>2022-12-29T14:52:57Z</time>
      </trkpt>
      <trkpt lat="45.00757" lon="6.13401">
        <ele>1865.8</ele>
        <time>2022-12-29T14:52:58Z</time>
      </trkpt>
      <trkpt lat="45.0076" lon="6.13398">
        <ele>1865.8</ele>
        <time>2022-12-29T14:52:59Z</time>
      </trkpt>
      <trkpt lat="45.00763" lon="6.13395">
        <ele>1865.8</ele>
        <time>2022-12-29T14:53:00Z</time>
      </trkpt>
      <trkpt lat="45.00767" lon="6.13392">
        <ele>1865.8</ele>
        <time>2022-12-29T14:53:01Z</time>
      </trkpt>
      <trkpt lat="45.0077" lon="6.13389">
        <ele>1865.8</ele>
        <time>2022-12-29T14:53:02Z</time>
      </trkpt>
      <trkpt lat="45.00773" lon="6.13386">
        <ele>1865.8</ele>
        <time>2022-12-29T14:53:03Z</time>
      </trkpt>
      <trkpt lat="45.00776" lon="6.13383">
        <ele>1865.8</ele>
        <time>2022-12-29T14:53:04Z</time>
      </trkpt>
      <trkpt lat="45.0078" lon="6.1338">
        <ele>1865.8</ele>
        <time>2022-12-29T14:53:05Z</time>
      </trkpt>
      <trkpt lat="45.00783" lon="6.13377">
        <ele>1852.8</ele>
        <time>2022-12-29T14:53:06Z</time>
      </trkpt>
      <trkpt lat="45.00791" lon="6.13374">
        <ele>1852.8</ele>
        <time>2022-12-29T14:53:07Z</time>
      </trkpt>
      <trkpt lat="45.00795" lon="6.13373">
        <ele>1852.8</ele>
        <time>2022-12-29T14:53:08Z</time>
      </trkpt>
      <trkpt lat="45.00799" lon="6.13371">
        <ele>1852.8</ele>
        <time>2022-12-29T14:53:09Z</time>
      </trkpt>
      <trkpt lat="45.00803" lon="6.1337">
        <ele>1852.8</ele>
        <time>2022-12-29T14:53:10Z</time>
      </trkpt>
      <trkpt lat="45.00807" lon="6.13368">
        <ele>1852.8</ele>
        <time>2022-12-29T14:53:11Z</time>
      </trkpt>
      <trkpt lat="45.00811" lon="6.13367">
        <ele>1852.8</ele>
        <time>2022-12-29T14:53:12Z</time>
      </trkpt>
      <trkpt lat="45.00815" lon="6.13365">
        <ele>1852.8</ele>
        <time>2022-12-29T14:53:13Z</time>
      </trkpt>
      <trkpt lat="45.00819" lon="6.13364">
        <ele>1852.8</ele>
        <time>2022-12-29T14:53:14Z</time>
      </trkpt>
      <trkpt lat="45.00823" lon="6.13362">
        <ele>1852.8</ele>
        <time>2022-12-29T14:53:15Z</time>
      </trkpt>
      <trkpt lat="45.00827" lon="6.13361">
        <ele>1840.8</ele>
        <time>2022-12-29T14:53:16Z</time>
      </trkpt>
      <trkpt lat="45.00835" lon="6.13359">
        <ele>1840.8</ele>
        <time>2022-12-29T14:53:17Z</time>
      </trkpt>
      <trkpt lat="45.00838" lon="6.13358">
        <ele>1840.8</ele>
        <time>2022-12-29T14:53:18Z</time>
      </trkpt>
      <trkpt lat="45.00842" lon="6.13356">
        <ele>1840.8</ele>
        <time>2022-12-29T14:53:19Z</time>
      </trkpt>
      <trkpt lat="45.00845" lon="6.13354">
        <ele>1840.8</ele>
        <time>2022-12-29T14:53:20Z</time>
      </trkpt>
      <trkpt lat="45.00849" lon="6.13352">
        <ele>1840.8</ele>
        <time>2022-12-29T14:53:21Z</time>
      </trkpt>
      <trkpt lat="45.00852" lon="6.13351">
        <ele>1840.8</ele>
        <time>2022-12-29T14:53:22Z</time>
      </trkpt>
      <trkpt lat="45.00856" lon="6.13349">
        <ele>1840.8</ele>
        <time>2022-12-29T14:53:23Z</time>
      </trkpt>
      <trkpt lat="45.00859" lon="6.13347">
        <ele>1840.8</ele>
        <time>2022-12-29T14:53:24Z</time>
      </trkpt>
      <trkpt lat="45.00863" lon="6.13346">
        <ele>1840.8</ele>
        <time>2022-12-29T14:53:25Z</time>
      </trkpt>
      <trkpt lat="45.00866" lon="6.13344">
        <ele>1827.4</ele>
        <time>2022-12-29T14:53:26Z</time>
      </trkpt>
      <trkpt lat="45.00872" lon="6.13337">
        <ele>1827.4</ele>
        <time>2022-12-29T14:53:27Z</time>
      </trkpt>
      <trkpt lat="45.00874" lon="6.13333">
        <ele>1827.4</ele>
        <time>2022-12-29T14:53:28Z</time>
      </trkpt>
      <trkpt lat="45.00876" lon="6.13329">
        <ele>1827.4</ele>
        <time>2022-12-29T14:53:29Z</time>
      </trkpt>
      <trkpt lat="45.00878" lon="6.13325">
        <ele>1827.4</ele>
        <time>2022-12-29T14:53:30Z</time>
      </trkpt>
      <trkpt lat="45.0088" lon="6.13321">
        <ele>1827.4</ele>
        <time>2022-12-29T14:53:31Z</time>
      </trkpt>
      <trkpt lat="45.00882" lon="6.13317">
        <ele>1827.4</ele>
        <time>2022-12-29T14:53:32Z</time>
      </trkpt>
      <trkpt lat="45.00885" lon="6.13313">
        <ele>1827.4</ele>
        <time>2022-12-29T14:53:33Z</time>
      </trkpt>
      <trkpt lat="45.00887" lon="6.13308">
        <ele>1827.4</ele>
        <time>2022-12-29T14:53:34Z</time>
      </trkpt>
      <trkpt lat="45.00889" lon="6.13304">
        <ele>1827.4</ele>
        <time>2022-12-29T14:53:35Z</time>
      </trkpt>
      <trkpt lat="45.00891" lon="6.133">
        <ele>1814</ele>
        <time>2022-12-29T14:53:36Z</time>
      </trkpt>
      <trkpt lat="45.00895" lon="6.13293">
        <ele>1814</ele>
        <time>2022-12-29T14:53:37Z</time>
      </trkpt>
      <trkpt lat="45.00898" lon="6.1329">
        <ele>1814</ele>
        <time>2022-12-29T14:53:38Z</time>
      </trkpt>
      <trkpt lat="45.00901" lon="6.13287">
        <ele>1814</ele>
        <time>2022-12-29T14:53:39Z</time>
      </trkpt>
      <trkpt lat="45.00904" lon="6.13285">
        <ele>1814</ele>
        <time>2022-12-29T14:53:40Z</time>
      </trkpt>
      <trkpt lat="45.00907" lon="6.13282">
        <ele>1814</ele>
        <time>2022-12-29T14:53:41Z</time>
      </trkpt>
      <trkpt lat="45.0091" lon="6.13279">
        <ele>1814</ele>
        <time>2022-12-29T14:53:42Z</time>
      </trkpt>
      <trkpt lat="45.00913" lon="6.13277">
        <ele>1814</ele>
        <time>2022-12-29T14:53:43Z</time>
      </trkpt>
      <trkpt lat="45.00916" lon="6.13274">
        <ele>1814</ele>
        <time>2022-12-29T14:53:44Z</time>
      </trkpt>
      <trkpt lat="45.00919" lon="6.13271">
        <ele>1814</ele>
        <time>2022-12-29T14:53:45Z</time>
      </trkpt>
      <trkpt lat="45.00922" lon="6.13269">
        <ele>1800.8</ele>
        <time>2022-12-29T14:53:46Z</time>
      </trkpt>
      <trkpt lat="45.00929" lon="6.13262">
        <ele>1800.8</ele>
        <time>2022-12-29T14:53:47Z</time>
      </trkpt>
      <trkpt lat="45.00933" lon="6.13259">
        <ele>1800.8</ele>
        <time>2022-12-29T14:53:48Z</time>
      </trkpt>
      <trkpt lat="45.00937" lon="6.13256">
        <ele>1800.8</ele>
        <time>2022-12-29T14:53:49Z</time>
      </trkpt>
      <trkpt lat="45.00941" lon="6.13253">
        <ele>1800.8</ele>
        <time>2022-12-29T14:53:50Z</time>
      </trkpt>
      <trkpt lat="45.00946" lon="6.1325">
        <ele>1800.8</ele>
        <time>2022-12-29T14:53:51Z</time>
      </trkpt>
      <trkpt lat="45.0095" lon="6.13248">
        <ele>1800.8</ele>
        <time>2022-12-29T14:53:52Z</time>
      </trkpt>
      <trkpt lat="45.00954" lon="6.13245">
        <ele>1800.8</ele>
        <time>2022-12-29T14:53:53Z</time>
      </trkpt>
      <trkpt lat="45.00958" lon="6.13242">
        <ele>1800.8</ele>
        <time>2022-12-29T14:53:54Z</time>
      </trkpt>
      <trkpt lat="45.00962" lon="6.13239">
        <ele>1800.8</ele>
        <time>2022-12-29T14:53:55Z</time>
      </trkpt>
      <trkpt lat="45.00966" lon="6.13236">
        <ele>1787.4</ele>
        <time>2022-12-29T14:53:56Z</time>
      </trkpt>
      <trkpt lat="45.00974" lon="6.13228">
        <ele>1787.4</ele>
        <time>2022-12-29T14:53:57Z</time>
      </trkpt>
      <trkpt lat="45.00976" lon="6.13226">
        <ele>1787.4</ele>
        <time>2022-12-29T14:53:58Z</time>
      </trkpt>
      <trkpt lat="45.00979" lon="6.13224">
        <ele>1787.4</ele>
        <time>2022-12-29T14:53:59Z</time>
      </trkpt>
      <trkpt lat="45.00982" lon="6.13222">
        <ele>1787.4</ele>
        <time>2022-12-29T14:54:00Z</time>
      </trkpt>
      <trkpt lat="45.00985" lon="6.1322">
        <ele>1787.4</ele>
        <time>2022-12-29T14:54:01Z</time>
      </trkpt>
      <trkpt lat="45.00988" lon="6.13217">
        <ele>1787.4</ele>
        <time>2022-12-29T14:54:02Z</time>
      </trkpt>
      <trkpt lat="45.00991" lon="6.13215">
        <ele>1787.4</ele>
        <time>2022-12-29T14:54:03Z</time>
      </trkpt>
      <trkpt lat="45.00994" lon="6.13213">
        <ele>1787.4</ele>
        <time>2022-12-29T14:54:04Z</time>
      </trkpt>
      <trkpt lat="45.00997" lon="6.13211">
        <ele>1787.4</ele>
        <time>2022-12-29T14:54:05Z</time>
      </trkpt>
      <trkpt lat="45.01" lon="6.13209">
        <ele>1778.6</ele>
        <time>2022-12-29T14:54:06Z</time>
      </trkpt>
      <trkpt lat="45.01005" lon="6.13205">
        <ele>1778.6</ele>
        <time>2022-12-29T14:54:07Z</time>
      </trkpt>
      <trkpt lat="45.01007" lon="6.13204">
        <ele>1778.6</ele>
        <time>2022-12-29T14:54:08Z</time>
      </trkpt>
      <trkpt lat="45.0101" lon="6.13203">
        <ele>1778.6</ele>
        <time>2022-12-29T14:54:09Z</time>
      </trkpt>
      <trkpt lat="45.01012" lon="6.13201">
        <ele>1778.6</ele>
        <time>2022-12-29T14:54:10Z</time>
      </trkpt>
      <trkpt lat="45.01015" lon="6.132">
        <ele>1778.6</ele>
        <time>2022-12-29T14:54:11Z</time>
      </trkpt>
      <trkpt lat="45.01017" lon="6.13199">
        <ele>1778.6</ele>
        <time>2022-12-29T14:54:12Z</time>
      </trkpt>
      <trkpt lat="45.0102" lon="6.13197">
        <ele>1778.6</ele>
        <time>2022-12-29T14:54:13Z</time>
      </trkpt>
      <trkpt lat="45.01022" lon="6.13196">
        <ele>1778.6</ele>
        <time>2022-12-29T14:54:14Z</time>
      </trkpt>
      <trkpt lat="45.01024" lon="6.13195">
        <ele>1778.6</ele>
        <time>2022-12-29T14:54:15Z</time>
      </trkpt>
      <trkpt lat="45.01027" lon="6.13193">
        <ele>1774.4</ele>
        <time>2022-12-29T14:54:16Z</time>
      </trkpt>
      <trkpt lat="45.01032" lon="6.13191">
        <ele>1774.4</ele>
        <time>2022-12-29T14:54:17Z</time>
      </trkpt>
      <trkpt lat="45.01035" lon="6.1319">
        <ele>1774.4</ele>
        <time>2022-12-29T14:54:18Z</time>
      </trkpt>
      <trkpt lat="45.01037" lon="6.13189">
        <ele>1774.4</ele>
        <time>2022-12-29T14:54:19Z</time>
      </trkpt>
      <trkpt lat="45.01039" lon="6.13187">
        <ele>1774.4</ele>
        <time>2022-12-29T14:54:20Z</time>
      </trkpt>
      <trkpt lat="45.01041" lon="6.13186">
        <ele>1774.4</ele>
        <time>2022-12-29T14:54:21Z</time>
      </trkpt>
      <trkpt lat="45.01044" lon="6.13185">
        <ele>1774.4</ele>
        <time>2022-12-29T14:54:22Z</time>
      </trkpt>
      <trkpt lat="45.01046" lon="6.13184">
        <ele>1774.4</ele>
        <time>2022-12-29T14:54:23Z</time>
      </trkpt>
      <trkpt lat="45.01048" lon="6.13182">
        <ele>1774.4</ele>
        <time>2022-12-29T14:54:24Z</time>
      </trkpt>
      <trkpt lat="45.01051" lon="6.13181">
        <ele>1774.4</ele>
        <time>2022-12-29T14:54:25Z</time>
      </trkpt>
      <trkpt lat="45.01053" lon="6.1318">
        <ele>1766.4</ele>
        <time>2022-12-29T14:54:26Z</time>
      </trkpt>
      <trkpt lat="45.01059" lon="6.13176">
        <ele>1766.4</ele>
        <time>2022-12-29T14:54:27Z</time>
      </trkpt>
      <trkpt lat="45.01061" lon="6.13174">
        <ele>1766.4</ele>
        <time>2022-12-29T14:54:28Z</time>
      </trkpt>
      <trkpt lat="45.01063" lon="6.13173">
        <ele>1766.4</ele>
        <time>2022-12-29T14:54:29Z</time>
      </trkpt>
      <trkpt lat="45.01065" lon="6.13171">
        <ele>1766.4</ele>
        <time>2022-12-29T14:54:30Z</time>
      </trkpt>
      <trkpt lat="45.01067" lon="6.1317">
        <ele>1766.4</ele>
        <time>2022-12-29T14:54:31Z</time>
      </trkpt>
      <trkpt lat="45.01069" lon="6.13168">
        <ele>1766.4</ele>
        <time>2022-12-29T14:54:32Z</time>
      </trkpt>
      <trkpt lat="45.01071" lon="6.13167">
        <ele>1766.4</ele>
        <time>2022-12-29T14:54:33Z</time>
      </trkpt>
      <trkpt lat="45.01073" lon="6.13165">
        <ele>1766.4</ele>
        <time>2022-12-29T14:54:34Z</time>
      </trkpt>
      <trkpt lat="45.01075" lon="6.13164">
        <ele>1766.4</ele>
        <time>2022-12-29T14:54:35Z</time>
      </trkpt>
      <trkpt lat="45.01077" lon="6.13162">
        <ele>1761</ele>
        <time>2022-12-29T14:54:36Z</time>
      </trkpt>
      <trkpt lat="45.01077" lon="6.13162">
        <ele>1761</ele>
        <time>2022-12-29T14:54:37Z</time>
      </trkpt>
      <trkpt lat="45.01077" lon="6.13162">
        <ele>1761</ele>
        <time>2022-12-29T14:54:38Z</time>
      </trkpt>
      <trkpt lat="45.01077" lon="6.13162">
        <ele>1761</ele>
        <time>2022-12-29T14:54:39Z</time>
      </trkpt>
      <trkpt lat="45.01077" lon="6.13162">
        <ele>1761</ele>
        <time>2022-12-29T14:54:40Z</time>
      </trkpt>
      <trkpt lat="45.01077" lon="6.13162">
        <ele>1761</ele>
        <time>2022-12-29T14:54:41Z</time>
      </trkpt>
      <trkpt lat="45.01077" lon="6.13162">
        <ele>1761</ele>
        <time>2022-12-29T14:54:42Z</time>
      </trkpt>
      <trkpt lat="45.01078" lon="6.1316">
        <ele>1761</ele>
        <time>2022-12-29T14:54:43Z</time>
      </trkpt>
      <trkpt lat="45.01078" lon="6.1316">
        <ele>1761</ele>
        <time>2022-12-29T14:54:44Z</time>
      </trkpt>
      <trkpt lat="45.01078" lon="6.1316">
        <ele>1761</ele>
        <time>2022-12-29T14:54:45Z</time>
      </trkpt>
      <trkpt lat="45.01078" lon="6.1316">
        <ele>1760.4</ele>
        <time>2022-12-29T14:54:46Z</time>
      </trkpt>
      <trkpt lat="45.01079" lon="6.13158">
        <ele>1760.4</ele>
        <time>2022-12-29T14:54:47Z</time>
      </trkpt>
      <trkpt lat="45.0108" lon="6.13157">
        <ele>1760.4</ele>
        <time>2022-12-29T14:54:48Z</time>
      </trkpt>
      <trkpt lat="45.01081" lon="6.13155">
        <ele>1760.4</ele>
        <time>2022-12-29T14:54:49Z</time>
      </trkpt>
      <trkpt lat="45.01083" lon="6.13154">
        <ele>1760.4</ele>
        <time>2022-12-29T14:54:50Z</time>
      </trkpt>
      <trkpt lat="45.01084" lon="6.13152">
        <ele>1760.4</ele>
        <time>2022-12-29T14:54:51Z</time>
      </trkpt>
      <trkpt lat="45.01085" lon="6.13151">
        <ele>1760.4</ele>
        <time>2022-12-29T14:54:52Z</time>
      </trkpt>
      <trkpt lat="45.01086" lon="6.13149">
        <ele>1760.4</ele>
        <time>2022-12-29T14:54:53Z</time>
      </trkpt>
      <trkpt lat="45.01088" lon="6.13148">
        <ele>1760.4</ele>
        <time>2022-12-29T14:54:54Z</time>
      </trkpt>
      <trkpt lat="45.01089" lon="6.13146">
        <ele>1760.4</ele>
        <time>2022-12-29T14:54:55Z</time>
      </trkpt>
      <trkpt lat="45.0109" lon="6.13145">
        <ele>1758.4</ele>
        <time>2022-12-29T14:54:56Z</time>
      </trkpt>
      <trkpt lat="45.01097" lon="6.13141">
        <ele>1758.4</ele>
        <time>2022-12-29T14:54:57Z</time>
      </trkpt>
      <trkpt lat="45.01099" lon="6.13141">
        <ele>1758.4</ele>
        <time>2022-12-29T14:54:58Z</time>
      </trkpt>
      <trkpt lat="45.01102" lon="6.1314">
        <ele>1758.4</ele>
        <time>2022-12-29T14:54:59Z</time>
      </trkpt>
      <trkpt lat="45.01104" lon="6.1314">
        <ele>1758.4</ele>
        <time>2022-12-29T14:55:00Z</time>
      </trkpt>
      <trkpt lat="45.01107" lon="6.13139">
        <ele>1758.4</ele>
        <time>2022-12-29T14:55:01Z</time>
      </trkpt>
      <trkpt lat="45.01109" lon="6.13139">
        <ele>1758.4</ele>
        <time>2022-12-29T14:55:02Z</time>
      </trkpt>
      <trkpt lat="45.01112" lon="6.13139">
        <ele>1758.4</ele>
        <time>2022-12-29T14:55:03Z</time>
      </trkpt>
      <trkpt lat="45.01114" lon="6.13138">
        <ele>1758.4</ele>
        <time>2022-12-29T14:55:04Z</time>
      </trkpt>
      <trkpt lat="45.01117" lon="6.13138">
        <ele>1758.4</ele>
        <time>2022-12-29T14:55:05Z</time>
      </trkpt>
      <trkpt lat="45.01119" lon="6.13138">
        <ele>1751.6</ele>
        <time>2022-12-29T14:55:06Z</time>
      </trkpt>
      <trkpt lat="45.01124" lon="6.13135">
        <ele>1751.6</ele>
        <time>2022-12-29T14:55:07Z</time>
      </trkpt>
      <trkpt lat="45.01128" lon="6.13133">
        <ele>1751.6</ele>
        <time>2022-12-29T14:55:08Z</time>
      </trkpt>
      <trkpt lat="45.01131" lon="6.13131">
        <ele>1751.6</ele>
        <time>2022-12-29T14:55:09Z</time>
      </trkpt>
      <trkpt lat="45.01135" lon="6.1313">
        <ele>1751.6</ele>
        <time>2022-12-29T14:55:10Z</time>
      </trkpt>
      <trkpt lat="45.01139" lon="6.13128">
        <ele>1751.6</ele>
        <time>2022-12-29T14:55:11Z</time>
      </trkpt>
      <trkpt lat="45.01143" lon="6.13126">
        <ele>1751.6</ele>
        <time>2022-12-29T14:55:12Z</time>
      </trkpt>
      <trkpt lat="45.01146" lon="6.13124">
        <ele>1751.6</ele>
        <time>2022-12-29T14:55:13Z</time>
      </trkpt>
      <trkpt lat="45.0115" lon="6.13123">
        <ele>1751.6</ele>
        <time>2022-12-29T14:55:14Z</time>
      </trkpt>
      <trkpt lat="45.01154" lon="6.13121">
        <ele>1751.6</ele>
        <time>2022-12-29T14:55:15Z</time>
      </trkpt>
      <trkpt lat="45.01158" lon="6.13119">
        <ele>1747.2</ele>
        <time>2022-12-29T14:55:16Z</time>
      </trkpt>
      <trkpt lat="45.01167" lon="6.13116">
        <ele>1747.2</ele>
        <time>2022-12-29T14:55:17Z</time>
      </trkpt>
      <trkpt lat="45.0117" lon="6.13114">
        <ele>1747.2</ele>
        <time>2022-12-29T14:55:18Z</time>
      </trkpt>
      <trkpt lat="45.01174" lon="6.13113">
        <ele>1747.2</ele>
        <time>2022-12-29T14:55:19Z</time>
      </trkpt>
      <trkpt lat="45.01177" lon="6.13111">
        <ele>1747.2</ele>
        <time>2022-12-29T14:55:20Z</time>
      </trkpt>
      <trkpt lat="45.01181" lon="6.1311">
        <ele>1747.2</ele>
        <time>2022-12-29T14:55:21Z</time>
      </trkpt>
      <trkpt lat="45.01184" lon="6.13108">
        <ele>1747.2</ele>
        <time>2022-12-29T14:55:22Z</time>
      </trkpt>
      <trkpt lat="45.01187" lon="6.13107">
        <ele>1747.2</ele>
        <time>2022-12-29T14:55:23Z</time>
      </trkpt>
      <trkpt lat="45.01191" lon="6.13105">
        <ele>1747.2</ele>
        <time>2022-12-29T14:55:24Z</time>
      </trkpt>
      <trkpt lat="45.01194" lon="6.13104">
        <ele>1747.2</ele>
        <time>2022-12-29T14:55:25Z</time>
      </trkpt>
      <trkpt lat="45.01198" lon="6.13102">
        <ele>1742.6</ele>
        <time>2022-12-29T14:55:26Z</time>
      </trkpt>
      <trkpt lat="45.01204" lon="6.131">
        <ele>1742.6</ele>
        <time>2022-12-29T14:55:27Z</time>
      </trkpt>
      <trkpt lat="45.01207" lon="6.13098">
        <ele>1742.6</ele>
        <time>2022-12-29T14:55:28Z</time>
      </trkpt>
      <trkpt lat="45.0121" lon="6.13097">
        <ele>1742.6</ele>
        <time>2022-12-29T14:55:29Z</time>
      </trkpt>
      <trkpt lat="45.01213" lon="6.13096">
        <ele>1742.6</ele>
        <time>2022-12-29T14:55:30Z</time>
      </trkpt>
      <trkpt lat="45.01217" lon="6.13095">
        <ele>1742.6</ele>
        <time>2022-12-29T14:55:31Z</time>
      </trkpt>
      <trkpt lat="45.0122" lon="6.13093">
        <ele>1742.6</ele>
        <time>2022-12-29T14:55:32Z</time>
      </trkpt>
      <trkpt lat="45.01223" lon="6.13092">
        <ele>1742.6</ele>
        <time>2022-12-29T14:55:33Z</time>
      </trkpt>
      <trkpt lat="45.01226" lon="6.13091">
        <ele>1742.6</ele>
        <time>2022-12-29T14:55:34Z</time>
      </trkpt>
      <trkpt lat="45.01229" lon="6.1309">
        <ele>1742.6</ele>
        <time>2022-12-29T14:55:35Z</time>
      </trkpt>
      <trkpt lat="45.01232" lon="6.13088">
        <ele>1739.8</ele>
        <time>2022-12-29T14:55:36Z</time>
      </trkpt>
      <trkpt lat="45.01238" lon="6.13085">
        <ele>1739.8</ele>
        <time>2022-12-29T14:55:37Z</time>
      </trkpt>
      <trkpt lat="45.0124" lon="6.13084">
        <ele>1739.8</ele>
        <time>2022-12-29T14:55:38Z</time>
      </trkpt>
      <trkpt lat="45.01243" lon="6.13083">
        <ele>1739.8</ele>
        <time>2022-12-29T14:55:39Z</time>
      </trkpt>
      <trkpt lat="45.01246" lon="6.13082">
        <ele>1739.8</ele>
        <time>2022-12-29T14:55:40Z</time>
      </trkpt>
      <trkpt lat="45.01249" lon="6.13081">
        <ele>1739.8</ele>
        <time>2022-12-29T14:55:41Z</time>
      </trkpt>
      <trkpt lat="45.01251" lon="6.13079">
        <ele>1739.8</ele>
        <time>2022-12-29T14:55:42Z</time>
      </trkpt>
      <trkpt lat="45.01254" lon="6.13078">
        <ele>1739.8</ele>
        <time>2022-12-29T14:55:43Z</time>
      </trkpt>
      <trkpt lat="45.01257" lon="6.13077">
        <ele>1739.8</ele>
        <time>2022-12-29T14:55:44Z</time>
      </trkpt>
      <trkpt lat="45.01259" lon="6.13076">
        <ele>1739.8</ele>
        <time>2022-12-29T14:55:45Z</time>
      </trkpt>
      <trkpt lat="45.01262" lon="6.13075">
        <ele>1736.6</ele>
        <time>2022-12-29T14:55:46Z</time>
      </trkpt>
      <trkpt lat="45.01269" lon="6.1307">
        <ele>1736.6</ele>
        <time>2022-12-29T14:55:47Z</time>
      </trkpt>
      <trkpt lat="45.01273" lon="6.13068">
        <ele>1736.6</ele>
        <time>2022-12-29T14:55:48Z</time>
      </trkpt>
      <trkpt lat="45.01277" lon="6.13066">
        <ele>1736.6</ele>
        <time>2022-12-29T14:55:49Z</time>
      </trkpt>
      <trkpt lat="45.0128" lon="6.13064">
        <ele>1736.6</ele>
        <time>2022-12-29T14:55:50Z</time>
      </trkpt>
      <trkpt lat="45.01284" lon="6.13062">
        <ele>1736.6</ele>
        <time>2022-12-29T14:55:51Z</time>
      </trkpt>
      <trkpt lat="45.01288" lon="6.1306">
        <ele>1736.6</ele>
        <time>2022-12-29T14:55:52Z</time>
      </trkpt>
      <trkpt lat="45.01291" lon="6.13058">
        <ele>1736.6</ele>
        <time>2022-12-29T14:55:53Z</time>
      </trkpt>
      <trkpt lat="45.01295" lon="6.13056">
        <ele>1736.6</ele>
        <time>2022-12-29T14:55:54Z</time>
      </trkpt>
      <trkpt lat="45.01299" lon="6.13054">
        <ele>1736.6</ele>
        <time>2022-12-29T14:55:55Z</time>
      </trkpt>
      <trkpt lat="45.01303" lon="6.13052">
        <ele>1730.6</ele>
        <time>2022-12-29T14:55:56Z</time>
      </trkpt>
      <trkpt lat="45.01309" lon="6.1305">
        <ele>1730.6</ele>
        <time>2022-12-29T14:55:57Z</time>
      </trkpt>
      <trkpt lat="45.01313" lon="6.13049">
        <ele>1730.6</ele>
        <time>2022-12-29T14:55:58Z</time>
      </trkpt>
      <trkpt lat="45.01316" lon="6.13048">
        <ele>1730.6</ele>
        <time>2022-12-29T14:55:59Z</time>
      </trkpt>
      <trkpt lat="45.01319" lon="6.13047">
        <ele>1730.6</ele>
        <time>2022-12-29T14:56:00Z</time>
      </trkpt>
      <trkpt lat="45.01322" lon="6.13047">
        <ele>1730.6</ele>
        <time>2022-12-29T14:56:01Z</time>
      </trkpt>
      <trkpt lat="45.01325" lon="6.13046">
        <ele>1730.6</ele>
        <time>2022-12-29T14:56:02Z</time>
      </trkpt>
      <trkpt lat="45.01328" lon="6.13045">
        <ele>1730.6</ele>
        <time>2022-12-29T14:56:03Z</time>
      </trkpt>
      <trkpt lat="45.01331" lon="6.13044">
        <ele>1730.6</ele>
        <time>2022-12-29T14:56:04Z</time>
      </trkpt>
      <trkpt lat="45.01334" lon="6.13043">
        <ele>1730.6</ele>
        <time>2022-12-29T14:56:05Z</time>
      </trkpt>
      <trkpt lat="45.01337" lon="6.13043">
        <ele>1726.2</ele>
        <time>2022-12-29T14:56:06Z</time>
      </trkpt>
      <trkpt lat="45.01346" lon="6.13039">
        <ele>1726.2</ele>
        <time>2022-12-29T14:56:07Z</time>
      </trkpt>
      <trkpt lat="45.01351" lon="6.13039">
        <ele>1726.2</ele>
        <time>2022-12-29T14:56:08Z</time>
      </trkpt>
      <trkpt lat="45.01355" lon="6.13038">
        <ele>1726.2</ele>
        <time>2022-12-29T14:56:09Z</time>
      </trkpt>
      <trkpt lat="45.01359" lon="6.13037">
        <ele>1726.2</ele>
        <time>2022-12-29T14:56:10Z</time>
      </trkpt>
      <trkpt lat="45.01363" lon="6.13037">
        <ele>1726.2</ele>
        <time>2022-12-29T14:56:11Z</time>
      </trkpt>
      <trkpt lat="45.01368" lon="6.13036">
        <ele>1726.2</ele>
        <time>2022-12-29T14:56:12Z</time>
      </trkpt>
      <trkpt lat="45.01372" lon="6.13035">
        <ele>1726.2</ele>
        <time>2022-12-29T14:56:13Z</time>
      </trkpt>
      <trkpt lat="45.01376" lon="6.13035">
        <ele>1726.2</ele>
        <time>2022-12-29T14:56:14Z</time>
      </trkpt>
      <trkpt lat="45.0138" lon="6.13034">
        <ele>1726.2</ele>
        <time>2022-12-29T14:56:15Z</time>
      </trkpt>
      <trkpt lat="45.01385" lon="6.13034">
        <ele>1719.2</ele>
        <time>2022-12-29T14:56:16Z</time>
      </trkpt>
      <trkpt lat="45.01391" lon="6.13035">
        <ele>1719.2</ele>
        <time>2022-12-29T14:56:17Z</time>
      </trkpt>
      <trkpt lat="45.01393" lon="6.13036">
        <ele>1719.2</ele>
        <time>2022-12-29T14:56:18Z</time>
      </trkpt>
      <trkpt lat="45.01395" lon="6.13037">
        <ele>1719.2</ele>
        <time>2022-12-29T14:56:19Z</time>
      </trkpt>
      <trkpt lat="45.01398" lon="6.13037">
        <ele>1719.2</ele>
        <time>2022-12-29T14:56:20Z</time>
      </trkpt>
      <trkpt lat="45.014" lon="6.13038">
        <ele>1719.2</ele>
        <time>2022-12-29T14:56:21Z</time>
      </trkpt>
      <trkpt lat="45.01402" lon="6.13038">
        <ele>1719.2</ele>
        <time>2022-12-29T14:56:22Z</time>
      </trkpt>
      <trkpt lat="45.01405" lon="6.13039">
        <ele>1719.2</ele>
        <time>2022-12-29T14:56:23Z</time>
      </trkpt>
      <trkpt lat="45.01407" lon="6.13039">
        <ele>1719.2</ele>
        <time>2022-12-29T14:56:24Z</time>
      </trkpt>
      <trkpt lat="45.01409" lon="6.1304">
        <ele>1719.2</ele>
        <time>2022-12-29T14:56:25Z</time>
      </trkpt>
      <trkpt lat="45.01412" lon="6.1304">
        <ele>1716.6</ele>
        <time>2022-12-29T14:56:26Z</time>
      </trkpt>
      <trkpt lat="45.01415" lon="6.1304">
        <ele>1716.6</ele>
        <time>2022-12-29T14:56:27Z</time>
      </trkpt>
      <trkpt lat="45.01417" lon="6.13039">
        <ele>1716.6</ele>
        <time>2022-12-29T14:56:28Z</time>
      </trkpt>
      <trkpt lat="45.01418" lon="6.13038">
        <ele>1716.6</ele>
        <time>2022-12-29T14:56:29Z</time>
      </trkpt>
      <trkpt lat="45.0142" lon="6.13038">
        <ele>1716.6</ele>
        <time>2022-12-29T14:56:30Z</time>
      </trkpt>
      <trkpt lat="45.01422" lon="6.13037">
        <ele>1716.6</ele>
        <time>2022-12-29T14:56:31Z</time>
      </trkpt>
      <trkpt lat="45.01423" lon="6.13036">
        <ele>1716.6</ele>
        <time>2022-12-29T14:56:32Z</time>
      </trkpt>
      <trkpt lat="45.01425" lon="6.13036">
        <ele>1716.6</ele>
        <time>2022-12-29T14:56:33Z</time>
      </trkpt>
      <trkpt lat="45.01427" lon="6.13035">
        <ele>1716.6</ele>
        <time>2022-12-29T14:56:34Z</time>
      </trkpt>
      <trkpt lat="45.01428" lon="6.13034">
        <ele>1716.6</ele>
        <time>2022-12-29T14:56:35Z</time>
      </trkpt>
      <trkpt lat="45.0143" lon="6.13034">
        <ele>1715</ele>
        <time>2022-12-29T14:56:36Z</time>
      </trkpt>
      <trkpt lat="45.01436" lon="6.1303">
        <ele>1715</ele>
        <time>2022-12-29T14:56:37Z</time>
      </trkpt>
      <trkpt lat="45.01439" lon="6.13028">
        <ele>1715</ele>
        <time>2022-12-29T14:56:38Z</time>
      </trkpt>
      <trkpt lat="45.01442" lon="6.13026">
        <ele>1715</ele>
        <time>2022-12-29T14:56:39Z</time>
      </trkpt>
      <trkpt lat="45.01445" lon="6.13024">
        <ele>1715</ele>
        <time>2022-12-29T14:56:40Z</time>
      </trkpt>
      <trkpt lat="45.01449" lon="6.13022">
        <ele>1715</ele>
        <time>2022-12-29T14:56:41Z</time>
      </trkpt>
      <trkpt lat="45.01452" lon="6.1302">
        <ele>1715</ele>
        <time>2022-12-29T14:56:42Z</time>
      </trkpt>
      <trkpt lat="45.01455" lon="6.13018">
        <ele>1715</ele>
        <time>2022-12-29T14:56:43Z</time>
      </trkpt>
      <trkpt lat="45.01458" lon="6.13016">
        <ele>1715</ele>
        <time>2022-12-29T14:56:44Z</time>
      </trkpt>
      <trkpt lat="45.01462" lon="6.13014">
        <ele>1715</ele>
        <time>2022-12-29T14:56:45Z</time>
      </trkpt>
      <trkpt lat="45.01465" lon="6.13012">
        <ele>1708.6</ele>
        <time>2022-12-29T14:56:46Z</time>
      </trkpt>
      <trkpt lat="45.0147" lon="6.13009">
        <ele>1708.6</ele>
        <time>2022-12-29T14:56:47Z</time>
      </trkpt>
      <trkpt lat="45.01472" lon="6.13007">
        <ele>1708.6</ele>
        <time>2022-12-29T14:56:48Z</time>
      </trkpt>
      <trkpt lat="45.01474" lon="6.13005">
        <ele>1708.6</ele>
        <time>2022-12-29T14:56:49Z</time>
      </trkpt>
      <trkpt lat="45.01477" lon="6.13003">
        <ele>1708.6</ele>
        <time>2022-12-29T14:56:50Z</time>
      </trkpt>
      <trkpt lat="45.01479" lon="6.13001">
        <ele>1708.6</ele>
        <time>2022-12-29T14:56:51Z</time>
      </trkpt>
      <trkpt lat="45.01481" lon="6.12999">
        <ele>1708.6</ele>
        <time>2022-12-29T14:56:52Z</time>
      </trkpt>
      <trkpt lat="45.01484" lon="6.12997">
        <ele>1708.6</ele>
        <time>2022-12-29T14:56:53Z</time>
      </trkpt>
      <trkpt lat="45.01486" lon="6.12995">
        <ele>1708.6</ele>
        <time>2022-12-29T14:56:54Z</time>
      </trkpt>
      <trkpt lat="45.01488" lon="6.12993">
        <ele>1708.6</ele>
        <time>2022-12-29T14:56:55Z</time>
      </trkpt>
      <trkpt lat="45.01491" lon="6.12992">
        <ele>1704.6</ele>
        <time>2022-12-29T14:56:56Z</time>
      </trkpt>
      <trkpt lat="45.01499" lon="6.12989">
        <ele>1704.6</ele>
        <time>2022-12-29T14:56:57Z</time>
      </trkpt>
      <trkpt lat="45.01503" lon="6.12987">
        <ele>1704.6</ele>
        <time>2022-12-29T14:56:58Z</time>
      </trkpt>
      <trkpt lat="45.01507" lon="6.12986">
        <ele>1704.6</ele>
        <time>2022-12-29T14:56:59Z</time>
      </trkpt>
      <trkpt lat="45.01511" lon="6.12984">
        <ele>1704.6</ele>
        <time>2022-12-29T14:57:00Z</time>
      </trkpt>
      <trkpt lat="45.01515" lon="6.12982">
        <ele>1704.6</ele>
        <time>2022-12-29T14:57:01Z</time>
      </trkpt>
      <trkpt lat="45.01518" lon="6.12981">
        <ele>1704.6</ele>
        <time>2022-12-29T14:57:02Z</time>
      </trkpt>
      <trkpt lat="45.01522" lon="6.12979">
        <ele>1704.6</ele>
        <time>2022-12-29T14:57:03Z</time>
      </trkpt>
      <trkpt lat="45.01526" lon="6.12978">
        <ele>1704.6</ele>
        <time>2022-12-29T14:57:04Z</time>
      </trkpt>
      <trkpt lat="45.0153" lon="6.12976">
        <ele>1704.6</ele>
        <time>2022-12-29T14:57:05Z</time>
      </trkpt>
      <trkpt lat="45.01534" lon="6.12974">
        <ele>1697.8</ele>
        <time>2022-12-29T14:57:06Z</time>
      </trkpt>
      <trkpt lat="45.01543" lon="6.1297">
        <ele>1697.8</ele>
        <time>2022-12-29T14:57:07Z</time>
      </trkpt>
      <trkpt lat="45.01547" lon="6.12969">
        <ele>1697.8</ele>
        <time>2022-12-29T14:57:08Z</time>
      </trkpt>
      <trkpt lat="45.01551" lon="6.12968">
        <ele>1697.8</ele>
        <time>2022-12-29T14:57:09Z</time>
      </trkpt>
      <trkpt lat="45.01555" lon="6.12966">
        <ele>1697.8</ele>
        <time>2022-12-29T14:57:10Z</time>
      </trkpt>
      <trkpt lat="45.01559" lon="6.12965">
        <ele>1697.8</ele>
        <time>2022-12-29T14:57:11Z</time>
      </trkpt>
      <trkpt lat="45.01563" lon="6.12963">
        <ele>1697.8</ele>
        <time>2022-12-29T14:57:12Z</time>
      </trkpt>
      <trkpt lat="45.01567" lon="6.12962">
        <ele>1697.8</ele>
        <time>2022-12-29T14:57:13Z</time>
      </trkpt>
      <trkpt lat="45.01572" lon="6.12961">
        <ele>1697.8</ele>
        <time>2022-12-29T14:57:14Z</time>
      </trkpt>
      <trkpt lat="45.01576" lon="6.12959">
        <ele>1697.8</ele>
        <time>2022-12-29T14:57:15Z</time>
      </trkpt>
      <trkpt lat="45.0158" lon="6.12958">
        <ele>1694.6</ele>
        <time>2022-12-29T14:57:16Z</time>
      </trkpt>
      <trkpt lat="45.01587" lon="6.12955">
        <ele>1694.6</ele>
        <time>2022-12-29T14:57:17Z</time>
      </trkpt>
      <trkpt lat="45.0159" lon="6.12953">
        <ele>1694.6</ele>
        <time>2022-12-29T14:57:18Z</time>
      </trkpt>
      <trkpt lat="45.01594" lon="6.1295">
        <ele>1694.6</ele>
        <time>2022-12-29T14:57:19Z</time>
      </trkpt>
      <trkpt lat="45.01597" lon="6.12948">
        <ele>1694.6</ele>
        <time>2022-12-29T14:57:20Z</time>
      </trkpt>
      <trkpt lat="45.01601" lon="6.12946">
        <ele>1694.6</ele>
        <time>2022-12-29T14:57:21Z</time>
      </trkpt>
      <trkpt lat="45.01604" lon="6.12944">
        <ele>1694.6</ele>
        <time>2022-12-29T14:57:22Z</time>
      </trkpt>
      <trkpt lat="45.01607" lon="6.12942">
        <ele>1694.6</ele>
        <time>2022-12-29T14:57:23Z</time>
      </trkpt>
      <trkpt lat="45.01611" lon="6.1294">
        <ele>1694.6</ele>
        <time>2022-12-29T14:57:24Z</time>
      </trkpt>
      <trkpt lat="45.01614" lon="6.12938">
        <ele>1694.6</ele>
        <time>2022-12-29T14:57:25Z</time>
      </trkpt>
      <trkpt lat="45.01618" lon="6.12936">
        <ele>1692.8</ele>
        <time>2022-12-29T14:57:26Z</time>
      </trkpt>
      <trkpt lat="45.01625" lon="6.1293">
        <ele>1692.8</ele>
        <time>2022-12-29T14:57:27Z</time>
      </trkpt>
      <trkpt lat="45.01629" lon="6.12927">
        <ele>1692.8</ele>
        <time>2022-12-29T14:57:28Z</time>
      </trkpt>
      <trkpt lat="45.01632" lon="6.12924">
        <ele>1692.8</ele>
        <time>2022-12-29T14:57:29Z</time>
      </trkpt>
      <trkpt lat="45.01636" lon="6.12921">
        <ele>1692.8</ele>
        <time>2022-12-29T14:57:30Z</time>
      </trkpt>
      <trkpt lat="45.0164" lon="6.12918">
        <ele>1692.8</ele>
        <time>2022-12-29T14:57:31Z</time>
      </trkpt>
      <trkpt lat="45.01643" lon="6.12915">
        <ele>1692.8</ele>
        <time>2022-12-29T14:57:32Z</time>
      </trkpt>
      <trkpt lat="45.01647" lon="6.12912">
        <ele>1692.8</ele>
        <time>2022-12-29T14:57:33Z</time>
      </trkpt>
      <trkpt lat="45.01651" lon="6.12909">
        <ele>1692.8</ele>
        <time>2022-12-29T14:57:34Z</time>
      </trkpt>
      <trkpt lat="45.01654" lon="6.12906">
        <ele>1692.8</ele>
        <time>2022-12-29T14:57:35Z</time>
      </trkpt>
      <trkpt lat="45.01658" lon="6.12903">
        <ele>1688</ele>
        <time>2022-12-29T14:57:36Z</time>
      </trkpt>
      <trkpt lat="45.01666" lon="6.12898">
        <ele>1688</ele>
        <time>2022-12-29T14:57:37Z</time>
      </trkpt>
      <trkpt lat="45.0167" lon="6.12896">
        <ele>1688</ele>
        <time>2022-12-29T14:57:38Z</time>
      </trkpt>
      <trkpt lat="45.01673" lon="6.12894">
        <ele>1688</ele>
        <time>2022-12-29T14:57:39Z</time>
      </trkpt>
      <trkpt lat="45.01677" lon="6.12892">
        <ele>1688</ele>
        <time>2022-12-29T14:57:40Z</time>
      </trkpt>
      <trkpt lat="45.01681" lon="6.1289">
        <ele>1688</ele>
        <time>2022-12-29T14:57:41Z</time>
      </trkpt>
      <trkpt lat="45.01685" lon="6.12888">
        <ele>1688</ele>
        <time>2022-12-29T14:57:42Z</time>
      </trkpt>
      <trkpt lat="45.01688" lon="6.12886">
        <ele>1688</ele>
        <time>2022-12-29T14:57:43Z</time>
      </trkpt>
      <trkpt lat="45.01692" lon="6.12884">
        <ele>1688</ele>
        <time>2022-12-29T14:57:44Z</time>
      </trkpt>
      <trkpt lat="45.01696" lon="6.12882">
        <ele>1688</ele>
        <time>2022-12-29T14:57:45Z</time>
      </trkpt>
      <trkpt lat="45.017" lon="6.1288">
        <ele>1682.6</ele>
        <time>2022-12-29T14:57:46Z</time>
      </trkpt>
      <trkpt lat="45.01708" lon="6.12873">
        <ele>1682.6</ele>
        <time>2022-12-29T14:57:47Z</time>
      </trkpt>
      <trkpt lat="45.01713" lon="6.12872">
        <ele>1682.6</ele>
        <time>2022-12-29T14:57:48Z</time>
      </trkpt>
      <trkpt lat="45.01718" lon="6.1287">
        <ele>1682.6</ele>
        <time>2022-12-29T14:57:49Z</time>
      </trkpt>
      <trkpt lat="45.01722" lon="6.12869">
        <ele>1682.6</ele>
        <time>2022-12-29T14:57:50Z</time>
      </trkpt>
      <trkpt lat="45.01727" lon="6.12868">
        <ele>1682.6</ele>
        <time>2022-12-29T14:57:51Z</time>
      </trkpt>
      <trkpt lat="45.01732" lon="6.12866">
        <ele>1682.6</ele>
        <time>2022-12-29T14:57:52Z</time>
      </trkpt>
      <trkpt lat="45.01736" lon="6.12865">
        <ele>1682.6</ele>
        <time>2022-12-29T14:57:53Z</time>
      </trkpt>
      <trkpt lat="45.01741" lon="6.12863">
        <ele>1682.6</ele>
        <time>2022-12-29T14:57:54Z</time>
      </trkpt>
      <trkpt lat="45.01746" lon="6.12862">
        <ele>1682.6</ele>
        <time>2022-12-29T14:57:55Z</time>
      </trkpt>
      <trkpt lat="45.0175" lon="6.1286">
        <ele>1674.8</ele>
        <time>2022-12-29T14:57:56Z</time>
      </trkpt>
      <trkpt lat="45.01757" lon="6.1286">
        <ele>1674.8</ele>
        <time>2022-12-29T14:57:57Z</time>
      </trkpt>
      <trkpt lat="45.0176" lon="6.1286">
        <ele>1674.8</ele>
        <time>2022-12-29T14:57:58Z</time>
      </trkpt>
      <trkpt lat="45.01762" lon="6.1286">
        <ele>1674.8</ele>
        <time>2022-12-29T14:57:59Z</time>
      </trkpt>
      <trkpt lat="45.01765" lon="6.1286">
        <ele>1674.8</ele>
        <time>2022-12-29T14:58:00Z</time>
      </trkpt>
      <trkpt lat="45.01767" lon="6.1286">
        <ele>1674.8</ele>
        <time>2022-12-29T14:58:01Z</time>
      </trkpt>
      <trkpt lat="45.0177" lon="6.1286">
        <ele>1674.8</ele>
        <time>2022-12-29T14:58:02Z</time>
      </trkpt>
      <trkpt lat="45.01772" lon="6.1286">
        <ele>1674.8</ele>
        <time>2022-12-29T14:58:03Z</time>
      </trkpt>
      <trkpt lat="45.01774" lon="6.1286">
        <ele>1674.8</ele>
        <time>2022-12-29T14:58:04Z</time>
      </trkpt>
      <trkpt lat="45.01777" lon="6.1286">
        <ele>1674.8</ele>
        <time>2022-12-29T14:58:05Z</time>
      </trkpt>
      <trkpt lat="45.01779" lon="6.1286">
        <ele>1672</ele>
        <time>2022-12-29T14:58:06Z</time>
      </trkpt>
      <trkpt lat="45.01781" lon="6.12859">
        <ele>1672</ele>
        <time>2022-12-29T14:58:07Z</time>
      </trkpt>
      <trkpt lat="45.01782" lon="6.12858">
        <ele>1672</ele>
        <time>2022-12-29T14:58:08Z</time>
      </trkpt>
      <trkpt lat="45.01782" lon="6.12858">
        <ele>1672</ele>
        <time>2022-12-29T14:58:09Z</time>
      </trkpt>
      <trkpt lat="45.01782" lon="6.12858">
        <ele>1672</ele>
        <time>2022-12-29T14:58:10Z</time>
      </trkpt>
      <trkpt lat="45.01782" lon="6.12858">
        <ele>1672</ele>
        <time>2022-12-29T14:58:11Z</time>
      </trkpt>
      <trkpt lat="45.01782" lon="6.12857">
        <ele>1672</ele>
        <time>2022-12-29T14:58:12Z</time>
      </trkpt>
      <trkpt lat="45.01783" lon="6.12857">
        <ele>1672</ele>
        <time>2022-12-29T14:58:13Z</time>
      </trkpt>
      <trkpt lat="45.01783" lon="6.12857">
        <ele>1672</ele>
        <time>2022-12-29T14:58:14Z</time>
      </trkpt>
      <trkpt lat="45.01783" lon="6.12857">
        <ele>1672</ele>
        <time>2022-12-29T14:58:15Z</time>
      </trkpt>
      <trkpt lat="45.01783" lon="6.12857">
        <ele>1670.8</ele>
        <time>2022-12-29T14:58:16Z</time>
      </trkpt>
      <trkpt lat="45.01784" lon="6.12857">
        <ele>1670.8</ele>
        <time>2022-12-29T14:58:17Z</time>
      </trkpt>
      <trkpt lat="45.01786" lon="6.12857">
        <ele>1670.8</ele>
        <time>2022-12-29T14:58:18Z</time>
      </trkpt>
      <trkpt lat="45.01787" lon="6.12857">
        <ele>1670.8</ele>
        <time>2022-12-29T14:58:19Z</time>
      </trkpt>
      <trkpt lat="45.01788" lon="6.12858">
        <ele>1670.8</ele>
        <time>2022-12-29T14:58:20Z</time>
      </trkpt>
      <trkpt lat="45.0179" lon="6.12858">
        <ele>1670.8</ele>
        <time>2022-12-29T14:58:21Z</time>
      </trkpt>
      <trkpt lat="45.01791" lon="6.12858">
        <ele>1670.8</ele>
        <time>2022-12-29T14:58:22Z</time>
      </trkpt>
      <trkpt lat="45.01792" lon="6.12858">
        <ele>1670.8</ele>
        <time>2022-12-29T14:58:23Z</time>
      </trkpt>
      <trkpt lat="45.01794" lon="6.12859">
        <ele>1670.8</ele>
        <time>2022-12-29T14:58:24Z</time>
      </trkpt>
      <trkpt lat="45.01795" lon="6.12859">
        <ele>1670.8</ele>
        <time>2022-12-29T14:58:25Z</time>
      </trkpt>
      <trkpt lat="45.01797" lon="6.12859">
        <ele>1669.2</ele>
        <time>2022-12-29T14:58:26Z</time>
      </trkpt>
      <trkpt lat="45.01802" lon="6.12861">
        <ele>1669.2</ele>
        <time>2022-12-29T14:58:27Z</time>
      </trkpt>
      <trkpt lat="45.01804" lon="6.12861">
        <ele>1669.2</ele>
        <time>2022-12-29T14:58:28Z</time>
      </trkpt>
      <trkpt lat="45.01806" lon="6.12861">
        <ele>1669.2</ele>
        <time>2022-12-29T14:58:29Z</time>
      </trkpt>
      <trkpt lat="45.01808" lon="6.12861">
        <ele>1669.2</ele>
        <time>2022-12-29T14:58:30Z</time>
      </trkpt>
      <trkpt lat="45.0181" lon="6.12861">
        <ele>1669.2</ele>
        <time>2022-12-29T14:58:31Z</time>
      </trkpt>
      <trkpt lat="45.01812" lon="6.12861">
        <ele>1669.2</ele>
        <time>2022-12-29T14:58:32Z</time>
      </trkpt>
      <trkpt lat="45.01815" lon="6.12861">
        <ele>1669.2</ele>
        <time>2022-12-29T14:58:33Z</time>
      </trkpt>
      <trkpt lat="45.01817" lon="6.12861">
        <ele>1669.2</ele>
        <time>2022-12-29T14:58:34Z</time>
      </trkpt>
      <trkpt lat="45.01819" lon="6.12862">
        <ele>1669.2</ele>
        <time>2022-12-29T14:58:35Z</time>
      </trkpt>
      <trkpt lat="45.01821" lon="6.12862">
        <ele>1668.2</ele>
        <time>2022-12-29T14:58:36Z</time>
      </trkpt>
      <trkpt lat="45.01824" lon="6.12862">
        <ele>1668.2</ele>
        <time>2022-12-29T14:58:38Z</time>
      </trkpt>
      <trkpt lat="45.01826" lon="6.12861">
        <ele>1668.2</ele>
        <time>2022-12-29T14:58:39Z</time>
      </trkpt>
      <trkpt lat="45.01827" lon="6.12861">
        <ele>1668.2</ele>
        <time>2022-12-29T14:58:40Z</time>
      </trkpt>
      <trkpt lat="45.01828" lon="6.12861">
        <ele>1668.2</ele>
        <time>2022-12-29T14:58:41Z</time>
      </trkpt>
      <trkpt lat="45.0183" lon="6.1286">
        <ele>1668.2</ele>
        <time>2022-12-29T14:58:42Z</time>
      </trkpt>
      <trkpt lat="45.01831" lon="6.1286">
        <ele>1668.2</ele>
        <time>2022-12-29T14:58:43Z</time>
      </trkpt>
      <trkpt lat="45.01832" lon="6.1286">
        <ele>1668.2</ele>
        <time>2022-12-29T14:58:44Z</time>
      </trkpt>
      <trkpt lat="45.01833" lon="6.1286">
        <ele>1668.2</ele>
        <time>2022-12-29T14:58:45Z</time>
      </trkpt>
      <trkpt lat="45.01835" lon="6.12859">
        <ele>1667.6</ele>
        <time>2022-12-29T14:58:46Z</time>
      </trkpt>
      <trkpt lat="45.01837" lon="6.12859">
        <ele>1667.6</ele>
        <time>2022-12-29T14:58:47Z</time>
      </trkpt>
      <trkpt lat="45.01838" lon="6.12859">
        <ele>1667.6</ele>
        <time>2022-12-29T14:58:49Z</time>
      </trkpt>
      <trkpt lat="45.01839" lon="6.12859">
        <ele>1667.6</ele>
        <time>2022-12-29T14:58:50Z</time>
      </trkpt>
      <trkpt lat="45.0184" lon="6.12859">
        <ele>1667.6</ele>
        <time>2022-12-29T14:58:51Z</time>
      </trkpt>
      <trkpt lat="45.01841" lon="6.12859">
        <ele>1667.6</ele>
        <time>2022-12-29T14:58:52Z</time>
      </trkpt>
      <trkpt lat="45.01842" lon="6.12858">
        <ele>1667.6</ele>
        <time>2022-12-29T14:58:53Z</time>
      </trkpt>
      <trkpt lat="45.01843" lon="6.12858">
        <ele>1667.6</ele>
        <time>2022-12-29T14:58:54Z</time>
      </trkpt>
      <trkpt lat="45.01844" lon="6.12858">
        <ele>1667.6</ele>
        <time>2022-12-29T14:58:55Z</time>
      </trkpt>
      <trkpt lat="45.01845" lon="6.12858">
        <ele>1668.2</ele>
        <time>2022-12-29T14:58:56Z</time>
      </trkpt>
      <trkpt lat="45.01846" lon="6.12858">
        <ele>1668.2</ele>
        <time>2022-12-29T14:58:57Z</time>
      </trkpt>
      <trkpt lat="45.01847" lon="6.12858">
        <ele>1668.2</ele>
        <time>2022-12-29T14:58:58Z</time>
      </trkpt>
      <trkpt lat="45.01848" lon="6.12857">
        <ele>1668.2</ele>
        <time>2022-12-29T14:58:59Z</time>
      </trkpt>
      <trkpt lat="45.01849" lon="6.12857">
        <ele>1668.2</ele>
        <time>2022-12-29T14:59:00Z</time>
      </trkpt>
      <trkpt lat="45.0185" lon="6.12857">
        <ele>1668.2</ele>
        <time>2022-12-29T14:59:01Z</time>
      </trkpt>
      <trkpt lat="45.01851" lon="6.12856">
        <ele>1668.2</ele>
        <time>2022-12-29T14:59:02Z</time>
      </trkpt>
      <trkpt lat="45.01852" lon="6.12856">
        <ele>1668.2</ele>
        <time>2022-12-29T14:59:03Z</time>
      </trkpt>
      <trkpt lat="45.01853" lon="6.12856">
        <ele>1668.2</ele>
        <time>2022-12-29T14:59:04Z</time>
      </trkpt>
      <trkpt lat="45.01854" lon="6.12855">
        <ele>1668.2</ele>
        <time>2022-12-29T14:59:05Z</time>
      </trkpt>
      <trkpt lat="45.01855" lon="6.12855">
        <ele>1668</ele>
        <time>2022-12-29T14:59:06Z</time>
      </trkpt>
      <trkpt lat="45.01856" lon="6.12855">
        <ele>1668</ele>
        <time>2022-12-29T14:59:07Z</time>
      </trkpt>
      <trkpt lat="45.01857" lon="6.12855">
        <ele>1668</ele>
        <time>2022-12-29T14:59:08Z</time>
      </trkpt>
      <trkpt lat="45.01857" lon="6.12854">
        <ele>1668</ele>
        <time>2022-12-29T14:59:09Z</time>
      </trkpt>
      <trkpt lat="45.01858" lon="6.12854">
        <ele>1668</ele>
        <time>2022-12-29T14:59:10Z</time>
      </trkpt>
      <trkpt lat="45.01858" lon="6.12854">
        <ele>1668</ele>
        <time>2022-12-29T14:59:12Z</time>
      </trkpt>
      <trkpt lat="45.01859" lon="6.12854">
        <ele>1668</ele>
        <time>2022-12-29T14:59:13Z</time>
      </trkpt>
      <trkpt lat="45.0186" lon="6.12854">
        <ele>1668</ele>
        <time>2022-12-29T14:59:14Z</time>
      </trkpt>
      <trkpt lat="45.0186" lon="6.12854">
        <ele>1668</ele>
        <time>2022-12-29T14:59:15Z</time>
      </trkpt>
      <trkpt lat="45.01861" lon="6.12853">
        <ele>1668.8</ele>
        <time>2022-12-29T14:59:16Z</time>
      </trkpt>
      <trkpt lat="45.01863" lon="6.12853">
        <ele>1668.8</ele>
        <time>2022-12-29T14:59:17Z</time>
      </trkpt>
      <trkpt lat="45.01864" lon="6.12853">
        <ele>1668.8</ele>
        <time>2022-12-29T14:59:18Z</time>
      </trkpt>
      <trkpt lat="45.01864" lon="6.12852">
        <ele>1668.8</ele>
        <time>2022-12-29T14:59:19Z</time>
      </trkpt>
      <trkpt lat="45.01865" lon="6.12852">
        <ele>1668.8</ele>
        <time>2022-12-29T14:59:20Z</time>
      </trkpt>
      <trkpt lat="45.01865" lon="6.12852">
        <ele>1668.8</ele>
        <time>2022-12-29T14:59:21Z</time>
      </trkpt>
      <trkpt lat="45.01865" lon="6.12852">
        <ele>1668.8</ele>
        <time>2022-12-29T14:59:22Z</time>
      </trkpt>
      <trkpt lat="45.01866" lon="6.12852">
        <ele>1668.8</ele>
        <time>2022-12-29T14:59:23Z</time>
      </trkpt>
      <trkpt lat="45.01866" lon="6.12852">
        <ele>1668.8</ele>
        <time>2022-12-29T14:59:24Z</time>
      </trkpt>
      <trkpt lat="45.01867" lon="6.12852">
        <ele>1668.8</ele>
        <time>2022-12-29T14:59:25Z</time>
      </trkpt>
      <trkpt lat="45.01867" lon="6.12852">
        <ele>1668.8</ele>
        <time>2022-12-29T14:59:26Z</time>
      </trkpt>
      <trkpt lat="45.01869" lon="6.12852">
        <ele>1668.8</ele>
        <time>2022-12-29T14:59:27Z</time>
      </trkpt>
      <trkpt lat="45.01869" lon="6.12852">
        <ele>1668.8</ele>
        <time>2022-12-29T14:59:28Z</time>
      </trkpt>
      <trkpt lat="45.0187" lon="6.12852">
        <ele>1668.8</ele>
        <time>2022-12-29T14:59:29Z</time>
      </trkpt>
      <trkpt lat="45.0187" lon="6.12852">
        <ele>1668.8</ele>
        <time>2022-12-29T14:59:30Z</time>
      </trkpt>
      <trkpt lat="45.0187" lon="6.12852">
        <ele>1668.8</ele>
        <time>2022-12-29T14:59:31Z</time>
      </trkpt>
      <trkpt lat="45.0187" lon="6.12852">
        <ele>1668.8</ele>
        <time>2022-12-29T14:59:32Z</time>
      </trkpt>
      <trkpt lat="45.0187" lon="6.12852">
        <ele>1668.8</ele>
        <time>2022-12-29T14:59:33Z</time>
      </trkpt>
      <trkpt lat="45.01871" lon="6.12852">
        <ele>1668.8</ele>
        <time>2022-12-29T14:59:34Z</time>
      </trkpt>
      <trkpt lat="45.01871" lon="6.12852">
        <ele>1668.8</ele>
        <time>2022-12-29T14:59:35Z</time>
      </trkpt>
      <trkpt lat="45.01871" lon="6.12852">
        <ele>1668.6</ele>
        <time>2022-12-29T14:59:36Z</time>
      </trkpt>
      <trkpt lat="45.01871" lon="6.12851">
        <ele>1668.6</ele>
        <time>2022-12-29T14:59:37Z</time>
      </trkpt>
      <trkpt lat="45.01872" lon="6.12851">
        <ele>1668.6</ele>
        <time>2022-12-29T14:59:38Z</time>
      </trkpt>
      <trkpt lat="45.01872" lon="6.12851">
        <ele>1668.6</ele>
        <time>2022-12-29T14:59:39Z</time>
      </trkpt>
      <trkpt lat="45.01872" lon="6.12851">
        <ele>1668.6</ele>
        <time>2022-12-29T14:59:40Z</time>
      </trkpt>
      <trkpt lat="45.01872" lon="6.12851">
        <ele>1668.6</ele>
        <time>2022-12-29T14:59:41Z</time>
      </trkpt>
      <trkpt lat="45.01873" lon="6.12851">
        <ele>1668.6</ele>
        <time>2022-12-29T14:59:42Z</time>
      </trkpt>
      <trkpt lat="45.01873" lon="6.12851">
        <ele>1668.6</ele>
        <time>2022-12-29T14:59:43Z</time>
      </trkpt>
      <trkpt lat="45.01873" lon="6.12851">
        <ele>1668.6</ele>
        <time>2022-12-29T14:59:44Z</time>
      </trkpt>
      <trkpt lat="45.01874" lon="6.1285">
        <ele>1668.6</ele>
        <time>2022-12-29T14:59:45Z</time>
      </trkpt>
      <trkpt lat="45.01874" lon="6.1285">
        <ele>1669</ele>
        <time>2022-12-29T14:59:46Z</time>
      </trkpt>
      <trkpt lat="45.01874" lon="6.1285">
        <ele>1669</ele>
        <time>2022-12-29T14:59:47Z</time>
      </trkpt>
      <trkpt lat="45.01874" lon="6.1285">
        <ele>1669</ele>
        <time>2022-12-29T14:59:48Z</time>
      </trkpt>
      <trkpt lat="45.01875" lon="6.1285">
        <ele>1669</ele>
        <time>2022-12-29T14:59:49Z</time>
      </trkpt>
      <trkpt lat="45.01875" lon="6.1285">
        <ele>1669</ele>
        <time>2022-12-29T14:59:50Z</time>
      </trkpt>
      <trkpt lat="45.01875" lon="6.1285">
        <ele>1669</ele>
        <time>2022-12-29T14:59:51Z</time>
      </trkpt>
      <trkpt lat="45.01875" lon="6.12849">
        <ele>1669</ele>
        <time>2022-12-29T14:59:52Z</time>
      </trkpt>
      <trkpt lat="45.01876" lon="6.12849">
        <ele>1669</ele>
        <time>2022-12-29T14:59:53Z</time>
      </trkpt>
      <trkpt lat="45.01876" lon="6.12849">
        <ele>1669</ele>
        <time>2022-12-29T14:59:54Z</time>
      </trkpt>
      <trkpt lat="45.01876" lon="6.12849">
        <ele>1669</ele>
        <time>2022-12-29T14:59:55Z</time>
      </trkpt>
      <trkpt lat="45.01877" lon="6.12849">
        <ele>1669.4</ele>
        <time>2022-12-29T14:59:56Z</time>
      </trkpt>
      <trkpt lat="45.01877" lon="6.12849">
        <ele>1669.4</ele>
        <time>2022-12-29T14:59:57Z</time>
      </trkpt>
      <trkpt lat="45.01877" lon="6.12849">
        <ele>1669.4</ele>
        <time>2022-12-29T14:59:58Z</time>
      </trkpt>
      <trkpt lat="45.01877" lon="6.12849">
        <ele>1669.4</ele>
        <time>2022-12-29T14:59:59Z</time>
      </trkpt>
      <trkpt lat="45.01878" lon="6.12848">
        <ele>1669.4</ele>
        <time>2022-12-29T15:00:00Z</time>
      </trkpt>
      <trkpt lat="45.01878" lon="6.12848">
        <ele>1669.4</ele>
        <time>2022-12-29T15:00:01Z</time>
      </trkpt>
      <trkpt lat="45.01878" lon="6.12848">
        <ele>1669.4</ele>
        <time>2022-12-29T15:00:02Z</time>
      </trkpt>
      <trkpt lat="45.01878" lon="6.12848">
        <ele>1669.4</ele>
        <time>2022-12-29T15:00:03Z</time>
      </trkpt>
      <trkpt lat="45.01879" lon="6.12848">
        <ele>1669.4</ele>
        <time>2022-12-29T15:00:04Z</time>
      </trkpt>
      <trkpt lat="45.01879" lon="6.12848">
        <ele>1669.4</ele>
        <time>2022-12-29T15:00:05Z</time>
      </trkpt>
      <trkpt lat="45.01879" lon="6.12848">
        <ele>1669.2</ele>
        <time>2022-12-29T15:00:06Z</time>
      </trkpt>
      <trkpt lat="45.0188" lon="6.12848">
        <ele>1669.2</ele>
        <time>2022-12-29T15:00:07Z</time>
      </trkpt>
      <trkpt lat="45.0188" lon="6.12847">
        <ele>1669.2</ele>
        <time>2022-12-29T15:00:08Z</time>
      </trkpt>
      <trkpt lat="45.0188" lon="6.12847">
        <ele>1669.2</ele>
        <time>2022-12-29T15:00:09Z</time>
      </trkpt>
      <trkpt lat="45.0188" lon="6.12847">
        <ele>1669.2</ele>
        <time>2022-12-29T15:00:10Z</time>
      </trkpt>
      <trkpt lat="45.01881" lon="6.12847">
        <ele>1669.2</ele>
        <time>2022-12-29T15:00:11Z</time>
      </trkpt>
      <trkpt lat="45.01881" lon="6.12847">
        <ele>1669.2</ele>
        <time>2022-12-29T15:00:12Z</time>
      </trkpt>
      <trkpt lat="45.01881" lon="6.12847">
        <ele>1669.2</ele>
        <time>2022-12-29T15:00:13Z</time>
      </trkpt>
      <trkpt lat="45.01881" lon="6.12847">
        <ele>1669.2</ele>
        <time>2022-12-29T15:00:14Z</time>
      </trkpt>
      <trkpt lat="45.01882" lon="6.12847">
        <ele>1669.2</ele>
        <time>2022-12-29T15:00:15Z</time>
      </trkpt>
      <trkpt lat="45.01882" lon="6.12846">
        <ele>1669.4</ele>
        <time>2022-12-29T15:00:16Z</time>
      </trkpt>
      <trkpt lat="45.01884" lon="6.12845">
        <ele>1669.4</ele>
        <time>2022-12-29T15:00:17Z</time>
      </trkpt>
      <trkpt lat="45.01886" lon="6.12845">
        <ele>1669.4</ele>
        <time>2022-12-29T15:00:18Z</time>
      </trkpt>
      <trkpt lat="45.01887" lon="6.12845">
        <ele>1669.4</ele>
        <time>2022-12-29T15:00:19Z</time>
      </trkpt>
      <trkpt lat="45.01888" lon="6.12844">
        <ele>1669.4</ele>
        <time>2022-12-29T15:00:20Z</time>
      </trkpt>
      <trkpt lat="45.01889" lon="6.12844">
        <ele>1669.4</ele>
        <time>2022-12-29T15:00:21Z</time>
      </trkpt>
      <trkpt lat="45.0189" lon="6.12844">
        <ele>1669.4</ele>
        <time>2022-12-29T15:00:22Z</time>
      </trkpt>
      <trkpt lat="45.01891" lon="6.12843">
        <ele>1669.4</ele>
        <time>2022-12-29T15:00:23Z</time>
      </trkpt>
      <trkpt lat="45.01892" lon="6.12843">
        <ele>1669.4</ele>
        <time>2022-12-29T15:00:24Z</time>
      </trkpt>
      <trkpt lat="45.01893" lon="6.12843">
        <ele>1669.4</ele>
        <time>2022-12-29T15:00:25Z</time>
      </trkpt>
      <trkpt lat="45.01895" lon="6.12842">
        <ele>1668.6</ele>
        <time>2022-12-29T15:00:26Z</time>
      </trkpt>
      <trkpt lat="45.01897" lon="6.12842">
        <ele>1668.6</ele>
        <time>2022-12-29T15:00:27Z</time>
      </trkpt>
      <trkpt lat="45.01898" lon="6.12841">
        <ele>1668.6</ele>
        <time>2022-12-29T15:00:28Z</time>
      </trkpt>
      <trkpt lat="45.01899" lon="6.12841">
        <ele>1668.6</ele>
        <time>2022-12-29T15:00:29Z</time>
      </trkpt>
      <trkpt lat="45.019" lon="6.12841">
        <ele>1668.6</ele>
        <time>2022-12-29T15:00:30Z</time>
      </trkpt>
      <trkpt lat="45.01901" lon="6.1284">
        <ele>1668.6</ele>
        <time>2022-12-29T15:00:31Z</time>
      </trkpt>
      <trkpt lat="45.01902" lon="6.1284">
        <ele>1668.6</ele>
        <time>2022-12-29T15:00:32Z</time>
      </trkpt>
      <trkpt lat="45.01903" lon="6.1284">
        <ele>1668.6</ele>
        <time>2022-12-29T15:00:33Z</time>
      </trkpt>
      <trkpt lat="45.01904" lon="6.12839">
        <ele>1668.6</ele>
        <time>2022-12-29T15:00:34Z</time>
      </trkpt>
      <trkpt lat="45.01905" lon="6.12839">
        <ele>1668.6</ele>
        <time>2022-12-29T15:00:35Z</time>
      </trkpt>
      <trkpt lat="45.01906" lon="6.12838">
        <ele>1668.2</ele>
        <time>2022-12-29T15:00:36Z</time>
      </trkpt>
      <trkpt lat="45.01908" lon="6.12837">
        <ele>1668.2</ele>
        <time>2022-12-29T15:00:37Z</time>
      </trkpt>
      <trkpt lat="45.0191" lon="6.12837">
        <ele>1668.2</ele>
        <time>2022-12-29T15:00:38Z</time>
      </trkpt>
      <trkpt lat="45.01911" lon="6.12836">
        <ele>1668.2</ele>
        <time>2022-12-29T15:00:39Z</time>
      </trkpt>
      <trkpt lat="45.01912" lon="6.12835">
        <ele>1668.2</ele>
        <time>2022-12-29T15:00:41Z</time>
      </trkpt>
      <trkpt lat="45.01913" lon="6.12835">
        <ele>1668.2</ele>
        <time>2022-12-29T15:00:42Z</time>
      </trkpt>
      <trkpt lat="45.01914" lon="6.12834">
        <ele>1668.2</ele>
        <time>2022-12-29T15:00:43Z</time>
      </trkpt>
      <trkpt lat="45.01916" lon="6.12833">
        <ele>1668.2</ele>
        <time>2022-12-29T15:00:45Z</time>
      </trkpt>
      <trkpt lat="45.01917" lon="6.12832">
        <ele>1667.8</ele>
        <time>2022-12-29T15:00:46Z</time>
      </trkpt>
      <trkpt lat="45.01918" lon="6.12832">
        <ele>1667.8</ele>
        <time>2022-12-29T15:00:47Z</time>
      </trkpt>
      <trkpt lat="45.01918" lon="6.12832">
        <ele>1667.8</ele>
        <time>2022-12-29T15:00:48Z</time>
      </trkpt>
      <trkpt lat="45.0192" lon="6.12831">
        <ele>1667.8</ele>
        <time>2022-12-29T15:00:49Z</time>
      </trkpt>
      <trkpt lat="45.0192" lon="6.12831">
        <ele>1667.8</ele>
        <time>2022-12-29T15:00:50Z</time>
      </trkpt>
      <trkpt lat="45.01922" lon="6.12829">
        <ele>1667.8</ele>
        <time>2022-12-29T15:00:51Z</time>
      </trkpt>
      <trkpt lat="45.01922" lon="6.12829">
        <ele>1667.8</ele>
        <time>2022-12-29T15:00:52Z</time>
      </trkpt>
      <trkpt lat="45.01922" lon="6.12829">
        <ele>1667.8</ele>
        <time>2022-12-29T15:00:53Z</time>
      </trkpt>
      <trkpt lat="45.01924" lon="6.12827">
        <ele>1667.8</ele>
        <time>2022-12-29T15:00:54Z</time>
      </trkpt>
      <trkpt lat="45.01924" lon="6.12827">
        <ele>1668.8</ele>
        <time>2022-12-29T15:00:56Z</time>
      </trkpt>
      <trkpt lat="45.01927" lon="6.12826">
        <ele>1668.8</ele>
        <time>2022-12-29T15:00:57Z</time>
      </trkpt>
      <trkpt lat="45.01928" lon="6.12826">
        <ele>1668.8</ele>
        <time>2022-12-29T15:00:58Z</time>
      </trkpt>
      <trkpt lat="45.01929" lon="6.12826">
        <ele>1668.8</ele>
        <time>2022-12-29T15:00:59Z</time>
      </trkpt>
      <trkpt lat="45.0193" lon="6.12826">
        <ele>1668.8</ele>
        <time>2022-12-29T15:01:00Z</time>
      </trkpt>
      <trkpt lat="45.01931" lon="6.12825">
        <ele>1668.8</ele>
        <time>2022-12-29T15:01:01Z</time>
      </trkpt>
      <trkpt lat="45.01932" lon="6.12825">
        <ele>1668.8</ele>
        <time>2022-12-29T15:01:02Z</time>
      </trkpt>
      <trkpt lat="45.01933" lon="6.12825">
        <ele>1668.8</ele>
        <time>2022-12-29T15:01:03Z</time>
      </trkpt>
      <trkpt lat="45.01934" lon="6.12825">
        <ele>1668.8</ele>
        <time>2022-12-29T15:01:04Z</time>
      </trkpt>
      <trkpt lat="45.01935" lon="6.12825">
        <ele>1668.8</ele>
        <time>2022-12-29T15:01:05Z</time>
      </trkpt>
      <trkpt lat="45.01936" lon="6.12824">
        <ele>1669.2</ele>
        <time>2022-12-29T15:01:06Z</time>
      </trkpt>
      <trkpt lat="45.01938" lon="6.12823">
        <ele>1669.2</ele>
        <time>2022-12-29T15:01:07Z</time>
      </trkpt>
      <trkpt lat="45.01938" lon="6.12823">
        <ele>1669.2</ele>
        <time>2022-12-29T15:01:08Z</time>
      </trkpt>
      <trkpt lat="45.01939" lon="6.12823">
        <ele>1669.2</ele>
        <time>2022-12-29T15:01:09Z</time>
      </trkpt>
      <trkpt lat="45.0194" lon="6.12823">
        <ele>1669.2</ele>
        <time>2022-12-29T15:01:10Z</time>
      </trkpt>
      <trkpt lat="45.01941" lon="6.12822">
        <ele>1669.2</ele>
        <time>2022-12-29T15:01:11Z</time>
      </trkpt>
      <trkpt lat="45.01942" lon="6.12822">
        <ele>1669.2</ele>
        <time>2022-12-29T15:01:12Z</time>
      </trkpt>
      <trkpt lat="45.01943" lon="6.12822">
        <ele>1669.2</ele>
        <time>2022-12-29T15:01:13Z</time>
      </trkpt>
      <trkpt lat="45.01943" lon="6.12822">
        <ele>1669.2</ele>
        <time>2022-12-29T15:01:14Z</time>
      </trkpt>
      <trkpt lat="45.01944" lon="6.12821">
        <ele>1669.2</ele>
        <time>2022-12-29T15:01:15Z</time>
      </trkpt>
      <trkpt lat="45.01945" lon="6.12821">
        <ele>1668.8</ele>
        <time>2022-12-29T15:01:16Z</time>
      </trkpt>
      <trkpt lat="45.01948" lon="6.1282">
        <ele>1668.8</ele>
        <time>2022-12-29T15:01:17Z</time>
      </trkpt>
      <trkpt lat="45.01949" lon="6.12819">
        <ele>1668.8</ele>
        <time>2022-12-29T15:01:18Z</time>
      </trkpt>
      <trkpt lat="45.01951" lon="6.12819">
        <ele>1668.8</ele>
        <time>2022-12-29T15:01:19Z</time>
      </trkpt>
      <trkpt lat="45.01952" lon="6.12818">
        <ele>1668.8</ele>
        <time>2022-12-29T15:01:20Z</time>
      </trkpt>
      <trkpt lat="45.01953" lon="6.12818">
        <ele>1668.8</ele>
        <time>2022-12-29T15:01:22Z</time>
      </trkpt>
      <trkpt lat="45.01955" lon="6.12817">
        <ele>1668.8</ele>
        <time>2022-12-29T15:01:23Z</time>
      </trkpt>
      <trkpt lat="45.01956" lon="6.12817">
        <ele>1668.8</ele>
        <time>2022-12-29T15:01:24Z</time>
      </trkpt>
      <trkpt lat="45.01958" lon="6.12816">
        <ele>1668.8</ele>
        <time>2022-12-29T15:01:25Z</time>
      </trkpt>
      <trkpt lat="45.01959" lon="6.12815">
        <ele>1668</ele>
        <time>2022-12-29T15:01:26Z</time>
      </trkpt>
      <trkpt lat="45.01961" lon="6.12815">
        <ele>1668</ele>
        <time>2022-12-29T15:01:27Z</time>
      </trkpt>
      <trkpt lat="45.01962" lon="6.12815">
        <ele>1668</ele>
        <time>2022-12-29T15:01:28Z</time>
      </trkpt>
      <trkpt lat="45.01963" lon="6.12814">
        <ele>1668</ele>
        <time>2022-12-29T15:01:29Z</time>
      </trkpt>
      <trkpt lat="45.01964" lon="6.12814">
        <ele>1668</ele>
        <time>2022-12-29T15:01:30Z</time>
      </trkpt>
      <trkpt lat="45.01964" lon="6.12814">
        <ele>1668</ele>
        <time>2022-12-29T15:01:31Z</time>
      </trkpt>
      <trkpt lat="45.01965" lon="6.12813">
        <ele>1668</ele>
        <time>2022-12-29T15:01:32Z</time>
      </trkpt>
      <trkpt lat="45.01966" lon="6.12813">
        <ele>1668</ele>
        <time>2022-12-29T15:01:33Z</time>
      </trkpt>
      <trkpt lat="45.01967" lon="6.12813">
        <ele>1668</ele>
        <time>2022-12-29T15:01:34Z</time>
      </trkpt>
      <trkpt lat="45.01968" lon="6.12812">
        <ele>1668</ele>
        <time>2022-12-29T15:01:35Z</time>
      </trkpt>
      <trkpt lat="45.01968" lon="6.12812">
        <ele>1667.4</ele>
        <time>2022-12-29T15:01:36Z</time>
      </trkpt>
      <trkpt lat="45.0197" lon="6.12811">
        <ele>1667.4</ele>
        <time>2022-12-29T15:01:37Z</time>
      </trkpt>
      <trkpt lat="45.01971" lon="6.1281">
        <ele>1667.4</ele>
        <time>2022-12-29T15:01:38Z</time>
      </trkpt>
      <trkpt lat="45.01972" lon="6.1281">
        <ele>1667.4</ele>
        <time>2022-12-29T15:01:39Z</time>
      </trkpt>
      <trkpt lat="45.01973" lon="6.12809">
        <ele>1667.4</ele>
        <time>2022-12-29T15:01:40Z</time>
      </trkpt>
      <trkpt lat="45.01974" lon="6.12808">
        <ele>1667.4</ele>
        <time>2022-12-29T15:01:41Z</time>
      </trkpt>
      <trkpt lat="45.01975" lon="6.12808">
        <ele>1667.4</ele>
        <time>2022-12-29T15:01:42Z</time>
      </trkpt>
      <trkpt lat="45.01976" lon="6.12807">
        <ele>1667.4</ele>
        <time>2022-12-29T15:01:43Z</time>
      </trkpt>
      <trkpt lat="45.01977" lon="6.12807">
        <ele>1667.4</ele>
        <time>2022-12-29T15:01:44Z</time>
      </trkpt>
      <trkpt lat="45.01978" lon="6.12806">
        <ele>1667.4</ele>
        <time>2022-12-29T15:01:45Z</time>
      </trkpt>
      <trkpt lat="45.01979" lon="6.12805">
        <ele>1666.8</ele>
        <time>2022-12-29T15:01:46Z</time>
      </trkpt>
      <trkpt lat="45.01981" lon="6.12805">
        <ele>1666.8</ele>
        <time>2022-12-29T15:01:47Z</time>
      </trkpt>
      <trkpt lat="45.01982" lon="6.12804">
        <ele>1666.8</ele>
        <time>2022-12-29T15:01:48Z</time>
      </trkpt>
      <trkpt lat="45.01983" lon="6.12804">
        <ele>1666.8</ele>
        <time>2022-12-29T15:01:49Z</time>
      </trkpt>
      <trkpt lat="45.01984" lon="6.12804">
        <ele>1666.8</ele>
        <time>2022-12-29T15:01:50Z</time>
      </trkpt>
      <trkpt lat="45.01985" lon="6.12804">
        <ele>1666.8</ele>
        <time>2022-12-29T15:01:51Z</time>
      </trkpt>
      <trkpt lat="45.01986" lon="6.12803">
        <ele>1666.8</ele>
        <time>2022-12-29T15:01:52Z</time>
      </trkpt>
      <trkpt lat="45.01987" lon="6.12803">
        <ele>1666.8</ele>
        <time>2022-12-29T15:01:53Z</time>
      </trkpt>
      <trkpt lat="45.01989" lon="6.12803">
        <ele>1666.8</ele>
        <time>2022-12-29T15:01:54Z</time>
      </trkpt>
      <trkpt lat="45.0199" lon="6.12803">
        <ele>1666.8</ele>
        <time>2022-12-29T15:01:55Z</time>
      </trkpt>
      <trkpt lat="45.01991" lon="6.12802">
        <ele>1666.6</ele>
        <time>2022-12-29T15:01:56Z</time>
      </trkpt>
      <trkpt lat="45.01993" lon="6.12801">
        <ele>1666.6</ele>
        <time>2022-12-29T15:01:57Z</time>
      </trkpt>
      <trkpt lat="45.01994" lon="6.12801">
        <ele>1666.6</ele>
        <time>2022-12-29T15:01:58Z</time>
      </trkpt>
      <trkpt lat="45.01995" lon="6.128">
        <ele>1666.6</ele>
        <time>2022-12-29T15:01:59Z</time>
      </trkpt>
      <trkpt lat="45.01996" lon="6.128">
        <ele>1666.6</ele>
        <time>2022-12-29T15:02:00Z</time>
      </trkpt>
      <trkpt lat="45.01997" lon="6.12799">
        <ele>1666.6</ele>
        <time>2022-12-29T15:02:01Z</time>
      </trkpt>
      <trkpt lat="45.01998" lon="6.12799">
        <ele>1666.6</ele>
        <time>2022-12-29T15:02:02Z</time>
      </trkpt>
      <trkpt lat="45.01999" lon="6.12798">
        <ele>1666.6</ele>
        <time>2022-12-29T15:02:03Z</time>
      </trkpt>
      <trkpt lat="45.02" lon="6.12797">
        <ele>1666.6</ele>
        <time>2022-12-29T15:02:04Z</time>
      </trkpt>
      <trkpt lat="45.02001" lon="6.12797">
        <ele>1666.6</ele>
        <time>2022-12-29T15:02:05Z</time>
      </trkpt>
      <trkpt lat="45.02002" lon="6.12796">
        <ele>1666.6</ele>
        <time>2022-12-29T15:02:06Z</time>
      </trkpt>
      <trkpt lat="45.02004" lon="6.12795">
        <ele>1666.6</ele>
        <time>2022-12-29T15:02:07Z</time>
      </trkpt>
      <trkpt lat="45.02005" lon="6.12795">
        <ele>1666.6</ele>
        <time>2022-12-29T15:02:08Z</time>
      </trkpt>
      <trkpt lat="45.02005" lon="6.12795">
        <ele>1666.6</ele>
        <time>2022-12-29T15:02:09Z</time>
      </trkpt>
      <trkpt lat="45.02006" lon="6.12794">
        <ele>1666.6</ele>
        <time>2022-12-29T15:02:10Z</time>
      </trkpt>
      <trkpt lat="45.02007" lon="6.12794">
        <ele>1666.6</ele>
        <time>2022-12-29T15:02:11Z</time>
      </trkpt>
      <trkpt lat="45.02007" lon="6.12793">
        <ele>1666.6</ele>
        <time>2022-12-29T15:02:12Z</time>
      </trkpt>
      <trkpt lat="45.02008" lon="6.12793">
        <ele>1666.6</ele>
        <time>2022-12-29T15:02:13Z</time>
      </trkpt>
      <trkpt lat="45.02009" lon="6.12793">
        <ele>1666.6</ele>
        <time>2022-12-29T15:02:14Z</time>
      </trkpt>
      <trkpt lat="45.02009" lon="6.12792">
        <ele>1666.6</ele>
        <time>2022-12-29T15:02:15Z</time>
      </trkpt>
      <trkpt lat="45.0201" lon="6.12792">
        <ele>1666.4</ele>
        <time>2022-12-29T15:02:16Z</time>
      </trkpt>
      <trkpt lat="45.02013" lon="6.12789">
        <ele>1666.4</ele>
        <time>2022-12-29T15:02:17Z</time>
      </trkpt>
      <trkpt lat="45.02014" lon="6.12789">
        <ele>1666.4</ele>
        <time>2022-12-29T15:02:18Z</time>
      </trkpt>
      <trkpt lat="45.02015" lon="6.12789">
        <ele>1666.4</ele>
        <time>2022-12-29T15:02:19Z</time>
      </trkpt>
      <trkpt lat="45.02016" lon="6.12789">
        <ele>1666.4</ele>
        <time>2022-12-29T15:02:20Z</time>
      </trkpt>
      <trkpt lat="45.02017" lon="6.12789">
        <ele>1666.4</ele>
        <time>2022-12-29T15:02:21Z</time>
      </trkpt>
      <trkpt lat="45.02018" lon="6.12788">
        <ele>1666.4</ele>
        <time>2022-12-29T15:02:22Z</time>
      </trkpt>
      <trkpt lat="45.02018" lon="6.12788">
        <ele>1666.4</ele>
        <time>2022-12-29T15:02:23Z</time>
      </trkpt>
      <trkpt lat="45.02019" lon="6.12788">
        <ele>1666.4</ele>
        <time>2022-12-29T15:02:24Z</time>
      </trkpt>
      <trkpt lat="45.0202" lon="6.12788">
        <ele>1666.4</ele>
        <time>2022-12-29T15:02:25Z</time>
      </trkpt>
      <trkpt lat="45.02021" lon="6.12788">
        <ele>1665.6</ele>
        <time>2022-12-29T15:02:26Z</time>
      </trkpt>
      <trkpt lat="45.02022" lon="6.12787">
        <ele>1665.6</ele>
        <time>2022-12-29T15:02:27Z</time>
      </trkpt>
      <trkpt lat="45.02023" lon="6.12787">
        <ele>1665.6</ele>
        <time>2022-12-29T15:02:28Z</time>
      </trkpt>
      <trkpt lat="45.02024" lon="6.12787">
        <ele>1665.6</ele>
        <time>2022-12-29T15:02:29Z</time>
      </trkpt>
      <trkpt lat="45.02025" lon="6.12787">
        <ele>1665.6</ele>
        <time>2022-12-29T15:02:30Z</time>
      </trkpt>
      <trkpt lat="45.02026" lon="6.12787">
        <ele>1665.6</ele>
        <time>2022-12-29T15:02:31Z</time>
      </trkpt>
      <trkpt lat="45.02027" lon="6.12787">
        <ele>1665.6</ele>
        <time>2022-12-29T15:02:32Z</time>
      </trkpt>
      <trkpt lat="45.02029" lon="6.12787">
        <ele>1665.6</ele>
        <time>2022-12-29T15:02:33Z</time>
      </trkpt>
      <trkpt lat="45.0203" lon="6.12787">
        <ele>1665.6</ele>
        <time>2022-12-29T15:02:34Z</time>
      </trkpt>
      <trkpt lat="45.02031" lon="6.12786">
        <ele>1665.6</ele>
        <time>2022-12-29T15:02:35Z</time>
      </trkpt>
      <trkpt lat="45.02032" lon="6.12786">
        <ele>1665</ele>
        <time>2022-12-29T15:02:36Z</time>
      </trkpt>
      <trkpt lat="45.02035" lon="6.12786">
        <ele>1665</ele>
        <time>2022-12-29T15:02:37Z</time>
      </trkpt>
      <trkpt lat="45.02036" lon="6.12786">
        <ele>1665</ele>
        <time>2022-12-29T15:02:38Z</time>
      </trkpt>
      <trkpt lat="45.02037" lon="6.12786">
        <ele>1665</ele>
        <time>2022-12-29T15:02:39Z</time>
      </trkpt>
      <trkpt lat="45.02038" lon="6.12786">
        <ele>1665</ele>
        <time>2022-12-29T15:02:40Z</time>
      </trkpt>
      <trkpt lat="45.02039" lon="6.12786">
        <ele>1665</ele>
        <time>2022-12-29T15:02:41Z</time>
      </trkpt>
      <trkpt lat="45.0204" lon="6.12786">
        <ele>1665</ele>
        <time>2022-12-29T15:02:42Z</time>
      </trkpt>
      <trkpt lat="45.02041" lon="6.12786">
        <ele>1665</ele>
        <time>2022-12-29T15:02:43Z</time>
      </trkpt>
      <trkpt lat="45.02042" lon="6.12786">
        <ele>1665</ele>
        <time>2022-12-29T15:02:44Z</time>
      </trkpt>
      <trkpt lat="45.02043" lon="6.12786">
        <ele>1665</ele>
        <time>2022-12-29T15:02:45Z</time>
      </trkpt>
      <trkpt lat="45.02044" lon="6.12786">
        <ele>1664.2</ele>
        <time>2022-12-29T15:02:46Z</time>
      </trkpt>
      <trkpt lat="45.02046" lon="6.12785">
        <ele>1664.2</ele>
        <time>2022-12-29T15:02:47Z</time>
      </trkpt>
      <trkpt lat="45.02047" lon="6.12785">
        <ele>1664.2</ele>
        <time>2022-12-29T15:02:48Z</time>
      </trkpt>
      <trkpt lat="45.02048" lon="6.12785">
        <ele>1664.2</ele>
        <time>2022-12-29T15:02:49Z</time>
      </trkpt>
      <trkpt lat="45.02048" lon="6.12785">
        <ele>1664.2</ele>
        <time>2022-12-29T15:02:50Z</time>
      </trkpt>
      <trkpt lat="45.02049" lon="6.12785">
        <ele>1664.2</ele>
        <time>2022-12-29T15:02:51Z</time>
      </trkpt>
      <trkpt lat="45.0205" lon="6.12785">
        <ele>1664.2</ele>
        <time>2022-12-29T15:02:52Z</time>
      </trkpt>
      <trkpt lat="45.02051" lon="6.12785">
        <ele>1664.2</ele>
        <time>2022-12-29T15:02:53Z</time>
      </trkpt>
      <trkpt lat="45.02051" lon="6.12785">
        <ele>1664.2</ele>
        <time>2022-12-29T15:02:54Z</time>
      </trkpt>
      <trkpt lat="45.02052" lon="6.12785">
        <ele>1664.2</ele>
        <time>2022-12-29T15:02:55Z</time>
      </trkpt>
      <trkpt lat="45.02053" lon="6.12785">
        <ele>1663.2</ele>
        <time>2022-12-29T15:02:56Z</time>
      </trkpt>
      <trkpt lat="45.02055" lon="6.12784">
        <ele>1663.2</ele>
        <time>2022-12-29T15:02:57Z</time>
      </trkpt>
      <trkpt lat="45.02056" lon="6.12784">
        <ele>1663.2</ele>
        <time>2022-12-29T15:02:58Z</time>
      </trkpt>
      <trkpt lat="45.02057" lon="6.12784">
        <ele>1663.2</ele>
        <time>2022-12-29T15:02:59Z</time>
      </trkpt>
      <trkpt lat="45.02059" lon="6.12784">
        <ele>1663.2</ele>
        <time>2022-12-29T15:03:00Z</time>
      </trkpt>
      <trkpt lat="45.0206" lon="6.12783">
        <ele>1663.2</ele>
        <time>2022-12-29T15:03:01Z</time>
      </trkpt>
      <trkpt lat="45.02061" lon="6.12783">
        <ele>1663.2</ele>
        <time>2022-12-29T15:03:02Z</time>
      </trkpt>
      <trkpt lat="45.02062" lon="6.12783">
        <ele>1663.2</ele>
        <time>2022-12-29T15:03:03Z</time>
      </trkpt>
      <trkpt lat="45.02063" lon="6.12783">
        <ele>1663.2</ele>
        <time>2022-12-29T15:03:04Z</time>
      </trkpt>
      <trkpt lat="45.02065" lon="6.12782">
        <ele>1663.2</ele>
        <time>2022-12-29T15:03:05Z</time>
      </trkpt>
      <trkpt lat="45.02066" lon="6.12782">
        <ele>1662.2</ele>
        <time>2022-12-29T15:03:06Z</time>
      </trkpt>
      <trkpt lat="45.02068" lon="6.12781">
        <ele>1662.2</ele>
        <time>2022-12-29T15:03:07Z</time>
      </trkpt>
      <trkpt lat="45.02069" lon="6.12781">
        <ele>1662.2</ele>
        <time>2022-12-29T15:03:08Z</time>
      </trkpt>
      <trkpt lat="45.0207" lon="6.12781">
        <ele>1662.2</ele>
        <time>2022-12-29T15:03:09Z</time>
      </trkpt>
      <trkpt lat="45.02071" lon="6.12781">
        <ele>1662.2</ele>
        <time>2022-12-29T15:03:10Z</time>
      </trkpt>
      <trkpt lat="45.02072" lon="6.12781">
        <ele>1662.2</ele>
        <time>2022-12-29T15:03:11Z</time>
      </trkpt>
      <trkpt lat="45.02073" lon="6.12781">
        <ele>1662.2</ele>
        <time>2022-12-29T15:03:12Z</time>
      </trkpt>
      <trkpt lat="45.02074" lon="6.12781">
        <ele>1662.2</ele>
        <time>2022-12-29T15:03:13Z</time>
      </trkpt>
      <trkpt lat="45.02075" lon="6.12781">
        <ele>1662.2</ele>
        <time>2022-12-29T15:03:14Z</time>
      </trkpt>
      <trkpt lat="45.02076" lon="6.1278">
        <ele>1662.2</ele>
        <time>2022-12-29T15:03:15Z</time>
      </trkpt>
      <trkpt lat="45.02077" lon="6.1278">
        <ele>1661.6</ele>
        <time>2022-12-29T15:03:16Z</time>
      </trkpt>
      <trkpt lat="45.02081" lon="6.1278">
        <ele>1661.6</ele>
        <time>2022-12-29T15:03:17Z</time>
      </trkpt>
      <trkpt lat="45.02081" lon="6.1278">
        <ele>1661.6</ele>
        <time>2022-12-29T15:03:18Z</time>
      </trkpt>
      <trkpt lat="45.02082" lon="6.12779">
        <ele>1661.6</ele>
        <time>2022-12-29T15:03:19Z</time>
      </trkpt>
      <trkpt lat="45.02083" lon="6.12779">
        <ele>1661.6</ele>
        <time>2022-12-29T15:03:20Z</time>
      </trkpt>
      <trkpt lat="45.02084" lon="6.12778">
        <ele>1661.6</ele>
        <time>2022-12-29T15:03:21Z</time>
      </trkpt>
      <trkpt lat="45.02085" lon="6.12778">
        <ele>1661.6</ele>
        <time>2022-12-29T15:03:22Z</time>
      </trkpt>
      <trkpt lat="45.02085" lon="6.12777">
        <ele>1661.6</ele>
        <time>2022-12-29T15:03:23Z</time>
      </trkpt>
      <trkpt lat="45.02086" lon="6.12777">
        <ele>1661.6</ele>
        <time>2022-12-29T15:03:24Z</time>
      </trkpt>
      <trkpt lat="45.02087" lon="6.12776">
        <ele>1661.6</ele>
        <time>2022-12-29T15:03:25Z</time>
      </trkpt>
      <trkpt lat="45.02088" lon="6.12776">
        <ele>1659.8</ele>
        <time>2022-12-29T15:03:26Z</time>
      </trkpt>
      <trkpt lat="45.02089" lon="6.12774">
        <ele>1659.8</ele>
        <time>2022-12-29T15:03:27Z</time>
      </trkpt>
      <trkpt lat="45.0209" lon="6.12774">
        <ele>1659.8</ele>
        <time>2022-12-29T15:03:28Z</time>
      </trkpt>
      <trkpt lat="45.02091" lon="6.12775">
        <ele>1659.8</ele>
        <time>2022-12-29T15:03:29Z</time>
      </trkpt>
      <trkpt lat="45.02092" lon="6.12775">
        <ele>1659.8</ele>
        <time>2022-12-29T15:03:30Z</time>
      </trkpt>
      <trkpt lat="45.02093" lon="6.12775">
        <ele>1659.8</ele>
        <time>2022-12-29T15:03:31Z</time>
      </trkpt>
      <trkpt lat="45.02094" lon="6.12775">
        <ele>1659.8</ele>
        <time>2022-12-29T15:03:32Z</time>
      </trkpt>
      <trkpt lat="45.02095" lon="6.12775">
        <ele>1659.8</ele>
        <time>2022-12-29T15:03:33Z</time>
      </trkpt>
      <trkpt lat="45.02095" lon="6.12775">
        <ele>1659.8</ele>
        <time>2022-12-29T15:03:34Z</time>
      </trkpt>
      <trkpt lat="45.02096" lon="6.12775">
        <ele>1659.8</ele>
        <time>2022-12-29T15:03:35Z</time>
      </trkpt>
      <trkpt lat="45.02097" lon="6.12776">
        <ele>1658.2</ele>
        <time>2022-12-29T15:03:36Z</time>
      </trkpt>
      <trkpt lat="45.021" lon="6.12775">
        <ele>1658.2</ele>
        <time>2022-12-29T15:03:37Z</time>
      </trkpt>
      <trkpt lat="45.02101" lon="6.12775">
        <ele>1658.2</ele>
        <time>2022-12-29T15:03:38Z</time>
      </trkpt>
      <trkpt lat="45.02102" lon="6.12775">
        <ele>1658.2</ele>
        <time>2022-12-29T15:03:39Z</time>
      </trkpt>
      <trkpt lat="45.02103" lon="6.12775">
        <ele>1658.2</ele>
        <time>2022-12-29T15:03:40Z</time>
      </trkpt>
      <trkpt lat="45.02104" lon="6.12775">
        <ele>1658.2</ele>
        <time>2022-12-29T15:03:41Z</time>
      </trkpt>
      <trkpt lat="45.02105" lon="6.12775">
        <ele>1658.2</ele>
        <time>2022-12-29T15:03:42Z</time>
      </trkpt>
      <trkpt lat="45.02106" lon="6.12774">
        <ele>1658.2</ele>
        <time>2022-12-29T15:03:43Z</time>
      </trkpt>
      <trkpt lat="45.02107" lon="6.12774">
        <ele>1658.2</ele>
        <time>2022-12-29T15:03:44Z</time>
      </trkpt>
      <trkpt lat="45.02108" lon="6.12774">
        <ele>1658.2</ele>
        <time>2022-12-29T15:03:45Z</time>
      </trkpt>
      <trkpt lat="45.02109" lon="6.12774">
        <ele>1657.2</ele>
        <time>2022-12-29T15:03:46Z</time>
      </trkpt>
      <trkpt lat="45.02112" lon="6.12773">
        <ele>1657.2</ele>
        <time>2022-12-29T15:03:47Z</time>
      </trkpt>
      <trkpt lat="45.02113" lon="6.12773">
        <ele>1657.2</ele>
        <time>2022-12-29T15:03:48Z</time>
      </trkpt>
      <trkpt lat="45.02114" lon="6.12772">
        <ele>1657.2</ele>
        <time>2022-12-29T15:03:49Z</time>
      </trkpt>
      <trkpt lat="45.02116" lon="6.12772">
        <ele>1657.2</ele>
        <time>2022-12-29T15:03:50Z</time>
      </trkpt>
      <trkpt lat="45.02117" lon="6.12772">
        <ele>1657.2</ele>
        <time>2022-12-29T15:03:51Z</time>
      </trkpt>
      <trkpt lat="45.02118" lon="6.12771">
        <ele>1657.2</ele>
        <time>2022-12-29T15:03:52Z</time>
      </trkpt>
      <trkpt lat="45.02119" lon="6.12771">
        <ele>1657.2</ele>
        <time>2022-12-29T15:03:53Z</time>
      </trkpt>
      <trkpt lat="45.0212" lon="6.1277">
        <ele>1657.2</ele>
        <time>2022-12-29T15:03:54Z</time>
      </trkpt>
      <trkpt lat="45.02121" lon="6.1277">
        <ele>1657.2</ele>
        <time>2022-12-29T15:03:55Z</time>
      </trkpt>
      <trkpt lat="45.02123" lon="6.1277">
        <ele>1655.8</ele>
        <time>2022-12-29T15:03:56Z</time>
      </trkpt>
      <trkpt lat="45.02125" lon="6.12769">
        <ele>1655.8</ele>
        <time>2022-12-29T15:03:57Z</time>
      </trkpt>
      <trkpt lat="45.02126" lon="6.12769">
        <ele>1655.8</ele>
        <time>2022-12-29T15:03:58Z</time>
      </trkpt>
      <trkpt lat="45.02127" lon="6.12769">
        <ele>1655.8</ele>
        <time>2022-12-29T15:03:59Z</time>
      </trkpt>
      <trkpt lat="45.02128" lon="6.12768">
        <ele>1655.8</ele>
        <time>2022-12-29T15:04:00Z</time>
      </trkpt>
      <trkpt lat="45.02129" lon="6.12768">
        <ele>1655.8</ele>
        <time>2022-12-29T15:04:01Z</time>
      </trkpt>
      <trkpt lat="45.0213" lon="6.12768">
        <ele>1655.8</ele>
        <time>2022-12-29T15:04:02Z</time>
      </trkpt>
      <trkpt lat="45.0213" lon="6.12768">
        <ele>1655.8</ele>
        <time>2022-12-29T15:04:03Z</time>
      </trkpt>
      <trkpt lat="45.02131" lon="6.12767">
        <ele>1655.8</ele>
        <time>2022-12-29T15:04:04Z</time>
      </trkpt>
      <trkpt lat="45.02132" lon="6.12767">
        <ele>1655.8</ele>
        <time>2022-12-29T15:04:05Z</time>
      </trkpt>
      <trkpt lat="45.02133" lon="6.12767">
        <ele>1655</ele>
        <time>2022-12-29T15:04:06Z</time>
      </trkpt>
      <trkpt lat="45.02134" lon="6.12766">
        <ele>1655</ele>
        <time>2022-12-29T15:04:07Z</time>
      </trkpt>
      <trkpt lat="45.02135" lon="6.12766">
        <ele>1655</ele>
        <time>2022-12-29T15:04:08Z</time>
      </trkpt>
      <trkpt lat="45.02136" lon="6.12765">
        <ele>1655</ele>
        <time>2022-12-29T15:04:09Z</time>
      </trkpt>
      <trkpt lat="45.02137" lon="6.12765">
        <ele>1655</ele>
        <time>2022-12-29T15:04:10Z</time>
      </trkpt>
      <trkpt lat="45.02137" lon="6.12764">
        <ele>1655</ele>
        <time>2022-12-29T15:04:11Z</time>
      </trkpt>
      <trkpt lat="45.02138" lon="6.12764">
        <ele>1655</ele>
        <time>2022-12-29T15:04:12Z</time>
      </trkpt>
      <trkpt lat="45.02139" lon="6.12763">
        <ele>1655</ele>
        <time>2022-12-29T15:04:13Z</time>
      </trkpt>
      <trkpt lat="45.0214" lon="6.12763">
        <ele>1655</ele>
        <time>2022-12-29T15:04:14Z</time>
      </trkpt>
      <trkpt lat="45.02141" lon="6.12762">
        <ele>1655</ele>
        <time>2022-12-29T15:04:15Z</time>
      </trkpt>
      <trkpt lat="45.02142" lon="6.12762">
        <ele>1654.4</ele>
        <time>2022-12-29T15:04:16Z</time>
      </trkpt>
      <trkpt lat="45.02144" lon="6.1276">
        <ele>1654.4</ele>
        <time>2022-12-29T15:04:17Z</time>
      </trkpt>
      <trkpt lat="45.02145" lon="6.1276">
        <ele>1654.4</ele>
        <time>2022-12-29T15:04:18Z</time>
      </trkpt>
      <trkpt lat="45.02146" lon="6.12759">
        <ele>1654.4</ele>
        <time>2022-12-29T15:04:19Z</time>
      </trkpt>
      <trkpt lat="45.02147" lon="6.12759">
        <ele>1654.4</ele>
        <time>2022-12-29T15:04:20Z</time>
      </trkpt>
      <trkpt lat="45.02147" lon="6.12758">
        <ele>1654.4</ele>
        <time>2022-12-29T15:04:21Z</time>
      </trkpt>
      <trkpt lat="45.02148" lon="6.12757">
        <ele>1654.4</ele>
        <time>2022-12-29T15:04:22Z</time>
      </trkpt>
      <trkpt lat="45.02149" lon="6.12757">
        <ele>1654.4</ele>
        <time>2022-12-29T15:04:23Z</time>
      </trkpt>
      <trkpt lat="45.0215" lon="6.12756">
        <ele>1654.4</ele>
        <time>2022-12-29T15:04:24Z</time>
      </trkpt>
      <trkpt lat="45.02151" lon="6.12756">
        <ele>1654.4</ele>
        <time>2022-12-29T15:04:25Z</time>
      </trkpt>
      <trkpt lat="45.02152" lon="6.12755">
        <ele>1653.8</ele>
        <time>2022-12-29T15:04:26Z</time>
      </trkpt>
      <trkpt lat="45.02154" lon="6.12754">
        <ele>1653.8</ele>
        <time>2022-12-29T15:04:27Z</time>
      </trkpt>
      <trkpt lat="45.02155" lon="6.12753">
        <ele>1653.8</ele>
        <time>2022-12-29T15:04:28Z</time>
      </trkpt>
      <trkpt lat="45.02156" lon="6.12752">
        <ele>1653.8</ele>
        <time>2022-12-29T15:04:29Z</time>
      </trkpt>
      <trkpt lat="45.02156" lon="6.12752">
        <ele>1653.8</ele>
        <time>2022-12-29T15:04:30Z</time>
      </trkpt>
      <trkpt lat="45.02157" lon="6.12751">
        <ele>1653.8</ele>
        <time>2022-12-29T15:04:31Z</time>
      </trkpt>
      <trkpt lat="45.02158" lon="6.12751">
        <ele>1653.8</ele>
        <time>2022-12-29T15:04:32Z</time>
      </trkpt>
      <trkpt lat="45.02159" lon="6.1275">
        <ele>1653.8</ele>
        <time>2022-12-29T15:04:33Z</time>
      </trkpt>
      <trkpt lat="45.0216" lon="6.12749">
        <ele>1653.8</ele>
        <time>2022-12-29T15:04:34Z</time>
      </trkpt>
      <trkpt lat="45.02161" lon="6.12749">
        <ele>1653.8</ele>
        <time>2022-12-29T15:04:35Z</time>
      </trkpt>
      <trkpt lat="45.02162" lon="6.12748">
        <ele>1652.8</ele>
        <time>2022-12-29T15:04:36Z</time>
      </trkpt>
      <trkpt lat="45.02163" lon="6.12746">
        <ele>1652.8</ele>
        <time>2022-12-29T15:04:37Z</time>
      </trkpt>
      <trkpt lat="45.02164" lon="6.12746">
        <ele>1652.8</ele>
        <time>2022-12-29T15:04:38Z</time>
      </trkpt>
      <trkpt lat="45.02165" lon="6.12745">
        <ele>1652.8</ele>
        <time>2022-12-29T15:04:39Z</time>
      </trkpt>
      <trkpt lat="45.02166" lon="6.12744">
        <ele>1652.8</ele>
        <time>2022-12-29T15:04:40Z</time>
      </trkpt>
      <trkpt lat="45.02167" lon="6.12744">
        <ele>1652.8</ele>
        <time>2022-12-29T15:04:41Z</time>
      </trkpt>
      <trkpt lat="45.02168" lon="6.12743">
        <ele>1652.8</ele>
        <time>2022-12-29T15:04:42Z</time>
      </trkpt>
      <trkpt lat="45.02169" lon="6.12742">
        <ele>1652.8</ele>
        <time>2022-12-29T15:04:43Z</time>
      </trkpt>
      <trkpt lat="45.0217" lon="6.12742">
        <ele>1652.8</ele>
        <time>2022-12-29T15:04:44Z</time>
      </trkpt>
      <trkpt lat="45.02172" lon="6.12741">
        <ele>1652.8</ele>
        <time>2022-12-29T15:04:45Z</time>
      </trkpt>
      <trkpt lat="45.02173" lon="6.12741">
        <ele>1652.2</ele>
        <time>2022-12-29T15:04:46Z</time>
      </trkpt>
      <trkpt lat="45.02173" lon="6.1274">
        <ele>1652.2</ele>
        <time>2022-12-29T15:04:47Z</time>
      </trkpt>
      <trkpt lat="45.02174" lon="6.1274">
        <ele>1652.2</ele>
        <time>2022-12-29T15:04:48Z</time>
      </trkpt>
      <trkpt lat="45.02175" lon="6.12739">
        <ele>1652.2</ele>
        <time>2022-12-29T15:04:49Z</time>
      </trkpt>
      <trkpt lat="45.02176" lon="6.12739">
        <ele>1652.2</ele>
        <time>2022-12-29T15:04:50Z</time>
      </trkpt>
      <trkpt lat="45.02177" lon="6.12738">
        <ele>1652.2</ele>
        <time>2022-12-29T15:04:51Z</time>
      </trkpt>
      <trkpt lat="45.02178" lon="6.12738">
        <ele>1652.2</ele>
        <time>2022-12-29T15:04:52Z</time>
      </trkpt>
      <trkpt lat="45.02179" lon="6.12737">
        <ele>1652.2</ele>
        <time>2022-12-29T15:04:53Z</time>
      </trkpt>
      <trkpt lat="45.02179" lon="6.12737">
        <ele>1652.2</ele>
        <time>2022-12-29T15:04:54Z</time>
      </trkpt>
      <trkpt lat="45.0218" lon="6.12737">
        <ele>1652.2</ele>
        <time>2022-12-29T15:04:55Z</time>
      </trkpt>
      <trkpt lat="45.02181" lon="6.12736">
        <ele>1651.4</ele>
        <time>2022-12-29T15:04:56Z</time>
      </trkpt>
      <trkpt lat="45.02185" lon="6.12736">
        <ele>1651.4</ele>
        <time>2022-12-29T15:04:57Z</time>
      </trkpt>
      <trkpt lat="45.02186" lon="6.12735">
        <ele>1651.4</ele>
        <time>2022-12-29T15:04:58Z</time>
      </trkpt>
      <trkpt lat="45.02187" lon="6.12735">
        <ele>1651.4</ele>
        <time>2022-12-29T15:04:59Z</time>
      </trkpt>
      <trkpt lat="45.02188" lon="6.12735">
        <ele>1651.4</ele>
        <time>2022-12-29T15:05:00Z</time>
      </trkpt>
      <trkpt lat="45.02189" lon="6.12735">
        <ele>1651.4</ele>
        <time>2022-12-29T15:05:01Z</time>
      </trkpt>
      <trkpt lat="45.0219" lon="6.12734">
        <ele>1651.4</ele>
        <time>2022-12-29T15:05:02Z</time>
      </trkpt>
      <trkpt lat="45.02191" lon="6.12734">
        <ele>1651.4</ele>
        <time>2022-12-29T15:05:03Z</time>
      </trkpt>
      <trkpt lat="45.02192" lon="6.12734">
        <ele>1651.4</ele>
        <time>2022-12-29T15:05:04Z</time>
      </trkpt>
      <trkpt lat="45.02193" lon="6.12734">
        <ele>1651.4</ele>
        <time>2022-12-29T15:05:05Z</time>
      </trkpt>
      <trkpt lat="45.02194" lon="6.12733">
        <ele>1651</ele>
        <time>2022-12-29T15:05:06Z</time>
      </trkpt>
      <trkpt lat="45.02196" lon="6.12733">
        <ele>1651</ele>
        <time>2022-12-29T15:05:07Z</time>
      </trkpt>
      <trkpt lat="45.02197" lon="6.12733">
        <ele>1651</ele>
        <time>2022-12-29T15:05:10Z</time>
      </trkpt>
      <trkpt lat="45.02198" lon="6.12733">
        <ele>1651</ele>
        <time>2022-12-29T15:05:11Z</time>
      </trkpt>
      <trkpt lat="45.02199" lon="6.12733">
        <ele>1651</ele>
        <time>2022-12-29T15:05:12Z</time>
      </trkpt>
      <trkpt lat="45.022" lon="6.12733">
        <ele>1651</ele>
        <time>2022-12-29T15:05:13Z</time>
      </trkpt>
      <trkpt lat="45.02201" lon="6.12733">
        <ele>1651</ele>
        <time>2022-12-29T15:05:14Z</time>
      </trkpt>
      <trkpt lat="45.02202" lon="6.12732">
        <ele>1651</ele>
        <time>2022-12-29T15:05:15Z</time>
      </trkpt>
      <trkpt lat="45.02203" lon="6.12732">
        <ele>1651</ele>
        <time>2022-12-29T15:05:16Z</time>
      </trkpt>
      <trkpt lat="45.02205" lon="6.12732">
        <ele>1651</ele>
        <time>2022-12-29T15:05:17Z</time>
      </trkpt>
      <trkpt lat="45.02206" lon="6.12732">
        <ele>1651</ele>
        <time>2022-12-29T15:05:18Z</time>
      </trkpt>
      <trkpt lat="45.02208" lon="6.12731">
        <ele>1651</ele>
        <time>2022-12-29T15:05:19Z</time>
      </trkpt>
      <trkpt lat="45.02209" lon="6.12731">
        <ele>1651</ele>
        <time>2022-12-29T15:05:20Z</time>
      </trkpt>
      <trkpt lat="45.0221" lon="6.12731">
        <ele>1651</ele>
        <time>2022-12-29T15:05:21Z</time>
      </trkpt>
      <trkpt lat="45.02211" lon="6.12731">
        <ele>1651</ele>
        <time>2022-12-29T15:05:22Z</time>
      </trkpt>
      <trkpt lat="45.02212" lon="6.1273">
        <ele>1651</ele>
        <time>2022-12-29T15:05:23Z</time>
      </trkpt>
      <trkpt lat="45.02214" lon="6.1273">
        <ele>1651</ele>
        <time>2022-12-29T15:05:24Z</time>
      </trkpt>
      <trkpt lat="45.02215" lon="6.1273">
        <ele>1651</ele>
        <time>2022-12-29T15:05:25Z</time>
      </trkpt>
      <trkpt lat="45.02216" lon="6.1273">
        <ele>1650.4</ele>
        <time>2022-12-29T15:05:26Z</time>
      </trkpt>
      <trkpt lat="45.02219" lon="6.1273">
        <ele>1650.4</ele>
        <time>2022-12-29T15:05:27Z</time>
      </trkpt>
      <trkpt lat="45.0222" lon="6.12729">
        <ele>1650.4</ele>
        <time>2022-12-29T15:05:28Z</time>
      </trkpt>
      <trkpt lat="45.02221" lon="6.12729">
        <ele>1650.4</ele>
        <time>2022-12-29T15:05:29Z</time>
      </trkpt>
      <trkpt lat="45.02222" lon="6.12729">
        <ele>1650.4</ele>
        <time>2022-12-29T15:05:30Z</time>
      </trkpt>
      <trkpt lat="45.02223" lon="6.12728">
        <ele>1650.4</ele>
        <time>2022-12-29T15:05:31Z</time>
      </trkpt>
      <trkpt lat="45.02224" lon="6.12728">
        <ele>1650.4</ele>
        <time>2022-12-29T15:05:32Z</time>
      </trkpt>
      <trkpt lat="45.02225" lon="6.12728">
        <ele>1650.4</ele>
        <time>2022-12-29T15:05:33Z</time>
      </trkpt>
      <trkpt lat="45.02226" lon="6.12727">
        <ele>1650.4</ele>
        <time>2022-12-29T15:05:34Z</time>
      </trkpt>
      <trkpt lat="45.02227" lon="6.12727">
        <ele>1650.4</ele>
        <time>2022-12-29T15:05:35Z</time>
      </trkpt>
      <trkpt lat="45.02228" lon="6.12727">
        <ele>1649.8</ele>
        <time>2022-12-29T15:05:36Z</time>
      </trkpt>
      <trkpt lat="45.02231" lon="6.12726">
        <ele>1649.8</ele>
        <time>2022-12-29T15:05:37Z</time>
      </trkpt>
      <trkpt lat="45.02232" lon="6.12726">
        <ele>1649.8</ele>
        <time>2022-12-29T15:05:38Z</time>
      </trkpt>
      <trkpt lat="45.02233" lon="6.12726">
        <ele>1649.8</ele>
        <time>2022-12-29T15:05:39Z</time>
      </trkpt>
      <trkpt lat="45.02234" lon="6.12726">
        <ele>1649.8</ele>
        <time>2022-12-29T15:05:40Z</time>
      </trkpt>
      <trkpt lat="45.02236" lon="6.12725">
        <ele>1649.8</ele>
        <time>2022-12-29T15:05:41Z</time>
      </trkpt>
      <trkpt lat="45.02237" lon="6.12725">
        <ele>1649.8</ele>
        <time>2022-12-29T15:05:42Z</time>
      </trkpt>
      <trkpt lat="45.02238" lon="6.12725">
        <ele>1649.8</ele>
        <time>2022-12-29T15:05:43Z</time>
      </trkpt>
      <trkpt lat="45.02239" lon="6.12725">
        <ele>1649.8</ele>
        <time>2022-12-29T15:05:44Z</time>
      </trkpt>
      <trkpt lat="45.0224" lon="6.12725">
        <ele>1649.8</ele>
        <time>2022-12-29T15:05:45Z</time>
      </trkpt>
      <trkpt lat="45.02241" lon="6.12724">
        <ele>1650.4</ele>
        <time>2022-12-29T15:05:46Z</time>
      </trkpt>
      <trkpt lat="45.02244" lon="6.12725">
        <ele>1650.4</ele>
        <time>2022-12-29T15:05:47Z</time>
      </trkpt>
      <trkpt lat="45.02245" lon="6.12725">
        <ele>1650.4</ele>
        <time>2022-12-29T15:05:48Z</time>
      </trkpt>
      <trkpt lat="45.02246" lon="6.12725">
        <ele>1650.4</ele>
        <time>2022-12-29T15:05:49Z</time>
      </trkpt>
      <trkpt lat="45.02247" lon="6.12725">
        <ele>1650.4</ele>
        <time>2022-12-29T15:05:50Z</time>
      </trkpt>
      <trkpt lat="45.02248" lon="6.12725">
        <ele>1650.4</ele>
        <time>2022-12-29T15:05:51Z</time>
      </trkpt>
      <trkpt lat="45.02249" lon="6.12724">
        <ele>1650.4</ele>
        <time>2022-12-29T15:05:52Z</time>
      </trkpt>
      <trkpt lat="45.0225" lon="6.12724">
        <ele>1650.4</ele>
        <time>2022-12-29T15:05:53Z</time>
      </trkpt>
      <trkpt lat="45.02251" lon="6.12724">
        <ele>1650.4</ele>
        <time>2022-12-29T15:05:54Z</time>
      </trkpt>
      <trkpt lat="45.02252" lon="6.12724">
        <ele>1650.4</ele>
        <time>2022-12-29T15:05:55Z</time>
      </trkpt>
      <trkpt lat="45.02253" lon="6.12724">
        <ele>1648.6</ele>
        <time>2022-12-29T15:05:56Z</time>
      </trkpt>
      <trkpt lat="45.02255" lon="6.12724">
        <ele>1648.6</ele>
        <time>2022-12-29T15:05:57Z</time>
      </trkpt>
      <trkpt lat="45.02256" lon="6.12722">
        <ele>1648.6</ele>
        <time>2022-12-29T15:05:58Z</time>
      </trkpt>
      <trkpt lat="45.02257" lon="6.12721">
        <ele>1648.6</ele>
        <time>2022-12-29T15:05:59Z</time>
      </trkpt>
      <trkpt lat="45.02258" lon="6.1272">
        <ele>1648.6</ele>
        <time>2022-12-29T15:06:00Z</time>
      </trkpt>
      <trkpt lat="45.02259" lon="6.12719">
        <ele>1648.6</ele>
        <time>2022-12-29T15:06:01Z</time>
      </trkpt>
      <trkpt lat="45.02259" lon="6.12718">
        <ele>1648.6</ele>
        <time>2022-12-29T15:06:02Z</time>
      </trkpt>
      <trkpt lat="45.0226" lon="6.12717">
        <ele>1648.6</ele>
        <time>2022-12-29T15:06:03Z</time>
      </trkpt>
      <trkpt lat="45.02261" lon="6.12715">
        <ele>1648.6</ele>
        <time>2022-12-29T15:06:04Z</time>
      </trkpt>
      <trkpt lat="45.02262" lon="6.12714">
        <ele>1648.6</ele>
        <time>2022-12-29T15:06:05Z</time>
      </trkpt>
      <trkpt lat="45.02263" lon="6.12713">
        <ele>1647.8</ele>
        <time>2022-12-29T15:06:06Z</time>
      </trkpt>
      <trkpt lat="45.02263" lon="6.12711">
        <ele>1647.8</ele>
        <time>2022-12-29T15:06:07Z</time>
      </trkpt>
      <trkpt lat="45.02262" lon="6.1271">
        <ele>1647.8</ele>
        <time>2022-12-29T15:06:08Z</time>
      </trkpt>
      <trkpt lat="45.02262" lon="6.12709">
        <ele>1647.8</ele>
        <time>2022-12-29T15:06:09Z</time>
      </trkpt>
      <trkpt lat="45.02261" lon="6.12708">
        <ele>1647.8</ele>
        <time>2022-12-29T15:06:10Z</time>
      </trkpt>
      <trkpt lat="45.02261" lon="6.12707">
        <ele>1647.8</ele>
        <time>2022-12-29T15:06:11Z</time>
      </trkpt>
      <trkpt lat="45.0226" lon="6.12706">
        <ele>1647.8</ele>
        <time>2022-12-29T15:06:12Z</time>
      </trkpt>
      <trkpt lat="45.0226" lon="6.12705">
        <ele>1647.8</ele>
        <time>2022-12-29T15:06:13Z</time>
      </trkpt>
      <trkpt lat="45.02259" lon="6.12704">
        <ele>1647.8</ele>
        <time>2022-12-29T15:06:14Z</time>
      </trkpt>
      <trkpt lat="45.02259" lon="6.12703">
        <ele>1647.8</ele>
        <time>2022-12-29T15:06:15Z</time>
      </trkpt>
      <trkpt lat="45.02258" lon="6.12702">
        <ele>1646.8</ele>
        <time>2022-12-29T15:06:16Z</time>
      </trkpt>
      <trkpt lat="45.02256" lon="6.127">
        <ele>1646.8</ele>
        <time>2022-12-29T15:06:17Z</time>
      </trkpt>
      <trkpt lat="45.02255" lon="6.127">
        <ele>1646.8</ele>
        <time>2022-12-29T15:06:18Z</time>
      </trkpt>
      <trkpt lat="45.02255" lon="6.12699">
        <ele>1646.8</ele>
        <time>2022-12-29T15:06:19Z</time>
      </trkpt>
      <trkpt lat="45.02254" lon="6.12699">
        <ele>1646.8</ele>
        <time>2022-12-29T15:06:20Z</time>
      </trkpt>
      <trkpt lat="45.02253" lon="6.12699">
        <ele>1646.8</ele>
        <time>2022-12-29T15:06:21Z</time>
      </trkpt>
      <trkpt lat="45.02252" lon="6.12698">
        <ele>1646.8</ele>
        <time>2022-12-29T15:06:22Z</time>
      </trkpt>
      <trkpt lat="45.02251" lon="6.12698">
        <ele>1646.8</ele>
        <time>2022-12-29T15:06:23Z</time>
      </trkpt>
      <trkpt lat="45.0225" lon="6.12697">
        <ele>1646.8</ele>
        <time>2022-12-29T15:06:24Z</time>
      </trkpt>
      <trkpt lat="45.02249" lon="6.12697">
        <ele>1646.8</ele>
        <time>2022-12-29T15:06:25Z</time>
      </trkpt>
      <trkpt lat="45.02248" lon="6.12696">
        <ele>1646</ele>
        <time>2022-12-29T15:06:26Z</time>
      </trkpt>
      <trkpt lat="45.02246" lon="6.12696">
        <ele>1646</ele>
        <time>2022-12-29T15:06:27Z</time>
      </trkpt>
      <trkpt lat="45.02245" lon="6.12696">
        <ele>1646</ele>
        <time>2022-12-29T15:06:28Z</time>
      </trkpt>
      <trkpt lat="45.02244" lon="6.12695">
        <ele>1646</ele>
        <time>2022-12-29T15:06:29Z</time>
      </trkpt>
      <trkpt lat="45.02243" lon="6.12695">
        <ele>1646</ele>
        <time>2022-12-29T15:06:30Z</time>
      </trkpt>
      <trkpt lat="45.02243" lon="6.12695">
        <ele>1646</ele>
        <time>2022-12-29T15:06:31Z</time>
      </trkpt>
      <trkpt lat="45.02242" lon="6.12695">
        <ele>1646</ele>
        <time>2022-12-29T15:06:32Z</time>
      </trkpt>
      <trkpt lat="45.02241" lon="6.12694">
        <ele>1646</ele>
        <time>2022-12-29T15:06:33Z</time>
      </trkpt>
      <trkpt lat="45.0224" lon="6.12694">
        <ele>1646</ele>
        <time>2022-12-29T15:06:34Z</time>
      </trkpt>
      <trkpt lat="45.02239" lon="6.12694">
        <ele>1646</ele>
        <time>2022-12-29T15:06:35Z</time>
      </trkpt>
      <trkpt lat="45.02238" lon="6.12694">
        <ele>1645.2</ele>
        <time>2022-12-29T15:06:36Z</time>
      </trkpt>
      <trkpt lat="45.02236" lon="6.12693">
        <ele>1645.2</ele>
        <time>2022-12-29T15:06:37Z</time>
      </trkpt>
      <trkpt lat="45.02235" lon="6.12693">
        <ele>1645.2</ele>
        <time>2022-12-29T15:06:38Z</time>
      </trkpt>
      <trkpt lat="45.02234" lon="6.12693">
        <ele>1645.2</ele>
        <time>2022-12-29T15:06:39Z</time>
      </trkpt>
      <trkpt lat="45.02233" lon="6.12693">
        <ele>1645.2</ele>
        <time>2022-12-29T15:06:40Z</time>
      </trkpt>
      <trkpt lat="45.02232" lon="6.12693">
        <ele>1645.2</ele>
        <time>2022-12-29T15:06:41Z</time>
      </trkpt>
      <trkpt lat="45.02232" lon="6.12693">
        <ele>1645.2</ele>
        <time>2022-12-29T15:06:42Z</time>
      </trkpt>
      <trkpt lat="45.02231" lon="6.12693">
        <ele>1645.2</ele>
        <time>2022-12-29T15:06:43Z</time>
      </trkpt>
      <trkpt lat="45.0223" lon="6.12693">
        <ele>1645.2</ele>
        <time>2022-12-29T15:06:44Z</time>
      </trkpt>
      <trkpt lat="45.02229" lon="6.12693">
        <ele>1645.2</ele>
        <time>2022-12-29T15:06:45Z</time>
      </trkpt>
      <trkpt lat="45.02228" lon="6.12693">
        <ele>1644.8</ele>
        <time>2022-12-29T15:06:46Z</time>
      </trkpt>
      <trkpt lat="45.02226" lon="6.12692">
        <ele>1644.8</ele>
        <time>2022-12-29T15:06:47Z</time>
      </trkpt>
      <trkpt lat="45.02225" lon="6.12691">
        <ele>1644.8</ele>
        <time>2022-12-29T15:06:48Z</time>
      </trkpt>
      <trkpt lat="45.02225" lon="6.1269">
        <ele>1644.8</ele>
        <time>2022-12-29T15:06:49Z</time>
      </trkpt>
      <trkpt lat="45.02225" lon="6.12689">
        <ele>1644.8</ele>
        <time>2022-12-29T15:06:50Z</time>
      </trkpt>
      <trkpt lat="45.02225" lon="6.12688">
        <ele>1644.8</ele>
        <time>2022-12-29T15:06:51Z</time>
      </trkpt>
      <trkpt lat="45.02225" lon="6.12687">
        <ele>1644.8</ele>
        <time>2022-12-29T15:06:52Z</time>
      </trkpt>
      <trkpt lat="45.02225" lon="6.12686">
        <ele>1644.8</ele>
        <time>2022-12-29T15:06:53Z</time>
      </trkpt>
      <trkpt lat="45.02224" lon="6.12685">
        <ele>1644.8</ele>
        <time>2022-12-29T15:06:54Z</time>
      </trkpt>
      <trkpt lat="45.02224" lon="6.12684">
        <ele>1644.8</ele>
        <time>2022-12-29T15:06:55Z</time>
      </trkpt>
      <trkpt lat="45.02224" lon="6.12682">
        <ele>1644.2</ele>
        <time>2022-12-29T15:06:56Z</time>
      </trkpt>
      <trkpt lat="45.02226" lon="6.1268">
        <ele>1644.2</ele>
        <time>2022-12-29T15:06:57Z</time>
      </trkpt>
      <trkpt lat="45.02227" lon="6.12679">
        <ele>1644.2</ele>
        <time>2022-12-29T15:06:58Z</time>
      </trkpt>
      <trkpt lat="45.02227" lon="6.12678">
        <ele>1644.2</ele>
        <time>2022-12-29T15:06:59Z</time>
      </trkpt>
      <trkpt lat="45.02228" lon="6.12677">
        <ele>1644.2</ele>
        <time>2022-12-29T15:07:00Z</time>
      </trkpt>
      <trkpt lat="45.02229" lon="6.12676">
        <ele>1644.2</ele>
        <time>2022-12-29T15:07:01Z</time>
      </trkpt>
      <trkpt lat="45.0223" lon="6.12675">
        <ele>1644.2</ele>
        <time>2022-12-29T15:07:02Z</time>
      </trkpt>
      <trkpt lat="45.02231" lon="6.12675">
        <ele>1644.2</ele>
        <time>2022-12-29T15:07:03Z</time>
      </trkpt>
      <trkpt lat="45.02231" lon="6.12674">
        <ele>1644.2</ele>
        <time>2022-12-29T15:07:04Z</time>
      </trkpt>
      <trkpt lat="45.02232" lon="6.12673">
        <ele>1644.2</ele>
        <time>2022-12-29T15:07:05Z</time>
      </trkpt>
      <trkpt lat="45.02233" lon="6.12672">
        <ele>1643.4</ele>
        <time>2022-12-29T15:07:06Z</time>
      </trkpt>
      <trkpt lat="45.02235" lon="6.12672">
        <ele>1643.4</ele>
        <time>2022-12-29T15:07:07Z</time>
      </trkpt>
      <trkpt lat="45.02236" lon="6.12671">
        <ele>1643.4</ele>
        <time>2022-12-29T15:07:08Z</time>
      </trkpt>
      <trkpt lat="45.02237" lon="6.12671">
        <ele>1643.4</ele>
        <time>2022-12-29T15:07:09Z</time>
      </trkpt>
      <trkpt lat="45.02237" lon="6.12671">
        <ele>1643.4</ele>
        <time>2022-12-29T15:07:10Z</time>
      </trkpt>
      <trkpt lat="45.02238" lon="6.12671">
        <ele>1643.4</ele>
        <time>2022-12-29T15:07:11Z</time>
      </trkpt>
      <trkpt lat="45.02239" lon="6.12671">
        <ele>1643.4</ele>
        <time>2022-12-29T15:07:12Z</time>
      </trkpt>
      <trkpt lat="45.0224" lon="6.12671">
        <ele>1643.4</ele>
        <time>2022-12-29T15:07:13Z</time>
      </trkpt>
      <trkpt lat="45.02241" lon="6.12671">
        <ele>1643.4</ele>
        <time>2022-12-29T15:07:14Z</time>
      </trkpt>
      <trkpt lat="45.02242" lon="6.1267">
        <ele>1643.4</ele>
        <time>2022-12-29T15:07:15Z</time>
      </trkpt>
      <trkpt lat="45.02242" lon="6.1267">
        <ele>1642.4</ele>
        <time>2022-12-29T15:07:16Z</time>
      </trkpt>
      <trkpt lat="45.02244" lon="6.1267">
        <ele>1642.4</ele>
        <time>2022-12-29T15:07:17Z</time>
      </trkpt>
      <trkpt lat="45.02245" lon="6.1267">
        <ele>1642.4</ele>
        <time>2022-12-29T15:07:18Z</time>
      </trkpt>
      <trkpt lat="45.02246" lon="6.12669">
        <ele>1642.4</ele>
        <time>2022-12-29T15:07:19Z</time>
      </trkpt>
      <trkpt lat="45.02247" lon="6.12669">
        <ele>1642.4</ele>
        <time>2022-12-29T15:07:20Z</time>
      </trkpt>
      <trkpt lat="45.02248" lon="6.12669">
        <ele>1642.4</ele>
        <time>2022-12-29T15:07:21Z</time>
      </trkpt>
      <trkpt lat="45.02249" lon="6.12669">
        <ele>1642.4</ele>
        <time>2022-12-29T15:07:22Z</time>
      </trkpt>
      <trkpt lat="45.0225" lon="6.12669">
        <ele>1642.4</ele>
        <time>2022-12-29T15:07:23Z</time>
      </trkpt>
      <trkpt lat="45.02251" lon="6.12669">
        <ele>1642.4</ele>
        <time>2022-12-29T15:07:24Z</time>
      </trkpt>
      <trkpt lat="45.02252" lon="6.12669">
        <ele>1642.4</ele>
        <time>2022-12-29T15:07:25Z</time>
      </trkpt>
      <trkpt lat="45.02253" lon="6.12669">
        <ele>1642.4</ele>
        <time>2022-12-29T15:07:26Z</time>
      </trkpt>
      <trkpt lat="45.02254" lon="6.12672">
        <ele>1642.4</ele>
        <time>2022-12-29T15:07:27Z</time>
      </trkpt>
      <trkpt lat="45.02255" lon="6.12672">
        <ele>1642.4</ele>
        <time>2022-12-29T15:07:28Z</time>
      </trkpt>
      <trkpt lat="45.02255" lon="6.12673">
        <ele>1642.4</ele>
        <time>2022-12-29T15:07:29Z</time>
      </trkpt>
      <trkpt lat="45.02256" lon="6.12673">
        <ele>1642.4</ele>
        <time>2022-12-29T15:07:30Z</time>
      </trkpt>
      <trkpt lat="45.02257" lon="6.12674">
        <ele>1642.4</ele>
        <time>2022-12-29T15:07:31Z</time>
      </trkpt>
      <trkpt lat="45.02257" lon="6.12674">
        <ele>1642.4</ele>
        <time>2022-12-29T15:07:32Z</time>
      </trkpt>
      <trkpt lat="45.02258" lon="6.12674">
        <ele>1642.4</ele>
        <time>2022-12-29T15:07:33Z</time>
      </trkpt>
      <trkpt lat="45.02258" lon="6.12675">
        <ele>1642.4</ele>
        <time>2022-12-29T15:07:34Z</time>
      </trkpt>
      <trkpt lat="45.02259" lon="6.12675">
        <ele>1642.4</ele>
        <time>2022-12-29T15:07:35Z</time>
      </trkpt>
      <trkpt lat="45.0226" lon="6.12675">
        <ele>1643.4</ele>
        <time>2022-12-29T15:07:36Z</time>
      </trkpt>
      <trkpt lat="45.0226" lon="6.12675">
        <ele>1643.4</ele>
        <time>2022-12-29T15:07:37Z</time>
      </trkpt>
      <trkpt lat="45.0226" lon="6.12675">
        <ele>1643.4</ele>
        <time>2022-12-29T15:07:38Z</time>
      </trkpt>
      <trkpt lat="45.0226" lon="6.12675">
        <ele>1643.4</ele>
        <time>2022-12-29T15:07:39Z</time>
      </trkpt>
      <trkpt lat="45.0226" lon="6.12675">
        <ele>1643.4</ele>
        <time>2022-12-29T15:07:40Z</time>
      </trkpt>
      <trkpt lat="45.0226" lon="6.12675">
        <ele>1643.4</ele>
        <time>2022-12-29T15:07:41Z</time>
      </trkpt>
      <trkpt lat="45.0226" lon="6.12675">
        <ele>1643.4</ele>
        <time>2022-12-29T15:07:42Z</time>
      </trkpt>
      <trkpt lat="45.0226" lon="6.12675">
        <ele>1643.4</ele>
        <time>2022-12-29T15:07:43Z</time>
      </trkpt>
      <trkpt lat="45.0226" lon="6.12679">
        <ele>1643.4</ele>
        <time>2022-12-29T15:07:44Z</time>
      </trkpt>
      <trkpt lat="45.0226" lon="6.12679">
        <ele>1643.4</ele>
        <time>2022-12-29T15:07:45Z</time>
      </trkpt>
      <trkpt lat="45.0226" lon="6.12679">
        <ele>1643.8</ele>
        <time>2022-12-29T15:07:46Z</time>
      </trkpt>
      <trkpt lat="45.0226" lon="6.12679">
        <ele>1643.8</ele>
        <time>2022-12-29T15:07:47Z</time>
      </trkpt>
      <trkpt lat="45.0226" lon="6.12681">
        <ele>1643.8</ele>
        <time>2022-12-29T15:07:48Z</time>
      </trkpt>
      <trkpt lat="45.0226" lon="6.12681">
        <ele>1643.8</ele>
        <time>2022-12-29T15:07:49Z</time>
      </trkpt>
      <trkpt lat="45.0226" lon="6.12681">
        <ele>1643.8</ele>
        <time>2022-12-29T15:07:50Z</time>
      </trkpt>
      <trkpt lat="45.0226" lon="6.12681">
        <ele>1643.8</ele>
        <time>2022-12-29T15:07:51Z</time>
      </trkpt>
      <trkpt lat="45.0226" lon="6.12681">
        <ele>1643.8</ele>
        <time>2022-12-29T15:07:52Z</time>
      </trkpt>
      <trkpt lat="45.0226" lon="6.12681">
        <ele>1643.8</ele>
        <time>2022-12-29T15:07:53Z</time>
      </trkpt>
      <trkpt lat="45.0226" lon="6.12681">
        <ele>1643.8</ele>
        <time>2022-12-29T15:07:54Z</time>
      </trkpt>
      <trkpt lat="45.0226" lon="6.12681">
        <ele>1643.8</ele>
        <time>2022-12-29T15:07:55Z</time>
      </trkpt>
      <trkpt lat="45.02262" lon="6.12682">
        <ele>1643.2</ele>
        <time>2022-12-29T15:07:56Z</time>
      </trkpt>
      <trkpt lat="45.02262" lon="6.12682">
        <ele>1643.2</ele>
        <time>2022-12-29T15:07:57Z</time>
      </trkpt>
      <trkpt lat="45.02262" lon="6.12681">
        <ele>1643.2</ele>
        <time>2022-12-29T15:07:58Z</time>
      </trkpt>
      <trkpt lat="45.02262" lon="6.12681">
        <ele>1643.2</ele>
        <time>2022-12-29T15:07:59Z</time>
      </trkpt>
      <trkpt lat="45.02263" lon="6.12681">
        <ele>1643.2</ele>
        <time>2022-12-29T15:08:00Z</time>
      </trkpt>
      <trkpt lat="45.02263" lon="6.12681">
        <ele>1643.2</ele>
        <time>2022-12-29T15:08:01Z</time>
      </trkpt>
      <trkpt lat="45.02263" lon="6.12681">
        <ele>1643.2</ele>
        <time>2022-12-29T15:08:02Z</time>
      </trkpt>
      <trkpt lat="45.02263" lon="6.12681">
        <ele>1643.2</ele>
        <time>2022-12-29T15:08:03Z</time>
      </trkpt>
      <trkpt lat="45.02263" lon="6.12681">
        <ele>1643.2</ele>
        <time>2022-12-29T15:08:04Z</time>
      </trkpt>
      <trkpt lat="45.02264" lon="6.12681">
        <ele>1643.2</ele>
        <time>2022-12-29T15:08:05Z</time>
      </trkpt>
      <trkpt lat="45.02264" lon="6.1268">
        <ele>1642.8</ele>
        <time>2022-12-29T15:08:06Z</time>
      </trkpt>
      <trkpt lat="45.02264" lon="6.1268">
        <ele>1642.8</ele>
        <time>2022-12-29T15:08:07Z</time>
      </trkpt>
      <trkpt lat="45.02265" lon="6.12679">
        <ele>1642.8</ele>
        <time>2022-12-29T15:08:08Z</time>
      </trkpt>
      <trkpt lat="45.02265" lon="6.12678">
        <ele>1642.8</ele>
        <time>2022-12-29T15:08:09Z</time>
      </trkpt>
      <trkpt lat="45.02266" lon="6.12677">
        <ele>1642.8</ele>
        <time>2022-12-29T15:08:10Z</time>
      </trkpt>
      <trkpt lat="45.02267" lon="6.12676">
        <ele>1642.8</ele>
        <time>2022-12-29T15:08:11Z</time>
      </trkpt>
      <trkpt lat="45.02267" lon="6.12676">
        <ele>1642.8</ele>
        <time>2022-12-29T15:08:12Z</time>
      </trkpt>
      <trkpt lat="45.02268" lon="6.12675">
        <ele>1642.8</ele>
        <time>2022-12-29T15:08:13Z</time>
      </trkpt>
      <trkpt lat="45.02268" lon="6.12674">
        <ele>1642.8</ele>
        <time>2022-12-29T15:08:14Z</time>
      </trkpt>
      <trkpt lat="45.02269" lon="6.12673">
        <ele>1642.8</ele>
        <time>2022-12-29T15:08:15Z</time>
      </trkpt>
      <trkpt lat="45.02269" lon="6.12672">
        <ele>1641.6</ele>
        <time>2022-12-29T15:08:16Z</time>
      </trkpt>
      <trkpt lat="45.02269" lon="6.12672">
        <ele>1641.6</ele>
        <time>2022-12-29T15:08:17Z</time>
      </trkpt>
      <trkpt lat="45.02269" lon="6.12672">
        <ele>1641.6</ele>
        <time>2022-12-29T15:08:18Z</time>
      </trkpt>
      <trkpt lat="45.02269" lon="6.12672">
        <ele>1641.6</ele>
        <time>2022-12-29T15:08:19Z</time>
      </trkpt>
      <trkpt lat="45.02269" lon="6.12672">
        <ele>1641.6</ele>
        <time>2022-12-29T15:08:20Z</time>
      </trkpt>
      <trkpt lat="45.02269" lon="6.12672">
        <ele>1641.6</ele>
        <time>2022-12-29T15:08:21Z</time>
      </trkpt>
      <trkpt lat="45.02269" lon="6.12672">
        <ele>1641.6</ele>
        <time>2022-12-29T15:08:22Z</time>
      </trkpt>
      <trkpt lat="45.02269" lon="6.12672">
        <ele>1641.6</ele>
        <time>2022-12-29T15:08:23Z</time>
      </trkpt>
      <trkpt lat="45.02269" lon="6.12672">
        <ele>1641.6</ele>
        <time>2022-12-29T15:08:24Z</time>
      </trkpt>
      <trkpt lat="45.02269" lon="6.12672">
        <ele>1641.6</ele>
        <time>2022-12-29T15:08:25Z</time>
      </trkpt>
      <trkpt lat="45.02269" lon="6.12672">
        <ele>1639.6</ele>
        <time>2022-12-29T15:08:26Z</time>
      </trkpt>
      <trkpt lat="45.02269" lon="6.12672">
        <ele>1639.6</ele>
        <time>2022-12-29T15:08:27Z</time>
      </trkpt>
      <trkpt lat="45.02269" lon="6.12672">
        <ele>1639.6</ele>
        <time>2022-12-29T15:08:28Z</time>
      </trkpt>
      <trkpt lat="45.02269" lon="6.12672">
        <ele>1639.6</ele>
        <time>2022-12-29T15:08:29Z</time>
      </trkpt>
      <trkpt lat="45.02269" lon="6.12672">
        <ele>1639.6</ele>
        <time>2022-12-29T15:08:30Z</time>
      </trkpt>
      <trkpt lat="45.02269" lon="6.12672">
        <ele>1639.6</ele>
        <time>2022-12-29T15:08:31Z</time>
      </trkpt>
      <trkpt lat="45.02269" lon="6.12672">
        <ele>1639.6</ele>
        <time>2022-12-29T15:08:32Z</time>
      </trkpt>
      <trkpt lat="45.02269" lon="6.12672">
        <ele>1639.6</ele>
        <time>2022-12-29T15:08:33Z</time>
      </trkpt>
      <trkpt lat="45.02269" lon="6.12672">
        <ele>1639.6</ele>
        <time>2022-12-29T15:08:34Z</time>
      </trkpt>
      <trkpt lat="45.02269" lon="6.12672">
        <ele>1639.6</ele>
        <time>2022-12-29T15:08:35Z</time>
      </trkpt>
      <trkpt lat="45.02269" lon="6.12672">
        <ele>1637.8</ele>
        <time>2022-12-29T15:08:36Z</time>
      </trkpt>
      <trkpt lat="45.02269" lon="6.12672">
        <ele>1637.8</ele>
        <time>2022-12-29T15:08:37Z</time>
      </trkpt>
      <trkpt lat="45.02269" lon="6.12672">
        <ele>1637.8</ele>
        <time>2022-12-29T15:08:38Z</time>
      </trkpt>
      <trkpt lat="45.02269" lon="6.12672">
        <ele>1637.8</ele>
        <time>2022-12-29T15:08:39Z</time>
      </trkpt>
      <trkpt lat="45.02269" lon="6.12672">
        <ele>1637.8</ele>
        <time>2022-12-29T15:08:40Z</time>
      </trkpt>
      <trkpt lat="45.02269" lon="6.12672">
        <ele>1637.8</ele>
        <time>2022-12-29T15:08:41Z</time>
      </trkpt>
      <trkpt lat="45.02269" lon="6.12672">
        <ele>1637.8</ele>
        <time>2022-12-29T15:08:42Z</time>
      </trkpt>
      <trkpt lat="45.02269" lon="6.12672">
        <ele>1637.8</ele>
        <time>2022-12-29T15:08:43Z</time>
      </trkpt>
      <trkpt lat="45.02269" lon="6.12672">
        <ele>1637.8</ele>
        <time>2022-12-29T15:08:44Z</time>
      </trkpt>
      <trkpt lat="45.02269" lon="6.12672">
        <ele>1637.8</ele>
        <time>2022-12-29T15:08:45Z</time>
      </trkpt>
      <trkpt lat="45.02269" lon="6.12672">
        <ele>1637.4</ele>
        <time>2022-12-29T15:08:46Z</time>
      </trkpt>
      <trkpt lat="45.02269" lon="6.12672">
        <ele>1637.4</ele>
        <time>2022-12-29T15:08:47Z</time>
      </trkpt>
      <trkpt lat="45.02269" lon="6.12672">
        <ele>1637.4</ele>
        <time>2022-12-29T15:08:48Z</time>
      </trkpt>
      <trkpt lat="45.02269" lon="6.12672">
        <ele>1637.4</ele>
        <time>2022-12-29T15:08:49Z</time>
      </trkpt>
      <trkpt lat="45.02269" lon="6.12672">
        <ele>1637.4</ele>
        <time>2022-12-29T15:08:50Z</time>
      </trkpt>
      <trkpt lat="45.02269" lon="6.12672">
        <ele>1637.4</ele>
        <time>2022-12-29T15:08:51Z</time>
      </trkpt>
      <trkpt lat="45.02269" lon="6.12672">
        <ele>1637.4</ele>
        <time>2022-12-29T15:08:52Z</time>
      </trkpt>
      <trkpt lat="45.02269" lon="6.12672">
        <ele>1637.4</ele>
        <time>2022-12-29T15:08:53Z</time>
      </trkpt>
      <trkpt lat="45.02269" lon="6.12672">
        <ele>1637.4</ele>
        <time>2022-12-29T15:08:54Z</time>
      </trkpt>
      <trkpt lat="45.02269" lon="6.12672">
        <ele>1637.4</ele>
        <time>2022-12-29T15:08:55Z</time>
      </trkpt>
      <trkpt lat="45.02269" lon="6.12672">
        <ele>1635.6</ele>
        <time>2022-12-29T15:08:56Z</time>
      </trkpt>
      <trkpt lat="45.02269" lon="6.12672">
        <ele>1635.6</ele>
        <time>2022-12-29T15:08:57Z</time>
      </trkpt>
      <trkpt lat="45.02269" lon="6.12672">
        <ele>1635.6</ele>
        <time>2022-12-29T15:08:58Z</time>
      </trkpt>
      <trkpt lat="45.02269" lon="6.12672">
        <ele>1635.6</ele>
        <time>2022-12-29T15:08:59Z</time>
      </trkpt>
      <trkpt lat="45.02269" lon="6.12672">
        <ele>1635.6</ele>
        <time>2022-12-29T15:09:00Z</time>
      </trkpt>
      <trkpt lat="45.02269" lon="6.12672">
        <ele>1635.6</ele>
        <time>2022-12-29T15:09:01Z</time>
      </trkpt>
      <trkpt lat="45.02269" lon="6.12672">
        <ele>1635.6</ele>
        <time>2022-12-29T15:09:02Z</time>
      </trkpt>
      <trkpt lat="45.02269" lon="6.12672">
        <ele>1635.6</ele>
        <time>2022-12-29T15:09:03Z</time>
      </trkpt>
      <trkpt lat="45.02269" lon="6.12672">
        <ele>1635.6</ele>
        <time>2022-12-29T15:09:04Z</time>
      </trkpt>
      <trkpt lat="45.02269" lon="6.12672">
        <ele>1635.6</ele>
        <time>2022-12-29T15:09:05Z</time>
      </trkpt>
      <trkpt lat="45.02269" lon="6.12672">
        <ele>1635.6</ele>
        <time>2022-12-29T15:09:06Z</time>
      </trkpt>
      <trkpt lat="45.02269" lon="6.12672">
        <ele>1635.6</ele>
        <time>2022-12-29T15:09:07Z</time>
      </trkpt>
      <trkpt lat="45.02269" lon="6.12672">
        <ele>1635.6</ele>
        <time>2022-12-29T15:09:08Z</time>
      </trkpt>
      <trkpt lat="45.02269" lon="6.12672">
        <ele>1635.6</ele>
        <time>2022-12-29T15:09:09Z</time>
      </trkpt>
      <trkpt lat="45.02269" lon="6.12672">
        <ele>1635.6</ele>
        <time>2022-12-29T15:09:10Z</time>
      </trkpt>
      <trkpt lat="45.02269" lon="6.12672">
        <ele>1635.6</ele>
        <time>2022-12-29T15:09:11Z</time>
      </trkpt>
      <trkpt lat="45.02269" lon="6.12672">
        <ele>1635.6</ele>
        <time>2022-12-29T15:09:12Z</time>
      </trkpt>
      <trkpt lat="45.02269" lon="6.12672">
        <ele>1635.6</ele>
        <time>2022-12-29T15:09:13Z</time>
      </trkpt>
      <trkpt lat="45.02269" lon="6.12672">
        <ele>1635.6</ele>
        <time>2022-12-29T15:09:14Z</time>
      </trkpt>
      <trkpt lat="45.02269" lon="6.12672">
        <ele>1635.6</ele>
        <time>2022-12-29T15:09:15Z</time>
      </trkpt>
      <trkpt lat="45.02269" lon="6.12672">
        <ele>1635.6</ele>
        <time>2022-12-29T15:09:16Z</time>
      </trkpt>
      <trkpt lat="45.02269" lon="6.12672">
        <ele>1635.6</ele>
        <time>2022-12-29T15:09:17Z</time>
      </trkpt>
      <trkpt lat="45.02269" lon="6.12672">
        <ele>1635.6</ele>
        <time>2022-12-29T15:09:18Z</time>
      </trkpt>
      <trkpt lat="45.02269" lon="6.12672">
        <ele>1635.6</ele>
        <time>2022-12-29T15:09:19Z</time>
      </trkpt>
      <trkpt lat="45.02269" lon="6.12672">
        <ele>1635.6</ele>
        <time>2022-12-29T15:09:20Z</time>
      </trkpt>
      <trkpt lat="45.02269" lon="6.12672">
        <ele>1635.6</ele>
        <time>2022-12-29T15:09:21Z</time>
      </trkpt>
      <trkpt lat="45.02269" lon="6.12672">
        <ele>1635.6</ele>
        <time>2022-12-29T15:09:22Z</time>
      </trkpt>
      <trkpt lat="45.02269" lon="6.12672">
        <ele>1635.6</ele>
        <time>2022-12-29T15:09:23Z</time>
      </trkpt>
      <trkpt lat="45.02269" lon="6.12672">
        <ele>1635.6</ele>
        <time>2022-12-29T15:09:24Z</time>
      </trkpt>
      <trkpt lat="45.02269" lon="6.12672">
        <ele>1635.6</ele>
        <time>2022-12-29T15:09:25Z</time>
      </trkpt>
      <trkpt lat="45.02269" lon="6.12672">
        <ele>1635.6</ele>
        <time>2022-12-29T15:09:26Z</time>
      </trkpt>
      <trkpt lat="45.02269" lon="6.12672">
        <ele>1635.6</ele>
        <time>2022-12-29T15:09:27Z</time>
      </trkpt>
      <trkpt lat="45.02269" lon="6.12672">
        <ele>1635.6</ele>
        <time>2022-12-29T15:09:28Z</time>
      </trkpt>
      <trkpt lat="45.02269" lon="6.12672">
        <ele>1635.6</ele>
        <time>2022-12-29T15:09:29Z</time>
      </trkpt>
      <trkpt lat="45.02269" lon="6.12672">
        <ele>1635.6</ele>
        <time>2022-12-29T15:09:30Z</time>
      </trkpt>
      <trkpt lat="45.02269" lon="6.12672">
        <ele>1635.6</ele>
        <time>2022-12-29T15:09:31Z</time>
      </trkpt>
      <trkpt lat="45.02269" lon="6.12672">
        <ele>1635.6</ele>
        <time>2022-12-29T15:09:32Z</time>
      </trkpt>
      <trkpt lat="45.02269" lon="6.12672">
        <ele>1635.6</ele>
        <time>2022-12-29T15:09:33Z</time>
      </trkpt>
      <trkpt lat="45.02269" lon="6.12672">
        <ele>1635.6</ele>
        <time>2022-12-29T15:09:34Z</time>
      </trkpt>
      <trkpt lat="45.02269" lon="6.12672">
        <ele>1635.6</ele>
        <time>2022-12-29T15:09:35Z</time>
      </trkpt>
      <trkpt lat="45.02269" lon="6.12672">
        <ele>1635.4</ele>
        <time>2022-12-29T15:09:36Z</time>
      </trkpt>
      <trkpt lat="45.02269" lon="6.12672">
        <ele>1635.4</ele>
        <time>2022-12-29T15:09:37Z</time>
      </trkpt>
      <trkpt lat="45.02269" lon="6.12672">
        <ele>1635.4</ele>
        <time>2022-12-29T15:09:38Z</time>
      </trkpt>
      <trkpt lat="45.02269" lon="6.12672">
        <ele>1635.4</ele>
        <time>2022-12-29T15:09:39Z</time>
      </trkpt>
      <trkpt lat="45.02269" lon="6.12672">
        <ele>1635.4</ele>
        <time>2022-12-29T15:09:40Z</time>
      </trkpt>
      <trkpt lat="45.02269" lon="6.12672">
        <ele>1635.4</ele>
        <time>2022-12-29T15:09:41Z</time>
      </trkpt>
      <trkpt lat="45.02269" lon="6.12672">
        <ele>1635.4</ele>
        <time>2022-12-29T15:09:42Z</time>
      </trkpt>
      <trkpt lat="45.02269" lon="6.12672">
        <ele>1635.4</ele>
        <time>2022-12-29T15:09:43Z</time>
      </trkpt>
      <trkpt lat="45.02269" lon="6.12672">
        <ele>1635.4</ele>
        <time>2022-12-29T15:09:44Z</time>
      </trkpt>
      <trkpt lat="45.02269" lon="6.12672">
        <ele>1635.4</ele>
        <time>2022-12-29T15:09:45Z</time>
      </trkpt>
      <trkpt lat="45.02269" lon="6.12672">
        <ele>1635</ele>
        <time>2022-12-29T15:09:46Z</time>
      </trkpt>
      <trkpt lat="45.02269" lon="6.12672">
        <ele>1635</ele>
        <time>2022-12-29T15:09:47Z</time>
      </trkpt>
      <trkpt lat="45.02269" lon="6.12672">
        <ele>1635</ele>
        <time>2022-12-29T15:09:48Z</time>
      </trkpt>
      <trkpt lat="45.02269" lon="6.12672">
        <ele>1635</ele>
        <time>2022-12-29T15:09:49Z</time>
      </trkpt>
      <trkpt lat="45.02269" lon="6.12672">
        <ele>1635</ele>
        <time>2022-12-29T15:09:50Z</time>
      </trkpt>
      <trkpt lat="45.02269" lon="6.12672">
        <ele>1635</ele>
        <time>2022-12-29T15:09:51Z</time>
      </trkpt>
      <trkpt lat="45.02269" lon="6.12672">
        <ele>1635</ele>
        <time>2022-12-29T15:09:52Z</time>
      </trkpt>
      <trkpt lat="45.02269" lon="6.12672">
        <ele>1635</ele>
        <time>2022-12-29T15:09:53Z</time>
      </trkpt>
      <trkpt lat="45.02269" lon="6.12672">
        <ele>1635</ele>
        <time>2022-12-29T15:09:54Z</time>
      </trkpt>
      <trkpt lat="45.02269" lon="6.12672">
        <ele>1635</ele>
        <time>2022-12-29T15:09:55Z</time>
      </trkpt>
      <trkpt lat="45.02269" lon="6.12672">
        <ele>1635.2</ele>
        <time>2022-12-29T15:09:56Z</time>
      </trkpt>
      <trkpt lat="45.02269" lon="6.12672">
        <ele>1635.2</ele>
        <time>2022-12-29T15:09:57Z</time>
      </trkpt>
      <trkpt lat="45.02269" lon="6.12672">
        <ele>1635.2</ele>
        <time>2022-12-29T15:09:58Z</time>
      </trkpt>
      <trkpt lat="45.02269" lon="6.12672">
        <ele>1635.2</ele>
        <time>2022-12-29T15:09:59Z</time>
      </trkpt>
      <trkpt lat="45.02269" lon="6.12672">
        <ele>1635.2</ele>
        <time>2022-12-29T15:10:00Z</time>
      </trkpt>
      <trkpt lat="45.02269" lon="6.12672">
        <ele>1635.2</ele>
        <time>2022-12-29T15:10:01Z</time>
      </trkpt>
      <trkpt lat="45.02269" lon="6.12672">
        <ele>1635.2</ele>
        <time>2022-12-29T15:10:02Z</time>
      </trkpt>
      <trkpt lat="45.02269" lon="6.12672">
        <ele>1635.2</ele>
        <time>2022-12-29T15:10:03Z</time>
      </trkpt>
      <trkpt lat="45.02269" lon="6.12672">
        <ele>1635.2</ele>
        <time>2022-12-29T15:10:04Z</time>
      </trkpt>
      <trkpt lat="45.02269" lon="6.12672">
        <ele>1635.2</ele>
        <time>2022-12-29T15:10:05Z</time>
      </trkpt>
      <trkpt lat="45.02269" lon="6.12672">
        <ele>1635.2</ele>
        <time>2022-12-29T15:10:06Z</time>
      </trkpt>
      <trkpt lat="45.02269" lon="6.12672">
        <ele>1635.2</ele>
        <time>2022-12-29T15:10:07Z</time>
      </trkpt>
      <trkpt lat="45.02269" lon="6.12672">
        <ele>1635.2</ele>
        <time>2022-12-29T15:10:08Z</time>
      </trkpt>
      <trkpt lat="45.02269" lon="6.12672">
        <ele>1635.2</ele>
        <time>2022-12-29T15:10:12Z</time>
      </trkpt>
      <trkpt lat="45.02269" lon="6.12672">
        <ele>1635.2</ele>
        <time>2022-12-29T15:10:13Z</time>
      </trkpt>
      <trkpt lat="45.02269" lon="6.12672">
        <ele>1635.2</ele>
        <time>2022-12-29T15:10:14Z</time>
      </trkpt>
      <trkpt lat="45.02269" lon="6.12672">
        <ele>1635.2</ele>
        <time>2022-12-29T15:10:15Z</time>
      </trkpt>
      <trkpt lat="45.02269" lon="6.12672">
        <ele>1635.6</ele>
        <time>2022-12-29T15:10:16Z</time>
      </trkpt>
      <trkpt lat="45.02269" lon="6.12672">
        <ele>1635.6</ele>
        <time>2022-12-29T15:10:17Z</time>
      </trkpt>
      <trkpt lat="45.02269" lon="6.12672">
        <ele>1635.6</ele>
        <time>2022-12-29T15:10:18Z</time>
      </trkpt>
      <trkpt lat="45.02269" lon="6.12672">
        <ele>1635.6</ele>
        <time>2022-12-29T15:10:19Z</time>
      </trkpt>
      <trkpt lat="45.02269" lon="6.12672">
        <ele>1635.6</ele>
        <time>2022-12-29T15:10:20Z</time>
      </trkpt>
      <trkpt lat="45.02269" lon="6.12672">
        <ele>1635.6</ele>
        <time>2022-12-29T15:10:21Z</time>
      </trkpt>
      <trkpt lat="45.02269" lon="6.12672">
        <ele>1635.6</ele>
        <time>2022-12-29T15:10:22Z</time>
      </trkpt>
      <trkpt lat="45.02269" lon="6.12672">
        <ele>1635.6</ele>
        <time>2022-12-29T15:10:23Z</time>
      </trkpt>
      <trkpt lat="45.02269" lon="6.12672">
        <ele>1635.6</ele>
        <time>2022-12-29T15:10:24Z</time>
      </trkpt>
      <trkpt lat="45.02269" lon="6.12672">
        <ele>1635</ele>
        <time>2022-12-29T15:10:26Z</time>
      </trkpt>
      <trkpt lat="45.02269" lon="6.12672">
        <ele>1635</ele>
        <time>2022-12-29T15:10:27Z</time>
      </trkpt>
      <trkpt lat="45.02269" lon="6.12672">
        <ele>1635</ele>
        <time>2022-12-29T15:10:28Z</time>
      </trkpt>
      <trkpt lat="45.02269" lon="6.12672">
        <ele>1635</ele>
        <time>2022-12-29T15:10:29Z</time>
      </trkpt>
      <trkpt lat="45.02269" lon="6.12672">
        <ele>1635</ele>
        <time>2022-12-29T15:10:30Z</time>
      </trkpt>
      <trkpt lat="45.02269" lon="6.12672">
        <ele>1635</ele>
        <time>2022-12-29T15:10:31Z</time>
      </trkpt>
      <trkpt lat="45.02269" lon="6.12672">
        <ele>1635</ele>
        <time>2022-12-29T15:10:32Z</time>
      </trkpt>
      <trkpt lat="45.02269" lon="6.12672">
        <ele>1635</ele>
        <time>2022-12-29T15:10:33Z</time>
      </trkpt>
      <trkpt lat="45.02269" lon="6.12672">
        <ele>1635</ele>
        <time>2022-12-29T15:10:34Z</time>
      </trkpt>
      <trkpt lat="45.02269" lon="6.12672">
        <ele>1634.6</ele>
        <time>2022-12-29T15:10:36Z</time>
      </trkpt>
      <trkpt lat="45.02269" lon="6.12672">
        <ele>1634.6</ele>
        <time>2022-12-29T15:10:37Z</time>
      </trkpt>
      <trkpt lat="45.02269" lon="6.12672">
        <ele>1634.6</ele>
        <time>2022-12-29T15:10:38Z</time>
      </trkpt>
      <trkpt lat="45.02269" lon="6.12672">
        <ele>1634.6</ele>
        <time>2022-12-29T15:10:39Z</time>
      </trkpt>
      <trkpt lat="45.02269" lon="6.12672">
        <ele>1634.6</ele>
        <time>2022-12-29T15:10:40Z</time>
      </trkpt>
      <trkpt lat="45.02269" lon="6.12672">
        <ele>1634.6</ele>
        <time>2022-12-29T15:10:41Z</time>
      </trkpt>
      <trkpt lat="45.02269" lon="6.12672">
        <ele>1634.6</ele>
        <time>2022-12-29T15:10:42Z</time>
      </trkpt>
      <trkpt lat="45.02269" lon="6.12672">
        <ele>1634.6</ele>
        <time>2022-12-29T15:10:43Z</time>
      </trkpt>
      <trkpt lat="45.02269" lon="6.12672">
        <ele>1634.6</ele>
        <time>2022-12-29T15:10:44Z</time>
      </trkpt>
      <trkpt lat="45.02269" lon="6.12672">
        <ele>1634.6</ele>
        <time>2022-12-29T15:10:45Z</time>
      </trkpt>
      <trkpt lat="45.02269" lon="6.12672">
        <ele>1635.2</ele>
        <time>2022-12-29T15:10:46Z</time>
      </trkpt>
      <trkpt lat="45.02269" lon="6.12672">
        <ele>1635.2</ele>
        <time>2022-12-29T15:10:47Z</time>
      </trkpt>
      <trkpt lat="45.02269" lon="6.12672">
        <ele>1635.2</ele>
        <time>2022-12-29T15:10:48Z</time>
      </trkpt>
      <trkpt lat="45.02269" lon="6.12672">
        <ele>1635.2</ele>
        <time>2022-12-29T15:10:49Z</time>
      </trkpt>
      <trkpt lat="45.02269" lon="6.12672">
        <ele>1635.2</ele>
        <time>2022-12-29T15:10:50Z</time>
      </trkpt>
      <trkpt lat="45.02269" lon="6.12672">
        <ele>1635.2</ele>
        <time>2022-12-29T15:10:51Z</time>
      </trkpt>
      <trkpt lat="45.02269" lon="6.12672">
        <ele>1635.2</ele>
        <time>2022-12-29T15:10:52Z</time>
      </trkpt>
      <trkpt lat="45.02269" lon="6.12672">
        <ele>1635.2</ele>
        <time>2022-12-29T15:10:53Z</time>
      </trkpt>
      <trkpt lat="45.02269" lon="6.12672">
        <ele>1635.2</ele>
        <time>2022-12-29T15:10:54Z</time>
      </trkpt>
      <trkpt lat="45.02269" lon="6.12672">
        <ele>1635</ele>
        <time>2022-12-29T15:10:56Z</time>
      </trkpt>
      <trkpt lat="45.02269" lon="6.12672">
        <ele>1635</ele>
        <time>2022-12-29T15:10:57Z</time>
      </trkpt>
      <trkpt lat="45.02269" lon="6.12672">
        <ele>1635</ele>
        <time>2022-12-29T15:10:58Z</time>
      </trkpt>
      <trkpt lat="45.02269" lon="6.12672">
        <ele>1635</ele>
        <time>2022-12-29T15:10:59Z</time>
      </trkpt>
      <trkpt lat="45.02269" lon="6.12672">
        <ele>1635</ele>
        <time>2022-12-29T15:11:00Z</time>
      </trkpt>
      <trkpt lat="45.02269" lon="6.12672">
        <ele>1635</ele>
        <time>2022-12-29T15:11:01Z</time>
      </trkpt>
      <trkpt lat="45.02269" lon="6.12672">
        <ele>1635</ele>
        <time>2022-12-29T15:11:02Z</time>
      </trkpt>
      <trkpt lat="45.02269" lon="6.12672">
        <ele>1635</ele>
        <time>2022-12-29T15:11:03Z</time>
      </trkpt>
      <trkpt lat="45.02269" lon="6.12672">
        <ele>1635</ele>
        <time>2022-12-29T15:11:04Z</time>
      </trkpt>
      <trkpt lat="45.02269" lon="6.12672">
        <ele>1635</ele>
        <time>2022-12-29T15:11:05Z</time>
      </trkpt>
      <trkpt lat="45.02269" lon="6.12672">
        <ele>1635.2</ele>
        <time>2022-12-29T15:11:06Z</time>
      </trkpt>
      <trkpt lat="45.02269" lon="6.12672">
        <ele>1635.2</ele>
        <time>2022-12-29T15:11:07Z</time>
      </trkpt>
      <trkpt lat="45.02269" lon="6.12672">
        <ele>1635.2</ele>
        <time>2022-12-29T15:11:08Z</time>
      </trkpt>
      <trkpt lat="45.02269" lon="6.12672">
        <ele>1635.2</ele>
        <time>2022-12-29T15:11:09Z</time>
      </trkpt>
      <trkpt lat="45.02269" lon="6.12672">
        <ele>1635.2</ele>
        <time>2022-12-29T15:11:10Z</time>
      </trkpt>
      <trkpt lat="45.02269" lon="6.12672">
        <ele>1635.2</ele>
        <time>2022-12-29T15:11:11Z</time>
      </trkpt>
      <trkpt lat="45.02269" lon="6.12672">
        <ele>1635.2</ele>
        <time>2022-12-29T15:11:12Z</time>
      </trkpt>
      <trkpt lat="45.02269" lon="6.12672">
        <ele>1635.2</ele>
        <time>2022-12-29T15:11:13Z</time>
      </trkpt>
      <trkpt lat="45.02269" lon="6.12672">
        <ele>1635.2</ele>
        <time>2022-12-29T15:11:14Z</time>
      </trkpt>
      <trkpt lat="45.02269" lon="6.12672">
        <ele>1635.2</ele>
        <time>2022-12-29T15:11:15Z</time>
      </trkpt>
      <trkpt lat="45.02269" lon="6.12672">
        <ele>1635.2</ele>
        <time>2022-12-29T15:11:16Z</time>
      </trkpt>
      <trkpt lat="45.02269" lon="6.12672">
        <ele>1635.2</ele>
        <time>2022-12-29T15:11:17Z</time>
      </trkpt>
      <trkpt lat="45.02269" lon="6.12672">
        <ele>1635.2</ele>
        <time>2022-12-29T15:11:18Z</time>
      </trkpt>
      <trkpt lat="45.02269" lon="6.12672">
        <ele>1635.2</ele>
        <time>2022-12-29T15:11:19Z</time>
      </trkpt>
      <trkpt lat="45.02269" lon="6.12672">
        <ele>1635.2</ele>
        <time>2022-12-29T15:11:20Z</time>
      </trkpt>
      <trkpt lat="45.02269" lon="6.12672">
        <ele>1635.2</ele>
        <time>2022-12-29T15:11:21Z</time>
      </trkpt>
      <trkpt lat="45.02269" lon="6.12672">
        <ele>1635.2</ele>
        <time>2022-12-29T15:11:22Z</time>
      </trkpt>
      <trkpt lat="45.02269" lon="6.12672">
        <ele>1635.2</ele>
        <time>2022-12-29T15:11:23Z</time>
      </trkpt>
      <trkpt lat="45.02269" lon="6.12672">
        <ele>1635</ele>
        <time>2022-12-29T15:11:26Z</time>
      </trkpt>
      <trkpt lat="45.02269" lon="6.12672">
        <ele>1635</ele>
        <time>2022-12-29T15:11:27Z</time>
      </trkpt>
      <trkpt lat="45.02269" lon="6.12672">
        <ele>1635</ele>
        <time>2022-12-29T15:11:28Z</time>
      </trkpt>
      <trkpt lat="45.02269" lon="6.12672">
        <ele>1635</ele>
        <time>2022-12-29T15:11:29Z</time>
      </trkpt>
      <trkpt lat="45.02269" lon="6.12672">
        <ele>1635</ele>
        <time>2022-12-29T15:11:30Z</time>
      </trkpt>
      <trkpt lat="45.02269" lon="6.12672">
        <ele>1635</ele>
        <time>2022-12-29T15:11:31Z</time>
      </trkpt>
      <trkpt lat="45.02269" lon="6.12672">
        <ele>1635</ele>
        <time>2022-12-29T15:11:32Z</time>
      </trkpt>
      <trkpt lat="45.02269" lon="6.12672">
        <ele>1635</ele>
        <time>2022-12-29T15:11:33Z</time>
      </trkpt>
      <trkpt lat="45.02269" lon="6.12672">
        <ele>1635</ele>
        <time>2022-12-29T15:11:34Z</time>
      </trkpt>
      <trkpt lat="45.02269" lon="6.12672">
        <ele>1635</ele>
        <time>2022-12-29T15:11:35Z</time>
      </trkpt>
      <trkpt lat="45.02269" lon="6.12672">
        <ele>1634.6</ele>
        <time>2022-12-29T15:11:36Z</time>
      </trkpt>
      <trkpt lat="45.02269" lon="6.12672">
        <ele>1634.6</ele>
        <time>2022-12-29T15:11:37Z</time>
      </trkpt>
      <trkpt lat="45.02269" lon="6.12672">
        <ele>1634.6</ele>
        <time>2022-12-29T15:11:38Z</time>
      </trkpt>
      <trkpt lat="45.02269" lon="6.12672">
        <ele>1634.6</ele>
        <time>2022-12-29T15:11:40Z</time>
      </trkpt>
      <trkpt lat="45.02269" lon="6.12672">
        <ele>1634.6</ele>
        <time>2022-12-29T15:11:41Z</time>
      </trkpt>
      <trkpt lat="45.02269" lon="6.12672">
        <ele>1634.6</ele>
        <time>2022-12-29T15:11:42Z</time>
      </trkpt>
      <trkpt lat="45.02269" lon="6.12672">
        <ele>1634.6</ele>
        <time>2022-12-29T15:11:43Z</time>
      </trkpt>
      <trkpt lat="45.02269" lon="6.12672">
        <ele>1634.6</ele>
        <time>2022-12-29T15:11:44Z</time>
      </trkpt>
      <trkpt lat="45.02269" lon="6.12672">
        <ele>1634.6</ele>
        <time>2022-12-29T15:11:45Z</time>
      </trkpt>
      <trkpt lat="45.02269" lon="6.12672">
        <ele>1635.2</ele>
        <time>2022-12-29T15:11:46Z</time>
      </trkpt>
      <trkpt lat="45.02269" lon="6.12672">
        <ele>1635.2</ele>
        <time>2022-12-29T15:11:47Z</time>
      </trkpt>
      <trkpt lat="45.02269" lon="6.12672">
        <ele>1635.2</ele>
        <time>2022-12-29T15:11:48Z</time>
      </trkpt>
      <trkpt lat="45.02269" lon="6.12672">
        <ele>1635.2</ele>
        <time>2022-12-29T15:11:49Z</time>
      </trkpt>
      <trkpt lat="45.02269" lon="6.12672">
        <ele>1635.2</ele>
        <time>2022-12-29T15:11:50Z</time>
      </trkpt>
      <trkpt lat="45.02269" lon="6.12672">
        <ele>1635.2</ele>
        <time>2022-12-29T15:11:51Z</time>
      </trkpt>
      <trkpt lat="45.02269" lon="6.12672">
        <ele>1635.2</ele>
        <time>2022-12-29T15:11:52Z</time>
      </trkpt>
      <trkpt lat="45.02269" lon="6.12672">
        <ele>1635.2</ele>
        <time>2022-12-29T15:11:53Z</time>
      </trkpt>
      <trkpt lat="45.02269" lon="6.12672">
        <ele>1635.2</ele>
        <time>2022-12-29T15:11:54Z</time>
      </trkpt>
      <trkpt lat="45.02269" lon="6.12672">
        <ele>1635.2</ele>
        <time>2022-12-29T15:11:55Z</time>
      </trkpt>
      <trkpt lat="45.02269" lon="6.12672">
        <ele>1635.4</ele>
        <time>2022-12-29T15:11:56Z</time>
      </trkpt>
      <trkpt lat="45.02269" lon="6.12672">
        <ele>1635.4</ele>
        <time>2022-12-29T15:11:57Z</time>
      </trkpt>
      <trkpt lat="45.02269" lon="6.12672">
        <ele>1635.4</ele>
        <time>2022-12-29T15:11:58Z</time>
      </trkpt>
      <trkpt lat="45.02269" lon="6.12672">
        <ele>1635.4</ele>
        <time>2022-12-29T15:11:59Z</time>
      </trkpt>
      <trkpt lat="45.02269" lon="6.12672">
        <ele>1635.4</ele>
        <time>2022-12-29T15:12:00Z</time>
      </trkpt>
      <trkpt lat="45.02269" lon="6.12672">
        <ele>1635.4</ele>
        <time>2022-12-29T15:12:01Z</time>
      </trkpt>
      <trkpt lat="45.02269" lon="6.12672">
        <ele>1635.4</ele>
        <time>2022-12-29T15:12:02Z</time>
      </trkpt>
      <trkpt lat="45.02269" lon="6.12672">
        <ele>1635.4</ele>
        <time>2022-12-29T15:12:03Z</time>
      </trkpt>
      <trkpt lat="45.02269" lon="6.12672">
        <ele>1635.4</ele>
        <time>2022-12-29T15:12:04Z</time>
      </trkpt>
      <trkpt lat="45.02269" lon="6.12672">
        <ele>1635.4</ele>
        <time>2022-12-29T15:12:05Z</time>
      </trkpt>
      <trkpt lat="45.02269" lon="6.12672">
        <ele>1635.6</ele>
        <time>2022-12-29T15:12:06Z</time>
      </trkpt>
      <trkpt lat="45.02269" lon="6.12672">
        <ele>1635.6</ele>
        <time>2022-12-29T15:12:07Z</time>
      </trkpt>
      <trkpt lat="45.02269" lon="6.12672">
        <ele>1635.6</ele>
        <time>2022-12-29T15:12:08Z</time>
      </trkpt>
      <trkpt lat="45.02269" lon="6.12672">
        <ele>1635.6</ele>
        <time>2022-12-29T15:12:09Z</time>
      </trkpt>
      <trkpt lat="45.02269" lon="6.12672">
        <ele>1635.6</ele>
        <time>2022-12-29T15:12:10Z</time>
      </trkpt>
      <trkpt lat="45.02269" lon="6.12672">
        <ele>1635.6</ele>
        <time>2022-12-29T15:12:11Z</time>
      </trkpt>
      <trkpt lat="45.02269" lon="6.12672">
        <ele>1635.6</ele>
        <time>2022-12-29T15:12:12Z</time>
      </trkpt>
      <trkpt lat="45.02269" lon="6.12672">
        <ele>1635.6</ele>
        <time>2022-12-29T15:12:13Z</time>
      </trkpt>
      <trkpt lat="45.02269" lon="6.12672">
        <ele>1635.6</ele>
        <time>2022-12-29T15:12:14Z</time>
      </trkpt>
      <trkpt lat="45.02269" lon="6.12672">
        <ele>1635.6</ele>
        <time>2022-12-29T15:12:15Z</time>
      </trkpt>
      <trkpt lat="45.02269" lon="6.12672">
        <ele>1635</ele>
        <time>2022-12-29T15:12:16Z</time>
      </trkpt>
      <trkpt lat="45.02269" lon="6.12672">
        <ele>1635</ele>
        <time>2022-12-29T15:12:17Z</time>
      </trkpt>
      <trkpt lat="45.02269" lon="6.12672">
        <ele>1635</ele>
        <time>2022-12-29T15:12:18Z</time>
      </trkpt>
      <trkpt lat="45.02269" lon="6.12672">
        <ele>1635</ele>
        <time>2022-12-29T15:12:19Z</time>
      </trkpt>
      <trkpt lat="45.02269" lon="6.12672">
        <ele>1635</ele>
        <time>2022-12-29T15:12:20Z</time>
      </trkpt>
      <trkpt lat="45.02269" lon="6.12672">
        <ele>1635</ele>
        <time>2022-12-29T15:12:21Z</time>
      </trkpt>
      <trkpt lat="45.02269" lon="6.12672">
        <ele>1635</ele>
        <time>2022-12-29T15:12:22Z</time>
      </trkpt>
      <trkpt lat="45.02269" lon="6.12672">
        <ele>1635</ele>
        <time>2022-12-29T15:12:23Z</time>
      </trkpt>
      <trkpt lat="45.02269" lon="6.12672">
        <ele>1635</ele>
        <time>2022-12-29T15:12:24Z</time>
      </trkpt>
      <trkpt lat="45.02269" lon="6.12672">
        <ele>1635</ele>
        <time>2022-12-29T15:12:25Z</time>
      </trkpt>
      <trkpt lat="45.02269" lon="6.12672">
        <ele>1635.4</ele>
        <time>2022-12-29T15:12:26Z</time>
      </trkpt>
      <trkpt lat="45.02269" lon="6.12672">
        <ele>1635.4</ele>
        <time>2022-12-29T15:12:27Z</time>
      </trkpt>
      <trkpt lat="45.02269" lon="6.12672">
        <ele>1635.4</ele>
        <time>2022-12-29T15:12:28Z</time>
      </trkpt>
      <trkpt lat="45.02269" lon="6.12672">
        <ele>1635.4</ele>
        <time>2022-12-29T15:12:29Z</time>
      </trkpt>
      <trkpt lat="45.02269" lon="6.12672">
        <ele>1635.4</ele>
        <time>2022-12-29T15:12:30Z</time>
      </trkpt>
      <trkpt lat="45.02269" lon="6.12672">
        <ele>1635.4</ele>
        <time>2022-12-29T15:12:31Z</time>
      </trkpt>
      <trkpt lat="45.02269" lon="6.12672">
        <ele>1635.4</ele>
        <time>2022-12-29T15:12:32Z</time>
      </trkpt>
      <trkpt lat="45.02269" lon="6.12672">
        <ele>1635.4</ele>
        <time>2022-12-29T15:12:33Z</time>
      </trkpt>
      <trkpt lat="45.02269" lon="6.12672">
        <ele>1635.4</ele>
        <time>2022-12-29T15:12:34Z</time>
      </trkpt>
      <trkpt lat="45.02269" lon="6.12672">
        <ele>1635.4</ele>
        <time>2022-12-29T15:12:35Z</time>
      </trkpt>
      <trkpt lat="45.02269" lon="6.12672">
        <ele>1635.6</ele>
        <time>2022-12-29T15:12:36Z</time>
      </trkpt>
      <trkpt lat="45.02269" lon="6.12672">
        <ele>1635.6</ele>
        <time>2022-12-29T15:12:37Z</time>
      </trkpt>
      <trkpt lat="45.02269" lon="6.12672">
        <ele>1635.6</ele>
        <time>2022-12-29T15:12:38Z</time>
      </trkpt>
      <trkpt lat="45.02269" lon="6.12672">
        <ele>1635.6</ele>
        <time>2022-12-29T15:12:39Z</time>
      </trkpt>
      <trkpt lat="45.02269" lon="6.12672">
        <ele>1635.6</ele>
        <time>2022-12-29T15:12:40Z</time>
      </trkpt>
      <trkpt lat="45.02269" lon="6.12672">
        <ele>1635.6</ele>
        <time>2022-12-29T15:12:41Z</time>
      </trkpt>
      <trkpt lat="45.02269" lon="6.12672">
        <ele>1635.6</ele>
        <time>2022-12-29T15:12:42Z</time>
      </trkpt>
      <trkpt lat="45.02269" lon="6.12672">
        <ele>1635.6</ele>
        <time>2022-12-29T15:12:43Z</time>
      </trkpt>
      <trkpt lat="45.02269" lon="6.12672">
        <ele>1635.6</ele>
        <time>2022-12-29T15:12:44Z</time>
      </trkpt>
      <trkpt lat="45.02269" lon="6.12672">
        <ele>1635.6</ele>
        <time>2022-12-29T15:12:45Z</time>
      </trkpt>
      <trkpt lat="45.02269" lon="6.12672">
        <ele>1635.8</ele>
        <time>2022-12-29T15:12:46Z</time>
      </trkpt>
      <trkpt lat="45.02269" lon="6.12672">
        <ele>1635.8</ele>
        <time>2022-12-29T15:12:47Z</time>
      </trkpt>
      <trkpt lat="45.02269" lon="6.12672">
        <ele>1635.8</ele>
        <time>2022-12-29T15:12:48Z</time>
      </trkpt>
      <trkpt lat="45.02269" lon="6.12672">
        <ele>1635.8</ele>
        <time>2022-12-29T15:12:49Z</time>
      </trkpt>
      <trkpt lat="45.02269" lon="6.12672">
        <ele>1635.8</ele>
        <time>2022-12-29T15:12:50Z</time>
      </trkpt>
      <trkpt lat="45.02269" lon="6.12672">
        <ele>1635.8</ele>
        <time>2022-12-29T15:12:51Z</time>
      </trkpt>
      <trkpt lat="45.02269" lon="6.12672">
        <ele>1635.8</ele>
        <time>2022-12-29T15:12:52Z</time>
      </trkpt>
      <trkpt lat="45.02269" lon="6.12672">
        <ele>1635.8</ele>
        <time>2022-12-29T15:12:53Z</time>
      </trkpt>
      <trkpt lat="45.02269" lon="6.12672">
        <ele>1635.8</ele>
        <time>2022-12-29T15:12:54Z</time>
      </trkpt>
      <trkpt lat="45.02269" lon="6.12672">
        <ele>1635.8</ele>
        <time>2022-12-29T15:12:55Z</time>
      </trkpt>
      <trkpt lat="45.02269" lon="6.12672">
        <ele>1635</ele>
        <time>2022-12-29T15:12:56Z</time>
      </trkpt>
      <trkpt lat="45.02269" lon="6.12672">
        <ele>1635</ele>
        <time>2022-12-29T15:12:57Z</time>
      </trkpt>
      <trkpt lat="45.02269" lon="6.12672">
        <ele>1635</ele>
        <time>2022-12-29T15:12:58Z</time>
      </trkpt>
      <trkpt lat="45.02269" lon="6.12672">
        <ele>1635</ele>
        <time>2022-12-29T15:12:59Z</time>
      </trkpt>
      <trkpt lat="45.02269" lon="6.12672">
        <ele>1635</ele>
        <time>2022-12-29T15:13:00Z</time>
      </trkpt>
      <trkpt lat="45.02269" lon="6.12672">
        <ele>1635</ele>
        <time>2022-12-29T15:13:01Z</time>
      </trkpt>
      <trkpt lat="45.02269" lon="6.12672">
        <ele>1635</ele>
        <time>2022-12-29T15:13:02Z</time>
      </trkpt>
      <trkpt lat="45.02269" lon="6.12672">
        <ele>1635</ele>
        <time>2022-12-29T15:13:03Z</time>
      </trkpt>
      <trkpt lat="45.02269" lon="6.12672">
        <ele>1635</ele>
        <time>2022-12-29T15:13:04Z</time>
      </trkpt>
      <trkpt lat="45.02269" lon="6.12672">
        <ele>1635</ele>
        <time>2022-12-29T15:13:05Z</time>
      </trkpt>
      <trkpt lat="45.02269" lon="6.12672">
        <ele>1635.6</ele>
        <time>2022-12-29T15:13:06Z</time>
      </trkpt>
      <trkpt lat="45.02269" lon="6.12672">
        <ele>1635.6</ele>
        <time>2022-12-29T15:13:07Z</time>
      </trkpt>
      <trkpt lat="45.02269" lon="6.12672">
        <ele>1635.6</ele>
        <time>2022-12-29T15:13:08Z</time>
      </trkpt>
      <trkpt lat="45.02269" lon="6.12672">
        <ele>1635.6</ele>
        <time>2022-12-29T15:13:09Z</time>
      </trkpt>
      <trkpt lat="45.02269" lon="6.12672">
        <ele>1635.6</ele>
        <time>2022-12-29T15:13:10Z</time>
      </trkpt>
      <trkpt lat="45.02269" lon="6.12672">
        <ele>1635.6</ele>
        <time>2022-12-29T15:13:11Z</time>
      </trkpt>
      <trkpt lat="45.02269" lon="6.12672">
        <ele>1635.6</ele>
        <time>2022-12-29T15:13:12Z</time>
      </trkpt>
      <trkpt lat="45.02269" lon="6.12672">
        <ele>1635.6</ele>
        <time>2022-12-29T15:13:13Z</time>
      </trkpt>
      <trkpt lat="45.02269" lon="6.12672">
        <ele>1635.6</ele>
        <time>2022-12-29T15:13:14Z</time>
      </trkpt>
      <trkpt lat="45.02269" lon="6.12672">
        <ele>1635.6</ele>
        <time>2022-12-29T15:13:15Z</time>
      </trkpt>
      <trkpt lat="45.02269" lon="6.12672">
        <ele>1636</ele>
        <time>2022-12-29T15:13:16Z</time>
      </trkpt>
      <trkpt lat="45.02269" lon="6.12672">
        <ele>1636</ele>
        <time>2022-12-29T15:13:17Z</time>
      </trkpt>
      <trkpt lat="45.02269" lon="6.12672">
        <ele>1636</ele>
        <time>2022-12-29T15:13:18Z</time>
      </trkpt>
      <trkpt lat="45.02269" lon="6.12672">
        <ele>1636</ele>
        <time>2022-12-29T15:13:19Z</time>
      </trkpt>
      <trkpt lat="45.02269" lon="6.12672">
        <ele>1636</ele>
        <time>2022-12-29T15:13:20Z</time>
      </trkpt>
      <trkpt lat="45.02269" lon="6.12672">
        <ele>1636</ele>
        <time>2022-12-29T15:13:21Z</time>
      </trkpt>
      <trkpt lat="45.02269" lon="6.12672">
        <ele>1636</ele>
        <time>2022-12-29T15:13:22Z</time>
      </trkpt>
      <trkpt lat="45.02269" lon="6.12672">
        <ele>1636</ele>
        <time>2022-12-29T15:13:23Z</time>
      </trkpt>
      <trkpt lat="45.02269" lon="6.12672">
        <ele>1636</ele>
        <time>2022-12-29T15:13:24Z</time>
      </trkpt>
      <trkpt lat="45.02269" lon="6.12672">
        <ele>1636</ele>
        <time>2022-12-29T15:13:25Z</time>
      </trkpt>
      <trkpt lat="45.02269" lon="6.12672">
        <ele>1635.4</ele>
        <time>2022-12-29T15:13:26Z</time>
      </trkpt>
      <trkpt lat="45.02269" lon="6.12672">
        <ele>1635.4</ele>
        <time>2022-12-29T15:13:27Z</time>
      </trkpt>
      <trkpt lat="45.02269" lon="6.12672">
        <ele>1635.4</ele>
        <time>2022-12-29T15:13:28Z</time>
      </trkpt>
      <trkpt lat="45.02269" lon="6.12672">
        <ele>1635.4</ele>
        <time>2022-12-29T15:13:29Z</time>
      </trkpt>
      <trkpt lat="45.02269" lon="6.12672">
        <ele>1635.4</ele>
        <time>2022-12-29T15:13:30Z</time>
      </trkpt>
      <trkpt lat="45.02269" lon="6.12672">
        <ele>1635.4</ele>
        <time>2022-12-29T15:13:31Z</time>
      </trkpt>
      <trkpt lat="45.02269" lon="6.12672">
        <ele>1635.4</ele>
        <time>2022-12-29T15:13:32Z</time>
      </trkpt>
      <trkpt lat="45.02269" lon="6.12672">
        <ele>1635.4</ele>
        <time>2022-12-29T15:13:33Z</time>
      </trkpt>
      <trkpt lat="45.02269" lon="6.12672">
        <ele>1635.4</ele>
        <time>2022-12-29T15:13:34Z</time>
      </trkpt>
      <trkpt lat="45.02269" lon="6.12672">
        <ele>1635.4</ele>
        <time>2022-12-29T15:13:35Z</time>
      </trkpt>
      <trkpt lat="45.02269" lon="6.12672">
        <ele>1636</ele>
        <time>2022-12-29T15:13:36Z</time>
      </trkpt>
      <trkpt lat="45.02269" lon="6.12672">
        <ele>1636</ele>
        <time>2022-12-29T15:13:37Z</time>
      </trkpt>
      <trkpt lat="45.02269" lon="6.12672">
        <ele>1636</ele>
        <time>2022-12-29T15:13:38Z</time>
      </trkpt>
      <trkpt lat="45.02269" lon="6.12672">
        <ele>1636</ele>
        <time>2022-12-29T15:13:39Z</time>
      </trkpt>
      <trkpt lat="45.02269" lon="6.12672">
        <ele>1636</ele>
        <time>2022-12-29T15:13:40Z</time>
      </trkpt>
      <trkpt lat="45.02269" lon="6.12672">
        <ele>1636</ele>
        <time>2022-12-29T15:13:41Z</time>
      </trkpt>
      <trkpt lat="45.02269" lon="6.12672">
        <ele>1636</ele>
        <time>2022-12-29T15:13:42Z</time>
      </trkpt>
      <trkpt lat="45.02269" lon="6.12672">
        <ele>1636</ele>
        <time>2022-12-29T15:13:43Z</time>
      </trkpt>
      <trkpt lat="45.02269" lon="6.12672">
        <ele>1636</ele>
        <time>2022-12-29T15:13:44Z</time>
      </trkpt>
      <trkpt lat="45.02269" lon="6.12672">
        <ele>1636</ele>
        <time>2022-12-29T15:13:45Z</time>
      </trkpt>
      <trkpt lat="45.02269" lon="6.12672">
        <ele>1636.8</ele>
        <time>2022-12-29T15:13:46Z</time>
      </trkpt>
      <trkpt lat="45.02269" lon="6.12672">
        <ele>1636.8</ele>
        <time>2022-12-29T15:13:47Z</time>
      </trkpt>
      <trkpt lat="45.02269" lon="6.12672">
        <ele>1636.8</ele>
        <time>2022-12-29T15:13:48Z</time>
      </trkpt>
      <trkpt lat="45.02269" lon="6.12672">
        <ele>1636.8</ele>
        <time>2022-12-29T15:13:49Z</time>
      </trkpt>
      <trkpt lat="45.02269" lon="6.12672">
        <ele>1636.8</ele>
        <time>2022-12-29T15:13:50Z</time>
      </trkpt>
      <trkpt lat="45.02269" lon="6.12672">
        <ele>1636.8</ele>
        <time>2022-12-29T15:13:51Z</time>
      </trkpt>
      <trkpt lat="45.02269" lon="6.12672">
        <ele>1636.8</ele>
        <time>2022-12-29T15:13:52Z</time>
      </trkpt>
      <trkpt lat="45.02269" lon="6.12672">
        <ele>1636.8</ele>
        <time>2022-12-29T15:13:53Z</time>
      </trkpt>
      <trkpt lat="45.02269" lon="6.12672">
        <ele>1636.8</ele>
        <time>2022-12-29T15:13:54Z</time>
      </trkpt>
      <trkpt lat="45.02269" lon="6.12672">
        <ele>1636.8</ele>
        <time>2022-12-29T15:13:55Z</time>
      </trkpt>
      <trkpt lat="45.02269" lon="6.12672">
        <ele>1637</ele>
        <time>2022-12-29T15:13:56Z</time>
      </trkpt>
      <trkpt lat="45.02269" lon="6.12672">
        <ele>1637</ele>
        <time>2022-12-29T15:13:57Z</time>
      </trkpt>
      <trkpt lat="45.02269" lon="6.12672">
        <ele>1637</ele>
        <time>2022-12-29T15:13:58Z</time>
      </trkpt>
      <trkpt lat="45.02269" lon="6.12672">
        <ele>1637</ele>
        <time>2022-12-29T15:13:59Z</time>
      </trkpt>
      <trkpt lat="45.02269" lon="6.12672">
        <ele>1637</ele>
        <time>2022-12-29T15:14:00Z</time>
      </trkpt>
      <trkpt lat="45.02269" lon="6.12672">
        <ele>1637</ele>
        <time>2022-12-29T15:14:01Z</time>
      </trkpt>
      <trkpt lat="45.02269" lon="6.12672">
        <ele>1637</ele>
        <time>2022-12-29T15:14:02Z</time>
      </trkpt>
      <trkpt lat="45.02269" lon="6.12672">
        <ele>1637</ele>
        <time>2022-12-29T15:14:03Z</time>
      </trkpt>
      <trkpt lat="45.02269" lon="6.12672">
        <ele>1637</ele>
        <time>2022-12-29T15:14:04Z</time>
      </trkpt>
      <trkpt lat="45.02269" lon="6.12672">
        <ele>1637</ele>
        <time>2022-12-29T15:14:05Z</time>
      </trkpt>
      <trkpt lat="45.02269" lon="6.12672">
        <ele>1637</ele>
        <time>2022-12-29T15:14:06Z</time>
      </trkpt>
      <trkpt lat="45.02269" lon="6.12672">
        <ele>1637</ele>
        <time>2022-12-29T15:14:07Z</time>
      </trkpt>
      <trkpt lat="45.02269" lon="6.12672">
        <ele>1637</ele>
        <time>2022-12-29T15:14:08Z</time>
      </trkpt>
      <trkpt lat="45.02269" lon="6.12672">
        <ele>1637</ele>
        <time>2022-12-29T15:14:09Z</time>
      </trkpt>
      <trkpt lat="45.02269" lon="6.12672">
        <ele>1637</ele>
        <time>2022-12-29T15:14:10Z</time>
      </trkpt>
      <trkpt lat="45.02269" lon="6.12672">
        <ele>1637</ele>
        <time>2022-12-29T15:14:11Z</time>
      </trkpt>
      <trkpt lat="45.02269" lon="6.12672">
        <ele>1637</ele>
        <time>2022-12-29T15:14:12Z</time>
      </trkpt>
      <trkpt lat="45.02269" lon="6.12672">
        <ele>1637</ele>
        <time>2022-12-29T15:14:13Z</time>
      </trkpt>
      <trkpt lat="45.02269" lon="6.12487">
        <ele>1637</ele>
        <time>2022-12-29T15:14:14Z</time>
      </trkpt>
      <trkpt lat="45.02269" lon="6.12487">
        <ele>1637</ele>
        <time>2022-12-29T15:14:15Z</time>
      </trkpt>
      <trkpt lat="45.02269" lon="6.12487">
        <ele>1637</ele>
        <time>2022-12-29T15:14:16Z</time>
      </trkpt>
      <trkpt lat="45.02269" lon="6.12487">
        <ele>1637</ele>
        <time>2022-12-29T15:14:17Z</time>
      </trkpt>
      <trkpt lat="45.02269" lon="6.12487">
        <ele>1637</ele>
        <time>2022-12-29T15:14:18Z</time>
      </trkpt>
      <trkpt lat="45.02269" lon="6.12487">
        <ele>1637</ele>
        <time>2022-12-29T15:14:19Z</time>
      </trkpt>
      <trkpt lat="45.02269" lon="6.12487">
        <ele>1637</ele>
        <time>2022-12-29T15:14:20Z</time>
      </trkpt>
      <trkpt lat="45.02269" lon="6.12487">
        <ele>1637</ele>
        <time>2022-12-29T15:14:21Z</time>
      </trkpt>
      <trkpt lat="45.02269" lon="6.12487">
        <ele>1637</ele>
        <time>2022-12-29T15:14:22Z</time>
      </trkpt>
      <trkpt lat="45.02269" lon="6.12487">
        <ele>1637</ele>
        <time>2022-12-29T15:14:23Z</time>
      </trkpt>
      <trkpt lat="45.02269" lon="6.12487">
        <ele>1637</ele>
        <time>2022-12-29T15:14:24Z</time>
      </trkpt>
      <trkpt lat="45.02269" lon="6.12487">
        <ele>1637</ele>
        <time>2022-12-29T15:14:25Z</time>
      </trkpt>
      <trkpt lat="45.02269" lon="6.12487">
        <ele>1637</ele>
        <time>2022-12-29T15:14:26Z</time>
      </trkpt>
      <trkpt lat="45.02269" lon="6.12487">
        <ele>1637</ele>
        <time>2022-12-29T15:14:27Z</time>
      </trkpt>
      <trkpt lat="45.02269" lon="6.12487">
        <ele>1637</ele>
        <time>2022-12-29T15:14:28Z</time>
      </trkpt>
      <trkpt lat="45.02269" lon="6.12487">
        <ele>1637</ele>
        <time>2022-12-29T15:14:29Z</time>
      </trkpt>
      <trkpt lat="45.02269" lon="6.12487">
        <ele>1637</ele>
        <time>2022-12-29T15:14:30Z</time>
      </trkpt>
      <trkpt lat="45.02269" lon="6.12487">
        <ele>1637</ele>
        <time>2022-12-29T15:14:31Z</time>
      </trkpt>
      <trkpt lat="45.02269" lon="6.12487">
        <ele>1637</ele>
        <time>2022-12-29T15:14:32Z</time>
      </trkpt>
      <trkpt lat="45.02269" lon="6.12487">
        <ele>1637</ele>
        <time>2022-12-29T15:14:33Z</time>
      </trkpt>
      <trkpt lat="45.02269" lon="6.12487">
        <ele>1637</ele>
        <time>2022-12-29T15:14:34Z</time>
      </trkpt>
      <trkpt lat="45.02269" lon="6.12487">
        <ele>1637</ele>
        <time>2022-12-29T15:14:35Z</time>
      </trkpt>
      <trkpt lat="45.02269" lon="6.12487">
        <ele>1636.8</ele>
        <time>2022-12-29T15:14:36Z</time>
      </trkpt>
      <trkpt lat="45.02269" lon="6.12487">
        <ele>1636.8</ele>
        <time>2022-12-29T15:14:37Z</time>
      </trkpt>
      <trkpt lat="45.02269" lon="6.12487">
        <ele>1636.8</ele>
        <time>2022-12-29T15:14:38Z</time>
      </trkpt>
      <trkpt lat="45.02269" lon="6.12487">
        <ele>1636.8</ele>
        <time>2022-12-29T15:14:39Z</time>
      </trkpt>
      <trkpt lat="45.02269" lon="6.12487">
        <ele>1636.8</ele>
        <time>2022-12-29T15:14:40Z</time>
      </trkpt>
      <trkpt lat="45.02269" lon="6.12487">
        <ele>1636.8</ele>
        <time>2022-12-29T15:14:41Z</time>
      </trkpt>
      <trkpt lat="45.02269" lon="6.12487">
        <ele>1636.8</ele>
        <time>2022-12-29T15:14:42Z</time>
      </trkpt>
      <trkpt lat="45.02269" lon="6.12487">
        <ele>1636.8</ele>
        <time>2022-12-29T15:14:43Z</time>
      </trkpt>
      <trkpt lat="45.02269" lon="6.12487">
        <ele>1636.8</ele>
        <time>2022-12-29T15:14:44Z</time>
      </trkpt>
      <trkpt lat="45.02269" lon="6.12487">
        <ele>1636.8</ele>
        <time>2022-12-29T15:14:45Z</time>
      </trkpt>
      <trkpt lat="45.02269" lon="6.12487">
        <ele>1637.2</ele>
        <time>2022-12-29T15:14:46Z</time>
      </trkpt>
      <trkpt lat="45.02269" lon="6.12487">
        <ele>1637.2</ele>
        <time>2022-12-29T15:14:47Z</time>
      </trkpt>
      <trkpt lat="45.02269" lon="6.12487">
        <ele>1637.2</ele>
        <time>2022-12-29T15:14:48Z</time>
      </trkpt>
      <trkpt lat="45.02269" lon="6.12487">
        <ele>1637.2</ele>
        <time>2022-12-29T15:14:49Z</time>
      </trkpt>
      <trkpt lat="45.02269" lon="6.12487">
        <ele>1637.2</ele>
        <time>2022-12-29T15:14:50Z</time>
      </trkpt>
      <trkpt lat="45.02269" lon="6.12487">
        <ele>1637.2</ele>
        <time>2022-12-29T15:14:51Z</time>
      </trkpt>
      <trkpt lat="45.02269" lon="6.12487">
        <ele>1637.2</ele>
        <time>2022-12-29T15:14:52Z</time>
      </trkpt>
      <trkpt lat="45.02269" lon="6.12487">
        <ele>1637.2</ele>
        <time>2022-12-29T15:14:53Z</time>
      </trkpt>
      <trkpt lat="45.02269" lon="6.12487">
        <ele>1637.2</ele>
        <time>2022-12-29T15:14:54Z</time>
      </trkpt>
      <trkpt lat="45.02269" lon="6.12487">
        <ele>1637.2</ele>
        <time>2022-12-29T15:14:55Z</time>
      </trkpt>
      <trkpt lat="45.02269" lon="6.12487">
        <ele>1636.2</ele>
        <time>2022-12-29T15:14:56Z</time>
      </trkpt>
      <trkpt lat="45.02269" lon="6.12487">
        <ele>1636.2</ele>
        <time>2022-12-29T15:14:57Z</time>
      </trkpt>
      <trkpt lat="45.02269" lon="6.12487">
        <ele>1636.2</ele>
        <time>2022-12-29T15:14:58Z</time>
      </trkpt>
      <trkpt lat="45.02269" lon="6.12487">
        <ele>1636.2</ele>
        <time>2022-12-29T15:14:59Z</time>
      </trkpt>
      <trkpt lat="45.02269" lon="6.12487">
        <ele>1636.2</ele>
        <time>2022-12-29T15:15:00Z</time>
      </trkpt>
      <trkpt lat="45.02269" lon="6.12487">
        <ele>1636.2</ele>
        <time>2022-12-29T15:15:01Z</time>
      </trkpt>
      <trkpt lat="45.02269" lon="6.12487">
        <ele>1636.2</ele>
        <time>2022-12-29T15:15:02Z</time>
      </trkpt>
      <trkpt lat="45.02269" lon="6.12487">
        <ele>1636.2</ele>
        <time>2022-12-29T15:15:03Z</time>
      </trkpt>
      <trkpt lat="45.02269" lon="6.12487">
        <ele>1636.2</ele>
        <time>2022-12-29T15:15:04Z</time>
      </trkpt>
      <trkpt lat="45.02269" lon="6.12487">
        <ele>1636.2</ele>
        <time>2022-12-29T15:15:05Z</time>
      </trkpt>
      <trkpt lat="45.02269" lon="6.12487">
        <ele>1636.2</ele>
        <time>2022-12-29T15:15:06Z</time>
      </trkpt>
      <trkpt lat="45.02269" lon="6.12487">
        <ele>1636.2</ele>
        <time>2022-12-29T15:15:07Z</time>
      </trkpt>
      <trkpt lat="45.02269" lon="6.12487">
        <ele>1636.2</ele>
        <time>2022-12-29T15:15:08Z</time>
      </trkpt>
      <trkpt lat="45.02269" lon="6.12487">
        <ele>1636.2</ele>
        <time>2022-12-29T15:15:09Z</time>
      </trkpt>
      <trkpt lat="45.02269" lon="6.12487">
        <ele>1636.2</ele>
        <time>2022-12-29T15:15:10Z</time>
      </trkpt>
      <trkpt lat="45.02269" lon="6.12487">
        <ele>1636.2</ele>
        <time>2022-12-29T15:15:11Z</time>
      </trkpt>
      <trkpt lat="45.02269" lon="6.12487">
        <ele>1636.2</ele>
        <time>2022-12-29T15:15:12Z</time>
      </trkpt>
      <trkpt lat="45.02269" lon="6.12487">
        <ele>1636.2</ele>
        <time>2022-12-29T15:15:13Z</time>
      </trkpt>
      <trkpt lat="45.02269" lon="6.12487">
        <ele>1636.2</ele>
        <time>2022-12-29T15:15:14Z</time>
      </trkpt>
      <trkpt lat="45.02269" lon="6.12487">
        <ele>1636.2</ele>
        <time>2022-12-29T15:15:15Z</time>
      </trkpt>
      <trkpt lat="45.02269" lon="6.12487">
        <ele>1637</ele>
        <time>2022-12-29T15:15:16Z</time>
      </trkpt>
      <trkpt lat="45.02269" lon="6.12487">
        <ele>1637</ele>
        <time>2022-12-29T15:15:17Z</time>
      </trkpt>
      <trkpt lat="45.02269" lon="6.12487">
        <ele>1637</ele>
        <time>2022-12-29T15:15:18Z</time>
      </trkpt>
      <trkpt lat="45.02269" lon="6.12487">
        <ele>1637</ele>
        <time>2022-12-29T15:15:19Z</time>
      </trkpt>
      <trkpt lat="45.02269" lon="6.12487">
        <ele>1637</ele>
        <time>2022-12-29T15:15:20Z</time>
      </trkpt>
      <trkpt lat="45.02269" lon="6.12487">
        <ele>1637</ele>
        <time>2022-12-29T15:15:21Z</time>
      </trkpt>
      <trkpt lat="45.02269" lon="6.12487">
        <ele>1637</ele>
        <time>2022-12-29T15:15:22Z</time>
      </trkpt>
      <trkpt lat="45.02269" lon="6.12487">
        <ele>1637</ele>
        <time>2022-12-29T15:15:23Z</time>
      </trkpt>
      <trkpt lat="45.02269" lon="6.12487">
        <ele>1637</ele>
        <time>2022-12-29T15:15:24Z</time>
      </trkpt>
      <trkpt lat="45.02269" lon="6.12487">
        <ele>1637</ele>
        <time>2022-12-29T15:15:25Z</time>
      </trkpt>
      <trkpt lat="45.02269" lon="6.12487">
        <ele>1637</ele>
        <time>2022-12-29T15:15:26Z</time>
      </trkpt>
      <trkpt lat="45.02269" lon="6.12487">
        <ele>1637</ele>
        <time>2022-12-29T15:15:27Z</time>
      </trkpt>
      <trkpt lat="45.02269" lon="6.12487">
        <ele>1637</ele>
        <time>2022-12-29T15:15:28Z</time>
      </trkpt>
      <trkpt lat="45.02269" lon="6.12487">
        <ele>1637</ele>
        <time>2022-12-29T15:15:29Z</time>
      </trkpt>
      <trkpt lat="45.02269" lon="6.12487">
        <ele>1637</ele>
        <time>2022-12-29T15:15:30Z</time>
      </trkpt>
      <trkpt lat="45.02269" lon="6.12487">
        <ele>1637</ele>
        <time>2022-12-29T15:15:31Z</time>
      </trkpt>
      <trkpt lat="45.02269" lon="6.12487">
        <ele>1637</ele>
        <time>2022-12-29T15:15:32Z</time>
      </trkpt>
      <trkpt lat="45.02269" lon="6.12487">
        <ele>1637</ele>
        <time>2022-12-29T15:15:33Z</time>
      </trkpt>
      <trkpt lat="45.02269" lon="6.12487">
        <ele>1637</ele>
        <time>2022-12-29T15:15:34Z</time>
      </trkpt>
      <trkpt lat="45.02269" lon="6.12487">
        <ele>1637</ele>
        <time>2022-12-29T15:15:35Z</time>
      </trkpt>
      <trkpt lat="45.02269" lon="6.12487">
        <ele>1637</ele>
        <time>2022-12-29T15:15:36Z</time>
      </trkpt>
      <trkpt lat="45.02269" lon="6.12487">
        <ele>1637</ele>
        <time>2022-12-29T15:15:37Z</time>
      </trkpt>
      <trkpt lat="45.02269" lon="6.12487">
        <ele>1637</ele>
        <time>2022-12-29T15:15:38Z</time>
      </trkpt>
      <trkpt lat="45.02269" lon="6.12487">
        <ele>1637</ele>
        <time>2022-12-29T15:15:39Z</time>
      </trkpt>
    </trkseg>
  </trk>
</gpx>